<?xml version="1.0" encoding="UTF-8" standalone="no" ?>
<gpx xmlns="http://www.topografix.com/GPX/1/1" xmlns:xsi="http://www.w3.org/2001/XMLSchema-instance" xsi:schemaLocation="http://www.topografix.com/GPX/1/1 http://www.topografix.com/GPX/1/1/gpx.xsd" version="1.1" creator="VisuGPX - https://www.visugpx.com">
  <metadata>
    <name>2018-07-17 Bike ride-Dombes O-Medium</name>
    <desc><![CDATA[2018-07-17 Bike ride-Dombes O-Medium]]></desc>
  </metadata>
  <wpt lat="45.92454" lon="4.73711">
    <ele>174</ele>
    <name><![CDATA[2018-07-17 10:04 (Start)]]></name>
  </wpt>
  <wpt lat="45.92457" lon="4.73713">
    <ele>174</ele>
    <name><![CDATA[2018-07-17 10:04 (End)]]></name>
  </wpt>
  <trk>
    <name><![CDATA[2018-07-17 10:04]]></name>
    <trkseg>
      <trkpt lat="45.92454" lon="4.73711">
        <ele>174</ele>
        <time>2018-07-17T08:04:54.005Z</time>
      </trkpt>
      <trkpt lat="45.92464" lon="4.73723">
        <ele>174</ele>
        <time>2018-07-17T08:04:55.669Z</time>
      </trkpt>
      <trkpt lat="45.92465" lon="4.73723">
        <ele>174</ele>
        <time>2018-07-17T08:04:56.71Z</time>
      </trkpt>
      <trkpt lat="45.92466" lon="4.7372">
        <ele>174</ele>
        <time>2018-07-17T08:04:57.709Z</time>
      </trkpt>
      <trkpt lat="45.92467" lon="4.73719">
        <ele>174</ele>
        <time>2018-07-17T08:04:58.709Z</time>
      </trkpt>
      <trkpt lat="45.92461" lon="4.73713">
        <ele>174</ele>
        <time>2018-07-17T08:05:05Z</time>
      </trkpt>
      <trkpt lat="45.92459" lon="4.73713">
        <ele>174</ele>
        <time>2018-07-17T08:05:06Z</time>
      </trkpt>
      <trkpt lat="45.92458" lon="4.73713">
        <ele>174</ele>
        <time>2018-07-17T08:05:07Z</time>
      </trkpt>
      <trkpt lat="45.92464" lon="4.73708">
        <ele>174</ele>
        <time>2018-07-17T08:05:22Z</time>
      </trkpt>
      <trkpt lat="45.92465" lon="4.73706">
        <ele>174</ele>
        <time>2018-07-17T08:05:23Z</time>
      </trkpt>
      <trkpt lat="45.92467" lon="4.73697">
        <ele>174</ele>
        <time>2018-07-17T08:05:26Z</time>
      </trkpt>
      <trkpt lat="45.92468" lon="4.73693">
        <ele>174</ele>
        <time>2018-07-17T08:05:27Z</time>
      </trkpt>
      <trkpt lat="45.9247" lon="4.73684">
        <ele>174</ele>
        <time>2018-07-17T08:05:29Z</time>
      </trkpt>
      <trkpt lat="45.92471" lon="4.7368">
        <ele>174</ele>
        <time>2018-07-17T08:05:30Z</time>
      </trkpt>
      <trkpt lat="45.92474" lon="4.73666">
        <ele>174</ele>
        <time>2018-07-17T08:05:31Z</time>
      </trkpt>
      <trkpt lat="45.92474" lon="4.73659">
        <ele>174</ele>
        <time>2018-07-17T08:05:33Z</time>
      </trkpt>
      <trkpt lat="45.92475" lon="4.73651">
        <ele>174</ele>
        <time>2018-07-17T08:05:34Z</time>
      </trkpt>
      <trkpt lat="45.92479" lon="4.73641">
        <ele>174</ele>
        <time>2018-07-17T08:05:37Z</time>
      </trkpt>
      <trkpt lat="45.92485" lon="4.73639">
        <ele>174</ele>
        <time>2018-07-17T08:05:38Z</time>
      </trkpt>
      <trkpt lat="45.92492" lon="4.73642">
        <ele>174</ele>
        <time>2018-07-17T08:05:39Z</time>
      </trkpt>
      <trkpt lat="45.92496" lon="4.73643">
        <ele>174</ele>
        <time>2018-07-17T08:05:40Z</time>
      </trkpt>
      <trkpt lat="45.92501" lon="4.73643">
        <ele>174</ele>
        <time>2018-07-17T08:05:41Z</time>
      </trkpt>
      <trkpt lat="45.92507" lon="4.73642">
        <ele>174</ele>
        <time>2018-07-17T08:05:42Z</time>
      </trkpt>
      <trkpt lat="45.92515" lon="4.73641">
        <ele>174</ele>
        <time>2018-07-17T08:05:44Z</time>
      </trkpt>
      <trkpt lat="45.92519" lon="4.73642">
        <ele>173</ele>
        <time>2018-07-17T08:05:45Z</time>
      </trkpt>
      <trkpt lat="45.92525" lon="4.73642">
        <ele>173</ele>
        <time>2018-07-17T08:05:46Z</time>
      </trkpt>
      <trkpt lat="45.9253" lon="4.73641">
        <ele>173</ele>
        <time>2018-07-17T08:05:47Z</time>
      </trkpt>
      <trkpt lat="45.92539" lon="4.73639">
        <ele>173</ele>
        <time>2018-07-17T08:05:49Z</time>
      </trkpt>
      <trkpt lat="45.92542" lon="4.73639">
        <ele>173</ele>
        <time>2018-07-17T08:05:50Z</time>
      </trkpt>
      <trkpt lat="45.92547" lon="4.73636">
        <ele>173</ele>
        <time>2018-07-17T08:05:51Z</time>
      </trkpt>
      <trkpt lat="45.92553" lon="4.73634">
        <ele>173</ele>
        <time>2018-07-17T08:05:52Z</time>
      </trkpt>
      <trkpt lat="45.92559" lon="4.73633">
        <ele>173</ele>
        <time>2018-07-17T08:05:53Z</time>
      </trkpt>
      <trkpt lat="45.92564" lon="4.73631">
        <ele>173</ele>
        <time>2018-07-17T08:05:54Z</time>
      </trkpt>
      <trkpt lat="45.92571" lon="4.73629">
        <ele>173</ele>
        <time>2018-07-17T08:05:55Z</time>
      </trkpt>
      <trkpt lat="45.92575" lon="4.73629">
        <ele>173</ele>
        <time>2018-07-17T08:05:56Z</time>
      </trkpt>
      <trkpt lat="45.92581" lon="4.73626">
        <ele>173</ele>
        <time>2018-07-17T08:05:57Z</time>
      </trkpt>
      <trkpt lat="45.92589" lon="4.73623">
        <ele>173</ele>
        <time>2018-07-17T08:05:58Z</time>
      </trkpt>
      <trkpt lat="45.92593" lon="4.73621">
        <ele>173</ele>
        <time>2018-07-17T08:05:59Z</time>
      </trkpt>
      <trkpt lat="45.92598" lon="4.73621">
        <ele>173</ele>
        <time>2018-07-17T08:06:00Z</time>
      </trkpt>
      <trkpt lat="45.92605" lon="4.73619">
        <ele>173</ele>
        <time>2018-07-17T08:06:01Z</time>
      </trkpt>
      <trkpt lat="45.92611" lon="4.7362">
        <ele>173</ele>
        <time>2018-07-17T08:06:02Z</time>
      </trkpt>
      <trkpt lat="45.92617" lon="4.73625">
        <ele>173</ele>
        <time>2018-07-17T08:06:04Z</time>
      </trkpt>
      <trkpt lat="45.92615" lon="4.73635">
        <ele>173</ele>
        <time>2018-07-17T08:06:05Z</time>
      </trkpt>
      <trkpt lat="45.92621" lon="4.73641">
        <ele>173</ele>
        <time>2018-07-17T08:06:06Z</time>
      </trkpt>
      <trkpt lat="45.92623" lon="4.73646">
        <ele>173</ele>
        <time>2018-07-17T08:06:07Z</time>
      </trkpt>
      <trkpt lat="45.92626" lon="4.73652">
        <ele>173</ele>
        <time>2018-07-17T08:06:08Z</time>
      </trkpt>
      <trkpt lat="45.9263" lon="4.73657">
        <ele>173</ele>
        <time>2018-07-17T08:06:09Z</time>
      </trkpt>
      <trkpt lat="45.92632" lon="4.73664">
        <ele>173</ele>
        <time>2018-07-17T08:06:10Z</time>
      </trkpt>
      <trkpt lat="45.92635" lon="4.73671">
        <ele>173</ele>
        <time>2018-07-17T08:06:11Z</time>
      </trkpt>
      <trkpt lat="45.92638" lon="4.73677">
        <ele>173</ele>
        <time>2018-07-17T08:06:12Z</time>
      </trkpt>
      <trkpt lat="45.92642" lon="4.73683">
        <ele>173</ele>
        <time>2018-07-17T08:06:13Z</time>
      </trkpt>
      <trkpt lat="45.92644" lon="4.73688">
        <ele>173</ele>
        <time>2018-07-17T08:06:14Z</time>
      </trkpt>
      <trkpt lat="45.92651" lon="4.73691">
        <ele>173</ele>
        <time>2018-07-17T08:06:15Z</time>
      </trkpt>
      <trkpt lat="45.92656" lon="4.73696">
        <ele>173</ele>
        <time>2018-07-17T08:06:16Z</time>
      </trkpt>
      <trkpt lat="45.92659" lon="4.737">
        <ele>173</ele>
        <time>2018-07-17T08:06:17Z</time>
      </trkpt>
      <trkpt lat="45.92666" lon="4.73703">
        <ele>173</ele>
        <time>2018-07-17T08:06:18Z</time>
      </trkpt>
      <trkpt lat="45.9267" lon="4.73707">
        <ele>174</ele>
        <time>2018-07-17T08:06:19Z</time>
      </trkpt>
      <trkpt lat="45.92675" lon="4.73709">
        <ele>174</ele>
        <time>2018-07-17T08:06:20Z</time>
      </trkpt>
      <trkpt lat="45.92681" lon="4.73711">
        <ele>173</ele>
        <time>2018-07-17T08:06:21Z</time>
      </trkpt>
      <trkpt lat="45.92686" lon="4.73713">
        <ele>173</ele>
        <time>2018-07-17T08:06:22Z</time>
      </trkpt>
      <trkpt lat="45.92693" lon="4.73714">
        <ele>173</ele>
        <time>2018-07-17T08:06:23Z</time>
      </trkpt>
      <trkpt lat="45.92699" lon="4.73715">
        <ele>173</ele>
        <time>2018-07-17T08:06:24Z</time>
      </trkpt>
      <trkpt lat="45.92704" lon="4.73716">
        <ele>173</ele>
        <time>2018-07-17T08:06:25Z</time>
      </trkpt>
      <trkpt lat="45.9271" lon="4.73716">
        <ele>173</ele>
        <time>2018-07-17T08:06:26Z</time>
      </trkpt>
      <trkpt lat="45.92715" lon="4.73716">
        <ele>173</ele>
        <time>2018-07-17T08:06:27Z</time>
      </trkpt>
      <trkpt lat="45.9272" lon="4.73718">
        <ele>173</ele>
        <time>2018-07-17T08:06:28Z</time>
      </trkpt>
      <trkpt lat="45.92726" lon="4.73718">
        <ele>173</ele>
        <time>2018-07-17T08:06:29Z</time>
      </trkpt>
      <trkpt lat="45.92731" lon="4.73719">
        <ele>173</ele>
        <time>2018-07-17T08:06:30Z</time>
      </trkpt>
      <trkpt lat="45.92738" lon="4.73719">
        <ele>173</ele>
        <time>2018-07-17T08:06:31Z</time>
      </trkpt>
      <trkpt lat="45.92744" lon="4.7372">
        <ele>173</ele>
        <time>2018-07-17T08:06:32Z</time>
      </trkpt>
      <trkpt lat="45.92749" lon="4.73721">
        <ele>173</ele>
        <time>2018-07-17T08:06:33Z</time>
      </trkpt>
      <trkpt lat="45.92757" lon="4.73725">
        <ele>172</ele>
        <time>2018-07-17T08:06:35Z</time>
      </trkpt>
      <trkpt lat="45.9276" lon="4.73728">
        <ele>172</ele>
        <time>2018-07-17T08:06:36Z</time>
      </trkpt>
      <trkpt lat="45.92764" lon="4.73731">
        <ele>172</ele>
        <time>2018-07-17T08:06:37Z</time>
      </trkpt>
      <trkpt lat="45.92769" lon="4.73733">
        <ele>172</ele>
        <time>2018-07-17T08:06:38Z</time>
      </trkpt>
      <trkpt lat="45.92774" lon="4.73734">
        <ele>172</ele>
        <time>2018-07-17T08:06:39Z</time>
      </trkpt>
      <trkpt lat="45.92778" lon="4.73736">
        <ele>172</ele>
        <time>2018-07-17T08:06:40Z</time>
      </trkpt>
      <trkpt lat="45.92783" lon="4.73747">
        <ele>172</ele>
        <time>2018-07-17T08:06:42Z</time>
      </trkpt>
      <trkpt lat="45.92784" lon="4.73748">
        <ele>172</ele>
        <time>2018-07-17T08:06:43Z</time>
      </trkpt>
      <trkpt lat="45.92788" lon="4.73757">
        <ele>173</ele>
        <time>2018-07-17T08:06:45Z</time>
      </trkpt>
      <trkpt lat="45.92791" lon="4.7376">
        <ele>173</ele>
        <time>2018-07-17T08:06:46Z</time>
      </trkpt>
      <trkpt lat="45.92795" lon="4.73763">
        <ele>173</ele>
        <time>2018-07-17T08:06:47Z</time>
      </trkpt>
      <trkpt lat="45.928" lon="4.73762">
        <ele>173</ele>
        <time>2018-07-17T08:06:48Z</time>
      </trkpt>
      <trkpt lat="45.92804" lon="4.73764">
        <ele>173</ele>
        <time>2018-07-17T08:06:49Z</time>
      </trkpt>
      <trkpt lat="45.92809" lon="4.73766">
        <ele>173</ele>
        <time>2018-07-17T08:06:50Z</time>
      </trkpt>
      <trkpt lat="45.92814" lon="4.73769">
        <ele>173</ele>
        <time>2018-07-17T08:06:51Z</time>
      </trkpt>
      <trkpt lat="45.92819" lon="4.73772">
        <ele>173</ele>
        <time>2018-07-17T08:06:52Z</time>
      </trkpt>
      <trkpt lat="45.92824" lon="4.73776">
        <ele>173</ele>
        <time>2018-07-17T08:06:53Z</time>
      </trkpt>
      <trkpt lat="45.92828" lon="4.73779">
        <ele>173</ele>
        <time>2018-07-17T08:06:54Z</time>
      </trkpt>
      <trkpt lat="45.92834" lon="4.73783">
        <ele>173</ele>
        <time>2018-07-17T08:06:55Z</time>
      </trkpt>
      <trkpt lat="45.92836" lon="4.73785">
        <ele>173</ele>
        <time>2018-07-17T08:06:56Z</time>
      </trkpt>
      <trkpt lat="45.92844" lon="4.73789">
        <ele>173</ele>
        <time>2018-07-17T08:06:58Z</time>
      </trkpt>
      <trkpt lat="45.92846" lon="4.73791">
        <ele>173</ele>
        <time>2018-07-17T08:06:59Z</time>
      </trkpt>
      <trkpt lat="45.92848" lon="4.73792">
        <ele>173</ele>
        <time>2018-07-17T08:07:00Z</time>
      </trkpt>
      <trkpt lat="45.92854" lon="4.73798">
        <ele>173</ele>
        <time>2018-07-17T08:07:01Z</time>
      </trkpt>
      <trkpt lat="45.9286" lon="4.73807">
        <ele>173</ele>
        <time>2018-07-17T08:07:03Z</time>
      </trkpt>
      <trkpt lat="45.92862" lon="4.73813">
        <ele>173</ele>
        <time>2018-07-17T08:07:04Z</time>
      </trkpt>
      <trkpt lat="45.92863" lon="4.73821">
        <ele>173</ele>
        <time>2018-07-17T08:07:05Z</time>
      </trkpt>
      <trkpt lat="45.92863" lon="4.7383">
        <ele>173</ele>
        <time>2018-07-17T08:07:06Z</time>
      </trkpt>
      <trkpt lat="45.92865" lon="4.73836">
        <ele>173</ele>
        <time>2018-07-17T08:07:07Z</time>
      </trkpt>
      <trkpt lat="45.92866" lon="4.73843">
        <ele>173</ele>
        <time>2018-07-17T08:07:08Z</time>
      </trkpt>
      <trkpt lat="45.92868" lon="4.7385">
        <ele>173</ele>
        <time>2018-07-17T08:07:09Z</time>
      </trkpt>
      <trkpt lat="45.9287" lon="4.73859">
        <ele>173</ele>
        <time>2018-07-17T08:07:10Z</time>
      </trkpt>
      <trkpt lat="45.92873" lon="4.73867">
        <ele>173</ele>
        <time>2018-07-17T08:07:11Z</time>
      </trkpt>
      <trkpt lat="45.92875" lon="4.73873">
        <ele>173</ele>
        <time>2018-07-17T08:07:12Z</time>
      </trkpt>
      <trkpt lat="45.92879" lon="4.73881">
        <ele>173</ele>
        <time>2018-07-17T08:07:13Z</time>
      </trkpt>
      <trkpt lat="45.9288" lon="4.73888">
        <ele>173</ele>
        <time>2018-07-17T08:07:14Z</time>
      </trkpt>
      <trkpt lat="45.92881" lon="4.73895">
        <ele>173</ele>
        <time>2018-07-17T08:07:15Z</time>
      </trkpt>
      <trkpt lat="45.92883" lon="4.73902">
        <ele>173</ele>
        <time>2018-07-17T08:07:16Z</time>
      </trkpt>
      <trkpt lat="45.92882" lon="4.73909">
        <ele>173</ele>
        <time>2018-07-17T08:07:17Z</time>
      </trkpt>
      <trkpt lat="45.92882" lon="4.73917">
        <ele>173</ele>
        <time>2018-07-17T08:07:18Z</time>
      </trkpt>
      <trkpt lat="45.92882" lon="4.73925">
        <ele>172</ele>
        <time>2018-07-17T08:07:19Z</time>
      </trkpt>
      <trkpt lat="45.92883" lon="4.73931">
        <ele>172</ele>
        <time>2018-07-17T08:07:20Z</time>
      </trkpt>
      <trkpt lat="45.92883" lon="4.73938">
        <ele>172</ele>
        <time>2018-07-17T08:07:21Z</time>
      </trkpt>
      <trkpt lat="45.92883" lon="4.73945">
        <ele>172</ele>
        <time>2018-07-17T08:07:22Z</time>
      </trkpt>
      <trkpt lat="45.92883" lon="4.73953">
        <ele>172</ele>
        <time>2018-07-17T08:07:23Z</time>
      </trkpt>
      <trkpt lat="45.92884" lon="4.7396">
        <ele>172</ele>
        <time>2018-07-17T08:07:24Z</time>
      </trkpt>
      <trkpt lat="45.92883" lon="4.73968">
        <ele>172</ele>
        <time>2018-07-17T08:07:25Z</time>
      </trkpt>
      <trkpt lat="45.92883" lon="4.73975">
        <ele>172</ele>
        <time>2018-07-17T08:07:26Z</time>
      </trkpt>
      <trkpt lat="45.92881" lon="4.73987">
        <ele>172</ele>
        <time>2018-07-17T08:07:28Z</time>
      </trkpt>
      <trkpt lat="45.92879" lon="4.73994">
        <ele>172</ele>
        <time>2018-07-17T08:07:29Z</time>
      </trkpt>
      <trkpt lat="45.92879" lon="4.74001">
        <ele>172</ele>
        <time>2018-07-17T08:07:30Z</time>
      </trkpt>
      <trkpt lat="45.92878" lon="4.74009">
        <ele>172</ele>
        <time>2018-07-17T08:07:31Z</time>
      </trkpt>
      <trkpt lat="45.92876" lon="4.7402">
        <ele>172</ele>
        <time>2018-07-17T08:07:33Z</time>
      </trkpt>
      <trkpt lat="45.92874" lon="4.74026">
        <ele>172</ele>
        <time>2018-07-17T08:07:34Z</time>
      </trkpt>
      <trkpt lat="45.92873" lon="4.74031">
        <ele>172</ele>
        <time>2018-07-17T08:07:35Z</time>
      </trkpt>
      <trkpt lat="45.9287" lon="4.74038">
        <ele>172</ele>
        <time>2018-07-17T08:07:36Z</time>
      </trkpt>
      <trkpt lat="45.92866" lon="4.74045">
        <ele>172</ele>
        <time>2018-07-17T08:07:37Z</time>
      </trkpt>
      <trkpt lat="45.92861" lon="4.7405">
        <ele>172</ele>
        <time>2018-07-17T08:07:38Z</time>
      </trkpt>
      <trkpt lat="45.92857" lon="4.74055">
        <ele>172</ele>
        <time>2018-07-17T08:07:39Z</time>
      </trkpt>
      <trkpt lat="45.92851" lon="4.7406">
        <ele>172</ele>
        <time>2018-07-17T08:07:40Z</time>
      </trkpt>
      <trkpt lat="45.92846" lon="4.74064">
        <ele>172</ele>
        <time>2018-07-17T08:07:41Z</time>
      </trkpt>
      <trkpt lat="45.92843" lon="4.74072">
        <ele>172</ele>
        <time>2018-07-17T08:07:42Z</time>
      </trkpt>
      <trkpt lat="45.92837" lon="4.74078">
        <ele>171</ele>
        <time>2018-07-17T08:07:43Z</time>
      </trkpt>
      <trkpt lat="45.92832" lon="4.74085">
        <ele>171</ele>
        <time>2018-07-17T08:07:44Z</time>
      </trkpt>
      <trkpt lat="45.92827" lon="4.74091">
        <ele>171</ele>
        <time>2018-07-17T08:07:45Z</time>
      </trkpt>
      <trkpt lat="45.92822" lon="4.74095">
        <ele>171</ele>
        <time>2018-07-17T08:07:46Z</time>
      </trkpt>
      <trkpt lat="45.92817" lon="4.74101">
        <ele>171</ele>
        <time>2018-07-17T08:07:47Z</time>
      </trkpt>
      <trkpt lat="45.92813" lon="4.74108">
        <ele>172</ele>
        <time>2018-07-17T08:07:48Z</time>
      </trkpt>
      <trkpt lat="45.92808" lon="4.74114">
        <ele>172</ele>
        <time>2018-07-17T08:07:49Z</time>
      </trkpt>
      <trkpt lat="45.92803" lon="4.7412">
        <ele>172</ele>
        <time>2018-07-17T08:07:50Z</time>
      </trkpt>
      <trkpt lat="45.92798" lon="4.74125">
        <ele>172</ele>
        <time>2018-07-17T08:07:51Z</time>
      </trkpt>
      <trkpt lat="45.92793" lon="4.74129">
        <ele>172</ele>
        <time>2018-07-17T08:07:52Z</time>
      </trkpt>
      <trkpt lat="45.92788" lon="4.74135">
        <ele>172</ele>
        <time>2018-07-17T08:07:53Z</time>
      </trkpt>
      <trkpt lat="45.92783" lon="4.74141">
        <ele>172</ele>
        <time>2018-07-17T08:07:54Z</time>
      </trkpt>
      <trkpt lat="45.92778" lon="4.74147">
        <ele>172</ele>
        <time>2018-07-17T08:07:55Z</time>
      </trkpt>
      <trkpt lat="45.92774" lon="4.74151">
        <ele>172</ele>
        <time>2018-07-17T08:07:56Z</time>
      </trkpt>
      <trkpt lat="45.92769" lon="4.74157">
        <ele>172</ele>
        <time>2018-07-17T08:07:57Z</time>
      </trkpt>
      <trkpt lat="45.92763" lon="4.74162">
        <ele>172</ele>
        <time>2018-07-17T08:07:58Z</time>
      </trkpt>
      <trkpt lat="45.92758" lon="4.74167">
        <ele>172</ele>
        <time>2018-07-17T08:07:59Z</time>
      </trkpt>
      <trkpt lat="45.92753" lon="4.74174">
        <ele>172</ele>
        <time>2018-07-17T08:08:00Z</time>
      </trkpt>
      <trkpt lat="45.92748" lon="4.74179">
        <ele>172</ele>
        <time>2018-07-17T08:08:01Z</time>
      </trkpt>
      <trkpt lat="45.92743" lon="4.74186">
        <ele>172</ele>
        <time>2018-07-17T08:08:02Z</time>
      </trkpt>
      <trkpt lat="45.92739" lon="4.74192">
        <ele>171</ele>
        <time>2018-07-17T08:08:03Z</time>
      </trkpt>
      <trkpt lat="45.92735" lon="4.74198">
        <ele>171</ele>
        <time>2018-07-17T08:08:04Z</time>
      </trkpt>
      <trkpt lat="45.9273" lon="4.74204">
        <ele>171</ele>
        <time>2018-07-17T08:08:05Z</time>
      </trkpt>
      <trkpt lat="45.92726" lon="4.7421">
        <ele>171</ele>
        <time>2018-07-17T08:08:06Z</time>
      </trkpt>
      <trkpt lat="45.92722" lon="4.74215">
        <ele>171</ele>
        <time>2018-07-17T08:08:07Z</time>
      </trkpt>
      <trkpt lat="45.92717" lon="4.74222">
        <ele>171</ele>
        <time>2018-07-17T08:08:08Z</time>
      </trkpt>
      <trkpt lat="45.92713" lon="4.74228">
        <ele>171</ele>
        <time>2018-07-17T08:08:09Z</time>
      </trkpt>
      <trkpt lat="45.92708" lon="4.74234">
        <ele>171</ele>
        <time>2018-07-17T08:08:10Z</time>
      </trkpt>
      <trkpt lat="45.92705" lon="4.7424">
        <ele>171</ele>
        <time>2018-07-17T08:08:11Z</time>
      </trkpt>
      <trkpt lat="45.92701" lon="4.74246">
        <ele>171</ele>
        <time>2018-07-17T08:08:12Z</time>
      </trkpt>
      <trkpt lat="45.92697" lon="4.74251">
        <ele>171</ele>
        <time>2018-07-17T08:08:13Z</time>
      </trkpt>
      <trkpt lat="45.92694" lon="4.74257">
        <ele>171</ele>
        <time>2018-07-17T08:08:14Z</time>
      </trkpt>
      <trkpt lat="45.9269" lon="4.74263">
        <ele>171</ele>
        <time>2018-07-17T08:08:15Z</time>
      </trkpt>
      <trkpt lat="45.92688" lon="4.74268">
        <ele>171</ele>
        <time>2018-07-17T08:08:16Z</time>
      </trkpt>
      <trkpt lat="45.92684" lon="4.74272">
        <ele>171</ele>
        <time>2018-07-17T08:08:17Z</time>
      </trkpt>
      <trkpt lat="45.9268" lon="4.74279">
        <ele>171</ele>
        <time>2018-07-17T08:08:18Z</time>
      </trkpt>
      <trkpt lat="45.92677" lon="4.74285">
        <ele>171</ele>
        <time>2018-07-17T08:08:19Z</time>
      </trkpt>
      <trkpt lat="45.92673" lon="4.74293">
        <ele>171</ele>
        <time>2018-07-17T08:08:20Z</time>
      </trkpt>
      <trkpt lat="45.9267" lon="4.74298">
        <ele>171</ele>
        <time>2018-07-17T08:08:21Z</time>
      </trkpt>
      <trkpt lat="45.92668" lon="4.74304">
        <ele>171</ele>
        <time>2018-07-17T08:08:22Z</time>
      </trkpt>
      <trkpt lat="45.92664" lon="4.7431">
        <ele>171</ele>
        <time>2018-07-17T08:08:23Z</time>
      </trkpt>
      <trkpt lat="45.92661" lon="4.74315">
        <ele>171</ele>
        <time>2018-07-17T08:08:24Z</time>
      </trkpt>
      <trkpt lat="45.92658" lon="4.74322">
        <ele>171</ele>
        <time>2018-07-17T08:08:25Z</time>
      </trkpt>
      <trkpt lat="45.92654" lon="4.74328">
        <ele>171</ele>
        <time>2018-07-17T08:08:26Z</time>
      </trkpt>
      <trkpt lat="45.9265" lon="4.74334">
        <ele>171</ele>
        <time>2018-07-17T08:08:27Z</time>
      </trkpt>
      <trkpt lat="45.92647" lon="4.7434">
        <ele>171</ele>
        <time>2018-07-17T08:08:28Z</time>
      </trkpt>
      <trkpt lat="45.92643" lon="4.74346">
        <ele>171</ele>
        <time>2018-07-17T08:08:29Z</time>
      </trkpt>
      <trkpt lat="45.9264" lon="4.74353">
        <ele>171</ele>
        <time>2018-07-17T08:08:30Z</time>
      </trkpt>
      <trkpt lat="45.92636" lon="4.74359">
        <ele>171</ele>
        <time>2018-07-17T08:08:31Z</time>
      </trkpt>
      <trkpt lat="45.92632" lon="4.74367">
        <ele>171</ele>
        <time>2018-07-17T08:08:32Z</time>
      </trkpt>
      <trkpt lat="45.92629" lon="4.74374">
        <ele>171</ele>
        <time>2018-07-17T08:08:33Z</time>
      </trkpt>
      <trkpt lat="45.92625" lon="4.74379">
        <ele>170</ele>
        <time>2018-07-17T08:08:34Z</time>
      </trkpt>
      <trkpt lat="45.92621" lon="4.74387">
        <ele>170</ele>
        <time>2018-07-17T08:08:35Z</time>
      </trkpt>
      <trkpt lat="45.92617" lon="4.74393">
        <ele>170</ele>
        <time>2018-07-17T08:08:36Z</time>
      </trkpt>
      <trkpt lat="45.92614" lon="4.744">
        <ele>170</ele>
        <time>2018-07-17T08:08:37Z</time>
      </trkpt>
      <trkpt lat="45.92609" lon="4.74408">
        <ele>170</ele>
        <time>2018-07-17T08:08:38Z</time>
      </trkpt>
      <trkpt lat="45.92606" lon="4.74415">
        <ele>170</ele>
        <time>2018-07-17T08:08:39Z</time>
      </trkpt>
      <trkpt lat="45.926" lon="4.74422">
        <ele>170</ele>
        <time>2018-07-17T08:08:40Z</time>
      </trkpt>
      <trkpt lat="45.92597" lon="4.74429">
        <ele>170</ele>
        <time>2018-07-17T08:08:41Z</time>
      </trkpt>
      <trkpt lat="45.92593" lon="4.74436">
        <ele>170</ele>
        <time>2018-07-17T08:08:42Z</time>
      </trkpt>
      <trkpt lat="45.9259" lon="4.74443">
        <ele>170</ele>
        <time>2018-07-17T08:08:43Z</time>
      </trkpt>
      <trkpt lat="45.92585" lon="4.74451">
        <ele>170</ele>
        <time>2018-07-17T08:08:44Z</time>
      </trkpt>
      <trkpt lat="45.92581" lon="4.74458">
        <ele>170</ele>
        <time>2018-07-17T08:08:45Z</time>
      </trkpt>
      <trkpt lat="45.92577" lon="4.74464">
        <ele>170</ele>
        <time>2018-07-17T08:08:46Z</time>
      </trkpt>
      <trkpt lat="45.92573" lon="4.74473">
        <ele>170</ele>
        <time>2018-07-17T08:08:47Z</time>
      </trkpt>
      <trkpt lat="45.92569" lon="4.74481">
        <ele>170</ele>
        <time>2018-07-17T08:08:48Z</time>
      </trkpt>
      <trkpt lat="45.92564" lon="4.74489">
        <ele>170</ele>
        <time>2018-07-17T08:08:49Z</time>
      </trkpt>
      <trkpt lat="45.9256" lon="4.74496">
        <ele>170</ele>
        <time>2018-07-17T08:08:50Z</time>
      </trkpt>
      <trkpt lat="45.92556" lon="4.74502">
        <ele>170</ele>
        <time>2018-07-17T08:08:51Z</time>
      </trkpt>
      <trkpt lat="45.92553" lon="4.74509">
        <ele>170</ele>
        <time>2018-07-17T08:08:52Z</time>
      </trkpt>
      <trkpt lat="45.92549" lon="4.74517">
        <ele>170</ele>
        <time>2018-07-17T08:08:53Z</time>
      </trkpt>
      <trkpt lat="45.92545" lon="4.74524">
        <ele>170</ele>
        <time>2018-07-17T08:08:54Z</time>
      </trkpt>
      <trkpt lat="45.92542" lon="4.74532">
        <ele>171</ele>
        <time>2018-07-17T08:08:55Z</time>
      </trkpt>
      <trkpt lat="45.92536" lon="4.7454">
        <ele>171</ele>
        <time>2018-07-17T08:08:56Z</time>
      </trkpt>
      <trkpt lat="45.92532" lon="4.74547">
        <ele>171</ele>
        <time>2018-07-17T08:08:57Z</time>
      </trkpt>
      <trkpt lat="45.92527" lon="4.74555">
        <ele>171</ele>
        <time>2018-07-17T08:08:58Z</time>
      </trkpt>
      <trkpt lat="45.92522" lon="4.74563">
        <ele>171</ele>
        <time>2018-07-17T08:08:59Z</time>
      </trkpt>
      <trkpt lat="45.92518" lon="4.74567">
        <ele>171</ele>
        <time>2018-07-17T08:09:00Z</time>
      </trkpt>
      <trkpt lat="45.92514" lon="4.74573">
        <ele>171</ele>
        <time>2018-07-17T08:09:01Z</time>
      </trkpt>
      <trkpt lat="45.9251" lon="4.7458">
        <ele>171</ele>
        <time>2018-07-17T08:09:02Z</time>
      </trkpt>
      <trkpt lat="45.92506" lon="4.74587">
        <ele>171</ele>
        <time>2018-07-17T08:09:03Z</time>
      </trkpt>
      <trkpt lat="45.92502" lon="4.74593">
        <ele>171</ele>
        <time>2018-07-17T08:09:04Z</time>
      </trkpt>
      <trkpt lat="45.92497" lon="4.74598">
        <ele>171</ele>
        <time>2018-07-17T08:09:05Z</time>
      </trkpt>
      <trkpt lat="45.92492" lon="4.74603">
        <ele>171</ele>
        <time>2018-07-17T08:09:06Z</time>
      </trkpt>
      <trkpt lat="45.92488" lon="4.74608">
        <ele>171</ele>
        <time>2018-07-17T08:09:07Z</time>
      </trkpt>
      <trkpt lat="45.92484" lon="4.74613">
        <ele>171</ele>
        <time>2018-07-17T08:09:08Z</time>
      </trkpt>
      <trkpt lat="45.9248" lon="4.74618">
        <ele>171</ele>
        <time>2018-07-17T08:09:09Z</time>
      </trkpt>
      <trkpt lat="45.92475" lon="4.74625">
        <ele>171</ele>
        <time>2018-07-17T08:09:10Z</time>
      </trkpt>
      <trkpt lat="45.9247" lon="4.7463">
        <ele>171</ele>
        <time>2018-07-17T08:09:11Z</time>
      </trkpt>
      <trkpt lat="45.92466" lon="4.74636">
        <ele>171</ele>
        <time>2018-07-17T08:09:12Z</time>
      </trkpt>
      <trkpt lat="45.92461" lon="4.74643">
        <ele>171</ele>
        <time>2018-07-17T08:09:13Z</time>
      </trkpt>
      <trkpt lat="45.92457" lon="4.7465">
        <ele>171</ele>
        <time>2018-07-17T08:09:14Z</time>
      </trkpt>
      <trkpt lat="45.92454" lon="4.74657">
        <ele>171</ele>
        <time>2018-07-17T08:09:15Z</time>
      </trkpt>
      <trkpt lat="45.9245" lon="4.74664">
        <ele>171</ele>
        <time>2018-07-17T08:09:16Z</time>
      </trkpt>
      <trkpt lat="45.92447" lon="4.74672">
        <ele>171</ele>
        <time>2018-07-17T08:09:17Z</time>
      </trkpt>
      <trkpt lat="45.92442" lon="4.74678">
        <ele>171</ele>
        <time>2018-07-17T08:09:18Z</time>
      </trkpt>
      <trkpt lat="45.92437" lon="4.7469">
        <ele>171</ele>
        <time>2018-07-17T08:09:19Z</time>
      </trkpt>
      <trkpt lat="45.92435" lon="4.74698">
        <ele>171</ele>
        <time>2018-07-17T08:09:20Z</time>
      </trkpt>
      <trkpt lat="45.92434" lon="4.74708">
        <ele>171</ele>
        <time>2018-07-17T08:09:21Z</time>
      </trkpt>
      <trkpt lat="45.92432" lon="4.74713">
        <ele>171</ele>
        <time>2018-07-17T08:09:22Z</time>
      </trkpt>
      <trkpt lat="45.92429" lon="4.7472">
        <ele>171</ele>
        <time>2018-07-17T08:09:23Z</time>
      </trkpt>
      <trkpt lat="45.92425" lon="4.74727">
        <ele>171</ele>
        <time>2018-07-17T08:09:24Z</time>
      </trkpt>
      <trkpt lat="45.92423" lon="4.74735">
        <ele>171</ele>
        <time>2018-07-17T08:09:25Z</time>
      </trkpt>
      <trkpt lat="45.92421" lon="4.74742">
        <ele>172</ele>
        <time>2018-07-17T08:09:26Z</time>
      </trkpt>
      <trkpt lat="45.92418" lon="4.7475">
        <ele>172</ele>
        <time>2018-07-17T08:09:27Z</time>
      </trkpt>
      <trkpt lat="45.92416" lon="4.74758">
        <ele>172</ele>
        <time>2018-07-17T08:09:28Z</time>
      </trkpt>
      <trkpt lat="45.92414" lon="4.74766">
        <ele>172</ele>
        <time>2018-07-17T08:09:29Z</time>
      </trkpt>
      <trkpt lat="45.92412" lon="4.74775">
        <ele>171</ele>
        <time>2018-07-17T08:09:30Z</time>
      </trkpt>
      <trkpt lat="45.9241" lon="4.74783">
        <ele>171</ele>
        <time>2018-07-17T08:09:31Z</time>
      </trkpt>
      <trkpt lat="45.92407" lon="4.74792">
        <ele>171</ele>
        <time>2018-07-17T08:09:32Z</time>
      </trkpt>
      <trkpt lat="45.92407" lon="4.74801">
        <ele>171</ele>
        <time>2018-07-17T08:09:33Z</time>
      </trkpt>
      <trkpt lat="45.92405" lon="4.7481">
        <ele>171</ele>
        <time>2018-07-17T08:09:34Z</time>
      </trkpt>
      <trkpt lat="45.92404" lon="4.74819">
        <ele>171</ele>
        <time>2018-07-17T08:09:35Z</time>
      </trkpt>
      <trkpt lat="45.92402" lon="4.74828">
        <ele>171</ele>
        <time>2018-07-17T08:09:36Z</time>
      </trkpt>
      <trkpt lat="45.924" lon="4.74837">
        <ele>171</ele>
        <time>2018-07-17T08:09:37Z</time>
      </trkpt>
      <trkpt lat="45.92398" lon="4.74846">
        <ele>171</ele>
        <time>2018-07-17T08:09:38Z</time>
      </trkpt>
      <trkpt lat="45.92395" lon="4.74854">
        <ele>171</ele>
        <time>2018-07-17T08:09:39Z</time>
      </trkpt>
      <trkpt lat="45.92392" lon="4.74862">
        <ele>171</ele>
        <time>2018-07-17T08:09:40Z</time>
      </trkpt>
      <trkpt lat="45.92388" lon="4.7487">
        <ele>171</ele>
        <time>2018-07-17T08:09:41Z</time>
      </trkpt>
      <trkpt lat="45.92385" lon="4.74879">
        <ele>171</ele>
        <time>2018-07-17T08:09:42Z</time>
      </trkpt>
      <trkpt lat="45.92382" lon="4.74889">
        <ele>171</ele>
        <time>2018-07-17T08:09:43Z</time>
      </trkpt>
      <trkpt lat="45.92378" lon="4.74898">
        <ele>171</ele>
        <time>2018-07-17T08:09:44Z</time>
      </trkpt>
      <trkpt lat="45.92374" lon="4.74906">
        <ele>171</ele>
        <time>2018-07-17T08:09:45Z</time>
      </trkpt>
      <trkpt lat="45.92371" lon="4.74916">
        <ele>171</ele>
        <time>2018-07-17T08:09:46Z</time>
      </trkpt>
      <trkpt lat="45.92367" lon="4.74926">
        <ele>170</ele>
        <time>2018-07-17T08:09:47Z</time>
      </trkpt>
      <trkpt lat="45.92363" lon="4.74934">
        <ele>170</ele>
        <time>2018-07-17T08:09:48Z</time>
      </trkpt>
      <trkpt lat="45.9236" lon="4.74943">
        <ele>170</ele>
        <time>2018-07-17T08:09:49Z</time>
      </trkpt>
      <trkpt lat="45.92357" lon="4.7495">
        <ele>170</ele>
        <time>2018-07-17T08:09:50Z</time>
      </trkpt>
      <trkpt lat="45.92353" lon="4.74958">
        <ele>170</ele>
        <time>2018-07-17T08:09:51Z</time>
      </trkpt>
      <trkpt lat="45.92349" lon="4.74966">
        <ele>170</ele>
        <time>2018-07-17T08:09:52Z</time>
      </trkpt>
      <trkpt lat="45.92345" lon="4.74976">
        <ele>170</ele>
        <time>2018-07-17T08:09:53Z</time>
      </trkpt>
      <trkpt lat="45.92343" lon="4.74983">
        <ele>170</ele>
        <time>2018-07-17T08:09:54Z</time>
      </trkpt>
      <trkpt lat="45.92338" lon="4.74991">
        <ele>170</ele>
        <time>2018-07-17T08:09:55Z</time>
      </trkpt>
      <trkpt lat="45.92334" lon="4.75003">
        <ele>170</ele>
        <time>2018-07-17T08:09:56Z</time>
      </trkpt>
      <trkpt lat="45.92331" lon="4.7501">
        <ele>171</ele>
        <time>2018-07-17T08:09:57Z</time>
      </trkpt>
      <trkpt lat="45.92329" lon="4.75019">
        <ele>171</ele>
        <time>2018-07-17T08:09:58Z</time>
      </trkpt>
      <trkpt lat="45.92325" lon="4.75026">
        <ele>171</ele>
        <time>2018-07-17T08:09:59Z</time>
      </trkpt>
      <trkpt lat="45.92321" lon="4.75035">
        <ele>171</ele>
        <time>2018-07-17T08:10:00Z</time>
      </trkpt>
      <trkpt lat="45.92318" lon="4.75042">
        <ele>172</ele>
        <time>2018-07-17T08:10:01Z</time>
      </trkpt>
      <trkpt lat="45.92313" lon="4.7505">
        <ele>172</ele>
        <time>2018-07-17T08:10:02Z</time>
      </trkpt>
      <trkpt lat="45.92309" lon="4.75057">
        <ele>172</ele>
        <time>2018-07-17T08:10:03Z</time>
      </trkpt>
      <trkpt lat="45.92304" lon="4.75062">
        <ele>172</ele>
        <time>2018-07-17T08:10:04Z</time>
      </trkpt>
      <trkpt lat="45.92298" lon="4.75067">
        <ele>172</ele>
        <time>2018-07-17T08:10:05Z</time>
      </trkpt>
      <trkpt lat="45.92293" lon="4.75073">
        <ele>172</ele>
        <time>2018-07-17T08:10:06Z</time>
      </trkpt>
      <trkpt lat="45.92287" lon="4.75079">
        <ele>172</ele>
        <time>2018-07-17T08:10:07Z</time>
      </trkpt>
      <trkpt lat="45.92283" lon="4.75083">
        <ele>172</ele>
        <time>2018-07-17T08:10:08Z</time>
      </trkpt>
      <trkpt lat="45.92278" lon="4.75089">
        <ele>173</ele>
        <time>2018-07-17T08:10:09Z</time>
      </trkpt>
      <trkpt lat="45.92273" lon="4.75095">
        <ele>173</ele>
        <time>2018-07-17T08:10:10Z</time>
      </trkpt>
      <trkpt lat="45.92267" lon="4.751">
        <ele>173</ele>
        <time>2018-07-17T08:10:11Z</time>
      </trkpt>
      <trkpt lat="45.92262" lon="4.75106">
        <ele>174</ele>
        <time>2018-07-17T08:10:12Z</time>
      </trkpt>
      <trkpt lat="45.92258" lon="4.75113">
        <ele>174</ele>
        <time>2018-07-17T08:10:13Z</time>
      </trkpt>
      <trkpt lat="45.92252" lon="4.75119">
        <ele>174</ele>
        <time>2018-07-17T08:10:14Z</time>
      </trkpt>
      <trkpt lat="45.92247" lon="4.75127">
        <ele>174</ele>
        <time>2018-07-17T08:10:15Z</time>
      </trkpt>
      <trkpt lat="45.92243" lon="4.75132">
        <ele>174</ele>
        <time>2018-07-17T08:10:16Z</time>
      </trkpt>
      <trkpt lat="45.92238" lon="4.75138">
        <ele>174</ele>
        <time>2018-07-17T08:10:17Z</time>
      </trkpt>
      <trkpt lat="45.92233" lon="4.75144">
        <ele>174</ele>
        <time>2018-07-17T08:10:18Z</time>
      </trkpt>
      <trkpt lat="45.92229" lon="4.75151">
        <ele>174</ele>
        <time>2018-07-17T08:10:19Z</time>
      </trkpt>
      <trkpt lat="45.92226" lon="4.75159">
        <ele>174</ele>
        <time>2018-07-17T08:10:20Z</time>
      </trkpt>
      <trkpt lat="45.92223" lon="4.75166">
        <ele>174</ele>
        <time>2018-07-17T08:10:21Z</time>
      </trkpt>
      <trkpt lat="45.9222" lon="4.75175">
        <ele>175</ele>
        <time>2018-07-17T08:10:22Z</time>
      </trkpt>
      <trkpt lat="45.92217" lon="4.75183">
        <ele>175</ele>
        <time>2018-07-17T08:10:23Z</time>
      </trkpt>
      <trkpt lat="45.92215" lon="4.75192">
        <ele>175</ele>
        <time>2018-07-17T08:10:24Z</time>
      </trkpt>
      <trkpt lat="45.92214" lon="4.752">
        <ele>175</ele>
        <time>2018-07-17T08:10:25Z</time>
      </trkpt>
      <trkpt lat="45.92212" lon="4.75208">
        <ele>175</ele>
        <time>2018-07-17T08:10:26Z</time>
      </trkpt>
      <trkpt lat="45.92211" lon="4.75215">
        <ele>175</ele>
        <time>2018-07-17T08:10:27Z</time>
      </trkpt>
      <trkpt lat="45.9221" lon="4.75223">
        <ele>175</ele>
        <time>2018-07-17T08:10:28Z</time>
      </trkpt>
      <trkpt lat="45.9221" lon="4.75231">
        <ele>175</ele>
        <time>2018-07-17T08:10:29Z</time>
      </trkpt>
      <trkpt lat="45.92208" lon="4.75239">
        <ele>175</ele>
        <time>2018-07-17T08:10:30Z</time>
      </trkpt>
      <trkpt lat="45.92209" lon="4.75248">
        <ele>175</ele>
        <time>2018-07-17T08:10:31Z</time>
      </trkpt>
      <trkpt lat="45.92208" lon="4.75255">
        <ele>175</ele>
        <time>2018-07-17T08:10:32Z</time>
      </trkpt>
      <trkpt lat="45.92209" lon="4.75262">
        <ele>176</ele>
        <time>2018-07-17T08:10:33Z</time>
      </trkpt>
      <trkpt lat="45.92209" lon="4.7527">
        <ele>176</ele>
        <time>2018-07-17T08:10:34Z</time>
      </trkpt>
      <trkpt lat="45.92208" lon="4.75279">
        <ele>176</ele>
        <time>2018-07-17T08:10:35Z</time>
      </trkpt>
      <trkpt lat="45.92207" lon="4.75286">
        <ele>176</ele>
        <time>2018-07-17T08:10:36Z</time>
      </trkpt>
      <trkpt lat="45.92207" lon="4.75295">
        <ele>176</ele>
        <time>2018-07-17T08:10:37Z</time>
      </trkpt>
      <trkpt lat="45.92205" lon="4.75306">
        <ele>176</ele>
        <time>2018-07-17T08:10:38Z</time>
      </trkpt>
      <trkpt lat="45.92206" lon="4.75314">
        <ele>176</ele>
        <time>2018-07-17T08:10:39Z</time>
      </trkpt>
      <trkpt lat="45.92205" lon="4.75323">
        <ele>176</ele>
        <time>2018-07-17T08:10:40Z</time>
      </trkpt>
      <trkpt lat="45.92204" lon="4.75331">
        <ele>176</ele>
        <time>2018-07-17T08:10:41Z</time>
      </trkpt>
      <trkpt lat="45.92203" lon="4.75339">
        <ele>177</ele>
        <time>2018-07-17T08:10:42Z</time>
      </trkpt>
      <trkpt lat="45.92201" lon="4.75348">
        <ele>177</ele>
        <time>2018-07-17T08:10:43Z</time>
      </trkpt>
      <trkpt lat="45.92199" lon="4.75354">
        <ele>177</ele>
        <time>2018-07-17T08:10:44Z</time>
      </trkpt>
      <trkpt lat="45.92198" lon="4.7536">
        <ele>177</ele>
        <time>2018-07-17T08:10:45Z</time>
      </trkpt>
      <trkpt lat="45.92196" lon="4.75367">
        <ele>177</ele>
        <time>2018-07-17T08:10:46Z</time>
      </trkpt>
      <trkpt lat="45.92195" lon="4.75372">
        <ele>177</ele>
        <time>2018-07-17T08:10:48Z</time>
      </trkpt>
      <trkpt lat="45.92192" lon="4.75383">
        <ele>177</ele>
        <time>2018-07-17T08:10:49Z</time>
      </trkpt>
      <trkpt lat="45.92189" lon="4.75391">
        <ele>177</ele>
        <time>2018-07-17T08:10:50Z</time>
      </trkpt>
      <trkpt lat="45.92186" lon="4.75398">
        <ele>177</ele>
        <time>2018-07-17T08:10:51Z</time>
      </trkpt>
      <trkpt lat="45.92183" lon="4.75405">
        <ele>177</ele>
        <time>2018-07-17T08:10:52Z</time>
      </trkpt>
      <trkpt lat="45.92178" lon="4.75414">
        <ele>177</ele>
        <time>2018-07-17T08:10:53Z</time>
      </trkpt>
      <trkpt lat="45.92176" lon="4.75419">
        <ele>177</ele>
        <time>2018-07-17T08:10:54Z</time>
      </trkpt>
      <trkpt lat="45.92172" lon="4.75429">
        <ele>177</ele>
        <time>2018-07-17T08:10:55Z</time>
      </trkpt>
      <trkpt lat="45.92169" lon="4.7544">
        <ele>177</ele>
        <time>2018-07-17T08:10:56Z</time>
      </trkpt>
      <trkpt lat="45.92167" lon="4.75447">
        <ele>176</ele>
        <time>2018-07-17T08:10:57Z</time>
      </trkpt>
      <trkpt lat="45.92163" lon="4.75455">
        <ele>176</ele>
        <time>2018-07-17T08:10:58Z</time>
      </trkpt>
      <trkpt lat="45.92159" lon="4.75462">
        <ele>176</ele>
        <time>2018-07-17T08:10:59Z</time>
      </trkpt>
      <trkpt lat="45.92156" lon="4.75471">
        <ele>176</ele>
        <time>2018-07-17T08:11:00Z</time>
      </trkpt>
      <trkpt lat="45.92154" lon="4.75483">
        <ele>176</ele>
        <time>2018-07-17T08:11:01Z</time>
      </trkpt>
      <trkpt lat="45.92149" lon="4.7549">
        <ele>176</ele>
        <time>2018-07-17T08:11:02Z</time>
      </trkpt>
      <trkpt lat="45.92144" lon="4.75499">
        <ele>175</ele>
        <time>2018-07-17T08:11:03Z</time>
      </trkpt>
      <trkpt lat="45.9214" lon="4.75508">
        <ele>174</ele>
        <time>2018-07-17T08:11:04Z</time>
      </trkpt>
      <trkpt lat="45.92136" lon="4.75514">
        <ele>174</ele>
        <time>2018-07-17T08:11:05Z</time>
      </trkpt>
      <trkpt lat="45.92132" lon="4.75521">
        <ele>174</ele>
        <time>2018-07-17T08:11:06Z</time>
      </trkpt>
      <trkpt lat="45.92128" lon="4.75528">
        <ele>174</ele>
        <time>2018-07-17T08:11:07Z</time>
      </trkpt>
      <trkpt lat="45.92124" lon="4.75536">
        <ele>174</ele>
        <time>2018-07-17T08:11:08Z</time>
      </trkpt>
      <trkpt lat="45.92121" lon="4.75543">
        <ele>174</ele>
        <time>2018-07-17T08:11:09Z</time>
      </trkpt>
      <trkpt lat="45.92117" lon="4.7555">
        <ele>174</ele>
        <time>2018-07-17T08:11:10Z</time>
      </trkpt>
      <trkpt lat="45.92114" lon="4.75557">
        <ele>174</ele>
        <time>2018-07-17T08:11:11Z</time>
      </trkpt>
      <trkpt lat="45.92112" lon="4.75563">
        <ele>174</ele>
        <time>2018-07-17T08:11:12Z</time>
      </trkpt>
      <trkpt lat="45.92108" lon="4.75569">
        <ele>174</ele>
        <time>2018-07-17T08:11:13Z</time>
      </trkpt>
      <trkpt lat="45.92109" lon="4.75577">
        <ele>174</ele>
        <time>2018-07-17T08:11:14Z</time>
      </trkpt>
      <trkpt lat="45.92111" lon="4.75585">
        <ele>174</ele>
        <time>2018-07-17T08:11:15Z</time>
      </trkpt>
      <trkpt lat="45.92114" lon="4.75591">
        <ele>174</ele>
        <time>2018-07-17T08:11:16Z</time>
      </trkpt>
      <trkpt lat="45.92119" lon="4.75596">
        <ele>174</ele>
        <time>2018-07-17T08:11:17Z</time>
      </trkpt>
      <trkpt lat="45.92124" lon="4.756">
        <ele>174</ele>
        <time>2018-07-17T08:11:18Z</time>
      </trkpt>
      <trkpt lat="45.92128" lon="4.75605">
        <ele>174</ele>
        <time>2018-07-17T08:11:19Z</time>
      </trkpt>
      <trkpt lat="45.92134" lon="4.75611">
        <ele>174</ele>
        <time>2018-07-17T08:11:20Z</time>
      </trkpt>
      <trkpt lat="45.92141" lon="4.75615">
        <ele>174</ele>
        <time>2018-07-17T08:11:21Z</time>
      </trkpt>
      <trkpt lat="45.92146" lon="4.7562">
        <ele>174</ele>
        <time>2018-07-17T08:11:22Z</time>
      </trkpt>
      <trkpt lat="45.9215" lon="4.75626">
        <ele>174</ele>
        <time>2018-07-17T08:11:23Z</time>
      </trkpt>
      <trkpt lat="45.92156" lon="4.75631">
        <ele>174</ele>
        <time>2018-07-17T08:11:24Z</time>
      </trkpt>
      <trkpt lat="45.92162" lon="4.75636">
        <ele>174</ele>
        <time>2018-07-17T08:11:25Z</time>
      </trkpt>
      <trkpt lat="45.92167" lon="4.75641">
        <ele>174</ele>
        <time>2018-07-17T08:11:26Z</time>
      </trkpt>
      <trkpt lat="45.92172" lon="4.75646">
        <ele>174</ele>
        <time>2018-07-17T08:11:27Z</time>
      </trkpt>
      <trkpt lat="45.92176" lon="4.7565">
        <ele>174</ele>
        <time>2018-07-17T08:11:28Z</time>
      </trkpt>
      <trkpt lat="45.92181" lon="4.75655">
        <ele>174</ele>
        <time>2018-07-17T08:11:29Z</time>
      </trkpt>
      <trkpt lat="45.92187" lon="4.7566">
        <ele>174</ele>
        <time>2018-07-17T08:11:30Z</time>
      </trkpt>
      <trkpt lat="45.92191" lon="4.75665">
        <ele>174</ele>
        <time>2018-07-17T08:11:31Z</time>
      </trkpt>
      <trkpt lat="45.92197" lon="4.75669">
        <ele>174</ele>
        <time>2018-07-17T08:11:32Z</time>
      </trkpt>
      <trkpt lat="45.92201" lon="4.75675">
        <ele>174</ele>
        <time>2018-07-17T08:11:33Z</time>
      </trkpt>
      <trkpt lat="45.92206" lon="4.75678">
        <ele>174</ele>
        <time>2018-07-17T08:11:34Z</time>
      </trkpt>
      <trkpt lat="45.9221" lon="4.75684">
        <ele>174</ele>
        <time>2018-07-17T08:11:35Z</time>
      </trkpt>
      <trkpt lat="45.92215" lon="4.75688">
        <ele>174</ele>
        <time>2018-07-17T08:11:36Z</time>
      </trkpt>
      <trkpt lat="45.92219" lon="4.75693">
        <ele>174</ele>
        <time>2018-07-17T08:11:37Z</time>
      </trkpt>
      <trkpt lat="45.92225" lon="4.75698">
        <ele>174</ele>
        <time>2018-07-17T08:11:38Z</time>
      </trkpt>
      <trkpt lat="45.9223" lon="4.75704">
        <ele>174</ele>
        <time>2018-07-17T08:11:39Z</time>
      </trkpt>
      <trkpt lat="45.92235" lon="4.7571">
        <ele>174</ele>
        <time>2018-07-17T08:11:40Z</time>
      </trkpt>
      <trkpt lat="45.9224" lon="4.75717">
        <ele>174</ele>
        <time>2018-07-17T08:11:41Z</time>
      </trkpt>
      <trkpt lat="45.92242" lon="4.75724">
        <ele>174</ele>
        <time>2018-07-17T08:11:42Z</time>
      </trkpt>
      <trkpt lat="45.92245" lon="4.75733">
        <ele>174</ele>
        <time>2018-07-17T08:11:43Z</time>
      </trkpt>
      <trkpt lat="45.92246" lon="4.75741">
        <ele>174</ele>
        <time>2018-07-17T08:11:44Z</time>
      </trkpt>
      <trkpt lat="45.92249" lon="4.75749">
        <ele>174</ele>
        <time>2018-07-17T08:11:45Z</time>
      </trkpt>
      <trkpt lat="45.92251" lon="4.75757">
        <ele>174</ele>
        <time>2018-07-17T08:11:46Z</time>
      </trkpt>
      <trkpt lat="45.92253" lon="4.75766">
        <ele>174</ele>
        <time>2018-07-17T08:11:47Z</time>
      </trkpt>
      <trkpt lat="45.92255" lon="4.75774">
        <ele>174</ele>
        <time>2018-07-17T08:11:48Z</time>
      </trkpt>
      <trkpt lat="45.92256" lon="4.75782">
        <ele>174</ele>
        <time>2018-07-17T08:11:49Z</time>
      </trkpt>
      <trkpt lat="45.92258" lon="4.75791">
        <ele>174</ele>
        <time>2018-07-17T08:11:50Z</time>
      </trkpt>
      <trkpt lat="45.9226" lon="4.75798">
        <ele>174</ele>
        <time>2018-07-17T08:11:51Z</time>
      </trkpt>
      <trkpt lat="45.92261" lon="4.75806">
        <ele>174</ele>
        <time>2018-07-17T08:11:52Z</time>
      </trkpt>
      <trkpt lat="45.92263" lon="4.75813">
        <ele>174</ele>
        <time>2018-07-17T08:11:53Z</time>
      </trkpt>
      <trkpt lat="45.92267" lon="4.75819">
        <ele>174</ele>
        <time>2018-07-17T08:11:54Z</time>
      </trkpt>
      <trkpt lat="45.92271" lon="4.75825">
        <ele>174</ele>
        <time>2018-07-17T08:11:55Z</time>
      </trkpt>
      <trkpt lat="45.92275" lon="4.7583">
        <ele>174</ele>
        <time>2018-07-17T08:11:56Z</time>
      </trkpt>
      <trkpt lat="45.92281" lon="4.75834">
        <ele>173</ele>
        <time>2018-07-17T08:11:57Z</time>
      </trkpt>
      <trkpt lat="45.92286" lon="4.75837">
        <ele>173</ele>
        <time>2018-07-17T08:11:58Z</time>
      </trkpt>
      <trkpt lat="45.92291" lon="4.75842">
        <ele>173</ele>
        <time>2018-07-17T08:11:59Z</time>
      </trkpt>
      <trkpt lat="45.92297" lon="4.75844">
        <ele>173</ele>
        <time>2018-07-17T08:12:00Z</time>
      </trkpt>
      <trkpt lat="45.92303" lon="4.75848">
        <ele>173</ele>
        <time>2018-07-17T08:12:01Z</time>
      </trkpt>
      <trkpt lat="45.92309" lon="4.75852">
        <ele>173</ele>
        <time>2018-07-17T08:12:02Z</time>
      </trkpt>
      <trkpt lat="45.92315" lon="4.75856">
        <ele>173</ele>
        <time>2018-07-17T08:12:03Z</time>
      </trkpt>
      <trkpt lat="45.92321" lon="4.75859">
        <ele>173</ele>
        <time>2018-07-17T08:12:04Z</time>
      </trkpt>
      <trkpt lat="45.92326" lon="4.75863">
        <ele>173</ele>
        <time>2018-07-17T08:12:05Z</time>
      </trkpt>
      <trkpt lat="45.92332" lon="4.75867">
        <ele>173</ele>
        <time>2018-07-17T08:12:06Z</time>
      </trkpt>
      <trkpt lat="45.92338" lon="4.75871">
        <ele>173</ele>
        <time>2018-07-17T08:12:07Z</time>
      </trkpt>
      <trkpt lat="45.92344" lon="4.75874">
        <ele>173</ele>
        <time>2018-07-17T08:12:08Z</time>
      </trkpt>
      <trkpt lat="45.92348" lon="4.75878">
        <ele>173</ele>
        <time>2018-07-17T08:12:09Z</time>
      </trkpt>
      <trkpt lat="45.92354" lon="4.75881">
        <ele>173</ele>
        <time>2018-07-17T08:12:10Z</time>
      </trkpt>
      <trkpt lat="45.9236" lon="4.75885">
        <ele>173</ele>
        <time>2018-07-17T08:12:11Z</time>
      </trkpt>
      <trkpt lat="45.92365" lon="4.75889">
        <ele>173</ele>
        <time>2018-07-17T08:12:12Z</time>
      </trkpt>
      <trkpt lat="45.92371" lon="4.75893">
        <ele>173</ele>
        <time>2018-07-17T08:12:13Z</time>
      </trkpt>
      <trkpt lat="45.92378" lon="4.75897">
        <ele>173</ele>
        <time>2018-07-17T08:12:14Z</time>
      </trkpt>
      <trkpt lat="45.92383" lon="4.759">
        <ele>173</ele>
        <time>2018-07-17T08:12:15Z</time>
      </trkpt>
      <trkpt lat="45.92389" lon="4.75903">
        <ele>173</ele>
        <time>2018-07-17T08:12:16Z</time>
      </trkpt>
      <trkpt lat="45.92394" lon="4.75906">
        <ele>173</ele>
        <time>2018-07-17T08:12:17Z</time>
      </trkpt>
      <trkpt lat="45.92399" lon="4.7591">
        <ele>173</ele>
        <time>2018-07-17T08:12:18Z</time>
      </trkpt>
      <trkpt lat="45.92404" lon="4.75913">
        <ele>172</ele>
        <time>2018-07-17T08:12:19Z</time>
      </trkpt>
      <trkpt lat="45.92409" lon="4.75917">
        <ele>172</ele>
        <time>2018-07-17T08:12:20Z</time>
      </trkpt>
      <trkpt lat="45.92414" lon="4.7592">
        <ele>172</ele>
        <time>2018-07-17T08:12:21Z</time>
      </trkpt>
      <trkpt lat="45.92418" lon="4.75924">
        <ele>172</ele>
        <time>2018-07-17T08:12:22Z</time>
      </trkpt>
      <trkpt lat="45.92423" lon="4.75927">
        <ele>172</ele>
        <time>2018-07-17T08:12:23Z</time>
      </trkpt>
      <trkpt lat="45.92429" lon="4.7593">
        <ele>172</ele>
        <time>2018-07-17T08:12:24Z</time>
      </trkpt>
      <trkpt lat="45.92433" lon="4.75933">
        <ele>172</ele>
        <time>2018-07-17T08:12:25Z</time>
      </trkpt>
      <trkpt lat="45.92437" lon="4.75938">
        <ele>172</ele>
        <time>2018-07-17T08:12:26Z</time>
      </trkpt>
      <trkpt lat="45.92441" lon="4.75941">
        <ele>172</ele>
        <time>2018-07-17T08:12:27Z</time>
      </trkpt>
      <trkpt lat="45.92446" lon="4.75945">
        <ele>172</ele>
        <time>2018-07-17T08:12:28Z</time>
      </trkpt>
      <trkpt lat="45.9245" lon="4.75948">
        <ele>172</ele>
        <time>2018-07-17T08:12:29Z</time>
      </trkpt>
      <trkpt lat="45.92454" lon="4.75952">
        <ele>172</ele>
        <time>2018-07-17T08:12:30Z</time>
      </trkpt>
      <trkpt lat="45.92458" lon="4.75955">
        <ele>172</ele>
        <time>2018-07-17T08:12:31Z</time>
      </trkpt>
      <trkpt lat="45.92463" lon="4.75957">
        <ele>172</ele>
        <time>2018-07-17T08:12:32Z</time>
      </trkpt>
      <trkpt lat="45.92468" lon="4.7596">
        <ele>172</ele>
        <time>2018-07-17T08:12:33Z</time>
      </trkpt>
      <trkpt lat="45.92471" lon="4.75965">
        <ele>172</ele>
        <time>2018-07-17T08:12:34Z</time>
      </trkpt>
      <trkpt lat="45.92475" lon="4.75968">
        <ele>172</ele>
        <time>2018-07-17T08:12:35Z</time>
      </trkpt>
      <trkpt lat="45.92481" lon="4.75971">
        <ele>172</ele>
        <time>2018-07-17T08:12:36Z</time>
      </trkpt>
      <trkpt lat="45.92485" lon="4.75974">
        <ele>172</ele>
        <time>2018-07-17T08:12:37Z</time>
      </trkpt>
      <trkpt lat="45.9249" lon="4.75978">
        <ele>172</ele>
        <time>2018-07-17T08:12:38Z</time>
      </trkpt>
      <trkpt lat="45.92494" lon="4.75981">
        <ele>172</ele>
        <time>2018-07-17T08:12:39Z</time>
      </trkpt>
      <trkpt lat="45.92499" lon="4.75985">
        <ele>172</ele>
        <time>2018-07-17T08:12:40Z</time>
      </trkpt>
      <trkpt lat="45.92503" lon="4.75987">
        <ele>172</ele>
        <time>2018-07-17T08:12:41Z</time>
      </trkpt>
      <trkpt lat="45.92508" lon="4.7599">
        <ele>172</ele>
        <time>2018-07-17T08:12:42Z</time>
      </trkpt>
      <trkpt lat="45.92513" lon="4.75994">
        <ele>172</ele>
        <time>2018-07-17T08:12:43Z</time>
      </trkpt>
      <trkpt lat="45.92517" lon="4.75997">
        <ele>172</ele>
        <time>2018-07-17T08:12:44Z</time>
      </trkpt>
      <trkpt lat="45.92522" lon="4.76">
        <ele>172</ele>
        <time>2018-07-17T08:12:45Z</time>
      </trkpt>
      <trkpt lat="45.92527" lon="4.76005">
        <ele>172</ele>
        <time>2018-07-17T08:12:46Z</time>
      </trkpt>
      <trkpt lat="45.92533" lon="4.76006">
        <ele>172</ele>
        <time>2018-07-17T08:12:47Z</time>
      </trkpt>
      <trkpt lat="45.92538" lon="4.7601">
        <ele>172</ele>
        <time>2018-07-17T08:12:48Z</time>
      </trkpt>
      <trkpt lat="45.92542" lon="4.76014">
        <ele>172</ele>
        <time>2018-07-17T08:12:49Z</time>
      </trkpt>
      <trkpt lat="45.92547" lon="4.76016">
        <ele>172</ele>
        <time>2018-07-17T08:12:50Z</time>
      </trkpt>
      <trkpt lat="45.92552" lon="4.76018">
        <ele>172</ele>
        <time>2018-07-17T08:12:51Z</time>
      </trkpt>
      <trkpt lat="45.92556" lon="4.76021">
        <ele>172</ele>
        <time>2018-07-17T08:12:52Z</time>
      </trkpt>
      <trkpt lat="45.9256" lon="4.76024">
        <ele>172</ele>
        <time>2018-07-17T08:12:53Z</time>
      </trkpt>
      <trkpt lat="45.92565" lon="4.76028">
        <ele>172</ele>
        <time>2018-07-17T08:12:54Z</time>
      </trkpt>
      <trkpt lat="45.9257" lon="4.76032">
        <ele>172</ele>
        <time>2018-07-17T08:12:55Z</time>
      </trkpt>
      <trkpt lat="45.92575" lon="4.76036">
        <ele>172</ele>
        <time>2018-07-17T08:12:56Z</time>
      </trkpt>
      <trkpt lat="45.9258" lon="4.76038">
        <ele>172</ele>
        <time>2018-07-17T08:12:57Z</time>
      </trkpt>
      <trkpt lat="45.92585" lon="4.76043">
        <ele>171</ele>
        <time>2018-07-17T08:12:58Z</time>
      </trkpt>
      <trkpt lat="45.9259" lon="4.76046">
        <ele>171</ele>
        <time>2018-07-17T08:12:59Z</time>
      </trkpt>
      <trkpt lat="45.92596" lon="4.76049">
        <ele>171</ele>
        <time>2018-07-17T08:13:00Z</time>
      </trkpt>
      <trkpt lat="45.92602" lon="4.76053">
        <ele>171</ele>
        <time>2018-07-17T08:13:01Z</time>
      </trkpt>
      <trkpt lat="45.92607" lon="4.76057">
        <ele>171</ele>
        <time>2018-07-17T08:13:02Z</time>
      </trkpt>
      <trkpt lat="45.92611" lon="4.7606">
        <ele>171</ele>
        <time>2018-07-17T08:13:03Z</time>
      </trkpt>
      <trkpt lat="45.92616" lon="4.76064">
        <ele>171</ele>
        <time>2018-07-17T08:13:04Z</time>
      </trkpt>
      <trkpt lat="45.92621" lon="4.76069">
        <ele>171</ele>
        <time>2018-07-17T08:13:05Z</time>
      </trkpt>
      <trkpt lat="45.92627" lon="4.76072">
        <ele>170</ele>
        <time>2018-07-17T08:13:06Z</time>
      </trkpt>
      <trkpt lat="45.92631" lon="4.76076">
        <ele>170</ele>
        <time>2018-07-17T08:13:07Z</time>
      </trkpt>
      <trkpt lat="45.92636" lon="4.7608">
        <ele>170</ele>
        <time>2018-07-17T08:13:08Z</time>
      </trkpt>
      <trkpt lat="45.92641" lon="4.76084">
        <ele>170</ele>
        <time>2018-07-17T08:13:09Z</time>
      </trkpt>
      <trkpt lat="45.92645" lon="4.76087">
        <ele>170</ele>
        <time>2018-07-17T08:13:10Z</time>
      </trkpt>
      <trkpt lat="45.92651" lon="4.76091">
        <ele>170</ele>
        <time>2018-07-17T08:13:11Z</time>
      </trkpt>
      <trkpt lat="45.92656" lon="4.76097">
        <ele>170</ele>
        <time>2018-07-17T08:13:12Z</time>
      </trkpt>
      <trkpt lat="45.92662" lon="4.761">
        <ele>170</ele>
        <time>2018-07-17T08:13:13Z</time>
      </trkpt>
      <trkpt lat="45.92668" lon="4.76105">
        <ele>169</ele>
        <time>2018-07-17T08:13:14Z</time>
      </trkpt>
      <trkpt lat="45.92674" lon="4.76109">
        <ele>169</ele>
        <time>2018-07-17T08:13:15Z</time>
      </trkpt>
      <trkpt lat="45.92681" lon="4.76113">
        <ele>169</ele>
        <time>2018-07-17T08:13:16Z</time>
      </trkpt>
      <trkpt lat="45.92687" lon="4.76117">
        <ele>169</ele>
        <time>2018-07-17T08:13:17Z</time>
      </trkpt>
      <trkpt lat="45.92694" lon="4.76121">
        <ele>169</ele>
        <time>2018-07-17T08:13:18Z</time>
      </trkpt>
      <trkpt lat="45.92701" lon="4.76125">
        <ele>169</ele>
        <time>2018-07-17T08:13:19Z</time>
      </trkpt>
      <trkpt lat="45.92708" lon="4.76129">
        <ele>169</ele>
        <time>2018-07-17T08:13:20Z</time>
      </trkpt>
      <trkpt lat="45.92713" lon="4.76134">
        <ele>168</ele>
        <time>2018-07-17T08:13:21Z</time>
      </trkpt>
      <trkpt lat="45.92721" lon="4.76139">
        <ele>168</ele>
        <time>2018-07-17T08:13:22Z</time>
      </trkpt>
      <trkpt lat="45.92727" lon="4.76144">
        <ele>168</ele>
        <time>2018-07-17T08:13:23Z</time>
      </trkpt>
      <trkpt lat="45.92734" lon="4.76148">
        <ele>168</ele>
        <time>2018-07-17T08:13:24Z</time>
      </trkpt>
      <trkpt lat="45.9274" lon="4.76152">
        <ele>168</ele>
        <time>2018-07-17T08:13:25Z</time>
      </trkpt>
      <trkpt lat="45.92745" lon="4.76158">
        <ele>167</ele>
        <time>2018-07-17T08:13:26Z</time>
      </trkpt>
      <trkpt lat="45.9275" lon="4.76163">
        <ele>167</ele>
        <time>2018-07-17T08:13:27Z</time>
      </trkpt>
      <trkpt lat="45.92756" lon="4.76168">
        <ele>167</ele>
        <time>2018-07-17T08:13:28Z</time>
      </trkpt>
      <trkpt lat="45.92761" lon="4.76174">
        <ele>167</ele>
        <time>2018-07-17T08:13:29Z</time>
      </trkpt>
      <trkpt lat="45.92766" lon="4.76179">
        <ele>167</ele>
        <time>2018-07-17T08:13:30Z</time>
      </trkpt>
      <trkpt lat="45.92771" lon="4.76182">
        <ele>167</ele>
        <time>2018-07-17T08:13:31Z</time>
      </trkpt>
      <trkpt lat="45.92776" lon="4.76187">
        <ele>168</ele>
        <time>2018-07-17T08:13:32Z</time>
      </trkpt>
      <trkpt lat="45.92781" lon="4.76191">
        <ele>168</ele>
        <time>2018-07-17T08:13:33Z</time>
      </trkpt>
      <trkpt lat="45.92786" lon="4.76196">
        <ele>168</ele>
        <time>2018-07-17T08:13:34Z</time>
      </trkpt>
      <trkpt lat="45.92793" lon="4.76202">
        <ele>168</ele>
        <time>2018-07-17T08:13:35Z</time>
      </trkpt>
      <trkpt lat="45.92798" lon="4.76207">
        <ele>168</ele>
        <time>2018-07-17T08:13:36Z</time>
      </trkpt>
      <trkpt lat="45.92803" lon="4.76212">
        <ele>168</ele>
        <time>2018-07-17T08:13:37Z</time>
      </trkpt>
      <trkpt lat="45.92808" lon="4.76216">
        <ele>168</ele>
        <time>2018-07-17T08:13:38Z</time>
      </trkpt>
      <trkpt lat="45.92813" lon="4.76221">
        <ele>168</ele>
        <time>2018-07-17T08:13:39Z</time>
      </trkpt>
      <trkpt lat="45.92817" lon="4.76226">
        <ele>168</ele>
        <time>2018-07-17T08:13:40Z</time>
      </trkpt>
      <trkpt lat="45.92821" lon="4.76232">
        <ele>168</ele>
        <time>2018-07-17T08:13:41Z</time>
      </trkpt>
      <trkpt lat="45.92827" lon="4.76236">
        <ele>168</ele>
        <time>2018-07-17T08:13:42Z</time>
      </trkpt>
      <trkpt lat="45.92834" lon="4.76242">
        <ele>169</ele>
        <time>2018-07-17T08:13:43Z</time>
      </trkpt>
      <trkpt lat="45.9284" lon="4.76248">
        <ele>169</ele>
        <time>2018-07-17T08:13:44Z</time>
      </trkpt>
      <trkpt lat="45.92844" lon="4.76253">
        <ele>169</ele>
        <time>2018-07-17T08:13:45Z</time>
      </trkpt>
      <trkpt lat="45.92849" lon="4.76258">
        <ele>169</ele>
        <time>2018-07-17T08:13:46Z</time>
      </trkpt>
      <trkpt lat="45.92854" lon="4.76265">
        <ele>169</ele>
        <time>2018-07-17T08:13:47Z</time>
      </trkpt>
      <trkpt lat="45.92858" lon="4.76271">
        <ele>169</ele>
        <time>2018-07-17T08:13:48Z</time>
      </trkpt>
      <trkpt lat="45.92864" lon="4.76275">
        <ele>169</ele>
        <time>2018-07-17T08:13:49Z</time>
      </trkpt>
      <trkpt lat="45.92869" lon="4.76281">
        <ele>169</ele>
        <time>2018-07-17T08:13:50Z</time>
      </trkpt>
      <trkpt lat="45.92874" lon="4.76285">
        <ele>169</ele>
        <time>2018-07-17T08:13:51Z</time>
      </trkpt>
      <trkpt lat="45.92881" lon="4.76291">
        <ele>169</ele>
        <time>2018-07-17T08:13:52Z</time>
      </trkpt>
      <trkpt lat="45.92885" lon="4.76296">
        <ele>169</ele>
        <time>2018-07-17T08:13:53Z</time>
      </trkpt>
      <trkpt lat="45.92889" lon="4.76301">
        <ele>169</ele>
        <time>2018-07-17T08:13:54Z</time>
      </trkpt>
      <trkpt lat="45.92893" lon="4.76306">
        <ele>169</ele>
        <time>2018-07-17T08:13:55Z</time>
      </trkpt>
      <trkpt lat="45.92897" lon="4.76311">
        <ele>169</ele>
        <time>2018-07-17T08:13:56Z</time>
      </trkpt>
      <trkpt lat="45.92902" lon="4.76316">
        <ele>169</ele>
        <time>2018-07-17T08:13:57Z</time>
      </trkpt>
      <trkpt lat="45.92905" lon="4.76321">
        <ele>169</ele>
        <time>2018-07-17T08:13:58Z</time>
      </trkpt>
      <trkpt lat="45.92911" lon="4.76327">
        <ele>169</ele>
        <time>2018-07-17T08:13:59Z</time>
      </trkpt>
      <trkpt lat="45.92916" lon="4.76332">
        <ele>169</ele>
        <time>2018-07-17T08:14:00Z</time>
      </trkpt>
      <trkpt lat="45.92921" lon="4.76337">
        <ele>169</ele>
        <time>2018-07-17T08:14:01Z</time>
      </trkpt>
      <trkpt lat="45.92926" lon="4.76343">
        <ele>169</ele>
        <time>2018-07-17T08:14:02Z</time>
      </trkpt>
      <trkpt lat="45.92931" lon="4.76348">
        <ele>169</ele>
        <time>2018-07-17T08:14:03Z</time>
      </trkpt>
      <trkpt lat="45.92935" lon="4.76354">
        <ele>169</ele>
        <time>2018-07-17T08:14:04Z</time>
      </trkpt>
      <trkpt lat="45.92941" lon="4.76359">
        <ele>169</ele>
        <time>2018-07-17T08:14:05Z</time>
      </trkpt>
      <trkpt lat="45.92947" lon="4.76363">
        <ele>169</ele>
        <time>2018-07-17T08:14:06Z</time>
      </trkpt>
      <trkpt lat="45.92952" lon="4.76369">
        <ele>169</ele>
        <time>2018-07-17T08:14:07Z</time>
      </trkpt>
      <trkpt lat="45.92959" lon="4.76374">
        <ele>169</ele>
        <time>2018-07-17T08:14:08Z</time>
      </trkpt>
      <trkpt lat="45.92965" lon="4.76379">
        <ele>169</ele>
        <time>2018-07-17T08:14:09Z</time>
      </trkpt>
      <trkpt lat="45.92971" lon="4.76384">
        <ele>169</ele>
        <time>2018-07-17T08:14:10Z</time>
      </trkpt>
      <trkpt lat="45.92977" lon="4.7639">
        <ele>169</ele>
        <time>2018-07-17T08:14:11Z</time>
      </trkpt>
      <trkpt lat="45.92982" lon="4.76394">
        <ele>169</ele>
        <time>2018-07-17T08:14:12Z</time>
      </trkpt>
      <trkpt lat="45.92987" lon="4.76398">
        <ele>169</ele>
        <time>2018-07-17T08:14:13Z</time>
      </trkpt>
      <trkpt lat="45.92992" lon="4.76403">
        <ele>169</ele>
        <time>2018-07-17T08:14:14Z</time>
      </trkpt>
      <trkpt lat="45.92997" lon="4.76408">
        <ele>169</ele>
        <time>2018-07-17T08:14:15Z</time>
      </trkpt>
      <trkpt lat="45.93001" lon="4.76412">
        <ele>169</ele>
        <time>2018-07-17T08:14:16Z</time>
      </trkpt>
      <trkpt lat="45.93005" lon="4.76419">
        <ele>169</ele>
        <time>2018-07-17T08:14:17Z</time>
      </trkpt>
      <trkpt lat="45.93009" lon="4.76423">
        <ele>169</ele>
        <time>2018-07-17T08:14:18Z</time>
      </trkpt>
      <trkpt lat="45.93016" lon="4.76428">
        <ele>169</ele>
        <time>2018-07-17T08:14:19Z</time>
      </trkpt>
      <trkpt lat="45.93022" lon="4.76432">
        <ele>169</ele>
        <time>2018-07-17T08:14:20Z</time>
      </trkpt>
      <trkpt lat="45.93026" lon="4.76436">
        <ele>169</ele>
        <time>2018-07-17T08:14:21Z</time>
      </trkpt>
      <trkpt lat="45.93032" lon="4.7644">
        <ele>169</ele>
        <time>2018-07-17T08:14:22Z</time>
      </trkpt>
      <trkpt lat="45.93037" lon="4.76445">
        <ele>169</ele>
        <time>2018-07-17T08:14:23Z</time>
      </trkpt>
      <trkpt lat="45.93043" lon="4.76451">
        <ele>169</ele>
        <time>2018-07-17T08:14:24Z</time>
      </trkpt>
      <trkpt lat="45.93048" lon="4.76456">
        <ele>169</ele>
        <time>2018-07-17T08:14:25Z</time>
      </trkpt>
      <trkpt lat="45.93053" lon="4.76459">
        <ele>169</ele>
        <time>2018-07-17T08:14:26Z</time>
      </trkpt>
      <trkpt lat="45.93058" lon="4.76466">
        <ele>169</ele>
        <time>2018-07-17T08:14:27Z</time>
      </trkpt>
      <trkpt lat="45.93064" lon="4.76471">
        <ele>169</ele>
        <time>2018-07-17T08:14:28Z</time>
      </trkpt>
      <trkpt lat="45.9307" lon="4.76476">
        <ele>169</ele>
        <time>2018-07-17T08:14:29Z</time>
      </trkpt>
      <trkpt lat="45.93077" lon="4.76479">
        <ele>169</ele>
        <time>2018-07-17T08:14:30Z</time>
      </trkpt>
      <trkpt lat="45.93083" lon="4.76486">
        <ele>170</ele>
        <time>2018-07-17T08:14:31Z</time>
      </trkpt>
      <trkpt lat="45.93089" lon="4.76492">
        <ele>170</ele>
        <time>2018-07-17T08:14:32Z</time>
      </trkpt>
      <trkpt lat="45.93092" lon="4.76498">
        <ele>170</ele>
        <time>2018-07-17T08:14:33Z</time>
      </trkpt>
      <trkpt lat="45.93098" lon="4.76502">
        <ele>170</ele>
        <time>2018-07-17T08:14:34Z</time>
      </trkpt>
      <trkpt lat="45.93102" lon="4.76506">
        <ele>170</ele>
        <time>2018-07-17T08:14:35Z</time>
      </trkpt>
      <trkpt lat="45.93107" lon="4.76511">
        <ele>170</ele>
        <time>2018-07-17T08:14:36Z</time>
      </trkpt>
      <trkpt lat="45.93111" lon="4.76516">
        <ele>170</ele>
        <time>2018-07-17T08:14:37Z</time>
      </trkpt>
      <trkpt lat="45.93116" lon="4.76521">
        <ele>170</ele>
        <time>2018-07-17T08:14:38Z</time>
      </trkpt>
      <trkpt lat="45.9312" lon="4.76526">
        <ele>170</ele>
        <time>2018-07-17T08:14:39Z</time>
      </trkpt>
      <trkpt lat="45.93125" lon="4.76531">
        <ele>170</ele>
        <time>2018-07-17T08:14:40Z</time>
      </trkpt>
      <trkpt lat="45.93129" lon="4.76536">
        <ele>170</ele>
        <time>2018-07-17T08:14:41Z</time>
      </trkpt>
      <trkpt lat="45.93135" lon="4.76541">
        <ele>170</ele>
        <time>2018-07-17T08:14:42Z</time>
      </trkpt>
      <trkpt lat="45.93142" lon="4.76546">
        <ele>170</ele>
        <time>2018-07-17T08:14:43Z</time>
      </trkpt>
      <trkpt lat="45.93147" lon="4.76552">
        <ele>170</ele>
        <time>2018-07-17T08:14:44Z</time>
      </trkpt>
      <trkpt lat="45.9315" lon="4.76557">
        <ele>170</ele>
        <time>2018-07-17T08:14:45Z</time>
      </trkpt>
      <trkpt lat="45.93154" lon="4.76562">
        <ele>170</ele>
        <time>2018-07-17T08:14:46Z</time>
      </trkpt>
      <trkpt lat="45.93163" lon="4.76567">
        <ele>170</ele>
        <time>2018-07-17T08:14:47Z</time>
      </trkpt>
      <trkpt lat="45.93165" lon="4.76571">
        <ele>170</ele>
        <time>2018-07-17T08:14:48Z</time>
      </trkpt>
      <trkpt lat="45.93171" lon="4.76577">
        <ele>170</ele>
        <time>2018-07-17T08:14:49Z</time>
      </trkpt>
      <trkpt lat="45.93176" lon="4.76583">
        <ele>170</ele>
        <time>2018-07-17T08:14:50Z</time>
      </trkpt>
      <trkpt lat="45.93179" lon="4.76588">
        <ele>171</ele>
        <time>2018-07-17T08:14:51Z</time>
      </trkpt>
      <trkpt lat="45.93185" lon="4.76596">
        <ele>171</ele>
        <time>2018-07-17T08:14:52Z</time>
      </trkpt>
      <trkpt lat="45.93191" lon="4.766">
        <ele>170</ele>
        <time>2018-07-17T08:14:53Z</time>
      </trkpt>
      <trkpt lat="45.93198" lon="4.76604">
        <ele>170</ele>
        <time>2018-07-17T08:14:54Z</time>
      </trkpt>
      <trkpt lat="45.93204" lon="4.76608">
        <ele>170</ele>
        <time>2018-07-17T08:14:55Z</time>
      </trkpt>
      <trkpt lat="45.93209" lon="4.76613">
        <ele>170</ele>
        <time>2018-07-17T08:14:56Z</time>
      </trkpt>
      <trkpt lat="45.93214" lon="4.76619">
        <ele>170</ele>
        <time>2018-07-17T08:14:57Z</time>
      </trkpt>
      <trkpt lat="45.93219" lon="4.76624">
        <ele>170</ele>
        <time>2018-07-17T08:14:58Z</time>
      </trkpt>
      <trkpt lat="45.93222" lon="4.76629">
        <ele>170</ele>
        <time>2018-07-17T08:14:59Z</time>
      </trkpt>
      <trkpt lat="45.93228" lon="4.76633">
        <ele>171</ele>
        <time>2018-07-17T08:15:00Z</time>
      </trkpt>
      <trkpt lat="45.9323" lon="4.76639">
        <ele>171</ele>
        <time>2018-07-17T08:15:01Z</time>
      </trkpt>
      <trkpt lat="45.93235" lon="4.76643">
        <ele>171</ele>
        <time>2018-07-17T08:15:02Z</time>
      </trkpt>
      <trkpt lat="45.93236" lon="4.76649">
        <ele>171</ele>
        <time>2018-07-17T08:15:03Z</time>
      </trkpt>
      <trkpt lat="45.93244" lon="4.76652">
        <ele>171</ele>
        <time>2018-07-17T08:15:04Z</time>
      </trkpt>
      <trkpt lat="45.93247" lon="4.76657">
        <ele>171</ele>
        <time>2018-07-17T08:15:05Z</time>
      </trkpt>
      <trkpt lat="45.93253" lon="4.76663">
        <ele>172</ele>
        <time>2018-07-17T08:15:06Z</time>
      </trkpt>
      <trkpt lat="45.93258" lon="4.76668">
        <ele>172</ele>
        <time>2018-07-17T08:15:07Z</time>
      </trkpt>
      <trkpt lat="45.93263" lon="4.76673">
        <ele>172</ele>
        <time>2018-07-17T08:15:08Z</time>
      </trkpt>
      <trkpt lat="45.93269" lon="4.76677">
        <ele>172</ele>
        <time>2018-07-17T08:15:09Z</time>
      </trkpt>
      <trkpt lat="45.93276" lon="4.76683">
        <ele>172</ele>
        <time>2018-07-17T08:15:10Z</time>
      </trkpt>
      <trkpt lat="45.9328" lon="4.76686">
        <ele>172</ele>
        <time>2018-07-17T08:15:11Z</time>
      </trkpt>
      <trkpt lat="45.93285" lon="4.7669">
        <ele>172</ele>
        <time>2018-07-17T08:15:12Z</time>
      </trkpt>
      <trkpt lat="45.93289" lon="4.76695">
        <ele>172</ele>
        <time>2018-07-17T08:15:13Z</time>
      </trkpt>
      <trkpt lat="45.93293" lon="4.76699">
        <ele>172</ele>
        <time>2018-07-17T08:15:14Z</time>
      </trkpt>
      <trkpt lat="45.93298" lon="4.76703">
        <ele>172</ele>
        <time>2018-07-17T08:15:15Z</time>
      </trkpt>
      <trkpt lat="45.93303" lon="4.76708">
        <ele>172</ele>
        <time>2018-07-17T08:15:16Z</time>
      </trkpt>
      <trkpt lat="45.93308" lon="4.76711">
        <ele>172</ele>
        <time>2018-07-17T08:15:17Z</time>
      </trkpt>
      <trkpt lat="45.93313" lon="4.76716">
        <ele>172</ele>
        <time>2018-07-17T08:15:18Z</time>
      </trkpt>
      <trkpt lat="45.93317" lon="4.76719">
        <ele>172</ele>
        <time>2018-07-17T08:15:19Z</time>
      </trkpt>
      <trkpt lat="45.9332" lon="4.76723">
        <ele>172</ele>
        <time>2018-07-17T08:15:20Z</time>
      </trkpt>
      <trkpt lat="45.93326" lon="4.76727">
        <ele>172</ele>
        <time>2018-07-17T08:15:21Z</time>
      </trkpt>
      <trkpt lat="45.93331" lon="4.7673">
        <ele>172</ele>
        <time>2018-07-17T08:15:22Z</time>
      </trkpt>
      <trkpt lat="45.93335" lon="4.76736">
        <ele>172</ele>
        <time>2018-07-17T08:15:23Z</time>
      </trkpt>
      <trkpt lat="45.93339" lon="4.76741">
        <ele>173</ele>
        <time>2018-07-17T08:15:24Z</time>
      </trkpt>
      <trkpt lat="45.93344" lon="4.76746">
        <ele>173</ele>
        <time>2018-07-17T08:15:25Z</time>
      </trkpt>
      <trkpt lat="45.9335" lon="4.7675">
        <ele>172</ele>
        <time>2018-07-17T08:15:26Z</time>
      </trkpt>
      <trkpt lat="45.93354" lon="4.76755">
        <ele>172</ele>
        <time>2018-07-17T08:15:27Z</time>
      </trkpt>
      <trkpt lat="45.93358" lon="4.76758">
        <ele>172</ele>
        <time>2018-07-17T08:15:28Z</time>
      </trkpt>
      <trkpt lat="45.93363" lon="4.76763">
        <ele>172</ele>
        <time>2018-07-17T08:15:29Z</time>
      </trkpt>
      <trkpt lat="45.93367" lon="4.76767">
        <ele>172</ele>
        <time>2018-07-17T08:15:30Z</time>
      </trkpt>
      <trkpt lat="45.93374" lon="4.76771">
        <ele>172</ele>
        <time>2018-07-17T08:15:31Z</time>
      </trkpt>
      <trkpt lat="45.93377" lon="4.76776">
        <ele>172</ele>
        <time>2018-07-17T08:15:32Z</time>
      </trkpt>
      <trkpt lat="45.93381" lon="4.76781">
        <ele>172</ele>
        <time>2018-07-17T08:15:33Z</time>
      </trkpt>
      <trkpt lat="45.93385" lon="4.76787">
        <ele>172</ele>
        <time>2018-07-17T08:15:34Z</time>
      </trkpt>
      <trkpt lat="45.93388" lon="4.76791">
        <ele>172</ele>
        <time>2018-07-17T08:15:35Z</time>
      </trkpt>
      <trkpt lat="45.93392" lon="4.76796">
        <ele>172</ele>
        <time>2018-07-17T08:15:36Z</time>
      </trkpt>
      <trkpt lat="45.93396" lon="4.76803">
        <ele>172</ele>
        <time>2018-07-17T08:15:37Z</time>
      </trkpt>
      <trkpt lat="45.93401" lon="4.76808">
        <ele>172</ele>
        <time>2018-07-17T08:15:38Z</time>
      </trkpt>
      <trkpt lat="45.93407" lon="4.76814">
        <ele>172</ele>
        <time>2018-07-17T08:15:39Z</time>
      </trkpt>
      <trkpt lat="45.93411" lon="4.7682">
        <ele>172</ele>
        <time>2018-07-17T08:15:40Z</time>
      </trkpt>
      <trkpt lat="45.93414" lon="4.76827">
        <ele>172</ele>
        <time>2018-07-17T08:15:41Z</time>
      </trkpt>
      <trkpt lat="45.93417" lon="4.76832">
        <ele>172</ele>
        <time>2018-07-17T08:15:42Z</time>
      </trkpt>
      <trkpt lat="45.93419" lon="4.76839">
        <ele>172</ele>
        <time>2018-07-17T08:15:43Z</time>
      </trkpt>
      <trkpt lat="45.93421" lon="4.76844">
        <ele>171</ele>
        <time>2018-07-17T08:15:44Z</time>
      </trkpt>
      <trkpt lat="45.93425" lon="4.76851">
        <ele>171</ele>
        <time>2018-07-17T08:15:45Z</time>
      </trkpt>
      <trkpt lat="45.93427" lon="4.76859">
        <ele>171</ele>
        <time>2018-07-17T08:15:46Z</time>
      </trkpt>
      <trkpt lat="45.93431" lon="4.76866">
        <ele>171</ele>
        <time>2018-07-17T08:15:47Z</time>
      </trkpt>
      <trkpt lat="45.93434" lon="4.76873">
        <ele>171</ele>
        <time>2018-07-17T08:15:48Z</time>
      </trkpt>
      <trkpt lat="45.93436" lon="4.7688">
        <ele>171</ele>
        <time>2018-07-17T08:15:49Z</time>
      </trkpt>
      <trkpt lat="45.93439" lon="4.76888">
        <ele>170</ele>
        <time>2018-07-17T08:15:50Z</time>
      </trkpt>
      <trkpt lat="45.9344" lon="4.76896">
        <ele>170</ele>
        <time>2018-07-17T08:15:51Z</time>
      </trkpt>
      <trkpt lat="45.93442" lon="4.76904">
        <ele>170</ele>
        <time>2018-07-17T08:15:52Z</time>
      </trkpt>
      <trkpt lat="45.93444" lon="4.76912">
        <ele>170</ele>
        <time>2018-07-17T08:15:53Z</time>
      </trkpt>
      <trkpt lat="45.93446" lon="4.7692">
        <ele>170</ele>
        <time>2018-07-17T08:15:54Z</time>
      </trkpt>
      <trkpt lat="45.93449" lon="4.76928">
        <ele>170</ele>
        <time>2018-07-17T08:15:55Z</time>
      </trkpt>
      <trkpt lat="45.9345" lon="4.76936">
        <ele>170</ele>
        <time>2018-07-17T08:15:56Z</time>
      </trkpt>
      <trkpt lat="45.9345" lon="4.76943">
        <ele>170</ele>
        <time>2018-07-17T08:15:57Z</time>
      </trkpt>
      <trkpt lat="45.93451" lon="4.76952">
        <ele>170</ele>
        <time>2018-07-17T08:15:58Z</time>
      </trkpt>
      <trkpt lat="45.93454" lon="4.7696">
        <ele>170</ele>
        <time>2018-07-17T08:15:59Z</time>
      </trkpt>
      <trkpt lat="45.93456" lon="4.76969">
        <ele>170</ele>
        <time>2018-07-17T08:16:00Z</time>
      </trkpt>
      <trkpt lat="45.93457" lon="4.76977">
        <ele>170</ele>
        <time>2018-07-17T08:16:01Z</time>
      </trkpt>
      <trkpt lat="45.93458" lon="4.76985">
        <ele>170</ele>
        <time>2018-07-17T08:16:02Z</time>
      </trkpt>
      <trkpt lat="45.93459" lon="4.76993">
        <ele>170</ele>
        <time>2018-07-17T08:16:03Z</time>
      </trkpt>
      <trkpt lat="45.93464" lon="4.77001">
        <ele>170</ele>
        <time>2018-07-17T08:16:04Z</time>
      </trkpt>
      <trkpt lat="45.93465" lon="4.77011">
        <ele>170</ele>
        <time>2018-07-17T08:16:05Z</time>
      </trkpt>
      <trkpt lat="45.93467" lon="4.77019">
        <ele>170</ele>
        <time>2018-07-17T08:16:06Z</time>
      </trkpt>
      <trkpt lat="45.93469" lon="4.77026">
        <ele>170</ele>
        <time>2018-07-17T08:16:07Z</time>
      </trkpt>
      <trkpt lat="45.93471" lon="4.77033">
        <ele>170</ele>
        <time>2018-07-17T08:16:08Z</time>
      </trkpt>
      <trkpt lat="45.93471" lon="4.77042">
        <ele>170</ele>
        <time>2018-07-17T08:16:09Z</time>
      </trkpt>
      <trkpt lat="45.93473" lon="4.7705">
        <ele>170</ele>
        <time>2018-07-17T08:16:10Z</time>
      </trkpt>
      <trkpt lat="45.93474" lon="4.77058">
        <ele>170</ele>
        <time>2018-07-17T08:16:11Z</time>
      </trkpt>
      <trkpt lat="45.93475" lon="4.77068">
        <ele>170</ele>
        <time>2018-07-17T08:16:12Z</time>
      </trkpt>
      <trkpt lat="45.93476" lon="4.77076">
        <ele>170</ele>
        <time>2018-07-17T08:16:13Z</time>
      </trkpt>
      <trkpt lat="45.93477" lon="4.77083">
        <ele>169</ele>
        <time>2018-07-17T08:16:14Z</time>
      </trkpt>
      <trkpt lat="45.93478" lon="4.77091">
        <ele>169</ele>
        <time>2018-07-17T08:16:15Z</time>
      </trkpt>
      <trkpt lat="45.9348" lon="4.77099">
        <ele>169</ele>
        <time>2018-07-17T08:16:16Z</time>
      </trkpt>
      <trkpt lat="45.93482" lon="4.77106">
        <ele>169</ele>
        <time>2018-07-17T08:16:17Z</time>
      </trkpt>
      <trkpt lat="45.93483" lon="4.77115">
        <ele>169</ele>
        <time>2018-07-17T08:16:18Z</time>
      </trkpt>
      <trkpt lat="45.93484" lon="4.77124">
        <ele>169</ele>
        <time>2018-07-17T08:16:19Z</time>
      </trkpt>
      <trkpt lat="45.93485" lon="4.77132">
        <ele>169</ele>
        <time>2018-07-17T08:16:20Z</time>
      </trkpt>
      <trkpt lat="45.93486" lon="4.7714">
        <ele>169</ele>
        <time>2018-07-17T08:16:21Z</time>
      </trkpt>
      <trkpt lat="45.93487" lon="4.77148">
        <ele>169</ele>
        <time>2018-07-17T08:16:22Z</time>
      </trkpt>
      <trkpt lat="45.93489" lon="4.77156">
        <ele>169</ele>
        <time>2018-07-17T08:16:23Z</time>
      </trkpt>
      <trkpt lat="45.93491" lon="4.77164">
        <ele>169</ele>
        <time>2018-07-17T08:16:24Z</time>
      </trkpt>
      <trkpt lat="45.93493" lon="4.77171">
        <ele>169</ele>
        <time>2018-07-17T08:16:25Z</time>
      </trkpt>
      <trkpt lat="45.93494" lon="4.77178">
        <ele>169</ele>
        <time>2018-07-17T08:16:26Z</time>
      </trkpt>
      <trkpt lat="45.93496" lon="4.77185">
        <ele>169</ele>
        <time>2018-07-17T08:16:27Z</time>
      </trkpt>
      <trkpt lat="45.93497" lon="4.77191">
        <ele>169</ele>
        <time>2018-07-17T08:16:28Z</time>
      </trkpt>
      <trkpt lat="45.93499" lon="4.77199">
        <ele>169</ele>
        <time>2018-07-17T08:16:29Z</time>
      </trkpt>
      <trkpt lat="45.935" lon="4.77206">
        <ele>169</ele>
        <time>2018-07-17T08:16:30Z</time>
      </trkpt>
      <trkpt lat="45.93502" lon="4.77213">
        <ele>169</ele>
        <time>2018-07-17T08:16:31Z</time>
      </trkpt>
      <trkpt lat="45.93503" lon="4.77222">
        <ele>169</ele>
        <time>2018-07-17T08:16:32Z</time>
      </trkpt>
      <trkpt lat="45.93504" lon="4.7723">
        <ele>169</ele>
        <time>2018-07-17T08:16:33Z</time>
      </trkpt>
      <trkpt lat="45.93507" lon="4.77238">
        <ele>169</ele>
        <time>2018-07-17T08:16:34Z</time>
      </trkpt>
      <trkpt lat="45.93509" lon="4.77246">
        <ele>169</ele>
        <time>2018-07-17T08:16:35Z</time>
      </trkpt>
      <trkpt lat="45.93511" lon="4.77253">
        <ele>170</ele>
        <time>2018-07-17T08:16:36Z</time>
      </trkpt>
      <trkpt lat="45.93513" lon="4.77261">
        <ele>170</ele>
        <time>2018-07-17T08:16:37Z</time>
      </trkpt>
      <trkpt lat="45.93516" lon="4.77267">
        <ele>170</ele>
        <time>2018-07-17T08:16:38Z</time>
      </trkpt>
      <trkpt lat="45.93518" lon="4.77274">
        <ele>170</ele>
        <time>2018-07-17T08:16:39Z</time>
      </trkpt>
      <trkpt lat="45.9352" lon="4.77281">
        <ele>170</ele>
        <time>2018-07-17T08:16:40Z</time>
      </trkpt>
      <trkpt lat="45.93521" lon="4.77288">
        <ele>170</ele>
        <time>2018-07-17T08:16:41Z</time>
      </trkpt>
      <trkpt lat="45.93523" lon="4.77294">
        <ele>170</ele>
        <time>2018-07-17T08:16:42Z</time>
      </trkpt>
      <trkpt lat="45.93525" lon="4.77301">
        <ele>170</ele>
        <time>2018-07-17T08:16:43Z</time>
      </trkpt>
      <trkpt lat="45.93527" lon="4.77308">
        <ele>170</ele>
        <time>2018-07-17T08:16:44Z</time>
      </trkpt>
      <trkpt lat="45.93529" lon="4.77316">
        <ele>170</ele>
        <time>2018-07-17T08:16:45Z</time>
      </trkpt>
      <trkpt lat="45.93531" lon="4.77323">
        <ele>170</ele>
        <time>2018-07-17T08:16:46Z</time>
      </trkpt>
      <trkpt lat="45.93533" lon="4.77331">
        <ele>170</ele>
        <time>2018-07-17T08:16:47Z</time>
      </trkpt>
      <trkpt lat="45.93535" lon="4.77338">
        <ele>170</ele>
        <time>2018-07-17T08:16:48Z</time>
      </trkpt>
      <trkpt lat="45.93535" lon="4.77346">
        <ele>170</ele>
        <time>2018-07-17T08:16:49Z</time>
      </trkpt>
      <trkpt lat="45.93537" lon="4.77353">
        <ele>170</ele>
        <time>2018-07-17T08:16:50Z</time>
      </trkpt>
      <trkpt lat="45.93539" lon="4.7736">
        <ele>170</ele>
        <time>2018-07-17T08:16:51Z</time>
      </trkpt>
      <trkpt lat="45.9354" lon="4.77368">
        <ele>170</ele>
        <time>2018-07-17T08:16:52Z</time>
      </trkpt>
      <trkpt lat="45.93543" lon="4.77375">
        <ele>170</ele>
        <time>2018-07-17T08:16:53Z</time>
      </trkpt>
      <trkpt lat="45.93545" lon="4.77381">
        <ele>170</ele>
        <time>2018-07-17T08:16:54Z</time>
      </trkpt>
      <trkpt lat="45.93548" lon="4.7739">
        <ele>170</ele>
        <time>2018-07-17T08:16:55Z</time>
      </trkpt>
      <trkpt lat="45.93546" lon="4.77397">
        <ele>170</ele>
        <time>2018-07-17T08:16:56Z</time>
      </trkpt>
      <trkpt lat="45.93548" lon="4.77406">
        <ele>170</ele>
        <time>2018-07-17T08:16:57Z</time>
      </trkpt>
      <trkpt lat="45.9355" lon="4.77413">
        <ele>170</ele>
        <time>2018-07-17T08:16:58Z</time>
      </trkpt>
      <trkpt lat="45.9355" lon="4.77421">
        <ele>170</ele>
        <time>2018-07-17T08:16:59Z</time>
      </trkpt>
      <trkpt lat="45.93552" lon="4.77428">
        <ele>170</ele>
        <time>2018-07-17T08:17:00Z</time>
      </trkpt>
      <trkpt lat="45.93555" lon="4.77435">
        <ele>169</ele>
        <time>2018-07-17T08:17:01Z</time>
      </trkpt>
      <trkpt lat="45.93557" lon="4.77442">
        <ele>169</ele>
        <time>2018-07-17T08:17:02Z</time>
      </trkpt>
      <trkpt lat="45.93558" lon="4.7745">
        <ele>169</ele>
        <time>2018-07-17T08:17:03Z</time>
      </trkpt>
      <trkpt lat="45.9356" lon="4.77459">
        <ele>169</ele>
        <time>2018-07-17T08:17:04Z</time>
      </trkpt>
      <trkpt lat="45.93561" lon="4.77467">
        <ele>169</ele>
        <time>2018-07-17T08:17:05Z</time>
      </trkpt>
      <trkpt lat="45.93564" lon="4.77475">
        <ele>169</ele>
        <time>2018-07-17T08:17:06Z</time>
      </trkpt>
      <trkpt lat="45.93565" lon="4.77483">
        <ele>169</ele>
        <time>2018-07-17T08:17:07Z</time>
      </trkpt>
      <trkpt lat="45.93568" lon="4.77491">
        <ele>169</ele>
        <time>2018-07-17T08:17:08Z</time>
      </trkpt>
      <trkpt lat="45.9357" lon="4.77499">
        <ele>169</ele>
        <time>2018-07-17T08:17:09Z</time>
      </trkpt>
      <trkpt lat="45.93572" lon="4.77506">
        <ele>169</ele>
        <time>2018-07-17T08:17:10Z</time>
      </trkpt>
      <trkpt lat="45.93574" lon="4.77514">
        <ele>169</ele>
        <time>2018-07-17T08:17:11Z</time>
      </trkpt>
      <trkpt lat="45.93575" lon="4.77521">
        <ele>169</ele>
        <time>2018-07-17T08:17:12Z</time>
      </trkpt>
      <trkpt lat="45.93577" lon="4.7753">
        <ele>169</ele>
        <time>2018-07-17T08:17:13Z</time>
      </trkpt>
      <trkpt lat="45.93578" lon="4.77536">
        <ele>169</ele>
        <time>2018-07-17T08:17:14Z</time>
      </trkpt>
      <trkpt lat="45.9358" lon="4.77543">
        <ele>169</ele>
        <time>2018-07-17T08:17:15Z</time>
      </trkpt>
      <trkpt lat="45.93581" lon="4.77551">
        <ele>169</ele>
        <time>2018-07-17T08:17:16Z</time>
      </trkpt>
      <trkpt lat="45.93583" lon="4.77559">
        <ele>169</ele>
        <time>2018-07-17T08:17:17Z</time>
      </trkpt>
      <trkpt lat="45.93584" lon="4.77567">
        <ele>170</ele>
        <time>2018-07-17T08:17:18Z</time>
      </trkpt>
      <trkpt lat="45.93586" lon="4.77575">
        <ele>170</ele>
        <time>2018-07-17T08:17:19Z</time>
      </trkpt>
      <trkpt lat="45.9359" lon="4.77581">
        <ele>170</ele>
        <time>2018-07-17T08:17:20Z</time>
      </trkpt>
      <trkpt lat="45.93592" lon="4.77589">
        <ele>170</ele>
        <time>2018-07-17T08:17:21Z</time>
      </trkpt>
      <trkpt lat="45.93595" lon="4.77597">
        <ele>170</ele>
        <time>2018-07-17T08:17:22Z</time>
      </trkpt>
      <trkpt lat="45.93598" lon="4.77606">
        <ele>170</ele>
        <time>2018-07-17T08:17:23Z</time>
      </trkpt>
      <trkpt lat="45.936" lon="4.77614">
        <ele>170</ele>
        <time>2018-07-17T08:17:24Z</time>
      </trkpt>
      <trkpt lat="45.93603" lon="4.77623">
        <ele>170</ele>
        <time>2018-07-17T08:17:25Z</time>
      </trkpt>
      <trkpt lat="45.93607" lon="4.77631">
        <ele>169</ele>
        <time>2018-07-17T08:17:26Z</time>
      </trkpt>
      <trkpt lat="45.9361" lon="4.77637">
        <ele>169</ele>
        <time>2018-07-17T08:17:27Z</time>
      </trkpt>
      <trkpt lat="45.93613" lon="4.77645">
        <ele>169</ele>
        <time>2018-07-17T08:17:28Z</time>
      </trkpt>
      <trkpt lat="45.93616" lon="4.77651">
        <ele>169</ele>
        <time>2018-07-17T08:17:29Z</time>
      </trkpt>
      <trkpt lat="45.9362" lon="4.77658">
        <ele>169</ele>
        <time>2018-07-17T08:17:30Z</time>
      </trkpt>
      <trkpt lat="45.93623" lon="4.77664">
        <ele>169</ele>
        <time>2018-07-17T08:17:31Z</time>
      </trkpt>
      <trkpt lat="45.93626" lon="4.7767">
        <ele>169</ele>
        <time>2018-07-17T08:17:32Z</time>
      </trkpt>
      <trkpt lat="45.93627" lon="4.77677">
        <ele>169</ele>
        <time>2018-07-17T08:17:33Z</time>
      </trkpt>
      <trkpt lat="45.93629" lon="4.77683">
        <ele>169</ele>
        <time>2018-07-17T08:17:34Z</time>
      </trkpt>
      <trkpt lat="45.93632" lon="4.77689">
        <ele>169</ele>
        <time>2018-07-17T08:17:35Z</time>
      </trkpt>
      <trkpt lat="45.93636" lon="4.777">
        <ele>169</ele>
        <time>2018-07-17T08:17:37Z</time>
      </trkpt>
      <trkpt lat="45.93639" lon="4.77706">
        <ele>170</ele>
        <time>2018-07-17T08:17:38Z</time>
      </trkpt>
      <trkpt lat="45.93644" lon="4.77717">
        <ele>170</ele>
        <time>2018-07-17T08:17:40Z</time>
      </trkpt>
      <trkpt lat="45.93647" lon="4.77722">
        <ele>170</ele>
        <time>2018-07-17T08:17:41Z</time>
      </trkpt>
      <trkpt lat="45.93653" lon="4.77731">
        <ele>170</ele>
        <time>2018-07-17T08:17:43Z</time>
      </trkpt>
      <trkpt lat="45.93656" lon="4.77736">
        <ele>170</ele>
        <time>2018-07-17T08:17:44Z</time>
      </trkpt>
      <trkpt lat="45.93661" lon="4.7774">
        <ele>170</ele>
        <time>2018-07-17T08:17:45Z</time>
      </trkpt>
      <trkpt lat="45.93663" lon="4.77743">
        <ele>171</ele>
        <time>2018-07-17T08:17:46Z</time>
      </trkpt>
      <trkpt lat="45.93667" lon="4.77749">
        <ele>171</ele>
        <time>2018-07-17T08:17:47Z</time>
      </trkpt>
      <trkpt lat="45.93669" lon="4.77754">
        <ele>171</ele>
        <time>2018-07-17T08:17:48Z</time>
      </trkpt>
      <trkpt lat="45.93675" lon="4.77762">
        <ele>170</ele>
        <time>2018-07-17T08:17:50Z</time>
      </trkpt>
      <trkpt lat="45.93678" lon="4.77767">
        <ele>170</ele>
        <time>2018-07-17T08:17:51Z</time>
      </trkpt>
      <trkpt lat="45.93683" lon="4.77775">
        <ele>170</ele>
        <time>2018-07-17T08:17:53Z</time>
      </trkpt>
      <trkpt lat="45.93686" lon="4.77779">
        <ele>170</ele>
        <time>2018-07-17T08:17:54Z</time>
      </trkpt>
      <trkpt lat="45.93692" lon="4.77787">
        <ele>170</ele>
        <time>2018-07-17T08:17:56Z</time>
      </trkpt>
      <trkpt lat="45.93695" lon="4.77792">
        <ele>169</ele>
        <time>2018-07-17T08:17:57Z</time>
      </trkpt>
      <trkpt lat="45.93701" lon="4.778">
        <ele>169</ele>
        <time>2018-07-17T08:17:59Z</time>
      </trkpt>
      <trkpt lat="45.93705" lon="4.77804">
        <ele>169</ele>
        <time>2018-07-17T08:18:00Z</time>
      </trkpt>
      <trkpt lat="45.93709" lon="4.77808">
        <ele>169</ele>
        <time>2018-07-17T08:18:01Z</time>
      </trkpt>
      <trkpt lat="45.93712" lon="4.77812">
        <ele>169</ele>
        <time>2018-07-17T08:18:02Z</time>
      </trkpt>
      <trkpt lat="45.93718" lon="4.77821">
        <ele>169</ele>
        <time>2018-07-17T08:18:04Z</time>
      </trkpt>
      <trkpt lat="45.93721" lon="4.77826">
        <ele>168</ele>
        <time>2018-07-17T08:18:05Z</time>
      </trkpt>
      <trkpt lat="45.93726" lon="4.77835">
        <ele>167</ele>
        <time>2018-07-17T08:18:07Z</time>
      </trkpt>
      <trkpt lat="45.93729" lon="4.77839">
        <ele>167</ele>
        <time>2018-07-17T08:18:08Z</time>
      </trkpt>
      <trkpt lat="45.93734" lon="4.77845">
        <ele>167</ele>
        <time>2018-07-17T08:18:09Z</time>
      </trkpt>
      <trkpt lat="45.93737" lon="4.77849">
        <ele>167</ele>
        <time>2018-07-17T08:18:10Z</time>
      </trkpt>
      <trkpt lat="45.93742" lon="4.77859">
        <ele>167</ele>
        <time>2018-07-17T08:18:12Z</time>
      </trkpt>
      <trkpt lat="45.93745" lon="4.77864">
        <ele>167</ele>
        <time>2018-07-17T08:18:13Z</time>
      </trkpt>
      <trkpt lat="45.93752" lon="4.77872">
        <ele>166</ele>
        <time>2018-07-17T08:18:15Z</time>
      </trkpt>
      <trkpt lat="45.93755" lon="4.77876">
        <ele>166</ele>
        <time>2018-07-17T08:18:16Z</time>
      </trkpt>
      <trkpt lat="45.93759" lon="4.77884">
        <ele>166</ele>
        <time>2018-07-17T08:18:18Z</time>
      </trkpt>
      <trkpt lat="45.93763" lon="4.77889">
        <ele>166</ele>
        <time>2018-07-17T08:18:19Z</time>
      </trkpt>
      <trkpt lat="45.93767" lon="4.77894">
        <ele>166</ele>
        <time>2018-07-17T08:18:20Z</time>
      </trkpt>
      <trkpt lat="45.9377" lon="4.77899">
        <ele>166</ele>
        <time>2018-07-17T08:18:21Z</time>
      </trkpt>
      <trkpt lat="45.93773" lon="4.77903">
        <ele>166</ele>
        <time>2018-07-17T08:18:22Z</time>
      </trkpt>
      <trkpt lat="45.93777" lon="4.77907">
        <ele>166</ele>
        <time>2018-07-17T08:18:23Z</time>
      </trkpt>
      <trkpt lat="45.93781" lon="4.77911">
        <ele>166</ele>
        <time>2018-07-17T08:18:24Z</time>
      </trkpt>
      <trkpt lat="45.93784" lon="4.77916">
        <ele>166</ele>
        <time>2018-07-17T08:18:25Z</time>
      </trkpt>
      <trkpt lat="45.93791" lon="4.77919">
        <ele>168</ele>
        <time>2018-07-17T08:18:26Z</time>
      </trkpt>
      <trkpt lat="45.93795" lon="4.77924">
        <ele>168</ele>
        <time>2018-07-17T08:18:27Z</time>
      </trkpt>
      <trkpt lat="45.93801" lon="4.77933">
        <ele>168</ele>
        <time>2018-07-17T08:18:29Z</time>
      </trkpt>
      <trkpt lat="45.93804" lon="4.77937">
        <ele>169</ele>
        <time>2018-07-17T08:18:30Z</time>
      </trkpt>
      <trkpt lat="45.93807" lon="4.77942">
        <ele>169</ele>
        <time>2018-07-17T08:18:31Z</time>
      </trkpt>
      <trkpt lat="45.93813" lon="4.77948">
        <ele>169</ele>
        <time>2018-07-17T08:18:32Z</time>
      </trkpt>
      <trkpt lat="45.93818" lon="4.77953">
        <ele>170</ele>
        <time>2018-07-17T08:18:33Z</time>
      </trkpt>
      <trkpt lat="45.93822" lon="4.77958">
        <ele>170</ele>
        <time>2018-07-17T08:18:34Z</time>
      </trkpt>
      <trkpt lat="45.93826" lon="4.77963">
        <ele>171</ele>
        <time>2018-07-17T08:18:35Z</time>
      </trkpt>
      <trkpt lat="45.9383" lon="4.77968">
        <ele>172</ele>
        <time>2018-07-17T08:18:36Z</time>
      </trkpt>
      <trkpt lat="45.93833" lon="4.77973">
        <ele>172</ele>
        <time>2018-07-17T08:18:37Z</time>
      </trkpt>
      <trkpt lat="45.93837" lon="4.77977">
        <ele>178</ele>
        <time>2018-07-17T08:18:38Z</time>
      </trkpt>
      <trkpt lat="45.93841" lon="4.77983">
        <ele>178</ele>
        <time>2018-07-17T08:18:39Z</time>
      </trkpt>
      <trkpt lat="45.93842" lon="4.77991">
        <ele>179</ele>
        <time>2018-07-17T08:18:40Z</time>
      </trkpt>
      <trkpt lat="45.93844" lon="4.77998">
        <ele>179</ele>
        <time>2018-07-17T08:18:41Z</time>
      </trkpt>
      <trkpt lat="45.93846" lon="4.78005">
        <ele>181</ele>
        <time>2018-07-17T08:18:42Z</time>
      </trkpt>
      <trkpt lat="45.93847" lon="4.78014">
        <ele>182</ele>
        <time>2018-07-17T08:18:43Z</time>
      </trkpt>
      <trkpt lat="45.93849" lon="4.78022">
        <ele>182</ele>
        <time>2018-07-17T08:18:44Z</time>
      </trkpt>
      <trkpt lat="45.93851" lon="4.78029">
        <ele>182</ele>
        <time>2018-07-17T08:18:45Z</time>
      </trkpt>
      <trkpt lat="45.93852" lon="4.78035">
        <ele>183</ele>
        <time>2018-07-17T08:18:46Z</time>
      </trkpt>
      <trkpt lat="45.93851" lon="4.78042">
        <ele>183</ele>
        <time>2018-07-17T08:18:47Z</time>
      </trkpt>
      <trkpt lat="45.93851" lon="4.78048">
        <ele>183</ele>
        <time>2018-07-17T08:18:48Z</time>
      </trkpt>
      <trkpt lat="45.9385" lon="4.78055">
        <ele>183</ele>
        <time>2018-07-17T08:18:49Z</time>
      </trkpt>
      <trkpt lat="45.9385" lon="4.78064">
        <ele>182</ele>
        <time>2018-07-17T08:18:50Z</time>
      </trkpt>
      <trkpt lat="45.93849" lon="4.78072">
        <ele>182</ele>
        <time>2018-07-17T08:18:51Z</time>
      </trkpt>
      <trkpt lat="45.93848" lon="4.78079">
        <ele>182</ele>
        <time>2018-07-17T08:18:52Z</time>
      </trkpt>
      <trkpt lat="45.93846" lon="4.78086">
        <ele>183</ele>
        <time>2018-07-17T08:18:53Z</time>
      </trkpt>
      <trkpt lat="45.93843" lon="4.78093">
        <ele>183</ele>
        <time>2018-07-17T08:18:54Z</time>
      </trkpt>
      <trkpt lat="45.93842" lon="4.78101">
        <ele>183</ele>
        <time>2018-07-17T08:18:55Z</time>
      </trkpt>
      <trkpt lat="45.9384" lon="4.78108">
        <ele>184</ele>
        <time>2018-07-17T08:18:56Z</time>
      </trkpt>
      <trkpt lat="45.93838" lon="4.78114">
        <ele>184</ele>
        <time>2018-07-17T08:18:57Z</time>
      </trkpt>
      <trkpt lat="45.93834" lon="4.78122">
        <ele>184</ele>
        <time>2018-07-17T08:18:58Z</time>
      </trkpt>
      <trkpt lat="45.93832" lon="4.78129">
        <ele>180</ele>
        <time>2018-07-17T08:18:59Z</time>
      </trkpt>
      <trkpt lat="45.9383" lon="4.78138">
        <ele>180</ele>
        <time>2018-07-17T08:19:00Z</time>
      </trkpt>
      <trkpt lat="45.93827" lon="4.78144">
        <ele>180</ele>
        <time>2018-07-17T08:19:01Z</time>
      </trkpt>
      <trkpt lat="45.93824" lon="4.78149">
        <ele>180</ele>
        <time>2018-07-17T08:19:02Z</time>
      </trkpt>
      <trkpt lat="45.93825" lon="4.78158">
        <ele>181</ele>
        <time>2018-07-17T08:19:03Z</time>
      </trkpt>
      <trkpt lat="45.93823" lon="4.78167">
        <ele>182</ele>
        <time>2018-07-17T08:19:04Z</time>
      </trkpt>
      <trkpt lat="45.93822" lon="4.78175">
        <ele>182</ele>
        <time>2018-07-17T08:19:05Z</time>
      </trkpt>
      <trkpt lat="45.93821" lon="4.78183">
        <ele>182</ele>
        <time>2018-07-17T08:19:06Z</time>
      </trkpt>
      <trkpt lat="45.93821" lon="4.78189">
        <ele>182</ele>
        <time>2018-07-17T08:19:07Z</time>
      </trkpt>
      <trkpt lat="45.93818" lon="4.78195">
        <ele>182</ele>
        <time>2018-07-17T08:19:08Z</time>
      </trkpt>
      <trkpt lat="45.93816" lon="4.78202">
        <ele>182</ele>
        <time>2018-07-17T08:19:09Z</time>
      </trkpt>
      <trkpt lat="45.93815" lon="4.78209">
        <ele>182</ele>
        <time>2018-07-17T08:19:10Z</time>
      </trkpt>
      <trkpt lat="45.93812" lon="4.78214">
        <ele>182</ele>
        <time>2018-07-17T08:19:11Z</time>
      </trkpt>
      <trkpt lat="45.93809" lon="4.78223">
        <ele>182</ele>
        <time>2018-07-17T08:19:12Z</time>
      </trkpt>
      <trkpt lat="45.93806" lon="4.78228">
        <ele>182</ele>
        <time>2018-07-17T08:19:13Z</time>
      </trkpt>
      <trkpt lat="45.93804" lon="4.78237">
        <ele>182</ele>
        <time>2018-07-17T08:19:14Z</time>
      </trkpt>
      <trkpt lat="45.93801" lon="4.78244">
        <ele>182</ele>
        <time>2018-07-17T08:19:15Z</time>
      </trkpt>
      <trkpt lat="45.93798" lon="4.78247">
        <ele>182</ele>
        <time>2018-07-17T08:19:16Z</time>
      </trkpt>
      <trkpt lat="45.93795" lon="4.78254">
        <ele>183</ele>
        <time>2018-07-17T08:19:17Z</time>
      </trkpt>
      <trkpt lat="45.93793" lon="4.78262">
        <ele>183</ele>
        <time>2018-07-17T08:19:18Z</time>
      </trkpt>
      <trkpt lat="45.93792" lon="4.78272">
        <ele>183</ele>
        <time>2018-07-17T08:19:19Z</time>
      </trkpt>
      <trkpt lat="45.93788" lon="4.7828">
        <ele>183</ele>
        <time>2018-07-17T08:19:20Z</time>
      </trkpt>
      <trkpt lat="45.93787" lon="4.78288">
        <ele>183</ele>
        <time>2018-07-17T08:19:21Z</time>
      </trkpt>
      <trkpt lat="45.93785" lon="4.78296">
        <ele>183</ele>
        <time>2018-07-17T08:19:22Z</time>
      </trkpt>
      <trkpt lat="45.93783" lon="4.78305">
        <ele>183</ele>
        <time>2018-07-17T08:19:23Z</time>
      </trkpt>
      <trkpt lat="45.9378" lon="4.78313">
        <ele>183</ele>
        <time>2018-07-17T08:19:24Z</time>
      </trkpt>
      <trkpt lat="45.93777" lon="4.78321">
        <ele>183</ele>
        <time>2018-07-17T08:19:25Z</time>
      </trkpt>
      <trkpt lat="45.93775" lon="4.78327">
        <ele>183</ele>
        <time>2018-07-17T08:19:26Z</time>
      </trkpt>
      <trkpt lat="45.93773" lon="4.78335">
        <ele>183</ele>
        <time>2018-07-17T08:19:27Z</time>
      </trkpt>
      <trkpt lat="45.93771" lon="4.78342">
        <ele>183</ele>
        <time>2018-07-17T08:19:28Z</time>
      </trkpt>
      <trkpt lat="45.93769" lon="4.78348">
        <ele>183</ele>
        <time>2018-07-17T08:19:29Z</time>
      </trkpt>
      <trkpt lat="45.93766" lon="4.78357">
        <ele>183</ele>
        <time>2018-07-17T08:19:30Z</time>
      </trkpt>
      <trkpt lat="45.93764" lon="4.78362">
        <ele>183</ele>
        <time>2018-07-17T08:19:31Z</time>
      </trkpt>
      <trkpt lat="45.93762" lon="4.7837">
        <ele>183</ele>
        <time>2018-07-17T08:19:32Z</time>
      </trkpt>
      <trkpt lat="45.9376" lon="4.78377">
        <ele>183</ele>
        <time>2018-07-17T08:19:33Z</time>
      </trkpt>
      <trkpt lat="45.93757" lon="4.78384">
        <ele>183</ele>
        <time>2018-07-17T08:19:34Z</time>
      </trkpt>
      <trkpt lat="45.93757" lon="4.78392">
        <ele>183</ele>
        <time>2018-07-17T08:19:35Z</time>
      </trkpt>
      <trkpt lat="45.93756" lon="4.78397">
        <ele>183</ele>
        <time>2018-07-17T08:19:36Z</time>
      </trkpt>
      <trkpt lat="45.93754" lon="4.78406">
        <ele>182</ele>
        <time>2018-07-17T08:19:37Z</time>
      </trkpt>
      <trkpt lat="45.93752" lon="4.78413">
        <ele>182</ele>
        <time>2018-07-17T08:19:38Z</time>
      </trkpt>
      <trkpt lat="45.9375" lon="4.78421">
        <ele>182</ele>
        <time>2018-07-17T08:19:39Z</time>
      </trkpt>
      <trkpt lat="45.93746" lon="4.78428">
        <ele>180</ele>
        <time>2018-07-17T08:19:40Z</time>
      </trkpt>
      <trkpt lat="45.93745" lon="4.78438">
        <ele>180</ele>
        <time>2018-07-17T08:19:41Z</time>
      </trkpt>
      <trkpt lat="45.93744" lon="4.78446">
        <ele>180</ele>
        <time>2018-07-17T08:19:42Z</time>
      </trkpt>
      <trkpt lat="45.93741" lon="4.78455">
        <ele>180</ele>
        <time>2018-07-17T08:19:43Z</time>
      </trkpt>
      <trkpt lat="45.93739" lon="4.78463">
        <ele>180</ele>
        <time>2018-07-17T08:19:44Z</time>
      </trkpt>
      <trkpt lat="45.93738" lon="4.78473">
        <ele>180</ele>
        <time>2018-07-17T08:19:45Z</time>
      </trkpt>
      <trkpt lat="45.93736" lon="4.78482">
        <ele>180</ele>
        <time>2018-07-17T08:19:46Z</time>
      </trkpt>
      <trkpt lat="45.93733" lon="4.7849">
        <ele>180</ele>
        <time>2018-07-17T08:19:47Z</time>
      </trkpt>
      <trkpt lat="45.93732" lon="4.785">
        <ele>179</ele>
        <time>2018-07-17T08:19:48Z</time>
      </trkpt>
      <trkpt lat="45.9373" lon="4.7851">
        <ele>179</ele>
        <time>2018-07-17T08:19:49Z</time>
      </trkpt>
      <trkpt lat="45.93728" lon="4.78518">
        <ele>179</ele>
        <time>2018-07-17T08:19:50Z</time>
      </trkpt>
      <trkpt lat="45.93725" lon="4.78527">
        <ele>178</ele>
        <time>2018-07-17T08:19:51Z</time>
      </trkpt>
      <trkpt lat="45.93722" lon="4.78536">
        <ele>178</ele>
        <time>2018-07-17T08:19:52Z</time>
      </trkpt>
      <trkpt lat="45.93719" lon="4.78545">
        <ele>178</ele>
        <time>2018-07-17T08:19:53Z</time>
      </trkpt>
      <trkpt lat="45.93717" lon="4.78554">
        <ele>178</ele>
        <time>2018-07-17T08:19:54Z</time>
      </trkpt>
      <trkpt lat="45.93716" lon="4.78564">
        <ele>178</ele>
        <time>2018-07-17T08:19:55Z</time>
      </trkpt>
      <trkpt lat="45.93713" lon="4.78572">
        <ele>178</ele>
        <time>2018-07-17T08:19:56Z</time>
      </trkpt>
      <trkpt lat="45.9371" lon="4.78582">
        <ele>177</ele>
        <time>2018-07-17T08:19:57Z</time>
      </trkpt>
      <trkpt lat="45.93708" lon="4.78591">
        <ele>176</ele>
        <time>2018-07-17T08:19:58Z</time>
      </trkpt>
      <trkpt lat="45.93705" lon="4.786">
        <ele>176</ele>
        <time>2018-07-17T08:19:59Z</time>
      </trkpt>
      <trkpt lat="45.93702" lon="4.78606">
        <ele>176</ele>
        <time>2018-07-17T08:20:00Z</time>
      </trkpt>
      <trkpt lat="45.937" lon="4.78612">
        <ele>176</ele>
        <time>2018-07-17T08:20:01Z</time>
      </trkpt>
      <trkpt lat="45.93698" lon="4.78618">
        <ele>176</ele>
        <time>2018-07-17T08:20:02Z</time>
      </trkpt>
      <trkpt lat="45.937" lon="4.78626">
        <ele>176</ele>
        <time>2018-07-17T08:20:03Z</time>
      </trkpt>
      <trkpt lat="45.93704" lon="4.78628">
        <ele>176</ele>
        <time>2018-07-17T08:20:04Z</time>
      </trkpt>
      <trkpt lat="45.93711" lon="4.78631">
        <ele>176</ele>
        <time>2018-07-17T08:20:06Z</time>
      </trkpt>
      <trkpt lat="45.93716" lon="4.7863">
        <ele>176</ele>
        <time>2018-07-17T08:20:07Z</time>
      </trkpt>
      <trkpt lat="45.93721" lon="4.78627">
        <ele>177</ele>
        <time>2018-07-17T08:20:08Z</time>
      </trkpt>
      <trkpt lat="45.93725" lon="4.78625">
        <ele>177</ele>
        <time>2018-07-17T08:20:09Z</time>
      </trkpt>
      <trkpt lat="45.93732" lon="4.78625">
        <ele>177</ele>
        <time>2018-07-17T08:20:11Z</time>
      </trkpt>
      <trkpt lat="45.93735" lon="4.78624">
        <ele>177</ele>
        <time>2018-07-17T08:20:12Z</time>
      </trkpt>
      <trkpt lat="45.9374" lon="4.78623">
        <ele>177</ele>
        <time>2018-07-17T08:20:13Z</time>
      </trkpt>
      <trkpt lat="45.93745" lon="4.78621">
        <ele>177</ele>
        <time>2018-07-17T08:20:14Z</time>
      </trkpt>
      <trkpt lat="45.93753" lon="4.7862">
        <ele>181</ele>
        <time>2018-07-17T08:20:16Z</time>
      </trkpt>
      <trkpt lat="45.93757" lon="4.78619">
        <ele>181</ele>
        <time>2018-07-17T08:20:17Z</time>
      </trkpt>
      <trkpt lat="45.93765" lon="4.78617">
        <ele>181</ele>
        <time>2018-07-17T08:20:19Z</time>
      </trkpt>
      <trkpt lat="45.93767" lon="4.78617">
        <ele>181</ele>
        <time>2018-07-17T08:20:20Z</time>
      </trkpt>
      <trkpt lat="45.93772" lon="4.78616">
        <ele>181</ele>
        <time>2018-07-17T08:20:23Z</time>
      </trkpt>
      <trkpt lat="45.93781" lon="4.78615">
        <ele>181</ele>
        <time>2018-07-17T08:20:24Z</time>
      </trkpt>
      <trkpt lat="45.93788" lon="4.78612">
        <ele>182</ele>
        <time>2018-07-17T08:20:26Z</time>
      </trkpt>
      <trkpt lat="45.93792" lon="4.78611">
        <ele>182</ele>
        <time>2018-07-17T08:20:27Z</time>
      </trkpt>
      <trkpt lat="45.93799" lon="4.78608">
        <ele>182</ele>
        <time>2018-07-17T08:20:29Z</time>
      </trkpt>
      <trkpt lat="45.93801" lon="4.78607">
        <ele>182</ele>
        <time>2018-07-17T08:20:30Z</time>
      </trkpt>
      <trkpt lat="45.93806" lon="4.78606">
        <ele>183</ele>
        <time>2018-07-17T08:20:32Z</time>
      </trkpt>
      <trkpt lat="45.93813" lon="4.78605">
        <ele>183</ele>
        <time>2018-07-17T08:20:33Z</time>
      </trkpt>
      <trkpt lat="45.93821" lon="4.78603">
        <ele>184</ele>
        <time>2018-07-17T08:20:35Z</time>
      </trkpt>
      <trkpt lat="45.93824" lon="4.78602">
        <ele>184</ele>
        <time>2018-07-17T08:20:36Z</time>
      </trkpt>
      <trkpt lat="45.93831" lon="4.78599">
        <ele>185</ele>
        <time>2018-07-17T08:20:39Z</time>
      </trkpt>
      <trkpt lat="45.93833" lon="4.78598">
        <ele>185</ele>
        <time>2018-07-17T08:20:40Z</time>
      </trkpt>
      <trkpt lat="45.93838" lon="4.78597">
        <ele>187</ele>
        <time>2018-07-17T08:20:42Z</time>
      </trkpt>
      <trkpt lat="45.93846" lon="4.78596">
        <ele>188</ele>
        <time>2018-07-17T08:20:43Z</time>
      </trkpt>
      <trkpt lat="45.93855" lon="4.78599">
        <ele>188</ele>
        <time>2018-07-17T08:20:47Z</time>
      </trkpt>
      <trkpt lat="45.93857" lon="4.786">
        <ele>188</ele>
        <time>2018-07-17T08:20:48Z</time>
      </trkpt>
      <trkpt lat="45.93865" lon="4.78602">
        <ele>188</ele>
        <time>2018-07-17T08:20:51Z</time>
      </trkpt>
      <trkpt lat="45.93868" lon="4.78602">
        <ele>188</ele>
        <time>2018-07-17T08:20:52Z</time>
      </trkpt>
      <trkpt lat="45.93874" lon="4.78603">
        <ele>189</ele>
        <time>2018-07-17T08:20:54Z</time>
      </trkpt>
      <trkpt lat="45.93877" lon="4.78602">
        <ele>189</ele>
        <time>2018-07-17T08:20:55Z</time>
      </trkpt>
      <trkpt lat="45.93884" lon="4.786">
        <ele>189</ele>
        <time>2018-07-17T08:20:57Z</time>
      </trkpt>
      <trkpt lat="45.93887" lon="4.78599">
        <ele>189</ele>
        <time>2018-07-17T08:20:58Z</time>
      </trkpt>
      <trkpt lat="45.93894" lon="4.78597">
        <ele>190</ele>
        <time>2018-07-17T08:21:01Z</time>
      </trkpt>
      <trkpt lat="45.93896" lon="4.78596">
        <ele>190</ele>
        <time>2018-07-17T08:21:02Z</time>
      </trkpt>
      <trkpt lat="45.93904" lon="4.78592">
        <ele>191</ele>
        <time>2018-07-17T08:21:05Z</time>
      </trkpt>
      <trkpt lat="45.93907" lon="4.7859">
        <ele>191</ele>
        <time>2018-07-17T08:21:06Z</time>
      </trkpt>
      <trkpt lat="45.93914" lon="4.78586">
        <ele>192</ele>
        <time>2018-07-17T08:21:09Z</time>
      </trkpt>
      <trkpt lat="45.93916" lon="4.78584">
        <ele>193</ele>
        <time>2018-07-17T08:21:10Z</time>
      </trkpt>
      <trkpt lat="45.93922" lon="4.7858">
        <ele>194</ele>
        <time>2018-07-17T08:21:12Z</time>
      </trkpt>
      <trkpt lat="45.93925" lon="4.78578">
        <ele>195</ele>
        <time>2018-07-17T08:21:13Z</time>
      </trkpt>
      <trkpt lat="45.93931" lon="4.78574">
        <ele>196</ele>
        <time>2018-07-17T08:21:16Z</time>
      </trkpt>
      <trkpt lat="45.93933" lon="4.78573">
        <ele>196</ele>
        <time>2018-07-17T08:21:17Z</time>
      </trkpt>
      <trkpt lat="45.93939" lon="4.78578">
        <ele>196</ele>
        <time>2018-07-17T08:21:21Z</time>
      </trkpt>
      <trkpt lat="45.93942" lon="4.78589">
        <ele>196</ele>
        <time>2018-07-17T08:21:22Z</time>
      </trkpt>
      <trkpt lat="45.93941" lon="4.78601">
        <ele>196</ele>
        <time>2018-07-17T08:21:24Z</time>
      </trkpt>
      <trkpt lat="45.93939" lon="4.78608">
        <ele>196</ele>
        <time>2018-07-17T08:21:25Z</time>
      </trkpt>
      <trkpt lat="45.93938" lon="4.7862">
        <ele>196</ele>
        <time>2018-07-17T08:21:27Z</time>
      </trkpt>
      <trkpt lat="45.93938" lon="4.78625">
        <ele>196</ele>
        <time>2018-07-17T08:21:28Z</time>
      </trkpt>
      <trkpt lat="45.9394" lon="4.78637">
        <ele>195</ele>
        <time>2018-07-17T08:21:30Z</time>
      </trkpt>
      <trkpt lat="45.9394" lon="4.78643">
        <ele>195</ele>
        <time>2018-07-17T08:21:31Z</time>
      </trkpt>
      <trkpt lat="45.93939" lon="4.78654">
        <ele>194</ele>
        <time>2018-07-17T08:21:33Z</time>
      </trkpt>
      <trkpt lat="45.93939" lon="4.7866">
        <ele>194</ele>
        <time>2018-07-17T08:21:34Z</time>
      </trkpt>
      <trkpt lat="45.9394" lon="4.78667">
        <ele>193</ele>
        <time>2018-07-17T08:21:35Z</time>
      </trkpt>
      <trkpt lat="45.9394" lon="4.78673">
        <ele>193</ele>
        <time>2018-07-17T08:21:36Z</time>
      </trkpt>
      <trkpt lat="45.93939" lon="4.78685">
        <ele>194</ele>
        <time>2018-07-17T08:21:38Z</time>
      </trkpt>
      <trkpt lat="45.93939" lon="4.7869">
        <ele>194</ele>
        <time>2018-07-17T08:21:39Z</time>
      </trkpt>
      <trkpt lat="45.93939" lon="4.78702">
        <ele>194</ele>
        <time>2018-07-17T08:21:41Z</time>
      </trkpt>
      <trkpt lat="45.93938" lon="4.78708">
        <ele>194</ele>
        <time>2018-07-17T08:21:42Z</time>
      </trkpt>
      <trkpt lat="45.93937" lon="4.7872">
        <ele>194</ele>
        <time>2018-07-17T08:21:44Z</time>
      </trkpt>
      <trkpt lat="45.93939" lon="4.78727">
        <ele>194</ele>
        <time>2018-07-17T08:21:45Z</time>
      </trkpt>
      <trkpt lat="45.93938" lon="4.78734">
        <ele>194</ele>
        <time>2018-07-17T08:21:46Z</time>
      </trkpt>
      <trkpt lat="45.93938" lon="4.78741">
        <ele>193</ele>
        <time>2018-07-17T08:21:47Z</time>
      </trkpt>
      <trkpt lat="45.93939" lon="4.78747">
        <ele>193</ele>
        <time>2018-07-17T08:21:48Z</time>
      </trkpt>
      <trkpt lat="45.93939" lon="4.78754">
        <ele>193</ele>
        <time>2018-07-17T08:21:49Z</time>
      </trkpt>
      <trkpt lat="45.93941" lon="4.7876">
        <ele>194</ele>
        <time>2018-07-17T08:21:50Z</time>
      </trkpt>
      <trkpt lat="45.9394" lon="4.78768">
        <ele>194</ele>
        <time>2018-07-17T08:21:51Z</time>
      </trkpt>
      <trkpt lat="45.93939" lon="4.78775">
        <ele>194</ele>
        <time>2018-07-17T08:21:52Z</time>
      </trkpt>
      <trkpt lat="45.93941" lon="4.78784">
        <ele>194</ele>
        <time>2018-07-17T08:21:53Z</time>
      </trkpt>
      <trkpt lat="45.93939" lon="4.78792">
        <ele>194</ele>
        <time>2018-07-17T08:21:54Z</time>
      </trkpt>
      <trkpt lat="45.93937" lon="4.78798">
        <ele>194</ele>
        <time>2018-07-17T08:21:55Z</time>
      </trkpt>
      <trkpt lat="45.93939" lon="4.78805">
        <ele>194</ele>
        <time>2018-07-17T08:21:56Z</time>
      </trkpt>
      <trkpt lat="45.93938" lon="4.78814">
        <ele>194</ele>
        <time>2018-07-17T08:21:57Z</time>
      </trkpt>
      <trkpt lat="45.9394" lon="4.78821">
        <ele>194</ele>
        <time>2018-07-17T08:21:58Z</time>
      </trkpt>
      <trkpt lat="45.93941" lon="4.78829">
        <ele>194</ele>
        <time>2018-07-17T08:21:59Z</time>
      </trkpt>
      <trkpt lat="45.9394" lon="4.78835">
        <ele>193</ele>
        <time>2018-07-17T08:22:00Z</time>
      </trkpt>
      <trkpt lat="45.93939" lon="4.78843">
        <ele>193</ele>
        <time>2018-07-17T08:22:01Z</time>
      </trkpt>
      <trkpt lat="45.9394" lon="4.78855">
        <ele>194</ele>
        <time>2018-07-17T08:22:03Z</time>
      </trkpt>
      <trkpt lat="45.93941" lon="4.78862">
        <ele>194</ele>
        <time>2018-07-17T08:22:04Z</time>
      </trkpt>
      <trkpt lat="45.93942" lon="4.78871">
        <ele>194</ele>
        <time>2018-07-17T08:22:05Z</time>
      </trkpt>
      <trkpt lat="45.9394" lon="4.78877">
        <ele>194</ele>
        <time>2018-07-17T08:22:06Z</time>
      </trkpt>
      <trkpt lat="45.93941" lon="4.78885">
        <ele>194</ele>
        <time>2018-07-17T08:22:07Z</time>
      </trkpt>
      <trkpt lat="45.93941" lon="4.78891">
        <ele>193</ele>
        <time>2018-07-17T08:22:08Z</time>
      </trkpt>
      <trkpt lat="45.93942" lon="4.789">
        <ele>193</ele>
        <time>2018-07-17T08:22:09Z</time>
      </trkpt>
      <trkpt lat="45.93941" lon="4.78908">
        <ele>193</ele>
        <time>2018-07-17T08:22:10Z</time>
      </trkpt>
      <trkpt lat="45.93943" lon="4.78916">
        <ele>193</ele>
        <time>2018-07-17T08:22:11Z</time>
      </trkpt>
      <trkpt lat="45.93944" lon="4.78923">
        <ele>193</ele>
        <time>2018-07-17T08:22:12Z</time>
      </trkpt>
      <trkpt lat="45.93944" lon="4.78931">
        <ele>194</ele>
        <time>2018-07-17T08:22:13Z</time>
      </trkpt>
      <trkpt lat="45.93944" lon="4.78938">
        <ele>194</ele>
        <time>2018-07-17T08:22:14Z</time>
      </trkpt>
      <trkpt lat="45.93945" lon="4.78944">
        <ele>194</ele>
        <time>2018-07-17T08:22:15Z</time>
      </trkpt>
      <trkpt lat="45.93945" lon="4.78951">
        <ele>194</ele>
        <time>2018-07-17T08:22:16Z</time>
      </trkpt>
      <trkpt lat="45.93946" lon="4.78962">
        <ele>194</ele>
        <time>2018-07-17T08:22:18Z</time>
      </trkpt>
      <trkpt lat="45.93946" lon="4.78969">
        <ele>194</ele>
        <time>2018-07-17T08:22:19Z</time>
      </trkpt>
      <trkpt lat="45.93947" lon="4.78981">
        <ele>194</ele>
        <time>2018-07-17T08:22:21Z</time>
      </trkpt>
      <trkpt lat="45.93946" lon="4.78989">
        <ele>194</ele>
        <time>2018-07-17T08:22:22Z</time>
      </trkpt>
      <trkpt lat="45.93945" lon="4.78996">
        <ele>194</ele>
        <time>2018-07-17T08:22:23Z</time>
      </trkpt>
      <trkpt lat="45.93946" lon="4.79002">
        <ele>195</ele>
        <time>2018-07-17T08:22:24Z</time>
      </trkpt>
      <trkpt lat="45.93947" lon="4.79007">
        <ele>195</ele>
        <time>2018-07-17T08:22:25Z</time>
      </trkpt>
      <trkpt lat="45.93947" lon="4.79015">
        <ele>195</ele>
        <time>2018-07-17T08:22:26Z</time>
      </trkpt>
      <trkpt lat="45.93948" lon="4.79023">
        <ele>195</ele>
        <time>2018-07-17T08:22:27Z</time>
      </trkpt>
      <trkpt lat="45.93947" lon="4.7903">
        <ele>195</ele>
        <time>2018-07-17T08:22:28Z</time>
      </trkpt>
      <trkpt lat="45.9395" lon="4.79037">
        <ele>196</ele>
        <time>2018-07-17T08:22:29Z</time>
      </trkpt>
      <trkpt lat="45.9395" lon="4.79043">
        <ele>196</ele>
        <time>2018-07-17T08:22:30Z</time>
      </trkpt>
      <trkpt lat="45.93951" lon="4.7905">
        <ele>196</ele>
        <time>2018-07-17T08:22:31Z</time>
      </trkpt>
      <trkpt lat="45.93948" lon="4.79056">
        <ele>196</ele>
        <time>2018-07-17T08:22:32Z</time>
      </trkpt>
      <trkpt lat="45.93947" lon="4.79065">
        <ele>196</ele>
        <time>2018-07-17T08:22:33Z</time>
      </trkpt>
      <trkpt lat="45.93948" lon="4.79072">
        <ele>196</ele>
        <time>2018-07-17T08:22:34Z</time>
      </trkpt>
      <trkpt lat="45.93949" lon="4.79079">
        <ele>196</ele>
        <time>2018-07-17T08:22:35Z</time>
      </trkpt>
      <trkpt lat="45.93948" lon="4.79085">
        <ele>196</ele>
        <time>2018-07-17T08:22:36Z</time>
      </trkpt>
      <trkpt lat="45.93951" lon="4.79096">
        <ele>197</ele>
        <time>2018-07-17T08:22:38Z</time>
      </trkpt>
      <trkpt lat="45.93952" lon="4.79102">
        <ele>197</ele>
        <time>2018-07-17T08:22:39Z</time>
      </trkpt>
      <trkpt lat="45.93951" lon="4.79108">
        <ele>197</ele>
        <time>2018-07-17T08:22:40Z</time>
      </trkpt>
      <trkpt lat="45.9395" lon="4.79116">
        <ele>197</ele>
        <time>2018-07-17T08:22:41Z</time>
      </trkpt>
      <trkpt lat="45.93949" lon="4.79128">
        <ele>197</ele>
        <time>2018-07-17T08:22:43Z</time>
      </trkpt>
      <trkpt lat="45.9395" lon="4.79134">
        <ele>197</ele>
        <time>2018-07-17T08:22:44Z</time>
      </trkpt>
      <trkpt lat="45.93954" lon="4.79145">
        <ele>197</ele>
        <time>2018-07-17T08:22:46Z</time>
      </trkpt>
      <trkpt lat="45.93954" lon="4.79152">
        <ele>197</ele>
        <time>2018-07-17T08:22:47Z</time>
      </trkpt>
      <trkpt lat="45.93956" lon="4.79163">
        <ele>197</ele>
        <time>2018-07-17T08:22:49Z</time>
      </trkpt>
      <trkpt lat="45.93956" lon="4.79168">
        <ele>197</ele>
        <time>2018-07-17T08:22:50Z</time>
      </trkpt>
      <trkpt lat="45.93955" lon="4.7918">
        <ele>197</ele>
        <time>2018-07-17T08:22:52Z</time>
      </trkpt>
      <trkpt lat="45.93954" lon="4.79186">
        <ele>197</ele>
        <time>2018-07-17T08:22:53Z</time>
      </trkpt>
      <trkpt lat="45.93954" lon="4.79192">
        <ele>197</ele>
        <time>2018-07-17T08:22:54Z</time>
      </trkpt>
      <trkpt lat="45.93953" lon="4.79199">
        <ele>197</ele>
        <time>2018-07-17T08:22:55Z</time>
      </trkpt>
      <trkpt lat="45.93953" lon="4.79211">
        <ele>197</ele>
        <time>2018-07-17T08:22:57Z</time>
      </trkpt>
      <trkpt lat="45.93953" lon="4.79217">
        <ele>197</ele>
        <time>2018-07-17T08:22:58Z</time>
      </trkpt>
      <trkpt lat="45.93954" lon="4.79229">
        <ele>197</ele>
        <time>2018-07-17T08:23:00Z</time>
      </trkpt>
      <trkpt lat="45.93954" lon="4.79235">
        <ele>197</ele>
        <time>2018-07-17T08:23:01Z</time>
      </trkpt>
      <trkpt lat="45.93952" lon="4.79247">
        <ele>197</ele>
        <time>2018-07-17T08:23:03Z</time>
      </trkpt>
      <trkpt lat="45.93952" lon="4.79254">
        <ele>198</ele>
        <time>2018-07-17T08:23:04Z</time>
      </trkpt>
      <trkpt lat="45.93952" lon="4.79266">
        <ele>198</ele>
        <time>2018-07-17T08:23:06Z</time>
      </trkpt>
      <trkpt lat="45.93953" lon="4.79272">
        <ele>198</ele>
        <time>2018-07-17T08:23:07Z</time>
      </trkpt>
      <trkpt lat="45.93953" lon="4.79285">
        <ele>198</ele>
        <time>2018-07-17T08:23:09Z</time>
      </trkpt>
      <trkpt lat="45.93954" lon="4.79291">
        <ele>198</ele>
        <time>2018-07-17T08:23:10Z</time>
      </trkpt>
      <trkpt lat="45.93954" lon="4.79303">
        <ele>199</ele>
        <time>2018-07-17T08:23:12Z</time>
      </trkpt>
      <trkpt lat="45.93954" lon="4.7931">
        <ele>199</ele>
        <time>2018-07-17T08:23:13Z</time>
      </trkpt>
      <trkpt lat="45.93956" lon="4.79322">
        <ele>199</ele>
        <time>2018-07-17T08:23:15Z</time>
      </trkpt>
      <trkpt lat="45.93956" lon="4.79328">
        <ele>199</ele>
        <time>2018-07-17T08:23:16Z</time>
      </trkpt>
      <trkpt lat="45.93958" lon="4.79341">
        <ele>201</ele>
        <time>2018-07-17T08:23:18Z</time>
      </trkpt>
      <trkpt lat="45.93957" lon="4.79347">
        <ele>201</ele>
        <time>2018-07-17T08:23:19Z</time>
      </trkpt>
      <trkpt lat="45.93956" lon="4.79357">
        <ele>201</ele>
        <time>2018-07-17T08:23:21Z</time>
      </trkpt>
      <trkpt lat="45.93955" lon="4.79363">
        <ele>201</ele>
        <time>2018-07-17T08:23:22Z</time>
      </trkpt>
      <trkpt lat="45.93955" lon="4.79371">
        <ele>201</ele>
        <time>2018-07-17T08:23:23Z</time>
      </trkpt>
      <trkpt lat="45.93956" lon="4.79376">
        <ele>201</ele>
        <time>2018-07-17T08:23:24Z</time>
      </trkpt>
      <trkpt lat="45.93956" lon="4.79389">
        <ele>201</ele>
        <time>2018-07-17T08:23:26Z</time>
      </trkpt>
      <trkpt lat="45.93957" lon="4.79395">
        <ele>201</ele>
        <time>2018-07-17T08:23:27Z</time>
      </trkpt>
      <trkpt lat="45.93956" lon="4.79407">
        <ele>201</ele>
        <time>2018-07-17T08:23:29Z</time>
      </trkpt>
      <trkpt lat="45.93955" lon="4.79413">
        <ele>201</ele>
        <time>2018-07-17T08:23:30Z</time>
      </trkpt>
      <trkpt lat="45.93954" lon="4.79425">
        <ele>202</ele>
        <time>2018-07-17T08:23:32Z</time>
      </trkpt>
      <trkpt lat="45.93954" lon="4.7943">
        <ele>202</ele>
        <time>2018-07-17T08:23:33Z</time>
      </trkpt>
      <trkpt lat="45.93954" lon="4.79435">
        <ele>202</ele>
        <time>2018-07-17T08:23:35Z</time>
      </trkpt>
      <trkpt lat="45.93954" lon="4.79446">
        <ele>203</ele>
        <time>2018-07-17T08:23:36Z</time>
      </trkpt>
      <trkpt lat="45.93953" lon="4.79459">
        <ele>203</ele>
        <time>2018-07-17T08:23:38Z</time>
      </trkpt>
      <trkpt lat="45.93954" lon="4.79466">
        <ele>203</ele>
        <time>2018-07-17T08:23:39Z</time>
      </trkpt>
      <trkpt lat="45.93955" lon="4.79479">
        <ele>203</ele>
        <time>2018-07-17T08:23:41Z</time>
      </trkpt>
      <trkpt lat="45.93956" lon="4.79485">
        <ele>203</ele>
        <time>2018-07-17T08:23:42Z</time>
      </trkpt>
      <trkpt lat="45.93955" lon="4.79497">
        <ele>203</ele>
        <time>2018-07-17T08:23:44Z</time>
      </trkpt>
      <trkpt lat="45.93954" lon="4.79502">
        <ele>204</ele>
        <time>2018-07-17T08:23:45Z</time>
      </trkpt>
      <trkpt lat="45.93955" lon="4.79514">
        <ele>204</ele>
        <time>2018-07-17T08:23:47Z</time>
      </trkpt>
      <trkpt lat="45.93955" lon="4.79519">
        <ele>204</ele>
        <time>2018-07-17T08:23:48Z</time>
      </trkpt>
      <trkpt lat="45.93955" lon="4.7953">
        <ele>204</ele>
        <time>2018-07-17T08:23:50Z</time>
      </trkpt>
      <trkpt lat="45.93955" lon="4.79536">
        <ele>205</ele>
        <time>2018-07-17T08:23:51Z</time>
      </trkpt>
      <trkpt lat="45.93955" lon="4.79548">
        <ele>205</ele>
        <time>2018-07-17T08:23:53Z</time>
      </trkpt>
      <trkpt lat="45.93956" lon="4.79553">
        <ele>205</ele>
        <time>2018-07-17T08:23:54Z</time>
      </trkpt>
      <trkpt lat="45.93958" lon="4.79564">
        <ele>205</ele>
        <time>2018-07-17T08:23:56Z</time>
      </trkpt>
      <trkpt lat="45.93958" lon="4.79566">
        <ele>205</ele>
        <time>2018-07-17T08:23:57Z</time>
      </trkpt>
      <trkpt lat="45.93961" lon="4.79578">
        <ele>206</ele>
        <time>2018-07-17T08:23:59Z</time>
      </trkpt>
      <trkpt lat="45.93962" lon="4.79581">
        <ele>206</ele>
        <time>2018-07-17T08:24:00Z</time>
      </trkpt>
      <trkpt lat="45.93963" lon="4.79589">
        <ele>207</ele>
        <time>2018-07-17T08:24:01Z</time>
      </trkpt>
      <trkpt lat="45.93963" lon="4.79594">
        <ele>207</ele>
        <time>2018-07-17T08:24:02Z</time>
      </trkpt>
      <trkpt lat="45.93963" lon="4.79606">
        <ele>207</ele>
        <time>2018-07-17T08:24:04Z</time>
      </trkpt>
      <trkpt lat="45.93964" lon="4.79612">
        <ele>207</ele>
        <time>2018-07-17T08:24:05Z</time>
      </trkpt>
      <trkpt lat="45.93964" lon="4.79624">
        <ele>207</ele>
        <time>2018-07-17T08:24:07Z</time>
      </trkpt>
      <trkpt lat="45.93964" lon="4.79631">
        <ele>207</ele>
        <time>2018-07-17T08:24:08Z</time>
      </trkpt>
      <trkpt lat="45.93965" lon="4.79643">
        <ele>207</ele>
        <time>2018-07-17T08:24:10Z</time>
      </trkpt>
      <trkpt lat="45.93966" lon="4.79649">
        <ele>207</ele>
        <time>2018-07-17T08:24:11Z</time>
      </trkpt>
      <trkpt lat="45.93964" lon="4.79656">
        <ele>207</ele>
        <time>2018-07-17T08:24:12Z</time>
      </trkpt>
      <trkpt lat="45.93964" lon="4.79664">
        <ele>207</ele>
        <time>2018-07-17T08:24:13Z</time>
      </trkpt>
      <trkpt lat="45.93966" lon="4.79671">
        <ele>207</ele>
        <time>2018-07-17T08:24:14Z</time>
      </trkpt>
      <trkpt lat="45.93967" lon="4.79679">
        <ele>207</ele>
        <time>2018-07-17T08:24:15Z</time>
      </trkpt>
      <trkpt lat="45.93968" lon="4.79691">
        <ele>207</ele>
        <time>2018-07-17T08:24:17Z</time>
      </trkpt>
      <trkpt lat="45.93969" lon="4.79694">
        <ele>207</ele>
        <time>2018-07-17T08:24:18Z</time>
      </trkpt>
      <trkpt lat="45.93968" lon="4.79703">
        <ele>207</ele>
        <time>2018-07-17T08:24:19Z</time>
      </trkpt>
      <trkpt lat="45.93969" lon="4.79709">
        <ele>207</ele>
        <time>2018-07-17T08:24:20Z</time>
      </trkpt>
      <trkpt lat="45.93969" lon="4.79722">
        <ele>207</ele>
        <time>2018-07-17T08:24:22Z</time>
      </trkpt>
      <trkpt lat="45.9397" lon="4.79729">
        <ele>207</ele>
        <time>2018-07-17T08:24:23Z</time>
      </trkpt>
      <trkpt lat="45.93972" lon="4.79742">
        <ele>207</ele>
        <time>2018-07-17T08:24:25Z</time>
      </trkpt>
      <trkpt lat="45.93974" lon="4.79748">
        <ele>207</ele>
        <time>2018-07-17T08:24:26Z</time>
      </trkpt>
      <trkpt lat="45.93975" lon="4.79756">
        <ele>207</ele>
        <time>2018-07-17T08:24:27Z</time>
      </trkpt>
      <trkpt lat="45.93975" lon="4.79762">
        <ele>207</ele>
        <time>2018-07-17T08:24:28Z</time>
      </trkpt>
      <trkpt lat="45.93975" lon="4.79769">
        <ele>206</ele>
        <time>2018-07-17T08:24:29Z</time>
      </trkpt>
      <trkpt lat="45.93975" lon="4.79776">
        <ele>206</ele>
        <time>2018-07-17T08:24:30Z</time>
      </trkpt>
      <trkpt lat="45.93976" lon="4.79783">
        <ele>206</ele>
        <time>2018-07-17T08:24:31Z</time>
      </trkpt>
      <trkpt lat="45.93974" lon="4.79788">
        <ele>206</ele>
        <time>2018-07-17T08:24:32Z</time>
      </trkpt>
      <trkpt lat="45.93974" lon="4.79795">
        <ele>206</ele>
        <time>2018-07-17T08:24:33Z</time>
      </trkpt>
      <trkpt lat="45.93973" lon="4.79802">
        <ele>207</ele>
        <time>2018-07-17T08:24:34Z</time>
      </trkpt>
      <trkpt lat="45.93971" lon="4.79809">
        <ele>207</ele>
        <time>2018-07-17T08:24:35Z</time>
      </trkpt>
      <trkpt lat="45.93972" lon="4.79816">
        <ele>207</ele>
        <time>2018-07-17T08:24:36Z</time>
      </trkpt>
      <trkpt lat="45.9397" lon="4.79824">
        <ele>207</ele>
        <time>2018-07-17T08:24:37Z</time>
      </trkpt>
      <trkpt lat="45.93971" lon="4.79832">
        <ele>207</ele>
        <time>2018-07-17T08:24:38Z</time>
      </trkpt>
      <trkpt lat="45.93971" lon="4.7984">
        <ele>207</ele>
        <time>2018-07-17T08:24:39Z</time>
      </trkpt>
      <trkpt lat="45.9397" lon="4.79847">
        <ele>206</ele>
        <time>2018-07-17T08:24:40Z</time>
      </trkpt>
      <trkpt lat="45.93968" lon="4.79854">
        <ele>206</ele>
        <time>2018-07-17T08:24:41Z</time>
      </trkpt>
      <trkpt lat="45.93967" lon="4.79861">
        <ele>206</ele>
        <time>2018-07-17T08:24:42Z</time>
      </trkpt>
      <trkpt lat="45.93965" lon="4.79867">
        <ele>206</ele>
        <time>2018-07-17T08:24:43Z</time>
      </trkpt>
      <trkpt lat="45.93963" lon="4.79874">
        <ele>206</ele>
        <time>2018-07-17T08:24:44Z</time>
      </trkpt>
      <trkpt lat="45.93962" lon="4.79881">
        <ele>206</ele>
        <time>2018-07-17T08:24:45Z</time>
      </trkpt>
      <trkpt lat="45.93961" lon="4.79887">
        <ele>206</ele>
        <time>2018-07-17T08:24:46Z</time>
      </trkpt>
      <trkpt lat="45.93956" lon="4.79893">
        <ele>205</ele>
        <time>2018-07-17T08:24:47Z</time>
      </trkpt>
      <trkpt lat="45.93956" lon="4.799">
        <ele>205</ele>
        <time>2018-07-17T08:24:48Z</time>
      </trkpt>
      <trkpt lat="45.93955" lon="4.79912">
        <ele>205</ele>
        <time>2018-07-17T08:24:50Z</time>
      </trkpt>
      <trkpt lat="45.93955" lon="4.79917">
        <ele>205</ele>
        <time>2018-07-17T08:24:51Z</time>
      </trkpt>
      <trkpt lat="45.93952" lon="4.79927">
        <ele>205</ele>
        <time>2018-07-17T08:24:53Z</time>
      </trkpt>
      <trkpt lat="45.93952" lon="4.79934">
        <ele>205</ele>
        <time>2018-07-17T08:24:54Z</time>
      </trkpt>
      <trkpt lat="45.93947" lon="4.79942">
        <ele>205</ele>
        <time>2018-07-17T08:24:56Z</time>
      </trkpt>
      <trkpt lat="45.93946" lon="4.79948">
        <ele>205</ele>
        <time>2018-07-17T08:24:57Z</time>
      </trkpt>
      <trkpt lat="45.93945" lon="4.79961">
        <ele>205</ele>
        <time>2018-07-17T08:24:59Z</time>
      </trkpt>
      <trkpt lat="45.93943" lon="4.79967">
        <ele>205</ele>
        <time>2018-07-17T08:25:00Z</time>
      </trkpt>
      <trkpt lat="45.93941" lon="4.79978">
        <ele>204</ele>
        <time>2018-07-17T08:25:02Z</time>
      </trkpt>
      <trkpt lat="45.93939" lon="4.79987">
        <ele>204</ele>
        <time>2018-07-17T08:25:03Z</time>
      </trkpt>
      <trkpt lat="45.93939" lon="4.79994">
        <ele>204</ele>
        <time>2018-07-17T08:25:04Z</time>
      </trkpt>
      <trkpt lat="45.93939" lon="4.80001">
        <ele>205</ele>
        <time>2018-07-17T08:25:05Z</time>
      </trkpt>
      <trkpt lat="45.93939" lon="4.8001">
        <ele>206</ele>
        <time>2018-07-17T08:25:06Z</time>
      </trkpt>
      <trkpt lat="45.93937" lon="4.80017">
        <ele>206</ele>
        <time>2018-07-17T08:25:07Z</time>
      </trkpt>
      <trkpt lat="45.93937" lon="4.80023">
        <ele>206</ele>
        <time>2018-07-17T08:25:08Z</time>
      </trkpt>
      <trkpt lat="45.93937" lon="4.8003">
        <ele>207</ele>
        <time>2018-07-17T08:25:09Z</time>
      </trkpt>
      <trkpt lat="45.93937" lon="4.80037">
        <ele>207</ele>
        <time>2018-07-17T08:25:10Z</time>
      </trkpt>
      <trkpt lat="45.93936" lon="4.80044">
        <ele>207</ele>
        <time>2018-07-17T08:25:11Z</time>
      </trkpt>
      <trkpt lat="45.93937" lon="4.80051">
        <ele>207</ele>
        <time>2018-07-17T08:25:12Z</time>
      </trkpt>
      <trkpt lat="45.93936" lon="4.80059">
        <ele>207</ele>
        <time>2018-07-17T08:25:13Z</time>
      </trkpt>
      <trkpt lat="45.93938" lon="4.80067">
        <ele>207</ele>
        <time>2018-07-17T08:25:14Z</time>
      </trkpt>
      <trkpt lat="45.93938" lon="4.80074">
        <ele>207</ele>
        <time>2018-07-17T08:25:15Z</time>
      </trkpt>
      <trkpt lat="45.93938" lon="4.80083">
        <ele>207</ele>
        <time>2018-07-17T08:25:16Z</time>
      </trkpt>
      <trkpt lat="45.93938" lon="4.8009">
        <ele>208</ele>
        <time>2018-07-17T08:25:17Z</time>
      </trkpt>
      <trkpt lat="45.93938" lon="4.80101">
        <ele>208</ele>
        <time>2018-07-17T08:25:18Z</time>
      </trkpt>
      <trkpt lat="45.9394" lon="4.80109">
        <ele>208</ele>
        <time>2018-07-17T08:25:19Z</time>
      </trkpt>
      <trkpt lat="45.93942" lon="4.80118">
        <ele>209</ele>
        <time>2018-07-17T08:25:20Z</time>
      </trkpt>
      <trkpt lat="45.93942" lon="4.80126">
        <ele>209</ele>
        <time>2018-07-17T08:25:21Z</time>
      </trkpt>
      <trkpt lat="45.93943" lon="4.80134">
        <ele>208</ele>
        <time>2018-07-17T08:25:22Z</time>
      </trkpt>
      <trkpt lat="45.93944" lon="4.80142">
        <ele>208</ele>
        <time>2018-07-17T08:25:23Z</time>
      </trkpt>
      <trkpt lat="45.93947" lon="4.8015">
        <ele>208</ele>
        <time>2018-07-17T08:25:24Z</time>
      </trkpt>
      <trkpt lat="45.93948" lon="4.80158">
        <ele>208</ele>
        <time>2018-07-17T08:25:25Z</time>
      </trkpt>
      <trkpt lat="45.93948" lon="4.80167">
        <ele>206</ele>
        <time>2018-07-17T08:25:26Z</time>
      </trkpt>
      <trkpt lat="45.9395" lon="4.80176">
        <ele>206</ele>
        <time>2018-07-17T08:25:27Z</time>
      </trkpt>
      <trkpt lat="45.9395" lon="4.80184">
        <ele>206</ele>
        <time>2018-07-17T08:25:28Z</time>
      </trkpt>
      <trkpt lat="45.93952" lon="4.80193">
        <ele>206</ele>
        <time>2018-07-17T08:25:29Z</time>
      </trkpt>
      <trkpt lat="45.93952" lon="4.80201">
        <ele>205</ele>
        <time>2018-07-17T08:25:30Z</time>
      </trkpt>
      <trkpt lat="45.93954" lon="4.8021">
        <ele>205</ele>
        <time>2018-07-17T08:25:31Z</time>
      </trkpt>
      <trkpt lat="45.93957" lon="4.8022">
        <ele>205</ele>
        <time>2018-07-17T08:25:32Z</time>
      </trkpt>
      <trkpt lat="45.9396" lon="4.80228">
        <ele>205</ele>
        <time>2018-07-17T08:25:33Z</time>
      </trkpt>
      <trkpt lat="45.93962" lon="4.80237">
        <ele>204</ele>
        <time>2018-07-17T08:25:34Z</time>
      </trkpt>
      <trkpt lat="45.93963" lon="4.80246">
        <ele>204</ele>
        <time>2018-07-17T08:25:35Z</time>
      </trkpt>
      <trkpt lat="45.93967" lon="4.80253">
        <ele>202</ele>
        <time>2018-07-17T08:25:36Z</time>
      </trkpt>
      <trkpt lat="45.93969" lon="4.80262">
        <ele>202</ele>
        <time>2018-07-17T08:25:37Z</time>
      </trkpt>
      <trkpt lat="45.93972" lon="4.8027">
        <ele>202</ele>
        <time>2018-07-17T08:25:38Z</time>
      </trkpt>
      <trkpt lat="45.93977" lon="4.80277">
        <ele>203</ele>
        <time>2018-07-17T08:25:39Z</time>
      </trkpt>
      <trkpt lat="45.93981" lon="4.80285">
        <ele>203</ele>
        <time>2018-07-17T08:25:40Z</time>
      </trkpt>
      <trkpt lat="45.93982" lon="4.80293">
        <ele>203</ele>
        <time>2018-07-17T08:25:41Z</time>
      </trkpt>
      <trkpt lat="45.93984" lon="4.80301">
        <ele>203</ele>
        <time>2018-07-17T08:25:42Z</time>
      </trkpt>
      <trkpt lat="45.93986" lon="4.80308">
        <ele>203</ele>
        <time>2018-07-17T08:25:43Z</time>
      </trkpt>
      <trkpt lat="45.93986" lon="4.80315">
        <ele>204</ele>
        <time>2018-07-17T08:25:44Z</time>
      </trkpt>
      <trkpt lat="45.93988" lon="4.80322">
        <ele>204</ele>
        <time>2018-07-17T08:25:45Z</time>
      </trkpt>
      <trkpt lat="45.9399" lon="4.80329">
        <ele>204</ele>
        <time>2018-07-17T08:25:46Z</time>
      </trkpt>
      <trkpt lat="45.93991" lon="4.80336">
        <ele>206</ele>
        <time>2018-07-17T08:25:47Z</time>
      </trkpt>
      <trkpt lat="45.93994" lon="4.80343">
        <ele>206</ele>
        <time>2018-07-17T08:25:48Z</time>
      </trkpt>
      <trkpt lat="45.93995" lon="4.80348">
        <ele>206</ele>
        <time>2018-07-17T08:25:49Z</time>
      </trkpt>
      <trkpt lat="45.93999" lon="4.80359">
        <ele>207</ele>
        <time>2018-07-17T08:25:51Z</time>
      </trkpt>
      <trkpt lat="45.94" lon="4.80362">
        <ele>214</ele>
        <time>2018-07-17T08:25:52Z</time>
      </trkpt>
      <trkpt lat="45.94004" lon="4.80373">
        <ele>216</ele>
        <time>2018-07-17T08:25:54Z</time>
      </trkpt>
      <trkpt lat="45.94005" lon="4.80375">
        <ele>216</ele>
        <time>2018-07-17T08:25:55Z</time>
      </trkpt>
      <trkpt lat="45.94007" lon="4.80384">
        <ele>217</ele>
        <time>2018-07-17T08:25:58Z</time>
      </trkpt>
      <trkpt lat="45.94008" lon="4.80388">
        <ele>217</ele>
        <time>2018-07-17T08:25:59Z</time>
      </trkpt>
      <trkpt lat="45.94009" lon="4.80392">
        <ele>217</ele>
        <time>2018-07-17T08:26:00Z</time>
      </trkpt>
      <trkpt lat="45.94013" lon="4.80403">
        <ele>217</ele>
        <time>2018-07-17T08:26:01Z</time>
      </trkpt>
      <trkpt lat="45.94016" lon="4.80415">
        <ele>218</ele>
        <time>2018-07-17T08:26:05Z</time>
      </trkpt>
      <trkpt lat="45.94017" lon="4.80419">
        <ele>221</ele>
        <time>2018-07-17T08:26:06Z</time>
      </trkpt>
      <trkpt lat="45.9402" lon="4.80431">
        <ele>222</ele>
        <time>2018-07-17T08:26:09Z</time>
      </trkpt>
      <trkpt lat="45.9402" lon="4.80435">
        <ele>222</ele>
        <time>2018-07-17T08:26:10Z</time>
      </trkpt>
      <trkpt lat="45.94021" lon="4.80444">
        <ele>223</ele>
        <time>2018-07-17T08:26:12Z</time>
      </trkpt>
      <trkpt lat="45.94021" lon="4.80448">
        <ele>223</ele>
        <time>2018-07-17T08:26:13Z</time>
      </trkpt>
      <trkpt lat="45.94022" lon="4.80458">
        <ele>223</ele>
        <time>2018-07-17T08:26:15Z</time>
      </trkpt>
      <trkpt lat="45.94022" lon="4.80463">
        <ele>223</ele>
        <time>2018-07-17T08:26:16Z</time>
      </trkpt>
      <trkpt lat="45.94023" lon="4.80473">
        <ele>223</ele>
        <time>2018-07-17T08:26:18Z</time>
      </trkpt>
      <trkpt lat="45.94023" lon="4.80478">
        <ele>223</ele>
        <time>2018-07-17T08:26:19Z</time>
      </trkpt>
      <trkpt lat="45.94023" lon="4.80487">
        <ele>223</ele>
        <time>2018-07-17T08:26:21Z</time>
      </trkpt>
      <trkpt lat="45.94023" lon="4.80491">
        <ele>223</ele>
        <time>2018-07-17T08:26:22Z</time>
      </trkpt>
      <trkpt lat="45.94022" lon="4.80503">
        <ele>224</ele>
        <time>2018-07-17T08:26:25Z</time>
      </trkpt>
      <trkpt lat="45.94022" lon="4.80507">
        <ele>224</ele>
        <time>2018-07-17T08:26:26Z</time>
      </trkpt>
      <trkpt lat="45.94021" lon="4.80516">
        <ele>224</ele>
        <time>2018-07-17T08:26:28Z</time>
      </trkpt>
      <trkpt lat="45.9402" lon="4.8052">
        <ele>224</ele>
        <time>2018-07-17T08:26:29Z</time>
      </trkpt>
      <trkpt lat="45.94019" lon="4.80533">
        <ele>225</ele>
        <time>2018-07-17T08:26:32Z</time>
      </trkpt>
      <trkpt lat="45.94019" lon="4.80537">
        <ele>225</ele>
        <time>2018-07-17T08:26:33Z</time>
      </trkpt>
      <trkpt lat="45.94018" lon="4.80546">
        <ele>225</ele>
        <time>2018-07-17T08:26:35Z</time>
      </trkpt>
      <trkpt lat="45.94017" lon="4.8056">
        <ele>224</ele>
        <time>2018-07-17T08:26:36Z</time>
      </trkpt>
      <trkpt lat="45.94016" lon="4.80566">
        <ele>223</ele>
        <time>2018-07-17T08:26:38Z</time>
      </trkpt>
      <trkpt lat="45.94016" lon="4.80575">
        <ele>222</ele>
        <time>2018-07-17T08:26:39Z</time>
      </trkpt>
      <trkpt lat="45.94016" lon="4.80587">
        <ele>222</ele>
        <time>2018-07-17T08:26:43Z</time>
      </trkpt>
      <trkpt lat="45.94017" lon="4.8059">
        <ele>222</ele>
        <time>2018-07-17T08:26:44Z</time>
      </trkpt>
      <trkpt lat="45.94017" lon="4.80594">
        <ele>223</ele>
        <time>2018-07-17T08:26:45Z</time>
      </trkpt>
      <trkpt lat="45.94019" lon="4.80606">
        <ele>224</ele>
        <time>2018-07-17T08:26:46Z</time>
      </trkpt>
      <trkpt lat="45.9402" lon="4.80617">
        <ele>224</ele>
        <time>2018-07-17T08:26:48Z</time>
      </trkpt>
      <trkpt lat="45.9402" lon="4.80625">
        <ele>224</ele>
        <time>2018-07-17T08:26:49Z</time>
      </trkpt>
      <trkpt lat="45.94024" lon="4.80634">
        <ele>224</ele>
        <time>2018-07-17T08:26:54Z</time>
      </trkpt>
      <trkpt lat="45.94025" lon="4.80637">
        <ele>224</ele>
        <time>2018-07-17T08:26:55Z</time>
      </trkpt>
      <trkpt lat="45.94025" lon="4.80648">
        <ele>224</ele>
        <time>2018-07-17T08:26:58Z</time>
      </trkpt>
      <trkpt lat="45.94025" lon="4.80652">
        <ele>224</ele>
        <time>2018-07-17T08:26:59Z</time>
      </trkpt>
      <trkpt lat="45.94025" lon="4.80663">
        <ele>223</ele>
        <time>2018-07-17T08:27:02Z</time>
      </trkpt>
      <trkpt lat="45.94025" lon="4.80667">
        <ele>223</ele>
        <time>2018-07-17T08:27:03Z</time>
      </trkpt>
      <trkpt lat="45.94026" lon="4.80679">
        <ele>224</ele>
        <time>2018-07-17T08:27:06Z</time>
      </trkpt>
      <trkpt lat="45.94027" lon="4.80684">
        <ele>224</ele>
        <time>2018-07-17T08:27:07Z</time>
      </trkpt>
      <trkpt lat="45.94028" lon="4.80693">
        <ele>225</ele>
        <time>2018-07-17T08:27:09Z</time>
      </trkpt>
      <trkpt lat="45.94029" lon="4.80697">
        <ele>225</ele>
        <time>2018-07-17T08:27:10Z</time>
      </trkpt>
      <trkpt lat="45.94031" lon="4.80706">
        <ele>225</ele>
        <time>2018-07-17T08:27:12Z</time>
      </trkpt>
      <trkpt lat="45.94032" lon="4.80711">
        <ele>226</ele>
        <time>2018-07-17T08:27:13Z</time>
      </trkpt>
      <trkpt lat="45.94035" lon="4.80723">
        <ele>226</ele>
        <time>2018-07-17T08:27:16Z</time>
      </trkpt>
      <trkpt lat="45.94036" lon="4.80727">
        <ele>226</ele>
        <time>2018-07-17T08:27:17Z</time>
      </trkpt>
      <trkpt lat="45.94039" lon="4.80741">
        <ele>227</ele>
        <time>2018-07-17T08:27:18Z</time>
      </trkpt>
      <trkpt lat="45.94041" lon="4.80752">
        <ele>228</ele>
        <time>2018-07-17T08:27:22Z</time>
      </trkpt>
      <trkpt lat="45.94041" lon="4.80756">
        <ele>228</ele>
        <time>2018-07-17T08:27:23Z</time>
      </trkpt>
      <trkpt lat="45.94042" lon="4.80767">
        <ele>228</ele>
        <time>2018-07-17T08:27:26Z</time>
      </trkpt>
      <trkpt lat="45.94042" lon="4.80771">
        <ele>228</ele>
        <time>2018-07-17T08:27:27Z</time>
      </trkpt>
      <trkpt lat="45.94043" lon="4.80783">
        <ele>228</ele>
        <time>2018-07-17T08:27:30Z</time>
      </trkpt>
      <trkpt lat="45.94044" lon="4.80787">
        <ele>228</ele>
        <time>2018-07-17T08:27:31Z</time>
      </trkpt>
      <trkpt lat="45.94044" lon="4.80796">
        <ele>228</ele>
        <time>2018-07-17T08:27:33Z</time>
      </trkpt>
      <trkpt lat="45.94045" lon="4.80801">
        <ele>228</ele>
        <time>2018-07-17T08:27:34Z</time>
      </trkpt>
      <trkpt lat="45.94045" lon="4.8081">
        <ele>229</ele>
        <time>2018-07-17T08:27:36Z</time>
      </trkpt>
      <trkpt lat="45.94046" lon="4.80814">
        <ele>229</ele>
        <time>2018-07-17T08:27:37Z</time>
      </trkpt>
      <trkpt lat="45.94047" lon="4.80826">
        <ele>229</ele>
        <time>2018-07-17T08:27:40Z</time>
      </trkpt>
      <trkpt lat="45.94048" lon="4.8083">
        <ele>229</ele>
        <time>2018-07-17T08:27:41Z</time>
      </trkpt>
      <trkpt lat="45.94048" lon="4.80843">
        <ele>230</ele>
        <time>2018-07-17T08:27:44Z</time>
      </trkpt>
      <trkpt lat="45.94047" lon="4.80847">
        <ele>230</ele>
        <time>2018-07-17T08:27:45Z</time>
      </trkpt>
      <trkpt lat="45.94048" lon="4.80859">
        <ele>229</ele>
        <time>2018-07-17T08:27:48Z</time>
      </trkpt>
      <trkpt lat="45.94049" lon="4.80863">
        <ele>230</ele>
        <time>2018-07-17T08:27:49Z</time>
      </trkpt>
      <trkpt lat="45.94051" lon="4.80874">
        <ele>230</ele>
        <time>2018-07-17T08:27:52Z</time>
      </trkpt>
      <trkpt lat="45.94051" lon="4.80878">
        <ele>230</ele>
        <time>2018-07-17T08:27:53Z</time>
      </trkpt>
      <trkpt lat="45.94053" lon="4.80891">
        <ele>230</ele>
        <time>2018-07-17T08:27:56Z</time>
      </trkpt>
      <trkpt lat="45.94054" lon="4.80895">
        <ele>230</ele>
        <time>2018-07-17T08:27:57Z</time>
      </trkpt>
      <trkpt lat="45.94055" lon="4.80907">
        <ele>231</ele>
        <time>2018-07-17T08:28:00Z</time>
      </trkpt>
      <trkpt lat="45.94056" lon="4.80911">
        <ele>231</ele>
        <time>2018-07-17T08:28:01Z</time>
      </trkpt>
      <trkpt lat="45.94058" lon="4.80923">
        <ele>232</ele>
        <time>2018-07-17T08:28:04Z</time>
      </trkpt>
      <trkpt lat="45.94058" lon="4.80927">
        <ele>232</ele>
        <time>2018-07-17T08:28:05Z</time>
      </trkpt>
      <trkpt lat="45.94059" lon="4.80939">
        <ele>232</ele>
        <time>2018-07-17T08:28:08Z</time>
      </trkpt>
      <trkpt lat="45.9406" lon="4.80943">
        <ele>232</ele>
        <time>2018-07-17T08:28:09Z</time>
      </trkpt>
      <trkpt lat="45.94061" lon="4.80955">
        <ele>232</ele>
        <time>2018-07-17T08:28:12Z</time>
      </trkpt>
      <trkpt lat="45.94062" lon="4.80958">
        <ele>232</ele>
        <time>2018-07-17T08:28:13Z</time>
      </trkpt>
      <trkpt lat="45.94064" lon="4.80969">
        <ele>232</ele>
        <time>2018-07-17T08:28:16Z</time>
      </trkpt>
      <trkpt lat="45.94065" lon="4.80973">
        <ele>233</ele>
        <time>2018-07-17T08:28:17Z</time>
      </trkpt>
      <trkpt lat="45.94068" lon="4.80985">
        <ele>234</ele>
        <time>2018-07-17T08:28:20Z</time>
      </trkpt>
      <trkpt lat="45.94068" lon="4.80989">
        <ele>234</ele>
        <time>2018-07-17T08:28:21Z</time>
      </trkpt>
      <trkpt lat="45.9407" lon="4.81001">
        <ele>236</ele>
        <time>2018-07-17T08:28:24Z</time>
      </trkpt>
      <trkpt lat="45.94071" lon="4.81005">
        <ele>236</ele>
        <time>2018-07-17T08:28:25Z</time>
      </trkpt>
      <trkpt lat="45.94074" lon="4.81017">
        <ele>235</ele>
        <time>2018-07-17T08:28:28Z</time>
      </trkpt>
      <trkpt lat="45.94074" lon="4.81021">
        <ele>234</ele>
        <time>2018-07-17T08:28:29Z</time>
      </trkpt>
      <trkpt lat="45.94077" lon="4.81033">
        <ele>234</ele>
        <time>2018-07-17T08:28:32Z</time>
      </trkpt>
      <trkpt lat="45.94078" lon="4.81037">
        <ele>234</ele>
        <time>2018-07-17T08:28:33Z</time>
      </trkpt>
      <trkpt lat="45.94082" lon="4.81047">
        <ele>233</ele>
        <time>2018-07-17T08:28:36Z</time>
      </trkpt>
      <trkpt lat="45.94084" lon="4.81053">
        <ele>243</ele>
        <time>2018-07-17T08:28:37Z</time>
      </trkpt>
      <trkpt lat="45.94089" lon="4.81064">
        <ele>242</ele>
        <time>2018-07-17T08:28:40Z</time>
      </trkpt>
      <trkpt lat="45.9409" lon="4.81067">
        <ele>242</ele>
        <time>2018-07-17T08:28:41Z</time>
      </trkpt>
      <trkpt lat="45.94093" lon="4.81078">
        <ele>240</ele>
        <time>2018-07-17T08:28:44Z</time>
      </trkpt>
      <trkpt lat="45.94095" lon="4.81081">
        <ele>241</ele>
        <time>2018-07-17T08:28:45Z</time>
      </trkpt>
      <trkpt lat="45.94099" lon="4.81091">
        <ele>240</ele>
        <time>2018-07-17T08:28:48Z</time>
      </trkpt>
      <trkpt lat="45.94101" lon="4.81094">
        <ele>241</ele>
        <time>2018-07-17T08:28:49Z</time>
      </trkpt>
      <trkpt lat="45.94106" lon="4.81103">
        <ele>242</ele>
        <time>2018-07-17T08:28:52Z</time>
      </trkpt>
      <trkpt lat="45.94108" lon="4.81107">
        <ele>242</ele>
        <time>2018-07-17T08:28:53Z</time>
      </trkpt>
      <trkpt lat="45.94112" lon="4.81114">
        <ele>242</ele>
        <time>2018-07-17T08:28:55Z</time>
      </trkpt>
      <trkpt lat="45.94114" lon="4.81117">
        <ele>242</ele>
        <time>2018-07-17T08:28:56Z</time>
      </trkpt>
      <trkpt lat="45.94119" lon="4.81127">
        <ele>243</ele>
        <time>2018-07-17T08:28:59Z</time>
      </trkpt>
      <trkpt lat="45.94121" lon="4.8113">
        <ele>243</ele>
        <time>2018-07-17T08:29:00Z</time>
      </trkpt>
      <trkpt lat="45.94127" lon="4.81139">
        <ele>243</ele>
        <time>2018-07-17T08:29:03Z</time>
      </trkpt>
      <trkpt lat="45.94128" lon="4.81142">
        <ele>243</ele>
        <time>2018-07-17T08:29:04Z</time>
      </trkpt>
      <trkpt lat="45.94133" lon="4.81152">
        <ele>244</ele>
        <time>2018-07-17T08:29:07Z</time>
      </trkpt>
      <trkpt lat="45.94134" lon="4.81155">
        <ele>244</ele>
        <time>2018-07-17T08:29:08Z</time>
      </trkpt>
      <trkpt lat="45.94137" lon="4.81167">
        <ele>244</ele>
        <time>2018-07-17T08:29:11Z</time>
      </trkpt>
      <trkpt lat="45.94138" lon="4.8117">
        <ele>244</ele>
        <time>2018-07-17T08:29:12Z</time>
      </trkpt>
      <trkpt lat="45.9414" lon="4.81178">
        <ele>244</ele>
        <time>2018-07-17T08:29:14Z</time>
      </trkpt>
      <trkpt lat="45.94144" lon="4.8119">
        <ele>244</ele>
        <time>2018-07-17T08:29:15Z</time>
      </trkpt>
      <trkpt lat="45.94147" lon="4.81198">
        <ele>244</ele>
        <time>2018-07-17T08:29:19Z</time>
      </trkpt>
      <trkpt lat="45.94148" lon="4.81201">
        <ele>244</ele>
        <time>2018-07-17T08:29:20Z</time>
      </trkpt>
      <trkpt lat="45.94152" lon="4.81211">
        <ele>244</ele>
        <time>2018-07-17T08:29:24Z</time>
      </trkpt>
      <trkpt lat="45.94153" lon="4.81214">
        <ele>245</ele>
        <time>2018-07-17T08:29:25Z</time>
      </trkpt>
      <trkpt lat="45.94155" lon="4.81224">
        <ele>245</ele>
        <time>2018-07-17T08:29:29Z</time>
      </trkpt>
      <trkpt lat="45.94155" lon="4.81227">
        <ele>245</ele>
        <time>2018-07-17T08:29:30Z</time>
      </trkpt>
      <trkpt lat="45.94157" lon="4.81238">
        <ele>247</ele>
        <time>2018-07-17T08:29:34Z</time>
      </trkpt>
      <trkpt lat="45.94157" lon="4.8124">
        <ele>247</ele>
        <time>2018-07-17T08:29:35Z</time>
      </trkpt>
      <trkpt lat="45.94159" lon="4.8125">
        <ele>248</ele>
        <time>2018-07-17T08:29:38Z</time>
      </trkpt>
      <trkpt lat="45.9416" lon="4.81253">
        <ele>249</ele>
        <time>2018-07-17T08:29:39Z</time>
      </trkpt>
      <trkpt lat="45.94162" lon="4.81264">
        <ele>248</ele>
        <time>2018-07-17T08:29:42Z</time>
      </trkpt>
      <trkpt lat="45.94163" lon="4.81267">
        <ele>248</ele>
        <time>2018-07-17T08:29:43Z</time>
      </trkpt>
      <trkpt lat="45.94163" lon="4.81278">
        <ele>247</ele>
        <time>2018-07-17T08:29:46Z</time>
      </trkpt>
      <trkpt lat="45.94164" lon="4.81282">
        <ele>247</ele>
        <time>2018-07-17T08:29:47Z</time>
      </trkpt>
      <trkpt lat="45.94165" lon="4.81293">
        <ele>247</ele>
        <time>2018-07-17T08:29:51Z</time>
      </trkpt>
      <trkpt lat="45.94165" lon="4.81295">
        <ele>247</ele>
        <time>2018-07-17T08:29:52Z</time>
      </trkpt>
      <trkpt lat="45.94167" lon="4.81307">
        <ele>255</ele>
        <time>2018-07-17T08:29:56Z</time>
      </trkpt>
      <trkpt lat="45.94167" lon="4.81311">
        <ele>255</ele>
        <time>2018-07-17T08:29:57Z</time>
      </trkpt>
      <trkpt lat="45.94166" lon="4.81321">
        <ele>249</ele>
        <time>2018-07-17T08:30:00Z</time>
      </trkpt>
      <trkpt lat="45.94166" lon="4.81324">
        <ele>250</ele>
        <time>2018-07-17T08:30:01Z</time>
      </trkpt>
      <trkpt lat="45.94163" lon="4.81336">
        <ele>252</ele>
        <time>2018-07-17T08:30:05Z</time>
      </trkpt>
      <trkpt lat="45.94163" lon="4.81339">
        <ele>251</ele>
        <time>2018-07-17T08:30:06Z</time>
      </trkpt>
      <trkpt lat="45.94162" lon="4.81351">
        <ele>251</ele>
        <time>2018-07-17T08:30:09Z</time>
      </trkpt>
      <trkpt lat="45.94162" lon="4.81355">
        <ele>251</ele>
        <time>2018-07-17T08:30:10Z</time>
      </trkpt>
      <trkpt lat="45.94162" lon="4.81367">
        <ele>251</ele>
        <time>2018-07-17T08:30:13Z</time>
      </trkpt>
      <trkpt lat="45.94161" lon="4.8137">
        <ele>251</ele>
        <time>2018-07-17T08:30:14Z</time>
      </trkpt>
      <trkpt lat="45.94161" lon="4.81381">
        <ele>251</ele>
        <time>2018-07-17T08:30:17Z</time>
      </trkpt>
      <trkpt lat="45.94161" lon="4.81385">
        <ele>251</ele>
        <time>2018-07-17T08:30:18Z</time>
      </trkpt>
      <trkpt lat="45.9416" lon="4.81396">
        <ele>252</ele>
        <time>2018-07-17T08:30:21Z</time>
      </trkpt>
      <trkpt lat="45.9416" lon="4.814">
        <ele>253</ele>
        <time>2018-07-17T08:30:22Z</time>
      </trkpt>
      <trkpt lat="45.94159" lon="4.81414">
        <ele>254</ele>
        <time>2018-07-17T08:30:23Z</time>
      </trkpt>
      <trkpt lat="45.94157" lon="4.81425">
        <ele>256</ele>
        <time>2018-07-17T08:30:25Z</time>
      </trkpt>
      <trkpt lat="45.94156" lon="4.81427">
        <ele>256</ele>
        <time>2018-07-17T08:30:26Z</time>
      </trkpt>
      <trkpt lat="45.94156" lon="4.81436">
        <ele>256</ele>
        <time>2018-07-17T08:30:29Z</time>
      </trkpt>
      <trkpt lat="45.94155" lon="4.8144">
        <ele>256</ele>
        <time>2018-07-17T08:30:30Z</time>
      </trkpt>
      <trkpt lat="45.94155" lon="4.8145">
        <ele>257</ele>
        <time>2018-07-17T08:30:33Z</time>
      </trkpt>
      <trkpt lat="45.94155" lon="4.81453">
        <ele>257</ele>
        <time>2018-07-17T08:30:34Z</time>
      </trkpt>
      <trkpt lat="45.94153" lon="4.81465">
        <ele>257</ele>
        <time>2018-07-17T08:30:38Z</time>
      </trkpt>
      <trkpt lat="45.94152" lon="4.81468">
        <ele>258</ele>
        <time>2018-07-17T08:30:39Z</time>
      </trkpt>
      <trkpt lat="45.9415" lon="4.81479">
        <ele>258</ele>
        <time>2018-07-17T08:30:42Z</time>
      </trkpt>
      <trkpt lat="45.9415" lon="4.81483">
        <ele>259</ele>
        <time>2018-07-17T08:30:43Z</time>
      </trkpt>
      <trkpt lat="45.9415" lon="4.81492">
        <ele>259</ele>
        <time>2018-07-17T08:30:45Z</time>
      </trkpt>
      <trkpt lat="45.9415" lon="4.81496">
        <ele>260</ele>
        <time>2018-07-17T08:30:46Z</time>
      </trkpt>
      <trkpt lat="45.94151" lon="4.81509">
        <ele>263</ele>
        <time>2018-07-17T08:30:49Z</time>
      </trkpt>
      <trkpt lat="45.94151" lon="4.81512">
        <ele>263</ele>
        <time>2018-07-17T08:30:50Z</time>
      </trkpt>
      <trkpt lat="45.9415" lon="4.81523">
        <ele>263</ele>
        <time>2018-07-17T08:30:53Z</time>
      </trkpt>
      <trkpt lat="45.9415" lon="4.81526">
        <ele>263</ele>
        <time>2018-07-17T08:30:54Z</time>
      </trkpt>
      <trkpt lat="45.94149" lon="4.81537">
        <ele>264</ele>
        <time>2018-07-17T08:30:57Z</time>
      </trkpt>
      <trkpt lat="45.94149" lon="4.81541">
        <ele>264</ele>
        <time>2018-07-17T08:30:58Z</time>
      </trkpt>
      <trkpt lat="45.94151" lon="4.8155">
        <ele>264</ele>
        <time>2018-07-17T08:31:00Z</time>
      </trkpt>
      <trkpt lat="45.94151" lon="4.81554">
        <ele>264</ele>
        <time>2018-07-17T08:31:01Z</time>
      </trkpt>
      <trkpt lat="45.94153" lon="4.81563">
        <ele>265</ele>
        <time>2018-07-17T08:31:03Z</time>
      </trkpt>
      <trkpt lat="45.94153" lon="4.81567">
        <ele>265</ele>
        <time>2018-07-17T08:31:04Z</time>
      </trkpt>
      <trkpt lat="45.94154" lon="4.81577">
        <ele>266</ele>
        <time>2018-07-17T08:31:06Z</time>
      </trkpt>
      <trkpt lat="45.94155" lon="4.81581">
        <ele>266</ele>
        <time>2018-07-17T08:31:07Z</time>
      </trkpt>
      <trkpt lat="45.94156" lon="4.8159">
        <ele>267</ele>
        <time>2018-07-17T08:31:09Z</time>
      </trkpt>
      <trkpt lat="45.94157" lon="4.81595">
        <ele>267</ele>
        <time>2018-07-17T08:31:10Z</time>
      </trkpt>
      <trkpt lat="45.94159" lon="4.81604">
        <ele>267</ele>
        <time>2018-07-17T08:31:12Z</time>
      </trkpt>
      <trkpt lat="45.9416" lon="4.81609">
        <ele>267</ele>
        <time>2018-07-17T08:31:13Z</time>
      </trkpt>
      <trkpt lat="45.94161" lon="4.8162">
        <ele>268</ele>
        <time>2018-07-17T08:31:15Z</time>
      </trkpt>
      <trkpt lat="45.94162" lon="4.81625">
        <ele>268</ele>
        <time>2018-07-17T08:31:16Z</time>
      </trkpt>
      <trkpt lat="45.94164" lon="4.81633">
        <ele>268</ele>
        <time>2018-07-17T08:31:18Z</time>
      </trkpt>
      <trkpt lat="45.94165" lon="4.81638">
        <ele>268</ele>
        <time>2018-07-17T08:31:19Z</time>
      </trkpt>
      <trkpt lat="45.94167" lon="4.81646">
        <ele>268</ele>
        <time>2018-07-17T08:31:21Z</time>
      </trkpt>
      <trkpt lat="45.94168" lon="4.8165">
        <ele>268</ele>
        <time>2018-07-17T08:31:22Z</time>
      </trkpt>
      <trkpt lat="45.9417" lon="4.81659">
        <ele>268</ele>
        <time>2018-07-17T08:31:24Z</time>
      </trkpt>
      <trkpt lat="45.94171" lon="4.81663">
        <ele>269</ele>
        <time>2018-07-17T08:31:25Z</time>
      </trkpt>
      <trkpt lat="45.94172" lon="4.81672">
        <ele>268</ele>
        <time>2018-07-17T08:31:27Z</time>
      </trkpt>
      <trkpt lat="45.94173" lon="4.81676">
        <ele>268</ele>
        <time>2018-07-17T08:31:28Z</time>
      </trkpt>
      <trkpt lat="45.94175" lon="4.81688">
        <ele>267</ele>
        <time>2018-07-17T08:31:31Z</time>
      </trkpt>
      <trkpt lat="45.94176" lon="4.81692">
        <ele>267</ele>
        <time>2018-07-17T08:31:32Z</time>
      </trkpt>
      <trkpt lat="45.94179" lon="4.81701">
        <ele>267</ele>
        <time>2018-07-17T08:31:34Z</time>
      </trkpt>
      <trkpt lat="45.9418" lon="4.81705">
        <ele>267</ele>
        <time>2018-07-17T08:31:35Z</time>
      </trkpt>
      <trkpt lat="45.94183" lon="4.81719">
        <ele>267</ele>
        <time>2018-07-17T08:31:36Z</time>
      </trkpt>
      <trkpt lat="45.94183" lon="4.81728">
        <ele>267</ele>
        <time>2018-07-17T08:31:38Z</time>
      </trkpt>
      <trkpt lat="45.94183" lon="4.81733">
        <ele>267</ele>
        <time>2018-07-17T08:31:39Z</time>
      </trkpt>
      <trkpt lat="45.94184" lon="4.81742">
        <ele>267</ele>
        <time>2018-07-17T08:31:41Z</time>
      </trkpt>
      <trkpt lat="45.94186" lon="4.81749">
        <ele>267</ele>
        <time>2018-07-17T08:31:42Z</time>
      </trkpt>
      <trkpt lat="45.9419" lon="4.81758">
        <ele>266</ele>
        <time>2018-07-17T08:31:44Z</time>
      </trkpt>
      <trkpt lat="45.94193" lon="4.81763">
        <ele>266</ele>
        <time>2018-07-17T08:31:45Z</time>
      </trkpt>
      <trkpt lat="45.94196" lon="4.81772">
        <ele>266</ele>
        <time>2018-07-17T08:31:47Z</time>
      </trkpt>
      <trkpt lat="45.94197" lon="4.81777">
        <ele>266</ele>
        <time>2018-07-17T08:31:48Z</time>
      </trkpt>
      <trkpt lat="45.94198" lon="4.81783">
        <ele>266</ele>
        <time>2018-07-17T08:31:50Z</time>
      </trkpt>
      <trkpt lat="45.94199" lon="4.81792">
        <ele>266</ele>
        <time>2018-07-17T08:31:51Z</time>
      </trkpt>
      <trkpt lat="45.94199" lon="4.81803">
        <ele>266</ele>
        <time>2018-07-17T08:31:53Z</time>
      </trkpt>
      <trkpt lat="45.94199" lon="4.81808">
        <ele>266</ele>
        <time>2018-07-17T08:31:54Z</time>
      </trkpt>
      <trkpt lat="45.942" lon="4.81819">
        <ele>266</ele>
        <time>2018-07-17T08:31:56Z</time>
      </trkpt>
      <trkpt lat="45.94201" lon="4.81824">
        <ele>266</ele>
        <time>2018-07-17T08:31:57Z</time>
      </trkpt>
      <trkpt lat="45.94203" lon="4.81833">
        <ele>266</ele>
        <time>2018-07-17T08:32:00Z</time>
      </trkpt>
      <trkpt lat="45.94206" lon="4.81842">
        <ele>266</ele>
        <time>2018-07-17T08:32:01Z</time>
      </trkpt>
      <trkpt lat="45.94209" lon="4.81852">
        <ele>265</ele>
        <time>2018-07-17T08:32:03Z</time>
      </trkpt>
      <trkpt lat="45.9421" lon="4.81857">
        <ele>265</ele>
        <time>2018-07-17T08:32:04Z</time>
      </trkpt>
      <trkpt lat="45.94209" lon="4.81864">
        <ele>265</ele>
        <time>2018-07-17T08:32:05Z</time>
      </trkpt>
      <trkpt lat="45.9421" lon="4.81871">
        <ele>265</ele>
        <time>2018-07-17T08:32:06Z</time>
      </trkpt>
      <trkpt lat="45.94211" lon="4.81877">
        <ele>265</ele>
        <time>2018-07-17T08:32:07Z</time>
      </trkpt>
      <trkpt lat="45.94212" lon="4.81885">
        <ele>265</ele>
        <time>2018-07-17T08:32:08Z</time>
      </trkpt>
      <trkpt lat="45.94213" lon="4.81892">
        <ele>265</ele>
        <time>2018-07-17T08:32:09Z</time>
      </trkpt>
      <trkpt lat="45.94215" lon="4.81899">
        <ele>265</ele>
        <time>2018-07-17T08:32:10Z</time>
      </trkpt>
      <trkpt lat="45.94217" lon="4.81906">
        <ele>265</ele>
        <time>2018-07-17T08:32:11Z</time>
      </trkpt>
      <trkpt lat="45.94219" lon="4.81913">
        <ele>264</ele>
        <time>2018-07-17T08:32:12Z</time>
      </trkpt>
      <trkpt lat="45.9422" lon="4.81921">
        <ele>264</ele>
        <time>2018-07-17T08:32:13Z</time>
      </trkpt>
      <trkpt lat="45.94221" lon="4.81928">
        <ele>264</ele>
        <time>2018-07-17T08:32:14Z</time>
      </trkpt>
      <trkpt lat="45.94223" lon="4.81936">
        <ele>264</ele>
        <time>2018-07-17T08:32:15Z</time>
      </trkpt>
      <trkpt lat="45.94225" lon="4.81944">
        <ele>264</ele>
        <time>2018-07-17T08:32:16Z</time>
      </trkpt>
      <trkpt lat="45.94226" lon="4.81951">
        <ele>264</ele>
        <time>2018-07-17T08:32:17Z</time>
      </trkpt>
      <trkpt lat="45.94228" lon="4.81959">
        <ele>264</ele>
        <time>2018-07-17T08:32:18Z</time>
      </trkpt>
      <trkpt lat="45.9423" lon="4.81965">
        <ele>264</ele>
        <time>2018-07-17T08:32:19Z</time>
      </trkpt>
      <trkpt lat="45.94232" lon="4.8197">
        <ele>264</ele>
        <time>2018-07-17T08:32:20Z</time>
      </trkpt>
      <trkpt lat="45.94233" lon="4.81977">
        <ele>263</ele>
        <time>2018-07-17T08:32:21Z</time>
      </trkpt>
      <trkpt lat="45.94235" lon="4.81984">
        <ele>263</ele>
        <time>2018-07-17T08:32:22Z</time>
      </trkpt>
      <trkpt lat="45.94236" lon="4.8199">
        <ele>263</ele>
        <time>2018-07-17T08:32:23Z</time>
      </trkpt>
      <trkpt lat="45.94237" lon="4.81997">
        <ele>263</ele>
        <time>2018-07-17T08:32:24Z</time>
      </trkpt>
      <trkpt lat="45.94237" lon="4.82003">
        <ele>263</ele>
        <time>2018-07-17T08:32:25Z</time>
      </trkpt>
      <trkpt lat="45.94237" lon="4.8201">
        <ele>263</ele>
        <time>2018-07-17T08:32:26Z</time>
      </trkpt>
      <trkpt lat="45.94238" lon="4.82018">
        <ele>263</ele>
        <time>2018-07-17T08:32:27Z</time>
      </trkpt>
      <trkpt lat="45.9424" lon="4.82024">
        <ele>263</ele>
        <time>2018-07-17T08:32:28Z</time>
      </trkpt>
      <trkpt lat="45.94241" lon="4.82031">
        <ele>263</ele>
        <time>2018-07-17T08:32:29Z</time>
      </trkpt>
      <trkpt lat="45.94242" lon="4.82039">
        <ele>263</ele>
        <time>2018-07-17T08:32:30Z</time>
      </trkpt>
      <trkpt lat="45.94245" lon="4.8205">
        <ele>263</ele>
        <time>2018-07-17T08:32:32Z</time>
      </trkpt>
      <trkpt lat="45.94247" lon="4.82057">
        <ele>263</ele>
        <time>2018-07-17T08:32:33Z</time>
      </trkpt>
      <trkpt lat="45.94249" lon="4.82063">
        <ele>263</ele>
        <time>2018-07-17T08:32:34Z</time>
      </trkpt>
      <trkpt lat="45.94247" lon="4.82071">
        <ele>263</ele>
        <time>2018-07-17T08:32:35Z</time>
      </trkpt>
      <trkpt lat="45.94248" lon="4.8208">
        <ele>262</ele>
        <time>2018-07-17T08:32:36Z</time>
      </trkpt>
      <trkpt lat="45.94251" lon="4.82088">
        <ele>262</ele>
        <time>2018-07-17T08:32:37Z</time>
      </trkpt>
      <trkpt lat="45.94251" lon="4.82094">
        <ele>262</ele>
        <time>2018-07-17T08:32:38Z</time>
      </trkpt>
      <trkpt lat="45.94253" lon="4.82102">
        <ele>262</ele>
        <time>2018-07-17T08:32:39Z</time>
      </trkpt>
      <trkpt lat="45.94255" lon="4.82111">
        <ele>263</ele>
        <time>2018-07-17T08:32:40Z</time>
      </trkpt>
      <trkpt lat="45.94256" lon="4.82118">
        <ele>263</ele>
        <time>2018-07-17T08:32:41Z</time>
      </trkpt>
      <trkpt lat="45.94259" lon="4.82126">
        <ele>263</ele>
        <time>2018-07-17T08:32:42Z</time>
      </trkpt>
      <trkpt lat="45.94258" lon="4.82133">
        <ele>263</ele>
        <time>2018-07-17T08:32:43Z</time>
      </trkpt>
      <trkpt lat="45.94259" lon="4.82139">
        <ele>263</ele>
        <time>2018-07-17T08:32:44Z</time>
      </trkpt>
      <trkpt lat="45.9426" lon="4.82148">
        <ele>263</ele>
        <time>2018-07-17T08:32:45Z</time>
      </trkpt>
      <trkpt lat="45.94263" lon="4.82154">
        <ele>263</ele>
        <time>2018-07-17T08:32:46Z</time>
      </trkpt>
      <trkpt lat="45.94267" lon="4.8216">
        <ele>263</ele>
        <time>2018-07-17T08:32:47Z</time>
      </trkpt>
      <trkpt lat="45.94267" lon="4.82167">
        <ele>263</ele>
        <time>2018-07-17T08:32:48Z</time>
      </trkpt>
      <trkpt lat="45.94269" lon="4.82175">
        <ele>264</ele>
        <time>2018-07-17T08:32:49Z</time>
      </trkpt>
      <trkpt lat="45.94274" lon="4.82182">
        <ele>264</ele>
        <time>2018-07-17T08:32:50Z</time>
      </trkpt>
      <trkpt lat="45.94275" lon="4.82188">
        <ele>264</ele>
        <time>2018-07-17T08:32:51Z</time>
      </trkpt>
      <trkpt lat="45.94276" lon="4.82196">
        <ele>264</ele>
        <time>2018-07-17T08:32:52Z</time>
      </trkpt>
      <trkpt lat="45.94278" lon="4.82204">
        <ele>264</ele>
        <time>2018-07-17T08:32:53Z</time>
      </trkpt>
      <trkpt lat="45.94279" lon="4.82212">
        <ele>264</ele>
        <time>2018-07-17T08:32:54Z</time>
      </trkpt>
      <trkpt lat="45.94279" lon="4.82221">
        <ele>264</ele>
        <time>2018-07-17T08:32:55Z</time>
      </trkpt>
      <trkpt lat="45.94279" lon="4.82228">
        <ele>264</ele>
        <time>2018-07-17T08:32:56Z</time>
      </trkpt>
      <trkpt lat="45.9428" lon="4.82236">
        <ele>264</ele>
        <time>2018-07-17T08:32:57Z</time>
      </trkpt>
      <trkpt lat="45.9428" lon="4.82243">
        <ele>264</ele>
        <time>2018-07-17T08:32:58Z</time>
      </trkpt>
      <trkpt lat="45.94281" lon="4.82249">
        <ele>264</ele>
        <time>2018-07-17T08:32:59Z</time>
      </trkpt>
      <trkpt lat="45.94282" lon="4.82258">
        <ele>265</ele>
        <time>2018-07-17T08:33:00Z</time>
      </trkpt>
      <trkpt lat="45.94284" lon="4.82264">
        <ele>265</ele>
        <time>2018-07-17T08:33:01Z</time>
      </trkpt>
      <trkpt lat="45.94285" lon="4.82272">
        <ele>265</ele>
        <time>2018-07-17T08:33:02Z</time>
      </trkpt>
      <trkpt lat="45.94285" lon="4.82279">
        <ele>265</ele>
        <time>2018-07-17T08:33:03Z</time>
      </trkpt>
      <trkpt lat="45.94285" lon="4.82286">
        <ele>265</ele>
        <time>2018-07-17T08:33:04Z</time>
      </trkpt>
      <trkpt lat="45.94286" lon="4.82293">
        <ele>265</ele>
        <time>2018-07-17T08:33:05Z</time>
      </trkpt>
      <trkpt lat="45.94286" lon="4.82302">
        <ele>265</ele>
        <time>2018-07-17T08:33:06Z</time>
      </trkpt>
      <trkpt lat="45.94286" lon="4.82309">
        <ele>265</ele>
        <time>2018-07-17T08:33:07Z</time>
      </trkpt>
      <trkpt lat="45.94287" lon="4.82318">
        <ele>265</ele>
        <time>2018-07-17T08:33:08Z</time>
      </trkpt>
      <trkpt lat="45.94288" lon="4.82325">
        <ele>265</ele>
        <time>2018-07-17T08:33:09Z</time>
      </trkpt>
      <trkpt lat="45.94289" lon="4.82334">
        <ele>264</ele>
        <time>2018-07-17T08:33:10Z</time>
      </trkpt>
      <trkpt lat="45.94289" lon="4.82342">
        <ele>264</ele>
        <time>2018-07-17T08:33:11Z</time>
      </trkpt>
      <trkpt lat="45.94288" lon="4.8235">
        <ele>264</ele>
        <time>2018-07-17T08:33:12Z</time>
      </trkpt>
      <trkpt lat="45.94289" lon="4.82357">
        <ele>264</ele>
        <time>2018-07-17T08:33:13Z</time>
      </trkpt>
      <trkpt lat="45.9429" lon="4.82364">
        <ele>264</ele>
        <time>2018-07-17T08:33:14Z</time>
      </trkpt>
      <trkpt lat="45.9429" lon="4.82372">
        <ele>264</ele>
        <time>2018-07-17T08:33:15Z</time>
      </trkpt>
      <trkpt lat="45.9429" lon="4.82381">
        <ele>264</ele>
        <time>2018-07-17T08:33:16Z</time>
      </trkpt>
      <trkpt lat="45.94291" lon="4.82389">
        <ele>264</ele>
        <time>2018-07-17T08:33:17Z</time>
      </trkpt>
      <trkpt lat="45.94293" lon="4.82401">
        <ele>264</ele>
        <time>2018-07-17T08:33:19Z</time>
      </trkpt>
      <trkpt lat="45.94293" lon="4.82408">
        <ele>264</ele>
        <time>2018-07-17T08:33:20Z</time>
      </trkpt>
      <trkpt lat="45.94292" lon="4.82415">
        <ele>264</ele>
        <time>2018-07-17T08:33:21Z</time>
      </trkpt>
      <trkpt lat="45.94293" lon="4.82423">
        <ele>264</ele>
        <time>2018-07-17T08:33:22Z</time>
      </trkpt>
      <trkpt lat="45.94293" lon="4.82432">
        <ele>264</ele>
        <time>2018-07-17T08:33:23Z</time>
      </trkpt>
      <trkpt lat="45.94295" lon="4.82439">
        <ele>264</ele>
        <time>2018-07-17T08:33:24Z</time>
      </trkpt>
      <trkpt lat="45.94295" lon="4.82447">
        <ele>264</ele>
        <time>2018-07-17T08:33:25Z</time>
      </trkpt>
      <trkpt lat="45.94296" lon="4.82457">
        <ele>264</ele>
        <time>2018-07-17T08:33:26Z</time>
      </trkpt>
      <trkpt lat="45.94296" lon="4.82464">
        <ele>264</ele>
        <time>2018-07-17T08:33:27Z</time>
      </trkpt>
      <trkpt lat="45.94297" lon="4.8247">
        <ele>264</ele>
        <time>2018-07-17T08:33:28Z</time>
      </trkpt>
      <trkpt lat="45.94297" lon="4.82477">
        <ele>264</ele>
        <time>2018-07-17T08:33:29Z</time>
      </trkpt>
      <trkpt lat="45.94297" lon="4.82485">
        <ele>264</ele>
        <time>2018-07-17T08:33:30Z</time>
      </trkpt>
      <trkpt lat="45.94298" lon="4.82494">
        <ele>264</ele>
        <time>2018-07-17T08:33:31Z</time>
      </trkpt>
      <trkpt lat="45.94298" lon="4.82502">
        <ele>264</ele>
        <time>2018-07-17T08:33:32Z</time>
      </trkpt>
      <trkpt lat="45.94297" lon="4.82508">
        <ele>264</ele>
        <time>2018-07-17T08:33:33Z</time>
      </trkpt>
      <trkpt lat="45.94298" lon="4.82516">
        <ele>264</ele>
        <time>2018-07-17T08:33:34Z</time>
      </trkpt>
      <trkpt lat="45.94298" lon="4.82523">
        <ele>264</ele>
        <time>2018-07-17T08:33:35Z</time>
      </trkpt>
      <trkpt lat="45.94299" lon="4.82532">
        <ele>264</ele>
        <time>2018-07-17T08:33:36Z</time>
      </trkpt>
      <trkpt lat="45.94298" lon="4.82539">
        <ele>264</ele>
        <time>2018-07-17T08:33:37Z</time>
      </trkpt>
      <trkpt lat="45.94298" lon="4.82547">
        <ele>264</ele>
        <time>2018-07-17T08:33:38Z</time>
      </trkpt>
      <trkpt lat="45.94298" lon="4.82554">
        <ele>264</ele>
        <time>2018-07-17T08:33:39Z</time>
      </trkpt>
      <trkpt lat="45.94299" lon="4.82562">
        <ele>264</ele>
        <time>2018-07-17T08:33:40Z</time>
      </trkpt>
      <trkpt lat="45.943" lon="4.8257">
        <ele>264</ele>
        <time>2018-07-17T08:33:41Z</time>
      </trkpt>
      <trkpt lat="45.94299" lon="4.82576">
        <ele>264</ele>
        <time>2018-07-17T08:33:42Z</time>
      </trkpt>
      <trkpt lat="45.94299" lon="4.82584">
        <ele>265</ele>
        <time>2018-07-17T08:33:43Z</time>
      </trkpt>
      <trkpt lat="45.94298" lon="4.82591">
        <ele>265</ele>
        <time>2018-07-17T08:33:44Z</time>
      </trkpt>
      <trkpt lat="45.94297" lon="4.82598">
        <ele>265</ele>
        <time>2018-07-17T08:33:45Z</time>
      </trkpt>
      <trkpt lat="45.94297" lon="4.82604">
        <ele>265</ele>
        <time>2018-07-17T08:33:46Z</time>
      </trkpt>
      <trkpt lat="45.94296" lon="4.82612">
        <ele>265</ele>
        <time>2018-07-17T08:33:47Z</time>
      </trkpt>
      <trkpt lat="45.94296" lon="4.82618">
        <ele>265</ele>
        <time>2018-07-17T08:33:48Z</time>
      </trkpt>
      <trkpt lat="45.94295" lon="4.82626">
        <ele>265</ele>
        <time>2018-07-17T08:33:49Z</time>
      </trkpt>
      <trkpt lat="45.94296" lon="4.82632">
        <ele>265</ele>
        <time>2018-07-17T08:33:50Z</time>
      </trkpt>
      <trkpt lat="45.94294" lon="4.82644">
        <ele>265</ele>
        <time>2018-07-17T08:33:52Z</time>
      </trkpt>
      <trkpt lat="45.94295" lon="4.82651">
        <ele>265</ele>
        <time>2018-07-17T08:33:53Z</time>
      </trkpt>
      <trkpt lat="45.94295" lon="4.82658">
        <ele>265</ele>
        <time>2018-07-17T08:33:54Z</time>
      </trkpt>
      <trkpt lat="45.94296" lon="4.82666">
        <ele>265</ele>
        <time>2018-07-17T08:33:55Z</time>
      </trkpt>
      <trkpt lat="45.94295" lon="4.82673">
        <ele>265</ele>
        <time>2018-07-17T08:33:56Z</time>
      </trkpt>
      <trkpt lat="45.94297" lon="4.8268">
        <ele>265</ele>
        <time>2018-07-17T08:33:57Z</time>
      </trkpt>
      <trkpt lat="45.94297" lon="4.82686">
        <ele>265</ele>
        <time>2018-07-17T08:33:58Z</time>
      </trkpt>
      <trkpt lat="45.94297" lon="4.82693">
        <ele>265</ele>
        <time>2018-07-17T08:33:59Z</time>
      </trkpt>
      <trkpt lat="45.94298" lon="4.82702">
        <ele>265</ele>
        <time>2018-07-17T08:34:00Z</time>
      </trkpt>
      <trkpt lat="45.94298" lon="4.8271">
        <ele>265</ele>
        <time>2018-07-17T08:34:01Z</time>
      </trkpt>
      <trkpt lat="45.94297" lon="4.82718">
        <ele>265</ele>
        <time>2018-07-17T08:34:02Z</time>
      </trkpt>
      <trkpt lat="45.94297" lon="4.82725">
        <ele>265</ele>
        <time>2018-07-17T08:34:03Z</time>
      </trkpt>
      <trkpt lat="45.94297" lon="4.82731">
        <ele>265</ele>
        <time>2018-07-17T08:34:04Z</time>
      </trkpt>
      <trkpt lat="45.94297" lon="4.82738">
        <ele>265</ele>
        <time>2018-07-17T08:34:05Z</time>
      </trkpt>
      <trkpt lat="45.94297" lon="4.82747">
        <ele>265</ele>
        <time>2018-07-17T08:34:06Z</time>
      </trkpt>
      <trkpt lat="45.94296" lon="4.82754">
        <ele>265</ele>
        <time>2018-07-17T08:34:07Z</time>
      </trkpt>
      <trkpt lat="45.94296" lon="4.82762">
        <ele>265</ele>
        <time>2018-07-17T08:34:08Z</time>
      </trkpt>
      <trkpt lat="45.94295" lon="4.82769">
        <ele>265</ele>
        <time>2018-07-17T08:34:09Z</time>
      </trkpt>
      <trkpt lat="45.94295" lon="4.82781">
        <ele>265</ele>
        <time>2018-07-17T08:34:11Z</time>
      </trkpt>
      <trkpt lat="45.94295" lon="4.8279">
        <ele>265</ele>
        <time>2018-07-17T08:34:12Z</time>
      </trkpt>
      <trkpt lat="45.94295" lon="4.82797">
        <ele>265</ele>
        <time>2018-07-17T08:34:13Z</time>
      </trkpt>
      <trkpt lat="45.94294" lon="4.82805">
        <ele>265</ele>
        <time>2018-07-17T08:34:14Z</time>
      </trkpt>
      <trkpt lat="45.94293" lon="4.82812">
        <ele>265</ele>
        <time>2018-07-17T08:34:15Z</time>
      </trkpt>
      <trkpt lat="45.94293" lon="4.8282">
        <ele>265</ele>
        <time>2018-07-17T08:34:16Z</time>
      </trkpt>
      <trkpt lat="45.94293" lon="4.82828">
        <ele>265</ele>
        <time>2018-07-17T08:34:17Z</time>
      </trkpt>
      <trkpt lat="45.94293" lon="4.82835">
        <ele>265</ele>
        <time>2018-07-17T08:34:18Z</time>
      </trkpt>
      <trkpt lat="45.94293" lon="4.82843">
        <ele>265</ele>
        <time>2018-07-17T08:34:19Z</time>
      </trkpt>
      <trkpt lat="45.94292" lon="4.82851">
        <ele>265</ele>
        <time>2018-07-17T08:34:20Z</time>
      </trkpt>
      <trkpt lat="45.94292" lon="4.82856">
        <ele>265</ele>
        <time>2018-07-17T08:34:21Z</time>
      </trkpt>
      <trkpt lat="45.94292" lon="4.82864">
        <ele>265</ele>
        <time>2018-07-17T08:34:22Z</time>
      </trkpt>
      <trkpt lat="45.94292" lon="4.82872">
        <ele>265</ele>
        <time>2018-07-17T08:34:23Z</time>
      </trkpt>
      <trkpt lat="45.94293" lon="4.82879">
        <ele>265</ele>
        <time>2018-07-17T08:34:24Z</time>
      </trkpt>
      <trkpt lat="45.94293" lon="4.82887">
        <ele>265</ele>
        <time>2018-07-17T08:34:25Z</time>
      </trkpt>
      <trkpt lat="45.94292" lon="4.82895">
        <ele>265</ele>
        <time>2018-07-17T08:34:26Z</time>
      </trkpt>
      <trkpt lat="45.94291" lon="4.82904">
        <ele>265</ele>
        <time>2018-07-17T08:34:27Z</time>
      </trkpt>
      <trkpt lat="45.9429" lon="4.82913">
        <ele>265</ele>
        <time>2018-07-17T08:34:28Z</time>
      </trkpt>
      <trkpt lat="45.94291" lon="4.82922">
        <ele>265</ele>
        <time>2018-07-17T08:34:29Z</time>
      </trkpt>
      <trkpt lat="45.9429" lon="4.82932">
        <ele>265</ele>
        <time>2018-07-17T08:34:30Z</time>
      </trkpt>
      <trkpt lat="45.94289" lon="4.8294">
        <ele>265</ele>
        <time>2018-07-17T08:34:31Z</time>
      </trkpt>
      <trkpt lat="45.94289" lon="4.82948">
        <ele>265</ele>
        <time>2018-07-17T08:34:32Z</time>
      </trkpt>
      <trkpt lat="45.94289" lon="4.82959">
        <ele>265</ele>
        <time>2018-07-17T08:34:34Z</time>
      </trkpt>
      <trkpt lat="45.94291" lon="4.82965">
        <ele>265</ele>
        <time>2018-07-17T08:34:35Z</time>
      </trkpt>
      <trkpt lat="45.94293" lon="4.82971">
        <ele>265</ele>
        <time>2018-07-17T08:34:36Z</time>
      </trkpt>
      <trkpt lat="45.94294" lon="4.82977">
        <ele>265</ele>
        <time>2018-07-17T08:34:37Z</time>
      </trkpt>
      <trkpt lat="45.94295" lon="4.82984">
        <ele>265</ele>
        <time>2018-07-17T08:34:38Z</time>
      </trkpt>
      <trkpt lat="45.94296" lon="4.82992">
        <ele>265</ele>
        <time>2018-07-17T08:34:39Z</time>
      </trkpt>
      <trkpt lat="45.94299" lon="4.82998">
        <ele>265</ele>
        <time>2018-07-17T08:34:40Z</time>
      </trkpt>
      <trkpt lat="45.94301" lon="4.83006">
        <ele>266</ele>
        <time>2018-07-17T08:34:41Z</time>
      </trkpt>
      <trkpt lat="45.94302" lon="4.83014">
        <ele>266</ele>
        <time>2018-07-17T08:34:42Z</time>
      </trkpt>
      <trkpt lat="45.94303" lon="4.83021">
        <ele>266</ele>
        <time>2018-07-17T08:34:43Z</time>
      </trkpt>
      <trkpt lat="45.94305" lon="4.83029">
        <ele>266</ele>
        <time>2018-07-17T08:34:44Z</time>
      </trkpt>
      <trkpt lat="45.94306" lon="4.83036">
        <ele>266</ele>
        <time>2018-07-17T08:34:45Z</time>
      </trkpt>
      <trkpt lat="45.94308" lon="4.83043">
        <ele>266</ele>
        <time>2018-07-17T08:34:46Z</time>
      </trkpt>
      <trkpt lat="45.9431" lon="4.83049">
        <ele>266</ele>
        <time>2018-07-17T08:34:47Z</time>
      </trkpt>
      <trkpt lat="45.94311" lon="4.83056">
        <ele>266</ele>
        <time>2018-07-17T08:34:48Z</time>
      </trkpt>
      <trkpt lat="45.94312" lon="4.83063">
        <ele>266</ele>
        <time>2018-07-17T08:34:49Z</time>
      </trkpt>
      <trkpt lat="45.94313" lon="4.8307">
        <ele>266</ele>
        <time>2018-07-17T08:34:50Z</time>
      </trkpt>
      <trkpt lat="45.94314" lon="4.83076">
        <ele>266</ele>
        <time>2018-07-17T08:34:51Z</time>
      </trkpt>
      <trkpt lat="45.94315" lon="4.83082">
        <ele>266</ele>
        <time>2018-07-17T08:34:52Z</time>
      </trkpt>
      <trkpt lat="45.94317" lon="4.83089">
        <ele>266</ele>
        <time>2018-07-17T08:34:53Z</time>
      </trkpt>
      <trkpt lat="45.94319" lon="4.83095">
        <ele>266</ele>
        <time>2018-07-17T08:34:54Z</time>
      </trkpt>
      <trkpt lat="45.9432" lon="4.83102">
        <ele>266</ele>
        <time>2018-07-17T08:34:55Z</time>
      </trkpt>
      <trkpt lat="45.94324" lon="4.83113">
        <ele>266</ele>
        <time>2018-07-17T08:34:57Z</time>
      </trkpt>
      <trkpt lat="45.94326" lon="4.83118">
        <ele>266</ele>
        <time>2018-07-17T08:34:58Z</time>
      </trkpt>
      <trkpt lat="45.94329" lon="4.83129">
        <ele>266</ele>
        <time>2018-07-17T08:35:00Z</time>
      </trkpt>
      <trkpt lat="45.9433" lon="4.83135">
        <ele>266</ele>
        <time>2018-07-17T08:35:01Z</time>
      </trkpt>
      <trkpt lat="45.94332" lon="4.83141">
        <ele>266</ele>
        <time>2018-07-17T08:35:02Z</time>
      </trkpt>
      <trkpt lat="45.94334" lon="4.83147">
        <ele>266</ele>
        <time>2018-07-17T08:35:03Z</time>
      </trkpt>
      <trkpt lat="45.94336" lon="4.83154">
        <ele>266</ele>
        <time>2018-07-17T08:35:04Z</time>
      </trkpt>
      <trkpt lat="45.94339" lon="4.8316">
        <ele>266</ele>
        <time>2018-07-17T08:35:05Z</time>
      </trkpt>
      <trkpt lat="45.94341" lon="4.83168">
        <ele>266</ele>
        <time>2018-07-17T08:35:06Z</time>
      </trkpt>
      <trkpt lat="45.94344" lon="4.83174">
        <ele>266</ele>
        <time>2018-07-17T08:35:07Z</time>
      </trkpt>
      <trkpt lat="45.94345" lon="4.83181">
        <ele>266</ele>
        <time>2018-07-17T08:35:08Z</time>
      </trkpt>
      <trkpt lat="45.94348" lon="4.83188">
        <ele>266</ele>
        <time>2018-07-17T08:35:09Z</time>
      </trkpt>
      <trkpt lat="45.94351" lon="4.83195">
        <ele>266</ele>
        <time>2018-07-17T08:35:10Z</time>
      </trkpt>
      <trkpt lat="45.94353" lon="4.83202">
        <ele>266</ele>
        <time>2018-07-17T08:35:11Z</time>
      </trkpt>
      <trkpt lat="45.94356" lon="4.8321">
        <ele>266</ele>
        <time>2018-07-17T08:35:12Z</time>
      </trkpt>
      <trkpt lat="45.94357" lon="4.83216">
        <ele>266</ele>
        <time>2018-07-17T08:35:13Z</time>
      </trkpt>
      <trkpt lat="45.94359" lon="4.83223">
        <ele>266</ele>
        <time>2018-07-17T08:35:14Z</time>
      </trkpt>
      <trkpt lat="45.94363" lon="4.83232">
        <ele>266</ele>
        <time>2018-07-17T08:35:15Z</time>
      </trkpt>
      <trkpt lat="45.94366" lon="4.8324">
        <ele>265</ele>
        <time>2018-07-17T08:35:16Z</time>
      </trkpt>
      <trkpt lat="45.94368" lon="4.83248">
        <ele>265</ele>
        <time>2018-07-17T08:35:17Z</time>
      </trkpt>
      <trkpt lat="45.9437" lon="4.83256">
        <ele>265</ele>
        <time>2018-07-17T08:35:18Z</time>
      </trkpt>
      <trkpt lat="45.94373" lon="4.83264">
        <ele>264</ele>
        <time>2018-07-17T08:35:19Z</time>
      </trkpt>
      <trkpt lat="45.94376" lon="4.83272">
        <ele>264</ele>
        <time>2018-07-17T08:35:20Z</time>
      </trkpt>
      <trkpt lat="45.94378" lon="4.8328">
        <ele>264</ele>
        <time>2018-07-17T08:35:21Z</time>
      </trkpt>
      <trkpt lat="45.9438" lon="4.83288">
        <ele>264</ele>
        <time>2018-07-17T08:35:22Z</time>
      </trkpt>
      <trkpt lat="45.94383" lon="4.83296">
        <ele>264</ele>
        <time>2018-07-17T08:35:23Z</time>
      </trkpt>
      <trkpt lat="45.94386" lon="4.83304">
        <ele>264</ele>
        <time>2018-07-17T08:35:24Z</time>
      </trkpt>
      <trkpt lat="45.94389" lon="4.83311">
        <ele>264</ele>
        <time>2018-07-17T08:35:25Z</time>
      </trkpt>
      <trkpt lat="45.94392" lon="4.83318">
        <ele>264</ele>
        <time>2018-07-17T08:35:26Z</time>
      </trkpt>
      <trkpt lat="45.94396" lon="4.83325">
        <ele>264</ele>
        <time>2018-07-17T08:35:27Z</time>
      </trkpt>
      <trkpt lat="45.94398" lon="4.83332">
        <ele>264</ele>
        <time>2018-07-17T08:35:28Z</time>
      </trkpt>
      <trkpt lat="45.94401" lon="4.83339">
        <ele>263</ele>
        <time>2018-07-17T08:35:29Z</time>
      </trkpt>
      <trkpt lat="45.94404" lon="4.83346">
        <ele>263</ele>
        <time>2018-07-17T08:35:30Z</time>
      </trkpt>
      <trkpt lat="45.94407" lon="4.83353">
        <ele>263</ele>
        <time>2018-07-17T08:35:31Z</time>
      </trkpt>
      <trkpt lat="45.9441" lon="4.8336">
        <ele>264</ele>
        <time>2018-07-17T08:35:32Z</time>
      </trkpt>
      <trkpt lat="45.94414" lon="4.83368">
        <ele>264</ele>
        <time>2018-07-17T08:35:33Z</time>
      </trkpt>
      <trkpt lat="45.94418" lon="4.83377">
        <ele>264</ele>
        <time>2018-07-17T08:35:34Z</time>
      </trkpt>
      <trkpt lat="45.94421" lon="4.83386">
        <ele>264</ele>
        <time>2018-07-17T08:35:35Z</time>
      </trkpt>
      <trkpt lat="45.94424" lon="4.83394">
        <ele>264</ele>
        <time>2018-07-17T08:35:36Z</time>
      </trkpt>
      <trkpt lat="45.94428" lon="4.834">
        <ele>264</ele>
        <time>2018-07-17T08:35:37Z</time>
      </trkpt>
      <trkpt lat="45.94434" lon="4.83405">
        <ele>264</ele>
        <time>2018-07-17T08:35:38Z</time>
      </trkpt>
      <trkpt lat="45.94438" lon="4.83413">
        <ele>264</ele>
        <time>2018-07-17T08:35:39Z</time>
      </trkpt>
      <trkpt lat="45.94443" lon="4.8342">
        <ele>264</ele>
        <time>2018-07-17T08:35:40Z</time>
      </trkpt>
      <trkpt lat="45.94446" lon="4.83427">
        <ele>264</ele>
        <time>2018-07-17T08:35:41Z</time>
      </trkpt>
      <trkpt lat="45.94449" lon="4.83433">
        <ele>263</ele>
        <time>2018-07-17T08:35:42Z</time>
      </trkpt>
      <trkpt lat="45.94453" lon="4.8344">
        <ele>263</ele>
        <time>2018-07-17T08:35:43Z</time>
      </trkpt>
      <trkpt lat="45.94456" lon="4.83446">
        <ele>263</ele>
        <time>2018-07-17T08:35:44Z</time>
      </trkpt>
      <trkpt lat="45.94459" lon="4.83452">
        <ele>263</ele>
        <time>2018-07-17T08:35:45Z</time>
      </trkpt>
      <trkpt lat="45.94462" lon="4.83459">
        <ele>263</ele>
        <time>2018-07-17T08:35:46Z</time>
      </trkpt>
      <trkpt lat="45.94467" lon="4.83465">
        <ele>263</ele>
        <time>2018-07-17T08:35:47Z</time>
      </trkpt>
      <trkpt lat="45.94471" lon="4.83471">
        <ele>263</ele>
        <time>2018-07-17T08:35:48Z</time>
      </trkpt>
      <trkpt lat="45.94474" lon="4.83478">
        <ele>263</ele>
        <time>2018-07-17T08:35:49Z</time>
      </trkpt>
      <trkpt lat="45.94478" lon="4.83485">
        <ele>263</ele>
        <time>2018-07-17T08:35:50Z</time>
      </trkpt>
      <trkpt lat="45.94482" lon="4.83493">
        <ele>263</ele>
        <time>2018-07-17T08:35:51Z</time>
      </trkpt>
      <trkpt lat="45.94486" lon="4.835">
        <ele>263</ele>
        <time>2018-07-17T08:35:52Z</time>
      </trkpt>
      <trkpt lat="45.9449" lon="4.83507">
        <ele>262</ele>
        <time>2018-07-17T08:35:53Z</time>
      </trkpt>
      <trkpt lat="45.94495" lon="4.83514">
        <ele>262</ele>
        <time>2018-07-17T08:35:54Z</time>
      </trkpt>
      <trkpt lat="45.94499" lon="4.8352">
        <ele>262</ele>
        <time>2018-07-17T08:35:55Z</time>
      </trkpt>
      <trkpt lat="45.94504" lon="4.83527">
        <ele>262</ele>
        <time>2018-07-17T08:35:56Z</time>
      </trkpt>
      <trkpt lat="45.94509" lon="4.83534">
        <ele>262</ele>
        <time>2018-07-17T08:35:57Z</time>
      </trkpt>
      <trkpt lat="45.94512" lon="4.8354">
        <ele>262</ele>
        <time>2018-07-17T08:35:58Z</time>
      </trkpt>
      <trkpt lat="45.94518" lon="4.83547">
        <ele>261</ele>
        <time>2018-07-17T08:35:59Z</time>
      </trkpt>
      <trkpt lat="45.94522" lon="4.83553">
        <ele>261</ele>
        <time>2018-07-17T08:36:00Z</time>
      </trkpt>
      <trkpt lat="45.94525" lon="4.83561">
        <ele>261</ele>
        <time>2018-07-17T08:36:01Z</time>
      </trkpt>
      <trkpt lat="45.94527" lon="4.8357">
        <ele>261</ele>
        <time>2018-07-17T08:36:02Z</time>
      </trkpt>
      <trkpt lat="45.9453" lon="4.83578">
        <ele>261</ele>
        <time>2018-07-17T08:36:03Z</time>
      </trkpt>
      <trkpt lat="45.94532" lon="4.83586">
        <ele>261</ele>
        <time>2018-07-17T08:36:04Z</time>
      </trkpt>
      <trkpt lat="45.94534" lon="4.83593">
        <ele>261</ele>
        <time>2018-07-17T08:36:05Z</time>
      </trkpt>
      <trkpt lat="45.94536" lon="4.836">
        <ele>261</ele>
        <time>2018-07-17T08:36:06Z</time>
      </trkpt>
      <trkpt lat="45.94539" lon="4.83608">
        <ele>261</ele>
        <time>2018-07-17T08:36:07Z</time>
      </trkpt>
      <trkpt lat="45.9454" lon="4.83616">
        <ele>261</ele>
        <time>2018-07-17T08:36:08Z</time>
      </trkpt>
      <trkpt lat="45.94542" lon="4.83625">
        <ele>261</ele>
        <time>2018-07-17T08:36:09Z</time>
      </trkpt>
      <trkpt lat="45.94544" lon="4.83634">
        <ele>261</ele>
        <time>2018-07-17T08:36:10Z</time>
      </trkpt>
      <trkpt lat="45.94545" lon="4.83644">
        <ele>261</ele>
        <time>2018-07-17T08:36:11Z</time>
      </trkpt>
      <trkpt lat="45.94546" lon="4.83653">
        <ele>261</ele>
        <time>2018-07-17T08:36:12Z</time>
      </trkpt>
      <trkpt lat="45.94546" lon="4.83662">
        <ele>261</ele>
        <time>2018-07-17T08:36:13Z</time>
      </trkpt>
      <trkpt lat="45.94547" lon="4.83671">
        <ele>262</ele>
        <time>2018-07-17T08:36:14Z</time>
      </trkpt>
      <trkpt lat="45.94548" lon="4.8368">
        <ele>262</ele>
        <time>2018-07-17T08:36:15Z</time>
      </trkpt>
      <trkpt lat="45.94548" lon="4.83688">
        <ele>262</ele>
        <time>2018-07-17T08:36:16Z</time>
      </trkpt>
      <trkpt lat="45.94549" lon="4.83697">
        <ele>262</ele>
        <time>2018-07-17T08:36:17Z</time>
      </trkpt>
      <trkpt lat="45.9455" lon="4.83706">
        <ele>262</ele>
        <time>2018-07-17T08:36:18Z</time>
      </trkpt>
      <trkpt lat="45.94552" lon="4.83714">
        <ele>262</ele>
        <time>2018-07-17T08:36:19Z</time>
      </trkpt>
      <trkpt lat="45.94553" lon="4.83722">
        <ele>262</ele>
        <time>2018-07-17T08:36:20Z</time>
      </trkpt>
      <trkpt lat="45.94554" lon="4.83731">
        <ele>262</ele>
        <time>2018-07-17T08:36:21Z</time>
      </trkpt>
      <trkpt lat="45.94556" lon="4.83739">
        <ele>262</ele>
        <time>2018-07-17T08:36:22Z</time>
      </trkpt>
      <trkpt lat="45.94557" lon="4.83747">
        <ele>262</ele>
        <time>2018-07-17T08:36:23Z</time>
      </trkpt>
      <trkpt lat="45.94558" lon="4.83755">
        <ele>263</ele>
        <time>2018-07-17T08:36:24Z</time>
      </trkpt>
      <trkpt lat="45.9456" lon="4.83766">
        <ele>263</ele>
        <time>2018-07-17T08:36:25Z</time>
      </trkpt>
      <trkpt lat="45.94561" lon="4.83774">
        <ele>263</ele>
        <time>2018-07-17T08:36:26Z</time>
      </trkpt>
      <trkpt lat="45.94562" lon="4.83784">
        <ele>264</ele>
        <time>2018-07-17T08:36:27Z</time>
      </trkpt>
      <trkpt lat="45.94564" lon="4.83793">
        <ele>264</ele>
        <time>2018-07-17T08:36:28Z</time>
      </trkpt>
      <trkpt lat="45.94565" lon="4.83802">
        <ele>264</ele>
        <time>2018-07-17T08:36:29Z</time>
      </trkpt>
      <trkpt lat="45.94565" lon="4.83815">
        <ele>264</ele>
        <time>2018-07-17T08:36:30Z</time>
      </trkpt>
      <trkpt lat="45.94566" lon="4.83823">
        <ele>264</ele>
        <time>2018-07-17T08:36:31Z</time>
      </trkpt>
      <trkpt lat="45.94566" lon="4.83832">
        <ele>265</ele>
        <time>2018-07-17T08:36:32Z</time>
      </trkpt>
      <trkpt lat="45.94567" lon="4.8384">
        <ele>266</ele>
        <time>2018-07-17T08:36:33Z</time>
      </trkpt>
      <trkpt lat="45.94567" lon="4.83847">
        <ele>266</ele>
        <time>2018-07-17T08:36:34Z</time>
      </trkpt>
      <trkpt lat="45.94569" lon="4.83855">
        <ele>266</ele>
        <time>2018-07-17T08:36:35Z</time>
      </trkpt>
      <trkpt lat="45.9457" lon="4.83861">
        <ele>267</ele>
        <time>2018-07-17T08:36:36Z</time>
      </trkpt>
      <trkpt lat="45.94571" lon="4.83868">
        <ele>267</ele>
        <time>2018-07-17T08:36:37Z</time>
      </trkpt>
      <trkpt lat="45.94572" lon="4.83875">
        <ele>267</ele>
        <time>2018-07-17T08:36:38Z</time>
      </trkpt>
      <trkpt lat="45.94573" lon="4.83882">
        <ele>267</ele>
        <time>2018-07-17T08:36:39Z</time>
      </trkpt>
      <trkpt lat="45.94574" lon="4.83888">
        <ele>267</ele>
        <time>2018-07-17T08:36:40Z</time>
      </trkpt>
      <trkpt lat="45.94575" lon="4.83894">
        <ele>267</ele>
        <time>2018-07-17T08:36:41Z</time>
      </trkpt>
      <trkpt lat="45.94577" lon="4.83901">
        <ele>268</ele>
        <time>2018-07-17T08:36:42Z</time>
      </trkpt>
      <trkpt lat="45.94578" lon="4.83909">
        <ele>268</ele>
        <time>2018-07-17T08:36:43Z</time>
      </trkpt>
      <trkpt lat="45.9458" lon="4.83916">
        <ele>268</ele>
        <time>2018-07-17T08:36:44Z</time>
      </trkpt>
      <trkpt lat="45.94582" lon="4.83927">
        <ele>268</ele>
        <time>2018-07-17T08:36:45Z</time>
      </trkpt>
      <trkpt lat="45.94583" lon="4.83934">
        <ele>269</ele>
        <time>2018-07-17T08:36:46Z</time>
      </trkpt>
      <trkpt lat="45.94583" lon="4.83942">
        <ele>268</ele>
        <time>2018-07-17T08:36:47Z</time>
      </trkpt>
      <trkpt lat="45.94585" lon="4.8395">
        <ele>268</ele>
        <time>2018-07-17T08:36:48Z</time>
      </trkpt>
      <trkpt lat="45.94587" lon="4.83957">
        <ele>268</ele>
        <time>2018-07-17T08:36:49Z</time>
      </trkpt>
      <trkpt lat="45.94589" lon="4.83964">
        <ele>268</ele>
        <time>2018-07-17T08:36:50Z</time>
      </trkpt>
      <trkpt lat="45.94589" lon="4.83971">
        <ele>268</ele>
        <time>2018-07-17T08:36:51Z</time>
      </trkpt>
      <trkpt lat="45.94591" lon="4.83978">
        <ele>268</ele>
        <time>2018-07-17T08:36:52Z</time>
      </trkpt>
      <trkpt lat="45.94592" lon="4.83985">
        <ele>269</ele>
        <time>2018-07-17T08:36:53Z</time>
      </trkpt>
      <trkpt lat="45.94593" lon="4.83993">
        <ele>269</ele>
        <time>2018-07-17T08:36:54Z</time>
      </trkpt>
      <trkpt lat="45.94594" lon="4.83999">
        <ele>269</ele>
        <time>2018-07-17T08:36:55Z</time>
      </trkpt>
      <trkpt lat="45.94595" lon="4.84006">
        <ele>269</ele>
        <time>2018-07-17T08:36:56Z</time>
      </trkpt>
      <trkpt lat="45.94595" lon="4.84013">
        <ele>269</ele>
        <time>2018-07-17T08:36:57Z</time>
      </trkpt>
      <trkpt lat="45.94596" lon="4.8402">
        <ele>269</ele>
        <time>2018-07-17T08:36:58Z</time>
      </trkpt>
      <trkpt lat="45.94597" lon="4.84028">
        <ele>269</ele>
        <time>2018-07-17T08:36:59Z</time>
      </trkpt>
      <trkpt lat="45.94598" lon="4.84035">
        <ele>269</ele>
        <time>2018-07-17T08:37:00Z</time>
      </trkpt>
      <trkpt lat="45.94599" lon="4.84043">
        <ele>269</ele>
        <time>2018-07-17T08:37:01Z</time>
      </trkpt>
      <trkpt lat="45.94601" lon="4.8405">
        <ele>269</ele>
        <time>2018-07-17T08:37:02Z</time>
      </trkpt>
      <trkpt lat="45.94603" lon="4.84058">
        <ele>269</ele>
        <time>2018-07-17T08:37:03Z</time>
      </trkpt>
      <trkpt lat="45.94603" lon="4.84065">
        <ele>269</ele>
        <time>2018-07-17T08:37:04Z</time>
      </trkpt>
      <trkpt lat="45.94604" lon="4.84073">
        <ele>269</ele>
        <time>2018-07-17T08:37:05Z</time>
      </trkpt>
      <trkpt lat="45.94606" lon="4.84081">
        <ele>269</ele>
        <time>2018-07-17T08:37:06Z</time>
      </trkpt>
      <trkpt lat="45.94607" lon="4.84088">
        <ele>269</ele>
        <time>2018-07-17T08:37:07Z</time>
      </trkpt>
      <trkpt lat="45.94607" lon="4.84094">
        <ele>269</ele>
        <time>2018-07-17T08:37:08Z</time>
      </trkpt>
      <trkpt lat="45.94608" lon="4.84101">
        <ele>269</ele>
        <time>2018-07-17T08:37:09Z</time>
      </trkpt>
      <trkpt lat="45.9461" lon="4.84108">
        <ele>269</ele>
        <time>2018-07-17T08:37:10Z</time>
      </trkpt>
      <trkpt lat="45.94613" lon="4.84114">
        <ele>269</ele>
        <time>2018-07-17T08:37:11Z</time>
      </trkpt>
      <trkpt lat="45.94614" lon="4.84121">
        <ele>269</ele>
        <time>2018-07-17T08:37:12Z</time>
      </trkpt>
      <trkpt lat="45.94617" lon="4.84127">
        <ele>269</ele>
        <time>2018-07-17T08:37:13Z</time>
      </trkpt>
      <trkpt lat="45.94618" lon="4.84136">
        <ele>269</ele>
        <time>2018-07-17T08:37:14Z</time>
      </trkpt>
      <trkpt lat="45.94619" lon="4.84144">
        <ele>269</ele>
        <time>2018-07-17T08:37:15Z</time>
      </trkpt>
      <trkpt lat="45.94619" lon="4.84152">
        <ele>269</ele>
        <time>2018-07-17T08:37:16Z</time>
      </trkpt>
      <trkpt lat="45.94621" lon="4.84158">
        <ele>269</ele>
        <time>2018-07-17T08:37:17Z</time>
      </trkpt>
      <trkpt lat="45.94622" lon="4.84165">
        <ele>269</ele>
        <time>2018-07-17T08:37:18Z</time>
      </trkpt>
      <trkpt lat="45.94623" lon="4.84171">
        <ele>269</ele>
        <time>2018-07-17T08:37:19Z</time>
      </trkpt>
      <trkpt lat="45.94624" lon="4.84178">
        <ele>269</ele>
        <time>2018-07-17T08:37:20Z</time>
      </trkpt>
      <trkpt lat="45.94626" lon="4.84185">
        <ele>269</ele>
        <time>2018-07-17T08:37:21Z</time>
      </trkpt>
      <trkpt lat="45.94627" lon="4.84193">
        <ele>269</ele>
        <time>2018-07-17T08:37:22Z</time>
      </trkpt>
      <trkpt lat="45.94628" lon="4.84201">
        <ele>269</ele>
        <time>2018-07-17T08:37:23Z</time>
      </trkpt>
      <trkpt lat="45.94629" lon="4.84207">
        <ele>269</ele>
        <time>2018-07-17T08:37:24Z</time>
      </trkpt>
      <trkpt lat="45.9463" lon="4.84215">
        <ele>269</ele>
        <time>2018-07-17T08:37:25Z</time>
      </trkpt>
      <trkpt lat="45.94631" lon="4.84224">
        <ele>269</ele>
        <time>2018-07-17T08:37:26Z</time>
      </trkpt>
      <trkpt lat="45.94632" lon="4.84231">
        <ele>269</ele>
        <time>2018-07-17T08:37:27Z</time>
      </trkpt>
      <trkpt lat="45.94633" lon="4.84238">
        <ele>269</ele>
        <time>2018-07-17T08:37:28Z</time>
      </trkpt>
      <trkpt lat="45.94633" lon="4.84245">
        <ele>269</ele>
        <time>2018-07-17T08:37:29Z</time>
      </trkpt>
      <trkpt lat="45.94635" lon="4.84253">
        <ele>269</ele>
        <time>2018-07-17T08:37:30Z</time>
      </trkpt>
      <trkpt lat="45.94636" lon="4.84259">
        <ele>269</ele>
        <time>2018-07-17T08:37:31Z</time>
      </trkpt>
      <trkpt lat="45.94637" lon="4.84266">
        <ele>269</ele>
        <time>2018-07-17T08:37:32Z</time>
      </trkpt>
      <trkpt lat="45.94639" lon="4.84273">
        <ele>269</ele>
        <time>2018-07-17T08:37:33Z</time>
      </trkpt>
      <trkpt lat="45.9464" lon="4.84281">
        <ele>269</ele>
        <time>2018-07-17T08:37:34Z</time>
      </trkpt>
      <trkpt lat="45.9464" lon="4.84289">
        <ele>269</ele>
        <time>2018-07-17T08:37:35Z</time>
      </trkpt>
      <trkpt lat="45.94643" lon="4.84298">
        <ele>269</ele>
        <time>2018-07-17T08:37:36Z</time>
      </trkpt>
      <trkpt lat="45.94643" lon="4.84306">
        <ele>269</ele>
        <time>2018-07-17T08:37:37Z</time>
      </trkpt>
      <trkpt lat="45.94644" lon="4.84313">
        <ele>269</ele>
        <time>2018-07-17T08:37:38Z</time>
      </trkpt>
      <trkpt lat="45.94646" lon="4.84321">
        <ele>268</ele>
        <time>2018-07-17T08:37:39Z</time>
      </trkpt>
      <trkpt lat="45.94647" lon="4.84328">
        <ele>268</ele>
        <time>2018-07-17T08:37:40Z</time>
      </trkpt>
      <trkpt lat="45.94648" lon="4.84335">
        <ele>268</ele>
        <time>2018-07-17T08:37:41Z</time>
      </trkpt>
      <trkpt lat="45.94649" lon="4.84342">
        <ele>268</ele>
        <time>2018-07-17T08:37:42Z</time>
      </trkpt>
      <trkpt lat="45.9465" lon="4.8435">
        <ele>268</ele>
        <time>2018-07-17T08:37:43Z</time>
      </trkpt>
      <trkpt lat="45.94652" lon="4.84359">
        <ele>268</ele>
        <time>2018-07-17T08:37:44Z</time>
      </trkpt>
      <trkpt lat="45.94653" lon="4.84367">
        <ele>268</ele>
        <time>2018-07-17T08:37:45Z</time>
      </trkpt>
      <trkpt lat="45.94653" lon="4.84376">
        <ele>268</ele>
        <time>2018-07-17T08:37:46Z</time>
      </trkpt>
      <trkpt lat="45.94653" lon="4.84385">
        <ele>268</ele>
        <time>2018-07-17T08:37:47Z</time>
      </trkpt>
      <trkpt lat="45.94655" lon="4.84394">
        <ele>268</ele>
        <time>2018-07-17T08:37:48Z</time>
      </trkpt>
      <trkpt lat="45.94656" lon="4.84403">
        <ele>268</ele>
        <time>2018-07-17T08:37:49Z</time>
      </trkpt>
      <trkpt lat="45.94656" lon="4.8441">
        <ele>268</ele>
        <time>2018-07-17T08:37:50Z</time>
      </trkpt>
      <trkpt lat="45.94657" lon="4.84418">
        <ele>268</ele>
        <time>2018-07-17T08:37:51Z</time>
      </trkpt>
      <trkpt lat="45.94658" lon="4.84426">
        <ele>268</ele>
        <time>2018-07-17T08:37:52Z</time>
      </trkpt>
      <trkpt lat="45.94658" lon="4.84432">
        <ele>268</ele>
        <time>2018-07-17T08:37:53Z</time>
      </trkpt>
      <trkpt lat="45.94659" lon="4.84439">
        <ele>268</ele>
        <time>2018-07-17T08:37:54Z</time>
      </trkpt>
      <trkpt lat="45.9466" lon="4.84448">
        <ele>268</ele>
        <time>2018-07-17T08:37:55Z</time>
      </trkpt>
      <trkpt lat="45.94661" lon="4.84454">
        <ele>268</ele>
        <time>2018-07-17T08:37:56Z</time>
      </trkpt>
      <trkpt lat="45.94662" lon="4.84461">
        <ele>268</ele>
        <time>2018-07-17T08:37:57Z</time>
      </trkpt>
      <trkpt lat="45.94663" lon="4.84468">
        <ele>268</ele>
        <time>2018-07-17T08:37:58Z</time>
      </trkpt>
      <trkpt lat="45.94664" lon="4.84474">
        <ele>268</ele>
        <time>2018-07-17T08:37:59Z</time>
      </trkpt>
      <trkpt lat="45.94664" lon="4.84482">
        <ele>268</ele>
        <time>2018-07-17T08:38:00Z</time>
      </trkpt>
      <trkpt lat="45.94666" lon="4.84491">
        <ele>268</ele>
        <time>2018-07-17T08:38:01Z</time>
      </trkpt>
      <trkpt lat="45.94666" lon="4.84498">
        <ele>268</ele>
        <time>2018-07-17T08:38:02Z</time>
      </trkpt>
      <trkpt lat="45.94666" lon="4.84505">
        <ele>268</ele>
        <time>2018-07-17T08:38:03Z</time>
      </trkpt>
      <trkpt lat="45.94666" lon="4.84513">
        <ele>268</ele>
        <time>2018-07-17T08:38:04Z</time>
      </trkpt>
      <trkpt lat="45.94666" lon="4.84521">
        <ele>268</ele>
        <time>2018-07-17T08:38:05Z</time>
      </trkpt>
      <trkpt lat="45.94667" lon="4.84528">
        <ele>268</ele>
        <time>2018-07-17T08:38:06Z</time>
      </trkpt>
      <trkpt lat="45.94667" lon="4.84536">
        <ele>268</ele>
        <time>2018-07-17T08:38:07Z</time>
      </trkpt>
      <trkpt lat="45.94668" lon="4.84544">
        <ele>268</ele>
        <time>2018-07-17T08:38:08Z</time>
      </trkpt>
      <trkpt lat="45.94669" lon="4.84552">
        <ele>268</ele>
        <time>2018-07-17T08:38:09Z</time>
      </trkpt>
      <trkpt lat="45.9467" lon="4.8456">
        <ele>268</ele>
        <time>2018-07-17T08:38:10Z</time>
      </trkpt>
      <trkpt lat="45.9467" lon="4.84569">
        <ele>268</ele>
        <time>2018-07-17T08:38:11Z</time>
      </trkpt>
      <trkpt lat="45.94669" lon="4.84577">
        <ele>268</ele>
        <time>2018-07-17T08:38:12Z</time>
      </trkpt>
      <trkpt lat="45.94669" lon="4.84586">
        <ele>268</ele>
        <time>2018-07-17T08:38:13Z</time>
      </trkpt>
      <trkpt lat="45.94669" lon="4.84595">
        <ele>268</ele>
        <time>2018-07-17T08:38:14Z</time>
      </trkpt>
      <trkpt lat="45.94669" lon="4.84603">
        <ele>268</ele>
        <time>2018-07-17T08:38:15Z</time>
      </trkpt>
      <trkpt lat="45.94671" lon="4.84611">
        <ele>268</ele>
        <time>2018-07-17T08:38:16Z</time>
      </trkpt>
      <trkpt lat="45.94671" lon="4.84621">
        <ele>268</ele>
        <time>2018-07-17T08:38:17Z</time>
      </trkpt>
      <trkpt lat="45.94672" lon="4.84629">
        <ele>268</ele>
        <time>2018-07-17T08:38:18Z</time>
      </trkpt>
      <trkpt lat="45.94672" lon="4.84637">
        <ele>268</ele>
        <time>2018-07-17T08:38:19Z</time>
      </trkpt>
      <trkpt lat="45.94671" lon="4.84646">
        <ele>268</ele>
        <time>2018-07-17T08:38:20Z</time>
      </trkpt>
      <trkpt lat="45.94671" lon="4.84654">
        <ele>268</ele>
        <time>2018-07-17T08:38:21Z</time>
      </trkpt>
      <trkpt lat="45.94672" lon="4.84662">
        <ele>269</ele>
        <time>2018-07-17T08:38:22Z</time>
      </trkpt>
      <trkpt lat="45.94672" lon="4.8467">
        <ele>269</ele>
        <time>2018-07-17T08:38:23Z</time>
      </trkpt>
      <trkpt lat="45.94673" lon="4.84679">
        <ele>269</ele>
        <time>2018-07-17T08:38:24Z</time>
      </trkpt>
      <trkpt lat="45.94672" lon="4.84687">
        <ele>269</ele>
        <time>2018-07-17T08:38:25Z</time>
      </trkpt>
      <trkpt lat="45.94673" lon="4.84696">
        <ele>269</ele>
        <time>2018-07-17T08:38:26Z</time>
      </trkpt>
      <trkpt lat="45.94674" lon="4.84704">
        <ele>268</ele>
        <time>2018-07-17T08:38:27Z</time>
      </trkpt>
      <trkpt lat="45.94674" lon="4.84712">
        <ele>269</ele>
        <time>2018-07-17T08:38:28Z</time>
      </trkpt>
      <trkpt lat="45.94674" lon="4.8472">
        <ele>269</ele>
        <time>2018-07-17T08:38:29Z</time>
      </trkpt>
      <trkpt lat="45.94674" lon="4.84728">
        <ele>269</ele>
        <time>2018-07-17T08:38:30Z</time>
      </trkpt>
      <trkpt lat="45.94675" lon="4.84736">
        <ele>269</ele>
        <time>2018-07-17T08:38:31Z</time>
      </trkpt>
      <trkpt lat="45.94674" lon="4.84743">
        <ele>269</ele>
        <time>2018-07-17T08:38:32Z</time>
      </trkpt>
      <trkpt lat="45.94675" lon="4.84751">
        <ele>269</ele>
        <time>2018-07-17T08:38:33Z</time>
      </trkpt>
      <trkpt lat="45.94675" lon="4.84759">
        <ele>269</ele>
        <time>2018-07-17T08:38:34Z</time>
      </trkpt>
      <trkpt lat="45.94677" lon="4.84767">
        <ele>269</ele>
        <time>2018-07-17T08:38:35Z</time>
      </trkpt>
      <trkpt lat="45.94677" lon="4.84775">
        <ele>269</ele>
        <time>2018-07-17T08:38:36Z</time>
      </trkpt>
      <trkpt lat="45.94678" lon="4.84782">
        <ele>269</ele>
        <time>2018-07-17T08:38:37Z</time>
      </trkpt>
      <trkpt lat="45.94679" lon="4.8479">
        <ele>269</ele>
        <time>2018-07-17T08:38:38Z</time>
      </trkpt>
      <trkpt lat="45.94679" lon="4.84796">
        <ele>268</ele>
        <time>2018-07-17T08:38:39Z</time>
      </trkpt>
      <trkpt lat="45.94681" lon="4.84803">
        <ele>268</ele>
        <time>2018-07-17T08:38:40Z</time>
      </trkpt>
      <trkpt lat="45.94681" lon="4.84811">
        <ele>268</ele>
        <time>2018-07-17T08:38:41Z</time>
      </trkpt>
      <trkpt lat="45.94682" lon="4.84819">
        <ele>268</ele>
        <time>2018-07-17T08:38:42Z</time>
      </trkpt>
      <trkpt lat="45.94683" lon="4.84827">
        <ele>268</ele>
        <time>2018-07-17T08:38:43Z</time>
      </trkpt>
      <trkpt lat="45.94684" lon="4.84836">
        <ele>268</ele>
        <time>2018-07-17T08:38:44Z</time>
      </trkpt>
      <trkpt lat="45.94684" lon="4.84844">
        <ele>268</ele>
        <time>2018-07-17T08:38:45Z</time>
      </trkpt>
      <trkpt lat="45.94685" lon="4.84853">
        <ele>268</ele>
        <time>2018-07-17T08:38:46Z</time>
      </trkpt>
      <trkpt lat="45.94685" lon="4.84861">
        <ele>268</ele>
        <time>2018-07-17T08:38:47Z</time>
      </trkpt>
      <trkpt lat="45.94689" lon="4.84869">
        <ele>268</ele>
        <time>2018-07-17T08:38:48Z</time>
      </trkpt>
      <trkpt lat="45.9469" lon="4.84878">
        <ele>268</ele>
        <time>2018-07-17T08:38:49Z</time>
      </trkpt>
      <trkpt lat="45.94691" lon="4.84887">
        <ele>268</ele>
        <time>2018-07-17T08:38:50Z</time>
      </trkpt>
      <trkpt lat="45.94689" lon="4.84895">
        <ele>268</ele>
        <time>2018-07-17T08:38:51Z</time>
      </trkpt>
      <trkpt lat="45.9469" lon="4.84902">
        <ele>268</ele>
        <time>2018-07-17T08:38:52Z</time>
      </trkpt>
      <trkpt lat="45.94691" lon="4.84909">
        <ele>268</ele>
        <time>2018-07-17T08:38:53Z</time>
      </trkpt>
      <trkpt lat="45.94691" lon="4.84918">
        <ele>269</ele>
        <time>2018-07-17T08:38:54Z</time>
      </trkpt>
      <trkpt lat="45.94693" lon="4.84926">
        <ele>269</ele>
        <time>2018-07-17T08:38:55Z</time>
      </trkpt>
      <trkpt lat="45.94693" lon="4.84933">
        <ele>269</ele>
        <time>2018-07-17T08:38:56Z</time>
      </trkpt>
      <trkpt lat="45.94695" lon="4.84941">
        <ele>269</ele>
        <time>2018-07-17T08:38:57Z</time>
      </trkpt>
      <trkpt lat="45.94695" lon="4.84948">
        <ele>269</ele>
        <time>2018-07-17T08:38:58Z</time>
      </trkpt>
      <trkpt lat="45.94696" lon="4.84956">
        <ele>269</ele>
        <time>2018-07-17T08:38:59Z</time>
      </trkpt>
      <trkpt lat="45.94698" lon="4.84963">
        <ele>269</ele>
        <time>2018-07-17T08:39:00Z</time>
      </trkpt>
      <trkpt lat="45.94699" lon="4.8497">
        <ele>269</ele>
        <time>2018-07-17T08:39:01Z</time>
      </trkpt>
      <trkpt lat="45.94699" lon="4.84977">
        <ele>269</ele>
        <time>2018-07-17T08:39:02Z</time>
      </trkpt>
      <trkpt lat="45.947" lon="4.84986">
        <ele>269</ele>
        <time>2018-07-17T08:39:03Z</time>
      </trkpt>
      <trkpt lat="45.94701" lon="4.84994">
        <ele>269</ele>
        <time>2018-07-17T08:39:04Z</time>
      </trkpt>
      <trkpt lat="45.94701" lon="4.85002">
        <ele>269</ele>
        <time>2018-07-17T08:39:05Z</time>
      </trkpt>
      <trkpt lat="45.94703" lon="4.85011">
        <ele>269</ele>
        <time>2018-07-17T08:39:06Z</time>
      </trkpt>
      <trkpt lat="45.94704" lon="4.85018">
        <ele>269</ele>
        <time>2018-07-17T08:39:07Z</time>
      </trkpt>
      <trkpt lat="45.94705" lon="4.85027">
        <ele>269</ele>
        <time>2018-07-17T08:39:08Z</time>
      </trkpt>
      <trkpt lat="45.94705" lon="4.85034">
        <ele>269</ele>
        <time>2018-07-17T08:39:09Z</time>
      </trkpt>
      <trkpt lat="45.94705" lon="4.85042">
        <ele>269</ele>
        <time>2018-07-17T08:39:10Z</time>
      </trkpt>
      <trkpt lat="45.94706" lon="4.85049">
        <ele>269</ele>
        <time>2018-07-17T08:39:11Z</time>
      </trkpt>
      <trkpt lat="45.94706" lon="4.85056">
        <ele>269</ele>
        <time>2018-07-17T08:39:12Z</time>
      </trkpt>
      <trkpt lat="45.94705" lon="4.85064">
        <ele>269</ele>
        <time>2018-07-17T08:39:13Z</time>
      </trkpt>
      <trkpt lat="45.94707" lon="4.85072">
        <ele>269</ele>
        <time>2018-07-17T08:39:14Z</time>
      </trkpt>
      <trkpt lat="45.94707" lon="4.85079">
        <ele>269</ele>
        <time>2018-07-17T08:39:15Z</time>
      </trkpt>
      <trkpt lat="45.9471" lon="4.85085">
        <ele>269</ele>
        <time>2018-07-17T08:39:16Z</time>
      </trkpt>
      <trkpt lat="45.9471" lon="4.85093">
        <ele>269</ele>
        <time>2018-07-17T08:39:17Z</time>
      </trkpt>
      <trkpt lat="45.9471" lon="4.851">
        <ele>269</ele>
        <time>2018-07-17T08:39:18Z</time>
      </trkpt>
      <trkpt lat="45.94712" lon="4.8511">
        <ele>269</ele>
        <time>2018-07-17T08:39:19Z</time>
      </trkpt>
      <trkpt lat="45.94713" lon="4.85118">
        <ele>269</ele>
        <time>2018-07-17T08:39:20Z</time>
      </trkpt>
      <trkpt lat="45.94714" lon="4.85126">
        <ele>269</ele>
        <time>2018-07-17T08:39:21Z</time>
      </trkpt>
      <trkpt lat="45.94717" lon="4.85134">
        <ele>269</ele>
        <time>2018-07-17T08:39:22Z</time>
      </trkpt>
      <trkpt lat="45.94718" lon="4.85142">
        <ele>269</ele>
        <time>2018-07-17T08:39:23Z</time>
      </trkpt>
      <trkpt lat="45.94718" lon="4.85149">
        <ele>269</ele>
        <time>2018-07-17T08:39:24Z</time>
      </trkpt>
      <trkpt lat="45.94717" lon="4.85157">
        <ele>269</ele>
        <time>2018-07-17T08:39:25Z</time>
      </trkpt>
      <trkpt lat="45.94718" lon="4.85165">
        <ele>269</ele>
        <time>2018-07-17T08:39:26Z</time>
      </trkpt>
      <trkpt lat="45.9472" lon="4.85175">
        <ele>269</ele>
        <time>2018-07-17T08:39:27Z</time>
      </trkpt>
      <trkpt lat="45.94721" lon="4.85183">
        <ele>269</ele>
        <time>2018-07-17T08:39:28Z</time>
      </trkpt>
      <trkpt lat="45.94721" lon="4.85192">
        <ele>269</ele>
        <time>2018-07-17T08:39:29Z</time>
      </trkpt>
      <trkpt lat="45.94722" lon="4.852">
        <ele>269</ele>
        <time>2018-07-17T08:39:30Z</time>
      </trkpt>
      <trkpt lat="45.94723" lon="4.85208">
        <ele>269</ele>
        <time>2018-07-17T08:39:31Z</time>
      </trkpt>
      <trkpt lat="45.94724" lon="4.85215">
        <ele>269</ele>
        <time>2018-07-17T08:39:32Z</time>
      </trkpt>
      <trkpt lat="45.94725" lon="4.85223">
        <ele>269</ele>
        <time>2018-07-17T08:39:33Z</time>
      </trkpt>
      <trkpt lat="45.94726" lon="4.85231">
        <ele>269</ele>
        <time>2018-07-17T08:39:34Z</time>
      </trkpt>
      <trkpt lat="45.94726" lon="4.85238">
        <ele>269</ele>
        <time>2018-07-17T08:39:35Z</time>
      </trkpt>
      <trkpt lat="45.94727" lon="4.85247">
        <ele>269</ele>
        <time>2018-07-17T08:39:36Z</time>
      </trkpt>
      <trkpt lat="45.94727" lon="4.85255">
        <ele>269</ele>
        <time>2018-07-17T08:39:37Z</time>
      </trkpt>
      <trkpt lat="45.94728" lon="4.85264">
        <ele>269</ele>
        <time>2018-07-17T08:39:38Z</time>
      </trkpt>
      <trkpt lat="45.9473" lon="4.85273">
        <ele>269</ele>
        <time>2018-07-17T08:39:39Z</time>
      </trkpt>
      <trkpt lat="45.9473" lon="4.8528">
        <ele>269</ele>
        <time>2018-07-17T08:39:40Z</time>
      </trkpt>
      <trkpt lat="45.94731" lon="4.85288">
        <ele>269</ele>
        <time>2018-07-17T08:39:41Z</time>
      </trkpt>
      <trkpt lat="45.94731" lon="4.85296">
        <ele>270</ele>
        <time>2018-07-17T08:39:42Z</time>
      </trkpt>
      <trkpt lat="45.94732" lon="4.85305">
        <ele>270</ele>
        <time>2018-07-17T08:39:43Z</time>
      </trkpt>
      <trkpt lat="45.94733" lon="4.85314">
        <ele>270</ele>
        <time>2018-07-17T08:39:44Z</time>
      </trkpt>
      <trkpt lat="45.94735" lon="4.85322">
        <ele>270</ele>
        <time>2018-07-17T08:39:45Z</time>
      </trkpt>
      <trkpt lat="45.94735" lon="4.8533">
        <ele>270</ele>
        <time>2018-07-17T08:39:46Z</time>
      </trkpt>
      <trkpt lat="45.94736" lon="4.85338">
        <ele>271</ele>
        <time>2018-07-17T08:39:47Z</time>
      </trkpt>
      <trkpt lat="45.94738" lon="4.85346">
        <ele>271</ele>
        <time>2018-07-17T08:39:48Z</time>
      </trkpt>
      <trkpt lat="45.94739" lon="4.85354">
        <ele>271</ele>
        <time>2018-07-17T08:39:49Z</time>
      </trkpt>
      <trkpt lat="45.94741" lon="4.85364">
        <ele>271</ele>
        <time>2018-07-17T08:39:50Z</time>
      </trkpt>
      <trkpt lat="45.94743" lon="4.85373">
        <ele>271</ele>
        <time>2018-07-17T08:39:51Z</time>
      </trkpt>
      <trkpt lat="45.94745" lon="4.85381">
        <ele>271</ele>
        <time>2018-07-17T08:39:52Z</time>
      </trkpt>
      <trkpt lat="45.94745" lon="4.8539">
        <ele>272</ele>
        <time>2018-07-17T08:39:53Z</time>
      </trkpt>
      <trkpt lat="45.94745" lon="4.85398">
        <ele>272</ele>
        <time>2018-07-17T08:39:54Z</time>
      </trkpt>
      <trkpt lat="45.94747" lon="4.85406">
        <ele>272</ele>
        <time>2018-07-17T08:39:55Z</time>
      </trkpt>
      <trkpt lat="45.94747" lon="4.85414">
        <ele>273</ele>
        <time>2018-07-17T08:39:56Z</time>
      </trkpt>
      <trkpt lat="45.94748" lon="4.85422">
        <ele>273</ele>
        <time>2018-07-17T08:39:57Z</time>
      </trkpt>
      <trkpt lat="45.94748" lon="4.85429">
        <ele>273</ele>
        <time>2018-07-17T08:39:58Z</time>
      </trkpt>
      <trkpt lat="45.9475" lon="4.85436">
        <ele>274</ele>
        <time>2018-07-17T08:39:59Z</time>
      </trkpt>
      <trkpt lat="45.9475" lon="4.85443">
        <ele>274</ele>
        <time>2018-07-17T08:40:00Z</time>
      </trkpt>
      <trkpt lat="45.9475" lon="4.85449">
        <ele>275</ele>
        <time>2018-07-17T08:40:01Z</time>
      </trkpt>
      <trkpt lat="45.94751" lon="4.85457">
        <ele>275</ele>
        <time>2018-07-17T08:40:02Z</time>
      </trkpt>
      <trkpt lat="45.94752" lon="4.85464">
        <ele>275</ele>
        <time>2018-07-17T08:40:03Z</time>
      </trkpt>
      <trkpt lat="45.94751" lon="4.85475">
        <ele>275</ele>
        <time>2018-07-17T08:40:05Z</time>
      </trkpt>
      <trkpt lat="45.94753" lon="4.8548">
        <ele>275</ele>
        <time>2018-07-17T08:40:06Z</time>
      </trkpt>
      <trkpt lat="45.94755" lon="4.85491">
        <ele>276</ele>
        <time>2018-07-17T08:40:08Z</time>
      </trkpt>
      <trkpt lat="45.94755" lon="4.85498">
        <ele>276</ele>
        <time>2018-07-17T08:40:09Z</time>
      </trkpt>
      <trkpt lat="45.94756" lon="4.85505">
        <ele>277</ele>
        <time>2018-07-17T08:40:10Z</time>
      </trkpt>
      <trkpt lat="45.94757" lon="4.85511">
        <ele>277</ele>
        <time>2018-07-17T08:40:11Z</time>
      </trkpt>
      <trkpt lat="45.94759" lon="4.85522">
        <ele>277</ele>
        <time>2018-07-17T08:40:13Z</time>
      </trkpt>
      <trkpt lat="45.94761" lon="4.85527">
        <ele>278</ele>
        <time>2018-07-17T08:40:14Z</time>
      </trkpt>
      <trkpt lat="45.94763" lon="4.85538">
        <ele>278</ele>
        <time>2018-07-17T08:40:16Z</time>
      </trkpt>
      <trkpt lat="45.94764" lon="4.85543">
        <ele>278</ele>
        <time>2018-07-17T08:40:17Z</time>
      </trkpt>
      <trkpt lat="45.94766" lon="4.85554">
        <ele>278</ele>
        <time>2018-07-17T08:40:19Z</time>
      </trkpt>
      <trkpt lat="45.94768" lon="4.8556">
        <ele>278</ele>
        <time>2018-07-17T08:40:20Z</time>
      </trkpt>
      <trkpt lat="45.9477" lon="4.8557">
        <ele>279</ele>
        <time>2018-07-17T08:40:22Z</time>
      </trkpt>
      <trkpt lat="45.94772" lon="4.85576">
        <ele>279</ele>
        <time>2018-07-17T08:40:23Z</time>
      </trkpt>
      <trkpt lat="45.94773" lon="4.85588">
        <ele>280</ele>
        <time>2018-07-17T08:40:25Z</time>
      </trkpt>
      <trkpt lat="45.94774" lon="4.85594">
        <ele>280</ele>
        <time>2018-07-17T08:40:26Z</time>
      </trkpt>
      <trkpt lat="45.94775" lon="4.856">
        <ele>280</ele>
        <time>2018-07-17T08:40:27Z</time>
      </trkpt>
      <trkpt lat="45.94776" lon="4.85607">
        <ele>280</ele>
        <time>2018-07-17T08:40:28Z</time>
      </trkpt>
      <trkpt lat="45.94778" lon="4.85616">
        <ele>280</ele>
        <time>2018-07-17T08:40:29Z</time>
      </trkpt>
      <trkpt lat="45.94779" lon="4.85622">
        <ele>280</ele>
        <time>2018-07-17T08:40:30Z</time>
      </trkpt>
      <trkpt lat="45.94782" lon="4.85633">
        <ele>281</ele>
        <time>2018-07-17T08:40:32Z</time>
      </trkpt>
      <trkpt lat="45.94784" lon="4.8564">
        <ele>281</ele>
        <time>2018-07-17T08:40:33Z</time>
      </trkpt>
      <trkpt lat="45.94786" lon="4.8565">
        <ele>281</ele>
        <time>2018-07-17T08:40:35Z</time>
      </trkpt>
      <trkpt lat="45.94787" lon="4.85655">
        <ele>281</ele>
        <time>2018-07-17T08:40:36Z</time>
      </trkpt>
      <trkpt lat="45.94788" lon="4.85667">
        <ele>280</ele>
        <time>2018-07-17T08:40:38Z</time>
      </trkpt>
      <trkpt lat="45.9479" lon="4.85672">
        <ele>280</ele>
        <time>2018-07-17T08:40:39Z</time>
      </trkpt>
      <trkpt lat="45.94792" lon="4.85683">
        <ele>280</ele>
        <time>2018-07-17T08:40:41Z</time>
      </trkpt>
      <trkpt lat="45.94794" lon="4.85689">
        <ele>280</ele>
        <time>2018-07-17T08:40:42Z</time>
      </trkpt>
      <trkpt lat="45.94796" lon="4.857">
        <ele>280</ele>
        <time>2018-07-17T08:40:44Z</time>
      </trkpt>
      <trkpt lat="45.94798" lon="4.85706">
        <ele>280</ele>
        <time>2018-07-17T08:40:45Z</time>
      </trkpt>
      <trkpt lat="45.94799" lon="4.85712">
        <ele>280</ele>
        <time>2018-07-17T08:40:46Z</time>
      </trkpt>
      <trkpt lat="45.94803" lon="4.85718">
        <ele>280</ele>
        <time>2018-07-17T08:40:47Z</time>
      </trkpt>
      <trkpt lat="45.94805" lon="4.85729">
        <ele>280</ele>
        <time>2018-07-17T08:40:49Z</time>
      </trkpt>
      <trkpt lat="45.94805" lon="4.85736">
        <ele>279</ele>
        <time>2018-07-17T08:40:50Z</time>
      </trkpt>
      <trkpt lat="45.94808" lon="4.85743">
        <ele>279</ele>
        <time>2018-07-17T08:40:51Z</time>
      </trkpt>
      <trkpt lat="45.94809" lon="4.85751">
        <ele>278</ele>
        <time>2018-07-17T08:40:52Z</time>
      </trkpt>
      <trkpt lat="45.94811" lon="4.85758">
        <ele>278</ele>
        <time>2018-07-17T08:40:53Z</time>
      </trkpt>
      <trkpt lat="45.94812" lon="4.85765">
        <ele>278</ele>
        <time>2018-07-17T08:40:54Z</time>
      </trkpt>
      <trkpt lat="45.94814" lon="4.85772">
        <ele>278</ele>
        <time>2018-07-17T08:40:55Z</time>
      </trkpt>
      <trkpt lat="45.94817" lon="4.85779">
        <ele>278</ele>
        <time>2018-07-17T08:40:56Z</time>
      </trkpt>
      <trkpt lat="45.94818" lon="4.85787">
        <ele>278</ele>
        <time>2018-07-17T08:40:57Z</time>
      </trkpt>
      <trkpt lat="45.9482" lon="4.85795">
        <ele>278</ele>
        <time>2018-07-17T08:40:58Z</time>
      </trkpt>
      <trkpt lat="45.94822" lon="4.85802">
        <ele>278</ele>
        <time>2018-07-17T08:40:59Z</time>
      </trkpt>
      <trkpt lat="45.94824" lon="4.85809">
        <ele>278</ele>
        <time>2018-07-17T08:41:00Z</time>
      </trkpt>
      <trkpt lat="45.94825" lon="4.85815">
        <ele>278</ele>
        <time>2018-07-17T08:41:01Z</time>
      </trkpt>
      <trkpt lat="45.94827" lon="4.85821">
        <ele>278</ele>
        <time>2018-07-17T08:41:02Z</time>
      </trkpt>
      <trkpt lat="45.94828" lon="4.85828">
        <ele>277</ele>
        <time>2018-07-17T08:41:03Z</time>
      </trkpt>
      <trkpt lat="45.9483" lon="4.85834">
        <ele>277</ele>
        <time>2018-07-17T08:41:04Z</time>
      </trkpt>
      <trkpt lat="45.94832" lon="4.85841">
        <ele>277</ele>
        <time>2018-07-17T08:41:05Z</time>
      </trkpt>
      <trkpt lat="45.94833" lon="4.85849">
        <ele>277</ele>
        <time>2018-07-17T08:41:06Z</time>
      </trkpt>
      <trkpt lat="45.94836" lon="4.85857">
        <ele>276</ele>
        <time>2018-07-17T08:41:07Z</time>
      </trkpt>
      <trkpt lat="45.94837" lon="4.85863">
        <ele>276</ele>
        <time>2018-07-17T08:41:08Z</time>
      </trkpt>
      <trkpt lat="45.94839" lon="4.8587">
        <ele>276</ele>
        <time>2018-07-17T08:41:09Z</time>
      </trkpt>
      <trkpt lat="45.94841" lon="4.85877">
        <ele>276</ele>
        <time>2018-07-17T08:41:10Z</time>
      </trkpt>
      <trkpt lat="45.94842" lon="4.85884">
        <ele>276</ele>
        <time>2018-07-17T08:41:11Z</time>
      </trkpt>
      <trkpt lat="45.94844" lon="4.85891">
        <ele>276</ele>
        <time>2018-07-17T08:41:12Z</time>
      </trkpt>
      <trkpt lat="45.94846" lon="4.85897">
        <ele>276</ele>
        <time>2018-07-17T08:41:13Z</time>
      </trkpt>
      <trkpt lat="45.94847" lon="4.85904">
        <ele>276</ele>
        <time>2018-07-17T08:41:14Z</time>
      </trkpt>
      <trkpt lat="45.9485" lon="4.85911">
        <ele>275</ele>
        <time>2018-07-17T08:41:15Z</time>
      </trkpt>
      <trkpt lat="45.94852" lon="4.85919">
        <ele>275</ele>
        <time>2018-07-17T08:41:16Z</time>
      </trkpt>
      <trkpt lat="45.94853" lon="4.85927">
        <ele>275</ele>
        <time>2018-07-17T08:41:17Z</time>
      </trkpt>
      <trkpt lat="45.94856" lon="4.85933">
        <ele>275</ele>
        <time>2018-07-17T08:41:18Z</time>
      </trkpt>
      <trkpt lat="45.94858" lon="4.8594">
        <ele>275</ele>
        <time>2018-07-17T08:41:19Z</time>
      </trkpt>
      <trkpt lat="45.9486" lon="4.85946">
        <ele>275</ele>
        <time>2018-07-17T08:41:20Z</time>
      </trkpt>
      <trkpt lat="45.94861" lon="4.85953">
        <ele>275</ele>
        <time>2018-07-17T08:41:21Z</time>
      </trkpt>
      <trkpt lat="45.94863" lon="4.85961">
        <ele>275</ele>
        <time>2018-07-17T08:41:22Z</time>
      </trkpt>
      <trkpt lat="45.94865" lon="4.85968">
        <ele>275</ele>
        <time>2018-07-17T08:41:23Z</time>
      </trkpt>
      <trkpt lat="45.94868" lon="4.85976">
        <ele>275</ele>
        <time>2018-07-17T08:41:24Z</time>
      </trkpt>
      <trkpt lat="45.94869" lon="4.85985">
        <ele>275</ele>
        <time>2018-07-17T08:41:25Z</time>
      </trkpt>
      <trkpt lat="45.94871" lon="4.85994">
        <ele>275</ele>
        <time>2018-07-17T08:41:26Z</time>
      </trkpt>
      <trkpt lat="45.94873" lon="4.86003">
        <ele>274</ele>
        <time>2018-07-17T08:41:27Z</time>
      </trkpt>
      <trkpt lat="45.94876" lon="4.86012">
        <ele>274</ele>
        <time>2018-07-17T08:41:28Z</time>
      </trkpt>
      <trkpt lat="45.94878" lon="4.8602">
        <ele>274</ele>
        <time>2018-07-17T08:41:29Z</time>
      </trkpt>
      <trkpt lat="45.94881" lon="4.86028">
        <ele>274</ele>
        <time>2018-07-17T08:41:30Z</time>
      </trkpt>
      <trkpt lat="45.94883" lon="4.86035">
        <ele>274</ele>
        <time>2018-07-17T08:41:31Z</time>
      </trkpt>
      <trkpt lat="45.94885" lon="4.86043">
        <ele>274</ele>
        <time>2018-07-17T08:41:32Z</time>
      </trkpt>
      <trkpt lat="45.94887" lon="4.8605">
        <ele>274</ele>
        <time>2018-07-17T08:41:33Z</time>
      </trkpt>
      <trkpt lat="45.94889" lon="4.86057">
        <ele>274</ele>
        <time>2018-07-17T08:41:34Z</time>
      </trkpt>
      <trkpt lat="45.94891" lon="4.86065">
        <ele>274</ele>
        <time>2018-07-17T08:41:35Z</time>
      </trkpt>
      <trkpt lat="45.94892" lon="4.86072">
        <ele>274</ele>
        <time>2018-07-17T08:41:36Z</time>
      </trkpt>
      <trkpt lat="45.94894" lon="4.86079">
        <ele>274</ele>
        <time>2018-07-17T08:41:37Z</time>
      </trkpt>
      <trkpt lat="45.94899" lon="4.86085">
        <ele>274</ele>
        <time>2018-07-17T08:41:38Z</time>
      </trkpt>
      <trkpt lat="45.94901" lon="4.86093">
        <ele>274</ele>
        <time>2018-07-17T08:41:39Z</time>
      </trkpt>
      <trkpt lat="45.94903" lon="4.861">
        <ele>274</ele>
        <time>2018-07-17T08:41:40Z</time>
      </trkpt>
      <trkpt lat="45.94906" lon="4.86107">
        <ele>274</ele>
        <time>2018-07-17T08:41:41Z</time>
      </trkpt>
      <trkpt lat="45.94909" lon="4.86113">
        <ele>274</ele>
        <time>2018-07-17T08:41:42Z</time>
      </trkpt>
      <trkpt lat="45.94912" lon="4.8612">
        <ele>274</ele>
        <time>2018-07-17T08:41:43Z</time>
      </trkpt>
      <trkpt lat="45.94915" lon="4.86126">
        <ele>274</ele>
        <time>2018-07-17T08:41:44Z</time>
      </trkpt>
      <trkpt lat="45.94919" lon="4.86132">
        <ele>273</ele>
        <time>2018-07-17T08:41:45Z</time>
      </trkpt>
      <trkpt lat="45.94922" lon="4.86139">
        <ele>273</ele>
        <time>2018-07-17T08:41:46Z</time>
      </trkpt>
      <trkpt lat="45.94926" lon="4.86144">
        <ele>273</ele>
        <time>2018-07-17T08:41:47Z</time>
      </trkpt>
      <trkpt lat="45.9493" lon="4.8615">
        <ele>273</ele>
        <time>2018-07-17T08:41:48Z</time>
      </trkpt>
      <trkpt lat="45.94935" lon="4.86155">
        <ele>273</ele>
        <time>2018-07-17T08:41:49Z</time>
      </trkpt>
      <trkpt lat="45.94938" lon="4.86163">
        <ele>273</ele>
        <time>2018-07-17T08:41:50Z</time>
      </trkpt>
      <trkpt lat="45.94943" lon="4.86169">
        <ele>273</ele>
        <time>2018-07-17T08:41:51Z</time>
      </trkpt>
      <trkpt lat="45.94947" lon="4.86176">
        <ele>273</ele>
        <time>2018-07-17T08:41:52Z</time>
      </trkpt>
      <trkpt lat="45.94954" lon="4.86182">
        <ele>273</ele>
        <time>2018-07-17T08:41:53Z</time>
      </trkpt>
      <trkpt lat="45.94959" lon="4.86189">
        <ele>272</ele>
        <time>2018-07-17T08:41:54Z</time>
      </trkpt>
      <trkpt lat="45.94964" lon="4.86195">
        <ele>272</ele>
        <time>2018-07-17T08:41:55Z</time>
      </trkpt>
      <trkpt lat="45.94969" lon="4.86201">
        <ele>272</ele>
        <time>2018-07-17T08:41:56Z</time>
      </trkpt>
      <trkpt lat="45.94974" lon="4.86206">
        <ele>272</ele>
        <time>2018-07-17T08:41:57Z</time>
      </trkpt>
      <trkpt lat="45.94979" lon="4.86212">
        <ele>272</ele>
        <time>2018-07-17T08:41:58Z</time>
      </trkpt>
      <trkpt lat="45.94983" lon="4.86218">
        <ele>272</ele>
        <time>2018-07-17T08:41:59Z</time>
      </trkpt>
      <trkpt lat="45.94988" lon="4.86224">
        <ele>272</ele>
        <time>2018-07-17T08:42:00Z</time>
      </trkpt>
      <trkpt lat="45.94993" lon="4.8623">
        <ele>272</ele>
        <time>2018-07-17T08:42:01Z</time>
      </trkpt>
      <trkpt lat="45.94998" lon="4.86236">
        <ele>272</ele>
        <time>2018-07-17T08:42:02Z</time>
      </trkpt>
      <trkpt lat="45.95003" lon="4.86242">
        <ele>272</ele>
        <time>2018-07-17T08:42:03Z</time>
      </trkpt>
      <trkpt lat="45.95008" lon="4.86248">
        <ele>272</ele>
        <time>2018-07-17T08:42:04Z</time>
      </trkpt>
      <trkpt lat="45.95015" lon="4.86254">
        <ele>272</ele>
        <time>2018-07-17T08:42:05Z</time>
      </trkpt>
      <trkpt lat="45.95018" lon="4.8626">
        <ele>271</ele>
        <time>2018-07-17T08:42:06Z</time>
      </trkpt>
      <trkpt lat="45.95022" lon="4.86266">
        <ele>271</ele>
        <time>2018-07-17T08:42:07Z</time>
      </trkpt>
      <trkpt lat="45.95027" lon="4.86273">
        <ele>271</ele>
        <time>2018-07-17T08:42:08Z</time>
      </trkpt>
      <trkpt lat="45.95031" lon="4.86278">
        <ele>271</ele>
        <time>2018-07-17T08:42:09Z</time>
      </trkpt>
      <trkpt lat="45.95036" lon="4.86284">
        <ele>271</ele>
        <time>2018-07-17T08:42:10Z</time>
      </trkpt>
      <trkpt lat="45.95041" lon="4.8629">
        <ele>271</ele>
        <time>2018-07-17T08:42:11Z</time>
      </trkpt>
      <trkpt lat="45.95046" lon="4.86297">
        <ele>271</ele>
        <time>2018-07-17T08:42:12Z</time>
      </trkpt>
      <trkpt lat="45.95051" lon="4.86302">
        <ele>271</ele>
        <time>2018-07-17T08:42:13Z</time>
      </trkpt>
      <trkpt lat="45.95054" lon="4.86308">
        <ele>271</ele>
        <time>2018-07-17T08:42:14Z</time>
      </trkpt>
      <trkpt lat="45.95059" lon="4.86315">
        <ele>271</ele>
        <time>2018-07-17T08:42:15Z</time>
      </trkpt>
      <trkpt lat="45.95064" lon="4.8632">
        <ele>270</ele>
        <time>2018-07-17T08:42:16Z</time>
      </trkpt>
      <trkpt lat="45.95068" lon="4.86326">
        <ele>270</ele>
        <time>2018-07-17T08:42:17Z</time>
      </trkpt>
      <trkpt lat="45.95074" lon="4.8633">
        <ele>270</ele>
        <time>2018-07-17T08:42:18Z</time>
      </trkpt>
      <trkpt lat="45.95079" lon="4.86336">
        <ele>269</ele>
        <time>2018-07-17T08:42:19Z</time>
      </trkpt>
      <trkpt lat="45.95084" lon="4.86342">
        <ele>269</ele>
        <time>2018-07-17T08:42:20Z</time>
      </trkpt>
      <trkpt lat="45.95089" lon="4.86348">
        <ele>269</ele>
        <time>2018-07-17T08:42:21Z</time>
      </trkpt>
      <trkpt lat="45.95094" lon="4.8635">
        <ele>269</ele>
        <time>2018-07-17T08:42:22Z</time>
      </trkpt>
      <trkpt lat="45.95099" lon="4.86357">
        <ele>269</ele>
        <time>2018-07-17T08:42:23Z</time>
      </trkpt>
      <trkpt lat="45.95103" lon="4.86363">
        <ele>269</ele>
        <time>2018-07-17T08:42:24Z</time>
      </trkpt>
      <trkpt lat="45.95108" lon="4.86369">
        <ele>269</ele>
        <time>2018-07-17T08:42:25Z</time>
      </trkpt>
      <trkpt lat="45.95112" lon="4.86375">
        <ele>269</ele>
        <time>2018-07-17T08:42:26Z</time>
      </trkpt>
      <trkpt lat="45.95117" lon="4.86381">
        <ele>269</ele>
        <time>2018-07-17T08:42:27Z</time>
      </trkpt>
      <trkpt lat="45.95121" lon="4.86388">
        <ele>269</ele>
        <time>2018-07-17T08:42:28Z</time>
      </trkpt>
      <trkpt lat="45.95127" lon="4.86393">
        <ele>268</ele>
        <time>2018-07-17T08:42:29Z</time>
      </trkpt>
      <trkpt lat="45.95131" lon="4.86398">
        <ele>268</ele>
        <time>2018-07-17T08:42:30Z</time>
      </trkpt>
      <trkpt lat="45.95136" lon="4.86402">
        <ele>268</ele>
        <time>2018-07-17T08:42:31Z</time>
      </trkpt>
      <trkpt lat="45.95141" lon="4.86409">
        <ele>268</ele>
        <time>2018-07-17T08:42:32Z</time>
      </trkpt>
      <trkpt lat="45.95145" lon="4.86415">
        <ele>268</ele>
        <time>2018-07-17T08:42:33Z</time>
      </trkpt>
      <trkpt lat="45.95149" lon="4.86421">
        <ele>268</ele>
        <time>2018-07-17T08:42:34Z</time>
      </trkpt>
      <trkpt lat="45.95154" lon="4.86427">
        <ele>268</ele>
        <time>2018-07-17T08:42:35Z</time>
      </trkpt>
      <trkpt lat="45.95159" lon="4.86433">
        <ele>268</ele>
        <time>2018-07-17T08:42:36Z</time>
      </trkpt>
      <trkpt lat="45.95163" lon="4.86438">
        <ele>268</ele>
        <time>2018-07-17T08:42:37Z</time>
      </trkpt>
      <trkpt lat="45.95169" lon="4.86443">
        <ele>267</ele>
        <time>2018-07-17T08:42:38Z</time>
      </trkpt>
      <trkpt lat="45.95172" lon="4.86449">
        <ele>268</ele>
        <time>2018-07-17T08:42:39Z</time>
      </trkpt>
      <trkpt lat="45.95177" lon="4.86455">
        <ele>268</ele>
        <time>2018-07-17T08:42:40Z</time>
      </trkpt>
      <trkpt lat="45.95181" lon="4.86461">
        <ele>268</ele>
        <time>2018-07-17T08:42:41Z</time>
      </trkpt>
      <trkpt lat="45.95186" lon="4.86467">
        <ele>268</ele>
        <time>2018-07-17T08:42:42Z</time>
      </trkpt>
      <trkpt lat="45.95191" lon="4.86474">
        <ele>268</ele>
        <time>2018-07-17T08:42:43Z</time>
      </trkpt>
      <trkpt lat="45.95197" lon="4.86479">
        <ele>268</ele>
        <time>2018-07-17T08:42:44Z</time>
      </trkpt>
      <trkpt lat="45.95203" lon="4.86485">
        <ele>268</ele>
        <time>2018-07-17T08:42:45Z</time>
      </trkpt>
      <trkpt lat="45.95208" lon="4.86491">
        <ele>268</ele>
        <time>2018-07-17T08:42:46Z</time>
      </trkpt>
      <trkpt lat="45.95212" lon="4.86498">
        <ele>268</ele>
        <time>2018-07-17T08:42:47Z</time>
      </trkpt>
      <trkpt lat="45.95224" lon="4.86504">
        <ele>268</ele>
        <time>2018-07-17T08:42:48Z</time>
      </trkpt>
      <trkpt lat="45.9523" lon="4.86511">
        <ele>268</ele>
        <time>2018-07-17T08:42:49Z</time>
      </trkpt>
      <trkpt lat="45.95235" lon="4.86517">
        <ele>268</ele>
        <time>2018-07-17T08:42:50Z</time>
      </trkpt>
      <trkpt lat="45.95237" lon="4.86523">
        <ele>268</ele>
        <time>2018-07-17T08:42:51Z</time>
      </trkpt>
      <trkpt lat="45.95242" lon="4.86531">
        <ele>268</ele>
        <time>2018-07-17T08:42:52Z</time>
      </trkpt>
      <trkpt lat="45.95247" lon="4.86538">
        <ele>268</ele>
        <time>2018-07-17T08:42:53Z</time>
      </trkpt>
      <trkpt lat="45.95249" lon="4.86548">
        <ele>268</ele>
        <time>2018-07-17T08:42:54Z</time>
      </trkpt>
      <trkpt lat="45.95252" lon="4.86558">
        <ele>267</ele>
        <time>2018-07-17T08:42:56Z</time>
      </trkpt>
      <trkpt lat="45.95256" lon="4.86562">
        <ele>267</ele>
        <time>2018-07-17T08:42:57Z</time>
      </trkpt>
      <trkpt lat="45.95257" lon="4.86572">
        <ele>267</ele>
        <time>2018-07-17T08:42:59Z</time>
      </trkpt>
      <trkpt lat="45.95257" lon="4.86577">
        <ele>268</ele>
        <time>2018-07-17T08:43:00Z</time>
      </trkpt>
      <trkpt lat="45.95251" lon="4.86583">
        <ele>268</ele>
        <time>2018-07-17T08:43:02Z</time>
      </trkpt>
      <trkpt lat="45.95247" lon="4.86584">
        <ele>268</ele>
        <time>2018-07-17T08:43:03Z</time>
      </trkpt>
      <trkpt lat="45.95242" lon="4.86584">
        <ele>268</ele>
        <time>2018-07-17T08:43:04Z</time>
      </trkpt>
      <trkpt lat="45.95237" lon="4.86583">
        <ele>268</ele>
        <time>2018-07-17T08:43:05Z</time>
      </trkpt>
      <trkpt lat="45.95232" lon="4.86581">
        <ele>268</ele>
        <time>2018-07-17T08:43:06Z</time>
      </trkpt>
      <trkpt lat="45.95228" lon="4.8658">
        <ele>268</ele>
        <time>2018-07-17T08:43:07Z</time>
      </trkpt>
      <trkpt lat="45.95223" lon="4.86579">
        <ele>268</ele>
        <time>2018-07-17T08:43:08Z</time>
      </trkpt>
      <trkpt lat="45.95219" lon="4.86578">
        <ele>268</ele>
        <time>2018-07-17T08:43:09Z</time>
      </trkpt>
      <trkpt lat="45.95214" lon="4.86577">
        <ele>268</ele>
        <time>2018-07-17T08:43:10Z</time>
      </trkpt>
      <trkpt lat="45.9521" lon="4.86575">
        <ele>268</ele>
        <time>2018-07-17T08:43:11Z</time>
      </trkpt>
      <trkpt lat="45.95205" lon="4.86575">
        <ele>268</ele>
        <time>2018-07-17T08:43:12Z</time>
      </trkpt>
      <trkpt lat="45.952" lon="4.86574">
        <ele>268</ele>
        <time>2018-07-17T08:43:13Z</time>
      </trkpt>
      <trkpt lat="45.95191" lon="4.86575">
        <ele>269</ele>
        <time>2018-07-17T08:43:15Z</time>
      </trkpt>
      <trkpt lat="45.95187" lon="4.86575">
        <ele>269</ele>
        <time>2018-07-17T08:43:16Z</time>
      </trkpt>
      <trkpt lat="45.95181" lon="4.86578">
        <ele>269</ele>
        <time>2018-07-17T08:43:18Z</time>
      </trkpt>
      <trkpt lat="45.95177" lon="4.86577">
        <ele>269</ele>
        <time>2018-07-17T08:43:19Z</time>
      </trkpt>
      <trkpt lat="45.95172" lon="4.8658">
        <ele>269</ele>
        <time>2018-07-17T08:43:20Z</time>
      </trkpt>
      <trkpt lat="45.95168" lon="4.86581">
        <ele>269</ele>
        <time>2018-07-17T08:43:21Z</time>
      </trkpt>
      <trkpt lat="45.95164" lon="4.86582">
        <ele>269</ele>
        <time>2018-07-17T08:43:22Z</time>
      </trkpt>
      <trkpt lat="45.95158" lon="4.86584">
        <ele>269</ele>
        <time>2018-07-17T08:43:23Z</time>
      </trkpt>
      <trkpt lat="45.9515" lon="4.86587">
        <ele>270</ele>
        <time>2018-07-17T08:43:25Z</time>
      </trkpt>
      <trkpt lat="45.95145" lon="4.86587">
        <ele>270</ele>
        <time>2018-07-17T08:43:26Z</time>
      </trkpt>
      <trkpt lat="45.95137" lon="4.86586">
        <ele>270</ele>
        <time>2018-07-17T08:43:28Z</time>
      </trkpt>
      <trkpt lat="45.95133" lon="4.86586">
        <ele>270</ele>
        <time>2018-07-17T08:43:29Z</time>
      </trkpt>
      <trkpt lat="45.95129" lon="4.86587">
        <ele>270</ele>
        <time>2018-07-17T08:43:30Z</time>
      </trkpt>
      <trkpt lat="45.95123" lon="4.86586">
        <ele>270</ele>
        <time>2018-07-17T08:43:31Z</time>
      </trkpt>
      <trkpt lat="45.95117" lon="4.86589">
        <ele>270</ele>
        <time>2018-07-17T08:43:32Z</time>
      </trkpt>
      <trkpt lat="45.95113" lon="4.86594">
        <ele>271</ele>
        <time>2018-07-17T08:43:33Z</time>
      </trkpt>
      <trkpt lat="45.95108" lon="4.86594">
        <ele>271</ele>
        <time>2018-07-17T08:43:34Z</time>
      </trkpt>
      <trkpt lat="45.95104" lon="4.86597">
        <ele>271</ele>
        <time>2018-07-17T08:43:35Z</time>
      </trkpt>
      <trkpt lat="45.95099" lon="4.86598">
        <ele>271</ele>
        <time>2018-07-17T08:43:36Z</time>
      </trkpt>
      <trkpt lat="45.95094" lon="4.86598">
        <ele>271</ele>
        <time>2018-07-17T08:43:37Z</time>
      </trkpt>
      <trkpt lat="45.9509" lon="4.86599">
        <ele>271</ele>
        <time>2018-07-17T08:43:38Z</time>
      </trkpt>
      <trkpt lat="45.95084" lon="4.86601">
        <ele>271</ele>
        <time>2018-07-17T08:43:39Z</time>
      </trkpt>
      <trkpt lat="45.95078" lon="4.86603">
        <ele>272</ele>
        <time>2018-07-17T08:43:41Z</time>
      </trkpt>
      <trkpt lat="45.95073" lon="4.86604">
        <ele>272</ele>
        <time>2018-07-17T08:43:42Z</time>
      </trkpt>
      <trkpt lat="45.95068" lon="4.86605">
        <ele>272</ele>
        <time>2018-07-17T08:43:43Z</time>
      </trkpt>
      <trkpt lat="45.95064" lon="4.86606">
        <ele>272</ele>
        <time>2018-07-17T08:43:44Z</time>
      </trkpt>
      <trkpt lat="45.95055" lon="4.86607">
        <ele>272</ele>
        <time>2018-07-17T08:43:46Z</time>
      </trkpt>
      <trkpt lat="45.95052" lon="4.86609">
        <ele>272</ele>
        <time>2018-07-17T08:43:47Z</time>
      </trkpt>
      <trkpt lat="45.95047" lon="4.8661">
        <ele>272</ele>
        <time>2018-07-17T08:43:48Z</time>
      </trkpt>
      <trkpt lat="45.95042" lon="4.86611">
        <ele>272</ele>
        <time>2018-07-17T08:43:49Z</time>
      </trkpt>
      <trkpt lat="45.95033" lon="4.86614">
        <ele>273</ele>
        <time>2018-07-17T08:43:51Z</time>
      </trkpt>
      <trkpt lat="45.95029" lon="4.86615">
        <ele>273</ele>
        <time>2018-07-17T08:43:52Z</time>
      </trkpt>
      <trkpt lat="45.9502" lon="4.86616">
        <ele>273</ele>
        <time>2018-07-17T08:43:54Z</time>
      </trkpt>
      <trkpt lat="45.95016" lon="4.86617">
        <ele>273</ele>
        <time>2018-07-17T08:43:55Z</time>
      </trkpt>
      <trkpt lat="45.95009" lon="4.86619">
        <ele>273</ele>
        <time>2018-07-17T08:43:57Z</time>
      </trkpt>
      <trkpt lat="45.95003" lon="4.86621">
        <ele>273</ele>
        <time>2018-07-17T08:43:58Z</time>
      </trkpt>
      <trkpt lat="45.94995" lon="4.86622">
        <ele>275</ele>
        <time>2018-07-17T08:44:00Z</time>
      </trkpt>
      <trkpt lat="45.94991" lon="4.86623">
        <ele>275</ele>
        <time>2018-07-17T08:44:01Z</time>
      </trkpt>
      <trkpt lat="45.94983" lon="4.86624">
        <ele>275</ele>
        <time>2018-07-17T08:44:03Z</time>
      </trkpt>
      <trkpt lat="45.94977" lon="4.86625">
        <ele>275</ele>
        <time>2018-07-17T08:44:04Z</time>
      </trkpt>
      <trkpt lat="45.94969" lon="4.86628">
        <ele>275</ele>
        <time>2018-07-17T08:44:06Z</time>
      </trkpt>
      <trkpt lat="45.94965" lon="4.86631">
        <ele>275</ele>
        <time>2018-07-17T08:44:07Z</time>
      </trkpt>
      <trkpt lat="45.94961" lon="4.86633">
        <ele>275</ele>
        <time>2018-07-17T08:44:08Z</time>
      </trkpt>
      <trkpt lat="45.94956" lon="4.86637">
        <ele>276</ele>
        <time>2018-07-17T08:44:09Z</time>
      </trkpt>
      <trkpt lat="45.94952" lon="4.86642">
        <ele>276</ele>
        <time>2018-07-17T08:44:10Z</time>
      </trkpt>
      <trkpt lat="45.94949" lon="4.86647">
        <ele>276</ele>
        <time>2018-07-17T08:44:11Z</time>
      </trkpt>
      <trkpt lat="45.94947" lon="4.86654">
        <ele>276</ele>
        <time>2018-07-17T08:44:12Z</time>
      </trkpt>
      <trkpt lat="45.94945" lon="4.86659">
        <ele>276</ele>
        <time>2018-07-17T08:44:13Z</time>
      </trkpt>
      <trkpt lat="45.94943" lon="4.86671">
        <ele>276</ele>
        <time>2018-07-17T08:44:15Z</time>
      </trkpt>
      <trkpt lat="45.94943" lon="4.86678">
        <ele>276</ele>
        <time>2018-07-17T08:44:16Z</time>
      </trkpt>
      <trkpt lat="45.94943" lon="4.8669">
        <ele>276</ele>
        <time>2018-07-17T08:44:18Z</time>
      </trkpt>
      <trkpt lat="45.94944" lon="4.86697">
        <ele>276</ele>
        <time>2018-07-17T08:44:19Z</time>
      </trkpt>
      <trkpt lat="45.94947" lon="4.86708">
        <ele>275</ele>
        <time>2018-07-17T08:44:21Z</time>
      </trkpt>
      <trkpt lat="45.94948" lon="4.86715">
        <ele>275</ele>
        <time>2018-07-17T08:44:22Z</time>
      </trkpt>
      <trkpt lat="45.9495" lon="4.86722">
        <ele>275</ele>
        <time>2018-07-17T08:44:23Z</time>
      </trkpt>
      <trkpt lat="45.94953" lon="4.86729">
        <ele>275</ele>
        <time>2018-07-17T08:44:24Z</time>
      </trkpt>
      <trkpt lat="45.94957" lon="4.86741">
        <ele>275</ele>
        <time>2018-07-17T08:44:26Z</time>
      </trkpt>
      <trkpt lat="45.9496" lon="4.86747">
        <ele>275</ele>
        <time>2018-07-17T08:44:27Z</time>
      </trkpt>
      <trkpt lat="45.94963" lon="4.86754">
        <ele>275</ele>
        <time>2018-07-17T08:44:28Z</time>
      </trkpt>
      <trkpt lat="45.94966" lon="4.86759">
        <ele>275</ele>
        <time>2018-07-17T08:44:29Z</time>
      </trkpt>
      <trkpt lat="45.94968" lon="4.86764">
        <ele>275</ele>
        <time>2018-07-17T08:44:30Z</time>
      </trkpt>
      <trkpt lat="45.94972" lon="4.86768">
        <ele>275</ele>
        <time>2018-07-17T08:44:31Z</time>
      </trkpt>
      <trkpt lat="45.94975" lon="4.86773">
        <ele>275</ele>
        <time>2018-07-17T08:44:32Z</time>
      </trkpt>
      <trkpt lat="45.94978" lon="4.86779">
        <ele>275</ele>
        <time>2018-07-17T08:44:33Z</time>
      </trkpt>
      <trkpt lat="45.94981" lon="4.86785">
        <ele>275</ele>
        <time>2018-07-17T08:44:34Z</time>
      </trkpt>
      <trkpt lat="45.94985" lon="4.8679">
        <ele>276</ele>
        <time>2018-07-17T08:44:35Z</time>
      </trkpt>
      <trkpt lat="45.94988" lon="4.86795">
        <ele>276</ele>
        <time>2018-07-17T08:44:36Z</time>
      </trkpt>
      <trkpt lat="45.94991" lon="4.86801">
        <ele>276</ele>
        <time>2018-07-17T08:44:37Z</time>
      </trkpt>
      <trkpt lat="45.94994" lon="4.86807">
        <ele>276</ele>
        <time>2018-07-17T08:44:38Z</time>
      </trkpt>
      <trkpt lat="45.94997" lon="4.86812">
        <ele>276</ele>
        <time>2018-07-17T08:44:39Z</time>
      </trkpt>
      <trkpt lat="45.95" lon="4.86818">
        <ele>276</ele>
        <time>2018-07-17T08:44:40Z</time>
      </trkpt>
      <trkpt lat="45.95001" lon="4.86825">
        <ele>275</ele>
        <time>2018-07-17T08:44:41Z</time>
      </trkpt>
      <trkpt lat="45.95003" lon="4.86831">
        <ele>276</ele>
        <time>2018-07-17T08:44:42Z</time>
      </trkpt>
      <trkpt lat="45.95006" lon="4.86838">
        <ele>276</ele>
        <time>2018-07-17T08:44:43Z</time>
      </trkpt>
      <trkpt lat="45.95008" lon="4.86844">
        <ele>276</ele>
        <time>2018-07-17T08:44:44Z</time>
      </trkpt>
      <trkpt lat="45.9501" lon="4.86851">
        <ele>275</ele>
        <time>2018-07-17T08:44:45Z</time>
      </trkpt>
      <trkpt lat="45.95012" lon="4.86856">
        <ele>275</ele>
        <time>2018-07-17T08:44:46Z</time>
      </trkpt>
      <trkpt lat="45.95016" lon="4.86863">
        <ele>275</ele>
        <time>2018-07-17T08:44:47Z</time>
      </trkpt>
      <trkpt lat="45.95018" lon="4.8687">
        <ele>275</ele>
        <time>2018-07-17T08:44:48Z</time>
      </trkpt>
      <trkpt lat="45.9502" lon="4.86876">
        <ele>275</ele>
        <time>2018-07-17T08:44:49Z</time>
      </trkpt>
      <trkpt lat="45.95023" lon="4.86883">
        <ele>275</ele>
        <time>2018-07-17T08:44:50Z</time>
      </trkpt>
      <trkpt lat="45.95027" lon="4.8689">
        <ele>275</ele>
        <time>2018-07-17T08:44:51Z</time>
      </trkpt>
      <trkpt lat="45.9503" lon="4.86898">
        <ele>275</ele>
        <time>2018-07-17T08:44:52Z</time>
      </trkpt>
      <trkpt lat="45.95033" lon="4.86906">
        <ele>275</ele>
        <time>2018-07-17T08:44:53Z</time>
      </trkpt>
      <trkpt lat="45.95036" lon="4.86912">
        <ele>275</ele>
        <time>2018-07-17T08:44:54Z</time>
      </trkpt>
      <trkpt lat="45.95039" lon="4.86919">
        <ele>276</ele>
        <time>2018-07-17T08:44:55Z</time>
      </trkpt>
      <trkpt lat="45.9504" lon="4.86926">
        <ele>276</ele>
        <time>2018-07-17T08:44:56Z</time>
      </trkpt>
      <trkpt lat="45.95042" lon="4.86934">
        <ele>276</ele>
        <time>2018-07-17T08:44:57Z</time>
      </trkpt>
      <trkpt lat="45.95044" lon="4.8694">
        <ele>276</ele>
        <time>2018-07-17T08:44:58Z</time>
      </trkpt>
      <trkpt lat="45.95046" lon="4.86946">
        <ele>276</ele>
        <time>2018-07-17T08:44:59Z</time>
      </trkpt>
      <trkpt lat="45.95048" lon="4.86952">
        <ele>276</ele>
        <time>2018-07-17T08:45:00Z</time>
      </trkpt>
      <trkpt lat="45.95051" lon="4.86959">
        <ele>276</ele>
        <time>2018-07-17T08:45:01Z</time>
      </trkpt>
      <trkpt lat="45.95054" lon="4.8697">
        <ele>276</ele>
        <time>2018-07-17T08:45:03Z</time>
      </trkpt>
      <trkpt lat="45.95056" lon="4.86976">
        <ele>276</ele>
        <time>2018-07-17T08:45:04Z</time>
      </trkpt>
      <trkpt lat="45.95059" lon="4.86984">
        <ele>276</ele>
        <time>2018-07-17T08:45:05Z</time>
      </trkpt>
      <trkpt lat="45.95062" lon="4.86991">
        <ele>276</ele>
        <time>2018-07-17T08:45:06Z</time>
      </trkpt>
      <trkpt lat="45.95066" lon="4.86996">
        <ele>277</ele>
        <time>2018-07-17T08:45:07Z</time>
      </trkpt>
      <trkpt lat="45.95069" lon="4.87001">
        <ele>277</ele>
        <time>2018-07-17T08:45:08Z</time>
      </trkpt>
      <trkpt lat="45.95071" lon="4.87007">
        <ele>277</ele>
        <time>2018-07-17T08:45:09Z</time>
      </trkpt>
      <trkpt lat="45.95075" lon="4.87011">
        <ele>277</ele>
        <time>2018-07-17T08:45:10Z</time>
      </trkpt>
      <trkpt lat="45.95078" lon="4.87021">
        <ele>277</ele>
        <time>2018-07-17T08:45:12Z</time>
      </trkpt>
      <trkpt lat="45.95081" lon="4.87025">
        <ele>277</ele>
        <time>2018-07-17T08:45:13Z</time>
      </trkpt>
      <trkpt lat="45.95086" lon="4.87035">
        <ele>277</ele>
        <time>2018-07-17T08:45:15Z</time>
      </trkpt>
      <trkpt lat="45.95089" lon="4.8704">
        <ele>277</ele>
        <time>2018-07-17T08:45:16Z</time>
      </trkpt>
      <trkpt lat="45.95094" lon="4.87049">
        <ele>277</ele>
        <time>2018-07-17T08:45:18Z</time>
      </trkpt>
      <trkpt lat="45.95096" lon="4.87054">
        <ele>277</ele>
        <time>2018-07-17T08:45:19Z</time>
      </trkpt>
      <trkpt lat="45.95099" lon="4.87062">
        <ele>277</ele>
        <time>2018-07-17T08:45:20Z</time>
      </trkpt>
      <trkpt lat="45.95101" lon="4.87067">
        <ele>277</ele>
        <time>2018-07-17T08:45:21Z</time>
      </trkpt>
      <trkpt lat="45.95105" lon="4.87078">
        <ele>277</ele>
        <time>2018-07-17T08:45:23Z</time>
      </trkpt>
      <trkpt lat="45.95107" lon="4.87083">
        <ele>277</ele>
        <time>2018-07-17T08:45:24Z</time>
      </trkpt>
      <trkpt lat="45.95109" lon="4.87092">
        <ele>277</ele>
        <time>2018-07-17T08:45:25Z</time>
      </trkpt>
      <trkpt lat="45.9511" lon="4.871">
        <ele>277</ele>
        <time>2018-07-17T08:45:26Z</time>
      </trkpt>
      <trkpt lat="45.95111" lon="4.87106">
        <ele>277</ele>
        <time>2018-07-17T08:45:27Z</time>
      </trkpt>
      <trkpt lat="45.95112" lon="4.87112">
        <ele>277</ele>
        <time>2018-07-17T08:45:28Z</time>
      </trkpt>
      <trkpt lat="45.95116" lon="4.87119">
        <ele>276</ele>
        <time>2018-07-17T08:45:29Z</time>
      </trkpt>
      <trkpt lat="45.95118" lon="4.87125">
        <ele>276</ele>
        <time>2018-07-17T08:45:30Z</time>
      </trkpt>
      <trkpt lat="45.95119" lon="4.87132">
        <ele>276</ele>
        <time>2018-07-17T08:45:31Z</time>
      </trkpt>
      <trkpt lat="45.9512" lon="4.87139">
        <ele>276</ele>
        <time>2018-07-17T08:45:32Z</time>
      </trkpt>
      <trkpt lat="45.95121" lon="4.87145">
        <ele>276</ele>
        <time>2018-07-17T08:45:33Z</time>
      </trkpt>
      <trkpt lat="45.95122" lon="4.87152">
        <ele>276</ele>
        <time>2018-07-17T08:45:34Z</time>
      </trkpt>
      <trkpt lat="45.95123" lon="4.87159">
        <ele>276</ele>
        <time>2018-07-17T08:45:35Z</time>
      </trkpt>
      <trkpt lat="45.95124" lon="4.87166">
        <ele>276</ele>
        <time>2018-07-17T08:45:36Z</time>
      </trkpt>
      <trkpt lat="45.95124" lon="4.87174">
        <ele>276</ele>
        <time>2018-07-17T08:45:37Z</time>
      </trkpt>
      <trkpt lat="45.95125" lon="4.87181">
        <ele>276</ele>
        <time>2018-07-17T08:45:38Z</time>
      </trkpt>
      <trkpt lat="45.95125" lon="4.87189">
        <ele>276</ele>
        <time>2018-07-17T08:45:39Z</time>
      </trkpt>
      <trkpt lat="45.95126" lon="4.87197">
        <ele>276</ele>
        <time>2018-07-17T08:45:40Z</time>
      </trkpt>
      <trkpt lat="45.95129" lon="4.87207">
        <ele>276</ele>
        <time>2018-07-17T08:45:41Z</time>
      </trkpt>
      <trkpt lat="45.95132" lon="4.87216">
        <ele>276</ele>
        <time>2018-07-17T08:45:42Z</time>
      </trkpt>
      <trkpt lat="45.95135" lon="4.87225">
        <ele>276</ele>
        <time>2018-07-17T08:45:43Z</time>
      </trkpt>
      <trkpt lat="45.95137" lon="4.87234">
        <ele>276</ele>
        <time>2018-07-17T08:45:44Z</time>
      </trkpt>
      <trkpt lat="45.95137" lon="4.87243">
        <ele>276</ele>
        <time>2018-07-17T08:45:45Z</time>
      </trkpt>
      <trkpt lat="45.95137" lon="4.87253">
        <ele>275</ele>
        <time>2018-07-17T08:45:46Z</time>
      </trkpt>
      <trkpt lat="45.9514" lon="4.87263">
        <ele>274</ele>
        <time>2018-07-17T08:45:47Z</time>
      </trkpt>
      <trkpt lat="45.95143" lon="4.87275">
        <ele>274</ele>
        <time>2018-07-17T08:45:48Z</time>
      </trkpt>
      <trkpt lat="45.95145" lon="4.87286">
        <ele>274</ele>
        <time>2018-07-17T08:45:49Z</time>
      </trkpt>
      <trkpt lat="45.95146" lon="4.87295">
        <ele>274</ele>
        <time>2018-07-17T08:45:50Z</time>
      </trkpt>
      <trkpt lat="45.95148" lon="4.87306">
        <ele>274</ele>
        <time>2018-07-17T08:45:51Z</time>
      </trkpt>
      <trkpt lat="45.95152" lon="4.87315">
        <ele>273</ele>
        <time>2018-07-17T08:45:52Z</time>
      </trkpt>
      <trkpt lat="45.95155" lon="4.87325">
        <ele>273</ele>
        <time>2018-07-17T08:45:53Z</time>
      </trkpt>
      <trkpt lat="45.95157" lon="4.87335">
        <ele>272</ele>
        <time>2018-07-17T08:45:54Z</time>
      </trkpt>
      <trkpt lat="45.9516" lon="4.87344">
        <ele>272</ele>
        <time>2018-07-17T08:45:55Z</time>
      </trkpt>
      <trkpt lat="45.95163" lon="4.87353">
        <ele>272</ele>
        <time>2018-07-17T08:45:56Z</time>
      </trkpt>
      <trkpt lat="45.95165" lon="4.87363">
        <ele>272</ele>
        <time>2018-07-17T08:45:57Z</time>
      </trkpt>
      <trkpt lat="45.95168" lon="4.87373">
        <ele>271</ele>
        <time>2018-07-17T08:45:58Z</time>
      </trkpt>
      <trkpt lat="45.95172" lon="4.87383">
        <ele>271</ele>
        <time>2018-07-17T08:45:59Z</time>
      </trkpt>
      <trkpt lat="45.95173" lon="4.87392">
        <ele>271</ele>
        <time>2018-07-17T08:46:00Z</time>
      </trkpt>
      <trkpt lat="45.95175" lon="4.87399">
        <ele>271</ele>
        <time>2018-07-17T08:46:01Z</time>
      </trkpt>
      <trkpt lat="45.95176" lon="4.87408">
        <ele>271</ele>
        <time>2018-07-17T08:46:02Z</time>
      </trkpt>
      <trkpt lat="45.95178" lon="4.87417">
        <ele>271</ele>
        <time>2018-07-17T08:46:03Z</time>
      </trkpt>
      <trkpt lat="45.9518" lon="4.87424">
        <ele>271</ele>
        <time>2018-07-17T08:46:04Z</time>
      </trkpt>
      <trkpt lat="45.95182" lon="4.87431">
        <ele>271</ele>
        <time>2018-07-17T08:46:05Z</time>
      </trkpt>
      <trkpt lat="45.95183" lon="4.87439">
        <ele>272</ele>
        <time>2018-07-17T08:46:06Z</time>
      </trkpt>
      <trkpt lat="45.95185" lon="4.87447">
        <ele>272</ele>
        <time>2018-07-17T08:46:07Z</time>
      </trkpt>
      <trkpt lat="45.95188" lon="4.87455">
        <ele>272</ele>
        <time>2018-07-17T08:46:08Z</time>
      </trkpt>
      <trkpt lat="45.95193" lon="4.87463">
        <ele>272</ele>
        <time>2018-07-17T08:46:09Z</time>
      </trkpt>
      <trkpt lat="45.95196" lon="4.87471">
        <ele>272</ele>
        <time>2018-07-17T08:46:10Z</time>
      </trkpt>
      <trkpt lat="45.95196" lon="4.87478">
        <ele>272</ele>
        <time>2018-07-17T08:46:11Z</time>
      </trkpt>
      <trkpt lat="45.95197" lon="4.87485">
        <ele>272</ele>
        <time>2018-07-17T08:46:12Z</time>
      </trkpt>
      <trkpt lat="45.952" lon="4.87493">
        <ele>272</ele>
        <time>2018-07-17T08:46:13Z</time>
      </trkpt>
      <trkpt lat="45.95202" lon="4.875">
        <ele>273</ele>
        <time>2018-07-17T08:46:14Z</time>
      </trkpt>
      <trkpt lat="45.95203" lon="4.87507">
        <ele>273</ele>
        <time>2018-07-17T08:46:15Z</time>
      </trkpt>
      <trkpt lat="45.95205" lon="4.87514">
        <ele>273</ele>
        <time>2018-07-17T08:46:16Z</time>
      </trkpt>
      <trkpt lat="45.95207" lon="4.87522">
        <ele>273</ele>
        <time>2018-07-17T08:46:17Z</time>
      </trkpt>
      <trkpt lat="45.95209" lon="4.87528">
        <ele>274</ele>
        <time>2018-07-17T08:46:18Z</time>
      </trkpt>
      <trkpt lat="45.9521" lon="4.87536">
        <ele>274</ele>
        <time>2018-07-17T08:46:19Z</time>
      </trkpt>
      <trkpt lat="45.95209" lon="4.87544">
        <ele>274</ele>
        <time>2018-07-17T08:46:20Z</time>
      </trkpt>
      <trkpt lat="45.95209" lon="4.87551">
        <ele>274</ele>
        <time>2018-07-17T08:46:21Z</time>
      </trkpt>
      <trkpt lat="45.9521" lon="4.87559">
        <ele>274</ele>
        <time>2018-07-17T08:46:22Z</time>
      </trkpt>
      <trkpt lat="45.9521" lon="4.87566">
        <ele>274</ele>
        <time>2018-07-17T08:46:23Z</time>
      </trkpt>
      <trkpt lat="45.9521" lon="4.87573">
        <ele>274</ele>
        <time>2018-07-17T08:46:24Z</time>
      </trkpt>
      <trkpt lat="45.95209" lon="4.87581">
        <ele>274</ele>
        <time>2018-07-17T08:46:25Z</time>
      </trkpt>
      <trkpt lat="45.9521" lon="4.87589">
        <ele>276</ele>
        <time>2018-07-17T08:46:26Z</time>
      </trkpt>
      <trkpt lat="45.95209" lon="4.87595">
        <ele>276</ele>
        <time>2018-07-17T08:46:27Z</time>
      </trkpt>
      <trkpt lat="45.9521" lon="4.87602">
        <ele>276</ele>
        <time>2018-07-17T08:46:28Z</time>
      </trkpt>
      <trkpt lat="45.95211" lon="4.87609">
        <ele>276</ele>
        <time>2018-07-17T08:46:29Z</time>
      </trkpt>
      <trkpt lat="45.95212" lon="4.87615">
        <ele>276</ele>
        <time>2018-07-17T08:46:30Z</time>
      </trkpt>
      <trkpt lat="45.95213" lon="4.87626">
        <ele>276</ele>
        <time>2018-07-17T08:46:32Z</time>
      </trkpt>
      <trkpt lat="45.95212" lon="4.87632">
        <ele>276</ele>
        <time>2018-07-17T08:46:33Z</time>
      </trkpt>
      <trkpt lat="45.95213" lon="4.87643">
        <ele>276</ele>
        <time>2018-07-17T08:46:35Z</time>
      </trkpt>
      <trkpt lat="45.95215" lon="4.87649">
        <ele>276</ele>
        <time>2018-07-17T08:46:36Z</time>
      </trkpt>
      <trkpt lat="45.95217" lon="4.8766">
        <ele>276</ele>
        <time>2018-07-17T08:46:38Z</time>
      </trkpt>
      <trkpt lat="45.95218" lon="4.87666">
        <ele>276</ele>
        <time>2018-07-17T08:46:39Z</time>
      </trkpt>
      <trkpt lat="45.95218" lon="4.87673">
        <ele>278</ele>
        <time>2018-07-17T08:46:40Z</time>
      </trkpt>
      <trkpt lat="45.95219" lon="4.87679">
        <ele>279</ele>
        <time>2018-07-17T08:46:41Z</time>
      </trkpt>
      <trkpt lat="45.95221" lon="4.87685">
        <ele>279</ele>
        <time>2018-07-17T08:46:42Z</time>
      </trkpt>
      <trkpt lat="45.95223" lon="4.87692">
        <ele>279</ele>
        <time>2018-07-17T08:46:43Z</time>
      </trkpt>
      <trkpt lat="45.95225" lon="4.87704">
        <ele>279</ele>
        <time>2018-07-17T08:46:45Z</time>
      </trkpt>
      <trkpt lat="45.95227" lon="4.87711">
        <ele>279</ele>
        <time>2018-07-17T08:46:46Z</time>
      </trkpt>
      <trkpt lat="45.9523" lon="4.87722">
        <ele>279</ele>
        <time>2018-07-17T08:46:48Z</time>
      </trkpt>
      <trkpt lat="45.95232" lon="4.87727">
        <ele>280</ele>
        <time>2018-07-17T08:46:49Z</time>
      </trkpt>
      <trkpt lat="45.95234" lon="4.87738">
        <ele>280</ele>
        <time>2018-07-17T08:46:51Z</time>
      </trkpt>
      <trkpt lat="45.95236" lon="4.87746">
        <ele>280</ele>
        <time>2018-07-17T08:46:52Z</time>
      </trkpt>
      <trkpt lat="45.95237" lon="4.87755">
        <ele>281</ele>
        <time>2018-07-17T08:46:53Z</time>
      </trkpt>
      <trkpt lat="45.9524" lon="4.8776">
        <ele>281</ele>
        <time>2018-07-17T08:46:54Z</time>
      </trkpt>
      <trkpt lat="45.9524" lon="4.87772">
        <ele>282</ele>
        <time>2018-07-17T08:46:56Z</time>
      </trkpt>
      <trkpt lat="45.95243" lon="4.87779">
        <ele>282</ele>
        <time>2018-07-17T08:46:57Z</time>
      </trkpt>
      <trkpt lat="45.95244" lon="4.87785">
        <ele>282</ele>
        <time>2018-07-17T08:46:58Z</time>
      </trkpt>
      <trkpt lat="45.95245" lon="4.87792">
        <ele>282</ele>
        <time>2018-07-17T08:46:59Z</time>
      </trkpt>
      <trkpt lat="45.95246" lon="4.87799">
        <ele>282</ele>
        <time>2018-07-17T08:47:00Z</time>
      </trkpt>
      <trkpt lat="45.95246" lon="4.87806">
        <ele>282</ele>
        <time>2018-07-17T08:47:01Z</time>
      </trkpt>
      <trkpt lat="45.95248" lon="4.87818">
        <ele>282</ele>
        <time>2018-07-17T08:47:03Z</time>
      </trkpt>
      <trkpt lat="45.9525" lon="4.87824">
        <ele>282</ele>
        <time>2018-07-17T08:47:04Z</time>
      </trkpt>
      <trkpt lat="45.95252" lon="4.87833">
        <ele>282</ele>
        <time>2018-07-17T08:47:06Z</time>
      </trkpt>
      <trkpt lat="45.95253" lon="4.87842">
        <ele>281</ele>
        <time>2018-07-17T08:47:07Z</time>
      </trkpt>
      <trkpt lat="45.95254" lon="4.8785">
        <ele>281</ele>
        <time>2018-07-17T08:47:08Z</time>
      </trkpt>
      <trkpt lat="45.95255" lon="4.87858">
        <ele>281</ele>
        <time>2018-07-17T08:47:09Z</time>
      </trkpt>
      <trkpt lat="45.95256" lon="4.87864">
        <ele>281</ele>
        <time>2018-07-17T08:47:10Z</time>
      </trkpt>
      <trkpt lat="45.95258" lon="4.87871">
        <ele>281</ele>
        <time>2018-07-17T08:47:11Z</time>
      </trkpt>
      <trkpt lat="45.95261" lon="4.87877">
        <ele>280</ele>
        <time>2018-07-17T08:47:12Z</time>
      </trkpt>
      <trkpt lat="45.95263" lon="4.87883">
        <ele>280</ele>
        <time>2018-07-17T08:47:13Z</time>
      </trkpt>
      <trkpt lat="45.95264" lon="4.87895">
        <ele>281</ele>
        <time>2018-07-17T08:47:16Z</time>
      </trkpt>
      <trkpt lat="45.95264" lon="4.87898">
        <ele>281</ele>
        <time>2018-07-17T08:47:17Z</time>
      </trkpt>
      <trkpt lat="45.95266" lon="4.87909">
        <ele>281</ele>
        <time>2018-07-17T08:47:18Z</time>
      </trkpt>
      <trkpt lat="45.95266" lon="4.87914">
        <ele>281</ele>
        <time>2018-07-17T08:47:19Z</time>
      </trkpt>
      <trkpt lat="45.95266" lon="4.87919">
        <ele>281</ele>
        <time>2018-07-17T08:47:21Z</time>
      </trkpt>
      <trkpt lat="45.95265" lon="4.8793">
        <ele>281</ele>
        <time>2018-07-17T08:47:22Z</time>
      </trkpt>
      <trkpt lat="45.95264" lon="4.87937">
        <ele>280</ele>
        <time>2018-07-17T08:47:23Z</time>
      </trkpt>
      <trkpt lat="45.95262" lon="4.87944">
        <ele>280</ele>
        <time>2018-07-17T08:47:24Z</time>
      </trkpt>
      <trkpt lat="45.9526" lon="4.87949">
        <ele>280</ele>
        <time>2018-07-17T08:47:25Z</time>
      </trkpt>
      <trkpt lat="45.95257" lon="4.87955">
        <ele>280</ele>
        <time>2018-07-17T08:47:26Z</time>
      </trkpt>
      <trkpt lat="45.95254" lon="4.87959">
        <ele>280</ele>
        <time>2018-07-17T08:47:27Z</time>
      </trkpt>
      <trkpt lat="45.95251" lon="4.87964">
        <ele>280</ele>
        <time>2018-07-17T08:47:28Z</time>
      </trkpt>
      <trkpt lat="45.95247" lon="4.87969">
        <ele>282</ele>
        <time>2018-07-17T08:47:29Z</time>
      </trkpt>
      <trkpt lat="45.95244" lon="4.87975">
        <ele>282</ele>
        <time>2018-07-17T08:47:30Z</time>
      </trkpt>
      <trkpt lat="45.95241" lon="4.87981">
        <ele>281</ele>
        <time>2018-07-17T08:47:31Z</time>
      </trkpt>
      <trkpt lat="45.95237" lon="4.87986">
        <ele>281</ele>
        <time>2018-07-17T08:47:32Z</time>
      </trkpt>
      <trkpt lat="45.95233" lon="4.87991">
        <ele>281</ele>
        <time>2018-07-17T08:47:33Z</time>
      </trkpt>
      <trkpt lat="45.95229" lon="4.87997">
        <ele>281</ele>
        <time>2018-07-17T08:47:34Z</time>
      </trkpt>
      <trkpt lat="45.95225" lon="4.88002">
        <ele>281</ele>
        <time>2018-07-17T08:47:35Z</time>
      </trkpt>
      <trkpt lat="45.95221" lon="4.88007">
        <ele>281</ele>
        <time>2018-07-17T08:47:36Z</time>
      </trkpt>
      <trkpt lat="45.95217" lon="4.88011">
        <ele>281</ele>
        <time>2018-07-17T08:47:37Z</time>
      </trkpt>
      <trkpt lat="45.95213" lon="4.88016">
        <ele>281</ele>
        <time>2018-07-17T08:47:38Z</time>
      </trkpt>
      <trkpt lat="45.95209" lon="4.88021">
        <ele>281</ele>
        <time>2018-07-17T08:47:39Z</time>
      </trkpt>
      <trkpt lat="45.95209" lon="4.88031">
        <ele>281</ele>
        <time>2018-07-17T08:47:40Z</time>
      </trkpt>
      <trkpt lat="45.95203" lon="4.8804">
        <ele>281</ele>
        <time>2018-07-17T08:47:42Z</time>
      </trkpt>
      <trkpt lat="45.952" lon="4.88045">
        <ele>281</ele>
        <time>2018-07-17T08:47:43Z</time>
      </trkpt>
      <trkpt lat="45.95198" lon="4.88053">
        <ele>281</ele>
        <time>2018-07-17T08:47:44Z</time>
      </trkpt>
      <trkpt lat="45.95196" lon="4.88061">
        <ele>281</ele>
        <time>2018-07-17T08:47:45Z</time>
      </trkpt>
      <trkpt lat="45.95193" lon="4.88069">
        <ele>281</ele>
        <time>2018-07-17T08:47:46Z</time>
      </trkpt>
      <trkpt lat="45.95191" lon="4.88075">
        <ele>281</ele>
        <time>2018-07-17T08:47:47Z</time>
      </trkpt>
      <trkpt lat="45.95189" lon="4.88082">
        <ele>281</ele>
        <time>2018-07-17T08:47:48Z</time>
      </trkpt>
      <trkpt lat="45.95188" lon="4.88089">
        <ele>282</ele>
        <time>2018-07-17T08:47:49Z</time>
      </trkpt>
      <trkpt lat="45.95186" lon="4.88102">
        <ele>282</ele>
        <time>2018-07-17T08:47:51Z</time>
      </trkpt>
      <trkpt lat="45.95185" lon="4.88107">
        <ele>282</ele>
        <time>2018-07-17T08:47:52Z</time>
      </trkpt>
      <trkpt lat="45.95181" lon="4.88118">
        <ele>282</ele>
        <time>2018-07-17T08:47:54Z</time>
      </trkpt>
      <trkpt lat="45.9518" lon="4.88124">
        <ele>282</ele>
        <time>2018-07-17T08:47:55Z</time>
      </trkpt>
      <trkpt lat="45.95178" lon="4.88137">
        <ele>283</ele>
        <time>2018-07-17T08:47:57Z</time>
      </trkpt>
      <trkpt lat="45.95175" lon="4.88141">
        <ele>283</ele>
        <time>2018-07-17T08:47:58Z</time>
      </trkpt>
      <trkpt lat="45.95172" lon="4.88153">
        <ele>284</ele>
        <time>2018-07-17T08:48:00Z</time>
      </trkpt>
      <trkpt lat="45.95171" lon="4.88158">
        <ele>284</ele>
        <time>2018-07-17T08:48:01Z</time>
      </trkpt>
      <trkpt lat="45.95168" lon="4.88169">
        <ele>285</ele>
        <time>2018-07-17T08:48:03Z</time>
      </trkpt>
      <trkpt lat="45.95165" lon="4.88173">
        <ele>285</ele>
        <time>2018-07-17T08:48:04Z</time>
      </trkpt>
      <trkpt lat="45.95162" lon="4.88176">
        <ele>286</ele>
        <time>2018-07-17T08:48:06Z</time>
      </trkpt>
      <trkpt lat="45.95156" lon="4.88178">
        <ele>286</ele>
        <time>2018-07-17T08:48:07Z</time>
      </trkpt>
      <trkpt lat="45.95148" lon="4.8818">
        <ele>286</ele>
        <time>2018-07-17T08:48:09Z</time>
      </trkpt>
      <trkpt lat="45.95144" lon="4.88182">
        <ele>286</ele>
        <time>2018-07-17T08:48:10Z</time>
      </trkpt>
      <trkpt lat="45.95137" lon="4.88188">
        <ele>286</ele>
        <time>2018-07-17T08:48:12Z</time>
      </trkpt>
      <trkpt lat="45.95136" lon="4.8819">
        <ele>286</ele>
        <time>2018-07-17T08:48:13Z</time>
      </trkpt>
      <trkpt lat="45.9513" lon="4.88199">
        <ele>287</ele>
        <time>2018-07-17T08:48:16Z</time>
      </trkpt>
      <trkpt lat="45.95124" lon="4.88207">
        <ele>287</ele>
        <time>2018-07-17T08:48:17Z</time>
      </trkpt>
      <trkpt lat="45.95119" lon="4.88214">
        <ele>287</ele>
        <time>2018-07-17T08:48:19Z</time>
      </trkpt>
      <trkpt lat="45.95116" lon="4.88219">
        <ele>287</ele>
        <time>2018-07-17T08:48:20Z</time>
      </trkpt>
      <trkpt lat="45.95111" lon="4.88227">
        <ele>287</ele>
        <time>2018-07-17T08:48:22Z</time>
      </trkpt>
      <trkpt lat="45.9511" lon="4.88232">
        <ele>287</ele>
        <time>2018-07-17T08:48:23Z</time>
      </trkpt>
      <trkpt lat="45.95111" lon="4.88238">
        <ele>287</ele>
        <time>2018-07-17T08:48:24Z</time>
      </trkpt>
      <trkpt lat="45.95117" lon="4.88244">
        <ele>287</ele>
        <time>2018-07-17T08:48:25Z</time>
      </trkpt>
      <trkpt lat="45.9512" lon="4.88256">
        <ele>289</ele>
        <time>2018-07-17T08:48:27Z</time>
      </trkpt>
      <trkpt lat="45.95121" lon="4.88262">
        <ele>289</ele>
        <time>2018-07-17T08:48:28Z</time>
      </trkpt>
      <trkpt lat="45.95123" lon="4.8827">
        <ele>289</ele>
        <time>2018-07-17T08:48:30Z</time>
      </trkpt>
      <trkpt lat="45.95123" lon="4.88278">
        <ele>289</ele>
        <time>2018-07-17T08:48:31Z</time>
      </trkpt>
      <trkpt lat="45.95123" lon="4.88289">
        <ele>289</ele>
        <time>2018-07-17T08:48:33Z</time>
      </trkpt>
      <trkpt lat="45.95122" lon="4.88294">
        <ele>289</ele>
        <time>2018-07-17T08:48:34Z</time>
      </trkpt>
      <trkpt lat="45.95119" lon="4.88305">
        <ele>289</ele>
        <time>2018-07-17T08:48:37Z</time>
      </trkpt>
      <trkpt lat="45.95116" lon="4.88315">
        <ele>289</ele>
        <time>2018-07-17T08:48:38Z</time>
      </trkpt>
      <trkpt lat="45.95114" lon="4.88321">
        <ele>289</ele>
        <time>2018-07-17T08:48:39Z</time>
      </trkpt>
      <trkpt lat="45.95112" lon="4.88327">
        <ele>289</ele>
        <time>2018-07-17T08:48:40Z</time>
      </trkpt>
      <trkpt lat="45.95111" lon="4.88333">
        <ele>289</ele>
        <time>2018-07-17T08:48:41Z</time>
      </trkpt>
      <trkpt lat="45.9511" lon="4.88342">
        <ele>290</ele>
        <time>2018-07-17T08:48:42Z</time>
      </trkpt>
      <trkpt lat="45.9511" lon="4.88348">
        <ele>290</ele>
        <time>2018-07-17T08:48:43Z</time>
      </trkpt>
      <trkpt lat="45.95111" lon="4.88355">
        <ele>290</ele>
        <time>2018-07-17T08:48:44Z</time>
      </trkpt>
      <trkpt lat="45.9511" lon="4.88366">
        <ele>290</ele>
        <time>2018-07-17T08:48:46Z</time>
      </trkpt>
      <trkpt lat="45.9511" lon="4.88369">
        <ele>290</ele>
        <time>2018-07-17T08:48:47Z</time>
      </trkpt>
      <trkpt lat="45.9511" lon="4.88382">
        <ele>291</ele>
        <time>2018-07-17T08:48:49Z</time>
      </trkpt>
      <trkpt lat="45.95108" lon="4.88388">
        <ele>291</ele>
        <time>2018-07-17T08:48:50Z</time>
      </trkpt>
      <trkpt lat="45.95108" lon="4.88394">
        <ele>291</ele>
        <time>2018-07-17T08:48:52Z</time>
      </trkpt>
      <trkpt lat="45.95107" lon="4.88405">
        <ele>291</ele>
        <time>2018-07-17T08:48:53Z</time>
      </trkpt>
      <trkpt lat="45.95106" lon="4.88411">
        <ele>291</ele>
        <time>2018-07-17T08:48:54Z</time>
      </trkpt>
      <trkpt lat="45.95106" lon="4.88417">
        <ele>291</ele>
        <time>2018-07-17T08:48:55Z</time>
      </trkpt>
      <trkpt lat="45.95106" lon="4.88423">
        <ele>291</ele>
        <time>2018-07-17T08:48:56Z</time>
      </trkpt>
      <trkpt lat="45.95103" lon="4.8843">
        <ele>291</ele>
        <time>2018-07-17T08:48:57Z</time>
      </trkpt>
      <trkpt lat="45.95099" lon="4.88436">
        <ele>291</ele>
        <time>2018-07-17T08:48:58Z</time>
      </trkpt>
      <trkpt lat="45.951" lon="4.88443">
        <ele>291</ele>
        <time>2018-07-17T08:48:59Z</time>
      </trkpt>
      <trkpt lat="45.95101" lon="4.88452">
        <ele>291</ele>
        <time>2018-07-17T08:49:00Z</time>
      </trkpt>
      <trkpt lat="45.95101" lon="4.8846">
        <ele>291</ele>
        <time>2018-07-17T08:49:01Z</time>
      </trkpt>
      <trkpt lat="45.95103" lon="4.88473">
        <ele>291</ele>
        <time>2018-07-17T08:49:02Z</time>
      </trkpt>
      <trkpt lat="45.95104" lon="4.88476">
        <ele>291</ele>
        <time>2018-07-17T08:49:03Z</time>
      </trkpt>
      <trkpt lat="45.95102" lon="4.88485">
        <ele>291</ele>
        <time>2018-07-17T08:49:05Z</time>
      </trkpt>
      <trkpt lat="45.95103" lon="4.88492">
        <ele>291</ele>
        <time>2018-07-17T08:49:06Z</time>
      </trkpt>
      <trkpt lat="45.95104" lon="4.88499">
        <ele>291</ele>
        <time>2018-07-17T08:49:07Z</time>
      </trkpt>
      <trkpt lat="45.95103" lon="4.88505">
        <ele>290</ele>
        <time>2018-07-17T08:49:08Z</time>
      </trkpt>
      <trkpt lat="45.95105" lon="4.88512">
        <ele>291</ele>
        <time>2018-07-17T08:49:09Z</time>
      </trkpt>
      <trkpt lat="45.95106" lon="4.88519">
        <ele>291</ele>
        <time>2018-07-17T08:49:10Z</time>
      </trkpt>
      <trkpt lat="45.95106" lon="4.88526">
        <ele>291</ele>
        <time>2018-07-17T08:49:11Z</time>
      </trkpt>
      <trkpt lat="45.95108" lon="4.88534">
        <ele>291</ele>
        <time>2018-07-17T08:49:12Z</time>
      </trkpt>
      <trkpt lat="45.9511" lon="4.8854">
        <ele>291</ele>
        <time>2018-07-17T08:49:13Z</time>
      </trkpt>
      <trkpt lat="45.95112" lon="4.88546">
        <ele>291</ele>
        <time>2018-07-17T08:49:14Z</time>
      </trkpt>
      <trkpt lat="45.95113" lon="4.88553">
        <ele>291</ele>
        <time>2018-07-17T08:49:15Z</time>
      </trkpt>
      <trkpt lat="45.95113" lon="4.88561">
        <ele>291</ele>
        <time>2018-07-17T08:49:16Z</time>
      </trkpt>
      <trkpt lat="45.95113" lon="4.88568">
        <ele>291</ele>
        <time>2018-07-17T08:49:17Z</time>
      </trkpt>
      <trkpt lat="45.95114" lon="4.88576">
        <ele>291</ele>
        <time>2018-07-17T08:49:18Z</time>
      </trkpt>
      <trkpt lat="45.95114" lon="4.88583">
        <ele>291</ele>
        <time>2018-07-17T08:49:19Z</time>
      </trkpt>
      <trkpt lat="45.95113" lon="4.8859">
        <ele>290</ele>
        <time>2018-07-17T08:49:20Z</time>
      </trkpt>
      <trkpt lat="45.95112" lon="4.88595">
        <ele>290</ele>
        <time>2018-07-17T08:49:21Z</time>
      </trkpt>
      <trkpt lat="45.9511" lon="4.88602">
        <ele>290</ele>
        <time>2018-07-17T08:49:22Z</time>
      </trkpt>
      <trkpt lat="45.95111" lon="4.88609">
        <ele>290</ele>
        <time>2018-07-17T08:49:23Z</time>
      </trkpt>
      <trkpt lat="45.9511" lon="4.88615">
        <ele>290</ele>
        <time>2018-07-17T08:49:24Z</time>
      </trkpt>
      <trkpt lat="45.95111" lon="4.88622">
        <ele>290</ele>
        <time>2018-07-17T08:49:25Z</time>
      </trkpt>
      <trkpt lat="45.9511" lon="4.88629">
        <ele>290</ele>
        <time>2018-07-17T08:49:26Z</time>
      </trkpt>
      <trkpt lat="45.9511" lon="4.88636">
        <ele>290</ele>
        <time>2018-07-17T08:49:27Z</time>
      </trkpt>
      <trkpt lat="45.95109" lon="4.88642">
        <ele>290</ele>
        <time>2018-07-17T08:49:28Z</time>
      </trkpt>
      <trkpt lat="45.95109" lon="4.88654">
        <ele>290</ele>
        <time>2018-07-17T08:49:30Z</time>
      </trkpt>
      <trkpt lat="45.95107" lon="4.88661">
        <ele>290</ele>
        <time>2018-07-17T08:49:31Z</time>
      </trkpt>
      <trkpt lat="45.95106" lon="4.88669">
        <ele>289</ele>
        <time>2018-07-17T08:49:32Z</time>
      </trkpt>
      <trkpt lat="45.95106" lon="4.88677">
        <ele>289</ele>
        <time>2018-07-17T08:49:33Z</time>
      </trkpt>
      <trkpt lat="45.95106" lon="4.88686">
        <ele>289</ele>
        <time>2018-07-17T08:49:34Z</time>
      </trkpt>
      <trkpt lat="45.95106" lon="4.88693">
        <ele>289</ele>
        <time>2018-07-17T08:49:35Z</time>
      </trkpt>
      <trkpt lat="45.95105" lon="4.88702">
        <ele>289</ele>
        <time>2018-07-17T08:49:36Z</time>
      </trkpt>
      <trkpt lat="45.95106" lon="4.8871">
        <ele>289</ele>
        <time>2018-07-17T08:49:37Z</time>
      </trkpt>
      <trkpt lat="45.95107" lon="4.88719">
        <ele>289</ele>
        <time>2018-07-17T08:49:38Z</time>
      </trkpt>
      <trkpt lat="45.95107" lon="4.88727">
        <ele>288</ele>
        <time>2018-07-17T08:49:39Z</time>
      </trkpt>
      <trkpt lat="45.95107" lon="4.88736">
        <ele>288</ele>
        <time>2018-07-17T08:49:40Z</time>
      </trkpt>
      <trkpt lat="45.95107" lon="4.88745">
        <ele>288</ele>
        <time>2018-07-17T08:49:41Z</time>
      </trkpt>
      <trkpt lat="45.95107" lon="4.88753">
        <ele>287</ele>
        <time>2018-07-17T08:49:42Z</time>
      </trkpt>
      <trkpt lat="45.9511" lon="4.88761">
        <ele>287</ele>
        <time>2018-07-17T08:49:43Z</time>
      </trkpt>
      <trkpt lat="45.95112" lon="4.88768">
        <ele>287</ele>
        <time>2018-07-17T08:49:44Z</time>
      </trkpt>
      <trkpt lat="45.95107" lon="4.88782">
        <ele>287</ele>
        <time>2018-07-17T08:49:45Z</time>
      </trkpt>
      <trkpt lat="45.95107" lon="4.88791">
        <ele>287</ele>
        <time>2018-07-17T08:49:46Z</time>
      </trkpt>
      <trkpt lat="45.95106" lon="4.888">
        <ele>286</ele>
        <time>2018-07-17T08:49:47Z</time>
      </trkpt>
      <trkpt lat="45.95108" lon="4.8881">
        <ele>286</ele>
        <time>2018-07-17T08:49:48Z</time>
      </trkpt>
      <trkpt lat="45.95108" lon="4.88822">
        <ele>286</ele>
        <time>2018-07-17T08:49:49Z</time>
      </trkpt>
      <trkpt lat="45.95105" lon="4.88832">
        <ele>286</ele>
        <time>2018-07-17T08:49:50Z</time>
      </trkpt>
      <trkpt lat="45.95104" lon="4.88842">
        <ele>285</ele>
        <time>2018-07-17T08:49:51Z</time>
      </trkpt>
      <trkpt lat="45.95104" lon="4.88851">
        <ele>285</ele>
        <time>2018-07-17T08:49:52Z</time>
      </trkpt>
      <trkpt lat="45.95104" lon="4.88861">
        <ele>285</ele>
        <time>2018-07-17T08:49:53Z</time>
      </trkpt>
      <trkpt lat="45.95104" lon="4.88868">
        <ele>285</ele>
        <time>2018-07-17T08:49:54Z</time>
      </trkpt>
      <trkpt lat="45.95103" lon="4.88879">
        <ele>285</ele>
        <time>2018-07-17T08:49:55Z</time>
      </trkpt>
      <trkpt lat="45.95103" lon="4.88889">
        <ele>285</ele>
        <time>2018-07-17T08:49:56Z</time>
      </trkpt>
      <trkpt lat="45.95104" lon="4.88896">
        <ele>285</ele>
        <time>2018-07-17T08:49:57Z</time>
      </trkpt>
      <trkpt lat="45.95102" lon="4.88906">
        <ele>285</ele>
        <time>2018-07-17T08:49:58Z</time>
      </trkpt>
      <trkpt lat="45.95101" lon="4.88914">
        <ele>285</ele>
        <time>2018-07-17T08:49:59Z</time>
      </trkpt>
      <trkpt lat="45.951" lon="4.88921">
        <ele>285</ele>
        <time>2018-07-17T08:50:00Z</time>
      </trkpt>
      <trkpt lat="45.95099" lon="4.8893">
        <ele>285</ele>
        <time>2018-07-17T08:50:01Z</time>
      </trkpt>
      <trkpt lat="45.95099" lon="4.88939">
        <ele>285</ele>
        <time>2018-07-17T08:50:02Z</time>
      </trkpt>
      <trkpt lat="45.95099" lon="4.88947">
        <ele>285</ele>
        <time>2018-07-17T08:50:03Z</time>
      </trkpt>
      <trkpt lat="45.95098" lon="4.88954">
        <ele>284</ele>
        <time>2018-07-17T08:50:04Z</time>
      </trkpt>
      <trkpt lat="45.95097" lon="4.88962">
        <ele>284</ele>
        <time>2018-07-17T08:50:05Z</time>
      </trkpt>
      <trkpt lat="45.95095" lon="4.88969">
        <ele>284</ele>
        <time>2018-07-17T08:50:06Z</time>
      </trkpt>
      <trkpt lat="45.95094" lon="4.88976">
        <ele>284</ele>
        <time>2018-07-17T08:50:07Z</time>
      </trkpt>
      <trkpt lat="45.95093" lon="4.88987">
        <ele>285</ele>
        <time>2018-07-17T08:50:09Z</time>
      </trkpt>
      <trkpt lat="45.95094" lon="4.88993">
        <ele>285</ele>
        <time>2018-07-17T08:50:10Z</time>
      </trkpt>
      <trkpt lat="45.95094" lon="4.89">
        <ele>284</ele>
        <time>2018-07-17T08:50:11Z</time>
      </trkpt>
      <trkpt lat="45.95092" lon="4.89006">
        <ele>284</ele>
        <time>2018-07-17T08:50:12Z</time>
      </trkpt>
      <trkpt lat="45.95092" lon="4.89014">
        <ele>284</ele>
        <time>2018-07-17T08:50:13Z</time>
      </trkpt>
      <trkpt lat="45.9509" lon="4.89021">
        <ele>284</ele>
        <time>2018-07-17T08:50:14Z</time>
      </trkpt>
      <trkpt lat="45.9509" lon="4.89031">
        <ele>284</ele>
        <time>2018-07-17T08:50:15Z</time>
      </trkpt>
      <trkpt lat="45.95089" lon="4.8904">
        <ele>284</ele>
        <time>2018-07-17T08:50:16Z</time>
      </trkpt>
      <trkpt lat="45.95089" lon="4.8905">
        <ele>284</ele>
        <time>2018-07-17T08:50:17Z</time>
      </trkpt>
      <trkpt lat="45.95091" lon="4.89058">
        <ele>284</ele>
        <time>2018-07-17T08:50:18Z</time>
      </trkpt>
      <trkpt lat="45.9509" lon="4.89066">
        <ele>284</ele>
        <time>2018-07-17T08:50:19Z</time>
      </trkpt>
      <trkpt lat="45.95089" lon="4.89075">
        <ele>284</ele>
        <time>2018-07-17T08:50:20Z</time>
      </trkpt>
      <trkpt lat="45.95087" lon="4.89082">
        <ele>284</ele>
        <time>2018-07-17T08:50:21Z</time>
      </trkpt>
      <trkpt lat="45.95086" lon="4.8909">
        <ele>284</ele>
        <time>2018-07-17T08:50:22Z</time>
      </trkpt>
      <trkpt lat="45.95087" lon="4.891">
        <ele>283</ele>
        <time>2018-07-17T08:50:23Z</time>
      </trkpt>
      <trkpt lat="45.95085" lon="4.89108">
        <ele>283</ele>
        <time>2018-07-17T08:50:24Z</time>
      </trkpt>
      <trkpt lat="45.95085" lon="4.89116">
        <ele>283</ele>
        <time>2018-07-17T08:50:25Z</time>
      </trkpt>
      <trkpt lat="45.95084" lon="4.89124">
        <ele>283</ele>
        <time>2018-07-17T08:50:26Z</time>
      </trkpt>
      <trkpt lat="45.95083" lon="4.89133">
        <ele>285</ele>
        <time>2018-07-17T08:50:27Z</time>
      </trkpt>
      <trkpt lat="45.95083" lon="4.89141">
        <ele>285</ele>
        <time>2018-07-17T08:50:28Z</time>
      </trkpt>
      <trkpt lat="45.95082" lon="4.89149">
        <ele>284</ele>
        <time>2018-07-17T08:50:29Z</time>
      </trkpt>
      <trkpt lat="45.95081" lon="4.89157">
        <ele>284</ele>
        <time>2018-07-17T08:50:30Z</time>
      </trkpt>
      <trkpt lat="45.9508" lon="4.89164">
        <ele>284</ele>
        <time>2018-07-17T08:50:31Z</time>
      </trkpt>
      <trkpt lat="45.95079" lon="4.89171">
        <ele>284</ele>
        <time>2018-07-17T08:50:32Z</time>
      </trkpt>
      <trkpt lat="45.95078" lon="4.89179">
        <ele>284</ele>
        <time>2018-07-17T08:50:33Z</time>
      </trkpt>
      <trkpt lat="45.95077" lon="4.89186">
        <ele>284</ele>
        <time>2018-07-17T08:50:34Z</time>
      </trkpt>
      <trkpt lat="45.95078" lon="4.89192">
        <ele>284</ele>
        <time>2018-07-17T08:50:35Z</time>
      </trkpt>
      <trkpt lat="45.95076" lon="4.89203">
        <ele>284</ele>
        <time>2018-07-17T08:50:36Z</time>
      </trkpt>
      <trkpt lat="45.95075" lon="4.89211">
        <ele>284</ele>
        <time>2018-07-17T08:50:37Z</time>
      </trkpt>
      <trkpt lat="45.95073" lon="4.89219">
        <ele>284</ele>
        <time>2018-07-17T08:50:38Z</time>
      </trkpt>
      <trkpt lat="45.95072" lon="4.89228">
        <ele>284</ele>
        <time>2018-07-17T08:50:39Z</time>
      </trkpt>
      <trkpt lat="45.95072" lon="4.89237">
        <ele>284</ele>
        <time>2018-07-17T08:50:40Z</time>
      </trkpt>
      <trkpt lat="45.95072" lon="4.89245">
        <ele>283</ele>
        <time>2018-07-17T08:50:41Z</time>
      </trkpt>
      <trkpt lat="45.95071" lon="4.89254">
        <ele>283</ele>
        <time>2018-07-17T08:50:42Z</time>
      </trkpt>
      <trkpt lat="45.95071" lon="4.89263">
        <ele>283</ele>
        <time>2018-07-17T08:50:43Z</time>
      </trkpt>
      <trkpt lat="45.95071" lon="4.89272">
        <ele>283</ele>
        <time>2018-07-17T08:50:44Z</time>
      </trkpt>
      <trkpt lat="45.9507" lon="4.89282">
        <ele>283</ele>
        <time>2018-07-17T08:50:45Z</time>
      </trkpt>
      <trkpt lat="45.95071" lon="4.8929">
        <ele>283</ele>
        <time>2018-07-17T08:50:46Z</time>
      </trkpt>
      <trkpt lat="45.95071" lon="4.89299">
        <ele>283</ele>
        <time>2018-07-17T08:50:47Z</time>
      </trkpt>
      <trkpt lat="45.95071" lon="4.89307">
        <ele>283</ele>
        <time>2018-07-17T08:50:48Z</time>
      </trkpt>
      <trkpt lat="45.95072" lon="4.89314">
        <ele>283</ele>
        <time>2018-07-17T08:50:49Z</time>
      </trkpt>
      <trkpt lat="45.95072" lon="4.89322">
        <ele>283</ele>
        <time>2018-07-17T08:50:50Z</time>
      </trkpt>
      <trkpt lat="45.95071" lon="4.8933">
        <ele>283</ele>
        <time>2018-07-17T08:50:51Z</time>
      </trkpt>
      <trkpt lat="45.95071" lon="4.89338">
        <ele>283</ele>
        <time>2018-07-17T08:50:52Z</time>
      </trkpt>
      <trkpt lat="45.95071" lon="4.89345">
        <ele>283</ele>
        <time>2018-07-17T08:50:53Z</time>
      </trkpt>
      <trkpt lat="45.9507" lon="4.89354">
        <ele>283</ele>
        <time>2018-07-17T08:50:54Z</time>
      </trkpt>
      <trkpt lat="45.9507" lon="4.89362">
        <ele>283</ele>
        <time>2018-07-17T08:50:55Z</time>
      </trkpt>
      <trkpt lat="45.95071" lon="4.8937">
        <ele>283</ele>
        <time>2018-07-17T08:50:56Z</time>
      </trkpt>
      <trkpt lat="45.95071" lon="4.89379">
        <ele>283</ele>
        <time>2018-07-17T08:50:57Z</time>
      </trkpt>
      <trkpt lat="45.95071" lon="4.89387">
        <ele>283</ele>
        <time>2018-07-17T08:50:58Z</time>
      </trkpt>
      <trkpt lat="45.95071" lon="4.89396">
        <ele>283</ele>
        <time>2018-07-17T08:50:59Z</time>
      </trkpt>
      <trkpt lat="45.95073" lon="4.89405">
        <ele>283</ele>
        <time>2018-07-17T08:51:00Z</time>
      </trkpt>
      <trkpt lat="45.95073" lon="4.89413">
        <ele>282</ele>
        <time>2018-07-17T08:51:01Z</time>
      </trkpt>
      <trkpt lat="45.95075" lon="4.89423">
        <ele>282</ele>
        <time>2018-07-17T08:51:02Z</time>
      </trkpt>
      <trkpt lat="45.95077" lon="4.89431">
        <ele>282</ele>
        <time>2018-07-17T08:51:03Z</time>
      </trkpt>
      <trkpt lat="45.95079" lon="4.89439">
        <ele>282</ele>
        <time>2018-07-17T08:51:04Z</time>
      </trkpt>
      <trkpt lat="45.95081" lon="4.89445">
        <ele>282</ele>
        <time>2018-07-17T08:51:05Z</time>
      </trkpt>
      <trkpt lat="45.95085" lon="4.89453">
        <ele>282</ele>
        <time>2018-07-17T08:51:06Z</time>
      </trkpt>
      <trkpt lat="45.95087" lon="4.8946">
        <ele>282</ele>
        <time>2018-07-17T08:51:07Z</time>
      </trkpt>
      <trkpt lat="45.95089" lon="4.89468">
        <ele>282</ele>
        <time>2018-07-17T08:51:08Z</time>
      </trkpt>
      <trkpt lat="45.95092" lon="4.89474">
        <ele>282</ele>
        <time>2018-07-17T08:51:09Z</time>
      </trkpt>
      <trkpt lat="45.95092" lon="4.89481">
        <ele>282</ele>
        <time>2018-07-17T08:51:10Z</time>
      </trkpt>
      <trkpt lat="45.95086" lon="4.89489">
        <ele>282</ele>
        <time>2018-07-17T08:51:11Z</time>
      </trkpt>
      <trkpt lat="45.95084" lon="4.89494">
        <ele>282</ele>
        <time>2018-07-17T08:51:12Z</time>
      </trkpt>
      <trkpt lat="45.95079" lon="4.89499">
        <ele>282</ele>
        <time>2018-07-17T08:51:13Z</time>
      </trkpt>
      <trkpt lat="45.95074" lon="4.89501">
        <ele>282</ele>
        <time>2018-07-17T08:51:14Z</time>
      </trkpt>
      <trkpt lat="45.95069" lon="4.89504">
        <ele>282</ele>
        <time>2018-07-17T08:51:15Z</time>
      </trkpt>
      <trkpt lat="45.95063" lon="4.89505">
        <ele>282</ele>
        <time>2018-07-17T08:51:16Z</time>
      </trkpt>
      <trkpt lat="45.95058" lon="4.89507">
        <ele>282</ele>
        <time>2018-07-17T08:51:17Z</time>
      </trkpt>
      <trkpt lat="45.95053" lon="4.89508">
        <ele>283</ele>
        <time>2018-07-17T08:51:18Z</time>
      </trkpt>
      <trkpt lat="45.95047" lon="4.89509">
        <ele>283</ele>
        <time>2018-07-17T08:51:19Z</time>
      </trkpt>
      <trkpt lat="45.95041" lon="4.89511">
        <ele>283</ele>
        <time>2018-07-17T08:51:20Z</time>
      </trkpt>
      <trkpt lat="45.95036" lon="4.89512">
        <ele>283</ele>
        <time>2018-07-17T08:51:21Z</time>
      </trkpt>
      <trkpt lat="45.9503" lon="4.89514">
        <ele>283</ele>
        <time>2018-07-17T08:51:22Z</time>
      </trkpt>
      <trkpt lat="45.95025" lon="4.89516">
        <ele>283</ele>
        <time>2018-07-17T08:51:23Z</time>
      </trkpt>
      <trkpt lat="45.9502" lon="4.89518">
        <ele>283</ele>
        <time>2018-07-17T08:51:24Z</time>
      </trkpt>
      <trkpt lat="45.95012" lon="4.89523">
        <ele>283</ele>
        <time>2018-07-17T08:51:25Z</time>
      </trkpt>
      <trkpt lat="45.95007" lon="4.89527">
        <ele>283</ele>
        <time>2018-07-17T08:51:26Z</time>
      </trkpt>
      <trkpt lat="45.95003" lon="4.89534">
        <ele>283</ele>
        <time>2018-07-17T08:51:27Z</time>
      </trkpt>
      <trkpt lat="45.94999" lon="4.89539">
        <ele>284</ele>
        <time>2018-07-17T08:51:28Z</time>
      </trkpt>
      <trkpt lat="45.94996" lon="4.89546">
        <ele>284</ele>
        <time>2018-07-17T08:51:29Z</time>
      </trkpt>
      <trkpt lat="45.94993" lon="4.89553">
        <ele>285</ele>
        <time>2018-07-17T08:51:30Z</time>
      </trkpt>
      <trkpt lat="45.94991" lon="4.89561">
        <ele>285</ele>
        <time>2018-07-17T08:51:31Z</time>
      </trkpt>
      <trkpt lat="45.94989" lon="4.89568">
        <ele>284</ele>
        <time>2018-07-17T08:51:32Z</time>
      </trkpt>
      <trkpt lat="45.94987" lon="4.89575">
        <ele>284</ele>
        <time>2018-07-17T08:51:33Z</time>
      </trkpt>
      <trkpt lat="45.94985" lon="4.89581">
        <ele>284</ele>
        <time>2018-07-17T08:51:34Z</time>
      </trkpt>
      <trkpt lat="45.94983" lon="4.89588">
        <ele>284</ele>
        <time>2018-07-17T08:51:35Z</time>
      </trkpt>
      <trkpt lat="45.94981" lon="4.89596">
        <ele>284</ele>
        <time>2018-07-17T08:51:36Z</time>
      </trkpt>
      <trkpt lat="45.94981" lon="4.89603">
        <ele>285</ele>
        <time>2018-07-17T08:51:37Z</time>
      </trkpt>
      <trkpt lat="45.94978" lon="4.89611">
        <ele>285</ele>
        <time>2018-07-17T08:51:38Z</time>
      </trkpt>
      <trkpt lat="45.94975" lon="4.89619">
        <ele>285</ele>
        <time>2018-07-17T08:51:39Z</time>
      </trkpt>
      <trkpt lat="45.94975" lon="4.89627">
        <ele>285</ele>
        <time>2018-07-17T08:51:40Z</time>
      </trkpt>
      <trkpt lat="45.94972" lon="4.89634">
        <ele>285</ele>
        <time>2018-07-17T08:51:41Z</time>
      </trkpt>
      <trkpt lat="45.94971" lon="4.89641">
        <ele>285</ele>
        <time>2018-07-17T08:51:42Z</time>
      </trkpt>
      <trkpt lat="45.94969" lon="4.89647">
        <ele>285</ele>
        <time>2018-07-17T08:51:43Z</time>
      </trkpt>
      <trkpt lat="45.94967" lon="4.89654">
        <ele>285</ele>
        <time>2018-07-17T08:51:44Z</time>
      </trkpt>
      <trkpt lat="45.94966" lon="4.8966">
        <ele>285</ele>
        <time>2018-07-17T08:51:45Z</time>
      </trkpt>
      <trkpt lat="45.94964" lon="4.89666">
        <ele>285</ele>
        <time>2018-07-17T08:51:46Z</time>
      </trkpt>
      <trkpt lat="45.94962" lon="4.89673">
        <ele>284</ele>
        <time>2018-07-17T08:51:47Z</time>
      </trkpt>
      <trkpt lat="45.9496" lon="4.8968">
        <ele>284</ele>
        <time>2018-07-17T08:51:48Z</time>
      </trkpt>
      <trkpt lat="45.94957" lon="4.89687">
        <ele>284</ele>
        <time>2018-07-17T08:51:49Z</time>
      </trkpt>
      <trkpt lat="45.94955" lon="4.89694">
        <ele>284</ele>
        <time>2018-07-17T08:51:50Z</time>
      </trkpt>
      <trkpt lat="45.94953" lon="4.89701">
        <ele>284</ele>
        <time>2018-07-17T08:51:51Z</time>
      </trkpt>
      <trkpt lat="45.9495" lon="4.8971">
        <ele>284</ele>
        <time>2018-07-17T08:51:52Z</time>
      </trkpt>
      <trkpt lat="45.94948" lon="4.89717">
        <ele>284</ele>
        <time>2018-07-17T08:51:53Z</time>
      </trkpt>
      <trkpt lat="45.94946" lon="4.89725">
        <ele>284</ele>
        <time>2018-07-17T08:51:54Z</time>
      </trkpt>
      <trkpt lat="45.94944" lon="4.89731">
        <ele>284</ele>
        <time>2018-07-17T08:51:55Z</time>
      </trkpt>
      <trkpt lat="45.94942" lon="4.89737">
        <ele>284</ele>
        <time>2018-07-17T08:51:56Z</time>
      </trkpt>
      <trkpt lat="45.94939" lon="4.89749">
        <ele>284</ele>
        <time>2018-07-17T08:51:58Z</time>
      </trkpt>
      <trkpt lat="45.94938" lon="4.89755">
        <ele>284</ele>
        <time>2018-07-17T08:51:59Z</time>
      </trkpt>
      <trkpt lat="45.94935" lon="4.89762">
        <ele>284</ele>
        <time>2018-07-17T08:52:00Z</time>
      </trkpt>
      <trkpt lat="45.94933" lon="4.89769">
        <ele>284</ele>
        <time>2018-07-17T08:52:01Z</time>
      </trkpt>
      <trkpt lat="45.94932" lon="4.89776">
        <ele>284</ele>
        <time>2018-07-17T08:52:02Z</time>
      </trkpt>
      <trkpt lat="45.94931" lon="4.89782">
        <ele>284</ele>
        <time>2018-07-17T08:52:03Z</time>
      </trkpt>
      <trkpt lat="45.94929" lon="4.89789">
        <ele>284</ele>
        <time>2018-07-17T08:52:04Z</time>
      </trkpt>
      <trkpt lat="45.94928" lon="4.89798">
        <ele>284</ele>
        <time>2018-07-17T08:52:05Z</time>
      </trkpt>
      <trkpt lat="45.94926" lon="4.89806">
        <ele>284</ele>
        <time>2018-07-17T08:52:06Z</time>
      </trkpt>
      <trkpt lat="45.94925" lon="4.89813">
        <ele>284</ele>
        <time>2018-07-17T08:52:07Z</time>
      </trkpt>
      <trkpt lat="45.94924" lon="4.8982">
        <ele>284</ele>
        <time>2018-07-17T08:52:08Z</time>
      </trkpt>
      <trkpt lat="45.94923" lon="4.89828">
        <ele>284</ele>
        <time>2018-07-17T08:52:09Z</time>
      </trkpt>
      <trkpt lat="45.94923" lon="4.89836">
        <ele>284</ele>
        <time>2018-07-17T08:52:10Z</time>
      </trkpt>
      <trkpt lat="45.94923" lon="4.89845">
        <ele>284</ele>
        <time>2018-07-17T08:52:11Z</time>
      </trkpt>
      <trkpt lat="45.94923" lon="4.89855">
        <ele>284</ele>
        <time>2018-07-17T08:52:12Z</time>
      </trkpt>
      <trkpt lat="45.94924" lon="4.89863">
        <ele>284</ele>
        <time>2018-07-17T08:52:13Z</time>
      </trkpt>
      <trkpt lat="45.94925" lon="4.89871">
        <ele>284</ele>
        <time>2018-07-17T08:52:14Z</time>
      </trkpt>
      <trkpt lat="45.94928" lon="4.89879">
        <ele>284</ele>
        <time>2018-07-17T08:52:15Z</time>
      </trkpt>
      <trkpt lat="45.94929" lon="4.89886">
        <ele>284</ele>
        <time>2018-07-17T08:52:16Z</time>
      </trkpt>
      <trkpt lat="45.94933" lon="4.89892">
        <ele>284</ele>
        <time>2018-07-17T08:52:17Z</time>
      </trkpt>
      <trkpt lat="45.94936" lon="4.89898">
        <ele>284</ele>
        <time>2018-07-17T08:52:18Z</time>
      </trkpt>
      <trkpt lat="45.94939" lon="4.89903">
        <ele>284</ele>
        <time>2018-07-17T08:52:19Z</time>
      </trkpt>
      <trkpt lat="45.94942" lon="4.89908">
        <ele>284</ele>
        <time>2018-07-17T08:52:20Z</time>
      </trkpt>
      <trkpt lat="45.94946" lon="4.89914">
        <ele>284</ele>
        <time>2018-07-17T08:52:21Z</time>
      </trkpt>
      <trkpt lat="45.9495" lon="4.8992">
        <ele>284</ele>
        <time>2018-07-17T08:52:22Z</time>
      </trkpt>
      <trkpt lat="45.94953" lon="4.89924">
        <ele>284</ele>
        <time>2018-07-17T08:52:23Z</time>
      </trkpt>
      <trkpt lat="45.94957" lon="4.89928">
        <ele>284</ele>
        <time>2018-07-17T08:52:24Z</time>
      </trkpt>
      <trkpt lat="45.94961" lon="4.89933">
        <ele>284</ele>
        <time>2018-07-17T08:52:25Z</time>
      </trkpt>
      <trkpt lat="45.94965" lon="4.89938">
        <ele>284</ele>
        <time>2018-07-17T08:52:26Z</time>
      </trkpt>
      <trkpt lat="45.9497" lon="4.89944">
        <ele>284</ele>
        <time>2018-07-17T08:52:27Z</time>
      </trkpt>
      <trkpt lat="45.94974" lon="4.89949">
        <ele>284</ele>
        <time>2018-07-17T08:52:28Z</time>
      </trkpt>
      <trkpt lat="45.94978" lon="4.89956">
        <ele>284</ele>
        <time>2018-07-17T08:52:29Z</time>
      </trkpt>
      <trkpt lat="45.94982" lon="4.89963">
        <ele>284</ele>
        <time>2018-07-17T08:52:30Z</time>
      </trkpt>
      <trkpt lat="45.94984" lon="4.89969">
        <ele>284</ele>
        <time>2018-07-17T08:52:31Z</time>
      </trkpt>
      <trkpt lat="45.94985" lon="4.89975">
        <ele>284</ele>
        <time>2018-07-17T08:52:32Z</time>
      </trkpt>
      <trkpt lat="45.94989" lon="4.89981">
        <ele>284</ele>
        <time>2018-07-17T08:52:33Z</time>
      </trkpt>
      <trkpt lat="45.94994" lon="4.89986">
        <ele>283</ele>
        <time>2018-07-17T08:52:34Z</time>
      </trkpt>
      <trkpt lat="45.94998" lon="4.89993">
        <ele>283</ele>
        <time>2018-07-17T08:52:35Z</time>
      </trkpt>
      <trkpt lat="45.95003" lon="4.89999">
        <ele>283</ele>
        <time>2018-07-17T08:52:36Z</time>
      </trkpt>
      <trkpt lat="45.95006" lon="4.90006">
        <ele>283</ele>
        <time>2018-07-17T08:52:37Z</time>
      </trkpt>
      <trkpt lat="45.9501" lon="4.90013">
        <ele>284</ele>
        <time>2018-07-17T08:52:38Z</time>
      </trkpt>
      <trkpt lat="45.95014" lon="4.90019">
        <ele>284</ele>
        <time>2018-07-17T08:52:39Z</time>
      </trkpt>
      <trkpt lat="45.95018" lon="4.90024">
        <ele>284</ele>
        <time>2018-07-17T08:52:40Z</time>
      </trkpt>
      <trkpt lat="45.95021" lon="4.9003">
        <ele>284</ele>
        <time>2018-07-17T08:52:41Z</time>
      </trkpt>
      <trkpt lat="45.95024" lon="4.90036">
        <ele>284</ele>
        <time>2018-07-17T08:52:42Z</time>
      </trkpt>
      <trkpt lat="45.95027" lon="4.90041">
        <ele>284</ele>
        <time>2018-07-17T08:52:43Z</time>
      </trkpt>
      <trkpt lat="45.95033" lon="4.9005">
        <ele>285</ele>
        <time>2018-07-17T08:52:45Z</time>
      </trkpt>
      <trkpt lat="45.95035" lon="4.90056">
        <ele>285</ele>
        <time>2018-07-17T08:52:46Z</time>
      </trkpt>
      <trkpt lat="45.9504" lon="4.90061">
        <ele>285</ele>
        <time>2018-07-17T08:52:47Z</time>
      </trkpt>
      <trkpt lat="45.95044" lon="4.90067">
        <ele>285</ele>
        <time>2018-07-17T08:52:48Z</time>
      </trkpt>
      <trkpt lat="45.95047" lon="4.90073">
        <ele>285</ele>
        <time>2018-07-17T08:52:49Z</time>
      </trkpt>
      <trkpt lat="45.95051" lon="4.90079">
        <ele>285</ele>
        <time>2018-07-17T08:52:50Z</time>
      </trkpt>
      <trkpt lat="45.95056" lon="4.90083">
        <ele>285</ele>
        <time>2018-07-17T08:52:51Z</time>
      </trkpt>
      <trkpt lat="45.9506" lon="4.90088">
        <ele>285</ele>
        <time>2018-07-17T08:52:52Z</time>
      </trkpt>
      <trkpt lat="45.95064" lon="4.90094">
        <ele>285</ele>
        <time>2018-07-17T08:52:53Z</time>
      </trkpt>
      <trkpt lat="45.95068" lon="4.90099">
        <ele>285</ele>
        <time>2018-07-17T08:52:54Z</time>
      </trkpt>
      <trkpt lat="45.95074" lon="4.90104">
        <ele>285</ele>
        <time>2018-07-17T08:52:55Z</time>
      </trkpt>
      <trkpt lat="45.95078" lon="4.9011">
        <ele>285</ele>
        <time>2018-07-17T08:52:56Z</time>
      </trkpt>
      <trkpt lat="45.95083" lon="4.90114">
        <ele>285</ele>
        <time>2018-07-17T08:52:57Z</time>
      </trkpt>
      <trkpt lat="45.95086" lon="4.90119">
        <ele>286</ele>
        <time>2018-07-17T08:52:58Z</time>
      </trkpt>
      <trkpt lat="45.95089" lon="4.90124">
        <ele>286</ele>
        <time>2018-07-17T08:52:59Z</time>
      </trkpt>
      <trkpt lat="45.95093" lon="4.90129">
        <ele>286</ele>
        <time>2018-07-17T08:53:00Z</time>
      </trkpt>
      <trkpt lat="45.95099" lon="4.90137">
        <ele>286</ele>
        <time>2018-07-17T08:53:02Z</time>
      </trkpt>
      <trkpt lat="45.95102" lon="4.9014">
        <ele>286</ele>
        <time>2018-07-17T08:53:03Z</time>
      </trkpt>
      <trkpt lat="45.95106" lon="4.90145">
        <ele>286</ele>
        <time>2018-07-17T08:53:04Z</time>
      </trkpt>
      <trkpt lat="45.95111" lon="4.90149">
        <ele>286</ele>
        <time>2018-07-17T08:53:05Z</time>
      </trkpt>
      <trkpt lat="45.95115" lon="4.90153">
        <ele>286</ele>
        <time>2018-07-17T08:53:06Z</time>
      </trkpt>
      <trkpt lat="45.95119" lon="4.90156">
        <ele>286</ele>
        <time>2018-07-17T08:53:07Z</time>
      </trkpt>
      <trkpt lat="45.95124" lon="4.90159">
        <ele>286</ele>
        <time>2018-07-17T08:53:08Z</time>
      </trkpt>
      <trkpt lat="45.95128" lon="4.90162">
        <ele>286</ele>
        <time>2018-07-17T08:53:09Z</time>
      </trkpt>
      <trkpt lat="45.95134" lon="4.90164">
        <ele>286</ele>
        <time>2018-07-17T08:53:10Z</time>
      </trkpt>
      <trkpt lat="45.95139" lon="4.90166">
        <ele>286</ele>
        <time>2018-07-17T08:53:11Z</time>
      </trkpt>
      <trkpt lat="45.95143" lon="4.90169">
        <ele>287</ele>
        <time>2018-07-17T08:53:12Z</time>
      </trkpt>
      <trkpt lat="45.95147" lon="4.90171">
        <ele>287</ele>
        <time>2018-07-17T08:53:13Z</time>
      </trkpt>
      <trkpt lat="45.95152" lon="4.90172">
        <ele>287</ele>
        <time>2018-07-17T08:53:14Z</time>
      </trkpt>
      <trkpt lat="45.95158" lon="4.90172">
        <ele>287</ele>
        <time>2018-07-17T08:53:15Z</time>
      </trkpt>
      <trkpt lat="45.95163" lon="4.90172">
        <ele>287</ele>
        <time>2018-07-17T08:53:16Z</time>
      </trkpt>
      <trkpt lat="45.95169" lon="4.90172">
        <ele>287</ele>
        <time>2018-07-17T08:53:17Z</time>
      </trkpt>
      <trkpt lat="45.95178" lon="4.9017">
        <ele>287</ele>
        <time>2018-07-17T08:53:18Z</time>
      </trkpt>
      <trkpt lat="45.95183" lon="4.9017">
        <ele>287</ele>
        <time>2018-07-17T08:53:19Z</time>
      </trkpt>
      <trkpt lat="45.95188" lon="4.90169">
        <ele>287</ele>
        <time>2018-07-17T08:53:20Z</time>
      </trkpt>
      <trkpt lat="45.95193" lon="4.90168">
        <ele>287</ele>
        <time>2018-07-17T08:53:21Z</time>
      </trkpt>
      <trkpt lat="45.95198" lon="4.90169">
        <ele>287</ele>
        <time>2018-07-17T08:53:22Z</time>
      </trkpt>
      <trkpt lat="45.95205" lon="4.90175">
        <ele>287</ele>
        <time>2018-07-17T08:53:24Z</time>
      </trkpt>
      <trkpt lat="45.95208" lon="4.9018">
        <ele>287</ele>
        <time>2018-07-17T08:53:25Z</time>
      </trkpt>
      <trkpt lat="45.95211" lon="4.90186">
        <ele>286</ele>
        <time>2018-07-17T08:53:26Z</time>
      </trkpt>
      <trkpt lat="45.95213" lon="4.90195">
        <ele>286</ele>
        <time>2018-07-17T08:53:27Z</time>
      </trkpt>
      <trkpt lat="45.95214" lon="4.90207">
        <ele>286</ele>
        <time>2018-07-17T08:53:29Z</time>
      </trkpt>
      <trkpt lat="45.95216" lon="4.90214">
        <ele>286</ele>
        <time>2018-07-17T08:53:30Z</time>
      </trkpt>
      <trkpt lat="45.95217" lon="4.90223">
        <ele>286</ele>
        <time>2018-07-17T08:53:31Z</time>
      </trkpt>
      <trkpt lat="45.95218" lon="4.90229">
        <ele>286</ele>
        <time>2018-07-17T08:53:32Z</time>
      </trkpt>
      <trkpt lat="45.95218" lon="4.90241">
        <ele>286</ele>
        <time>2018-07-17T08:53:34Z</time>
      </trkpt>
      <trkpt lat="45.95218" lon="4.90248">
        <ele>286</ele>
        <time>2018-07-17T08:53:35Z</time>
      </trkpt>
      <trkpt lat="45.95218" lon="4.90256">
        <ele>287</ele>
        <time>2018-07-17T08:53:36Z</time>
      </trkpt>
      <trkpt lat="45.95217" lon="4.90264">
        <ele>287</ele>
        <time>2018-07-17T08:53:37Z</time>
      </trkpt>
      <trkpt lat="45.95216" lon="4.90271">
        <ele>287</ele>
        <time>2018-07-17T08:53:38Z</time>
      </trkpt>
      <trkpt lat="45.95217" lon="4.90279">
        <ele>287</ele>
        <time>2018-07-17T08:53:39Z</time>
      </trkpt>
      <trkpt lat="45.95215" lon="4.90287">
        <ele>287</ele>
        <time>2018-07-17T08:53:40Z</time>
      </trkpt>
      <trkpt lat="45.95214" lon="4.90294">
        <ele>287</ele>
        <time>2018-07-17T08:53:41Z</time>
      </trkpt>
      <trkpt lat="45.95213" lon="4.90307">
        <ele>287</ele>
        <time>2018-07-17T08:53:43Z</time>
      </trkpt>
      <trkpt lat="45.95212" lon="4.90312">
        <ele>287</ele>
        <time>2018-07-17T08:53:44Z</time>
      </trkpt>
      <trkpt lat="45.95209" lon="4.90321">
        <ele>287</ele>
        <time>2018-07-17T08:53:46Z</time>
      </trkpt>
      <trkpt lat="45.95207" lon="4.90328">
        <ele>287</ele>
        <time>2018-07-17T08:53:47Z</time>
      </trkpt>
      <trkpt lat="45.95207" lon="4.90336">
        <ele>288</ele>
        <time>2018-07-17T08:53:48Z</time>
      </trkpt>
      <trkpt lat="45.95205" lon="4.90343">
        <ele>288</ele>
        <time>2018-07-17T08:53:49Z</time>
      </trkpt>
      <trkpt lat="45.95204" lon="4.9035">
        <ele>288</ele>
        <time>2018-07-17T08:53:50Z</time>
      </trkpt>
      <trkpt lat="45.95202" lon="4.90359">
        <ele>288</ele>
        <time>2018-07-17T08:53:51Z</time>
      </trkpt>
      <trkpt lat="45.95201" lon="4.90365">
        <ele>288</ele>
        <time>2018-07-17T08:53:52Z</time>
      </trkpt>
      <trkpt lat="45.952" lon="4.90372">
        <ele>288</ele>
        <time>2018-07-17T08:53:53Z</time>
      </trkpt>
      <trkpt lat="45.95198" lon="4.90379">
        <ele>288</ele>
        <time>2018-07-17T08:53:54Z</time>
      </trkpt>
      <trkpt lat="45.95196" lon="4.90386">
        <ele>288</ele>
        <time>2018-07-17T08:53:55Z</time>
      </trkpt>
      <trkpt lat="45.95195" lon="4.90393">
        <ele>288</ele>
        <time>2018-07-17T08:53:56Z</time>
      </trkpt>
      <trkpt lat="45.95195" lon="4.90399">
        <ele>288</ele>
        <time>2018-07-17T08:53:57Z</time>
      </trkpt>
      <trkpt lat="45.95195" lon="4.90406">
        <ele>288</ele>
        <time>2018-07-17T08:53:58Z</time>
      </trkpt>
      <trkpt lat="45.95195" lon="4.90413">
        <ele>288</ele>
        <time>2018-07-17T08:53:59Z</time>
      </trkpt>
      <trkpt lat="45.95196" lon="4.90424">
        <ele>289</ele>
        <time>2018-07-17T08:54:00Z</time>
      </trkpt>
      <trkpt lat="45.95195" lon="4.90432">
        <ele>289</ele>
        <time>2018-07-17T08:54:01Z</time>
      </trkpt>
      <trkpt lat="45.95194" lon="4.9044">
        <ele>290</ele>
        <time>2018-07-17T08:54:02Z</time>
      </trkpt>
      <trkpt lat="45.95194" lon="4.90447">
        <ele>290</ele>
        <time>2018-07-17T08:54:03Z</time>
      </trkpt>
      <trkpt lat="45.95194" lon="4.90454">
        <ele>290</ele>
        <time>2018-07-17T08:54:04Z</time>
      </trkpt>
      <trkpt lat="45.95193" lon="4.90461">
        <ele>290</ele>
        <time>2018-07-17T08:54:05Z</time>
      </trkpt>
      <trkpt lat="45.95193" lon="4.90468">
        <ele>290</ele>
        <time>2018-07-17T08:54:06Z</time>
      </trkpt>
      <trkpt lat="45.95192" lon="4.90474">
        <ele>290</ele>
        <time>2018-07-17T08:54:07Z</time>
      </trkpt>
      <trkpt lat="45.95193" lon="4.90483">
        <ele>290</ele>
        <time>2018-07-17T08:54:08Z</time>
      </trkpt>
      <trkpt lat="45.95192" lon="4.9049">
        <ele>291</ele>
        <time>2018-07-17T08:54:09Z</time>
      </trkpt>
      <trkpt lat="45.95192" lon="4.90496">
        <ele>291</ele>
        <time>2018-07-17T08:54:10Z</time>
      </trkpt>
      <trkpt lat="45.95191" lon="4.90504">
        <ele>292</ele>
        <time>2018-07-17T08:54:11Z</time>
      </trkpt>
      <trkpt lat="45.95191" lon="4.90515">
        <ele>292</ele>
        <time>2018-07-17T08:54:13Z</time>
      </trkpt>
      <trkpt lat="45.9519" lon="4.90523">
        <ele>292</ele>
        <time>2018-07-17T08:54:14Z</time>
      </trkpt>
      <trkpt lat="45.95189" lon="4.90531">
        <ele>293</ele>
        <time>2018-07-17T08:54:15Z</time>
      </trkpt>
      <trkpt lat="45.95188" lon="4.90539">
        <ele>293</ele>
        <time>2018-07-17T08:54:16Z</time>
      </trkpt>
      <trkpt lat="45.95188" lon="4.90546">
        <ele>293</ele>
        <time>2018-07-17T08:54:17Z</time>
      </trkpt>
      <trkpt lat="45.95187" lon="4.90554">
        <ele>293</ele>
        <time>2018-07-17T08:54:18Z</time>
      </trkpt>
      <trkpt lat="45.95187" lon="4.90562">
        <ele>293</ele>
        <time>2018-07-17T08:54:19Z</time>
      </trkpt>
      <trkpt lat="45.95186" lon="4.9057">
        <ele>293</ele>
        <time>2018-07-17T08:54:20Z</time>
      </trkpt>
      <trkpt lat="45.95184" lon="4.90577">
        <ele>293</ele>
        <time>2018-07-17T08:54:21Z</time>
      </trkpt>
      <trkpt lat="45.95184" lon="4.90584">
        <ele>294</ele>
        <time>2018-07-17T08:54:22Z</time>
      </trkpt>
      <trkpt lat="45.95184" lon="4.90591">
        <ele>294</ele>
        <time>2018-07-17T08:54:23Z</time>
      </trkpt>
      <trkpt lat="45.95183" lon="4.90599">
        <ele>295</ele>
        <time>2018-07-17T08:54:24Z</time>
      </trkpt>
      <trkpt lat="45.95183" lon="4.90606">
        <ele>295</ele>
        <time>2018-07-17T08:54:25Z</time>
      </trkpt>
      <trkpt lat="45.95182" lon="4.90613">
        <ele>295</ele>
        <time>2018-07-17T08:54:26Z</time>
      </trkpt>
      <trkpt lat="45.95183" lon="4.90622">
        <ele>295</ele>
        <time>2018-07-17T08:54:27Z</time>
      </trkpt>
      <trkpt lat="45.95182" lon="4.90629">
        <ele>295</ele>
        <time>2018-07-17T08:54:28Z</time>
      </trkpt>
      <trkpt lat="45.95183" lon="4.90641">
        <ele>295</ele>
        <time>2018-07-17T08:54:30Z</time>
      </trkpt>
      <trkpt lat="45.95183" lon="4.90647">
        <ele>295</ele>
        <time>2018-07-17T08:54:31Z</time>
      </trkpt>
      <trkpt lat="45.95182" lon="4.90653">
        <ele>295</ele>
        <time>2018-07-17T08:54:32Z</time>
      </trkpt>
      <trkpt lat="45.95181" lon="4.9066">
        <ele>295</ele>
        <time>2018-07-17T08:54:33Z</time>
      </trkpt>
      <trkpt lat="45.9518" lon="4.90669">
        <ele>296</ele>
        <time>2018-07-17T08:54:34Z</time>
      </trkpt>
      <trkpt lat="45.9518" lon="4.90676">
        <ele>296</ele>
        <time>2018-07-17T08:54:35Z</time>
      </trkpt>
      <trkpt lat="45.95179" lon="4.90684">
        <ele>297</ele>
        <time>2018-07-17T08:54:36Z</time>
      </trkpt>
      <trkpt lat="45.95179" lon="4.90691">
        <ele>297</ele>
        <time>2018-07-17T08:54:37Z</time>
      </trkpt>
      <trkpt lat="45.95178" lon="4.90699">
        <ele>297</ele>
        <time>2018-07-17T08:54:38Z</time>
      </trkpt>
      <trkpt lat="45.95177" lon="4.90706">
        <ele>297</ele>
        <time>2018-07-17T08:54:39Z</time>
      </trkpt>
      <trkpt lat="45.95177" lon="4.9071">
        <ele>297</ele>
        <time>2018-07-17T08:54:40Z</time>
      </trkpt>
      <trkpt lat="45.95175" lon="4.90719">
        <ele>297</ele>
        <time>2018-07-17T08:54:41Z</time>
      </trkpt>
      <trkpt lat="45.95173" lon="4.90727">
        <ele>297</ele>
        <time>2018-07-17T08:54:42Z</time>
      </trkpt>
      <trkpt lat="45.95174" lon="4.90735">
        <ele>297</ele>
        <time>2018-07-17T08:54:43Z</time>
      </trkpt>
      <trkpt lat="45.95173" lon="4.90748">
        <ele>297</ele>
        <time>2018-07-17T08:54:45Z</time>
      </trkpt>
      <trkpt lat="45.95171" lon="4.90754">
        <ele>297</ele>
        <time>2018-07-17T08:54:46Z</time>
      </trkpt>
      <trkpt lat="45.95174" lon="4.90766">
        <ele>298</ele>
        <time>2018-07-17T08:54:48Z</time>
      </trkpt>
      <trkpt lat="45.95176" lon="4.90777">
        <ele>298</ele>
        <time>2018-07-17T08:54:49Z</time>
      </trkpt>
      <trkpt lat="45.95176" lon="4.90785">
        <ele>298</ele>
        <time>2018-07-17T08:54:50Z</time>
      </trkpt>
      <trkpt lat="45.95178" lon="4.90792">
        <ele>298</ele>
        <time>2018-07-17T08:54:51Z</time>
      </trkpt>
      <trkpt lat="45.95184" lon="4.908">
        <ele>298</ele>
        <time>2018-07-17T08:54:52Z</time>
      </trkpt>
      <trkpt lat="45.95184" lon="4.90806">
        <ele>298</ele>
        <time>2018-07-17T08:54:53Z</time>
      </trkpt>
      <trkpt lat="45.95186" lon="4.90814">
        <ele>298</ele>
        <time>2018-07-17T08:54:54Z</time>
      </trkpt>
      <trkpt lat="45.95187" lon="4.90823">
        <ele>298</ele>
        <time>2018-07-17T08:54:55Z</time>
      </trkpt>
      <trkpt lat="45.95186" lon="4.90831">
        <ele>298</ele>
        <time>2018-07-17T08:54:56Z</time>
      </trkpt>
      <trkpt lat="45.95185" lon="4.90838">
        <ele>298</ele>
        <time>2018-07-17T08:54:57Z</time>
      </trkpt>
      <trkpt lat="45.95184" lon="4.90846">
        <ele>298</ele>
        <time>2018-07-17T08:54:58Z</time>
      </trkpt>
      <trkpt lat="45.95183" lon="4.90851">
        <ele>298</ele>
        <time>2018-07-17T08:54:59Z</time>
      </trkpt>
      <trkpt lat="45.95181" lon="4.90863">
        <ele>298</ele>
        <time>2018-07-17T08:55:01Z</time>
      </trkpt>
      <trkpt lat="45.95179" lon="4.90868">
        <ele>298</ele>
        <time>2018-07-17T08:55:02Z</time>
      </trkpt>
      <trkpt lat="45.95178" lon="4.90875">
        <ele>298</ele>
        <time>2018-07-17T08:55:03Z</time>
      </trkpt>
      <trkpt lat="45.95177" lon="4.90882">
        <ele>298</ele>
        <time>2018-07-17T08:55:04Z</time>
      </trkpt>
      <trkpt lat="45.95178" lon="4.90889">
        <ele>298</ele>
        <time>2018-07-17T08:55:05Z</time>
      </trkpt>
      <trkpt lat="45.95177" lon="4.90897">
        <ele>298</ele>
        <time>2018-07-17T08:55:06Z</time>
      </trkpt>
      <trkpt lat="45.95175" lon="4.90904">
        <ele>298</ele>
        <time>2018-07-17T08:55:07Z</time>
      </trkpt>
      <trkpt lat="45.95175" lon="4.90913">
        <ele>297</ele>
        <time>2018-07-17T08:55:08Z</time>
      </trkpt>
      <trkpt lat="45.95173" lon="4.90921">
        <ele>297</ele>
        <time>2018-07-17T08:55:09Z</time>
      </trkpt>
      <trkpt lat="45.95173" lon="4.90927">
        <ele>297</ele>
        <time>2018-07-17T08:55:10Z</time>
      </trkpt>
      <trkpt lat="45.9517" lon="4.90939">
        <ele>297</ele>
        <time>2018-07-17T08:55:12Z</time>
      </trkpt>
      <trkpt lat="45.95169" lon="4.90942">
        <ele>297</ele>
        <time>2018-07-17T08:55:13Z</time>
      </trkpt>
      <trkpt lat="45.9517" lon="4.9095">
        <ele>297</ele>
        <time>2018-07-17T08:55:14Z</time>
      </trkpt>
      <trkpt lat="45.95172" lon="4.90955">
        <ele>297</ele>
        <time>2018-07-17T08:55:15Z</time>
      </trkpt>
      <trkpt lat="45.95171" lon="4.90961">
        <ele>298</ele>
        <time>2018-07-17T08:55:16Z</time>
      </trkpt>
      <trkpt lat="45.95171" lon="4.90968">
        <ele>298</ele>
        <time>2018-07-17T08:55:17Z</time>
      </trkpt>
      <trkpt lat="45.95173" lon="4.90975">
        <ele>298</ele>
        <time>2018-07-17T08:55:18Z</time>
      </trkpt>
      <trkpt lat="45.95175" lon="4.90982">
        <ele>298</ele>
        <time>2018-07-17T08:55:19Z</time>
      </trkpt>
      <trkpt lat="45.95175" lon="4.90995">
        <ele>298</ele>
        <time>2018-07-17T08:55:21Z</time>
      </trkpt>
      <trkpt lat="45.95176" lon="4.91001">
        <ele>298</ele>
        <time>2018-07-17T08:55:22Z</time>
      </trkpt>
      <trkpt lat="45.95178" lon="4.91009">
        <ele>298</ele>
        <time>2018-07-17T08:55:23Z</time>
      </trkpt>
      <trkpt lat="45.9518" lon="4.91015">
        <ele>298</ele>
        <time>2018-07-17T08:55:24Z</time>
      </trkpt>
      <trkpt lat="45.95181" lon="4.91027">
        <ele>297</ele>
        <time>2018-07-17T08:55:26Z</time>
      </trkpt>
      <trkpt lat="45.95183" lon="4.91033">
        <ele>297</ele>
        <time>2018-07-17T08:55:27Z</time>
      </trkpt>
      <trkpt lat="45.95186" lon="4.91039">
        <ele>297</ele>
        <time>2018-07-17T08:55:28Z</time>
      </trkpt>
      <trkpt lat="45.95187" lon="4.91045">
        <ele>297</ele>
        <time>2018-07-17T08:55:29Z</time>
      </trkpt>
      <trkpt lat="45.95192" lon="4.91055">
        <ele>297</ele>
        <time>2018-07-17T08:55:31Z</time>
      </trkpt>
      <trkpt lat="45.95195" lon="4.91061">
        <ele>297</ele>
        <time>2018-07-17T08:55:32Z</time>
      </trkpt>
      <trkpt lat="45.95197" lon="4.91067">
        <ele>297</ele>
        <time>2018-07-17T08:55:33Z</time>
      </trkpt>
      <trkpt lat="45.95199" lon="4.91072">
        <ele>297</ele>
        <time>2018-07-17T08:55:34Z</time>
      </trkpt>
      <trkpt lat="45.95201" lon="4.91075">
        <ele>297</ele>
        <time>2018-07-17T08:55:35Z</time>
      </trkpt>
      <trkpt lat="45.95205" lon="4.91082">
        <ele>297</ele>
        <time>2018-07-17T08:55:36Z</time>
      </trkpt>
      <trkpt lat="45.95208" lon="4.9109">
        <ele>297</ele>
        <time>2018-07-17T08:55:38Z</time>
      </trkpt>
      <trkpt lat="45.95211" lon="4.91096">
        <ele>298</ele>
        <time>2018-07-17T08:55:39Z</time>
      </trkpt>
      <trkpt lat="45.95215" lon="4.91104">
        <ele>298</ele>
        <time>2018-07-17T08:55:41Z</time>
      </trkpt>
      <trkpt lat="45.95218" lon="4.91108">
        <ele>298</ele>
        <time>2018-07-17T08:55:42Z</time>
      </trkpt>
      <trkpt lat="45.95224" lon="4.91117">
        <ele>298</ele>
        <time>2018-07-17T08:55:46Z</time>
      </trkpt>
      <trkpt lat="45.9523" lon="4.91123">
        <ele>298</ele>
        <time>2018-07-17T08:55:47Z</time>
      </trkpt>
      <trkpt lat="45.95235" lon="4.91131">
        <ele>298</ele>
        <time>2018-07-17T08:55:49Z</time>
      </trkpt>
      <trkpt lat="45.95235" lon="4.91133">
        <ele>298</ele>
        <time>2018-07-17T08:55:50Z</time>
      </trkpt>
      <trkpt lat="45.95236" lon="4.91142">
        <ele>298</ele>
        <time>2018-07-17T08:55:53Z</time>
      </trkpt>
      <trkpt lat="45.95236" lon="4.91147">
        <ele>298</ele>
        <time>2018-07-17T08:55:54Z</time>
      </trkpt>
      <trkpt lat="45.9524" lon="4.91156">
        <ele>298</ele>
        <time>2018-07-17T08:55:56Z</time>
      </trkpt>
      <trkpt lat="45.95244" lon="4.91168">
        <ele>299</ele>
        <time>2018-07-17T08:55:57Z</time>
      </trkpt>
      <trkpt lat="45.95248" lon="4.91178">
        <ele>299</ele>
        <time>2018-07-17T08:56:01Z</time>
      </trkpt>
      <trkpt lat="45.9525" lon="4.91181">
        <ele>299</ele>
        <time>2018-07-17T08:56:02Z</time>
      </trkpt>
      <trkpt lat="45.95255" lon="4.9119">
        <ele>299</ele>
        <time>2018-07-17T08:56:05Z</time>
      </trkpt>
      <trkpt lat="45.95256" lon="4.91193">
        <ele>299</ele>
        <time>2018-07-17T08:56:06Z</time>
      </trkpt>
      <trkpt lat="45.95258" lon="4.91197">
        <ele>299</ele>
        <time>2018-07-17T08:56:08Z</time>
      </trkpt>
      <trkpt lat="45.95265" lon="4.91207">
        <ele>299</ele>
        <time>2018-07-17T08:56:09Z</time>
      </trkpt>
      <trkpt lat="45.9527" lon="4.91213">
        <ele>299</ele>
        <time>2018-07-17T08:56:12Z</time>
      </trkpt>
      <trkpt lat="45.95272" lon="4.91217">
        <ele>299</ele>
        <time>2018-07-17T08:56:13Z</time>
      </trkpt>
      <trkpt lat="45.95274" lon="4.9122">
        <ele>299</ele>
        <time>2018-07-17T08:56:14Z</time>
      </trkpt>
      <trkpt lat="45.95278" lon="4.9123">
        <ele>299</ele>
        <time>2018-07-17T08:56:15Z</time>
      </trkpt>
      <trkpt lat="45.9528" lon="4.91241">
        <ele>299</ele>
        <time>2018-07-17T08:56:19Z</time>
      </trkpt>
      <trkpt lat="45.9528" lon="4.91244">
        <ele>299</ele>
        <time>2018-07-17T08:56:20Z</time>
      </trkpt>
      <trkpt lat="45.95282" lon="4.91253">
        <ele>298</ele>
        <time>2018-07-17T08:56:23Z</time>
      </trkpt>
      <trkpt lat="45.9529" lon="4.91277">
        <ele>298</ele>
        <time>2018-07-17T08:56:24Z</time>
      </trkpt>
      <trkpt lat="45.9529" lon="4.91285">
        <ele>298</ele>
        <time>2018-07-17T08:56:25Z</time>
      </trkpt>
      <trkpt lat="45.95291" lon="4.91291">
        <ele>298</ele>
        <time>2018-07-17T08:56:26Z</time>
      </trkpt>
      <trkpt lat="45.95296" lon="4.91299">
        <ele>298</ele>
        <time>2018-07-17T08:56:27Z</time>
      </trkpt>
      <trkpt lat="45.953" lon="4.91305">
        <ele>298</ele>
        <time>2018-07-17T08:56:28Z</time>
      </trkpt>
      <trkpt lat="45.95301" lon="4.91317">
        <ele>298</ele>
        <time>2018-07-17T08:56:30Z</time>
      </trkpt>
      <trkpt lat="45.95301" lon="4.91322">
        <ele>298</ele>
        <time>2018-07-17T08:56:31Z</time>
      </trkpt>
      <trkpt lat="45.95302" lon="4.91333">
        <ele>298</ele>
        <time>2018-07-17T08:56:33Z</time>
      </trkpt>
      <trkpt lat="45.95306" lon="4.91338">
        <ele>298</ele>
        <time>2018-07-17T08:56:34Z</time>
      </trkpt>
      <trkpt lat="45.95311" lon="4.91348">
        <ele>298</ele>
        <time>2018-07-17T08:56:38Z</time>
      </trkpt>
      <trkpt lat="45.95312" lon="4.91352">
        <ele>298</ele>
        <time>2018-07-17T08:56:39Z</time>
      </trkpt>
      <trkpt lat="45.95315" lon="4.91365">
        <ele>298</ele>
        <time>2018-07-17T08:56:40Z</time>
      </trkpt>
      <trkpt lat="45.95316" lon="4.91373">
        <ele>298</ele>
        <time>2018-07-17T08:56:42Z</time>
      </trkpt>
      <trkpt lat="45.95317" lon="4.91382">
        <ele>298</ele>
        <time>2018-07-17T08:56:43Z</time>
      </trkpt>
      <trkpt lat="45.95319" lon="4.91393">
        <ele>298</ele>
        <time>2018-07-17T08:56:45Z</time>
      </trkpt>
      <trkpt lat="45.9532" lon="4.91399">
        <ele>298</ele>
        <time>2018-07-17T08:56:46Z</time>
      </trkpt>
      <trkpt lat="45.95321" lon="4.9141">
        <ele>298</ele>
        <time>2018-07-17T08:56:48Z</time>
      </trkpt>
      <trkpt lat="45.95321" lon="4.91416">
        <ele>298</ele>
        <time>2018-07-17T08:56:49Z</time>
      </trkpt>
      <trkpt lat="45.95323" lon="4.91426">
        <ele>298</ele>
        <time>2018-07-17T08:56:52Z</time>
      </trkpt>
      <trkpt lat="45.95327" lon="4.91436">
        <ele>298</ele>
        <time>2018-07-17T08:56:53Z</time>
      </trkpt>
      <trkpt lat="45.95331" lon="4.91447">
        <ele>298</ele>
        <time>2018-07-17T08:56:55Z</time>
      </trkpt>
      <trkpt lat="45.95332" lon="4.91452">
        <ele>298</ele>
        <time>2018-07-17T08:56:56Z</time>
      </trkpt>
      <trkpt lat="45.95332" lon="4.91462">
        <ele>298</ele>
        <time>2018-07-17T08:56:58Z</time>
      </trkpt>
      <trkpt lat="45.95333" lon="4.91465">
        <ele>298</ele>
        <time>2018-07-17T08:56:59Z</time>
      </trkpt>
      <trkpt lat="45.95335" lon="4.91475">
        <ele>298</ele>
        <time>2018-07-17T08:57:02Z</time>
      </trkpt>
      <trkpt lat="45.95337" lon="4.91487">
        <ele>298</ele>
        <time>2018-07-17T08:57:03Z</time>
      </trkpt>
      <trkpt lat="45.9534" lon="4.91499">
        <ele>298</ele>
        <time>2018-07-17T08:57:05Z</time>
      </trkpt>
      <trkpt lat="45.95341" lon="4.91504">
        <ele>299</ele>
        <time>2018-07-17T08:57:06Z</time>
      </trkpt>
      <trkpt lat="45.95342" lon="4.91513">
        <ele>299</ele>
        <time>2018-07-17T08:57:09Z</time>
      </trkpt>
      <trkpt lat="45.95343" lon="4.91517">
        <ele>299</ele>
        <time>2018-07-17T08:57:10Z</time>
      </trkpt>
      <trkpt lat="45.95344" lon="4.91522">
        <ele>299</ele>
        <time>2018-07-17T08:57:11Z</time>
      </trkpt>
      <trkpt lat="45.95347" lon="4.91533">
        <ele>299</ele>
        <time>2018-07-17T08:57:12Z</time>
      </trkpt>
      <trkpt lat="45.9535" lon="4.91541">
        <ele>300</ele>
        <time>2018-07-17T08:57:14Z</time>
      </trkpt>
      <trkpt lat="45.95352" lon="4.91548">
        <ele>300</ele>
        <time>2018-07-17T08:57:15Z</time>
      </trkpt>
      <trkpt lat="45.95354" lon="4.91561">
        <ele>300</ele>
        <time>2018-07-17T08:57:17Z</time>
      </trkpt>
      <trkpt lat="45.95354" lon="4.91566">
        <ele>300</ele>
        <time>2018-07-17T08:57:18Z</time>
      </trkpt>
      <trkpt lat="45.95356" lon="4.91571">
        <ele>300</ele>
        <time>2018-07-17T08:57:20Z</time>
      </trkpt>
      <trkpt lat="45.95359" lon="4.9158">
        <ele>300</ele>
        <time>2018-07-17T08:57:21Z</time>
      </trkpt>
      <trkpt lat="45.95362" lon="4.91591">
        <ele>300</ele>
        <time>2018-07-17T08:57:23Z</time>
      </trkpt>
      <trkpt lat="45.95364" lon="4.91596">
        <ele>300</ele>
        <time>2018-07-17T08:57:24Z</time>
      </trkpt>
      <trkpt lat="45.95367" lon="4.91607">
        <ele>300</ele>
        <time>2018-07-17T08:57:26Z</time>
      </trkpt>
      <trkpt lat="45.95368" lon="4.91609">
        <ele>300</ele>
        <time>2018-07-17T08:57:27Z</time>
      </trkpt>
      <trkpt lat="45.95372" lon="4.91621">
        <ele>300</ele>
        <time>2018-07-17T08:57:31Z</time>
      </trkpt>
      <trkpt lat="45.95373" lon="4.91624">
        <ele>300</ele>
        <time>2018-07-17T08:57:32Z</time>
      </trkpt>
      <trkpt lat="45.95376" lon="4.91636">
        <ele>301</ele>
        <time>2018-07-17T08:57:35Z</time>
      </trkpt>
      <trkpt lat="45.95377" lon="4.9164">
        <ele>301</ele>
        <time>2018-07-17T08:57:36Z</time>
      </trkpt>
      <trkpt lat="45.95378" lon="4.91648">
        <ele>301</ele>
        <time>2018-07-17T08:57:38Z</time>
      </trkpt>
      <trkpt lat="45.95382" lon="4.91663">
        <ele>301</ele>
        <time>2018-07-17T08:57:39Z</time>
      </trkpt>
      <trkpt lat="45.95384" lon="4.91666">
        <ele>301</ele>
        <time>2018-07-17T08:57:40Z</time>
      </trkpt>
      <trkpt lat="45.95389" lon="4.91672">
        <ele>300</ele>
        <time>2018-07-17T08:57:41Z</time>
      </trkpt>
      <trkpt lat="45.95397" lon="4.91679">
        <ele>300</ele>
        <time>2018-07-17T08:57:42Z</time>
      </trkpt>
      <trkpt lat="45.95395" lon="4.91689">
        <ele>300</ele>
        <time>2018-07-17T08:57:45Z</time>
      </trkpt>
      <trkpt lat="45.95394" lon="4.91692">
        <ele>299</ele>
        <time>2018-07-17T08:57:46Z</time>
      </trkpt>
      <trkpt lat="45.95397" lon="4.91696">
        <ele>299</ele>
        <time>2018-07-17T08:57:47Z</time>
      </trkpt>
      <trkpt lat="45.95404" lon="4.91708">
        <ele>299</ele>
        <time>2018-07-17T08:57:48Z</time>
      </trkpt>
      <trkpt lat="45.95404" lon="4.91717">
        <ele>299</ele>
        <time>2018-07-17T08:57:50Z</time>
      </trkpt>
      <trkpt lat="45.95405" lon="4.91723">
        <ele>299</ele>
        <time>2018-07-17T08:57:51Z</time>
      </trkpt>
      <trkpt lat="45.95405" lon="4.91725">
        <ele>299</ele>
        <time>2018-07-17T08:57:52Z</time>
      </trkpt>
      <trkpt lat="45.95407" lon="4.91736">
        <ele>299</ele>
        <time>2018-07-17T08:57:53Z</time>
      </trkpt>
      <trkpt lat="45.95407" lon="4.91745">
        <ele>298</ele>
        <time>2018-07-17T08:57:54Z</time>
      </trkpt>
      <trkpt lat="45.9541" lon="4.91754">
        <ele>297</ele>
        <time>2018-07-17T08:57:55Z</time>
      </trkpt>
      <trkpt lat="45.95412" lon="4.91761">
        <ele>297</ele>
        <time>2018-07-17T08:57:56Z</time>
      </trkpt>
      <trkpt lat="45.95419" lon="4.91772">
        <ele>298</ele>
        <time>2018-07-17T08:57:57Z</time>
      </trkpt>
      <trkpt lat="45.95424" lon="4.91777">
        <ele>298</ele>
        <time>2018-07-17T08:58:00Z</time>
      </trkpt>
      <trkpt lat="45.95426" lon="4.91785">
        <ele>298</ele>
        <time>2018-07-17T08:58:01Z</time>
      </trkpt>
      <trkpt lat="45.95432" lon="4.91793">
        <ele>298</ele>
        <time>2018-07-17T08:58:03Z</time>
      </trkpt>
      <trkpt lat="45.95437" lon="4.91798">
        <ele>297</ele>
        <time>2018-07-17T08:58:04Z</time>
      </trkpt>
      <trkpt lat="45.95443" lon="4.91803">
        <ele>297</ele>
        <time>2018-07-17T08:58:05Z</time>
      </trkpt>
      <trkpt lat="45.95446" lon="4.91809">
        <ele>297</ele>
        <time>2018-07-17T08:58:06Z</time>
      </trkpt>
      <trkpt lat="45.95448" lon="4.91812">
        <ele>297</ele>
        <time>2018-07-17T08:58:07Z</time>
      </trkpt>
      <trkpt lat="45.95454" lon="4.91816">
        <ele>297</ele>
        <time>2018-07-17T08:58:08Z</time>
      </trkpt>
      <trkpt lat="45.95458" lon="4.9182">
        <ele>297</ele>
        <time>2018-07-17T08:58:09Z</time>
      </trkpt>
      <trkpt lat="45.95461" lon="4.91825">
        <ele>297</ele>
        <time>2018-07-17T08:58:10Z</time>
      </trkpt>
      <trkpt lat="45.95465" lon="4.91833">
        <ele>297</ele>
        <time>2018-07-17T08:58:12Z</time>
      </trkpt>
      <trkpt lat="45.95471" lon="4.91837">
        <ele>295</ele>
        <time>2018-07-17T08:58:13Z</time>
      </trkpt>
      <trkpt lat="45.95478" lon="4.91841">
        <ele>295</ele>
        <time>2018-07-17T08:58:14Z</time>
      </trkpt>
      <trkpt lat="45.95482" lon="4.91844">
        <ele>295</ele>
        <time>2018-07-17T08:58:15Z</time>
      </trkpt>
      <trkpt lat="45.95489" lon="4.9185">
        <ele>295</ele>
        <time>2018-07-17T08:58:17Z</time>
      </trkpt>
      <trkpt lat="45.95494" lon="4.91853">
        <ele>295</ele>
        <time>2018-07-17T08:58:18Z</time>
      </trkpt>
      <trkpt lat="45.95501" lon="4.91857">
        <ele>295</ele>
        <time>2018-07-17T08:58:19Z</time>
      </trkpt>
      <trkpt lat="45.95503" lon="4.91862">
        <ele>295</ele>
        <time>2018-07-17T08:58:20Z</time>
      </trkpt>
      <trkpt lat="45.95508" lon="4.91866">
        <ele>295</ele>
        <time>2018-07-17T08:58:21Z</time>
      </trkpt>
      <trkpt lat="45.95513" lon="4.91869">
        <ele>295</ele>
        <time>2018-07-17T08:58:22Z</time>
      </trkpt>
      <trkpt lat="45.95514" lon="4.91873">
        <ele>295</ele>
        <time>2018-07-17T08:58:23Z</time>
      </trkpt>
      <trkpt lat="45.95522" lon="4.91878">
        <ele>294</ele>
        <time>2018-07-17T08:58:24Z</time>
      </trkpt>
      <trkpt lat="45.95529" lon="4.91883">
        <ele>294</ele>
        <time>2018-07-17T08:58:25Z</time>
      </trkpt>
      <trkpt lat="45.95539" lon="4.91886">
        <ele>294</ele>
        <time>2018-07-17T08:58:26Z</time>
      </trkpt>
      <trkpt lat="45.95545" lon="4.91886">
        <ele>294</ele>
        <time>2018-07-17T08:58:27Z</time>
      </trkpt>
      <trkpt lat="45.95551" lon="4.91889">
        <ele>294</ele>
        <time>2018-07-17T08:58:28Z</time>
      </trkpt>
      <trkpt lat="45.95556" lon="4.91893">
        <ele>294</ele>
        <time>2018-07-17T08:58:29Z</time>
      </trkpt>
      <trkpt lat="45.95561" lon="4.91897">
        <ele>294</ele>
        <time>2018-07-17T08:58:30Z</time>
      </trkpt>
      <trkpt lat="45.95567" lon="4.919">
        <ele>294</ele>
        <time>2018-07-17T08:58:31Z</time>
      </trkpt>
      <trkpt lat="45.95572" lon="4.91903">
        <ele>294</ele>
        <time>2018-07-17T08:58:32Z</time>
      </trkpt>
      <trkpt lat="45.95577" lon="4.91909">
        <ele>294</ele>
        <time>2018-07-17T08:58:34Z</time>
      </trkpt>
      <trkpt lat="45.9558" lon="4.91912">
        <ele>293</ele>
        <time>2018-07-17T08:58:35Z</time>
      </trkpt>
      <trkpt lat="45.95584" lon="4.91916">
        <ele>293</ele>
        <time>2018-07-17T08:58:36Z</time>
      </trkpt>
      <trkpt lat="45.95589" lon="4.91919">
        <ele>293</ele>
        <time>2018-07-17T08:58:37Z</time>
      </trkpt>
      <trkpt lat="45.95596" lon="4.91921">
        <ele>294</ele>
        <time>2018-07-17T08:58:38Z</time>
      </trkpt>
      <trkpt lat="45.956" lon="4.91926">
        <ele>294</ele>
        <time>2018-07-17T08:58:39Z</time>
      </trkpt>
      <trkpt lat="45.95602" lon="4.9193">
        <ele>294</ele>
        <time>2018-07-17T08:58:40Z</time>
      </trkpt>
      <trkpt lat="45.95609" lon="4.91936">
        <ele>294</ele>
        <time>2018-07-17T08:58:41Z</time>
      </trkpt>
      <trkpt lat="45.95611" lon="4.91939">
        <ele>294</ele>
        <time>2018-07-17T08:58:42Z</time>
      </trkpt>
      <trkpt lat="45.95616" lon="4.91946">
        <ele>294</ele>
        <time>2018-07-17T08:58:43Z</time>
      </trkpt>
      <trkpt lat="45.95616" lon="4.91954">
        <ele>295</ele>
        <time>2018-07-17T08:58:44Z</time>
      </trkpt>
      <trkpt lat="45.95621" lon="4.91957">
        <ele>295</ele>
        <time>2018-07-17T08:58:45Z</time>
      </trkpt>
      <trkpt lat="45.95625" lon="4.91963">
        <ele>295</ele>
        <time>2018-07-17T08:58:46Z</time>
      </trkpt>
      <trkpt lat="45.95628" lon="4.91968">
        <ele>295</ele>
        <time>2018-07-17T08:58:47Z</time>
      </trkpt>
      <trkpt lat="45.95629" lon="4.91974">
        <ele>295</ele>
        <time>2018-07-17T08:58:48Z</time>
      </trkpt>
      <trkpt lat="45.95635" lon="4.91978">
        <ele>295</ele>
        <time>2018-07-17T08:58:49Z</time>
      </trkpt>
      <trkpt lat="45.95642" lon="4.91982">
        <ele>296</ele>
        <time>2018-07-17T08:58:50Z</time>
      </trkpt>
      <trkpt lat="45.95646" lon="4.91988">
        <ele>296</ele>
        <time>2018-07-17T08:58:51Z</time>
      </trkpt>
      <trkpt lat="45.95651" lon="4.91998">
        <ele>296</ele>
        <time>2018-07-17T08:58:53Z</time>
      </trkpt>
      <trkpt lat="45.95655" lon="4.92002">
        <ele>297</ele>
        <time>2018-07-17T08:58:54Z</time>
      </trkpt>
      <trkpt lat="45.95657" lon="4.92008">
        <ele>297</ele>
        <time>2018-07-17T08:58:55Z</time>
      </trkpt>
      <trkpt lat="45.95662" lon="4.92014">
        <ele>297</ele>
        <time>2018-07-17T08:58:56Z</time>
      </trkpt>
      <trkpt lat="45.95665" lon="4.9202">
        <ele>297</ele>
        <time>2018-07-17T08:58:57Z</time>
      </trkpt>
      <trkpt lat="45.95668" lon="4.92026">
        <ele>300</ele>
        <time>2018-07-17T08:58:58Z</time>
      </trkpt>
      <trkpt lat="45.95665" lon="4.92034">
        <ele>297</ele>
        <time>2018-07-17T08:58:59Z</time>
      </trkpt>
      <trkpt lat="45.95666" lon="4.92041">
        <ele>297</ele>
        <time>2018-07-17T08:59:00Z</time>
      </trkpt>
      <trkpt lat="45.95667" lon="4.92048">
        <ele>300</ele>
        <time>2018-07-17T08:59:01Z</time>
      </trkpt>
      <trkpt lat="45.95666" lon="4.92055">
        <ele>297</ele>
        <time>2018-07-17T08:59:02Z</time>
      </trkpt>
      <trkpt lat="45.95666" lon="4.92063">
        <ele>297</ele>
        <time>2018-07-17T08:59:03Z</time>
      </trkpt>
      <trkpt lat="45.95665" lon="4.92071">
        <ele>298</ele>
        <time>2018-07-17T08:59:04Z</time>
      </trkpt>
      <trkpt lat="45.95664" lon="4.92079">
        <ele>298</ele>
        <time>2018-07-17T08:59:05Z</time>
      </trkpt>
      <trkpt lat="45.95664" lon="4.92088">
        <ele>298</ele>
        <time>2018-07-17T08:59:06Z</time>
      </trkpt>
      <trkpt lat="45.95664" lon="4.92096">
        <ele>297</ele>
        <time>2018-07-17T08:59:07Z</time>
      </trkpt>
      <trkpt lat="45.95663" lon="4.92104">
        <ele>297</ele>
        <time>2018-07-17T08:59:08Z</time>
      </trkpt>
      <trkpt lat="45.95662" lon="4.92111">
        <ele>296</ele>
        <time>2018-07-17T08:59:09Z</time>
      </trkpt>
      <trkpt lat="45.95662" lon="4.92119">
        <ele>296</ele>
        <time>2018-07-17T08:59:10Z</time>
      </trkpt>
      <trkpt lat="45.95663" lon="4.92126">
        <ele>296</ele>
        <time>2018-07-17T08:59:11Z</time>
      </trkpt>
      <trkpt lat="45.95662" lon="4.92133">
        <ele>296</ele>
        <time>2018-07-17T08:59:12Z</time>
      </trkpt>
      <trkpt lat="45.95662" lon="4.92139">
        <ele>296</ele>
        <time>2018-07-17T08:59:13Z</time>
      </trkpt>
      <trkpt lat="45.95662" lon="4.92147">
        <ele>296</ele>
        <time>2018-07-17T08:59:14Z</time>
      </trkpt>
      <trkpt lat="45.95662" lon="4.92156">
        <ele>296</ele>
        <time>2018-07-17T08:59:15Z</time>
      </trkpt>
      <trkpt lat="45.95662" lon="4.92164">
        <ele>297</ele>
        <time>2018-07-17T08:59:16Z</time>
      </trkpt>
      <trkpt lat="45.95659" lon="4.92175">
        <ele>296</ele>
        <time>2018-07-17T08:59:18Z</time>
      </trkpt>
      <trkpt lat="45.9566" lon="4.92184">
        <ele>295</ele>
        <time>2018-07-17T08:59:19Z</time>
      </trkpt>
      <trkpt lat="45.9566" lon="4.92196">
        <ele>295</ele>
        <time>2018-07-17T08:59:20Z</time>
      </trkpt>
      <trkpt lat="45.95663" lon="4.92205">
        <ele>294</ele>
        <time>2018-07-17T08:59:21Z</time>
      </trkpt>
      <trkpt lat="45.95663" lon="4.92218">
        <ele>294</ele>
        <time>2018-07-17T08:59:22Z</time>
      </trkpt>
      <trkpt lat="45.9566" lon="4.92228">
        <ele>294</ele>
        <time>2018-07-17T08:59:23Z</time>
      </trkpt>
      <trkpt lat="45.95658" lon="4.92235">
        <ele>294</ele>
        <time>2018-07-17T08:59:24Z</time>
      </trkpt>
      <trkpt lat="45.95659" lon="4.92242">
        <ele>294</ele>
        <time>2018-07-17T08:59:25Z</time>
      </trkpt>
      <trkpt lat="45.95658" lon="4.92251">
        <ele>294</ele>
        <time>2018-07-17T08:59:26Z</time>
      </trkpt>
      <trkpt lat="45.95659" lon="4.92259">
        <ele>294</ele>
        <time>2018-07-17T08:59:27Z</time>
      </trkpt>
      <trkpt lat="45.95658" lon="4.92266">
        <ele>294</ele>
        <time>2018-07-17T08:59:28Z</time>
      </trkpt>
      <trkpt lat="45.95658" lon="4.92275">
        <ele>293</ele>
        <time>2018-07-17T08:59:29Z</time>
      </trkpt>
      <trkpt lat="45.95656" lon="4.92285">
        <ele>293</ele>
        <time>2018-07-17T08:59:30Z</time>
      </trkpt>
      <trkpt lat="45.95658" lon="4.92294">
        <ele>293</ele>
        <time>2018-07-17T08:59:31Z</time>
      </trkpt>
      <trkpt lat="45.95657" lon="4.92303">
        <ele>293</ele>
        <time>2018-07-17T08:59:32Z</time>
      </trkpt>
      <trkpt lat="45.95657" lon="4.92312">
        <ele>293</ele>
        <time>2018-07-17T08:59:33Z</time>
      </trkpt>
      <trkpt lat="45.95656" lon="4.92319">
        <ele>293</ele>
        <time>2018-07-17T08:59:34Z</time>
      </trkpt>
      <trkpt lat="45.95654" lon="4.92328">
        <ele>293</ele>
        <time>2018-07-17T08:59:35Z</time>
      </trkpt>
      <trkpt lat="45.95655" lon="4.92337">
        <ele>293</ele>
        <time>2018-07-17T08:59:36Z</time>
      </trkpt>
      <trkpt lat="45.95658" lon="4.92353">
        <ele>293</ele>
        <time>2018-07-17T08:59:37Z</time>
      </trkpt>
      <trkpt lat="45.95657" lon="4.92365">
        <ele>293</ele>
        <time>2018-07-17T08:59:39Z</time>
      </trkpt>
      <trkpt lat="45.95654" lon="4.9237">
        <ele>293</ele>
        <time>2018-07-17T08:59:40Z</time>
      </trkpt>
      <trkpt lat="45.95653" lon="4.92379">
        <ele>293</ele>
        <time>2018-07-17T08:59:41Z</time>
      </trkpt>
      <trkpt lat="45.9565" lon="4.9239">
        <ele>293</ele>
        <time>2018-07-17T08:59:42Z</time>
      </trkpt>
      <trkpt lat="45.95647" lon="4.92397">
        <ele>293</ele>
        <time>2018-07-17T08:59:43Z</time>
      </trkpt>
      <trkpt lat="45.95647" lon="4.92406">
        <ele>293</ele>
        <time>2018-07-17T08:59:44Z</time>
      </trkpt>
      <trkpt lat="45.95646" lon="4.92416">
        <ele>293</ele>
        <time>2018-07-17T08:59:45Z</time>
      </trkpt>
      <trkpt lat="45.95645" lon="4.92424">
        <ele>293</ele>
        <time>2018-07-17T08:59:46Z</time>
      </trkpt>
      <trkpt lat="45.95642" lon="4.92432">
        <ele>293</ele>
        <time>2018-07-17T08:59:47Z</time>
      </trkpt>
      <trkpt lat="45.95641" lon="4.92441">
        <ele>293</ele>
        <time>2018-07-17T08:59:48Z</time>
      </trkpt>
      <trkpt lat="45.95639" lon="4.92452">
        <ele>293</ele>
        <time>2018-07-17T08:59:50Z</time>
      </trkpt>
      <trkpt lat="45.95636" lon="4.92462">
        <ele>293</ele>
        <time>2018-07-17T08:59:51Z</time>
      </trkpt>
      <trkpt lat="45.95635" lon="4.92471">
        <ele>293</ele>
        <time>2018-07-17T08:59:52Z</time>
      </trkpt>
      <trkpt lat="45.95634" lon="4.9248">
        <ele>293</ele>
        <time>2018-07-17T08:59:53Z</time>
      </trkpt>
      <trkpt lat="45.95633" lon="4.92491">
        <ele>293</ele>
        <time>2018-07-17T08:59:54Z</time>
      </trkpt>
      <trkpt lat="45.95631" lon="4.92499">
        <ele>293</ele>
        <time>2018-07-17T08:59:55Z</time>
      </trkpt>
      <trkpt lat="45.9563" lon="4.92507">
        <ele>294</ele>
        <time>2018-07-17T08:59:56Z</time>
      </trkpt>
      <trkpt lat="45.95629" lon="4.92515">
        <ele>294</ele>
        <time>2018-07-17T08:59:57Z</time>
      </trkpt>
      <trkpt lat="45.95629" lon="4.92525">
        <ele>294</ele>
        <time>2018-07-17T08:59:58Z</time>
      </trkpt>
      <trkpt lat="45.95628" lon="4.92534">
        <ele>294</ele>
        <time>2018-07-17T08:59:59Z</time>
      </trkpt>
      <trkpt lat="45.95626" lon="4.92543">
        <ele>294</ele>
        <time>2018-07-17T09:00:00Z</time>
      </trkpt>
      <trkpt lat="45.95625" lon="4.92569">
        <ele>294</ele>
        <time>2018-07-17T09:00:03Z</time>
      </trkpt>
      <trkpt lat="45.95625" lon="4.9258">
        <ele>294</ele>
        <time>2018-07-17T09:00:04Z</time>
      </trkpt>
      <trkpt lat="45.95624" lon="4.92588">
        <ele>294</ele>
        <time>2018-07-17T09:00:05Z</time>
      </trkpt>
      <trkpt lat="45.95624" lon="4.92596">
        <ele>294</ele>
        <time>2018-07-17T09:00:06Z</time>
      </trkpt>
      <trkpt lat="45.95622" lon="4.92604">
        <ele>294</ele>
        <time>2018-07-17T09:00:07Z</time>
      </trkpt>
      <trkpt lat="45.95622" lon="4.92614">
        <ele>294</ele>
        <time>2018-07-17T09:00:08Z</time>
      </trkpt>
      <trkpt lat="45.95621" lon="4.92621">
        <ele>294</ele>
        <time>2018-07-17T09:00:09Z</time>
      </trkpt>
      <trkpt lat="45.95621" lon="4.92627">
        <ele>294</ele>
        <time>2018-07-17T09:00:10Z</time>
      </trkpt>
      <trkpt lat="45.9562" lon="4.92634">
        <ele>294</ele>
        <time>2018-07-17T09:00:11Z</time>
      </trkpt>
      <trkpt lat="45.95619" lon="4.92641">
        <ele>294</ele>
        <time>2018-07-17T09:00:12Z</time>
      </trkpt>
      <trkpt lat="45.95618" lon="4.92648">
        <ele>294</ele>
        <time>2018-07-17T09:00:13Z</time>
      </trkpt>
      <trkpt lat="45.95615" lon="4.92655">
        <ele>294</ele>
        <time>2018-07-17T09:00:14Z</time>
      </trkpt>
      <trkpt lat="45.95613" lon="4.92663">
        <ele>294</ele>
        <time>2018-07-17T09:00:15Z</time>
      </trkpt>
      <trkpt lat="45.95612" lon="4.92671">
        <ele>295</ele>
        <time>2018-07-17T09:00:16Z</time>
      </trkpt>
      <trkpt lat="45.95613" lon="4.9268">
        <ele>295</ele>
        <time>2018-07-17T09:00:17Z</time>
      </trkpt>
      <trkpt lat="45.95611" lon="4.92686">
        <ele>295</ele>
        <time>2018-07-17T09:00:18Z</time>
      </trkpt>
      <trkpt lat="45.95608" lon="4.92695">
        <ele>295</ele>
        <time>2018-07-17T09:00:19Z</time>
      </trkpt>
      <trkpt lat="45.95607" lon="4.92703">
        <ele>295</ele>
        <time>2018-07-17T09:00:20Z</time>
      </trkpt>
      <trkpt lat="45.95606" lon="4.9271">
        <ele>295</ele>
        <time>2018-07-17T09:00:21Z</time>
      </trkpt>
      <trkpt lat="45.95603" lon="4.92719">
        <ele>295</ele>
        <time>2018-07-17T09:00:22Z</time>
      </trkpt>
      <trkpt lat="45.95602" lon="4.92726">
        <ele>295</ele>
        <time>2018-07-17T09:00:23Z</time>
      </trkpt>
      <trkpt lat="45.95601" lon="4.92734">
        <ele>295</ele>
        <time>2018-07-17T09:00:24Z</time>
      </trkpt>
      <trkpt lat="45.95599" lon="4.92741">
        <ele>295</ele>
        <time>2018-07-17T09:00:25Z</time>
      </trkpt>
      <trkpt lat="45.95598" lon="4.92749">
        <ele>295</ele>
        <time>2018-07-17T09:00:26Z</time>
      </trkpt>
      <trkpt lat="45.95597" lon="4.92757">
        <ele>295</ele>
        <time>2018-07-17T09:00:27Z</time>
      </trkpt>
      <trkpt lat="45.95595" lon="4.92764">
        <ele>295</ele>
        <time>2018-07-17T09:00:28Z</time>
      </trkpt>
      <trkpt lat="45.95594" lon="4.92772">
        <ele>295</ele>
        <time>2018-07-17T09:00:29Z</time>
      </trkpt>
      <trkpt lat="45.95591" lon="4.9278">
        <ele>295</ele>
        <time>2018-07-17T09:00:30Z</time>
      </trkpt>
      <trkpt lat="45.9559" lon="4.9279">
        <ele>295</ele>
        <time>2018-07-17T09:00:31Z</time>
      </trkpt>
      <trkpt lat="45.95589" lon="4.92796">
        <ele>295</ele>
        <time>2018-07-17T09:00:32Z</time>
      </trkpt>
      <trkpt lat="45.95586" lon="4.92804">
        <ele>295</ele>
        <time>2018-07-17T09:00:33Z</time>
      </trkpt>
      <trkpt lat="45.95584" lon="4.92811">
        <ele>295</ele>
        <time>2018-07-17T09:00:34Z</time>
      </trkpt>
      <trkpt lat="45.95582" lon="4.92817">
        <ele>295</ele>
        <time>2018-07-17T09:00:35Z</time>
      </trkpt>
      <trkpt lat="45.9558" lon="4.92828">
        <ele>295</ele>
        <time>2018-07-17T09:00:37Z</time>
      </trkpt>
      <trkpt lat="45.95577" lon="4.92834">
        <ele>295</ele>
        <time>2018-07-17T09:00:38Z</time>
      </trkpt>
      <trkpt lat="45.95575" lon="4.92842">
        <ele>294</ele>
        <time>2018-07-17T09:00:39Z</time>
      </trkpt>
      <trkpt lat="45.95573" lon="4.9285">
        <ele>294</ele>
        <time>2018-07-17T09:00:40Z</time>
      </trkpt>
      <trkpt lat="45.95572" lon="4.92857">
        <ele>294</ele>
        <time>2018-07-17T09:00:41Z</time>
      </trkpt>
      <trkpt lat="45.9557" lon="4.92867">
        <ele>294</ele>
        <time>2018-07-17T09:00:42Z</time>
      </trkpt>
      <trkpt lat="45.95569" lon="4.92875">
        <ele>294</ele>
        <time>2018-07-17T09:00:43Z</time>
      </trkpt>
      <trkpt lat="45.95569" lon="4.92884">
        <ele>294</ele>
        <time>2018-07-17T09:00:44Z</time>
      </trkpt>
      <trkpt lat="45.95567" lon="4.92892">
        <ele>294</ele>
        <time>2018-07-17T09:00:45Z</time>
      </trkpt>
      <trkpt lat="45.95567" lon="4.92902">
        <ele>294</ele>
        <time>2018-07-17T09:00:46Z</time>
      </trkpt>
      <trkpt lat="45.95566" lon="4.92911">
        <ele>294</ele>
        <time>2018-07-17T09:00:47Z</time>
      </trkpt>
      <trkpt lat="45.95564" lon="4.92918">
        <ele>293</ele>
        <time>2018-07-17T09:00:48Z</time>
      </trkpt>
      <trkpt lat="45.95562" lon="4.92927">
        <ele>293</ele>
        <time>2018-07-17T09:00:49Z</time>
      </trkpt>
      <trkpt lat="45.95561" lon="4.92936">
        <ele>292</ele>
        <time>2018-07-17T09:00:50Z</time>
      </trkpt>
      <trkpt lat="45.95559" lon="4.92944">
        <ele>292</ele>
        <time>2018-07-17T09:00:51Z</time>
      </trkpt>
      <trkpt lat="45.95559" lon="4.92952">
        <ele>292</ele>
        <time>2018-07-17T09:00:52Z</time>
      </trkpt>
      <trkpt lat="45.95558" lon="4.92961">
        <ele>292</ele>
        <time>2018-07-17T09:00:53Z</time>
      </trkpt>
      <trkpt lat="45.95556" lon="4.92967">
        <ele>292</ele>
        <time>2018-07-17T09:00:54Z</time>
      </trkpt>
      <trkpt lat="45.95555" lon="4.92974">
        <ele>292</ele>
        <time>2018-07-17T09:00:55Z</time>
      </trkpt>
      <trkpt lat="45.95554" lon="4.92981">
        <ele>292</ele>
        <time>2018-07-17T09:00:56Z</time>
      </trkpt>
      <trkpt lat="45.95553" lon="4.92992">
        <ele>292</ele>
        <time>2018-07-17T09:00:57Z</time>
      </trkpt>
      <trkpt lat="45.95552" lon="4.93003">
        <ele>291</ele>
        <time>2018-07-17T09:00:58Z</time>
      </trkpt>
      <trkpt lat="45.95551" lon="4.93012">
        <ele>291</ele>
        <time>2018-07-17T09:00:59Z</time>
      </trkpt>
      <trkpt lat="45.9555" lon="4.93019">
        <ele>291</ele>
        <time>2018-07-17T09:01:00Z</time>
      </trkpt>
      <trkpt lat="45.9555" lon="4.93026">
        <ele>291</ele>
        <time>2018-07-17T09:01:01Z</time>
      </trkpt>
      <trkpt lat="45.95548" lon="4.93032">
        <ele>291</ele>
        <time>2018-07-17T09:01:02Z</time>
      </trkpt>
      <trkpt lat="45.95549" lon="4.93041">
        <ele>291</ele>
        <time>2018-07-17T09:01:03Z</time>
      </trkpt>
      <trkpt lat="45.95548" lon="4.9305">
        <ele>290</ele>
        <time>2018-07-17T09:01:04Z</time>
      </trkpt>
      <trkpt lat="45.95547" lon="4.93058">
        <ele>290</ele>
        <time>2018-07-17T09:01:05Z</time>
      </trkpt>
      <trkpt lat="45.95546" lon="4.93066">
        <ele>290</ele>
        <time>2018-07-17T09:01:06Z</time>
      </trkpt>
      <trkpt lat="45.95546" lon="4.93074">
        <ele>290</ele>
        <time>2018-07-17T09:01:07Z</time>
      </trkpt>
      <trkpt lat="45.95544" lon="4.93083">
        <ele>290</ele>
        <time>2018-07-17T09:01:08Z</time>
      </trkpt>
      <trkpt lat="45.9554" lon="4.93091">
        <ele>290</ele>
        <time>2018-07-17T09:01:09Z</time>
      </trkpt>
      <trkpt lat="45.95536" lon="4.93099">
        <ele>289</ele>
        <time>2018-07-17T09:01:10Z</time>
      </trkpt>
      <trkpt lat="45.95532" lon="4.93106">
        <ele>289</ele>
        <time>2018-07-17T09:01:11Z</time>
      </trkpt>
      <trkpt lat="45.95527" lon="4.93113">
        <ele>289</ele>
        <time>2018-07-17T09:01:12Z</time>
      </trkpt>
      <trkpt lat="45.95523" lon="4.93121">
        <ele>289</ele>
        <time>2018-07-17T09:01:13Z</time>
      </trkpt>
      <trkpt lat="45.95517" lon="4.93124">
        <ele>289</ele>
        <time>2018-07-17T09:01:14Z</time>
      </trkpt>
      <trkpt lat="45.95511" lon="4.93126">
        <ele>289</ele>
        <time>2018-07-17T09:01:15Z</time>
      </trkpt>
      <trkpt lat="45.95506" lon="4.9313">
        <ele>289</ele>
        <time>2018-07-17T09:01:16Z</time>
      </trkpt>
      <trkpt lat="45.95503" lon="4.93135">
        <ele>289</ele>
        <time>2018-07-17T09:01:17Z</time>
      </trkpt>
      <trkpt lat="45.95499" lon="4.93139">
        <ele>290</ele>
        <time>2018-07-17T09:01:18Z</time>
      </trkpt>
      <trkpt lat="45.95493" lon="4.93143">
        <ele>290</ele>
        <time>2018-07-17T09:01:19Z</time>
      </trkpt>
      <trkpt lat="45.9549" lon="4.93146">
        <ele>290</ele>
        <time>2018-07-17T09:01:20Z</time>
      </trkpt>
      <trkpt lat="45.95485" lon="4.93148">
        <ele>290</ele>
        <time>2018-07-17T09:01:21Z</time>
      </trkpt>
      <trkpt lat="45.9548" lon="4.93152">
        <ele>290</ele>
        <time>2018-07-17T09:01:22Z</time>
      </trkpt>
      <trkpt lat="45.95476" lon="4.93153">
        <ele>290</ele>
        <time>2018-07-17T09:01:23Z</time>
      </trkpt>
      <trkpt lat="45.9547" lon="4.93156">
        <ele>290</ele>
        <time>2018-07-17T09:01:24Z</time>
      </trkpt>
      <trkpt lat="45.95465" lon="4.93157">
        <ele>290</ele>
        <time>2018-07-17T09:01:25Z</time>
      </trkpt>
      <trkpt lat="45.95459" lon="4.9316">
        <ele>290</ele>
        <time>2018-07-17T09:01:26Z</time>
      </trkpt>
      <trkpt lat="45.95456" lon="4.93166">
        <ele>291</ele>
        <time>2018-07-17T09:01:27Z</time>
      </trkpt>
      <trkpt lat="45.9545" lon="4.93174">
        <ele>291</ele>
        <time>2018-07-17T09:01:28Z</time>
      </trkpt>
      <trkpt lat="45.95447" lon="4.93181">
        <ele>291</ele>
        <time>2018-07-17T09:01:29Z</time>
      </trkpt>
      <trkpt lat="45.95444" lon="4.93188">
        <ele>291</ele>
        <time>2018-07-17T09:01:30Z</time>
      </trkpt>
      <trkpt lat="45.95444" lon="4.93196">
        <ele>291</ele>
        <time>2018-07-17T09:01:31Z</time>
      </trkpt>
      <trkpt lat="45.95443" lon="4.93205">
        <ele>291</ele>
        <time>2018-07-17T09:01:32Z</time>
      </trkpt>
      <trkpt lat="45.95446" lon="4.93214">
        <ele>291</ele>
        <time>2018-07-17T09:01:33Z</time>
      </trkpt>
      <trkpt lat="45.95449" lon="4.93222">
        <ele>291</ele>
        <time>2018-07-17T09:01:34Z</time>
      </trkpt>
      <trkpt lat="45.95452" lon="4.93231">
        <ele>291</ele>
        <time>2018-07-17T09:01:35Z</time>
      </trkpt>
      <trkpt lat="45.95456" lon="4.9324">
        <ele>291</ele>
        <time>2018-07-17T09:01:36Z</time>
      </trkpt>
      <trkpt lat="45.95459" lon="4.93249">
        <ele>290</ele>
        <time>2018-07-17T09:01:37Z</time>
      </trkpt>
      <trkpt lat="45.95462" lon="4.93258">
        <ele>290</ele>
        <time>2018-07-17T09:01:38Z</time>
      </trkpt>
      <trkpt lat="45.95465" lon="4.93266">
        <ele>290</ele>
        <time>2018-07-17T09:01:39Z</time>
      </trkpt>
      <trkpt lat="45.95469" lon="4.93275">
        <ele>290</ele>
        <time>2018-07-17T09:01:40Z</time>
      </trkpt>
      <trkpt lat="45.95473" lon="4.93284">
        <ele>290</ele>
        <time>2018-07-17T09:01:41Z</time>
      </trkpt>
      <trkpt lat="45.95478" lon="4.93293">
        <ele>290</ele>
        <time>2018-07-17T09:01:42Z</time>
      </trkpt>
      <trkpt lat="45.95482" lon="4.93302">
        <ele>290</ele>
        <time>2018-07-17T09:01:43Z</time>
      </trkpt>
      <trkpt lat="45.95484" lon="4.93311">
        <ele>290</ele>
        <time>2018-07-17T09:01:44Z</time>
      </trkpt>
      <trkpt lat="45.95488" lon="4.9332">
        <ele>290</ele>
        <time>2018-07-17T09:01:45Z</time>
      </trkpt>
      <trkpt lat="45.95491" lon="4.93329">
        <ele>289</ele>
        <time>2018-07-17T09:01:46Z</time>
      </trkpt>
      <trkpt lat="45.95496" lon="4.93336">
        <ele>289</ele>
        <time>2018-07-17T09:01:47Z</time>
      </trkpt>
      <trkpt lat="45.955" lon="4.93344">
        <ele>289</ele>
        <time>2018-07-17T09:01:48Z</time>
      </trkpt>
      <trkpt lat="45.95503" lon="4.93351">
        <ele>289</ele>
        <time>2018-07-17T09:01:49Z</time>
      </trkpt>
      <trkpt lat="45.95507" lon="4.93359">
        <ele>289</ele>
        <time>2018-07-17T09:01:50Z</time>
      </trkpt>
      <trkpt lat="45.9551" lon="4.93368">
        <ele>289</ele>
        <time>2018-07-17T09:01:51Z</time>
      </trkpt>
      <trkpt lat="45.95514" lon="4.93377">
        <ele>289</ele>
        <time>2018-07-17T09:01:52Z</time>
      </trkpt>
      <trkpt lat="45.95519" lon="4.93384">
        <ele>289</ele>
        <time>2018-07-17T09:01:53Z</time>
      </trkpt>
      <trkpt lat="45.95522" lon="4.93393">
        <ele>289</ele>
        <time>2018-07-17T09:01:54Z</time>
      </trkpt>
      <trkpt lat="45.95526" lon="4.93402">
        <ele>289</ele>
        <time>2018-07-17T09:01:55Z</time>
      </trkpt>
      <trkpt lat="45.95529" lon="4.93411">
        <ele>289</ele>
        <time>2018-07-17T09:01:56Z</time>
      </trkpt>
      <trkpt lat="45.95531" lon="4.93418">
        <ele>289</ele>
        <time>2018-07-17T09:01:57Z</time>
      </trkpt>
      <trkpt lat="45.95534" lon="4.93426">
        <ele>289</ele>
        <time>2018-07-17T09:01:58Z</time>
      </trkpt>
      <trkpt lat="45.95538" lon="4.93436">
        <ele>289</ele>
        <time>2018-07-17T09:01:59Z</time>
      </trkpt>
      <trkpt lat="45.95542" lon="4.93444">
        <ele>289</ele>
        <time>2018-07-17T09:02:00Z</time>
      </trkpt>
      <trkpt lat="45.95546" lon="4.93452">
        <ele>289</ele>
        <time>2018-07-17T09:02:01Z</time>
      </trkpt>
      <trkpt lat="45.95548" lon="4.93461">
        <ele>289</ele>
        <time>2018-07-17T09:02:02Z</time>
      </trkpt>
      <trkpt lat="45.95552" lon="4.93466">
        <ele>289</ele>
        <time>2018-07-17T09:02:03Z</time>
      </trkpt>
      <trkpt lat="45.95556" lon="4.93474">
        <ele>289</ele>
        <time>2018-07-17T09:02:04Z</time>
      </trkpt>
      <trkpt lat="45.9556" lon="4.93481">
        <ele>289</ele>
        <time>2018-07-17T09:02:05Z</time>
      </trkpt>
      <trkpt lat="45.95562" lon="4.93491">
        <ele>290</ele>
        <time>2018-07-17T09:02:06Z</time>
      </trkpt>
      <trkpt lat="45.95567" lon="4.93499">
        <ele>290</ele>
        <time>2018-07-17T09:02:07Z</time>
      </trkpt>
      <trkpt lat="45.95568" lon="4.93509">
        <ele>290</ele>
        <time>2018-07-17T09:02:08Z</time>
      </trkpt>
      <trkpt lat="45.95571" lon="4.93518">
        <ele>290</ele>
        <time>2018-07-17T09:02:09Z</time>
      </trkpt>
      <trkpt lat="45.95572" lon="4.93529">
        <ele>290</ele>
        <time>2018-07-17T09:02:10Z</time>
      </trkpt>
      <trkpt lat="45.95569" lon="4.93538">
        <ele>290</ele>
        <time>2018-07-17T09:02:11Z</time>
      </trkpt>
      <trkpt lat="45.95568" lon="4.93548">
        <ele>289</ele>
        <time>2018-07-17T09:02:12Z</time>
      </trkpt>
      <trkpt lat="45.95568" lon="4.93556">
        <ele>289</ele>
        <time>2018-07-17T09:02:13Z</time>
      </trkpt>
      <trkpt lat="45.95567" lon="4.93564">
        <ele>289</ele>
        <time>2018-07-17T09:02:14Z</time>
      </trkpt>
      <trkpt lat="45.95566" lon="4.93573">
        <ele>289</ele>
        <time>2018-07-17T09:02:15Z</time>
      </trkpt>
      <trkpt lat="45.95568" lon="4.93582">
        <ele>289</ele>
        <time>2018-07-17T09:02:16Z</time>
      </trkpt>
      <trkpt lat="45.95566" lon="4.93591">
        <ele>289</ele>
        <time>2018-07-17T09:02:17Z</time>
      </trkpt>
      <trkpt lat="45.95566" lon="4.93599">
        <ele>289</ele>
        <time>2018-07-17T09:02:18Z</time>
      </trkpt>
      <trkpt lat="45.95566" lon="4.93607">
        <ele>289</ele>
        <time>2018-07-17T09:02:19Z</time>
      </trkpt>
      <trkpt lat="45.95565" lon="4.93617">
        <ele>289</ele>
        <time>2018-07-17T09:02:20Z</time>
      </trkpt>
      <trkpt lat="45.95564" lon="4.9363">
        <ele>289</ele>
        <time>2018-07-17T09:02:21Z</time>
      </trkpt>
      <trkpt lat="45.95562" lon="4.93641">
        <ele>289</ele>
        <time>2018-07-17T09:02:22Z</time>
      </trkpt>
      <trkpt lat="45.95561" lon="4.93649">
        <ele>289</ele>
        <time>2018-07-17T09:02:23Z</time>
      </trkpt>
      <trkpt lat="45.9556" lon="4.93659">
        <ele>289</ele>
        <time>2018-07-17T09:02:24Z</time>
      </trkpt>
      <trkpt lat="45.95561" lon="4.93667">
        <ele>289</ele>
        <time>2018-07-17T09:02:25Z</time>
      </trkpt>
      <trkpt lat="45.9556" lon="4.93674">
        <ele>289</ele>
        <time>2018-07-17T09:02:26Z</time>
      </trkpt>
      <trkpt lat="45.95562" lon="4.93681">
        <ele>290</ele>
        <time>2018-07-17T09:02:27Z</time>
      </trkpt>
      <trkpt lat="45.95562" lon="4.93689">
        <ele>290</ele>
        <time>2018-07-17T09:02:28Z</time>
      </trkpt>
      <trkpt lat="45.95561" lon="4.93696">
        <ele>290</ele>
        <time>2018-07-17T09:02:29Z</time>
      </trkpt>
      <trkpt lat="45.95561" lon="4.93704">
        <ele>290</ele>
        <time>2018-07-17T09:02:30Z</time>
      </trkpt>
      <trkpt lat="45.95562" lon="4.93715">
        <ele>290</ele>
        <time>2018-07-17T09:02:31Z</time>
      </trkpt>
      <trkpt lat="45.95562" lon="4.93723">
        <ele>290</ele>
        <time>2018-07-17T09:02:32Z</time>
      </trkpt>
      <trkpt lat="45.95562" lon="4.93731">
        <ele>290</ele>
        <time>2018-07-17T09:02:33Z</time>
      </trkpt>
      <trkpt lat="45.95562" lon="4.93739">
        <ele>290</ele>
        <time>2018-07-17T09:02:34Z</time>
      </trkpt>
      <trkpt lat="45.95561" lon="4.93747">
        <ele>290</ele>
        <time>2018-07-17T09:02:35Z</time>
      </trkpt>
      <trkpt lat="45.95564" lon="4.93756">
        <ele>290</ele>
        <time>2018-07-17T09:02:36Z</time>
      </trkpt>
      <trkpt lat="45.95565" lon="4.93764">
        <ele>290</ele>
        <time>2018-07-17T09:02:37Z</time>
      </trkpt>
      <trkpt lat="45.95564" lon="4.93772">
        <ele>290</ele>
        <time>2018-07-17T09:02:38Z</time>
      </trkpt>
      <trkpt lat="45.95564" lon="4.93779">
        <ele>290</ele>
        <time>2018-07-17T09:02:39Z</time>
      </trkpt>
      <trkpt lat="45.95563" lon="4.93786">
        <ele>290</ele>
        <time>2018-07-17T09:02:40Z</time>
      </trkpt>
      <trkpt lat="45.95561" lon="4.93793">
        <ele>290</ele>
        <time>2018-07-17T09:02:41Z</time>
      </trkpt>
      <trkpt lat="45.95556" lon="4.93799">
        <ele>290</ele>
        <time>2018-07-17T09:02:42Z</time>
      </trkpt>
      <trkpt lat="45.95552" lon="4.93808">
        <ele>290</ele>
        <time>2018-07-17T09:02:44Z</time>
      </trkpt>
      <trkpt lat="45.95548" lon="4.93814">
        <ele>290</ele>
        <time>2018-07-17T09:02:45Z</time>
      </trkpt>
      <trkpt lat="45.95543" lon="4.93817">
        <ele>290</ele>
        <time>2018-07-17T09:02:46Z</time>
      </trkpt>
      <trkpt lat="45.95539" lon="4.93822">
        <ele>291</ele>
        <time>2018-07-17T09:02:47Z</time>
      </trkpt>
      <trkpt lat="45.95537" lon="4.9383">
        <ele>291</ele>
        <time>2018-07-17T09:02:49Z</time>
      </trkpt>
      <trkpt lat="45.95536" lon="4.93849">
        <ele>290</ele>
        <time>2018-07-17T09:02:50Z</time>
      </trkpt>
      <trkpt lat="45.95535" lon="4.93856">
        <ele>290</ele>
        <time>2018-07-17T09:02:51Z</time>
      </trkpt>
      <trkpt lat="45.95535" lon="4.93864">
        <ele>290</ele>
        <time>2018-07-17T09:02:52Z</time>
      </trkpt>
      <trkpt lat="45.95535" lon="4.93872">
        <ele>290</ele>
        <time>2018-07-17T09:02:53Z</time>
      </trkpt>
      <trkpt lat="45.95535" lon="4.93878">
        <ele>290</ele>
        <time>2018-07-17T09:02:54Z</time>
      </trkpt>
      <trkpt lat="45.95534" lon="4.93886">
        <ele>290</ele>
        <time>2018-07-17T09:02:55Z</time>
      </trkpt>
      <trkpt lat="45.95534" lon="4.93894">
        <ele>290</ele>
        <time>2018-07-17T09:02:56Z</time>
      </trkpt>
      <trkpt lat="45.95531" lon="4.93901">
        <ele>290</ele>
        <time>2018-07-17T09:02:57Z</time>
      </trkpt>
      <trkpt lat="45.9553" lon="4.93908">
        <ele>290</ele>
        <time>2018-07-17T09:02:58Z</time>
      </trkpt>
      <trkpt lat="45.9553" lon="4.93916">
        <ele>290</ele>
        <time>2018-07-17T09:02:59Z</time>
      </trkpt>
      <trkpt lat="45.95531" lon="4.93924">
        <ele>290</ele>
        <time>2018-07-17T09:03:00Z</time>
      </trkpt>
      <trkpt lat="45.9553" lon="4.93931">
        <ele>290</ele>
        <time>2018-07-17T09:03:01Z</time>
      </trkpt>
      <trkpt lat="45.9553" lon="4.93939">
        <ele>290</ele>
        <time>2018-07-17T09:03:02Z</time>
      </trkpt>
      <trkpt lat="45.95529" lon="4.93947">
        <ele>290</ele>
        <time>2018-07-17T09:03:03Z</time>
      </trkpt>
      <trkpt lat="45.95529" lon="4.93956">
        <ele>290</ele>
        <time>2018-07-17T09:03:04Z</time>
      </trkpt>
      <trkpt lat="45.9553" lon="4.93964">
        <ele>290</ele>
        <time>2018-07-17T09:03:05Z</time>
      </trkpt>
      <trkpt lat="45.9553" lon="4.93971">
        <ele>290</ele>
        <time>2018-07-17T09:03:06Z</time>
      </trkpt>
      <trkpt lat="45.95529" lon="4.93983">
        <ele>290</ele>
        <time>2018-07-17T09:03:08Z</time>
      </trkpt>
      <trkpt lat="45.95527" lon="4.93988">
        <ele>290</ele>
        <time>2018-07-17T09:03:09Z</time>
      </trkpt>
      <trkpt lat="45.95521" lon="4.93996">
        <ele>290</ele>
        <time>2018-07-17T09:03:12Z</time>
      </trkpt>
      <trkpt lat="45.95519" lon="4.93997">
        <ele>290</ele>
        <time>2018-07-17T09:03:13Z</time>
      </trkpt>
      <trkpt lat="45.95512" lon="4.93997">
        <ele>290</ele>
        <time>2018-07-17T09:03:14Z</time>
      </trkpt>
      <trkpt lat="45.95509" lon="4.93996">
        <ele>290</ele>
        <time>2018-07-17T09:03:15Z</time>
      </trkpt>
      <trkpt lat="45.95504" lon="4.93995">
        <ele>289</ele>
        <time>2018-07-17T09:03:16Z</time>
      </trkpt>
      <trkpt lat="45.95497" lon="4.93993">
        <ele>289</ele>
        <time>2018-07-17T09:03:17Z</time>
      </trkpt>
      <trkpt lat="45.95492" lon="4.93991">
        <ele>289</ele>
        <time>2018-07-17T09:03:18Z</time>
      </trkpt>
      <trkpt lat="45.95487" lon="4.93991">
        <ele>289</ele>
        <time>2018-07-17T09:03:19Z</time>
      </trkpt>
      <trkpt lat="45.95482" lon="4.93991">
        <ele>289</ele>
        <time>2018-07-17T09:03:20Z</time>
      </trkpt>
      <trkpt lat="45.95477" lon="4.93991">
        <ele>289</ele>
        <time>2018-07-17T09:03:21Z</time>
      </trkpt>
      <trkpt lat="45.95469" lon="4.93993">
        <ele>289</ele>
        <time>2018-07-17T09:03:22Z</time>
      </trkpt>
      <trkpt lat="45.95463" lon="4.93993">
        <ele>289</ele>
        <time>2018-07-17T09:03:23Z</time>
      </trkpt>
      <trkpt lat="45.95459" lon="4.93995">
        <ele>289</ele>
        <time>2018-07-17T09:03:24Z</time>
      </trkpt>
      <trkpt lat="45.95452" lon="4.93995">
        <ele>289</ele>
        <time>2018-07-17T09:03:25Z</time>
      </trkpt>
      <trkpt lat="45.95446" lon="4.93996">
        <ele>289</ele>
        <time>2018-07-17T09:03:26Z</time>
      </trkpt>
      <trkpt lat="45.95436" lon="4.93997">
        <ele>289</ele>
        <time>2018-07-17T09:03:27Z</time>
      </trkpt>
      <trkpt lat="45.95431" lon="4.93999">
        <ele>290</ele>
        <time>2018-07-17T09:03:28Z</time>
      </trkpt>
      <trkpt lat="45.95423" lon="4.94001">
        <ele>290</ele>
        <time>2018-07-17T09:03:29Z</time>
      </trkpt>
      <trkpt lat="45.95417" lon="4.94002">
        <ele>290</ele>
        <time>2018-07-17T09:03:30Z</time>
      </trkpt>
      <trkpt lat="45.95411" lon="4.94004">
        <ele>290</ele>
        <time>2018-07-17T09:03:31Z</time>
      </trkpt>
      <trkpt lat="45.95405" lon="4.94006">
        <ele>289</ele>
        <time>2018-07-17T09:03:32Z</time>
      </trkpt>
      <trkpt lat="45.954" lon="4.94007">
        <ele>289</ele>
        <time>2018-07-17T09:03:33Z</time>
      </trkpt>
      <trkpt lat="45.95396" lon="4.94009">
        <ele>289</ele>
        <time>2018-07-17T09:03:34Z</time>
      </trkpt>
      <trkpt lat="45.9539" lon="4.94011">
        <ele>289</ele>
        <time>2018-07-17T09:03:35Z</time>
      </trkpt>
      <trkpt lat="45.95385" lon="4.94012">
        <ele>289</ele>
        <time>2018-07-17T09:03:36Z</time>
      </trkpt>
      <trkpt lat="45.9538" lon="4.94013">
        <ele>289</ele>
        <time>2018-07-17T09:03:37Z</time>
      </trkpt>
      <trkpt lat="45.95373" lon="4.94017">
        <ele>288</ele>
        <time>2018-07-17T09:03:39Z</time>
      </trkpt>
      <trkpt lat="45.95368" lon="4.94018">
        <ele>288</ele>
        <time>2018-07-17T09:03:40Z</time>
      </trkpt>
      <trkpt lat="45.95361" lon="4.9402">
        <ele>288</ele>
        <time>2018-07-17T09:03:42Z</time>
      </trkpt>
      <trkpt lat="45.95357" lon="4.94023">
        <ele>288</ele>
        <time>2018-07-17T09:03:43Z</time>
      </trkpt>
      <trkpt lat="45.95351" lon="4.94024">
        <ele>288</ele>
        <time>2018-07-17T09:03:44Z</time>
      </trkpt>
      <trkpt lat="45.95343" lon="4.94023">
        <ele>288</ele>
        <time>2018-07-17T09:03:45Z</time>
      </trkpt>
      <trkpt lat="45.95338" lon="4.94024">
        <ele>288</ele>
        <time>2018-07-17T09:03:46Z</time>
      </trkpt>
      <trkpt lat="45.95332" lon="4.94024">
        <ele>288</ele>
        <time>2018-07-17T09:03:47Z</time>
      </trkpt>
      <trkpt lat="45.95324" lon="4.94026">
        <ele>288</ele>
        <time>2018-07-17T09:03:49Z</time>
      </trkpt>
      <trkpt lat="45.95316" lon="4.9403">
        <ele>288</ele>
        <time>2018-07-17T09:03:50Z</time>
      </trkpt>
      <trkpt lat="45.95311" lon="4.94034">
        <ele>288</ele>
        <time>2018-07-17T09:03:51Z</time>
      </trkpt>
      <trkpt lat="45.95307" lon="4.94039">
        <ele>288</ele>
        <time>2018-07-17T09:03:52Z</time>
      </trkpt>
      <trkpt lat="45.95302" lon="4.94044">
        <ele>288</ele>
        <time>2018-07-17T09:03:53Z</time>
      </trkpt>
      <trkpt lat="45.95298" lon="4.9405">
        <ele>288</ele>
        <time>2018-07-17T09:03:54Z</time>
      </trkpt>
      <trkpt lat="45.95296" lon="4.94058">
        <ele>288</ele>
        <time>2018-07-17T09:03:55Z</time>
      </trkpt>
      <trkpt lat="45.95293" lon="4.94065">
        <ele>288</ele>
        <time>2018-07-17T09:03:56Z</time>
      </trkpt>
      <trkpt lat="45.9529" lon="4.94072">
        <ele>288</ele>
        <time>2018-07-17T09:03:57Z</time>
      </trkpt>
      <trkpt lat="45.95284" lon="4.94079">
        <ele>288</ele>
        <time>2018-07-17T09:03:58Z</time>
      </trkpt>
      <trkpt lat="45.95283" lon="4.94086">
        <ele>288</ele>
        <time>2018-07-17T09:03:59Z</time>
      </trkpt>
      <trkpt lat="45.9528" lon="4.94093">
        <ele>288</ele>
        <time>2018-07-17T09:04:00Z</time>
      </trkpt>
      <trkpt lat="45.95278" lon="4.94102">
        <ele>288</ele>
        <time>2018-07-17T09:04:01Z</time>
      </trkpt>
      <trkpt lat="45.95275" lon="4.94108">
        <ele>288</ele>
        <time>2018-07-17T09:04:02Z</time>
      </trkpt>
      <trkpt lat="45.95272" lon="4.94115">
        <ele>288</ele>
        <time>2018-07-17T09:04:03Z</time>
      </trkpt>
      <trkpt lat="45.9527" lon="4.94121">
        <ele>288</ele>
        <time>2018-07-17T09:04:04Z</time>
      </trkpt>
      <trkpt lat="45.95267" lon="4.94127">
        <ele>288</ele>
        <time>2018-07-17T09:04:05Z</time>
      </trkpt>
      <trkpt lat="45.95266" lon="4.94137">
        <ele>288</ele>
        <time>2018-07-17T09:04:06Z</time>
      </trkpt>
      <trkpt lat="45.95263" lon="4.94143">
        <ele>288</ele>
        <time>2018-07-17T09:04:07Z</time>
      </trkpt>
      <trkpt lat="45.95258" lon="4.94149">
        <ele>288</ele>
        <time>2018-07-17T09:04:08Z</time>
      </trkpt>
      <trkpt lat="45.95259" lon="4.94158">
        <ele>289</ele>
        <time>2018-07-17T09:04:09Z</time>
      </trkpt>
      <trkpt lat="45.95255" lon="4.94164">
        <ele>289</ele>
        <time>2018-07-17T09:04:10Z</time>
      </trkpt>
      <trkpt lat="45.95251" lon="4.9417">
        <ele>289</ele>
        <time>2018-07-17T09:04:11Z</time>
      </trkpt>
      <trkpt lat="45.95249" lon="4.94177">
        <ele>289</ele>
        <time>2018-07-17T09:04:12Z</time>
      </trkpt>
      <trkpt lat="45.95245" lon="4.94184">
        <ele>289</ele>
        <time>2018-07-17T09:04:13Z</time>
      </trkpt>
      <trkpt lat="45.95243" lon="4.94192">
        <ele>289</ele>
        <time>2018-07-17T09:04:14Z</time>
      </trkpt>
      <trkpt lat="45.9524" lon="4.94205">
        <ele>289</ele>
        <time>2018-07-17T09:04:16Z</time>
      </trkpt>
      <trkpt lat="45.9524" lon="4.94211">
        <ele>289</ele>
        <time>2018-07-17T09:04:17Z</time>
      </trkpt>
      <trkpt lat="45.95238" lon="4.94218">
        <ele>289</ele>
        <time>2018-07-17T09:04:18Z</time>
      </trkpt>
      <trkpt lat="45.95238" lon="4.94228">
        <ele>289</ele>
        <time>2018-07-17T09:04:19Z</time>
      </trkpt>
      <trkpt lat="45.95237" lon="4.94234">
        <ele>289</ele>
        <time>2018-07-17T09:04:20Z</time>
      </trkpt>
      <trkpt lat="45.95237" lon="4.94243">
        <ele>288</ele>
        <time>2018-07-17T09:04:21Z</time>
      </trkpt>
      <trkpt lat="45.95234" lon="4.94248">
        <ele>289</ele>
        <time>2018-07-17T09:04:22Z</time>
      </trkpt>
      <trkpt lat="45.95234" lon="4.94256">
        <ele>288</ele>
        <time>2018-07-17T09:04:23Z</time>
      </trkpt>
      <trkpt lat="45.95234" lon="4.94262">
        <ele>288</ele>
        <time>2018-07-17T09:04:24Z</time>
      </trkpt>
      <trkpt lat="45.95234" lon="4.94273">
        <ele>289</ele>
        <time>2018-07-17T09:04:25Z</time>
      </trkpt>
      <trkpt lat="45.95232" lon="4.9428">
        <ele>289</ele>
        <time>2018-07-17T09:04:26Z</time>
      </trkpt>
      <trkpt lat="45.95232" lon="4.94287">
        <ele>289</ele>
        <time>2018-07-17T09:04:27Z</time>
      </trkpt>
      <trkpt lat="45.95233" lon="4.94298">
        <ele>289</ele>
        <time>2018-07-17T09:04:28Z</time>
      </trkpt>
      <trkpt lat="45.95231" lon="4.94307">
        <ele>289</ele>
        <time>2018-07-17T09:04:29Z</time>
      </trkpt>
      <trkpt lat="45.9523" lon="4.94316">
        <ele>288</ele>
        <time>2018-07-17T09:04:30Z</time>
      </trkpt>
      <trkpt lat="45.95228" lon="4.94327">
        <ele>288</ele>
        <time>2018-07-17T09:04:31Z</time>
      </trkpt>
      <trkpt lat="45.95226" lon="4.94335">
        <ele>289</ele>
        <time>2018-07-17T09:04:32Z</time>
      </trkpt>
      <trkpt lat="45.95224" lon="4.94344">
        <ele>289</ele>
        <time>2018-07-17T09:04:33Z</time>
      </trkpt>
      <trkpt lat="45.9522" lon="4.94353">
        <ele>289</ele>
        <time>2018-07-17T09:04:34Z</time>
      </trkpt>
      <trkpt lat="45.95217" lon="4.94362">
        <ele>289</ele>
        <time>2018-07-17T09:04:35Z</time>
      </trkpt>
      <trkpt lat="45.95214" lon="4.9437">
        <ele>289</ele>
        <time>2018-07-17T09:04:36Z</time>
      </trkpt>
      <trkpt lat="45.95213" lon="4.94378">
        <ele>289</ele>
        <time>2018-07-17T09:04:37Z</time>
      </trkpt>
      <trkpt lat="45.95209" lon="4.94386">
        <ele>289</ele>
        <time>2018-07-17T09:04:38Z</time>
      </trkpt>
      <trkpt lat="45.95208" lon="4.94393">
        <ele>289</ele>
        <time>2018-07-17T09:04:39Z</time>
      </trkpt>
      <trkpt lat="45.95204" lon="4.94401">
        <ele>289</ele>
        <time>2018-07-17T09:04:40Z</time>
      </trkpt>
      <trkpt lat="45.95201" lon="4.94408">
        <ele>289</ele>
        <time>2018-07-17T09:04:41Z</time>
      </trkpt>
      <trkpt lat="45.952" lon="4.94416">
        <ele>289</ele>
        <time>2018-07-17T09:04:42Z</time>
      </trkpt>
      <trkpt lat="45.95199" lon="4.94427">
        <ele>290</ele>
        <time>2018-07-17T09:04:43Z</time>
      </trkpt>
      <trkpt lat="45.95197" lon="4.94435">
        <ele>290</ele>
        <time>2018-07-17T09:04:44Z</time>
      </trkpt>
      <trkpt lat="45.95195" lon="4.94443">
        <ele>290</ele>
        <time>2018-07-17T09:04:45Z</time>
      </trkpt>
      <trkpt lat="45.95192" lon="4.94451">
        <ele>290</ele>
        <time>2018-07-17T09:04:46Z</time>
      </trkpt>
      <trkpt lat="45.95191" lon="4.94459">
        <ele>289</ele>
        <time>2018-07-17T09:04:47Z</time>
      </trkpt>
      <trkpt lat="45.95191" lon="4.94467">
        <ele>289</ele>
        <time>2018-07-17T09:04:48Z</time>
      </trkpt>
      <trkpt lat="45.9519" lon="4.94477">
        <ele>289</ele>
        <time>2018-07-17T09:04:49Z</time>
      </trkpt>
      <trkpt lat="45.95192" lon="4.94489">
        <ele>289</ele>
        <time>2018-07-17T09:04:50Z</time>
      </trkpt>
      <trkpt lat="45.95191" lon="4.94495">
        <ele>289</ele>
        <time>2018-07-17T09:04:51Z</time>
      </trkpt>
      <trkpt lat="45.95189" lon="4.94503">
        <ele>289</ele>
        <time>2018-07-17T09:04:52Z</time>
      </trkpt>
      <trkpt lat="45.95189" lon="4.9451">
        <ele>289</ele>
        <time>2018-07-17T09:04:53Z</time>
      </trkpt>
      <trkpt lat="45.95189" lon="4.94517">
        <ele>289</ele>
        <time>2018-07-17T09:04:54Z</time>
      </trkpt>
      <trkpt lat="45.95187" lon="4.94525">
        <ele>289</ele>
        <time>2018-07-17T09:04:55Z</time>
      </trkpt>
      <trkpt lat="45.95185" lon="4.94534">
        <ele>289</ele>
        <time>2018-07-17T09:04:56Z</time>
      </trkpt>
      <trkpt lat="45.95183" lon="4.94542">
        <ele>289</ele>
        <time>2018-07-17T09:04:57Z</time>
      </trkpt>
      <trkpt lat="45.95183" lon="4.94552">
        <ele>289</ele>
        <time>2018-07-17T09:04:58Z</time>
      </trkpt>
      <trkpt lat="45.95182" lon="4.94561">
        <ele>289</ele>
        <time>2018-07-17T09:04:59Z</time>
      </trkpt>
      <trkpt lat="45.95182" lon="4.9457">
        <ele>289</ele>
        <time>2018-07-17T09:05:00Z</time>
      </trkpt>
      <trkpt lat="45.95182" lon="4.94579">
        <ele>289</ele>
        <time>2018-07-17T09:05:01Z</time>
      </trkpt>
      <trkpt lat="45.95181" lon="4.94587">
        <ele>289</ele>
        <time>2018-07-17T09:05:02Z</time>
      </trkpt>
      <trkpt lat="45.9518" lon="4.94596">
        <ele>289</ele>
        <time>2018-07-17T09:05:03Z</time>
      </trkpt>
      <trkpt lat="45.95178" lon="4.94603">
        <ele>289</ele>
        <time>2018-07-17T09:05:04Z</time>
      </trkpt>
      <trkpt lat="45.95177" lon="4.94612">
        <ele>289</ele>
        <time>2018-07-17T09:05:05Z</time>
      </trkpt>
      <trkpt lat="45.95174" lon="4.94619">
        <ele>289</ele>
        <time>2018-07-17T09:05:06Z</time>
      </trkpt>
      <trkpt lat="45.95171" lon="4.94625">
        <ele>289</ele>
        <time>2018-07-17T09:05:07Z</time>
      </trkpt>
      <trkpt lat="45.95167" lon="4.94636">
        <ele>289</ele>
        <time>2018-07-17T09:05:08Z</time>
      </trkpt>
      <trkpt lat="45.95166" lon="4.94643">
        <ele>290</ele>
        <time>2018-07-17T09:05:09Z</time>
      </trkpt>
      <trkpt lat="45.95161" lon="4.94653">
        <ele>290</ele>
        <time>2018-07-17T09:05:11Z</time>
      </trkpt>
      <trkpt lat="45.95158" lon="4.94661">
        <ele>290</ele>
        <time>2018-07-17T09:05:12Z</time>
      </trkpt>
      <trkpt lat="45.95154" lon="4.94672">
        <ele>290</ele>
        <time>2018-07-17T09:05:14Z</time>
      </trkpt>
      <trkpt lat="45.95152" lon="4.94681">
        <ele>290</ele>
        <time>2018-07-17T09:05:15Z</time>
      </trkpt>
      <trkpt lat="45.95152" lon="4.94688">
        <ele>290</ele>
        <time>2018-07-17T09:05:16Z</time>
      </trkpt>
      <trkpt lat="45.95151" lon="4.94694">
        <ele>290</ele>
        <time>2018-07-17T09:05:17Z</time>
      </trkpt>
      <trkpt lat="45.95154" lon="4.947">
        <ele>290</ele>
        <time>2018-07-17T09:05:18Z</time>
      </trkpt>
      <trkpt lat="45.95159" lon="4.94707">
        <ele>290</ele>
        <time>2018-07-17T09:05:19Z</time>
      </trkpt>
      <trkpt lat="45.95162" lon="4.94713">
        <ele>290</ele>
        <time>2018-07-17T09:05:20Z</time>
      </trkpt>
      <trkpt lat="45.95166" lon="4.94716">
        <ele>290</ele>
        <time>2018-07-17T09:05:21Z</time>
      </trkpt>
      <trkpt lat="45.95172" lon="4.94724">
        <ele>288</ele>
        <time>2018-07-17T09:05:23Z</time>
      </trkpt>
      <trkpt lat="45.95177" lon="4.94729">
        <ele>288</ele>
        <time>2018-07-17T09:05:24Z</time>
      </trkpt>
      <trkpt lat="45.9518" lon="4.94734">
        <ele>288</ele>
        <time>2018-07-17T09:05:25Z</time>
      </trkpt>
      <trkpt lat="45.95185" lon="4.94738">
        <ele>288</ele>
        <time>2018-07-17T09:05:26Z</time>
      </trkpt>
      <trkpt lat="45.95189" lon="4.94744">
        <ele>288</ele>
        <time>2018-07-17T09:05:27Z</time>
      </trkpt>
      <trkpt lat="45.95192" lon="4.94749">
        <ele>288</ele>
        <time>2018-07-17T09:05:28Z</time>
      </trkpt>
      <trkpt lat="45.95196" lon="4.94755">
        <ele>287</ele>
        <time>2018-07-17T09:05:29Z</time>
      </trkpt>
      <trkpt lat="45.95198" lon="4.9476">
        <ele>287</ele>
        <time>2018-07-17T09:05:30Z</time>
      </trkpt>
      <trkpt lat="45.95199" lon="4.94767">
        <ele>287</ele>
        <time>2018-07-17T09:05:31Z</time>
      </trkpt>
      <trkpt lat="45.95201" lon="4.94774">
        <ele>287</ele>
        <time>2018-07-17T09:05:32Z</time>
      </trkpt>
      <trkpt lat="45.95197" lon="4.94777">
        <ele>287</ele>
        <time>2018-07-17T09:05:33Z</time>
      </trkpt>
      <trkpt lat="45.95194" lon="4.94781">
        <ele>287</ele>
        <time>2018-07-17T09:05:34Z</time>
      </trkpt>
      <trkpt lat="45.95186" lon="4.94785">
        <ele>287</ele>
        <time>2018-07-17T09:05:36Z</time>
      </trkpt>
      <trkpt lat="45.95182" lon="4.94786">
        <ele>287</ele>
        <time>2018-07-17T09:05:37Z</time>
      </trkpt>
      <trkpt lat="45.95177" lon="4.94787">
        <ele>287</ele>
        <time>2018-07-17T09:05:38Z</time>
      </trkpt>
      <trkpt lat="45.95172" lon="4.94789">
        <ele>287</ele>
        <time>2018-07-17T09:05:39Z</time>
      </trkpt>
      <trkpt lat="45.95168" lon="4.94791">
        <ele>287</ele>
        <time>2018-07-17T09:05:40Z</time>
      </trkpt>
      <trkpt lat="45.95164" lon="4.94794">
        <ele>289</ele>
        <time>2018-07-17T09:05:41Z</time>
      </trkpt>
      <trkpt lat="45.95158" lon="4.94796">
        <ele>289</ele>
        <time>2018-07-17T09:05:42Z</time>
      </trkpt>
      <trkpt lat="45.95153" lon="4.948">
        <ele>289</ele>
        <time>2018-07-17T09:05:43Z</time>
      </trkpt>
      <trkpt lat="45.95146" lon="4.94803">
        <ele>289</ele>
        <time>2018-07-17T09:05:44Z</time>
      </trkpt>
      <trkpt lat="45.95141" lon="4.94805">
        <ele>289</ele>
        <time>2018-07-17T09:05:45Z</time>
      </trkpt>
      <trkpt lat="45.95135" lon="4.94809">
        <ele>289</ele>
        <time>2018-07-17T09:05:46Z</time>
      </trkpt>
      <trkpt lat="45.95131" lon="4.94813">
        <ele>289</ele>
        <time>2018-07-17T09:05:47Z</time>
      </trkpt>
      <trkpt lat="45.95127" lon="4.94817">
        <ele>289</ele>
        <time>2018-07-17T09:05:48Z</time>
      </trkpt>
      <trkpt lat="45.95121" lon="4.94821">
        <ele>289</ele>
        <time>2018-07-17T09:05:49Z</time>
      </trkpt>
      <trkpt lat="45.95118" lon="4.94827">
        <ele>289</ele>
        <time>2018-07-17T09:05:50Z</time>
      </trkpt>
      <trkpt lat="45.95111" lon="4.94832">
        <ele>289</ele>
        <time>2018-07-17T09:05:51Z</time>
      </trkpt>
      <trkpt lat="45.95105" lon="4.94838">
        <ele>289</ele>
        <time>2018-07-17T09:05:52Z</time>
      </trkpt>
      <trkpt lat="45.951" lon="4.94843">
        <ele>289</ele>
        <time>2018-07-17T09:05:53Z</time>
      </trkpt>
      <trkpt lat="45.95093" lon="4.94851">
        <ele>289</ele>
        <time>2018-07-17T09:05:55Z</time>
      </trkpt>
      <trkpt lat="45.9509" lon="4.94855">
        <ele>289</ele>
        <time>2018-07-17T09:05:56Z</time>
      </trkpt>
      <trkpt lat="45.95087" lon="4.9486">
        <ele>289</ele>
        <time>2018-07-17T09:05:57Z</time>
      </trkpt>
      <trkpt lat="45.95084" lon="4.94866">
        <ele>289</ele>
        <time>2018-07-17T09:05:58Z</time>
      </trkpt>
      <trkpt lat="45.9508" lon="4.94871">
        <ele>289</ele>
        <time>2018-07-17T09:05:59Z</time>
      </trkpt>
      <trkpt lat="45.95076" lon="4.94876">
        <ele>289</ele>
        <time>2018-07-17T09:06:00Z</time>
      </trkpt>
      <trkpt lat="45.95072" lon="4.94879">
        <ele>289</ele>
        <time>2018-07-17T09:06:01Z</time>
      </trkpt>
      <trkpt lat="45.95068" lon="4.94884">
        <ele>289</ele>
        <time>2018-07-17T09:06:02Z</time>
      </trkpt>
      <trkpt lat="45.95063" lon="4.94889">
        <ele>289</ele>
        <time>2018-07-17T09:06:03Z</time>
      </trkpt>
      <trkpt lat="45.95059" lon="4.94894">
        <ele>289</ele>
        <time>2018-07-17T09:06:04Z</time>
      </trkpt>
      <trkpt lat="45.95054" lon="4.949">
        <ele>289</ele>
        <time>2018-07-17T09:06:05Z</time>
      </trkpt>
      <trkpt lat="45.95049" lon="4.94906">
        <ele>289</ele>
        <time>2018-07-17T09:06:06Z</time>
      </trkpt>
      <trkpt lat="45.95047" lon="4.94911">
        <ele>289</ele>
        <time>2018-07-17T09:06:07Z</time>
      </trkpt>
      <trkpt lat="45.9504" lon="4.94917">
        <ele>289</ele>
        <time>2018-07-17T09:06:08Z</time>
      </trkpt>
      <trkpt lat="45.95036" lon="4.94922">
        <ele>289</ele>
        <time>2018-07-17T09:06:09Z</time>
      </trkpt>
      <trkpt lat="45.95031" lon="4.94932">
        <ele>289</ele>
        <time>2018-07-17T09:06:10Z</time>
      </trkpt>
      <trkpt lat="45.95026" lon="4.94939">
        <ele>289</ele>
        <time>2018-07-17T09:06:11Z</time>
      </trkpt>
      <trkpt lat="45.95023" lon="4.94946">
        <ele>289</ele>
        <time>2018-07-17T09:06:12Z</time>
      </trkpt>
      <trkpt lat="45.9502" lon="4.94952">
        <ele>289</ele>
        <time>2018-07-17T09:06:13Z</time>
      </trkpt>
      <trkpt lat="45.95017" lon="4.94957">
        <ele>289</ele>
        <time>2018-07-17T09:06:14Z</time>
      </trkpt>
      <trkpt lat="45.95011" lon="4.94961">
        <ele>289</ele>
        <time>2018-07-17T09:06:15Z</time>
      </trkpt>
      <trkpt lat="45.95007" lon="4.94965">
        <ele>289</ele>
        <time>2018-07-17T09:06:16Z</time>
      </trkpt>
      <trkpt lat="45.95003" lon="4.94971">
        <ele>289</ele>
        <time>2018-07-17T09:06:17Z</time>
      </trkpt>
      <trkpt lat="45.95001" lon="4.94978">
        <ele>289</ele>
        <time>2018-07-17T09:06:18Z</time>
      </trkpt>
      <trkpt lat="45.94998" lon="4.94984">
        <ele>289</ele>
        <time>2018-07-17T09:06:19Z</time>
      </trkpt>
      <trkpt lat="45.94997" lon="4.94992">
        <ele>289</ele>
        <time>2018-07-17T09:06:20Z</time>
      </trkpt>
      <trkpt lat="45.94997" lon="4.94999">
        <ele>289</ele>
        <time>2018-07-17T09:06:21Z</time>
      </trkpt>
      <trkpt lat="45.95" lon="4.95007">
        <ele>289</ele>
        <time>2018-07-17T09:06:22Z</time>
      </trkpt>
      <trkpt lat="45.95003" lon="4.95015">
        <ele>289</ele>
        <time>2018-07-17T09:06:23Z</time>
      </trkpt>
      <trkpt lat="45.95002" lon="4.95022">
        <ele>289</ele>
        <time>2018-07-17T09:06:24Z</time>
      </trkpt>
      <trkpt lat="45.95003" lon="4.95027">
        <ele>289</ele>
        <time>2018-07-17T09:06:25Z</time>
      </trkpt>
      <trkpt lat="45.95005" lon="4.95035">
        <ele>290</ele>
        <time>2018-07-17T09:06:26Z</time>
      </trkpt>
      <trkpt lat="45.95005" lon="4.95043">
        <ele>290</ele>
        <time>2018-07-17T09:06:27Z</time>
      </trkpt>
      <trkpt lat="45.95006" lon="4.9505">
        <ele>290</ele>
        <time>2018-07-17T09:06:28Z</time>
      </trkpt>
      <trkpt lat="45.95006" lon="4.95058">
        <ele>290</ele>
        <time>2018-07-17T09:06:29Z</time>
      </trkpt>
      <trkpt lat="45.95007" lon="4.95068">
        <ele>290</ele>
        <time>2018-07-17T09:06:30Z</time>
      </trkpt>
      <trkpt lat="45.95005" lon="4.95077">
        <ele>290</ele>
        <time>2018-07-17T09:06:31Z</time>
      </trkpt>
      <trkpt lat="45.95005" lon="4.95085">
        <ele>290</ele>
        <time>2018-07-17T09:06:32Z</time>
      </trkpt>
      <trkpt lat="45.95005" lon="4.95093">
        <ele>290</ele>
        <time>2018-07-17T09:06:33Z</time>
      </trkpt>
      <trkpt lat="45.95005" lon="4.95103">
        <ele>290</ele>
        <time>2018-07-17T09:06:34Z</time>
      </trkpt>
      <trkpt lat="45.95006" lon="4.9511">
        <ele>290</ele>
        <time>2018-07-17T09:06:35Z</time>
      </trkpt>
      <trkpt lat="45.95004" lon="4.95119">
        <ele>290</ele>
        <time>2018-07-17T09:06:36Z</time>
      </trkpt>
      <trkpt lat="45.95004" lon="4.95128">
        <ele>290</ele>
        <time>2018-07-17T09:06:37Z</time>
      </trkpt>
      <trkpt lat="45.95003" lon="4.95136">
        <ele>290</ele>
        <time>2018-07-17T09:06:38Z</time>
      </trkpt>
      <trkpt lat="45.95002" lon="4.95146">
        <ele>290</ele>
        <time>2018-07-17T09:06:39Z</time>
      </trkpt>
      <trkpt lat="45.95" lon="4.95155">
        <ele>290</ele>
        <time>2018-07-17T09:06:40Z</time>
      </trkpt>
      <trkpt lat="45.95" lon="4.95167">
        <ele>290</ele>
        <time>2018-07-17T09:06:41Z</time>
      </trkpt>
      <trkpt lat="45.95" lon="4.95173">
        <ele>290</ele>
        <time>2018-07-17T09:06:42Z</time>
      </trkpt>
      <trkpt lat="45.95" lon="4.95179">
        <ele>290</ele>
        <time>2018-07-17T09:06:43Z</time>
      </trkpt>
      <trkpt lat="45.95001" lon="4.95187">
        <ele>290</ele>
        <time>2018-07-17T09:06:44Z</time>
      </trkpt>
      <trkpt lat="45.95001" lon="4.95196">
        <ele>290</ele>
        <time>2018-07-17T09:06:45Z</time>
      </trkpt>
      <trkpt lat="45.95002" lon="4.95203">
        <ele>290</ele>
        <time>2018-07-17T09:06:46Z</time>
      </trkpt>
      <trkpt lat="45.95005" lon="4.95213">
        <ele>290</ele>
        <time>2018-07-17T09:06:48Z</time>
      </trkpt>
      <trkpt lat="45.95006" lon="4.95221">
        <ele>290</ele>
        <time>2018-07-17T09:06:49Z</time>
      </trkpt>
      <trkpt lat="45.95007" lon="4.95229">
        <ele>290</ele>
        <time>2018-07-17T09:06:50Z</time>
      </trkpt>
      <trkpt lat="45.95008" lon="4.95237">
        <ele>290</ele>
        <time>2018-07-17T09:06:51Z</time>
      </trkpt>
      <trkpt lat="45.95008" lon="4.95246">
        <ele>290</ele>
        <time>2018-07-17T09:06:52Z</time>
      </trkpt>
      <trkpt lat="45.9501" lon="4.95254">
        <ele>289</ele>
        <time>2018-07-17T09:06:53Z</time>
      </trkpt>
      <trkpt lat="45.9501" lon="4.95261">
        <ele>289</ele>
        <time>2018-07-17T09:06:54Z</time>
      </trkpt>
      <trkpt lat="45.95011" lon="4.95271">
        <ele>289</ele>
        <time>2018-07-17T09:06:55Z</time>
      </trkpt>
      <trkpt lat="45.95013" lon="4.9528">
        <ele>289</ele>
        <time>2018-07-17T09:06:56Z</time>
      </trkpt>
      <trkpt lat="45.95013" lon="4.95289">
        <ele>289</ele>
        <time>2018-07-17T09:06:57Z</time>
      </trkpt>
      <trkpt lat="45.95015" lon="4.95298">
        <ele>289</ele>
        <time>2018-07-17T09:06:58Z</time>
      </trkpt>
      <trkpt lat="45.95015" lon="4.95307">
        <ele>289</ele>
        <time>2018-07-17T09:06:59Z</time>
      </trkpt>
      <trkpt lat="45.95016" lon="4.95316">
        <ele>289</ele>
        <time>2018-07-17T09:07:00Z</time>
      </trkpt>
      <trkpt lat="45.95016" lon="4.95325">
        <ele>289</ele>
        <time>2018-07-17T09:07:01Z</time>
      </trkpt>
      <trkpt lat="45.95016" lon="4.95336">
        <ele>289</ele>
        <time>2018-07-17T09:07:02Z</time>
      </trkpt>
      <trkpt lat="45.95015" lon="4.95346">
        <ele>289</ele>
        <time>2018-07-17T09:07:03Z</time>
      </trkpt>
      <trkpt lat="45.95015" lon="4.95355">
        <ele>289</ele>
        <time>2018-07-17T09:07:04Z</time>
      </trkpt>
      <trkpt lat="45.95016" lon="4.95363">
        <ele>289</ele>
        <time>2018-07-17T09:07:05Z</time>
      </trkpt>
      <trkpt lat="45.95015" lon="4.95371">
        <ele>288</ele>
        <time>2018-07-17T09:07:06Z</time>
      </trkpt>
      <trkpt lat="45.95015" lon="4.95378">
        <ele>288</ele>
        <time>2018-07-17T09:07:07Z</time>
      </trkpt>
      <trkpt lat="45.95015" lon="4.95387">
        <ele>288</ele>
        <time>2018-07-17T09:07:08Z</time>
      </trkpt>
      <trkpt lat="45.95015" lon="4.95395">
        <ele>288</ele>
        <time>2018-07-17T09:07:09Z</time>
      </trkpt>
      <trkpt lat="45.95014" lon="4.95403">
        <ele>288</ele>
        <time>2018-07-17T09:07:10Z</time>
      </trkpt>
      <trkpt lat="45.95016" lon="4.95412">
        <ele>288</ele>
        <time>2018-07-17T09:07:11Z</time>
      </trkpt>
      <trkpt lat="45.95016" lon="4.95421">
        <ele>288</ele>
        <time>2018-07-17T09:07:12Z</time>
      </trkpt>
      <trkpt lat="45.95016" lon="4.95431">
        <ele>288</ele>
        <time>2018-07-17T09:07:13Z</time>
      </trkpt>
      <trkpt lat="45.95015" lon="4.95441">
        <ele>288</ele>
        <time>2018-07-17T09:07:14Z</time>
      </trkpt>
      <trkpt lat="45.95014" lon="4.9545">
        <ele>288</ele>
        <time>2018-07-17T09:07:15Z</time>
      </trkpt>
      <trkpt lat="45.95014" lon="4.9546">
        <ele>288</ele>
        <time>2018-07-17T09:07:16Z</time>
      </trkpt>
      <trkpt lat="45.95014" lon="4.9547">
        <ele>288</ele>
        <time>2018-07-17T09:07:17Z</time>
      </trkpt>
      <trkpt lat="45.95014" lon="4.9548">
        <ele>288</ele>
        <time>2018-07-17T09:07:18Z</time>
      </trkpt>
      <trkpt lat="45.95015" lon="4.9549">
        <ele>288</ele>
        <time>2018-07-17T09:07:19Z</time>
      </trkpt>
      <trkpt lat="45.95015" lon="4.955">
        <ele>288</ele>
        <time>2018-07-17T09:07:20Z</time>
      </trkpt>
      <trkpt lat="45.95018" lon="4.9551">
        <ele>287</ele>
        <time>2018-07-17T09:07:21Z</time>
      </trkpt>
      <trkpt lat="45.95019" lon="4.9552">
        <ele>287</ele>
        <time>2018-07-17T09:07:22Z</time>
      </trkpt>
      <trkpt lat="45.95021" lon="4.95531">
        <ele>287</ele>
        <time>2018-07-17T09:07:23Z</time>
      </trkpt>
      <trkpt lat="45.95023" lon="4.9554">
        <ele>287</ele>
        <time>2018-07-17T09:07:24Z</time>
      </trkpt>
      <trkpt lat="45.95027" lon="4.9555">
        <ele>287</ele>
        <time>2018-07-17T09:07:25Z</time>
      </trkpt>
      <trkpt lat="45.95029" lon="4.95559">
        <ele>287</ele>
        <time>2018-07-17T09:07:26Z</time>
      </trkpt>
      <trkpt lat="45.95031" lon="4.95567">
        <ele>287</ele>
        <time>2018-07-17T09:07:27Z</time>
      </trkpt>
      <trkpt lat="45.95031" lon="4.95576">
        <ele>286</ele>
        <time>2018-07-17T09:07:28Z</time>
      </trkpt>
      <trkpt lat="45.95036" lon="4.95586">
        <ele>286</ele>
        <time>2018-07-17T09:07:29Z</time>
      </trkpt>
      <trkpt lat="45.95038" lon="4.95593">
        <ele>286</ele>
        <time>2018-07-17T09:07:30Z</time>
      </trkpt>
      <trkpt lat="45.95041" lon="4.95602">
        <ele>286</ele>
        <time>2018-07-17T09:07:31Z</time>
      </trkpt>
      <trkpt lat="45.95045" lon="4.95608">
        <ele>286</ele>
        <time>2018-07-17T09:07:32Z</time>
      </trkpt>
      <trkpt lat="45.95049" lon="4.95617">
        <ele>286</ele>
        <time>2018-07-17T09:07:33Z</time>
      </trkpt>
      <trkpt lat="45.95052" lon="4.95626">
        <ele>286</ele>
        <time>2018-07-17T09:07:34Z</time>
      </trkpt>
      <trkpt lat="45.95055" lon="4.95636">
        <ele>286</ele>
        <time>2018-07-17T09:07:35Z</time>
      </trkpt>
      <trkpt lat="45.95059" lon="4.95646">
        <ele>286</ele>
        <time>2018-07-17T09:07:36Z</time>
      </trkpt>
      <trkpt lat="45.95062" lon="4.95656">
        <ele>286</ele>
        <time>2018-07-17T09:07:37Z</time>
      </trkpt>
      <trkpt lat="45.95066" lon="4.95665">
        <ele>286</ele>
        <time>2018-07-17T09:07:38Z</time>
      </trkpt>
      <trkpt lat="45.95068" lon="4.95675">
        <ele>286</ele>
        <time>2018-07-17T09:07:39Z</time>
      </trkpt>
      <trkpt lat="45.95069" lon="4.95684">
        <ele>286</ele>
        <time>2018-07-17T09:07:40Z</time>
      </trkpt>
      <trkpt lat="45.95073" lon="4.95696">
        <ele>286</ele>
        <time>2018-07-17T09:07:41Z</time>
      </trkpt>
      <trkpt lat="45.95076" lon="4.95706">
        <ele>286</ele>
        <time>2018-07-17T09:07:42Z</time>
      </trkpt>
      <trkpt lat="45.95079" lon="4.95713">
        <ele>286</ele>
        <time>2018-07-17T09:07:43Z</time>
      </trkpt>
      <trkpt lat="45.95083" lon="4.95722">
        <ele>286</ele>
        <time>2018-07-17T09:07:44Z</time>
      </trkpt>
      <trkpt lat="45.95085" lon="4.95732">
        <ele>285</ele>
        <time>2018-07-17T09:07:45Z</time>
      </trkpt>
      <trkpt lat="45.9509" lon="4.9574">
        <ele>285</ele>
        <time>2018-07-17T09:07:46Z</time>
      </trkpt>
      <trkpt lat="45.95091" lon="4.95749">
        <ele>286</ele>
        <time>2018-07-17T09:07:47Z</time>
      </trkpt>
      <trkpt lat="45.95092" lon="4.95757">
        <ele>285</ele>
        <time>2018-07-17T09:07:48Z</time>
      </trkpt>
      <trkpt lat="45.95093" lon="4.95765">
        <ele>285</ele>
        <time>2018-07-17T09:07:49Z</time>
      </trkpt>
      <trkpt lat="45.95096" lon="4.95774">
        <ele>285</ele>
        <time>2018-07-17T09:07:50Z</time>
      </trkpt>
      <trkpt lat="45.95099" lon="4.95783">
        <ele>285</ele>
        <time>2018-07-17T09:07:51Z</time>
      </trkpt>
      <trkpt lat="45.951" lon="4.95792">
        <ele>285</ele>
        <time>2018-07-17T09:07:52Z</time>
      </trkpt>
      <trkpt lat="45.95101" lon="4.95802">
        <ele>285</ele>
        <time>2018-07-17T09:07:53Z</time>
      </trkpt>
      <trkpt lat="45.95102" lon="4.9581">
        <ele>285</ele>
        <time>2018-07-17T09:07:54Z</time>
      </trkpt>
      <trkpt lat="45.95102" lon="4.95819">
        <ele>285</ele>
        <time>2018-07-17T09:07:55Z</time>
      </trkpt>
      <trkpt lat="45.95104" lon="4.95828">
        <ele>285</ele>
        <time>2018-07-17T09:07:56Z</time>
      </trkpt>
      <trkpt lat="45.95106" lon="4.95835">
        <ele>285</ele>
        <time>2018-07-17T09:07:57Z</time>
      </trkpt>
      <trkpt lat="45.95108" lon="4.95843">
        <ele>285</ele>
        <time>2018-07-17T09:07:58Z</time>
      </trkpt>
      <trkpt lat="45.95111" lon="4.95852">
        <ele>285</ele>
        <time>2018-07-17T09:07:59Z</time>
      </trkpt>
      <trkpt lat="45.95113" lon="4.95859">
        <ele>285</ele>
        <time>2018-07-17T09:08:00Z</time>
      </trkpt>
      <trkpt lat="45.95115" lon="4.95867">
        <ele>285</ele>
        <time>2018-07-17T09:08:01Z</time>
      </trkpt>
      <trkpt lat="45.95116" lon="4.95875">
        <ele>285</ele>
        <time>2018-07-17T09:08:02Z</time>
      </trkpt>
      <trkpt lat="45.95119" lon="4.95881">
        <ele>285</ele>
        <time>2018-07-17T09:08:03Z</time>
      </trkpt>
      <trkpt lat="45.95121" lon="4.95889">
        <ele>285</ele>
        <time>2018-07-17T09:08:04Z</time>
      </trkpt>
      <trkpt lat="45.95123" lon="4.95898">
        <ele>285</ele>
        <time>2018-07-17T09:08:05Z</time>
      </trkpt>
      <trkpt lat="45.95125" lon="4.95907">
        <ele>285</ele>
        <time>2018-07-17T09:08:06Z</time>
      </trkpt>
      <trkpt lat="45.95128" lon="4.95915">
        <ele>284</ele>
        <time>2018-07-17T09:08:07Z</time>
      </trkpt>
      <trkpt lat="45.9513" lon="4.95924">
        <ele>284</ele>
        <time>2018-07-17T09:08:08Z</time>
      </trkpt>
      <trkpt lat="45.95131" lon="4.95933">
        <ele>284</ele>
        <time>2018-07-17T09:08:09Z</time>
      </trkpt>
      <trkpt lat="45.95133" lon="4.95943">
        <ele>284</ele>
        <time>2018-07-17T09:08:10Z</time>
      </trkpt>
      <trkpt lat="45.95136" lon="4.95952">
        <ele>284</ele>
        <time>2018-07-17T09:08:11Z</time>
      </trkpt>
      <trkpt lat="45.95138" lon="4.9596">
        <ele>285</ele>
        <time>2018-07-17T09:08:12Z</time>
      </trkpt>
      <trkpt lat="45.95139" lon="4.95968">
        <ele>285</ele>
        <time>2018-07-17T09:08:13Z</time>
      </trkpt>
      <trkpt lat="45.95141" lon="4.95978">
        <ele>285</ele>
        <time>2018-07-17T09:08:14Z</time>
      </trkpt>
      <trkpt lat="45.95145" lon="4.95985">
        <ele>285</ele>
        <time>2018-07-17T09:08:15Z</time>
      </trkpt>
      <trkpt lat="45.95147" lon="4.95994">
        <ele>285</ele>
        <time>2018-07-17T09:08:16Z</time>
      </trkpt>
      <trkpt lat="45.95149" lon="4.96002">
        <ele>285</ele>
        <time>2018-07-17T09:08:17Z</time>
      </trkpt>
      <trkpt lat="45.9515" lon="4.9601">
        <ele>285</ele>
        <time>2018-07-17T09:08:18Z</time>
      </trkpt>
      <trkpt lat="45.95151" lon="4.96018">
        <ele>285</ele>
        <time>2018-07-17T09:08:19Z</time>
      </trkpt>
      <trkpt lat="45.95152" lon="4.96026">
        <ele>285</ele>
        <time>2018-07-17T09:08:20Z</time>
      </trkpt>
      <trkpt lat="45.95154" lon="4.96033">
        <ele>285</ele>
        <time>2018-07-17T09:08:21Z</time>
      </trkpt>
      <trkpt lat="45.95158" lon="4.96039">
        <ele>285</ele>
        <time>2018-07-17T09:08:22Z</time>
      </trkpt>
      <trkpt lat="45.95161" lon="4.96047">
        <ele>285</ele>
        <time>2018-07-17T09:08:23Z</time>
      </trkpt>
      <trkpt lat="45.95162" lon="4.96055">
        <ele>285</ele>
        <time>2018-07-17T09:08:24Z</time>
      </trkpt>
      <trkpt lat="45.95163" lon="4.96063">
        <ele>285</ele>
        <time>2018-07-17T09:08:25Z</time>
      </trkpt>
      <trkpt lat="45.95164" lon="4.96072">
        <ele>286</ele>
        <time>2018-07-17T09:08:26Z</time>
      </trkpt>
      <trkpt lat="45.95165" lon="4.9608">
        <ele>286</ele>
        <time>2018-07-17T09:08:27Z</time>
      </trkpt>
      <trkpt lat="45.95165" lon="4.96089">
        <ele>286</ele>
        <time>2018-07-17T09:08:28Z</time>
      </trkpt>
      <trkpt lat="45.95164" lon="4.96097">
        <ele>286</ele>
        <time>2018-07-17T09:08:29Z</time>
      </trkpt>
      <trkpt lat="45.95164" lon="4.96106">
        <ele>286</ele>
        <time>2018-07-17T09:08:30Z</time>
      </trkpt>
      <trkpt lat="45.95164" lon="4.96114">
        <ele>286</ele>
        <time>2018-07-17T09:08:31Z</time>
      </trkpt>
      <trkpt lat="45.95164" lon="4.96121">
        <ele>286</ele>
        <time>2018-07-17T09:08:32Z</time>
      </trkpt>
      <trkpt lat="45.95163" lon="4.96129">
        <ele>286</ele>
        <time>2018-07-17T09:08:33Z</time>
      </trkpt>
      <trkpt lat="45.95163" lon="4.96137">
        <ele>286</ele>
        <time>2018-07-17T09:08:34Z</time>
      </trkpt>
      <trkpt lat="45.95163" lon="4.96144">
        <ele>286</ele>
        <time>2018-07-17T09:08:35Z</time>
      </trkpt>
      <trkpt lat="45.95164" lon="4.96152">
        <ele>286</ele>
        <time>2018-07-17T09:08:36Z</time>
      </trkpt>
      <trkpt lat="45.95163" lon="4.96161">
        <ele>286</ele>
        <time>2018-07-17T09:08:37Z</time>
      </trkpt>
      <trkpt lat="45.95163" lon="4.96168">
        <ele>286</ele>
        <time>2018-07-17T09:08:38Z</time>
      </trkpt>
      <trkpt lat="45.95163" lon="4.96176">
        <ele>286</ele>
        <time>2018-07-17T09:08:39Z</time>
      </trkpt>
      <trkpt lat="45.95162" lon="4.96187">
        <ele>286</ele>
        <time>2018-07-17T09:08:40Z</time>
      </trkpt>
      <trkpt lat="45.95163" lon="4.96195">
        <ele>286</ele>
        <time>2018-07-17T09:08:41Z</time>
      </trkpt>
      <trkpt lat="45.95162" lon="4.96203">
        <ele>286</ele>
        <time>2018-07-17T09:08:42Z</time>
      </trkpt>
      <trkpt lat="45.95161" lon="4.96212">
        <ele>286</ele>
        <time>2018-07-17T09:08:43Z</time>
      </trkpt>
      <trkpt lat="45.95159" lon="4.96223">
        <ele>286</ele>
        <time>2018-07-17T09:08:44Z</time>
      </trkpt>
      <trkpt lat="45.9516" lon="4.96231">
        <ele>286</ele>
        <time>2018-07-17T09:08:45Z</time>
      </trkpt>
      <trkpt lat="45.95159" lon="4.9624">
        <ele>286</ele>
        <time>2018-07-17T09:08:46Z</time>
      </trkpt>
      <trkpt lat="45.95157" lon="4.96248">
        <ele>286</ele>
        <time>2018-07-17T09:08:47Z</time>
      </trkpt>
      <trkpt lat="45.95156" lon="4.96255">
        <ele>286</ele>
        <time>2018-07-17T09:08:48Z</time>
      </trkpt>
      <trkpt lat="45.95153" lon="4.96263">
        <ele>285</ele>
        <time>2018-07-17T09:08:49Z</time>
      </trkpt>
      <trkpt lat="45.9515" lon="4.96268">
        <ele>285</ele>
        <time>2018-07-17T09:08:50Z</time>
      </trkpt>
      <trkpt lat="45.95149" lon="4.96277">
        <ele>285</ele>
        <time>2018-07-17T09:08:51Z</time>
      </trkpt>
      <trkpt lat="45.95148" lon="4.96285">
        <ele>285</ele>
        <time>2018-07-17T09:08:52Z</time>
      </trkpt>
      <trkpt lat="45.95147" lon="4.96293">
        <ele>285</ele>
        <time>2018-07-17T09:08:53Z</time>
      </trkpt>
      <trkpt lat="45.95144" lon="4.96301">
        <ele>285</ele>
        <time>2018-07-17T09:08:54Z</time>
      </trkpt>
      <trkpt lat="45.9514" lon="4.96308">
        <ele>285</ele>
        <time>2018-07-17T09:08:55Z</time>
      </trkpt>
      <trkpt lat="45.9514" lon="4.96316">
        <ele>285</ele>
        <time>2018-07-17T09:08:56Z</time>
      </trkpt>
      <trkpt lat="45.95137" lon="4.96323">
        <ele>285</ele>
        <time>2018-07-17T09:08:57Z</time>
      </trkpt>
      <trkpt lat="45.95137" lon="4.96329">
        <ele>286</ele>
        <time>2018-07-17T09:08:58Z</time>
      </trkpt>
      <trkpt lat="45.95134" lon="4.96336">
        <ele>286</ele>
        <time>2018-07-17T09:08:59Z</time>
      </trkpt>
      <trkpt lat="45.95131" lon="4.96342">
        <ele>286</ele>
        <time>2018-07-17T09:09:00Z</time>
      </trkpt>
      <trkpt lat="45.95126" lon="4.96349">
        <ele>286</ele>
        <time>2018-07-17T09:09:01Z</time>
      </trkpt>
      <trkpt lat="45.95123" lon="4.96355">
        <ele>286</ele>
        <time>2018-07-17T09:09:02Z</time>
      </trkpt>
      <trkpt lat="45.9512" lon="4.96363">
        <ele>286</ele>
        <time>2018-07-17T09:09:03Z</time>
      </trkpt>
      <trkpt lat="45.95118" lon="4.9637">
        <ele>286</ele>
        <time>2018-07-17T09:09:04Z</time>
      </trkpt>
      <trkpt lat="45.95117" lon="4.96377">
        <ele>286</ele>
        <time>2018-07-17T09:09:05Z</time>
      </trkpt>
      <trkpt lat="45.95113" lon="4.96385">
        <ele>286</ele>
        <time>2018-07-17T09:09:06Z</time>
      </trkpt>
      <trkpt lat="45.95109" lon="4.96392">
        <ele>286</ele>
        <time>2018-07-17T09:09:07Z</time>
      </trkpt>
      <trkpt lat="45.95107" lon="4.96398">
        <ele>286</ele>
        <time>2018-07-17T09:09:08Z</time>
      </trkpt>
      <trkpt lat="45.95105" lon="4.96405">
        <ele>286</ele>
        <time>2018-07-17T09:09:09Z</time>
      </trkpt>
      <trkpt lat="45.95103" lon="4.96411">
        <ele>286</ele>
        <time>2018-07-17T09:09:10Z</time>
      </trkpt>
      <trkpt lat="45.951" lon="4.96418">
        <ele>286</ele>
        <time>2018-07-17T09:09:11Z</time>
      </trkpt>
      <trkpt lat="45.95098" lon="4.96426">
        <ele>286</ele>
        <time>2018-07-17T09:09:12Z</time>
      </trkpt>
      <trkpt lat="45.95097" lon="4.96432">
        <ele>286</ele>
        <time>2018-07-17T09:09:13Z</time>
      </trkpt>
      <trkpt lat="45.95096" lon="4.96439">
        <ele>287</ele>
        <time>2018-07-17T09:09:14Z</time>
      </trkpt>
      <trkpt lat="45.95092" lon="4.96445">
        <ele>287</ele>
        <time>2018-07-17T09:09:15Z</time>
      </trkpt>
      <trkpt lat="45.9509" lon="4.96453">
        <ele>287</ele>
        <time>2018-07-17T09:09:16Z</time>
      </trkpt>
      <trkpt lat="45.95088" lon="4.9646">
        <ele>287</ele>
        <time>2018-07-17T09:09:17Z</time>
      </trkpt>
      <trkpt lat="45.95084" lon="4.96468">
        <ele>287</ele>
        <time>2018-07-17T09:09:18Z</time>
      </trkpt>
      <trkpt lat="45.95077" lon="4.96472">
        <ele>287</ele>
        <time>2018-07-17T09:09:19Z</time>
      </trkpt>
      <trkpt lat="45.95075" lon="4.96479">
        <ele>287</ele>
        <time>2018-07-17T09:09:20Z</time>
      </trkpt>
      <trkpt lat="45.95073" lon="4.96485">
        <ele>287</ele>
        <time>2018-07-17T09:09:21Z</time>
      </trkpt>
      <trkpt lat="45.95072" lon="4.96492">
        <ele>287</ele>
        <time>2018-07-17T09:09:22Z</time>
      </trkpt>
      <trkpt lat="45.95071" lon="4.96503">
        <ele>288</ele>
        <time>2018-07-17T09:09:23Z</time>
      </trkpt>
      <trkpt lat="45.95069" lon="4.96512">
        <ele>288</ele>
        <time>2018-07-17T09:09:24Z</time>
      </trkpt>
      <trkpt lat="45.95066" lon="4.9652">
        <ele>287</ele>
        <time>2018-07-17T09:09:25Z</time>
      </trkpt>
      <trkpt lat="45.95063" lon="4.96527">
        <ele>287</ele>
        <time>2018-07-17T09:09:26Z</time>
      </trkpt>
      <trkpt lat="45.9506" lon="4.96536">
        <ele>287</ele>
        <time>2018-07-17T09:09:27Z</time>
      </trkpt>
      <trkpt lat="45.95058" lon="4.96545">
        <ele>287</ele>
        <time>2018-07-17T09:09:28Z</time>
      </trkpt>
      <trkpt lat="45.95056" lon="4.96553">
        <ele>287</ele>
        <time>2018-07-17T09:09:29Z</time>
      </trkpt>
      <trkpt lat="45.95052" lon="4.96561">
        <ele>287</ele>
        <time>2018-07-17T09:09:30Z</time>
      </trkpt>
      <trkpt lat="45.95051" lon="4.9657">
        <ele>287</ele>
        <time>2018-07-17T09:09:31Z</time>
      </trkpt>
      <trkpt lat="45.95047" lon="4.96577">
        <ele>287</ele>
        <time>2018-07-17T09:09:32Z</time>
      </trkpt>
      <trkpt lat="45.95043" lon="4.96585">
        <ele>288</ele>
        <time>2018-07-17T09:09:33Z</time>
      </trkpt>
      <trkpt lat="45.95041" lon="4.96593">
        <ele>287</ele>
        <time>2018-07-17T09:09:34Z</time>
      </trkpt>
      <trkpt lat="45.95042" lon="4.96601">
        <ele>287</ele>
        <time>2018-07-17T09:09:35Z</time>
      </trkpt>
      <trkpt lat="45.95039" lon="4.96609">
        <ele>287</ele>
        <time>2018-07-17T09:09:36Z</time>
      </trkpt>
      <trkpt lat="45.95038" lon="4.96617">
        <ele>287</ele>
        <time>2018-07-17T09:09:37Z</time>
      </trkpt>
      <trkpt lat="45.95037" lon="4.96626">
        <ele>288</ele>
        <time>2018-07-17T09:09:38Z</time>
      </trkpt>
      <trkpt lat="45.95039" lon="4.96636">
        <ele>288</ele>
        <time>2018-07-17T09:09:39Z</time>
      </trkpt>
      <trkpt lat="45.95038" lon="4.96645">
        <ele>288</ele>
        <time>2018-07-17T09:09:40Z</time>
      </trkpt>
      <trkpt lat="45.95038" lon="4.96653">
        <ele>288</ele>
        <time>2018-07-17T09:09:41Z</time>
      </trkpt>
      <trkpt lat="45.95038" lon="4.96663">
        <ele>288</ele>
        <time>2018-07-17T09:09:42Z</time>
      </trkpt>
      <trkpt lat="45.95037" lon="4.96671">
        <ele>287</ele>
        <time>2018-07-17T09:09:43Z</time>
      </trkpt>
      <trkpt lat="45.95038" lon="4.9668">
        <ele>287</ele>
        <time>2018-07-17T09:09:44Z</time>
      </trkpt>
      <trkpt lat="45.95039" lon="4.96688">
        <ele>287</ele>
        <time>2018-07-17T09:09:45Z</time>
      </trkpt>
      <trkpt lat="45.95039" lon="4.96697">
        <ele>287</ele>
        <time>2018-07-17T09:09:46Z</time>
      </trkpt>
      <trkpt lat="45.9504" lon="4.96703">
        <ele>287</ele>
        <time>2018-07-17T09:09:47Z</time>
      </trkpt>
      <trkpt lat="45.95041" lon="4.9671">
        <ele>287</ele>
        <time>2018-07-17T09:09:48Z</time>
      </trkpt>
      <trkpt lat="45.9504" lon="4.96716">
        <ele>287</ele>
        <time>2018-07-17T09:09:49Z</time>
      </trkpt>
      <trkpt lat="45.95041" lon="4.96723">
        <ele>287</ele>
        <time>2018-07-17T09:09:50Z</time>
      </trkpt>
      <trkpt lat="45.9504" lon="4.96731">
        <ele>287</ele>
        <time>2018-07-17T09:09:51Z</time>
      </trkpt>
      <trkpt lat="45.9504" lon="4.96739">
        <ele>287</ele>
        <time>2018-07-17T09:09:52Z</time>
      </trkpt>
      <trkpt lat="45.95041" lon="4.96748">
        <ele>287</ele>
        <time>2018-07-17T09:09:53Z</time>
      </trkpt>
      <trkpt lat="45.95041" lon="4.96755">
        <ele>287</ele>
        <time>2018-07-17T09:09:54Z</time>
      </trkpt>
      <trkpt lat="45.95041" lon="4.96765">
        <ele>287</ele>
        <time>2018-07-17T09:09:55Z</time>
      </trkpt>
      <trkpt lat="45.95041" lon="4.96773">
        <ele>287</ele>
        <time>2018-07-17T09:09:56Z</time>
      </trkpt>
      <trkpt lat="45.95041" lon="4.96781">
        <ele>287</ele>
        <time>2018-07-17T09:09:57Z</time>
      </trkpt>
      <trkpt lat="45.95042" lon="4.96789">
        <ele>287</ele>
        <time>2018-07-17T09:09:58Z</time>
      </trkpt>
      <trkpt lat="45.95042" lon="4.96798">
        <ele>286</ele>
        <time>2018-07-17T09:09:59Z</time>
      </trkpt>
      <trkpt lat="45.95042" lon="4.96806">
        <ele>286</ele>
        <time>2018-07-17T09:10:00Z</time>
      </trkpt>
      <trkpt lat="45.95043" lon="4.96814">
        <ele>286</ele>
        <time>2018-07-17T09:10:01Z</time>
      </trkpt>
      <trkpt lat="45.95043" lon="4.96822">
        <ele>286</ele>
        <time>2018-07-17T09:10:02Z</time>
      </trkpt>
      <trkpt lat="45.95044" lon="4.96829">
        <ele>286</ele>
        <time>2018-07-17T09:10:03Z</time>
      </trkpt>
      <trkpt lat="45.95046" lon="4.96841">
        <ele>286</ele>
        <time>2018-07-17T09:10:05Z</time>
      </trkpt>
      <trkpt lat="45.95046" lon="4.96849">
        <ele>286</ele>
        <time>2018-07-17T09:10:06Z</time>
      </trkpt>
      <trkpt lat="45.95047" lon="4.96855">
        <ele>286</ele>
        <time>2018-07-17T09:10:07Z</time>
      </trkpt>
      <trkpt lat="45.95048" lon="4.96863">
        <ele>286</ele>
        <time>2018-07-17T09:10:08Z</time>
      </trkpt>
      <trkpt lat="45.95047" lon="4.9687">
        <ele>286</ele>
        <time>2018-07-17T09:10:09Z</time>
      </trkpt>
      <trkpt lat="45.95048" lon="4.96877">
        <ele>286</ele>
        <time>2018-07-17T09:10:10Z</time>
      </trkpt>
      <trkpt lat="45.95049" lon="4.96885">
        <ele>286</ele>
        <time>2018-07-17T09:10:11Z</time>
      </trkpt>
      <trkpt lat="45.95049" lon="4.96892">
        <ele>286</ele>
        <time>2018-07-17T09:10:12Z</time>
      </trkpt>
      <trkpt lat="45.95049" lon="4.969">
        <ele>286</ele>
        <time>2018-07-17T09:10:13Z</time>
      </trkpt>
      <trkpt lat="45.95049" lon="4.96908">
        <ele>285</ele>
        <time>2018-07-17T09:10:14Z</time>
      </trkpt>
      <trkpt lat="45.9505" lon="4.96916">
        <ele>285</ele>
        <time>2018-07-17T09:10:15Z</time>
      </trkpt>
      <trkpt lat="45.95051" lon="4.96924">
        <ele>285</ele>
        <time>2018-07-17T09:10:16Z</time>
      </trkpt>
      <trkpt lat="45.95051" lon="4.96933">
        <ele>285</ele>
        <time>2018-07-17T09:10:17Z</time>
      </trkpt>
      <trkpt lat="45.95052" lon="4.96941">
        <ele>285</ele>
        <time>2018-07-17T09:10:18Z</time>
      </trkpt>
      <trkpt lat="45.95053" lon="4.96948">
        <ele>285</ele>
        <time>2018-07-17T09:10:19Z</time>
      </trkpt>
      <trkpt lat="45.95053" lon="4.96956">
        <ele>285</ele>
        <time>2018-07-17T09:10:20Z</time>
      </trkpt>
      <trkpt lat="45.95053" lon="4.96964">
        <ele>285</ele>
        <time>2018-07-17T09:10:21Z</time>
      </trkpt>
      <trkpt lat="45.95054" lon="4.96972">
        <ele>285</ele>
        <time>2018-07-17T09:10:22Z</time>
      </trkpt>
      <trkpt lat="45.95054" lon="4.9698">
        <ele>285</ele>
        <time>2018-07-17T09:10:23Z</time>
      </trkpt>
      <trkpt lat="45.95054" lon="4.9699">
        <ele>285</ele>
        <time>2018-07-17T09:10:24Z</time>
      </trkpt>
      <trkpt lat="45.95054" lon="4.96999">
        <ele>285</ele>
        <time>2018-07-17T09:10:25Z</time>
      </trkpt>
      <trkpt lat="45.95055" lon="4.97009">
        <ele>285</ele>
        <time>2018-07-17T09:10:26Z</time>
      </trkpt>
      <trkpt lat="45.95055" lon="4.97018">
        <ele>285</ele>
        <time>2018-07-17T09:10:27Z</time>
      </trkpt>
      <trkpt lat="45.95055" lon="4.97028">
        <ele>285</ele>
        <time>2018-07-17T09:10:28Z</time>
      </trkpt>
      <trkpt lat="45.95055" lon="4.97038">
        <ele>285</ele>
        <time>2018-07-17T09:10:29Z</time>
      </trkpt>
      <trkpt lat="45.95056" lon="4.97048">
        <ele>285</ele>
        <time>2018-07-17T09:10:30Z</time>
      </trkpt>
      <trkpt lat="45.95055" lon="4.97057">
        <ele>285</ele>
        <time>2018-07-17T09:10:31Z</time>
      </trkpt>
      <trkpt lat="45.95056" lon="4.97067">
        <ele>285</ele>
        <time>2018-07-17T09:10:32Z</time>
      </trkpt>
      <trkpt lat="45.95056" lon="4.97076">
        <ele>285</ele>
        <time>2018-07-17T09:10:33Z</time>
      </trkpt>
      <trkpt lat="45.95057" lon="4.97084">
        <ele>285</ele>
        <time>2018-07-17T09:10:34Z</time>
      </trkpt>
      <trkpt lat="45.95057" lon="4.97093">
        <ele>285</ele>
        <time>2018-07-17T09:10:35Z</time>
      </trkpt>
      <trkpt lat="45.95058" lon="4.97101">
        <ele>285</ele>
        <time>2018-07-17T09:10:36Z</time>
      </trkpt>
      <trkpt lat="45.95058" lon="4.97109">
        <ele>285</ele>
        <time>2018-07-17T09:10:37Z</time>
      </trkpt>
      <trkpt lat="45.95059" lon="4.97117">
        <ele>285</ele>
        <time>2018-07-17T09:10:38Z</time>
      </trkpt>
      <trkpt lat="45.9506" lon="4.97126">
        <ele>285</ele>
        <time>2018-07-17T09:10:39Z</time>
      </trkpt>
      <trkpt lat="45.9506" lon="4.97135">
        <ele>285</ele>
        <time>2018-07-17T09:10:40Z</time>
      </trkpt>
      <trkpt lat="45.95061" lon="4.97144">
        <ele>285</ele>
        <time>2018-07-17T09:10:41Z</time>
      </trkpt>
      <trkpt lat="45.95061" lon="4.97153">
        <ele>285</ele>
        <time>2018-07-17T09:10:42Z</time>
      </trkpt>
      <trkpt lat="45.95061" lon="4.97162">
        <ele>285</ele>
        <time>2018-07-17T09:10:43Z</time>
      </trkpt>
      <trkpt lat="45.95061" lon="4.97171">
        <ele>285</ele>
        <time>2018-07-17T09:10:44Z</time>
      </trkpt>
      <trkpt lat="45.95062" lon="4.97179">
        <ele>285</ele>
        <time>2018-07-17T09:10:45Z</time>
      </trkpt>
      <trkpt lat="45.95063" lon="4.97188">
        <ele>285</ele>
        <time>2018-07-17T09:10:46Z</time>
      </trkpt>
      <trkpt lat="45.95065" lon="4.97197">
        <ele>285</ele>
        <time>2018-07-17T09:10:47Z</time>
      </trkpt>
      <trkpt lat="45.95065" lon="4.97207">
        <ele>285</ele>
        <time>2018-07-17T09:10:48Z</time>
      </trkpt>
      <trkpt lat="45.95064" lon="4.97217">
        <ele>285</ele>
        <time>2018-07-17T09:10:49Z</time>
      </trkpt>
      <trkpt lat="45.95065" lon="4.97226">
        <ele>285</ele>
        <time>2018-07-17T09:10:50Z</time>
      </trkpt>
      <trkpt lat="45.95065" lon="4.97236">
        <ele>285</ele>
        <time>2018-07-17T09:10:51Z</time>
      </trkpt>
      <trkpt lat="45.95065" lon="4.97245">
        <ele>285</ele>
        <time>2018-07-17T09:10:52Z</time>
      </trkpt>
      <trkpt lat="45.95066" lon="4.97254">
        <ele>286</ele>
        <time>2018-07-17T09:10:53Z</time>
      </trkpt>
      <trkpt lat="45.95067" lon="4.97265">
        <ele>286</ele>
        <time>2018-07-17T09:10:54Z</time>
      </trkpt>
      <trkpt lat="45.95067" lon="4.97274">
        <ele>285</ele>
        <time>2018-07-17T09:10:55Z</time>
      </trkpt>
      <trkpt lat="45.95067" lon="4.97284">
        <ele>285</ele>
        <time>2018-07-17T09:10:56Z</time>
      </trkpt>
      <trkpt lat="45.95068" lon="4.97293">
        <ele>285</ele>
        <time>2018-07-17T09:10:57Z</time>
      </trkpt>
      <trkpt lat="45.95068" lon="4.97302">
        <ele>285</ele>
        <time>2018-07-17T09:10:58Z</time>
      </trkpt>
      <trkpt lat="45.95069" lon="4.9731">
        <ele>286</ele>
        <time>2018-07-17T09:10:59Z</time>
      </trkpt>
      <trkpt lat="45.95068" lon="4.97318">
        <ele>286</ele>
        <time>2018-07-17T09:11:00Z</time>
      </trkpt>
      <trkpt lat="45.95068" lon="4.97326">
        <ele>286</ele>
        <time>2018-07-17T09:11:01Z</time>
      </trkpt>
      <trkpt lat="45.95068" lon="4.97335">
        <ele>286</ele>
        <time>2018-07-17T09:11:02Z</time>
      </trkpt>
      <trkpt lat="45.95068" lon="4.97344">
        <ele>286</ele>
        <time>2018-07-17T09:11:03Z</time>
      </trkpt>
      <trkpt lat="45.95069" lon="4.97351">
        <ele>286</ele>
        <time>2018-07-17T09:11:04Z</time>
      </trkpt>
      <trkpt lat="45.95069" lon="4.97361">
        <ele>286</ele>
        <time>2018-07-17T09:11:05Z</time>
      </trkpt>
      <trkpt lat="45.95069" lon="4.97368">
        <ele>286</ele>
        <time>2018-07-17T09:11:06Z</time>
      </trkpt>
      <trkpt lat="45.95069" lon="4.97376">
        <ele>287</ele>
        <time>2018-07-17T09:11:07Z</time>
      </trkpt>
      <trkpt lat="45.95069" lon="4.97384">
        <ele>287</ele>
        <time>2018-07-17T09:11:08Z</time>
      </trkpt>
      <trkpt lat="45.9507" lon="4.97391">
        <ele>287</ele>
        <time>2018-07-17T09:11:09Z</time>
      </trkpt>
      <trkpt lat="45.95071" lon="4.974">
        <ele>287</ele>
        <time>2018-07-17T09:11:10Z</time>
      </trkpt>
      <trkpt lat="45.95071" lon="4.97408">
        <ele>287</ele>
        <time>2018-07-17T09:11:11Z</time>
      </trkpt>
      <trkpt lat="45.95071" lon="4.97416">
        <ele>287</ele>
        <time>2018-07-17T09:11:12Z</time>
      </trkpt>
      <trkpt lat="45.95071" lon="4.97424">
        <ele>287</ele>
        <time>2018-07-17T09:11:13Z</time>
      </trkpt>
      <trkpt lat="45.95072" lon="4.97432">
        <ele>287</ele>
        <time>2018-07-17T09:11:14Z</time>
      </trkpt>
      <trkpt lat="45.95073" lon="4.97439">
        <ele>287</ele>
        <time>2018-07-17T09:11:15Z</time>
      </trkpt>
      <trkpt lat="45.95073" lon="4.97447">
        <ele>287</ele>
        <time>2018-07-17T09:11:16Z</time>
      </trkpt>
      <trkpt lat="45.95073" lon="4.97455">
        <ele>287</ele>
        <time>2018-07-17T09:11:17Z</time>
      </trkpt>
      <trkpt lat="45.95073" lon="4.97464">
        <ele>287</ele>
        <time>2018-07-17T09:11:18Z</time>
      </trkpt>
      <trkpt lat="45.95075" lon="4.97471">
        <ele>287</ele>
        <time>2018-07-17T09:11:19Z</time>
      </trkpt>
      <trkpt lat="45.95075" lon="4.97479">
        <ele>287</ele>
        <time>2018-07-17T09:11:20Z</time>
      </trkpt>
      <trkpt lat="45.95075" lon="4.97487">
        <ele>286</ele>
        <time>2018-07-17T09:11:21Z</time>
      </trkpt>
      <trkpt lat="45.95076" lon="4.97494">
        <ele>286</ele>
        <time>2018-07-17T09:11:22Z</time>
      </trkpt>
      <trkpt lat="45.95076" lon="4.975">
        <ele>286</ele>
        <time>2018-07-17T09:11:23Z</time>
      </trkpt>
      <trkpt lat="45.95077" lon="4.97509">
        <ele>286</ele>
        <time>2018-07-17T09:11:24Z</time>
      </trkpt>
      <trkpt lat="45.95077" lon="4.97517">
        <ele>286</ele>
        <time>2018-07-17T09:11:25Z</time>
      </trkpt>
      <trkpt lat="45.95077" lon="4.97526">
        <ele>286</ele>
        <time>2018-07-17T09:11:26Z</time>
      </trkpt>
      <trkpt lat="45.95078" lon="4.97534">
        <ele>286</ele>
        <time>2018-07-17T09:11:27Z</time>
      </trkpt>
      <trkpt lat="45.95078" lon="4.97543">
        <ele>285</ele>
        <time>2018-07-17T09:11:28Z</time>
      </trkpt>
      <trkpt lat="45.95078" lon="4.97551">
        <ele>285</ele>
        <time>2018-07-17T09:11:29Z</time>
      </trkpt>
      <trkpt lat="45.95078" lon="4.97558">
        <ele>285</ele>
        <time>2018-07-17T09:11:30Z</time>
      </trkpt>
      <trkpt lat="45.95078" lon="4.97567">
        <ele>285</ele>
        <time>2018-07-17T09:11:31Z</time>
      </trkpt>
      <trkpt lat="45.95079" lon="4.97576">
        <ele>285</ele>
        <time>2018-07-17T09:11:32Z</time>
      </trkpt>
      <trkpt lat="45.95078" lon="4.97585">
        <ele>285</ele>
        <time>2018-07-17T09:11:33Z</time>
      </trkpt>
      <trkpt lat="45.95077" lon="4.97593">
        <ele>285</ele>
        <time>2018-07-17T09:11:34Z</time>
      </trkpt>
      <trkpt lat="45.95077" lon="4.97601">
        <ele>285</ele>
        <time>2018-07-17T09:11:35Z</time>
      </trkpt>
      <trkpt lat="45.95076" lon="4.97609">
        <ele>285</ele>
        <time>2018-07-17T09:11:36Z</time>
      </trkpt>
      <trkpt lat="45.95075" lon="4.97615">
        <ele>285</ele>
        <time>2018-07-17T09:11:37Z</time>
      </trkpt>
      <trkpt lat="45.95074" lon="4.97623">
        <ele>285</ele>
        <time>2018-07-17T09:11:38Z</time>
      </trkpt>
      <trkpt lat="45.95075" lon="4.97632">
        <ele>285</ele>
        <time>2018-07-17T09:11:39Z</time>
      </trkpt>
      <trkpt lat="45.95074" lon="4.9764">
        <ele>285</ele>
        <time>2018-07-17T09:11:40Z</time>
      </trkpt>
      <trkpt lat="45.95073" lon="4.97647">
        <ele>286</ele>
        <time>2018-07-17T09:11:41Z</time>
      </trkpt>
      <trkpt lat="45.95073" lon="4.97653">
        <ele>286</ele>
        <time>2018-07-17T09:11:42Z</time>
      </trkpt>
      <trkpt lat="45.95072" lon="4.9766">
        <ele>286</ele>
        <time>2018-07-17T09:11:43Z</time>
      </trkpt>
      <trkpt lat="45.95071" lon="4.97667">
        <ele>286</ele>
        <time>2018-07-17T09:11:44Z</time>
      </trkpt>
      <trkpt lat="45.95071" lon="4.97676">
        <ele>286</ele>
        <time>2018-07-17T09:11:45Z</time>
      </trkpt>
      <trkpt lat="45.95069" lon="4.97682">
        <ele>286</ele>
        <time>2018-07-17T09:11:46Z</time>
      </trkpt>
      <trkpt lat="45.95068" lon="4.97692">
        <ele>286</ele>
        <time>2018-07-17T09:11:47Z</time>
      </trkpt>
      <trkpt lat="45.95067" lon="4.977">
        <ele>286</ele>
        <time>2018-07-17T09:11:48Z</time>
      </trkpt>
      <trkpt lat="45.95068" lon="4.97707">
        <ele>286</ele>
        <time>2018-07-17T09:11:49Z</time>
      </trkpt>
      <trkpt lat="45.95068" lon="4.97715">
        <ele>287</ele>
        <time>2018-07-17T09:11:50Z</time>
      </trkpt>
      <trkpt lat="45.95068" lon="4.97724">
        <ele>287</ele>
        <time>2018-07-17T09:11:51Z</time>
      </trkpt>
      <trkpt lat="45.95069" lon="4.9773">
        <ele>287</ele>
        <time>2018-07-17T09:11:52Z</time>
      </trkpt>
      <trkpt lat="45.95069" lon="4.97737">
        <ele>287</ele>
        <time>2018-07-17T09:11:53Z</time>
      </trkpt>
      <trkpt lat="45.95067" lon="4.97743">
        <ele>287</ele>
        <time>2018-07-17T09:11:54Z</time>
      </trkpt>
      <trkpt lat="45.95066" lon="4.97755">
        <ele>287</ele>
        <time>2018-07-17T09:11:56Z</time>
      </trkpt>
      <trkpt lat="45.95066" lon="4.9776">
        <ele>287</ele>
        <time>2018-07-17T09:11:57Z</time>
      </trkpt>
      <trkpt lat="45.95065" lon="4.97773">
        <ele>287</ele>
        <time>2018-07-17T09:11:59Z</time>
      </trkpt>
      <trkpt lat="45.95065" lon="4.97778">
        <ele>287</ele>
        <time>2018-07-17T09:12:00Z</time>
      </trkpt>
      <trkpt lat="45.95064" lon="4.97791">
        <ele>287</ele>
        <time>2018-07-17T09:12:02Z</time>
      </trkpt>
      <trkpt lat="45.95063" lon="4.97798">
        <ele>287</ele>
        <time>2018-07-17T09:12:03Z</time>
      </trkpt>
      <trkpt lat="45.95062" lon="4.97803">
        <ele>287</ele>
        <time>2018-07-17T09:12:04Z</time>
      </trkpt>
      <trkpt lat="45.95063" lon="4.97811">
        <ele>287</ele>
        <time>2018-07-17T09:12:05Z</time>
      </trkpt>
      <trkpt lat="45.95064" lon="4.97816">
        <ele>287</ele>
        <time>2018-07-17T09:12:06Z</time>
      </trkpt>
      <trkpt lat="45.95065" lon="4.97824">
        <ele>287</ele>
        <time>2018-07-17T09:12:07Z</time>
      </trkpt>
      <trkpt lat="45.95067" lon="4.97834">
        <ele>287</ele>
        <time>2018-07-17T09:12:09Z</time>
      </trkpt>
      <trkpt lat="45.95069" lon="4.97842">
        <ele>287</ele>
        <time>2018-07-17T09:12:10Z</time>
      </trkpt>
      <trkpt lat="45.95072" lon="4.97847">
        <ele>287</ele>
        <time>2018-07-17T09:12:11Z</time>
      </trkpt>
      <trkpt lat="45.95073" lon="4.97853">
        <ele>287</ele>
        <time>2018-07-17T09:12:12Z</time>
      </trkpt>
      <trkpt lat="45.95075" lon="4.9786">
        <ele>287</ele>
        <time>2018-07-17T09:12:13Z</time>
      </trkpt>
      <trkpt lat="45.95077" lon="4.97867">
        <ele>287</ele>
        <time>2018-07-17T09:12:14Z</time>
      </trkpt>
      <trkpt lat="45.95079" lon="4.97876">
        <ele>287</ele>
        <time>2018-07-17T09:12:15Z</time>
      </trkpt>
      <trkpt lat="45.9508" lon="4.97883">
        <ele>287</ele>
        <time>2018-07-17T09:12:16Z</time>
      </trkpt>
      <trkpt lat="45.95081" lon="4.97893">
        <ele>288</ele>
        <time>2018-07-17T09:12:17Z</time>
      </trkpt>
      <trkpt lat="45.95083" lon="4.97901">
        <ele>288</ele>
        <time>2018-07-17T09:12:18Z</time>
      </trkpt>
      <trkpt lat="45.95085" lon="4.97909">
        <ele>288</ele>
        <time>2018-07-17T09:12:19Z</time>
      </trkpt>
      <trkpt lat="45.95087" lon="4.97917">
        <ele>288</ele>
        <time>2018-07-17T09:12:20Z</time>
      </trkpt>
      <trkpt lat="45.95089" lon="4.97922">
        <ele>288</ele>
        <time>2018-07-17T09:12:21Z</time>
      </trkpt>
      <trkpt lat="45.9509" lon="4.97929">
        <ele>288</ele>
        <time>2018-07-17T09:12:22Z</time>
      </trkpt>
      <trkpt lat="45.95091" lon="4.97937">
        <ele>287</ele>
        <time>2018-07-17T09:12:23Z</time>
      </trkpt>
      <trkpt lat="45.95092" lon="4.97945">
        <ele>287</ele>
        <time>2018-07-17T09:12:24Z</time>
      </trkpt>
      <trkpt lat="45.95093" lon="4.97953">
        <ele>287</ele>
        <time>2018-07-17T09:12:25Z</time>
      </trkpt>
      <trkpt lat="45.95094" lon="4.97962">
        <ele>288</ele>
        <time>2018-07-17T09:12:26Z</time>
      </trkpt>
      <trkpt lat="45.95095" lon="4.9797">
        <ele>288</ele>
        <time>2018-07-17T09:12:27Z</time>
      </trkpt>
      <trkpt lat="45.95096" lon="4.97978">
        <ele>288</ele>
        <time>2018-07-17T09:12:28Z</time>
      </trkpt>
      <trkpt lat="45.95095" lon="4.97988">
        <ele>288</ele>
        <time>2018-07-17T09:12:29Z</time>
      </trkpt>
      <trkpt lat="45.95095" lon="4.97996">
        <ele>288</ele>
        <time>2018-07-17T09:12:30Z</time>
      </trkpt>
      <trkpt lat="45.95095" lon="4.98006">
        <ele>288</ele>
        <time>2018-07-17T09:12:31Z</time>
      </trkpt>
      <trkpt lat="45.95096" lon="4.98015">
        <ele>288</ele>
        <time>2018-07-17T09:12:32Z</time>
      </trkpt>
      <trkpt lat="45.95098" lon="4.98021">
        <ele>288</ele>
        <time>2018-07-17T09:12:33Z</time>
      </trkpt>
      <trkpt lat="45.95098" lon="4.9803">
        <ele>288</ele>
        <time>2018-07-17T09:12:34Z</time>
      </trkpt>
      <trkpt lat="45.95098" lon="4.98039">
        <ele>287</ele>
        <time>2018-07-17T09:12:35Z</time>
      </trkpt>
      <trkpt lat="45.95098" lon="4.98047">
        <ele>287</ele>
        <time>2018-07-17T09:12:36Z</time>
      </trkpt>
      <trkpt lat="45.95097" lon="4.98056">
        <ele>287</ele>
        <time>2018-07-17T09:12:37Z</time>
      </trkpt>
      <trkpt lat="45.95096" lon="4.98064">
        <ele>287</ele>
        <time>2018-07-17T09:12:38Z</time>
      </trkpt>
      <trkpt lat="45.95095" lon="4.98071">
        <ele>288</ele>
        <time>2018-07-17T09:12:39Z</time>
      </trkpt>
      <trkpt lat="45.95094" lon="4.98079">
        <ele>288</ele>
        <time>2018-07-17T09:12:40Z</time>
      </trkpt>
      <trkpt lat="45.95094" lon="4.98086">
        <ele>287</ele>
        <time>2018-07-17T09:12:41Z</time>
      </trkpt>
      <trkpt lat="45.95093" lon="4.98093">
        <ele>287</ele>
        <time>2018-07-17T09:12:42Z</time>
      </trkpt>
      <trkpt lat="45.95092" lon="4.98103">
        <ele>287</ele>
        <time>2018-07-17T09:12:43Z</time>
      </trkpt>
      <trkpt lat="45.95092" lon="4.98112">
        <ele>287</ele>
        <time>2018-07-17T09:12:44Z</time>
      </trkpt>
      <trkpt lat="45.95092" lon="4.9812">
        <ele>287</ele>
        <time>2018-07-17T09:12:45Z</time>
      </trkpt>
      <trkpt lat="45.95091" lon="4.98128">
        <ele>287</ele>
        <time>2018-07-17T09:12:46Z</time>
      </trkpt>
      <trkpt lat="45.9509" lon="4.98137">
        <ele>287</ele>
        <time>2018-07-17T09:12:47Z</time>
      </trkpt>
      <trkpt lat="45.95089" lon="4.98145">
        <ele>287</ele>
        <time>2018-07-17T09:12:48Z</time>
      </trkpt>
      <trkpt lat="45.95087" lon="4.98153">
        <ele>287</ele>
        <time>2018-07-17T09:12:49Z</time>
      </trkpt>
      <trkpt lat="45.95086" lon="4.9816">
        <ele>288</ele>
        <time>2018-07-17T09:12:50Z</time>
      </trkpt>
      <trkpt lat="45.95084" lon="4.98166">
        <ele>288</ele>
        <time>2018-07-17T09:12:51Z</time>
      </trkpt>
      <trkpt lat="45.95082" lon="4.98174">
        <ele>288</ele>
        <time>2018-07-17T09:12:52Z</time>
      </trkpt>
      <trkpt lat="45.9508" lon="4.9818">
        <ele>288</ele>
        <time>2018-07-17T09:12:53Z</time>
      </trkpt>
      <trkpt lat="45.95078" lon="4.98187">
        <ele>288</ele>
        <time>2018-07-17T09:12:54Z</time>
      </trkpt>
      <trkpt lat="45.95077" lon="4.98198">
        <ele>288</ele>
        <time>2018-07-17T09:12:55Z</time>
      </trkpt>
      <trkpt lat="45.95075" lon="4.98207">
        <ele>288</ele>
        <time>2018-07-17T09:12:56Z</time>
      </trkpt>
      <trkpt lat="45.95073" lon="4.98215">
        <ele>287</ele>
        <time>2018-07-17T09:12:57Z</time>
      </trkpt>
      <trkpt lat="45.95072" lon="4.98221">
        <ele>287</ele>
        <time>2018-07-17T09:12:58Z</time>
      </trkpt>
      <trkpt lat="45.95072" lon="4.98232">
        <ele>287</ele>
        <time>2018-07-17T09:12:59Z</time>
      </trkpt>
      <trkpt lat="45.95069" lon="4.98239">
        <ele>287</ele>
        <time>2018-07-17T09:13:00Z</time>
      </trkpt>
      <trkpt lat="45.95067" lon="4.98248">
        <ele>287</ele>
        <time>2018-07-17T09:13:01Z</time>
      </trkpt>
      <trkpt lat="45.95064" lon="4.98255">
        <ele>287</ele>
        <time>2018-07-17T09:13:02Z</time>
      </trkpt>
      <trkpt lat="45.95061" lon="4.98262">
        <ele>287</ele>
        <time>2018-07-17T09:13:03Z</time>
      </trkpt>
      <trkpt lat="45.95059" lon="4.98267">
        <ele>287</ele>
        <time>2018-07-17T09:13:04Z</time>
      </trkpt>
      <trkpt lat="45.95055" lon="4.98273">
        <ele>287</ele>
        <time>2018-07-17T09:13:05Z</time>
      </trkpt>
      <trkpt lat="45.9505" lon="4.98279">
        <ele>287</ele>
        <time>2018-07-17T09:13:06Z</time>
      </trkpt>
      <trkpt lat="45.95048" lon="4.98288">
        <ele>287</ele>
        <time>2018-07-17T09:13:07Z</time>
      </trkpt>
      <trkpt lat="45.95044" lon="4.98294">
        <ele>287</ele>
        <time>2018-07-17T09:13:08Z</time>
      </trkpt>
      <trkpt lat="45.95041" lon="4.98303">
        <ele>287</ele>
        <time>2018-07-17T09:13:09Z</time>
      </trkpt>
      <trkpt lat="45.95037" lon="4.9831">
        <ele>287</ele>
        <time>2018-07-17T09:13:10Z</time>
      </trkpt>
      <trkpt lat="45.95034" lon="4.98316">
        <ele>287</ele>
        <time>2018-07-17T09:13:11Z</time>
      </trkpt>
      <trkpt lat="45.9503" lon="4.98323">
        <ele>287</ele>
        <time>2018-07-17T09:13:12Z</time>
      </trkpt>
      <trkpt lat="45.95027" lon="4.98328">
        <ele>287</ele>
        <time>2018-07-17T09:13:13Z</time>
      </trkpt>
      <trkpt lat="45.95024" lon="4.98334">
        <ele>287</ele>
        <time>2018-07-17T09:13:14Z</time>
      </trkpt>
      <trkpt lat="45.9502" lon="4.98341">
        <ele>287</ele>
        <time>2018-07-17T09:13:15Z</time>
      </trkpt>
      <trkpt lat="45.95019" lon="4.9835">
        <ele>287</ele>
        <time>2018-07-17T09:13:16Z</time>
      </trkpt>
      <trkpt lat="45.95015" lon="4.98356">
        <ele>287</ele>
        <time>2018-07-17T09:13:17Z</time>
      </trkpt>
      <trkpt lat="45.95011" lon="4.98362">
        <ele>287</ele>
        <time>2018-07-17T09:13:18Z</time>
      </trkpt>
      <trkpt lat="45.95006" lon="4.98367">
        <ele>287</ele>
        <time>2018-07-17T09:13:19Z</time>
      </trkpt>
      <trkpt lat="45.95002" lon="4.98374">
        <ele>287</ele>
        <time>2018-07-17T09:13:20Z</time>
      </trkpt>
      <trkpt lat="45.94994" lon="4.98377">
        <ele>287</ele>
        <time>2018-07-17T09:13:22Z</time>
      </trkpt>
      <trkpt lat="45.94994" lon="4.98389">
        <ele>287</ele>
        <time>2018-07-17T09:13:23Z</time>
      </trkpt>
      <trkpt lat="45.94991" lon="4.98395">
        <ele>288</ele>
        <time>2018-07-17T09:13:24Z</time>
      </trkpt>
      <trkpt lat="45.94986" lon="4.98401">
        <ele>288</ele>
        <time>2018-07-17T09:13:25Z</time>
      </trkpt>
      <trkpt lat="45.94984" lon="4.98407">
        <ele>288</ele>
        <time>2018-07-17T09:13:26Z</time>
      </trkpt>
      <trkpt lat="45.9498" lon="4.98414">
        <ele>288</ele>
        <time>2018-07-17T09:13:27Z</time>
      </trkpt>
      <trkpt lat="45.94974" lon="4.98423">
        <ele>288</ele>
        <time>2018-07-17T09:13:29Z</time>
      </trkpt>
      <trkpt lat="45.9497" lon="4.98429">
        <ele>288</ele>
        <time>2018-07-17T09:13:30Z</time>
      </trkpt>
      <trkpt lat="45.94967" lon="4.98437">
        <ele>288</ele>
        <time>2018-07-17T09:13:31Z</time>
      </trkpt>
      <trkpt lat="45.94965" lon="4.98442">
        <ele>288</ele>
        <time>2018-07-17T09:13:32Z</time>
      </trkpt>
      <trkpt lat="45.94963" lon="4.98448">
        <ele>288</ele>
        <time>2018-07-17T09:13:33Z</time>
      </trkpt>
      <trkpt lat="45.9496" lon="4.98453">
        <ele>288</ele>
        <time>2018-07-17T09:13:34Z</time>
      </trkpt>
      <trkpt lat="45.94958" lon="4.98459">
        <ele>289</ele>
        <time>2018-07-17T09:13:35Z</time>
      </trkpt>
      <trkpt lat="45.94955" lon="4.98464">
        <ele>289</ele>
        <time>2018-07-17T09:13:36Z</time>
      </trkpt>
      <trkpt lat="45.9495" lon="4.98474">
        <ele>289</ele>
        <time>2018-07-17T09:13:38Z</time>
      </trkpt>
      <trkpt lat="45.94948" lon="4.98478">
        <ele>289</ele>
        <time>2018-07-17T09:13:39Z</time>
      </trkpt>
      <trkpt lat="45.94945" lon="4.98484">
        <ele>289</ele>
        <time>2018-07-17T09:13:40Z</time>
      </trkpt>
      <trkpt lat="45.94944" lon="4.98491">
        <ele>289</ele>
        <time>2018-07-17T09:13:41Z</time>
      </trkpt>
      <trkpt lat="45.94941" lon="4.98496">
        <ele>289</ele>
        <time>2018-07-17T09:13:42Z</time>
      </trkpt>
      <trkpt lat="45.94937" lon="4.98502">
        <ele>290</ele>
        <time>2018-07-17T09:13:43Z</time>
      </trkpt>
      <trkpt lat="45.94936" lon="4.98507">
        <ele>290</ele>
        <time>2018-07-17T09:13:44Z</time>
      </trkpt>
      <trkpt lat="45.94932" lon="4.98513">
        <ele>290</ele>
        <time>2018-07-17T09:13:45Z</time>
      </trkpt>
      <trkpt lat="45.94927" lon="4.98523">
        <ele>290</ele>
        <time>2018-07-17T09:13:47Z</time>
      </trkpt>
      <trkpt lat="45.94924" lon="4.98524">
        <ele>290</ele>
        <time>2018-07-17T09:13:48Z</time>
      </trkpt>
      <trkpt lat="45.94918" lon="4.98532">
        <ele>290</ele>
        <time>2018-07-17T09:13:50Z</time>
      </trkpt>
      <trkpt lat="45.94917" lon="4.98538">
        <ele>290</ele>
        <time>2018-07-17T09:13:51Z</time>
      </trkpt>
      <trkpt lat="45.94912" lon="4.98549">
        <ele>292</ele>
        <time>2018-07-17T09:13:53Z</time>
      </trkpt>
      <trkpt lat="45.94911" lon="4.98558">
        <ele>292</ele>
        <time>2018-07-17T09:13:54Z</time>
      </trkpt>
      <trkpt lat="45.94908" lon="4.98564">
        <ele>292</ele>
        <time>2018-07-17T09:13:55Z</time>
      </trkpt>
      <trkpt lat="45.94904" lon="4.9857">
        <ele>292</ele>
        <time>2018-07-17T09:13:56Z</time>
      </trkpt>
      <trkpt lat="45.949" lon="4.98576">
        <ele>292</ele>
        <time>2018-07-17T09:13:57Z</time>
      </trkpt>
      <trkpt lat="45.94897" lon="4.98581">
        <ele>292</ele>
        <time>2018-07-17T09:13:58Z</time>
      </trkpt>
      <trkpt lat="45.94893" lon="4.98587">
        <ele>292</ele>
        <time>2018-07-17T09:13:59Z</time>
      </trkpt>
      <trkpt lat="45.9489" lon="4.98594">
        <ele>292</ele>
        <time>2018-07-17T09:14:00Z</time>
      </trkpt>
      <trkpt lat="45.94886" lon="4.98599">
        <ele>293</ele>
        <time>2018-07-17T09:14:01Z</time>
      </trkpt>
      <trkpt lat="45.94883" lon="4.98603">
        <ele>293</ele>
        <time>2018-07-17T09:14:02Z</time>
      </trkpt>
      <trkpt lat="45.94878" lon="4.98607">
        <ele>293</ele>
        <time>2018-07-17T09:14:03Z</time>
      </trkpt>
      <trkpt lat="45.94875" lon="4.9861">
        <ele>293</ele>
        <time>2018-07-17T09:14:04Z</time>
      </trkpt>
      <trkpt lat="45.94869" lon="4.98617">
        <ele>293</ele>
        <time>2018-07-17T09:14:06Z</time>
      </trkpt>
      <trkpt lat="45.94864" lon="4.9862">
        <ele>293</ele>
        <time>2018-07-17T09:14:07Z</time>
      </trkpt>
      <trkpt lat="45.94859" lon="4.98623">
        <ele>293</ele>
        <time>2018-07-17T09:14:08Z</time>
      </trkpt>
      <trkpt lat="45.94855" lon="4.98625">
        <ele>293</ele>
        <time>2018-07-17T09:14:09Z</time>
      </trkpt>
      <trkpt lat="45.94846" lon="4.98627">
        <ele>293</ele>
        <time>2018-07-17T09:14:11Z</time>
      </trkpt>
      <trkpt lat="45.94843" lon="4.98629">
        <ele>293</ele>
        <time>2018-07-17T09:14:12Z</time>
      </trkpt>
      <trkpt lat="45.94836" lon="4.98636">
        <ele>293</ele>
        <time>2018-07-17T09:14:14Z</time>
      </trkpt>
      <trkpt lat="45.94836" lon="4.98639">
        <ele>293</ele>
        <time>2018-07-17T09:14:15Z</time>
      </trkpt>
      <trkpt lat="45.94834" lon="4.98647">
        <ele>294</ele>
        <time>2018-07-17T09:14:16Z</time>
      </trkpt>
      <trkpt lat="45.94833" lon="4.98653">
        <ele>294</ele>
        <time>2018-07-17T09:14:17Z</time>
      </trkpt>
      <trkpt lat="45.94833" lon="4.98661">
        <ele>294</ele>
        <time>2018-07-17T09:14:18Z</time>
      </trkpt>
      <trkpt lat="45.94834" lon="4.98669">
        <ele>294</ele>
        <time>2018-07-17T09:14:19Z</time>
      </trkpt>
      <trkpt lat="45.94835" lon="4.98676">
        <ele>294</ele>
        <time>2018-07-17T09:14:20Z</time>
      </trkpt>
      <trkpt lat="45.94835" lon="4.98684">
        <ele>294</ele>
        <time>2018-07-17T09:14:21Z</time>
      </trkpt>
      <trkpt lat="45.94832" lon="4.98692">
        <ele>294</ele>
        <time>2018-07-17T09:14:22Z</time>
      </trkpt>
      <trkpt lat="45.94832" lon="4.98699">
        <ele>294</ele>
        <time>2018-07-17T09:14:23Z</time>
      </trkpt>
      <trkpt lat="45.94826" lon="4.98705">
        <ele>294</ele>
        <time>2018-07-17T09:14:24Z</time>
      </trkpt>
      <trkpt lat="45.94824" lon="4.98713">
        <ele>294</ele>
        <time>2018-07-17T09:14:25Z</time>
      </trkpt>
      <trkpt lat="45.94821" lon="4.98721">
        <ele>294</ele>
        <time>2018-07-17T09:14:26Z</time>
      </trkpt>
      <trkpt lat="45.94819" lon="4.98728">
        <ele>294</ele>
        <time>2018-07-17T09:14:27Z</time>
      </trkpt>
      <trkpt lat="45.94818" lon="4.98736">
        <ele>294</ele>
        <time>2018-07-17T09:14:28Z</time>
      </trkpt>
      <trkpt lat="45.94816" lon="4.98743">
        <ele>294</ele>
        <time>2018-07-17T09:14:29Z</time>
      </trkpt>
      <trkpt lat="45.94815" lon="4.9875">
        <ele>294</ele>
        <time>2018-07-17T09:14:30Z</time>
      </trkpt>
      <trkpt lat="45.94815" lon="4.98758">
        <ele>294</ele>
        <time>2018-07-17T09:14:31Z</time>
      </trkpt>
      <trkpt lat="45.94814" lon="4.98765">
        <ele>294</ele>
        <time>2018-07-17T09:14:32Z</time>
      </trkpt>
      <trkpt lat="45.94813" lon="4.98773">
        <ele>294</ele>
        <time>2018-07-17T09:14:33Z</time>
      </trkpt>
      <trkpt lat="45.94812" lon="4.98781">
        <ele>294</ele>
        <time>2018-07-17T09:14:34Z</time>
      </trkpt>
      <trkpt lat="45.94812" lon="4.98788">
        <ele>294</ele>
        <time>2018-07-17T09:14:35Z</time>
      </trkpt>
      <trkpt lat="45.9481" lon="4.98796">
        <ele>294</ele>
        <time>2018-07-17T09:14:36Z</time>
      </trkpt>
      <trkpt lat="45.94811" lon="4.98806">
        <ele>294</ele>
        <time>2018-07-17T09:14:37Z</time>
      </trkpt>
      <trkpt lat="45.94812" lon="4.98814">
        <ele>294</ele>
        <time>2018-07-17T09:14:38Z</time>
      </trkpt>
      <trkpt lat="45.94811" lon="4.98822">
        <ele>294</ele>
        <time>2018-07-17T09:14:39Z</time>
      </trkpt>
      <trkpt lat="45.94809" lon="4.98827">
        <ele>294</ele>
        <time>2018-07-17T09:14:40Z</time>
      </trkpt>
      <trkpt lat="45.94808" lon="4.98835">
        <ele>294</ele>
        <time>2018-07-17T09:14:41Z</time>
      </trkpt>
      <trkpt lat="45.94807" lon="4.98841">
        <ele>293</ele>
        <time>2018-07-17T09:14:42Z</time>
      </trkpt>
      <trkpt lat="45.94808" lon="4.9885">
        <ele>293</ele>
        <time>2018-07-17T09:14:43Z</time>
      </trkpt>
      <trkpt lat="45.94808" lon="4.98858">
        <ele>293</ele>
        <time>2018-07-17T09:14:44Z</time>
      </trkpt>
      <trkpt lat="45.94806" lon="4.98866">
        <ele>293</ele>
        <time>2018-07-17T09:14:45Z</time>
      </trkpt>
      <trkpt lat="45.94806" lon="4.98874">
        <ele>293</ele>
        <time>2018-07-17T09:14:46Z</time>
      </trkpt>
      <trkpt lat="45.94806" lon="4.98881">
        <ele>293</ele>
        <time>2018-07-17T09:14:47Z</time>
      </trkpt>
      <trkpt lat="45.94806" lon="4.98889">
        <ele>293</ele>
        <time>2018-07-17T09:14:48Z</time>
      </trkpt>
      <trkpt lat="45.94804" lon="4.98897">
        <ele>293</ele>
        <time>2018-07-17T09:14:49Z</time>
      </trkpt>
      <trkpt lat="45.94803" lon="4.98906">
        <ele>293</ele>
        <time>2018-07-17T09:14:50Z</time>
      </trkpt>
      <trkpt lat="45.94802" lon="4.98915">
        <ele>293</ele>
        <time>2018-07-17T09:14:51Z</time>
      </trkpt>
      <trkpt lat="45.94803" lon="4.98924">
        <ele>292</ele>
        <time>2018-07-17T09:14:52Z</time>
      </trkpt>
      <trkpt lat="45.948" lon="4.98933">
        <ele>292</ele>
        <time>2018-07-17T09:14:53Z</time>
      </trkpt>
      <trkpt lat="45.94799" lon="4.98941">
        <ele>292</ele>
        <time>2018-07-17T09:14:54Z</time>
      </trkpt>
      <trkpt lat="45.94798" lon="4.98949">
        <ele>292</ele>
        <time>2018-07-17T09:14:55Z</time>
      </trkpt>
      <trkpt lat="45.94797" lon="4.98957">
        <ele>292</ele>
        <time>2018-07-17T09:14:56Z</time>
      </trkpt>
      <trkpt lat="45.94796" lon="4.98966">
        <ele>291</ele>
        <time>2018-07-17T09:14:57Z</time>
      </trkpt>
      <trkpt lat="45.94795" lon="4.98974">
        <ele>291</ele>
        <time>2018-07-17T09:14:58Z</time>
      </trkpt>
      <trkpt lat="45.94795" lon="4.98982">
        <ele>291</ele>
        <time>2018-07-17T09:14:59Z</time>
      </trkpt>
      <trkpt lat="45.94795" lon="4.98989">
        <ele>291</ele>
        <time>2018-07-17T09:15:00Z</time>
      </trkpt>
      <trkpt lat="45.94795" lon="4.98997">
        <ele>291</ele>
        <time>2018-07-17T09:15:01Z</time>
      </trkpt>
      <trkpt lat="45.94795" lon="4.99004">
        <ele>291</ele>
        <time>2018-07-17T09:15:02Z</time>
      </trkpt>
      <trkpt lat="45.94794" lon="4.99012">
        <ele>291</ele>
        <time>2018-07-17T09:15:03Z</time>
      </trkpt>
      <trkpt lat="45.94793" lon="4.9902">
        <ele>291</ele>
        <time>2018-07-17T09:15:04Z</time>
      </trkpt>
      <trkpt lat="45.94792" lon="4.99027">
        <ele>291</ele>
        <time>2018-07-17T09:15:05Z</time>
      </trkpt>
      <trkpt lat="45.94789" lon="4.99034">
        <ele>291</ele>
        <time>2018-07-17T09:15:06Z</time>
      </trkpt>
      <trkpt lat="45.94786" lon="4.9904">
        <ele>291</ele>
        <time>2018-07-17T09:15:07Z</time>
      </trkpt>
      <trkpt lat="45.94783" lon="4.99046">
        <ele>291</ele>
        <time>2018-07-17T09:15:08Z</time>
      </trkpt>
      <trkpt lat="45.94779" lon="4.99053">
        <ele>291</ele>
        <time>2018-07-17T09:15:09Z</time>
      </trkpt>
      <trkpt lat="45.94777" lon="4.99063">
        <ele>291</ele>
        <time>2018-07-17T09:15:10Z</time>
      </trkpt>
      <trkpt lat="45.94773" lon="4.9907">
        <ele>291</ele>
        <time>2018-07-17T09:15:11Z</time>
      </trkpt>
      <trkpt lat="45.94769" lon="4.99076">
        <ele>291</ele>
        <time>2018-07-17T09:15:12Z</time>
      </trkpt>
      <trkpt lat="45.94765" lon="4.99082">
        <ele>291</ele>
        <time>2018-07-17T09:15:13Z</time>
      </trkpt>
      <trkpt lat="45.94761" lon="4.99089">
        <ele>290</ele>
        <time>2018-07-17T09:15:14Z</time>
      </trkpt>
      <trkpt lat="45.94757" lon="4.99095">
        <ele>290</ele>
        <time>2018-07-17T09:15:15Z</time>
      </trkpt>
      <trkpt lat="45.94753" lon="4.99101">
        <ele>290</ele>
        <time>2018-07-17T09:15:16Z</time>
      </trkpt>
      <trkpt lat="45.94749" lon="4.99109">
        <ele>290</ele>
        <time>2018-07-17T09:15:17Z</time>
      </trkpt>
      <trkpt lat="45.94744" lon="4.99114">
        <ele>290</ele>
        <time>2018-07-17T09:15:18Z</time>
      </trkpt>
      <trkpt lat="45.9474" lon="4.99121">
        <ele>290</ele>
        <time>2018-07-17T09:15:19Z</time>
      </trkpt>
      <trkpt lat="45.9474" lon="4.99131">
        <ele>289</ele>
        <time>2018-07-17T09:15:20Z</time>
      </trkpt>
      <trkpt lat="45.94736" lon="4.99138">
        <ele>289</ele>
        <time>2018-07-17T09:15:21Z</time>
      </trkpt>
      <trkpt lat="45.94732" lon="4.99142">
        <ele>289</ele>
        <time>2018-07-17T09:15:22Z</time>
      </trkpt>
      <trkpt lat="45.94728" lon="4.99148">
        <ele>289</ele>
        <time>2018-07-17T09:15:23Z</time>
      </trkpt>
      <trkpt lat="45.94723" lon="4.99153">
        <ele>289</ele>
        <time>2018-07-17T09:15:24Z</time>
      </trkpt>
      <trkpt lat="45.94717" lon="4.99158">
        <ele>289</ele>
        <time>2018-07-17T09:15:25Z</time>
      </trkpt>
      <trkpt lat="45.94713" lon="4.99163">
        <ele>289</ele>
        <time>2018-07-17T09:15:26Z</time>
      </trkpt>
      <trkpt lat="45.94708" lon="4.99167">
        <ele>288</ele>
        <time>2018-07-17T09:15:27Z</time>
      </trkpt>
      <trkpt lat="45.94702" lon="4.99172">
        <ele>288</ele>
        <time>2018-07-17T09:15:28Z</time>
      </trkpt>
      <trkpt lat="45.94697" lon="4.99176">
        <ele>288</ele>
        <time>2018-07-17T09:15:29Z</time>
      </trkpt>
      <trkpt lat="45.94692" lon="4.99181">
        <ele>288</ele>
        <time>2018-07-17T09:15:30Z</time>
      </trkpt>
      <trkpt lat="45.94687" lon="4.99185">
        <ele>288</ele>
        <time>2018-07-17T09:15:31Z</time>
      </trkpt>
      <trkpt lat="45.94682" lon="4.99191">
        <ele>288</ele>
        <time>2018-07-17T09:15:32Z</time>
      </trkpt>
      <trkpt lat="45.94676" lon="4.99195">
        <ele>288</ele>
        <time>2018-07-17T09:15:33Z</time>
      </trkpt>
      <trkpt lat="45.94671" lon="4.99201">
        <ele>288</ele>
        <time>2018-07-17T09:15:34Z</time>
      </trkpt>
      <trkpt lat="45.94666" lon="4.99206">
        <ele>288</ele>
        <time>2018-07-17T09:15:35Z</time>
      </trkpt>
      <trkpt lat="45.94661" lon="4.99211">
        <ele>288</ele>
        <time>2018-07-17T09:15:36Z</time>
      </trkpt>
      <trkpt lat="45.94656" lon="4.99215">
        <ele>288</ele>
        <time>2018-07-17T09:15:37Z</time>
      </trkpt>
      <trkpt lat="45.94651" lon="4.99222">
        <ele>288</ele>
        <time>2018-07-17T09:15:38Z</time>
      </trkpt>
      <trkpt lat="45.94647" lon="4.99228">
        <ele>288</ele>
        <time>2018-07-17T09:15:39Z</time>
      </trkpt>
      <trkpt lat="45.94641" lon="4.99234">
        <ele>288</ele>
        <time>2018-07-17T09:15:40Z</time>
      </trkpt>
      <trkpt lat="45.94636" lon="4.99241">
        <ele>288</ele>
        <time>2018-07-17T09:15:41Z</time>
      </trkpt>
      <trkpt lat="45.94634" lon="4.9925">
        <ele>287</ele>
        <time>2018-07-17T09:15:42Z</time>
      </trkpt>
      <trkpt lat="45.94629" lon="4.99258">
        <ele>287</ele>
        <time>2018-07-17T09:15:43Z</time>
      </trkpt>
      <trkpt lat="45.94624" lon="4.99265">
        <ele>287</ele>
        <time>2018-07-17T09:15:44Z</time>
      </trkpt>
      <trkpt lat="45.94619" lon="4.99274">
        <ele>287</ele>
        <time>2018-07-17T09:15:45Z</time>
      </trkpt>
      <trkpt lat="45.94615" lon="4.99281">
        <ele>287</ele>
        <time>2018-07-17T09:15:46Z</time>
      </trkpt>
      <trkpt lat="45.94611" lon="4.99288">
        <ele>287</ele>
        <time>2018-07-17T09:15:47Z</time>
      </trkpt>
      <trkpt lat="45.94606" lon="4.99292">
        <ele>287</ele>
        <time>2018-07-17T09:15:48Z</time>
      </trkpt>
      <trkpt lat="45.94602" lon="4.99299">
        <ele>287</ele>
        <time>2018-07-17T09:15:49Z</time>
      </trkpt>
      <trkpt lat="45.94597" lon="4.99306">
        <ele>287</ele>
        <time>2018-07-17T09:15:50Z</time>
      </trkpt>
      <trkpt lat="45.94589" lon="4.99311">
        <ele>287</ele>
        <time>2018-07-17T09:15:51Z</time>
      </trkpt>
      <trkpt lat="45.94583" lon="4.99315">
        <ele>287</ele>
        <time>2018-07-17T09:15:52Z</time>
      </trkpt>
      <trkpt lat="45.94578" lon="4.99321">
        <ele>287</ele>
        <time>2018-07-17T09:15:53Z</time>
      </trkpt>
      <trkpt lat="45.94574" lon="4.99329">
        <ele>287</ele>
        <time>2018-07-17T09:15:54Z</time>
      </trkpt>
      <trkpt lat="45.94571" lon="4.99336">
        <ele>287</ele>
        <time>2018-07-17T09:15:55Z</time>
      </trkpt>
      <trkpt lat="45.94566" lon="4.99343">
        <ele>287</ele>
        <time>2018-07-17T09:15:56Z</time>
      </trkpt>
      <trkpt lat="45.94564" lon="4.99349">
        <ele>287</ele>
        <time>2018-07-17T09:15:57Z</time>
      </trkpt>
      <trkpt lat="45.94559" lon="4.99357">
        <ele>288</ele>
        <time>2018-07-17T09:15:58Z</time>
      </trkpt>
      <trkpt lat="45.94556" lon="4.99363">
        <ele>288</ele>
        <time>2018-07-17T09:15:59Z</time>
      </trkpt>
      <trkpt lat="45.94551" lon="4.9937">
        <ele>288</ele>
        <time>2018-07-17T09:16:00Z</time>
      </trkpt>
      <trkpt lat="45.94548" lon="4.99379">
        <ele>288</ele>
        <time>2018-07-17T09:16:01Z</time>
      </trkpt>
      <trkpt lat="45.94546" lon="4.99387">
        <ele>288</ele>
        <time>2018-07-17T09:16:02Z</time>
      </trkpt>
      <trkpt lat="45.94544" lon="4.99395">
        <ele>288</ele>
        <time>2018-07-17T09:16:03Z</time>
      </trkpt>
      <trkpt lat="45.94541" lon="4.99403">
        <ele>288</ele>
        <time>2018-07-17T09:16:04Z</time>
      </trkpt>
      <trkpt lat="45.94539" lon="4.99412">
        <ele>288</ele>
        <time>2018-07-17T09:16:05Z</time>
      </trkpt>
      <trkpt lat="45.94537" lon="4.9942">
        <ele>287</ele>
        <time>2018-07-17T09:16:06Z</time>
      </trkpt>
      <trkpt lat="45.94535" lon="4.99427">
        <ele>288</ele>
        <time>2018-07-17T09:16:07Z</time>
      </trkpt>
      <trkpt lat="45.94531" lon="4.99435">
        <ele>288</ele>
        <time>2018-07-17T09:16:08Z</time>
      </trkpt>
      <trkpt lat="45.94529" lon="4.99443">
        <ele>288</ele>
        <time>2018-07-17T09:16:09Z</time>
      </trkpt>
      <trkpt lat="45.94527" lon="4.99451">
        <ele>288</ele>
        <time>2018-07-17T09:16:10Z</time>
      </trkpt>
      <trkpt lat="45.94525" lon="4.99458">
        <ele>287</ele>
        <time>2018-07-17T09:16:11Z</time>
      </trkpt>
      <trkpt lat="45.94521" lon="4.99466">
        <ele>288</ele>
        <time>2018-07-17T09:16:12Z</time>
      </trkpt>
      <trkpt lat="45.94519" lon="4.99474">
        <ele>288</ele>
        <time>2018-07-17T09:16:13Z</time>
      </trkpt>
      <trkpt lat="45.94516" lon="4.99483">
        <ele>288</ele>
        <time>2018-07-17T09:16:14Z</time>
      </trkpt>
      <trkpt lat="45.94514" lon="4.99492">
        <ele>288</ele>
        <time>2018-07-17T09:16:15Z</time>
      </trkpt>
      <trkpt lat="45.94511" lon="4.99499">
        <ele>288</ele>
        <time>2018-07-17T09:16:16Z</time>
      </trkpt>
      <trkpt lat="45.94513" lon="4.99514">
        <ele>287</ele>
        <time>2018-07-17T09:16:17Z</time>
      </trkpt>
      <trkpt lat="45.94511" lon="4.99522">
        <ele>287</ele>
        <time>2018-07-17T09:16:18Z</time>
      </trkpt>
      <trkpt lat="45.94507" lon="4.99529">
        <ele>287</ele>
        <time>2018-07-17T09:16:19Z</time>
      </trkpt>
      <trkpt lat="45.94504" lon="4.99537">
        <ele>287</ele>
        <time>2018-07-17T09:16:20Z</time>
      </trkpt>
      <trkpt lat="45.94501" lon="4.99543">
        <ele>287</ele>
        <time>2018-07-17T09:16:21Z</time>
      </trkpt>
      <trkpt lat="45.94499" lon="4.9955">
        <ele>288</ele>
        <time>2018-07-17T09:16:22Z</time>
      </trkpt>
      <trkpt lat="45.94497" lon="4.99556">
        <ele>288</ele>
        <time>2018-07-17T09:16:23Z</time>
      </trkpt>
      <trkpt lat="45.94496" lon="4.99564">
        <ele>288</ele>
        <time>2018-07-17T09:16:24Z</time>
      </trkpt>
      <trkpt lat="45.94492" lon="4.99571">
        <ele>288</ele>
        <time>2018-07-17T09:16:25Z</time>
      </trkpt>
      <trkpt lat="45.9449" lon="4.99579">
        <ele>288</ele>
        <time>2018-07-17T09:16:26Z</time>
      </trkpt>
      <trkpt lat="45.94489" lon="4.9959">
        <ele>289</ele>
        <time>2018-07-17T09:16:27Z</time>
      </trkpt>
      <trkpt lat="45.94486" lon="4.99598">
        <ele>289</ele>
        <time>2018-07-17T09:16:28Z</time>
      </trkpt>
      <trkpt lat="45.94484" lon="4.99607">
        <ele>289</ele>
        <time>2018-07-17T09:16:29Z</time>
      </trkpt>
      <trkpt lat="45.9448" lon="4.99615">
        <ele>289</ele>
        <time>2018-07-17T09:16:30Z</time>
      </trkpt>
      <trkpt lat="45.94479" lon="4.99623">
        <ele>289</ele>
        <time>2018-07-17T09:16:31Z</time>
      </trkpt>
      <trkpt lat="45.94476" lon="4.99631">
        <ele>289</ele>
        <time>2018-07-17T09:16:32Z</time>
      </trkpt>
      <trkpt lat="45.94474" lon="4.99638">
        <ele>289</ele>
        <time>2018-07-17T09:16:33Z</time>
      </trkpt>
      <trkpt lat="45.94472" lon="4.99646">
        <ele>289</ele>
        <time>2018-07-17T09:16:34Z</time>
      </trkpt>
      <trkpt lat="45.94469" lon="4.99654">
        <ele>289</ele>
        <time>2018-07-17T09:16:35Z</time>
      </trkpt>
      <trkpt lat="45.94466" lon="4.99661">
        <ele>290</ele>
        <time>2018-07-17T09:16:36Z</time>
      </trkpt>
      <trkpt lat="45.94465" lon="4.99668">
        <ele>289</ele>
        <time>2018-07-17T09:16:37Z</time>
      </trkpt>
      <trkpt lat="45.94462" lon="4.99674">
        <ele>289</ele>
        <time>2018-07-17T09:16:38Z</time>
      </trkpt>
      <trkpt lat="45.9446" lon="4.99684">
        <ele>289</ele>
        <time>2018-07-17T09:16:39Z</time>
      </trkpt>
      <trkpt lat="45.94458" lon="4.99691">
        <ele>289</ele>
        <time>2018-07-17T09:16:40Z</time>
      </trkpt>
      <trkpt lat="45.94457" lon="4.99697">
        <ele>289</ele>
        <time>2018-07-17T09:16:41Z</time>
      </trkpt>
      <trkpt lat="45.94454" lon="4.99703">
        <ele>289</ele>
        <time>2018-07-17T09:16:42Z</time>
      </trkpt>
      <trkpt lat="45.94452" lon="4.99711">
        <ele>289</ele>
        <time>2018-07-17T09:16:43Z</time>
      </trkpt>
      <trkpt lat="45.94449" lon="4.99717">
        <ele>289</ele>
        <time>2018-07-17T09:16:44Z</time>
      </trkpt>
      <trkpt lat="45.94446" lon="4.99723">
        <ele>289</ele>
        <time>2018-07-17T09:16:45Z</time>
      </trkpt>
      <trkpt lat="45.94443" lon="4.9973">
        <ele>289</ele>
        <time>2018-07-17T09:16:46Z</time>
      </trkpt>
      <trkpt lat="45.94441" lon="4.99737">
        <ele>289</ele>
        <time>2018-07-17T09:16:47Z</time>
      </trkpt>
      <trkpt lat="45.94437" lon="4.99745">
        <ele>289</ele>
        <time>2018-07-17T09:16:48Z</time>
      </trkpt>
      <trkpt lat="45.94435" lon="4.99752">
        <ele>288</ele>
        <time>2018-07-17T09:16:49Z</time>
      </trkpt>
      <trkpt lat="45.94432" lon="4.99759">
        <ele>288</ele>
        <time>2018-07-17T09:16:50Z</time>
      </trkpt>
      <trkpt lat="45.9443" lon="4.99767">
        <ele>288</ele>
        <time>2018-07-17T09:16:51Z</time>
      </trkpt>
      <trkpt lat="45.94426" lon="4.99774">
        <ele>288</ele>
        <time>2018-07-17T09:16:52Z</time>
      </trkpt>
      <trkpt lat="45.94423" lon="4.99781">
        <ele>288</ele>
        <time>2018-07-17T09:16:53Z</time>
      </trkpt>
      <trkpt lat="45.94421" lon="4.99789">
        <ele>288</ele>
        <time>2018-07-17T09:16:54Z</time>
      </trkpt>
      <trkpt lat="45.94418" lon="4.99795">
        <ele>288</ele>
        <time>2018-07-17T09:16:55Z</time>
      </trkpt>
      <trkpt lat="45.94416" lon="4.99802">
        <ele>290</ele>
        <time>2018-07-17T09:16:56Z</time>
      </trkpt>
      <trkpt lat="45.94412" lon="4.99807">
        <ele>290</ele>
        <time>2018-07-17T09:16:57Z</time>
      </trkpt>
      <trkpt lat="45.9441" lon="4.99813">
        <ele>290</ele>
        <time>2018-07-17T09:16:58Z</time>
      </trkpt>
      <trkpt lat="45.94406" lon="4.99817">
        <ele>290</ele>
        <time>2018-07-17T09:16:59Z</time>
      </trkpt>
      <trkpt lat="45.94406" lon="4.99828">
        <ele>290</ele>
        <time>2018-07-17T09:17:00Z</time>
      </trkpt>
      <trkpt lat="45.94402" lon="4.99834">
        <ele>289</ele>
        <time>2018-07-17T09:17:01Z</time>
      </trkpt>
      <trkpt lat="45.94397" lon="4.99841">
        <ele>289</ele>
        <time>2018-07-17T09:17:02Z</time>
      </trkpt>
      <trkpt lat="45.94397" lon="4.99847">
        <ele>289</ele>
        <time>2018-07-17T09:17:03Z</time>
      </trkpt>
      <trkpt lat="45.94392" lon="4.99854">
        <ele>290</ele>
        <time>2018-07-17T09:17:04Z</time>
      </trkpt>
      <trkpt lat="45.94391" lon="4.9986">
        <ele>290</ele>
        <time>2018-07-17T09:17:05Z</time>
      </trkpt>
      <trkpt lat="45.94384" lon="4.99868">
        <ele>290</ele>
        <time>2018-07-17T09:17:07Z</time>
      </trkpt>
      <trkpt lat="45.9438" lon="4.99874">
        <ele>290</ele>
        <time>2018-07-17T09:17:08Z</time>
      </trkpt>
      <trkpt lat="45.94374" lon="4.99879">
        <ele>290</ele>
        <time>2018-07-17T09:17:09Z</time>
      </trkpt>
      <trkpt lat="45.94372" lon="4.99887">
        <ele>290</ele>
        <time>2018-07-17T09:17:10Z</time>
      </trkpt>
      <trkpt lat="45.94369" lon="4.99895">
        <ele>290</ele>
        <time>2018-07-17T09:17:11Z</time>
      </trkpt>
      <trkpt lat="45.94366" lon="4.999">
        <ele>290</ele>
        <time>2018-07-17T09:17:12Z</time>
      </trkpt>
      <trkpt lat="45.94364" lon="4.99903">
        <ele>290</ele>
        <time>2018-07-17T09:17:13Z</time>
      </trkpt>
      <trkpt lat="45.94361" lon="4.99911">
        <ele>290</ele>
        <time>2018-07-17T09:17:14Z</time>
      </trkpt>
      <trkpt lat="45.94358" lon="4.99918">
        <ele>290</ele>
        <time>2018-07-17T09:17:15Z</time>
      </trkpt>
      <trkpt lat="45.94356" lon="4.99929">
        <ele>290</ele>
        <time>2018-07-17T09:17:16Z</time>
      </trkpt>
      <trkpt lat="45.94352" lon="4.99934">
        <ele>290</ele>
        <time>2018-07-17T09:17:17Z</time>
      </trkpt>
      <trkpt lat="45.9435" lon="4.99944">
        <ele>290</ele>
        <time>2018-07-17T09:17:18Z</time>
      </trkpt>
      <trkpt lat="45.94347" lon="4.99948">
        <ele>290</ele>
        <time>2018-07-17T09:17:19Z</time>
      </trkpt>
      <trkpt lat="45.94345" lon="4.99956">
        <ele>290</ele>
        <time>2018-07-17T09:17:20Z</time>
      </trkpt>
      <trkpt lat="45.94342" lon="4.99963">
        <ele>290</ele>
        <time>2018-07-17T09:17:21Z</time>
      </trkpt>
      <trkpt lat="45.94339" lon="4.9997">
        <ele>290</ele>
        <time>2018-07-17T09:17:22Z</time>
      </trkpt>
      <trkpt lat="45.94336" lon="4.99977">
        <ele>290</ele>
        <time>2018-07-17T09:17:23Z</time>
      </trkpt>
      <trkpt lat="45.94333" lon="4.99984">
        <ele>291</ele>
        <time>2018-07-17T09:17:24Z</time>
      </trkpt>
      <trkpt lat="45.94332" lon="4.99992">
        <ele>291</ele>
        <time>2018-07-17T09:17:25Z</time>
      </trkpt>
      <trkpt lat="45.94328" lon="5">
        <ele>291</ele>
        <time>2018-07-17T09:17:26Z</time>
      </trkpt>
      <trkpt lat="45.94326" lon="5.00007">
        <ele>291</ele>
        <time>2018-07-17T09:17:27Z</time>
      </trkpt>
      <trkpt lat="45.94323" lon="5.00014">
        <ele>291</ele>
        <time>2018-07-17T09:17:28Z</time>
      </trkpt>
      <trkpt lat="45.94318" lon="5.0002">
        <ele>291</ele>
        <time>2018-07-17T09:17:29Z</time>
      </trkpt>
      <trkpt lat="45.94314" lon="5.00027">
        <ele>290</ele>
        <time>2018-07-17T09:17:30Z</time>
      </trkpt>
      <trkpt lat="45.94311" lon="5.00036">
        <ele>290</ele>
        <time>2018-07-17T09:17:31Z</time>
      </trkpt>
      <trkpt lat="45.94307" lon="5.00045">
        <ele>290</ele>
        <time>2018-07-17T09:17:32Z</time>
      </trkpt>
      <trkpt lat="45.94302" lon="5.00052">
        <ele>290</ele>
        <time>2018-07-17T09:17:33Z</time>
      </trkpt>
      <trkpt lat="45.94298" lon="5.00059">
        <ele>290</ele>
        <time>2018-07-17T09:17:34Z</time>
      </trkpt>
      <trkpt lat="45.94294" lon="5.00067">
        <ele>290</ele>
        <time>2018-07-17T09:17:35Z</time>
      </trkpt>
      <trkpt lat="45.94289" lon="5.00073">
        <ele>290</ele>
        <time>2018-07-17T09:17:36Z</time>
      </trkpt>
      <trkpt lat="45.94286" lon="5.00081">
        <ele>290</ele>
        <time>2018-07-17T09:17:37Z</time>
      </trkpt>
      <trkpt lat="45.94282" lon="5.00089">
        <ele>290</ele>
        <time>2018-07-17T09:17:38Z</time>
      </trkpt>
      <trkpt lat="45.94277" lon="5.00096">
        <ele>289</ele>
        <time>2018-07-17T09:17:39Z</time>
      </trkpt>
      <trkpt lat="45.94273" lon="5.00102">
        <ele>289</ele>
        <time>2018-07-17T09:17:40Z</time>
      </trkpt>
      <trkpt lat="45.94268" lon="5.0011">
        <ele>289</ele>
        <time>2018-07-17T09:17:41Z</time>
      </trkpt>
      <trkpt lat="45.94263" lon="5.00116">
        <ele>289</ele>
        <time>2018-07-17T09:17:42Z</time>
      </trkpt>
      <trkpt lat="45.94259" lon="5.00124">
        <ele>289</ele>
        <time>2018-07-17T09:17:43Z</time>
      </trkpt>
      <trkpt lat="45.94254" lon="5.0013">
        <ele>289</ele>
        <time>2018-07-17T09:17:44Z</time>
      </trkpt>
      <trkpt lat="45.9425" lon="5.00138">
        <ele>289</ele>
        <time>2018-07-17T09:17:45Z</time>
      </trkpt>
      <trkpt lat="45.94246" lon="5.00145">
        <ele>288</ele>
        <time>2018-07-17T09:17:46Z</time>
      </trkpt>
      <trkpt lat="45.94242" lon="5.00152">
        <ele>288</ele>
        <time>2018-07-17T09:17:47Z</time>
      </trkpt>
      <trkpt lat="45.94237" lon="5.00159">
        <ele>288</ele>
        <time>2018-07-17T09:17:48Z</time>
      </trkpt>
      <trkpt lat="45.94233" lon="5.00166">
        <ele>288</ele>
        <time>2018-07-17T09:17:49Z</time>
      </trkpt>
      <trkpt lat="45.94229" lon="5.00173">
        <ele>287</ele>
        <time>2018-07-17T09:17:50Z</time>
      </trkpt>
      <trkpt lat="45.94223" lon="5.00179">
        <ele>287</ele>
        <time>2018-07-17T09:17:51Z</time>
      </trkpt>
      <trkpt lat="45.94217" lon="5.00185">
        <ele>287</ele>
        <time>2018-07-17T09:17:52Z</time>
      </trkpt>
      <trkpt lat="45.94212" lon="5.00192">
        <ele>287</ele>
        <time>2018-07-17T09:17:53Z</time>
      </trkpt>
      <trkpt lat="45.94208" lon="5.002">
        <ele>287</ele>
        <time>2018-07-17T09:17:54Z</time>
      </trkpt>
      <trkpt lat="45.94203" lon="5.00205">
        <ele>287</ele>
        <time>2018-07-17T09:17:55Z</time>
      </trkpt>
      <trkpt lat="45.94198" lon="5.00211">
        <ele>287</ele>
        <time>2018-07-17T09:17:56Z</time>
      </trkpt>
      <trkpt lat="45.94194" lon="5.00218">
        <ele>286</ele>
        <time>2018-07-17T09:17:57Z</time>
      </trkpt>
      <trkpt lat="45.94189" lon="5.00224">
        <ele>286</ele>
        <time>2018-07-17T09:17:58Z</time>
      </trkpt>
      <trkpt lat="45.94185" lon="5.00231">
        <ele>286</ele>
        <time>2018-07-17T09:17:59Z</time>
      </trkpt>
      <trkpt lat="45.9418" lon="5.00237">
        <ele>286</ele>
        <time>2018-07-17T09:18:00Z</time>
      </trkpt>
      <trkpt lat="45.94176" lon="5.00246">
        <ele>286</ele>
        <time>2018-07-17T09:18:01Z</time>
      </trkpt>
      <trkpt lat="45.94171" lon="5.00253">
        <ele>285</ele>
        <time>2018-07-17T09:18:02Z</time>
      </trkpt>
      <trkpt lat="45.94166" lon="5.00259">
        <ele>285</ele>
        <time>2018-07-17T09:18:03Z</time>
      </trkpt>
      <trkpt lat="45.94162" lon="5.00266">
        <ele>285</ele>
        <time>2018-07-17T09:18:04Z</time>
      </trkpt>
      <trkpt lat="45.94156" lon="5.00272">
        <ele>285</ele>
        <time>2018-07-17T09:18:05Z</time>
      </trkpt>
      <trkpt lat="45.94152" lon="5.00278">
        <ele>285</ele>
        <time>2018-07-17T09:18:06Z</time>
      </trkpt>
      <trkpt lat="45.94147" lon="5.00285">
        <ele>285</ele>
        <time>2018-07-17T09:18:07Z</time>
      </trkpt>
      <trkpt lat="45.94143" lon="5.00292">
        <ele>285</ele>
        <time>2018-07-17T09:18:08Z</time>
      </trkpt>
      <trkpt lat="45.94139" lon="5.00297">
        <ele>285</ele>
        <time>2018-07-17T09:18:09Z</time>
      </trkpt>
      <trkpt lat="45.94134" lon="5.00303">
        <ele>285</ele>
        <time>2018-07-17T09:18:10Z</time>
      </trkpt>
      <trkpt lat="45.9413" lon="5.0031">
        <ele>285</ele>
        <time>2018-07-17T09:18:11Z</time>
      </trkpt>
      <trkpt lat="45.94126" lon="5.00315">
        <ele>285</ele>
        <time>2018-07-17T09:18:12Z</time>
      </trkpt>
      <trkpt lat="45.94122" lon="5.00322">
        <ele>285</ele>
        <time>2018-07-17T09:18:13Z</time>
      </trkpt>
      <trkpt lat="45.94117" lon="5.00327">
        <ele>285</ele>
        <time>2018-07-17T09:18:14Z</time>
      </trkpt>
      <trkpt lat="45.94113" lon="5.00333">
        <ele>285</ele>
        <time>2018-07-17T09:18:15Z</time>
      </trkpt>
      <trkpt lat="45.94108" lon="5.00338">
        <ele>286</ele>
        <time>2018-07-17T09:18:16Z</time>
      </trkpt>
      <trkpt lat="45.94104" lon="5.00343">
        <ele>286</ele>
        <time>2018-07-17T09:18:17Z</time>
      </trkpt>
      <trkpt lat="45.94098" lon="5.00348">
        <ele>286</ele>
        <time>2018-07-17T09:18:18Z</time>
      </trkpt>
      <trkpt lat="45.94093" lon="5.00352">
        <ele>286</ele>
        <time>2018-07-17T09:18:19Z</time>
      </trkpt>
      <trkpt lat="45.94087" lon="5.00357">
        <ele>286</ele>
        <time>2018-07-17T09:18:20Z</time>
      </trkpt>
      <trkpt lat="45.94083" lon="5.00362">
        <ele>285</ele>
        <time>2018-07-17T09:18:21Z</time>
      </trkpt>
      <trkpt lat="45.94076" lon="5.00365">
        <ele>285</ele>
        <time>2018-07-17T09:18:22Z</time>
      </trkpt>
      <trkpt lat="45.94069" lon="5.00365">
        <ele>285</ele>
        <time>2018-07-17T09:18:23Z</time>
      </trkpt>
      <trkpt lat="45.94066" lon="5.00369">
        <ele>285</ele>
        <time>2018-07-17T09:18:24Z</time>
      </trkpt>
      <trkpt lat="45.9406" lon="5.00369">
        <ele>285</ele>
        <time>2018-07-17T09:18:25Z</time>
      </trkpt>
      <trkpt lat="45.94054" lon="5.0037">
        <ele>285</ele>
        <time>2018-07-17T09:18:26Z</time>
      </trkpt>
      <trkpt lat="45.94048" lon="5.0037">
        <ele>285</ele>
        <time>2018-07-17T09:18:27Z</time>
      </trkpt>
      <trkpt lat="45.94045" lon="5.00369">
        <ele>285</ele>
        <time>2018-07-17T09:18:28Z</time>
      </trkpt>
      <trkpt lat="45.94039" lon="5.00368">
        <ele>285</ele>
        <time>2018-07-17T09:18:29Z</time>
      </trkpt>
      <trkpt lat="45.94033" lon="5.00367">
        <ele>285</ele>
        <time>2018-07-17T09:18:30Z</time>
      </trkpt>
      <trkpt lat="45.94026" lon="5.00366">
        <ele>285</ele>
        <time>2018-07-17T09:18:31Z</time>
      </trkpt>
      <trkpt lat="45.94019" lon="5.00366">
        <ele>285</ele>
        <time>2018-07-17T09:18:32Z</time>
      </trkpt>
      <trkpt lat="45.94014" lon="5.00364">
        <ele>285</ele>
        <time>2018-07-17T09:18:33Z</time>
      </trkpt>
      <trkpt lat="45.94007" lon="5.00365">
        <ele>285</ele>
        <time>2018-07-17T09:18:34Z</time>
      </trkpt>
      <trkpt lat="45.94001" lon="5.00363">
        <ele>285</ele>
        <time>2018-07-17T09:18:35Z</time>
      </trkpt>
      <trkpt lat="45.93996" lon="5.00359">
        <ele>286</ele>
        <time>2018-07-17T09:18:36Z</time>
      </trkpt>
      <trkpt lat="45.93992" lon="5.00358">
        <ele>286</ele>
        <time>2018-07-17T09:18:37Z</time>
      </trkpt>
      <trkpt lat="45.93983" lon="5.00358">
        <ele>286</ele>
        <time>2018-07-17T09:18:38Z</time>
      </trkpt>
      <trkpt lat="45.93978" lon="5.00356">
        <ele>286</ele>
        <time>2018-07-17T09:18:39Z</time>
      </trkpt>
      <trkpt lat="45.93972" lon="5.00352">
        <ele>286</ele>
        <time>2018-07-17T09:18:40Z</time>
      </trkpt>
      <trkpt lat="45.93968" lon="5.0035">
        <ele>286</ele>
        <time>2018-07-17T09:18:41Z</time>
      </trkpt>
      <trkpt lat="45.93962" lon="5.00348">
        <ele>286</ele>
        <time>2018-07-17T09:18:42Z</time>
      </trkpt>
      <trkpt lat="45.93957" lon="5.00346">
        <ele>286</ele>
        <time>2018-07-17T09:18:43Z</time>
      </trkpt>
      <trkpt lat="45.93952" lon="5.00344">
        <ele>286</ele>
        <time>2018-07-17T09:18:44Z</time>
      </trkpt>
      <trkpt lat="45.93947" lon="5.00342">
        <ele>286</ele>
        <time>2018-07-17T09:18:45Z</time>
      </trkpt>
      <trkpt lat="45.93941" lon="5.00342">
        <ele>286</ele>
        <time>2018-07-17T09:18:46Z</time>
      </trkpt>
      <trkpt lat="45.93937" lon="5.00339">
        <ele>286</ele>
        <time>2018-07-17T09:18:47Z</time>
      </trkpt>
      <trkpt lat="45.93933" lon="5.00337">
        <ele>286</ele>
        <time>2018-07-17T09:18:48Z</time>
      </trkpt>
      <trkpt lat="45.93928" lon="5.00335">
        <ele>286</ele>
        <time>2018-07-17T09:18:49Z</time>
      </trkpt>
      <trkpt lat="45.93924" lon="5.00334">
        <ele>286</ele>
        <time>2018-07-17T09:18:50Z</time>
      </trkpt>
      <trkpt lat="45.93916" lon="5.0033">
        <ele>286</ele>
        <time>2018-07-17T09:18:51Z</time>
      </trkpt>
      <trkpt lat="45.93912" lon="5.00329">
        <ele>286</ele>
        <time>2018-07-17T09:18:52Z</time>
      </trkpt>
      <trkpt lat="45.93907" lon="5.00327">
        <ele>287</ele>
        <time>2018-07-17T09:18:53Z</time>
      </trkpt>
      <trkpt lat="45.93902" lon="5.00325">
        <ele>287</ele>
        <time>2018-07-17T09:18:54Z</time>
      </trkpt>
      <trkpt lat="45.93897" lon="5.00323">
        <ele>287</ele>
        <time>2018-07-17T09:18:55Z</time>
      </trkpt>
      <trkpt lat="45.93893" lon="5.00322">
        <ele>287</ele>
        <time>2018-07-17T09:18:56Z</time>
      </trkpt>
      <trkpt lat="45.93888" lon="5.0032">
        <ele>288</ele>
        <time>2018-07-17T09:18:57Z</time>
      </trkpt>
      <trkpt lat="45.93883" lon="5.00318">
        <ele>288</ele>
        <time>2018-07-17T09:18:58Z</time>
      </trkpt>
      <trkpt lat="45.93879" lon="5.00317">
        <ele>288</ele>
        <time>2018-07-17T09:18:59Z</time>
      </trkpt>
      <trkpt lat="45.93874" lon="5.00315">
        <ele>288</ele>
        <time>2018-07-17T09:19:00Z</time>
      </trkpt>
      <trkpt lat="45.93869" lon="5.00313">
        <ele>288</ele>
        <time>2018-07-17T09:19:01Z</time>
      </trkpt>
      <trkpt lat="45.93863" lon="5.00311">
        <ele>288</ele>
        <time>2018-07-17T09:19:02Z</time>
      </trkpt>
      <trkpt lat="45.93855" lon="5.00308">
        <ele>288</ele>
        <time>2018-07-17T09:19:04Z</time>
      </trkpt>
      <trkpt lat="45.93851" lon="5.00307">
        <ele>288</ele>
        <time>2018-07-17T09:19:05Z</time>
      </trkpt>
      <trkpt lat="45.93847" lon="5.00307">
        <ele>288</ele>
        <time>2018-07-17T09:19:06Z</time>
      </trkpt>
      <trkpt lat="45.93841" lon="5.00305">
        <ele>288</ele>
        <time>2018-07-17T09:19:07Z</time>
      </trkpt>
      <trkpt lat="45.93836" lon="5.00302">
        <ele>289</ele>
        <time>2018-07-17T09:19:08Z</time>
      </trkpt>
      <trkpt lat="45.93832" lon="5.00301">
        <ele>289</ele>
        <time>2018-07-17T09:19:09Z</time>
      </trkpt>
      <trkpt lat="45.93825" lon="5.00302">
        <ele>289</ele>
        <time>2018-07-17T09:19:11Z</time>
      </trkpt>
      <trkpt lat="45.9382" lon="5.00301">
        <ele>289</ele>
        <time>2018-07-17T09:19:12Z</time>
      </trkpt>
      <trkpt lat="45.93814" lon="5.003">
        <ele>289</ele>
        <time>2018-07-17T09:19:13Z</time>
      </trkpt>
      <trkpt lat="45.93809" lon="5.00299">
        <ele>289</ele>
        <time>2018-07-17T09:19:14Z</time>
      </trkpt>
      <trkpt lat="45.93803" lon="5.00297">
        <ele>289</ele>
        <time>2018-07-17T09:19:15Z</time>
      </trkpt>
      <trkpt lat="45.93798" lon="5.00297">
        <ele>289</ele>
        <time>2018-07-17T09:19:16Z</time>
      </trkpt>
      <trkpt lat="45.93792" lon="5.00297">
        <ele>289</ele>
        <time>2018-07-17T09:19:17Z</time>
      </trkpt>
      <trkpt lat="45.93787" lon="5.00296">
        <ele>289</ele>
        <time>2018-07-17T09:19:18Z</time>
      </trkpt>
      <trkpt lat="45.93781" lon="5.00295">
        <ele>289</ele>
        <time>2018-07-17T09:19:19Z</time>
      </trkpt>
      <trkpt lat="45.93774" lon="5.00294">
        <ele>289</ele>
        <time>2018-07-17T09:19:20Z</time>
      </trkpt>
      <trkpt lat="45.93768" lon="5.00293">
        <ele>289</ele>
        <time>2018-07-17T09:19:21Z</time>
      </trkpt>
      <trkpt lat="45.93761" lon="5.00292">
        <ele>289</ele>
        <time>2018-07-17T09:19:22Z</time>
      </trkpt>
      <trkpt lat="45.93754" lon="5.0029">
        <ele>289</ele>
        <time>2018-07-17T09:19:23Z</time>
      </trkpt>
      <trkpt lat="45.93748" lon="5.00288">
        <ele>289</ele>
        <time>2018-07-17T09:19:24Z</time>
      </trkpt>
      <trkpt lat="45.93742" lon="5.00288">
        <ele>289</ele>
        <time>2018-07-17T09:19:25Z</time>
      </trkpt>
      <trkpt lat="45.93735" lon="5.00287">
        <ele>289</ele>
        <time>2018-07-17T09:19:26Z</time>
      </trkpt>
      <trkpt lat="45.93728" lon="5.00286">
        <ele>289</ele>
        <time>2018-07-17T09:19:27Z</time>
      </trkpt>
      <trkpt lat="45.93722" lon="5.00285">
        <ele>289</ele>
        <time>2018-07-17T09:19:28Z</time>
      </trkpt>
      <trkpt lat="45.93717" lon="5.00285">
        <ele>289</ele>
        <time>2018-07-17T09:19:29Z</time>
      </trkpt>
      <trkpt lat="45.93711" lon="5.00285">
        <ele>289</ele>
        <time>2018-07-17T09:19:30Z</time>
      </trkpt>
      <trkpt lat="45.93704" lon="5.00283">
        <ele>289</ele>
        <time>2018-07-17T09:19:31Z</time>
      </trkpt>
      <trkpt lat="45.93696" lon="5.00282">
        <ele>289</ele>
        <time>2018-07-17T09:19:32Z</time>
      </trkpt>
      <trkpt lat="45.9369" lon="5.00282">
        <ele>289</ele>
        <time>2018-07-17T09:19:33Z</time>
      </trkpt>
      <trkpt lat="45.93683" lon="5.0028">
        <ele>289</ele>
        <time>2018-07-17T09:19:34Z</time>
      </trkpt>
      <trkpt lat="45.93676" lon="5.0028">
        <ele>289</ele>
        <time>2018-07-17T09:19:35Z</time>
      </trkpt>
      <trkpt lat="45.9367" lon="5.00279">
        <ele>289</ele>
        <time>2018-07-17T09:19:36Z</time>
      </trkpt>
      <trkpt lat="45.93664" lon="5.0028">
        <ele>290</ele>
        <time>2018-07-17T09:19:37Z</time>
      </trkpt>
      <trkpt lat="45.93658" lon="5.0028">
        <ele>290</ele>
        <time>2018-07-17T09:19:38Z</time>
      </trkpt>
      <trkpt lat="45.93651" lon="5.0028">
        <ele>290</ele>
        <time>2018-07-17T09:19:39Z</time>
      </trkpt>
      <trkpt lat="45.93646" lon="5.0028">
        <ele>290</ele>
        <time>2018-07-17T09:19:40Z</time>
      </trkpt>
      <trkpt lat="45.93639" lon="5.00282">
        <ele>290</ele>
        <time>2018-07-17T09:19:41Z</time>
      </trkpt>
      <trkpt lat="45.93633" lon="5.00283">
        <ele>290</ele>
        <time>2018-07-17T09:19:42Z</time>
      </trkpt>
      <trkpt lat="45.93626" lon="5.00284">
        <ele>290</ele>
        <time>2018-07-17T09:19:43Z</time>
      </trkpt>
      <trkpt lat="45.93621" lon="5.00285">
        <ele>291</ele>
        <time>2018-07-17T09:19:44Z</time>
      </trkpt>
      <trkpt lat="45.93613" lon="5.00283">
        <ele>291</ele>
        <time>2018-07-17T09:19:45Z</time>
      </trkpt>
      <trkpt lat="45.93607" lon="5.00284">
        <ele>291</ele>
        <time>2018-07-17T09:19:46Z</time>
      </trkpt>
      <trkpt lat="45.936" lon="5.00282">
        <ele>291</ele>
        <time>2018-07-17T09:19:47Z</time>
      </trkpt>
      <trkpt lat="45.93592" lon="5.00283">
        <ele>291</ele>
        <time>2018-07-17T09:19:48Z</time>
      </trkpt>
      <trkpt lat="45.93585" lon="5.00287">
        <ele>291</ele>
        <time>2018-07-17T09:19:49Z</time>
      </trkpt>
      <trkpt lat="45.93579" lon="5.00292">
        <ele>292</ele>
        <time>2018-07-17T09:19:50Z</time>
      </trkpt>
      <trkpt lat="45.93576" lon="5.00294">
        <ele>292</ele>
        <time>2018-07-17T09:19:51Z</time>
      </trkpt>
      <trkpt lat="45.9357" lon="5.00298">
        <ele>292</ele>
        <time>2018-07-17T09:19:52Z</time>
      </trkpt>
      <trkpt lat="45.93564" lon="5.00299">
        <ele>292</ele>
        <time>2018-07-17T09:19:53Z</time>
      </trkpt>
      <trkpt lat="45.93557" lon="5.003">
        <ele>292</ele>
        <time>2018-07-17T09:19:54Z</time>
      </trkpt>
      <trkpt lat="45.93548" lon="5.003">
        <ele>292</ele>
        <time>2018-07-17T09:19:56Z</time>
      </trkpt>
      <trkpt lat="45.93542" lon="5.00306">
        <ele>292</ele>
        <time>2018-07-17T09:19:57Z</time>
      </trkpt>
      <trkpt lat="45.93536" lon="5.00307">
        <ele>292</ele>
        <time>2018-07-17T09:19:58Z</time>
      </trkpt>
      <trkpt lat="45.9353" lon="5.00309">
        <ele>292</ele>
        <time>2018-07-17T09:19:59Z</time>
      </trkpt>
      <trkpt lat="45.93525" lon="5.00311">
        <ele>292</ele>
        <time>2018-07-17T09:20:00Z</time>
      </trkpt>
      <trkpt lat="45.93521" lon="5.00314">
        <ele>292</ele>
        <time>2018-07-17T09:20:01Z</time>
      </trkpt>
      <trkpt lat="45.93516" lon="5.00317">
        <ele>292</ele>
        <time>2018-07-17T09:20:02Z</time>
      </trkpt>
      <trkpt lat="45.9351" lon="5.00321">
        <ele>292</ele>
        <time>2018-07-17T09:20:03Z</time>
      </trkpt>
      <trkpt lat="45.93502" lon="5.00325">
        <ele>293</ele>
        <time>2018-07-17T09:20:05Z</time>
      </trkpt>
      <trkpt lat="45.93497" lon="5.00325">
        <ele>293</ele>
        <time>2018-07-17T09:20:06Z</time>
      </trkpt>
      <trkpt lat="45.93492" lon="5.0033">
        <ele>293</ele>
        <time>2018-07-17T09:20:07Z</time>
      </trkpt>
      <trkpt lat="45.93487" lon="5.00332">
        <ele>293</ele>
        <time>2018-07-17T09:20:08Z</time>
      </trkpt>
      <trkpt lat="45.93479" lon="5.00336">
        <ele>294</ele>
        <time>2018-07-17T09:20:09Z</time>
      </trkpt>
      <trkpt lat="45.93474" lon="5.00337">
        <ele>295</ele>
        <time>2018-07-17T09:20:10Z</time>
      </trkpt>
      <trkpt lat="45.93468" lon="5.00342">
        <ele>295</ele>
        <time>2018-07-17T09:20:11Z</time>
      </trkpt>
      <trkpt lat="45.9346" lon="5.00345">
        <ele>295</ele>
        <time>2018-07-17T09:20:12Z</time>
      </trkpt>
      <trkpt lat="45.93456" lon="5.00349">
        <ele>295</ele>
        <time>2018-07-17T09:20:16Z</time>
      </trkpt>
      <trkpt lat="45.93454" lon="5.00357">
        <ele>295</ele>
        <time>2018-07-17T09:20:17Z</time>
      </trkpt>
      <trkpt lat="45.93449" lon="5.00358">
        <ele>295</ele>
        <time>2018-07-17T09:20:18Z</time>
      </trkpt>
      <trkpt lat="45.93444" lon="5.0036">
        <ele>296</ele>
        <time>2018-07-17T09:20:19Z</time>
      </trkpt>
      <trkpt lat="45.93437" lon="5.00363">
        <ele>296</ele>
        <time>2018-07-17T09:20:20Z</time>
      </trkpt>
      <trkpt lat="45.93428" lon="5.00363">
        <ele>296</ele>
        <time>2018-07-17T09:20:21Z</time>
      </trkpt>
      <trkpt lat="45.93419" lon="5.00367">
        <ele>296</ele>
        <time>2018-07-17T09:20:22Z</time>
      </trkpt>
      <trkpt lat="45.93414" lon="5.00371">
        <ele>297</ele>
        <time>2018-07-17T09:20:23Z</time>
      </trkpt>
      <trkpt lat="45.93407" lon="5.00373">
        <ele>297</ele>
        <time>2018-07-17T09:20:24Z</time>
      </trkpt>
      <trkpt lat="45.934" lon="5.00381">
        <ele>297</ele>
        <time>2018-07-17T09:20:25Z</time>
      </trkpt>
      <trkpt lat="45.93394" lon="5.00383">
        <ele>297</ele>
        <time>2018-07-17T09:20:26Z</time>
      </trkpt>
      <trkpt lat="45.93389" lon="5.00392">
        <ele>297</ele>
        <time>2018-07-17T09:20:27Z</time>
      </trkpt>
      <trkpt lat="45.93384" lon="5.004">
        <ele>297</ele>
        <time>2018-07-17T09:20:28Z</time>
      </trkpt>
      <trkpt lat="45.93379" lon="5.00405">
        <ele>297</ele>
        <time>2018-07-17T09:20:29Z</time>
      </trkpt>
      <trkpt lat="45.93374" lon="5.00413">
        <ele>297</ele>
        <time>2018-07-17T09:20:30Z</time>
      </trkpt>
      <trkpt lat="45.93365" lon="5.00421">
        <ele>297</ele>
        <time>2018-07-17T09:20:31Z</time>
      </trkpt>
      <trkpt lat="45.93357" lon="5.00426">
        <ele>297</ele>
        <time>2018-07-17T09:20:32Z</time>
      </trkpt>
      <trkpt lat="45.93354" lon="5.00429">
        <ele>297</ele>
        <time>2018-07-17T09:20:33Z</time>
      </trkpt>
      <trkpt lat="45.93349" lon="5.00435">
        <ele>297</ele>
        <time>2018-07-17T09:20:34Z</time>
      </trkpt>
      <trkpt lat="45.93345" lon="5.00441">
        <ele>297</ele>
        <time>2018-07-17T09:20:35Z</time>
      </trkpt>
      <trkpt lat="45.93339" lon="5.00447">
        <ele>297</ele>
        <time>2018-07-17T09:20:36Z</time>
      </trkpt>
      <trkpt lat="45.93336" lon="5.00453">
        <ele>297</ele>
        <time>2018-07-17T09:20:37Z</time>
      </trkpt>
      <trkpt lat="45.93333" lon="5.00459">
        <ele>295</ele>
        <time>2018-07-17T09:20:38Z</time>
      </trkpt>
      <trkpt lat="45.93327" lon="5.00466">
        <ele>295</ele>
        <time>2018-07-17T09:20:39Z</time>
      </trkpt>
      <trkpt lat="45.93321" lon="5.00473">
        <ele>295</ele>
        <time>2018-07-17T09:20:40Z</time>
      </trkpt>
      <trkpt lat="45.93316" lon="5.00476">
        <ele>295</ele>
        <time>2018-07-17T09:20:41Z</time>
      </trkpt>
      <trkpt lat="45.93311" lon="5.00479">
        <ele>295</ele>
        <time>2018-07-17T09:20:42Z</time>
      </trkpt>
      <trkpt lat="45.93308" lon="5.00483">
        <ele>295</ele>
        <time>2018-07-17T09:20:43Z</time>
      </trkpt>
      <trkpt lat="45.93307" lon="5.00493">
        <ele>295</ele>
        <time>2018-07-17T09:20:44Z</time>
      </trkpt>
      <trkpt lat="45.93303" lon="5.00499">
        <ele>295</ele>
        <time>2018-07-17T09:20:45Z</time>
      </trkpt>
      <trkpt lat="45.93299" lon="5.00503">
        <ele>296</ele>
        <time>2018-07-17T09:20:46Z</time>
      </trkpt>
      <trkpt lat="45.93294" lon="5.00511">
        <ele>296</ele>
        <time>2018-07-17T09:20:47Z</time>
      </trkpt>
      <trkpt lat="45.93292" lon="5.00521">
        <ele>296</ele>
        <time>2018-07-17T09:20:48Z</time>
      </trkpt>
      <trkpt lat="45.93288" lon="5.0053">
        <ele>296</ele>
        <time>2018-07-17T09:20:49Z</time>
      </trkpt>
      <trkpt lat="45.93287" lon="5.00537">
        <ele>296</ele>
        <time>2018-07-17T09:20:50Z</time>
      </trkpt>
      <trkpt lat="45.93284" lon="5.00545">
        <ele>296</ele>
        <time>2018-07-17T09:20:51Z</time>
      </trkpt>
      <trkpt lat="45.93279" lon="5.00548">
        <ele>295</ele>
        <time>2018-07-17T09:20:52Z</time>
      </trkpt>
      <trkpt lat="45.93273" lon="5.0055">
        <ele>295</ele>
        <time>2018-07-17T09:20:53Z</time>
      </trkpt>
      <trkpt lat="45.93266" lon="5.00558">
        <ele>295</ele>
        <time>2018-07-17T09:20:54Z</time>
      </trkpt>
      <trkpt lat="45.93265" lon="5.00558">
        <ele>295</ele>
        <time>2018-07-17T09:20:55Z</time>
      </trkpt>
      <trkpt lat="45.93263" lon="5.00564">
        <ele>295</ele>
        <time>2018-07-17T09:20:56Z</time>
      </trkpt>
      <trkpt lat="45.93257" lon="5.0057">
        <ele>295</ele>
        <time>2018-07-17T09:20:57Z</time>
      </trkpt>
      <trkpt lat="45.93251" lon="5.00575">
        <ele>294</ele>
        <time>2018-07-17T09:20:58Z</time>
      </trkpt>
      <trkpt lat="45.93246" lon="5.00579">
        <ele>293</ele>
        <time>2018-07-17T09:20:59Z</time>
      </trkpt>
      <trkpt lat="45.93242" lon="5.00584">
        <ele>293</ele>
        <time>2018-07-17T09:21:00Z</time>
      </trkpt>
      <trkpt lat="45.93236" lon="5.00592">
        <ele>293</ele>
        <time>2018-07-17T09:21:01Z</time>
      </trkpt>
      <trkpt lat="45.9323" lon="5.00599">
        <ele>292</ele>
        <time>2018-07-17T09:21:02Z</time>
      </trkpt>
      <trkpt lat="45.93228" lon="5.00607">
        <ele>292</ele>
        <time>2018-07-17T09:21:03Z</time>
      </trkpt>
      <trkpt lat="45.93222" lon="5.00612">
        <ele>292</ele>
        <time>2018-07-17T09:21:04Z</time>
      </trkpt>
      <trkpt lat="45.93217" lon="5.00616">
        <ele>292</ele>
        <time>2018-07-17T09:21:05Z</time>
      </trkpt>
      <trkpt lat="45.93212" lon="5.0062">
        <ele>291</ele>
        <time>2018-07-17T09:21:06Z</time>
      </trkpt>
      <trkpt lat="45.93207" lon="5.00623">
        <ele>291</ele>
        <time>2018-07-17T09:21:07Z</time>
      </trkpt>
      <trkpt lat="45.93201" lon="5.00624">
        <ele>291</ele>
        <time>2018-07-17T09:21:08Z</time>
      </trkpt>
      <trkpt lat="45.93194" lon="5.00622">
        <ele>291</ele>
        <time>2018-07-17T09:21:09Z</time>
      </trkpt>
      <trkpt lat="45.93186" lon="5.00624">
        <ele>290</ele>
        <time>2018-07-17T09:21:10Z</time>
      </trkpt>
      <trkpt lat="45.93177" lon="5.00623">
        <ele>290</ele>
        <time>2018-07-17T09:21:11Z</time>
      </trkpt>
      <trkpt lat="45.93173" lon="5.00623">
        <ele>290</ele>
        <time>2018-07-17T09:21:12Z</time>
      </trkpt>
      <trkpt lat="45.93168" lon="5.00625">
        <ele>290</ele>
        <time>2018-07-17T09:21:13Z</time>
      </trkpt>
      <trkpt lat="45.93161" lon="5.00625">
        <ele>287</ele>
        <time>2018-07-17T09:21:14Z</time>
      </trkpt>
      <trkpt lat="45.93152" lon="5.00625">
        <ele>287</ele>
        <time>2018-07-17T09:21:15Z</time>
      </trkpt>
      <trkpt lat="45.93146" lon="5.00633">
        <ele>287</ele>
        <time>2018-07-17T09:21:17Z</time>
      </trkpt>
      <trkpt lat="45.93139" lon="5.00635">
        <ele>287</ele>
        <time>2018-07-17T09:21:18Z</time>
      </trkpt>
      <trkpt lat="45.93131" lon="5.00635">
        <ele>287</ele>
        <time>2018-07-17T09:21:19Z</time>
      </trkpt>
      <trkpt lat="45.93122" lon="5.00638">
        <ele>287</ele>
        <time>2018-07-17T09:21:20Z</time>
      </trkpt>
      <trkpt lat="45.93118" lon="5.00638">
        <ele>286</ele>
        <time>2018-07-17T09:21:21Z</time>
      </trkpt>
      <trkpt lat="45.93112" lon="5.00638">
        <ele>286</ele>
        <time>2018-07-17T09:21:22Z</time>
      </trkpt>
      <trkpt lat="45.93106" lon="5.00639">
        <ele>286</ele>
        <time>2018-07-17T09:21:23Z</time>
      </trkpt>
      <trkpt lat="45.931" lon="5.00638">
        <ele>286</ele>
        <time>2018-07-17T09:21:24Z</time>
      </trkpt>
      <trkpt lat="45.93095" lon="5.00639">
        <ele>286</ele>
        <time>2018-07-17T09:21:25Z</time>
      </trkpt>
      <trkpt lat="45.9309" lon="5.00638">
        <ele>286</ele>
        <time>2018-07-17T09:21:26Z</time>
      </trkpt>
      <trkpt lat="45.93086" lon="5.00639">
        <ele>286</ele>
        <time>2018-07-17T09:21:27Z</time>
      </trkpt>
      <trkpt lat="45.93081" lon="5.00639">
        <ele>286</ele>
        <time>2018-07-17T09:21:28Z</time>
      </trkpt>
      <trkpt lat="45.93073" lon="5.00641">
        <ele>286</ele>
        <time>2018-07-17T09:21:29Z</time>
      </trkpt>
      <trkpt lat="45.93067" lon="5.00641">
        <ele>286</ele>
        <time>2018-07-17T09:21:30Z</time>
      </trkpt>
      <trkpt lat="45.93061" lon="5.00643">
        <ele>286</ele>
        <time>2018-07-17T09:21:31Z</time>
      </trkpt>
      <trkpt lat="45.93056" lon="5.00642">
        <ele>286</ele>
        <time>2018-07-17T09:21:32Z</time>
      </trkpt>
      <trkpt lat="45.9305" lon="5.00643">
        <ele>286</ele>
        <time>2018-07-17T09:21:33Z</time>
      </trkpt>
      <trkpt lat="45.93046" lon="5.00643">
        <ele>286</ele>
        <time>2018-07-17T09:21:34Z</time>
      </trkpt>
      <trkpt lat="45.93038" lon="5.00644">
        <ele>286</ele>
        <time>2018-07-17T09:21:36Z</time>
      </trkpt>
      <trkpt lat="45.93034" lon="5.00643">
        <ele>286</ele>
        <time>2018-07-17T09:21:37Z</time>
      </trkpt>
      <trkpt lat="45.93029" lon="5.00646">
        <ele>286</ele>
        <time>2018-07-17T09:21:38Z</time>
      </trkpt>
      <trkpt lat="45.93023" lon="5.00648">
        <ele>286</ele>
        <time>2018-07-17T09:21:39Z</time>
      </trkpt>
      <trkpt lat="45.93015" lon="5.00653">
        <ele>286</ele>
        <time>2018-07-17T09:21:41Z</time>
      </trkpt>
      <trkpt lat="45.93009" lon="5.00656">
        <ele>286</ele>
        <time>2018-07-17T09:21:42Z</time>
      </trkpt>
      <trkpt lat="45.93004" lon="5.00659">
        <ele>287</ele>
        <time>2018-07-17T09:21:43Z</time>
      </trkpt>
      <trkpt lat="45.92999" lon="5.00661">
        <ele>287</ele>
        <time>2018-07-17T09:21:44Z</time>
      </trkpt>
      <trkpt lat="45.92993" lon="5.00666">
        <ele>287</ele>
        <time>2018-07-17T09:21:45Z</time>
      </trkpt>
      <trkpt lat="45.92988" lon="5.00668">
        <ele>287</ele>
        <time>2018-07-17T09:21:46Z</time>
      </trkpt>
      <trkpt lat="45.92983" lon="5.00672">
        <ele>287</ele>
        <time>2018-07-17T09:21:47Z</time>
      </trkpt>
      <trkpt lat="45.92977" lon="5.00675">
        <ele>287</ele>
        <time>2018-07-17T09:21:48Z</time>
      </trkpt>
      <trkpt lat="45.92974" lon="5.00677">
        <ele>287</ele>
        <time>2018-07-17T09:21:49Z</time>
      </trkpt>
      <trkpt lat="45.92966" lon="5.00681">
        <ele>287</ele>
        <time>2018-07-17T09:21:50Z</time>
      </trkpt>
      <trkpt lat="45.92961" lon="5.00683">
        <ele>287</ele>
        <time>2018-07-17T09:21:51Z</time>
      </trkpt>
      <trkpt lat="45.92954" lon="5.00687">
        <ele>287</ele>
        <time>2018-07-17T09:21:52Z</time>
      </trkpt>
      <trkpt lat="45.92947" lon="5.00691">
        <ele>287</ele>
        <time>2018-07-17T09:21:53Z</time>
      </trkpt>
      <trkpt lat="45.92941" lon="5.00693">
        <ele>287</ele>
        <time>2018-07-17T09:21:54Z</time>
      </trkpt>
      <trkpt lat="45.92936" lon="5.00696">
        <ele>287</ele>
        <time>2018-07-17T09:21:55Z</time>
      </trkpt>
      <trkpt lat="45.92932" lon="5.007">
        <ele>287</ele>
        <time>2018-07-17T09:21:56Z</time>
      </trkpt>
      <trkpt lat="45.92926" lon="5.00704">
        <ele>287</ele>
        <time>2018-07-17T09:21:57Z</time>
      </trkpt>
      <trkpt lat="45.92921" lon="5.00707">
        <ele>287</ele>
        <time>2018-07-17T09:21:58Z</time>
      </trkpt>
      <trkpt lat="45.92914" lon="5.0071">
        <ele>288</ele>
        <time>2018-07-17T09:22:00Z</time>
      </trkpt>
      <trkpt lat="45.92909" lon="5.00712">
        <ele>288</ele>
        <time>2018-07-17T09:22:01Z</time>
      </trkpt>
      <trkpt lat="45.92903" lon="5.00716">
        <ele>288</ele>
        <time>2018-07-17T09:22:02Z</time>
      </trkpt>
      <trkpt lat="45.92899" lon="5.0072">
        <ele>288</ele>
        <time>2018-07-17T09:22:03Z</time>
      </trkpt>
      <trkpt lat="45.92896" lon="5.00721">
        <ele>288</ele>
        <time>2018-07-17T09:22:04Z</time>
      </trkpt>
      <trkpt lat="45.9289" lon="5.00723">
        <ele>288</ele>
        <time>2018-07-17T09:22:05Z</time>
      </trkpt>
      <trkpt lat="45.92887" lon="5.00726">
        <ele>288</ele>
        <time>2018-07-17T09:22:06Z</time>
      </trkpt>
      <trkpt lat="45.9288" lon="5.00731">
        <ele>288</ele>
        <time>2018-07-17T09:22:07Z</time>
      </trkpt>
      <trkpt lat="45.92876" lon="5.00735">
        <ele>288</ele>
        <time>2018-07-17T09:22:08Z</time>
      </trkpt>
      <trkpt lat="45.92872" lon="5.00739">
        <ele>287</ele>
        <time>2018-07-17T09:22:09Z</time>
      </trkpt>
      <trkpt lat="45.92868" lon="5.00743">
        <ele>287</ele>
        <time>2018-07-17T09:22:10Z</time>
      </trkpt>
      <trkpt lat="45.92862" lon="5.00751">
        <ele>287</ele>
        <time>2018-07-17T09:22:11Z</time>
      </trkpt>
      <trkpt lat="45.92857" lon="5.00755">
        <ele>287</ele>
        <time>2018-07-17T09:22:12Z</time>
      </trkpt>
      <trkpt lat="45.92851" lon="5.00758">
        <ele>287</ele>
        <time>2018-07-17T09:22:13Z</time>
      </trkpt>
      <trkpt lat="45.92847" lon="5.00763">
        <ele>287</ele>
        <time>2018-07-17T09:22:14Z</time>
      </trkpt>
      <trkpt lat="45.92843" lon="5.00769">
        <ele>287</ele>
        <time>2018-07-17T09:22:15Z</time>
      </trkpt>
      <trkpt lat="45.92839" lon="5.00778">
        <ele>287</ele>
        <time>2018-07-17T09:22:16Z</time>
      </trkpt>
      <trkpt lat="45.92835" lon="5.00786">
        <ele>287</ele>
        <time>2018-07-17T09:22:17Z</time>
      </trkpt>
      <trkpt lat="45.92831" lon="5.00795">
        <ele>287</ele>
        <time>2018-07-17T09:22:18Z</time>
      </trkpt>
      <trkpt lat="45.92827" lon="5.00803">
        <ele>287</ele>
        <time>2018-07-17T09:22:19Z</time>
      </trkpt>
      <trkpt lat="45.92824" lon="5.00811">
        <ele>287</ele>
        <time>2018-07-17T09:22:20Z</time>
      </trkpt>
      <trkpt lat="45.92819" lon="5.00817">
        <ele>287</ele>
        <time>2018-07-17T09:22:21Z</time>
      </trkpt>
      <trkpt lat="45.92816" lon="5.00824">
        <ele>287</ele>
        <time>2018-07-17T09:22:22Z</time>
      </trkpt>
      <trkpt lat="45.92812" lon="5.00832">
        <ele>287</ele>
        <time>2018-07-17T09:22:23Z</time>
      </trkpt>
      <trkpt lat="45.92808" lon="5.00839">
        <ele>287</ele>
        <time>2018-07-17T09:22:24Z</time>
      </trkpt>
      <trkpt lat="45.92804" lon="5.00846">
        <ele>287</ele>
        <time>2018-07-17T09:22:25Z</time>
      </trkpt>
      <trkpt lat="45.928" lon="5.00853">
        <ele>287</ele>
        <time>2018-07-17T09:22:26Z</time>
      </trkpt>
      <trkpt lat="45.92796" lon="5.0086">
        <ele>287</ele>
        <time>2018-07-17T09:22:27Z</time>
      </trkpt>
      <trkpt lat="45.92792" lon="5.00866">
        <ele>287</ele>
        <time>2018-07-17T09:22:28Z</time>
      </trkpt>
      <trkpt lat="45.92788" lon="5.00872">
        <ele>287</ele>
        <time>2018-07-17T09:22:29Z</time>
      </trkpt>
      <trkpt lat="45.92783" lon="5.00878">
        <ele>287</ele>
        <time>2018-07-17T09:22:30Z</time>
      </trkpt>
      <trkpt lat="45.92779" lon="5.00884">
        <ele>287</ele>
        <time>2018-07-17T09:22:31Z</time>
      </trkpt>
      <trkpt lat="45.92774" lon="5.00888">
        <ele>287</ele>
        <time>2018-07-17T09:22:32Z</time>
      </trkpt>
      <trkpt lat="45.9277" lon="5.00893">
        <ele>287</ele>
        <time>2018-07-17T09:22:33Z</time>
      </trkpt>
      <trkpt lat="45.92765" lon="5.00899">
        <ele>287</ele>
        <time>2018-07-17T09:22:34Z</time>
      </trkpt>
      <trkpt lat="45.9276" lon="5.00903">
        <ele>287</ele>
        <time>2018-07-17T09:22:35Z</time>
      </trkpt>
      <trkpt lat="45.92755" lon="5.00909">
        <ele>287</ele>
        <time>2018-07-17T09:22:36Z</time>
      </trkpt>
      <trkpt lat="45.9275" lon="5.00914">
        <ele>287</ele>
        <time>2018-07-17T09:22:37Z</time>
      </trkpt>
      <trkpt lat="45.92747" lon="5.00923">
        <ele>287</ele>
        <time>2018-07-17T09:22:38Z</time>
      </trkpt>
      <trkpt lat="45.92742" lon="5.00927">
        <ele>287</ele>
        <time>2018-07-17T09:22:39Z</time>
      </trkpt>
      <trkpt lat="45.92738" lon="5.00932">
        <ele>287</ele>
        <time>2018-07-17T09:22:40Z</time>
      </trkpt>
      <trkpt lat="45.92733" lon="5.00936">
        <ele>287</ele>
        <time>2018-07-17T09:22:41Z</time>
      </trkpt>
      <trkpt lat="45.92729" lon="5.00944">
        <ele>287</ele>
        <time>2018-07-17T09:22:42Z</time>
      </trkpt>
      <trkpt lat="45.92725" lon="5.00949">
        <ele>287</ele>
        <time>2018-07-17T09:22:43Z</time>
      </trkpt>
      <trkpt lat="45.92718" lon="5.00956">
        <ele>287</ele>
        <time>2018-07-17T09:22:44Z</time>
      </trkpt>
      <trkpt lat="45.92712" lon="5.00956">
        <ele>287</ele>
        <time>2018-07-17T09:22:45Z</time>
      </trkpt>
      <trkpt lat="45.92709" lon="5.00963">
        <ele>287</ele>
        <time>2018-07-17T09:22:46Z</time>
      </trkpt>
      <trkpt lat="45.92705" lon="5.00968">
        <ele>287</ele>
        <time>2018-07-17T09:22:47Z</time>
      </trkpt>
      <trkpt lat="45.92701" lon="5.00975">
        <ele>287</ele>
        <time>2018-07-17T09:22:48Z</time>
      </trkpt>
      <trkpt lat="45.92699" lon="5.00981">
        <ele>287</ele>
        <time>2018-07-17T09:22:49Z</time>
      </trkpt>
      <trkpt lat="45.92694" lon="5.00986">
        <ele>287</ele>
        <time>2018-07-17T09:22:50Z</time>
      </trkpt>
      <trkpt lat="45.9269" lon="5.00992">
        <ele>288</ele>
        <time>2018-07-17T09:22:51Z</time>
      </trkpt>
      <trkpt lat="45.92685" lon="5.00995">
        <ele>288</ele>
        <time>2018-07-17T09:22:52Z</time>
      </trkpt>
      <trkpt lat="45.92681" lon="5.01001">
        <ele>288</ele>
        <time>2018-07-17T09:22:53Z</time>
      </trkpt>
      <trkpt lat="45.92673" lon="5.01005">
        <ele>289</ele>
        <time>2018-07-17T09:22:55Z</time>
      </trkpt>
      <trkpt lat="45.92668" lon="5.01008">
        <ele>289</ele>
        <time>2018-07-17T09:22:56Z</time>
      </trkpt>
      <trkpt lat="45.9266" lon="5.01007">
        <ele>289</ele>
        <time>2018-07-17T09:22:57Z</time>
      </trkpt>
      <trkpt lat="45.92656" lon="5.01013">
        <ele>289</ele>
        <time>2018-07-17T09:22:58Z</time>
      </trkpt>
      <trkpt lat="45.92652" lon="5.01019">
        <ele>289</ele>
        <time>2018-07-17T09:22:59Z</time>
      </trkpt>
      <trkpt lat="45.92646" lon="5.01022">
        <ele>289</ele>
        <time>2018-07-17T09:23:00Z</time>
      </trkpt>
      <trkpt lat="45.92638" lon="5.01021">
        <ele>289</ele>
        <time>2018-07-17T09:23:02Z</time>
      </trkpt>
      <trkpt lat="45.92631" lon="5.01023">
        <ele>288</ele>
        <time>2018-07-17T09:23:03Z</time>
      </trkpt>
      <trkpt lat="45.92624" lon="5.01024">
        <ele>288</ele>
        <time>2018-07-17T09:23:05Z</time>
      </trkpt>
      <trkpt lat="45.92618" lon="5.01025">
        <ele>288</ele>
        <time>2018-07-17T09:23:06Z</time>
      </trkpt>
      <trkpt lat="45.92611" lon="5.01028">
        <ele>288</ele>
        <time>2018-07-17T09:23:07Z</time>
      </trkpt>
      <trkpt lat="45.92607" lon="5.01031">
        <ele>288</ele>
        <time>2018-07-17T09:23:08Z</time>
      </trkpt>
      <trkpt lat="45.92598" lon="5.0103">
        <ele>288</ele>
        <time>2018-07-17T09:23:10Z</time>
      </trkpt>
      <trkpt lat="45.92594" lon="5.01032">
        <ele>288</ele>
        <time>2018-07-17T09:23:11Z</time>
      </trkpt>
      <trkpt lat="45.92587" lon="5.01036">
        <ele>288</ele>
        <time>2018-07-17T09:23:12Z</time>
      </trkpt>
      <trkpt lat="45.92582" lon="5.0104">
        <ele>288</ele>
        <time>2018-07-17T09:23:13Z</time>
      </trkpt>
      <trkpt lat="45.92576" lon="5.01044">
        <ele>288</ele>
        <time>2018-07-17T09:23:14Z</time>
      </trkpt>
      <trkpt lat="45.92571" lon="5.01045">
        <ele>288</ele>
        <time>2018-07-17T09:23:15Z</time>
      </trkpt>
      <trkpt lat="45.92564" lon="5.01049">
        <ele>288</ele>
        <time>2018-07-17T09:23:17Z</time>
      </trkpt>
      <trkpt lat="45.92558" lon="5.01049">
        <ele>288</ele>
        <time>2018-07-17T09:23:18Z</time>
      </trkpt>
      <trkpt lat="45.9255" lon="5.01053">
        <ele>288</ele>
        <time>2018-07-17T09:23:20Z</time>
      </trkpt>
      <trkpt lat="45.92545" lon="5.01055">
        <ele>288</ele>
        <time>2018-07-17T09:23:21Z</time>
      </trkpt>
      <trkpt lat="45.9254" lon="5.01057">
        <ele>288</ele>
        <time>2018-07-17T09:23:22Z</time>
      </trkpt>
      <trkpt lat="45.92536" lon="5.01057">
        <ele>288</ele>
        <time>2018-07-17T09:23:23Z</time>
      </trkpt>
      <trkpt lat="45.92527" lon="5.01059">
        <ele>288</ele>
        <time>2018-07-17T09:23:25Z</time>
      </trkpt>
      <trkpt lat="45.92522" lon="5.0106">
        <ele>288</ele>
        <time>2018-07-17T09:23:26Z</time>
      </trkpt>
      <trkpt lat="45.92517" lon="5.0106">
        <ele>288</ele>
        <time>2018-07-17T09:23:27Z</time>
      </trkpt>
      <trkpt lat="45.92512" lon="5.0106">
        <ele>288</ele>
        <time>2018-07-17T09:23:28Z</time>
      </trkpt>
      <trkpt lat="45.92506" lon="5.0106">
        <ele>288</ele>
        <time>2018-07-17T09:23:29Z</time>
      </trkpt>
      <trkpt lat="45.92501" lon="5.0106">
        <ele>288</ele>
        <time>2018-07-17T09:23:30Z</time>
      </trkpt>
      <trkpt lat="45.92496" lon="5.0106">
        <ele>288</ele>
        <time>2018-07-17T09:23:31Z</time>
      </trkpt>
      <trkpt lat="45.92491" lon="5.0106">
        <ele>288</ele>
        <time>2018-07-17T09:23:32Z</time>
      </trkpt>
      <trkpt lat="45.92486" lon="5.0106">
        <ele>288</ele>
        <time>2018-07-17T09:23:33Z</time>
      </trkpt>
      <trkpt lat="45.92482" lon="5.01062">
        <ele>288</ele>
        <time>2018-07-17T09:23:34Z</time>
      </trkpt>
      <trkpt lat="45.92477" lon="5.01061">
        <ele>288</ele>
        <time>2018-07-17T09:23:35Z</time>
      </trkpt>
      <trkpt lat="45.92472" lon="5.01062">
        <ele>288</ele>
        <time>2018-07-17T09:23:36Z</time>
      </trkpt>
      <trkpt lat="45.92465" lon="5.01064">
        <ele>288</ele>
        <time>2018-07-17T09:23:38Z</time>
      </trkpt>
      <trkpt lat="45.9246" lon="5.01064">
        <ele>288</ele>
        <time>2018-07-17T09:23:39Z</time>
      </trkpt>
      <trkpt lat="45.92451" lon="5.01066">
        <ele>288</ele>
        <time>2018-07-17T09:23:40Z</time>
      </trkpt>
      <trkpt lat="45.92448" lon="5.01069">
        <ele>288</ele>
        <time>2018-07-17T09:23:41Z</time>
      </trkpt>
      <trkpt lat="45.92442" lon="5.01071">
        <ele>288</ele>
        <time>2018-07-17T09:23:42Z</time>
      </trkpt>
      <trkpt lat="45.92437" lon="5.01071">
        <ele>289</ele>
        <time>2018-07-17T09:23:43Z</time>
      </trkpt>
      <trkpt lat="45.92431" lon="5.01072">
        <ele>289</ele>
        <time>2018-07-17T09:23:44Z</time>
      </trkpt>
      <trkpt lat="45.92427" lon="5.01073">
        <ele>289</ele>
        <time>2018-07-17T09:23:45Z</time>
      </trkpt>
      <trkpt lat="45.92421" lon="5.01076">
        <ele>289</ele>
        <time>2018-07-17T09:23:46Z</time>
      </trkpt>
      <trkpt lat="45.92416" lon="5.01078">
        <ele>289</ele>
        <time>2018-07-17T09:23:47Z</time>
      </trkpt>
      <trkpt lat="45.92411" lon="5.0108">
        <ele>289</ele>
        <time>2018-07-17T09:23:48Z</time>
      </trkpt>
      <trkpt lat="45.92406" lon="5.01084">
        <ele>289</ele>
        <time>2018-07-17T09:23:49Z</time>
      </trkpt>
      <trkpt lat="45.92402" lon="5.01087">
        <ele>288</ele>
        <time>2018-07-17T09:23:50Z</time>
      </trkpt>
      <trkpt lat="45.92397" lon="5.01091">
        <ele>288</ele>
        <time>2018-07-17T09:23:51Z</time>
      </trkpt>
      <trkpt lat="45.92393" lon="5.01095">
        <ele>288</ele>
        <time>2018-07-17T09:23:52Z</time>
      </trkpt>
      <trkpt lat="45.92389" lon="5.01099">
        <ele>288</ele>
        <time>2018-07-17T09:23:53Z</time>
      </trkpt>
      <trkpt lat="45.92381" lon="5.01104">
        <ele>288</ele>
        <time>2018-07-17T09:24:09Z</time>
      </trkpt>
      <trkpt lat="45.92379" lon="5.01105">
        <ele>288</ele>
        <time>2018-07-17T09:24:10Z</time>
      </trkpt>
      <trkpt lat="45.92373" lon="5.01112">
        <ele>288</ele>
        <time>2018-07-17T09:24:13Z</time>
      </trkpt>
      <trkpt lat="45.92365" lon="5.01117">
        <ele>288</ele>
        <time>2018-07-17T09:24:14Z</time>
      </trkpt>
      <trkpt lat="45.92359" lon="5.01118">
        <ele>288</ele>
        <time>2018-07-17T09:24:15Z</time>
      </trkpt>
      <trkpt lat="45.92354" lon="5.01121">
        <ele>288</ele>
        <time>2018-07-17T09:24:16Z</time>
      </trkpt>
      <trkpt lat="45.92348" lon="5.01122">
        <ele>287</ele>
        <time>2018-07-17T09:24:17Z</time>
      </trkpt>
      <trkpt lat="45.92342" lon="5.01124">
        <ele>287</ele>
        <time>2018-07-17T09:24:18Z</time>
      </trkpt>
      <trkpt lat="45.92336" lon="5.01125">
        <ele>287</ele>
        <time>2018-07-17T09:24:19Z</time>
      </trkpt>
      <trkpt lat="45.92329" lon="5.01129">
        <ele>286</ele>
        <time>2018-07-17T09:24:20Z</time>
      </trkpt>
      <trkpt lat="45.92322" lon="5.01133">
        <ele>286</ele>
        <time>2018-07-17T09:24:21Z</time>
      </trkpt>
      <trkpt lat="45.92315" lon="5.01136">
        <ele>286</ele>
        <time>2018-07-17T09:24:22Z</time>
      </trkpt>
      <trkpt lat="45.92308" lon="5.01139">
        <ele>286</ele>
        <time>2018-07-17T09:24:23Z</time>
      </trkpt>
      <trkpt lat="45.92302" lon="5.01142">
        <ele>286</ele>
        <time>2018-07-17T09:24:24Z</time>
      </trkpt>
      <trkpt lat="45.92294" lon="5.01145">
        <ele>286</ele>
        <time>2018-07-17T09:24:25Z</time>
      </trkpt>
      <trkpt lat="45.92286" lon="5.01148">
        <ele>286</ele>
        <time>2018-07-17T09:24:26Z</time>
      </trkpt>
      <trkpt lat="45.92279" lon="5.0115">
        <ele>286</ele>
        <time>2018-07-17T09:24:27Z</time>
      </trkpt>
      <trkpt lat="45.92272" lon="5.01153">
        <ele>286</ele>
        <time>2018-07-17T09:24:28Z</time>
      </trkpt>
      <trkpt lat="45.92265" lon="5.01154">
        <ele>286</ele>
        <time>2018-07-17T09:24:29Z</time>
      </trkpt>
      <trkpt lat="45.92257" lon="5.01156">
        <ele>285</ele>
        <time>2018-07-17T09:24:30Z</time>
      </trkpt>
      <trkpt lat="45.9225" lon="5.01158">
        <ele>285</ele>
        <time>2018-07-17T09:24:31Z</time>
      </trkpt>
      <trkpt lat="45.92242" lon="5.01159">
        <ele>284</ele>
        <time>2018-07-17T09:24:32Z</time>
      </trkpt>
      <trkpt lat="45.92234" lon="5.01159">
        <ele>284</ele>
        <time>2018-07-17T09:24:33Z</time>
      </trkpt>
      <trkpt lat="45.92227" lon="5.01158">
        <ele>284</ele>
        <time>2018-07-17T09:24:34Z</time>
      </trkpt>
      <trkpt lat="45.92219" lon="5.01159">
        <ele>284</ele>
        <time>2018-07-17T09:24:35Z</time>
      </trkpt>
      <trkpt lat="45.92211" lon="5.0116">
        <ele>284</ele>
        <time>2018-07-17T09:24:36Z</time>
      </trkpt>
      <trkpt lat="45.92204" lon="5.01162">
        <ele>283</ele>
        <time>2018-07-17T09:24:37Z</time>
      </trkpt>
      <trkpt lat="45.92197" lon="5.01162">
        <ele>283</ele>
        <time>2018-07-17T09:24:38Z</time>
      </trkpt>
      <trkpt lat="45.92191" lon="5.01165">
        <ele>283</ele>
        <time>2018-07-17T09:24:39Z</time>
      </trkpt>
      <trkpt lat="45.92185" lon="5.01164">
        <ele>283</ele>
        <time>2018-07-17T09:24:40Z</time>
      </trkpt>
      <trkpt lat="45.92177" lon="5.01167">
        <ele>283</ele>
        <time>2018-07-17T09:24:41Z</time>
      </trkpt>
      <trkpt lat="45.9217" lon="5.01171">
        <ele>282</ele>
        <time>2018-07-17T09:24:42Z</time>
      </trkpt>
      <trkpt lat="45.92164" lon="5.01175">
        <ele>282</ele>
        <time>2018-07-17T09:24:43Z</time>
      </trkpt>
      <trkpt lat="45.92158" lon="5.01179">
        <ele>282</ele>
        <time>2018-07-17T09:24:44Z</time>
      </trkpt>
      <trkpt lat="45.92152" lon="5.01184">
        <ele>282</ele>
        <time>2018-07-17T09:24:45Z</time>
      </trkpt>
      <trkpt lat="45.92146" lon="5.01188">
        <ele>282</ele>
        <time>2018-07-17T09:24:46Z</time>
      </trkpt>
      <trkpt lat="45.9214" lon="5.01192">
        <ele>282</ele>
        <time>2018-07-17T09:24:47Z</time>
      </trkpt>
      <trkpt lat="45.92135" lon="5.01197">
        <ele>282</ele>
        <time>2018-07-17T09:24:48Z</time>
      </trkpt>
      <trkpt lat="45.92129" lon="5.01201">
        <ele>282</ele>
        <time>2018-07-17T09:24:49Z</time>
      </trkpt>
      <trkpt lat="45.92123" lon="5.01205">
        <ele>282</ele>
        <time>2018-07-17T09:24:50Z</time>
      </trkpt>
      <trkpt lat="45.92118" lon="5.01209">
        <ele>282</ele>
        <time>2018-07-17T09:24:51Z</time>
      </trkpt>
      <trkpt lat="45.92113" lon="5.01212">
        <ele>282</ele>
        <time>2018-07-17T09:24:52Z</time>
      </trkpt>
      <trkpt lat="45.92107" lon="5.01215">
        <ele>282</ele>
        <time>2018-07-17T09:24:53Z</time>
      </trkpt>
      <trkpt lat="45.92102" lon="5.01219">
        <ele>282</ele>
        <time>2018-07-17T09:24:54Z</time>
      </trkpt>
      <trkpt lat="45.92098" lon="5.01224">
        <ele>282</ele>
        <time>2018-07-17T09:24:55Z</time>
      </trkpt>
      <trkpt lat="45.92094" lon="5.01227">
        <ele>282</ele>
        <time>2018-07-17T09:24:56Z</time>
      </trkpt>
      <trkpt lat="45.9209" lon="5.0123">
        <ele>282</ele>
        <time>2018-07-17T09:24:57Z</time>
      </trkpt>
      <trkpt lat="45.92086" lon="5.01235">
        <ele>282</ele>
        <time>2018-07-17T09:24:58Z</time>
      </trkpt>
      <trkpt lat="45.92079" lon="5.01238">
        <ele>282</ele>
        <time>2018-07-17T09:25:01Z</time>
      </trkpt>
      <trkpt lat="45.92076" lon="5.01241">
        <ele>282</ele>
        <time>2018-07-17T09:25:02Z</time>
      </trkpt>
      <trkpt lat="45.9207" lon="5.01246">
        <ele>283</ele>
        <time>2018-07-17T09:25:05Z</time>
      </trkpt>
      <trkpt lat="45.92068" lon="5.01248">
        <ele>283</ele>
        <time>2018-07-17T09:25:06Z</time>
      </trkpt>
      <trkpt lat="45.92059" lon="5.01243">
        <ele>283</ele>
        <time>2018-07-17T09:25:25Z</time>
      </trkpt>
      <trkpt lat="45.9206" lon="5.01242">
        <ele>283</ele>
        <time>2018-07-17T09:25:26Z</time>
      </trkpt>
      <trkpt lat="45.92059" lon="5.01241">
        <ele>283</ele>
        <time>2018-07-17T09:25:27Z</time>
      </trkpt>
      <trkpt lat="45.92059" lon="5.0124">
        <ele>283</ele>
        <time>2018-07-17T09:25:28Z</time>
      </trkpt>
      <trkpt lat="45.92059" lon="5.01239">
        <ele>283</ele>
        <time>2018-07-17T09:25:29Z</time>
      </trkpt>
      <trkpt lat="45.92054" lon="5.01229">
        <ele>283</ele>
        <time>2018-07-17T09:26:39Z</time>
      </trkpt>
      <trkpt lat="45.92054" lon="5.01229">
        <ele>283</ele>
        <time>2018-07-17T09:26:40Z</time>
      </trkpt>
      <trkpt lat="45.92053" lon="5.01229">
        <ele>283</ele>
        <time>2018-07-17T09:26:45Z</time>
      </trkpt>
      <trkpt lat="45.92053" lon="5.01229">
        <ele>283</ele>
        <time>2018-07-17T09:26:46Z</time>
      </trkpt>
      <trkpt lat="45.92053" lon="5.01229">
        <ele>283</ele>
        <time>2018-07-17T09:26:50Z</time>
      </trkpt>
      <trkpt lat="45.92053" lon="5.01229">
        <ele>283</ele>
        <time>2018-07-17T09:26:51Z</time>
      </trkpt>
      <trkpt lat="45.92056" lon="5.0123">
        <ele>283</ele>
        <time>2018-07-17T09:29:18Z</time>
      </trkpt>
      <trkpt lat="45.92056" lon="5.0123">
        <ele>283</ele>
        <time>2018-07-17T09:29:19Z</time>
      </trkpt>
      <trkpt lat="45.92053" lon="5.0123">
        <ele>283</ele>
        <time>2018-07-17T09:33:02Z</time>
      </trkpt>
      <trkpt lat="45.92053" lon="5.0123">
        <ele>283</ele>
        <time>2018-07-17T09:33:03Z</time>
      </trkpt>
      <trkpt lat="45.92057" lon="5.01235">
        <ele>283</ele>
        <time>2018-07-17T09:36:21Z</time>
      </trkpt>
      <trkpt lat="45.92057" lon="5.01235">
        <ele>283</ele>
        <time>2018-07-17T09:36:22Z</time>
      </trkpt>
      <trkpt lat="45.92057" lon="5.01236">
        <ele>283</ele>
        <time>2018-07-17T09:36:23Z</time>
      </trkpt>
      <trkpt lat="45.92059" lon="5.01247">
        <ele>283</ele>
        <time>2018-07-17T09:36:38Z</time>
      </trkpt>
      <trkpt lat="45.92059" lon="5.01248">
        <ele>283</ele>
        <time>2018-07-17T09:36:39Z</time>
      </trkpt>
      <trkpt lat="45.92053" lon="5.01255">
        <ele>283</ele>
        <time>2018-07-17T09:36:57Z</time>
      </trkpt>
      <trkpt lat="45.92051" lon="5.01256">
        <ele>283</ele>
        <time>2018-07-17T09:36:58Z</time>
      </trkpt>
      <trkpt lat="45.92043" lon="5.01262">
        <ele>283</ele>
        <time>2018-07-17T09:37:01Z</time>
      </trkpt>
      <trkpt lat="45.92041" lon="5.01265">
        <ele>283</ele>
        <time>2018-07-17T09:37:02Z</time>
      </trkpt>
      <trkpt lat="45.92032" lon="5.01272">
        <ele>283</ele>
        <time>2018-07-17T09:37:03Z</time>
      </trkpt>
      <trkpt lat="45.92024" lon="5.01276">
        <ele>284</ele>
        <time>2018-07-17T09:37:05Z</time>
      </trkpt>
      <trkpt lat="45.9202" lon="5.01278">
        <ele>284</ele>
        <time>2018-07-17T09:37:06Z</time>
      </trkpt>
      <trkpt lat="45.92012" lon="5.01281">
        <ele>284</ele>
        <time>2018-07-17T09:37:08Z</time>
      </trkpt>
      <trkpt lat="45.92008" lon="5.01283">
        <ele>284</ele>
        <time>2018-07-17T09:37:09Z</time>
      </trkpt>
      <trkpt lat="45.92001" lon="5.01285">
        <ele>284</ele>
        <time>2018-07-17T09:37:11Z</time>
      </trkpt>
      <trkpt lat="45.91996" lon="5.01286">
        <ele>285</ele>
        <time>2018-07-17T09:37:12Z</time>
      </trkpt>
      <trkpt lat="45.91988" lon="5.01287">
        <ele>285</ele>
        <time>2018-07-17T09:37:14Z</time>
      </trkpt>
      <trkpt lat="45.91982" lon="5.01288">
        <ele>285</ele>
        <time>2018-07-17T09:37:15Z</time>
      </trkpt>
      <trkpt lat="45.91974" lon="5.01289">
        <ele>286</ele>
        <time>2018-07-17T09:37:17Z</time>
      </trkpt>
      <trkpt lat="45.9197" lon="5.01288">
        <ele>286</ele>
        <time>2018-07-17T09:37:18Z</time>
      </trkpt>
      <trkpt lat="45.91965" lon="5.01288">
        <ele>286</ele>
        <time>2018-07-17T09:37:19Z</time>
      </trkpt>
      <trkpt lat="45.91961" lon="5.01288">
        <ele>286</ele>
        <time>2018-07-17T09:37:20Z</time>
      </trkpt>
      <trkpt lat="45.91955" lon="5.01288">
        <ele>286</ele>
        <time>2018-07-17T09:37:21Z</time>
      </trkpt>
      <trkpt lat="45.91949" lon="5.01287">
        <ele>286</ele>
        <time>2018-07-17T09:37:22Z</time>
      </trkpt>
      <trkpt lat="45.91943" lon="5.01287">
        <ele>286</ele>
        <time>2018-07-17T09:37:25Z</time>
      </trkpt>
      <trkpt lat="45.91936" lon="5.01287">
        <ele>286</ele>
        <time>2018-07-17T09:37:26Z</time>
      </trkpt>
      <trkpt lat="45.91927" lon="5.01288">
        <ele>286</ele>
        <time>2018-07-17T09:37:29Z</time>
      </trkpt>
      <trkpt lat="45.91925" lon="5.01289">
        <ele>286</ele>
        <time>2018-07-17T09:37:30Z</time>
      </trkpt>
      <trkpt lat="45.91916" lon="5.01291">
        <ele>286</ele>
        <time>2018-07-17T09:37:31Z</time>
      </trkpt>
      <trkpt lat="45.91913" lon="5.01292">
        <ele>286</ele>
        <time>2018-07-17T09:37:32Z</time>
      </trkpt>
      <trkpt lat="45.91906" lon="5.01295">
        <ele>286</ele>
        <time>2018-07-17T09:37:33Z</time>
      </trkpt>
      <trkpt lat="45.919" lon="5.01297">
        <ele>286</ele>
        <time>2018-07-17T09:37:34Z</time>
      </trkpt>
      <trkpt lat="45.91895" lon="5.01297">
        <ele>286</ele>
        <time>2018-07-17T09:37:35Z</time>
      </trkpt>
      <trkpt lat="45.91889" lon="5.01298">
        <ele>286</ele>
        <time>2018-07-17T09:37:36Z</time>
      </trkpt>
      <trkpt lat="45.91881" lon="5.01298">
        <ele>285</ele>
        <time>2018-07-17T09:37:37Z</time>
      </trkpt>
      <trkpt lat="45.91876" lon="5.013">
        <ele>285</ele>
        <time>2018-07-17T09:37:38Z</time>
      </trkpt>
      <trkpt lat="45.9187" lon="5.01301">
        <ele>285</ele>
        <time>2018-07-17T09:37:39Z</time>
      </trkpt>
      <trkpt lat="45.91862" lon="5.01302">
        <ele>285</ele>
        <time>2018-07-17T09:37:40Z</time>
      </trkpt>
      <trkpt lat="45.91858" lon="5.01304">
        <ele>285</ele>
        <time>2018-07-17T09:37:41Z</time>
      </trkpt>
      <trkpt lat="45.91853" lon="5.01305">
        <ele>285</ele>
        <time>2018-07-17T09:37:42Z</time>
      </trkpt>
      <trkpt lat="45.91847" lon="5.01308">
        <ele>284</ele>
        <time>2018-07-17T09:37:43Z</time>
      </trkpt>
      <trkpt lat="45.91838" lon="5.01308">
        <ele>284</ele>
        <time>2018-07-17T09:37:44Z</time>
      </trkpt>
      <trkpt lat="45.9183" lon="5.0131">
        <ele>283</ele>
        <time>2018-07-17T09:37:45Z</time>
      </trkpt>
      <trkpt lat="45.91822" lon="5.01309">
        <ele>283</ele>
        <time>2018-07-17T09:37:46Z</time>
      </trkpt>
      <trkpt lat="45.91816" lon="5.0131">
        <ele>283</ele>
        <time>2018-07-17T09:37:47Z</time>
      </trkpt>
      <trkpt lat="45.91809" lon="5.01312">
        <ele>283</ele>
        <time>2018-07-17T09:37:48Z</time>
      </trkpt>
      <trkpt lat="45.91802" lon="5.01314">
        <ele>283</ele>
        <time>2018-07-17T09:37:49Z</time>
      </trkpt>
      <trkpt lat="45.91796" lon="5.01315">
        <ele>283</ele>
        <time>2018-07-17T09:37:50Z</time>
      </trkpt>
      <trkpt lat="45.9179" lon="5.01317">
        <ele>283</ele>
        <time>2018-07-17T09:37:51Z</time>
      </trkpt>
      <trkpt lat="45.91782" lon="5.01319">
        <ele>282</ele>
        <time>2018-07-17T09:37:52Z</time>
      </trkpt>
      <trkpt lat="45.91775" lon="5.01324">
        <ele>282</ele>
        <time>2018-07-17T09:37:53Z</time>
      </trkpt>
      <trkpt lat="45.91772" lon="5.01327">
        <ele>282</ele>
        <time>2018-07-17T09:37:54Z</time>
      </trkpt>
      <trkpt lat="45.91767" lon="5.01332">
        <ele>282</ele>
        <time>2018-07-17T09:37:55Z</time>
      </trkpt>
      <trkpt lat="45.91757" lon="5.01331">
        <ele>282</ele>
        <time>2018-07-17T09:37:56Z</time>
      </trkpt>
      <trkpt lat="45.91751" lon="5.01335">
        <ele>281</ele>
        <time>2018-07-17T09:37:57Z</time>
      </trkpt>
      <trkpt lat="45.91744" lon="5.01339">
        <ele>281</ele>
        <time>2018-07-17T09:37:58Z</time>
      </trkpt>
      <trkpt lat="45.91739" lon="5.01341">
        <ele>281</ele>
        <time>2018-07-17T09:37:59Z</time>
      </trkpt>
      <trkpt lat="45.91733" lon="5.01346">
        <ele>281</ele>
        <time>2018-07-17T09:38:00Z</time>
      </trkpt>
      <trkpt lat="45.91726" lon="5.0135">
        <ele>280</ele>
        <time>2018-07-17T09:38:01Z</time>
      </trkpt>
      <trkpt lat="45.9172" lon="5.01353">
        <ele>280</ele>
        <time>2018-07-17T09:38:02Z</time>
      </trkpt>
      <trkpt lat="45.91714" lon="5.01355">
        <ele>280</ele>
        <time>2018-07-17T09:38:03Z</time>
      </trkpt>
      <trkpt lat="45.91709" lon="5.01358">
        <ele>280</ele>
        <time>2018-07-17T09:38:04Z</time>
      </trkpt>
      <trkpt lat="45.91703" lon="5.01361">
        <ele>280</ele>
        <time>2018-07-17T09:38:05Z</time>
      </trkpt>
      <trkpt lat="45.91697" lon="5.01363">
        <ele>280</ele>
        <time>2018-07-17T09:38:06Z</time>
      </trkpt>
      <trkpt lat="45.91692" lon="5.01367">
        <ele>280</ele>
        <time>2018-07-17T09:38:07Z</time>
      </trkpt>
      <trkpt lat="45.91686" lon="5.01372">
        <ele>280</ele>
        <time>2018-07-17T09:38:08Z</time>
      </trkpt>
      <trkpt lat="45.9168" lon="5.01374">
        <ele>280</ele>
        <time>2018-07-17T09:38:09Z</time>
      </trkpt>
      <trkpt lat="45.91674" lon="5.01377">
        <ele>280</ele>
        <time>2018-07-17T09:38:10Z</time>
      </trkpt>
      <trkpt lat="45.91666" lon="5.01377">
        <ele>280</ele>
        <time>2018-07-17T09:38:11Z</time>
      </trkpt>
      <trkpt lat="45.91658" lon="5.01381">
        <ele>280</ele>
        <time>2018-07-17T09:38:12Z</time>
      </trkpt>
      <trkpt lat="45.91652" lon="5.01385">
        <ele>280</ele>
        <time>2018-07-17T09:38:13Z</time>
      </trkpt>
      <trkpt lat="45.91647" lon="5.0139">
        <ele>280</ele>
        <time>2018-07-17T09:38:14Z</time>
      </trkpt>
      <trkpt lat="45.91641" lon="5.01393">
        <ele>280</ele>
        <time>2018-07-17T09:38:15Z</time>
      </trkpt>
      <trkpt lat="45.91636" lon="5.01395">
        <ele>280</ele>
        <time>2018-07-17T09:38:16Z</time>
      </trkpt>
      <trkpt lat="45.9163" lon="5.014">
        <ele>280</ele>
        <time>2018-07-17T09:38:17Z</time>
      </trkpt>
      <trkpt lat="45.91625" lon="5.01403">
        <ele>280</ele>
        <time>2018-07-17T09:38:18Z</time>
      </trkpt>
      <trkpt lat="45.91619" lon="5.01402">
        <ele>280</ele>
        <time>2018-07-17T09:38:19Z</time>
      </trkpt>
      <trkpt lat="45.91615" lon="5.01413">
        <ele>280</ele>
        <time>2018-07-17T09:38:20Z</time>
      </trkpt>
      <trkpt lat="45.91608" lon="5.01416">
        <ele>281</ele>
        <time>2018-07-17T09:38:21Z</time>
      </trkpt>
      <trkpt lat="45.91604" lon="5.01422">
        <ele>280</ele>
        <time>2018-07-17T09:38:22Z</time>
      </trkpt>
      <trkpt lat="45.91596" lon="5.01427">
        <ele>280</ele>
        <time>2018-07-17T09:38:23Z</time>
      </trkpt>
      <trkpt lat="45.9159" lon="5.01434">
        <ele>280</ele>
        <time>2018-07-17T09:38:24Z</time>
      </trkpt>
      <trkpt lat="45.91583" lon="5.01443">
        <ele>282</ele>
        <time>2018-07-17T09:38:25Z</time>
      </trkpt>
      <trkpt lat="45.91577" lon="5.01451">
        <ele>282</ele>
        <time>2018-07-17T09:38:26Z</time>
      </trkpt>
      <trkpt lat="45.9157" lon="5.01458">
        <ele>282</ele>
        <time>2018-07-17T09:38:27Z</time>
      </trkpt>
      <trkpt lat="45.91564" lon="5.01465">
        <ele>282</ele>
        <time>2018-07-17T09:38:28Z</time>
      </trkpt>
      <trkpt lat="45.91557" lon="5.01474">
        <ele>282</ele>
        <time>2018-07-17T09:38:29Z</time>
      </trkpt>
      <trkpt lat="45.91551" lon="5.01479">
        <ele>282</ele>
        <time>2018-07-17T09:38:30Z</time>
      </trkpt>
      <trkpt lat="45.91545" lon="5.01486">
        <ele>282</ele>
        <time>2018-07-17T09:38:31Z</time>
      </trkpt>
      <trkpt lat="45.9154" lon="5.01493">
        <ele>282</ele>
        <time>2018-07-17T09:38:32Z</time>
      </trkpt>
      <trkpt lat="45.91535" lon="5.01501">
        <ele>281</ele>
        <time>2018-07-17T09:38:33Z</time>
      </trkpt>
      <trkpt lat="45.9153" lon="5.01505">
        <ele>281</ele>
        <time>2018-07-17T09:38:34Z</time>
      </trkpt>
      <trkpt lat="45.91526" lon="5.0151">
        <ele>282</ele>
        <time>2018-07-17T09:38:35Z</time>
      </trkpt>
      <trkpt lat="45.91521" lon="5.01515">
        <ele>282</ele>
        <time>2018-07-17T09:38:36Z</time>
      </trkpt>
      <trkpt lat="45.91515" lon="5.01521">
        <ele>282</ele>
        <time>2018-07-17T09:38:37Z</time>
      </trkpt>
      <trkpt lat="45.91512" lon="5.01527">
        <ele>282</ele>
        <time>2018-07-17T09:38:38Z</time>
      </trkpt>
      <trkpt lat="45.91507" lon="5.01535">
        <ele>281</ele>
        <time>2018-07-17T09:38:39Z</time>
      </trkpt>
      <trkpt lat="45.91503" lon="5.01542">
        <ele>281</ele>
        <time>2018-07-17T09:38:40Z</time>
      </trkpt>
      <trkpt lat="45.91499" lon="5.01549">
        <ele>283</ele>
        <time>2018-07-17T09:38:41Z</time>
      </trkpt>
      <trkpt lat="45.91496" lon="5.01556">
        <ele>283</ele>
        <time>2018-07-17T09:38:42Z</time>
      </trkpt>
      <trkpt lat="45.91491" lon="5.01562">
        <ele>283</ele>
        <time>2018-07-17T09:38:43Z</time>
      </trkpt>
      <trkpt lat="45.91487" lon="5.01568">
        <ele>283</ele>
        <time>2018-07-17T09:38:44Z</time>
      </trkpt>
      <trkpt lat="45.91484" lon="5.01571">
        <ele>283</ele>
        <time>2018-07-17T09:38:45Z</time>
      </trkpt>
      <trkpt lat="45.91481" lon="5.01581">
        <ele>283</ele>
        <time>2018-07-17T09:38:46Z</time>
      </trkpt>
      <trkpt lat="45.91478" lon="5.01591">
        <ele>281</ele>
        <time>2018-07-17T09:38:47Z</time>
      </trkpt>
      <trkpt lat="45.91475" lon="5.01599">
        <ele>281</ele>
        <time>2018-07-17T09:38:48Z</time>
      </trkpt>
      <trkpt lat="45.9147" lon="5.01602">
        <ele>281</ele>
        <time>2018-07-17T09:38:49Z</time>
      </trkpt>
      <trkpt lat="45.91465" lon="5.01606">
        <ele>281</ele>
        <time>2018-07-17T09:38:50Z</time>
      </trkpt>
      <trkpt lat="45.91459" lon="5.01609">
        <ele>281</ele>
        <time>2018-07-17T09:38:51Z</time>
      </trkpt>
      <trkpt lat="45.91451" lon="5.01612">
        <ele>281</ele>
        <time>2018-07-17T09:38:52Z</time>
      </trkpt>
      <trkpt lat="45.91444" lon="5.01612">
        <ele>281</ele>
        <time>2018-07-17T09:38:53Z</time>
      </trkpt>
      <trkpt lat="45.91436" lon="5.01614">
        <ele>281</ele>
        <time>2018-07-17T09:38:54Z</time>
      </trkpt>
      <trkpt lat="45.9143" lon="5.01615">
        <ele>281</ele>
        <time>2018-07-17T09:38:55Z</time>
      </trkpt>
      <trkpt lat="45.91423" lon="5.01614">
        <ele>281</ele>
        <time>2018-07-17T09:38:56Z</time>
      </trkpt>
      <trkpt lat="45.91415" lon="5.01613">
        <ele>280</ele>
        <time>2018-07-17T09:38:57Z</time>
      </trkpt>
      <trkpt lat="45.91409" lon="5.0161">
        <ele>280</ele>
        <time>2018-07-17T09:38:58Z</time>
      </trkpt>
      <trkpt lat="45.91401" lon="5.01608">
        <ele>280</ele>
        <time>2018-07-17T09:38:59Z</time>
      </trkpt>
      <trkpt lat="45.91394" lon="5.01606">
        <ele>280</ele>
        <time>2018-07-17T09:39:00Z</time>
      </trkpt>
      <trkpt lat="45.91386" lon="5.01606">
        <ele>279</ele>
        <time>2018-07-17T09:39:01Z</time>
      </trkpt>
      <trkpt lat="45.91379" lon="5.01604">
        <ele>279</ele>
        <time>2018-07-17T09:39:02Z</time>
      </trkpt>
      <trkpt lat="45.9137" lon="5.01599">
        <ele>279</ele>
        <time>2018-07-17T09:39:03Z</time>
      </trkpt>
      <trkpt lat="45.91362" lon="5.01596">
        <ele>279</ele>
        <time>2018-07-17T09:39:04Z</time>
      </trkpt>
      <trkpt lat="45.91355" lon="5.01595">
        <ele>279</ele>
        <time>2018-07-17T09:39:05Z</time>
      </trkpt>
      <trkpt lat="45.91347" lon="5.01592">
        <ele>278</ele>
        <time>2018-07-17T09:39:06Z</time>
      </trkpt>
      <trkpt lat="45.91339" lon="5.01589">
        <ele>278</ele>
        <time>2018-07-17T09:39:07Z</time>
      </trkpt>
      <trkpt lat="45.91331" lon="5.01587">
        <ele>277</ele>
        <time>2018-07-17T09:39:08Z</time>
      </trkpt>
      <trkpt lat="45.91323" lon="5.01585">
        <ele>277</ele>
        <time>2018-07-17T09:39:09Z</time>
      </trkpt>
      <trkpt lat="45.91313" lon="5.01585">
        <ele>276</ele>
        <time>2018-07-17T09:39:10Z</time>
      </trkpt>
      <trkpt lat="45.91304" lon="5.01582">
        <ele>277</ele>
        <time>2018-07-17T09:39:11Z</time>
      </trkpt>
      <trkpt lat="45.91295" lon="5.0158">
        <ele>277</ele>
        <time>2018-07-17T09:39:12Z</time>
      </trkpt>
      <trkpt lat="45.91287" lon="5.01583">
        <ele>276</ele>
        <time>2018-07-17T09:39:13Z</time>
      </trkpt>
      <trkpt lat="45.91277" lon="5.01583">
        <ele>276</ele>
        <time>2018-07-17T09:39:14Z</time>
      </trkpt>
      <trkpt lat="45.91269" lon="5.01582">
        <ele>276</ele>
        <time>2018-07-17T09:39:15Z</time>
      </trkpt>
      <trkpt lat="45.91261" lon="5.01582">
        <ele>275</ele>
        <time>2018-07-17T09:39:16Z</time>
      </trkpt>
      <trkpt lat="45.91254" lon="5.01584">
        <ele>274</ele>
        <time>2018-07-17T09:39:17Z</time>
      </trkpt>
      <trkpt lat="45.91246" lon="5.01588">
        <ele>274</ele>
        <time>2018-07-17T09:39:18Z</time>
      </trkpt>
      <trkpt lat="45.91237" lon="5.01586">
        <ele>274</ele>
        <time>2018-07-17T09:39:19Z</time>
      </trkpt>
      <trkpt lat="45.91231" lon="5.0159">
        <ele>273</ele>
        <time>2018-07-17T09:39:20Z</time>
      </trkpt>
      <trkpt lat="45.91222" lon="5.01591">
        <ele>273</ele>
        <time>2018-07-17T09:39:21Z</time>
      </trkpt>
      <trkpt lat="45.91213" lon="5.01595">
        <ele>273</ele>
        <time>2018-07-17T09:39:22Z</time>
      </trkpt>
      <trkpt lat="45.91207" lon="5.01594">
        <ele>273</ele>
        <time>2018-07-17T09:39:23Z</time>
      </trkpt>
      <trkpt lat="45.91199" lon="5.01597">
        <ele>273</ele>
        <time>2018-07-17T09:39:24Z</time>
      </trkpt>
      <trkpt lat="45.9119" lon="5.016">
        <ele>273</ele>
        <time>2018-07-17T09:39:25Z</time>
      </trkpt>
      <trkpt lat="45.91185" lon="5.01603">
        <ele>273</ele>
        <time>2018-07-17T09:39:26Z</time>
      </trkpt>
      <trkpt lat="45.91182" lon="5.01608">
        <ele>273</ele>
        <time>2018-07-17T09:39:27Z</time>
      </trkpt>
      <trkpt lat="45.91176" lon="5.0161">
        <ele>273</ele>
        <time>2018-07-17T09:39:28Z</time>
      </trkpt>
      <trkpt lat="45.91169" lon="5.01612">
        <ele>273</ele>
        <time>2018-07-17T09:39:29Z</time>
      </trkpt>
      <trkpt lat="45.91165" lon="5.01615">
        <ele>274</ele>
        <time>2018-07-17T09:39:30Z</time>
      </trkpt>
      <trkpt lat="45.91158" lon="5.01617">
        <ele>274</ele>
        <time>2018-07-17T09:39:31Z</time>
      </trkpt>
      <trkpt lat="45.91153" lon="5.01619">
        <ele>274</ele>
        <time>2018-07-17T09:39:32Z</time>
      </trkpt>
      <trkpt lat="45.91148" lon="5.0162">
        <ele>274</ele>
        <time>2018-07-17T09:39:33Z</time>
      </trkpt>
      <trkpt lat="45.91141" lon="5.01622">
        <ele>274</ele>
        <time>2018-07-17T09:39:34Z</time>
      </trkpt>
      <trkpt lat="45.91132" lon="5.01624">
        <ele>274</ele>
        <time>2018-07-17T09:39:35Z</time>
      </trkpt>
      <trkpt lat="45.91125" lon="5.01627">
        <ele>274</ele>
        <time>2018-07-17T09:39:36Z</time>
      </trkpt>
      <trkpt lat="45.91117" lon="5.0163">
        <ele>274</ele>
        <time>2018-07-17T09:39:37Z</time>
      </trkpt>
      <trkpt lat="45.91109" lon="5.01631">
        <ele>274</ele>
        <time>2018-07-17T09:39:38Z</time>
      </trkpt>
      <trkpt lat="45.91102" lon="5.01635">
        <ele>274</ele>
        <time>2018-07-17T09:39:39Z</time>
      </trkpt>
      <trkpt lat="45.91095" lon="5.01638">
        <ele>274</ele>
        <time>2018-07-17T09:39:40Z</time>
      </trkpt>
      <trkpt lat="45.91089" lon="5.01641">
        <ele>274</ele>
        <time>2018-07-17T09:39:41Z</time>
      </trkpt>
      <trkpt lat="45.91084" lon="5.01642">
        <ele>274</ele>
        <time>2018-07-17T09:39:42Z</time>
      </trkpt>
      <trkpt lat="45.91077" lon="5.01645">
        <ele>277</ele>
        <time>2018-07-17T09:39:43Z</time>
      </trkpt>
      <trkpt lat="45.91071" lon="5.01646">
        <ele>277</ele>
        <time>2018-07-17T09:39:44Z</time>
      </trkpt>
      <trkpt lat="45.91066" lon="5.01649">
        <ele>277</ele>
        <time>2018-07-17T09:39:45Z</time>
      </trkpt>
      <trkpt lat="45.9106" lon="5.01652">
        <ele>277</ele>
        <time>2018-07-17T09:39:46Z</time>
      </trkpt>
      <trkpt lat="45.91056" lon="5.01654">
        <ele>278</ele>
        <time>2018-07-17T09:39:47Z</time>
      </trkpt>
      <trkpt lat="45.9105" lon="5.01657">
        <ele>278</ele>
        <time>2018-07-17T09:39:48Z</time>
      </trkpt>
      <trkpt lat="45.91045" lon="5.01659">
        <ele>278</ele>
        <time>2018-07-17T09:39:49Z</time>
      </trkpt>
      <trkpt lat="45.91038" lon="5.01661">
        <ele>278</ele>
        <time>2018-07-17T09:39:50Z</time>
      </trkpt>
      <trkpt lat="45.91033" lon="5.01663">
        <ele>278</ele>
        <time>2018-07-17T09:39:51Z</time>
      </trkpt>
      <trkpt lat="45.91027" lon="5.01663">
        <ele>278</ele>
        <time>2018-07-17T09:39:52Z</time>
      </trkpt>
      <trkpt lat="45.91022" lon="5.01666">
        <ele>279</ele>
        <time>2018-07-17T09:39:53Z</time>
      </trkpt>
      <trkpt lat="45.91018" lon="5.01666">
        <ele>279</ele>
        <time>2018-07-17T09:39:54Z</time>
      </trkpt>
      <trkpt lat="45.91012" lon="5.01669">
        <ele>277</ele>
        <time>2018-07-17T09:39:55Z</time>
      </trkpt>
      <trkpt lat="45.91007" lon="5.01671">
        <ele>277</ele>
        <time>2018-07-17T09:39:56Z</time>
      </trkpt>
      <trkpt lat="45.91002" lon="5.01672">
        <ele>278</ele>
        <time>2018-07-17T09:39:57Z</time>
      </trkpt>
      <trkpt lat="45.90997" lon="5.01674">
        <ele>278</ele>
        <time>2018-07-17T09:39:58Z</time>
      </trkpt>
      <trkpt lat="45.90992" lon="5.01676">
        <ele>278</ele>
        <time>2018-07-17T09:39:59Z</time>
      </trkpt>
      <trkpt lat="45.90988" lon="5.01677">
        <ele>278</ele>
        <time>2018-07-17T09:40:00Z</time>
      </trkpt>
      <trkpt lat="45.90984" lon="5.01678">
        <ele>278</ele>
        <time>2018-07-17T09:40:01Z</time>
      </trkpt>
      <trkpt lat="45.90979" lon="5.01679">
        <ele>278</ele>
        <time>2018-07-17T09:40:02Z</time>
      </trkpt>
      <trkpt lat="45.90971" lon="5.01684">
        <ele>278</ele>
        <time>2018-07-17T09:40:04Z</time>
      </trkpt>
      <trkpt lat="45.90967" lon="5.01689">
        <ele>278</ele>
        <time>2018-07-17T09:40:05Z</time>
      </trkpt>
      <trkpt lat="45.90963" lon="5.01692">
        <ele>278</ele>
        <time>2018-07-17T09:40:06Z</time>
      </trkpt>
      <trkpt lat="45.90958" lon="5.01693">
        <ele>278</ele>
        <time>2018-07-17T09:40:07Z</time>
      </trkpt>
      <trkpt lat="45.90951" lon="5.01695">
        <ele>279</ele>
        <time>2018-07-17T09:40:09Z</time>
      </trkpt>
      <trkpt lat="45.90948" lon="5.01696">
        <ele>279</ele>
        <time>2018-07-17T09:40:10Z</time>
      </trkpt>
      <trkpt lat="45.90943" lon="5.01697">
        <ele>279</ele>
        <time>2018-07-17T09:40:11Z</time>
      </trkpt>
      <trkpt lat="45.90938" lon="5.01698">
        <ele>279</ele>
        <time>2018-07-17T09:40:12Z</time>
      </trkpt>
      <trkpt lat="45.90933" lon="5.017">
        <ele>279</ele>
        <time>2018-07-17T09:40:13Z</time>
      </trkpt>
      <trkpt lat="45.90928" lon="5.017">
        <ele>279</ele>
        <time>2018-07-17T09:40:14Z</time>
      </trkpt>
      <trkpt lat="45.90923" lon="5.01701">
        <ele>279</ele>
        <time>2018-07-17T09:40:15Z</time>
      </trkpt>
      <trkpt lat="45.90918" lon="5.01702">
        <ele>279</ele>
        <time>2018-07-17T09:40:16Z</time>
      </trkpt>
      <trkpt lat="45.90913" lon="5.01702">
        <ele>279</ele>
        <time>2018-07-17T09:40:17Z</time>
      </trkpt>
      <trkpt lat="45.90909" lon="5.01701">
        <ele>279</ele>
        <time>2018-07-17T09:40:18Z</time>
      </trkpt>
      <trkpt lat="45.90904" lon="5.01701">
        <ele>279</ele>
        <time>2018-07-17T09:40:19Z</time>
      </trkpt>
      <trkpt lat="45.90899" lon="5.017">
        <ele>279</ele>
        <time>2018-07-17T09:40:20Z</time>
      </trkpt>
      <trkpt lat="45.90894" lon="5.01698">
        <ele>279</ele>
        <time>2018-07-17T09:40:21Z</time>
      </trkpt>
      <trkpt lat="45.9089" lon="5.01696">
        <ele>280</ele>
        <time>2018-07-17T09:40:22Z</time>
      </trkpt>
      <trkpt lat="45.90885" lon="5.01695">
        <ele>280</ele>
        <time>2018-07-17T09:40:23Z</time>
      </trkpt>
      <trkpt lat="45.90879" lon="5.01694">
        <ele>280</ele>
        <time>2018-07-17T09:40:24Z</time>
      </trkpt>
      <trkpt lat="45.90873" lon="5.01694">
        <ele>280</ele>
        <time>2018-07-17T09:40:25Z</time>
      </trkpt>
      <trkpt lat="45.90868" lon="5.01692">
        <ele>280</ele>
        <time>2018-07-17T09:40:26Z</time>
      </trkpt>
      <trkpt lat="45.90864" lon="5.01691">
        <ele>280</ele>
        <time>2018-07-17T09:40:27Z</time>
      </trkpt>
      <trkpt lat="45.90858" lon="5.0169">
        <ele>280</ele>
        <time>2018-07-17T09:40:28Z</time>
      </trkpt>
      <trkpt lat="45.90853" lon="5.0169">
        <ele>280</ele>
        <time>2018-07-17T09:40:29Z</time>
      </trkpt>
      <trkpt lat="45.90847" lon="5.01688">
        <ele>280</ele>
        <time>2018-07-17T09:40:30Z</time>
      </trkpt>
      <trkpt lat="45.90843" lon="5.01686">
        <ele>280</ele>
        <time>2018-07-17T09:40:31Z</time>
      </trkpt>
      <trkpt lat="45.90837" lon="5.01683">
        <ele>280</ele>
        <time>2018-07-17T09:40:32Z</time>
      </trkpt>
      <trkpt lat="45.90833" lon="5.01682">
        <ele>280</ele>
        <time>2018-07-17T09:40:33Z</time>
      </trkpt>
      <trkpt lat="45.90828" lon="5.01682">
        <ele>280</ele>
        <time>2018-07-17T09:40:34Z</time>
      </trkpt>
      <trkpt lat="45.90823" lon="5.0168">
        <ele>280</ele>
        <time>2018-07-17T09:40:35Z</time>
      </trkpt>
      <trkpt lat="45.90818" lon="5.01676">
        <ele>280</ele>
        <time>2018-07-17T09:40:36Z</time>
      </trkpt>
      <trkpt lat="45.90812" lon="5.01674">
        <ele>280</ele>
        <time>2018-07-17T09:40:37Z</time>
      </trkpt>
      <trkpt lat="45.90806" lon="5.01672">
        <ele>280</ele>
        <time>2018-07-17T09:40:38Z</time>
      </trkpt>
      <trkpt lat="45.90801" lon="5.01669">
        <ele>279</ele>
        <time>2018-07-17T09:40:39Z</time>
      </trkpt>
      <trkpt lat="45.90796" lon="5.01668">
        <ele>279</ele>
        <time>2018-07-17T09:40:40Z</time>
      </trkpt>
      <trkpt lat="45.9079" lon="5.01666">
        <ele>281</ele>
        <time>2018-07-17T09:40:41Z</time>
      </trkpt>
      <trkpt lat="45.90785" lon="5.01664">
        <ele>280</ele>
        <time>2018-07-17T09:40:42Z</time>
      </trkpt>
      <trkpt lat="45.90779" lon="5.01661">
        <ele>280</ele>
        <time>2018-07-17T09:40:43Z</time>
      </trkpt>
      <trkpt lat="45.90774" lon="5.01659">
        <ele>280</ele>
        <time>2018-07-17T09:40:44Z</time>
      </trkpt>
      <trkpt lat="45.90768" lon="5.01657">
        <ele>280</ele>
        <time>2018-07-17T09:40:45Z</time>
      </trkpt>
      <trkpt lat="45.90762" lon="5.01654">
        <ele>280</ele>
        <time>2018-07-17T09:40:46Z</time>
      </trkpt>
      <trkpt lat="45.90755" lon="5.01652">
        <ele>280</ele>
        <time>2018-07-17T09:40:47Z</time>
      </trkpt>
      <trkpt lat="45.90748" lon="5.01651">
        <ele>280</ele>
        <time>2018-07-17T09:40:48Z</time>
      </trkpt>
      <trkpt lat="45.90742" lon="5.01649">
        <ele>280</ele>
        <time>2018-07-17T09:40:49Z</time>
      </trkpt>
      <trkpt lat="45.90736" lon="5.01647">
        <ele>280</ele>
        <time>2018-07-17T09:40:50Z</time>
      </trkpt>
      <trkpt lat="45.9073" lon="5.01645">
        <ele>280</ele>
        <time>2018-07-17T09:40:51Z</time>
      </trkpt>
      <trkpt lat="45.90723" lon="5.01643">
        <ele>280</ele>
        <time>2018-07-17T09:40:52Z</time>
      </trkpt>
      <trkpt lat="45.90718" lon="5.01641">
        <ele>280</ele>
        <time>2018-07-17T09:40:53Z</time>
      </trkpt>
      <trkpt lat="45.90713" lon="5.01639">
        <ele>280</ele>
        <time>2018-07-17T09:40:54Z</time>
      </trkpt>
      <trkpt lat="45.90707" lon="5.01637">
        <ele>280</ele>
        <time>2018-07-17T09:40:55Z</time>
      </trkpt>
      <trkpt lat="45.90702" lon="5.01635">
        <ele>281</ele>
        <time>2018-07-17T09:40:56Z</time>
      </trkpt>
      <trkpt lat="45.90697" lon="5.01634">
        <ele>281</ele>
        <time>2018-07-17T09:40:57Z</time>
      </trkpt>
      <trkpt lat="45.90691" lon="5.01632">
        <ele>281</ele>
        <time>2018-07-17T09:40:58Z</time>
      </trkpt>
      <trkpt lat="45.90685" lon="5.01631">
        <ele>281</ele>
        <time>2018-07-17T09:40:59Z</time>
      </trkpt>
      <trkpt lat="45.9068" lon="5.01629">
        <ele>281</ele>
        <time>2018-07-17T09:41:00Z</time>
      </trkpt>
      <trkpt lat="45.90673" lon="5.01626">
        <ele>281</ele>
        <time>2018-07-17T09:41:01Z</time>
      </trkpt>
      <trkpt lat="45.90668" lon="5.01625">
        <ele>281</ele>
        <time>2018-07-17T09:41:02Z</time>
      </trkpt>
      <trkpt lat="45.90663" lon="5.01624">
        <ele>283</ele>
        <time>2018-07-17T09:41:03Z</time>
      </trkpt>
      <trkpt lat="45.90657" lon="5.01622">
        <ele>283</ele>
        <time>2018-07-17T09:41:04Z</time>
      </trkpt>
      <trkpt lat="45.90651" lon="5.01618">
        <ele>283</ele>
        <time>2018-07-17T09:41:05Z</time>
      </trkpt>
      <trkpt lat="45.90645" lon="5.01616">
        <ele>283</ele>
        <time>2018-07-17T09:41:06Z</time>
      </trkpt>
      <trkpt lat="45.9064" lon="5.01613">
        <ele>283</ele>
        <time>2018-07-17T09:41:07Z</time>
      </trkpt>
      <trkpt lat="45.90636" lon="5.01611">
        <ele>283</ele>
        <time>2018-07-17T09:41:08Z</time>
      </trkpt>
      <trkpt lat="45.90631" lon="5.01609">
        <ele>283</ele>
        <time>2018-07-17T09:41:09Z</time>
      </trkpt>
      <trkpt lat="45.90627" lon="5.01607">
        <ele>283</ele>
        <time>2018-07-17T09:41:10Z</time>
      </trkpt>
      <trkpt lat="45.90622" lon="5.01605">
        <ele>283</ele>
        <time>2018-07-17T09:41:11Z</time>
      </trkpt>
      <trkpt lat="45.90617" lon="5.01603">
        <ele>283</ele>
        <time>2018-07-17T09:41:12Z</time>
      </trkpt>
      <trkpt lat="45.90611" lon="5.01603">
        <ele>283</ele>
        <time>2018-07-17T09:41:13Z</time>
      </trkpt>
      <trkpt lat="45.90606" lon="5.01601">
        <ele>284</ele>
        <time>2018-07-17T09:41:14Z</time>
      </trkpt>
      <trkpt lat="45.90601" lon="5.01598">
        <ele>284</ele>
        <time>2018-07-17T09:41:15Z</time>
      </trkpt>
      <trkpt lat="45.90597" lon="5.01597">
        <ele>284</ele>
        <time>2018-07-17T09:41:16Z</time>
      </trkpt>
      <trkpt lat="45.90591" lon="5.01595">
        <ele>284</ele>
        <time>2018-07-17T09:41:17Z</time>
      </trkpt>
      <trkpt lat="45.90587" lon="5.01593">
        <ele>284</ele>
        <time>2018-07-17T09:41:18Z</time>
      </trkpt>
      <trkpt lat="45.90578" lon="5.01592">
        <ele>285</ele>
        <time>2018-07-17T09:41:20Z</time>
      </trkpt>
      <trkpt lat="45.90574" lon="5.0159">
        <ele>285</ele>
        <time>2018-07-17T09:41:21Z</time>
      </trkpt>
      <trkpt lat="45.90569" lon="5.01588">
        <ele>285</ele>
        <time>2018-07-17T09:41:22Z</time>
      </trkpt>
      <trkpt lat="45.90564" lon="5.01586">
        <ele>285</ele>
        <time>2018-07-17T09:41:23Z</time>
      </trkpt>
      <trkpt lat="45.90559" lon="5.01585">
        <ele>285</ele>
        <time>2018-07-17T09:41:24Z</time>
      </trkpt>
      <trkpt lat="45.90554" lon="5.01584">
        <ele>285</ele>
        <time>2018-07-17T09:41:25Z</time>
      </trkpt>
      <trkpt lat="45.90548" lon="5.01583">
        <ele>285</ele>
        <time>2018-07-17T09:41:26Z</time>
      </trkpt>
      <trkpt lat="45.90543" lon="5.01583">
        <ele>284</ele>
        <time>2018-07-17T09:41:27Z</time>
      </trkpt>
      <trkpt lat="45.90535" lon="5.01582">
        <ele>284</ele>
        <time>2018-07-17T09:41:29Z</time>
      </trkpt>
      <trkpt lat="45.90529" lon="5.01582">
        <ele>284</ele>
        <time>2018-07-17T09:41:30Z</time>
      </trkpt>
      <trkpt lat="45.90524" lon="5.01581">
        <ele>284</ele>
        <time>2018-07-17T09:41:31Z</time>
      </trkpt>
      <trkpt lat="45.90519" lon="5.01582">
        <ele>284</ele>
        <time>2018-07-17T09:41:32Z</time>
      </trkpt>
      <trkpt lat="45.90512" lon="5.01581">
        <ele>284</ele>
        <time>2018-07-17T09:41:33Z</time>
      </trkpt>
      <trkpt lat="45.90507" lon="5.01582">
        <ele>285</ele>
        <time>2018-07-17T09:41:34Z</time>
      </trkpt>
      <trkpt lat="45.90503" lon="5.01583">
        <ele>285</ele>
        <time>2018-07-17T09:41:35Z</time>
      </trkpt>
      <trkpt lat="45.90498" lon="5.01584">
        <ele>285</ele>
        <time>2018-07-17T09:41:36Z</time>
      </trkpt>
      <trkpt lat="45.9049" lon="5.01589">
        <ele>285</ele>
        <time>2018-07-17T09:41:38Z</time>
      </trkpt>
      <trkpt lat="45.90486" lon="5.01589">
        <ele>285</ele>
        <time>2018-07-17T09:41:39Z</time>
      </trkpt>
      <trkpt lat="45.90477" lon="5.01589">
        <ele>285</ele>
        <time>2018-07-17T09:41:41Z</time>
      </trkpt>
      <trkpt lat="45.90476" lon="5.01587">
        <ele>285</ele>
        <time>2018-07-17T09:41:42Z</time>
      </trkpt>
      <trkpt lat="45.90472" lon="5.0158">
        <ele>284</ele>
        <time>2018-07-17T09:41:43Z</time>
      </trkpt>
      <trkpt lat="45.90471" lon="5.01573">
        <ele>284</ele>
        <time>2018-07-17T09:41:44Z</time>
      </trkpt>
      <trkpt lat="45.90472" lon="5.01565">
        <ele>283</ele>
        <time>2018-07-17T09:41:45Z</time>
      </trkpt>
      <trkpt lat="45.90472" lon="5.01558">
        <ele>283</ele>
        <time>2018-07-17T09:41:46Z</time>
      </trkpt>
      <trkpt lat="45.90473" lon="5.01551">
        <ele>283</ele>
        <time>2018-07-17T09:41:47Z</time>
      </trkpt>
      <trkpt lat="45.90471" lon="5.01543">
        <ele>283</ele>
        <time>2018-07-17T09:41:48Z</time>
      </trkpt>
      <trkpt lat="45.90472" lon="5.01536">
        <ele>283</ele>
        <time>2018-07-17T09:41:49Z</time>
      </trkpt>
      <trkpt lat="45.90473" lon="5.01528">
        <ele>283</ele>
        <time>2018-07-17T09:41:50Z</time>
      </trkpt>
      <trkpt lat="45.90472" lon="5.0152">
        <ele>283</ele>
        <time>2018-07-17T09:41:51Z</time>
      </trkpt>
      <trkpt lat="45.90471" lon="5.01512">
        <ele>283</ele>
        <time>2018-07-17T09:41:52Z</time>
      </trkpt>
      <trkpt lat="45.9047" lon="5.01504">
        <ele>283</ele>
        <time>2018-07-17T09:41:53Z</time>
      </trkpt>
      <trkpt lat="45.90469" lon="5.01497">
        <ele>282</ele>
        <time>2018-07-17T09:41:54Z</time>
      </trkpt>
      <trkpt lat="45.90468" lon="5.01489">
        <ele>282</ele>
        <time>2018-07-17T09:41:55Z</time>
      </trkpt>
      <trkpt lat="45.90465" lon="5.01481">
        <ele>282</ele>
        <time>2018-07-17T09:41:56Z</time>
      </trkpt>
      <trkpt lat="45.90465" lon="5.01473">
        <ele>282</ele>
        <time>2018-07-17T09:41:57Z</time>
      </trkpt>
      <trkpt lat="45.90466" lon="5.01466">
        <ele>282</ele>
        <time>2018-07-17T09:41:58Z</time>
      </trkpt>
      <trkpt lat="45.90466" lon="5.01457">
        <ele>282</ele>
        <time>2018-07-17T09:41:59Z</time>
      </trkpt>
      <trkpt lat="45.90466" lon="5.01449">
        <ele>282</ele>
        <time>2018-07-17T09:42:00Z</time>
      </trkpt>
      <trkpt lat="45.90464" lon="5.01441">
        <ele>282</ele>
        <time>2018-07-17T09:42:01Z</time>
      </trkpt>
      <trkpt lat="45.90463" lon="5.01433">
        <ele>282</ele>
        <time>2018-07-17T09:42:02Z</time>
      </trkpt>
      <trkpt lat="45.90461" lon="5.01424">
        <ele>282</ele>
        <time>2018-07-17T09:42:03Z</time>
      </trkpt>
      <trkpt lat="45.90461" lon="5.01415">
        <ele>281</ele>
        <time>2018-07-17T09:42:04Z</time>
      </trkpt>
      <trkpt lat="45.9046" lon="5.01407">
        <ele>281</ele>
        <time>2018-07-17T09:42:05Z</time>
      </trkpt>
      <trkpt lat="45.90457" lon="5.01398">
        <ele>281</ele>
        <time>2018-07-17T09:42:06Z</time>
      </trkpt>
      <trkpt lat="45.90455" lon="5.01389">
        <ele>281</ele>
        <time>2018-07-17T09:42:07Z</time>
      </trkpt>
      <trkpt lat="45.90455" lon="5.01383">
        <ele>281</ele>
        <time>2018-07-17T09:42:08Z</time>
      </trkpt>
      <trkpt lat="45.90454" lon="5.01374">
        <ele>281</ele>
        <time>2018-07-17T09:42:09Z</time>
      </trkpt>
      <trkpt lat="45.90453" lon="5.01366">
        <ele>281</ele>
        <time>2018-07-17T09:42:10Z</time>
      </trkpt>
      <trkpt lat="45.90452" lon="5.01359">
        <ele>281</ele>
        <time>2018-07-17T09:42:11Z</time>
      </trkpt>
      <trkpt lat="45.90452" lon="5.01351">
        <ele>281</ele>
        <time>2018-07-17T09:42:12Z</time>
      </trkpt>
      <trkpt lat="45.90449" lon="5.01343">
        <ele>281</ele>
        <time>2018-07-17T09:42:13Z</time>
      </trkpt>
      <trkpt lat="45.90448" lon="5.01335">
        <ele>281</ele>
        <time>2018-07-17T09:42:14Z</time>
      </trkpt>
      <trkpt lat="45.90447" lon="5.01327">
        <ele>281</ele>
        <time>2018-07-17T09:42:15Z</time>
      </trkpt>
      <trkpt lat="45.90447" lon="5.01318">
        <ele>281</ele>
        <time>2018-07-17T09:42:16Z</time>
      </trkpt>
      <trkpt lat="45.90445" lon="5.01309">
        <ele>281</ele>
        <time>2018-07-17T09:42:17Z</time>
      </trkpt>
      <trkpt lat="45.90444" lon="5.013">
        <ele>281</ele>
        <time>2018-07-17T09:42:18Z</time>
      </trkpt>
      <trkpt lat="45.90445" lon="5.01293">
        <ele>281</ele>
        <time>2018-07-17T09:42:19Z</time>
      </trkpt>
      <trkpt lat="45.90444" lon="5.01286">
        <ele>281</ele>
        <time>2018-07-17T09:42:20Z</time>
      </trkpt>
      <trkpt lat="45.90445" lon="5.01278">
        <ele>281</ele>
        <time>2018-07-17T09:42:21Z</time>
      </trkpt>
      <trkpt lat="45.90445" lon="5.01269">
        <ele>281</ele>
        <time>2018-07-17T09:42:22Z</time>
      </trkpt>
      <trkpt lat="45.90445" lon="5.01263">
        <ele>281</ele>
        <time>2018-07-17T09:42:23Z</time>
      </trkpt>
      <trkpt lat="45.90444" lon="5.01254">
        <ele>281</ele>
        <time>2018-07-17T09:42:24Z</time>
      </trkpt>
      <trkpt lat="45.90443" lon="5.01245">
        <ele>282</ele>
        <time>2018-07-17T09:42:25Z</time>
      </trkpt>
      <trkpt lat="45.90444" lon="5.01236">
        <ele>281</ele>
        <time>2018-07-17T09:42:26Z</time>
      </trkpt>
      <trkpt lat="45.90444" lon="5.01228">
        <ele>281</ele>
        <time>2018-07-17T09:42:27Z</time>
      </trkpt>
      <trkpt lat="45.90442" lon="5.01219">
        <ele>281</ele>
        <time>2018-07-17T09:42:28Z</time>
      </trkpt>
      <trkpt lat="45.90442" lon="5.01211">
        <ele>281</ele>
        <time>2018-07-17T09:42:29Z</time>
      </trkpt>
      <trkpt lat="45.90442" lon="5.01201">
        <ele>281</ele>
        <time>2018-07-17T09:42:30Z</time>
      </trkpt>
      <trkpt lat="45.90441" lon="5.01191">
        <ele>281</ele>
        <time>2018-07-17T09:42:31Z</time>
      </trkpt>
      <trkpt lat="45.9044" lon="5.01181">
        <ele>282</ele>
        <time>2018-07-17T09:42:32Z</time>
      </trkpt>
      <trkpt lat="45.90441" lon="5.01172">
        <ele>282</ele>
        <time>2018-07-17T09:42:33Z</time>
      </trkpt>
      <trkpt lat="45.9044" lon="5.01161">
        <ele>282</ele>
        <time>2018-07-17T09:42:34Z</time>
      </trkpt>
      <trkpt lat="45.90439" lon="5.01151">
        <ele>282</ele>
        <time>2018-07-17T09:42:35Z</time>
      </trkpt>
      <trkpt lat="45.90438" lon="5.01143">
        <ele>282</ele>
        <time>2018-07-17T09:42:36Z</time>
      </trkpt>
      <trkpt lat="45.90437" lon="5.01134">
        <ele>282</ele>
        <time>2018-07-17T09:42:37Z</time>
      </trkpt>
      <trkpt lat="45.90435" lon="5.01125">
        <ele>282</ele>
        <time>2018-07-17T09:42:38Z</time>
      </trkpt>
      <trkpt lat="45.90434" lon="5.01117">
        <ele>282</ele>
        <time>2018-07-17T09:42:39Z</time>
      </trkpt>
      <trkpt lat="45.90433" lon="5.01109">
        <ele>282</ele>
        <time>2018-07-17T09:42:40Z</time>
      </trkpt>
      <trkpt lat="45.90433" lon="5.011">
        <ele>282</ele>
        <time>2018-07-17T09:42:41Z</time>
      </trkpt>
      <trkpt lat="45.90433" lon="5.01091">
        <ele>282</ele>
        <time>2018-07-17T09:42:42Z</time>
      </trkpt>
      <trkpt lat="45.90433" lon="5.01084">
        <ele>282</ele>
        <time>2018-07-17T09:42:43Z</time>
      </trkpt>
      <trkpt lat="45.90432" lon="5.01075">
        <ele>282</ele>
        <time>2018-07-17T09:42:44Z</time>
      </trkpt>
      <trkpt lat="45.90431" lon="5.01066">
        <ele>282</ele>
        <time>2018-07-17T09:42:45Z</time>
      </trkpt>
      <trkpt lat="45.90431" lon="5.01058">
        <ele>282</ele>
        <time>2018-07-17T09:42:46Z</time>
      </trkpt>
      <trkpt lat="45.90429" lon="5.01049">
        <ele>282</ele>
        <time>2018-07-17T09:42:47Z</time>
      </trkpt>
      <trkpt lat="45.90427" lon="5.01038">
        <ele>282</ele>
        <time>2018-07-17T09:42:48Z</time>
      </trkpt>
      <trkpt lat="45.90425" lon="5.01029">
        <ele>282</ele>
        <time>2018-07-17T09:42:49Z</time>
      </trkpt>
      <trkpt lat="45.90424" lon="5.0102">
        <ele>282</ele>
        <time>2018-07-17T09:42:50Z</time>
      </trkpt>
      <trkpt lat="45.90424" lon="5.01011">
        <ele>282</ele>
        <time>2018-07-17T09:42:51Z</time>
      </trkpt>
      <trkpt lat="45.90422" lon="5.01002">
        <ele>282</ele>
        <time>2018-07-17T09:42:52Z</time>
      </trkpt>
      <trkpt lat="45.90422" lon="5.00995">
        <ele>282</ele>
        <time>2018-07-17T09:42:53Z</time>
      </trkpt>
      <trkpt lat="45.90421" lon="5.00987">
        <ele>282</ele>
        <time>2018-07-17T09:42:54Z</time>
      </trkpt>
      <trkpt lat="45.90421" lon="5.00979">
        <ele>282</ele>
        <time>2018-07-17T09:42:55Z</time>
      </trkpt>
      <trkpt lat="45.9042" lon="5.0097">
        <ele>282</ele>
        <time>2018-07-17T09:42:56Z</time>
      </trkpt>
      <trkpt lat="45.90419" lon="5.00962">
        <ele>282</ele>
        <time>2018-07-17T09:42:57Z</time>
      </trkpt>
      <trkpt lat="45.90419" lon="5.00954">
        <ele>282</ele>
        <time>2018-07-17T09:42:58Z</time>
      </trkpt>
      <trkpt lat="45.90419" lon="5.00947">
        <ele>282</ele>
        <time>2018-07-17T09:42:59Z</time>
      </trkpt>
      <trkpt lat="45.90419" lon="5.00939">
        <ele>283</ele>
        <time>2018-07-17T09:43:00Z</time>
      </trkpt>
      <trkpt lat="45.90418" lon="5.00931">
        <ele>283</ele>
        <time>2018-07-17T09:43:01Z</time>
      </trkpt>
      <trkpt lat="45.90418" lon="5.00923">
        <ele>283</ele>
        <time>2018-07-17T09:43:02Z</time>
      </trkpt>
      <trkpt lat="45.90417" lon="5.00915">
        <ele>283</ele>
        <time>2018-07-17T09:43:03Z</time>
      </trkpt>
      <trkpt lat="45.90418" lon="5.00908">
        <ele>283</ele>
        <time>2018-07-17T09:43:04Z</time>
      </trkpt>
      <trkpt lat="45.90417" lon="5.00901">
        <ele>283</ele>
        <time>2018-07-17T09:43:05Z</time>
      </trkpt>
      <trkpt lat="45.90417" lon="5.00893">
        <ele>283</ele>
        <time>2018-07-17T09:43:06Z</time>
      </trkpt>
      <trkpt lat="45.90418" lon="5.00885">
        <ele>283</ele>
        <time>2018-07-17T09:43:07Z</time>
      </trkpt>
      <trkpt lat="45.90416" lon="5.00876">
        <ele>284</ele>
        <time>2018-07-17T09:43:08Z</time>
      </trkpt>
      <trkpt lat="45.90414" lon="5.00866">
        <ele>284</ele>
        <time>2018-07-17T09:43:09Z</time>
      </trkpt>
      <trkpt lat="45.90413" lon="5.00858">
        <ele>284</ele>
        <time>2018-07-17T09:43:10Z</time>
      </trkpt>
      <trkpt lat="45.90412" lon="5.0085">
        <ele>284</ele>
        <time>2018-07-17T09:43:11Z</time>
      </trkpt>
      <trkpt lat="45.90412" lon="5.00842">
        <ele>283</ele>
        <time>2018-07-17T09:43:12Z</time>
      </trkpt>
      <trkpt lat="45.90411" lon="5.00833">
        <ele>283</ele>
        <time>2018-07-17T09:43:13Z</time>
      </trkpt>
      <trkpt lat="45.90411" lon="5.00825">
        <ele>283</ele>
        <time>2018-07-17T09:43:14Z</time>
      </trkpt>
      <trkpt lat="45.9041" lon="5.00819">
        <ele>283</ele>
        <time>2018-07-17T09:43:15Z</time>
      </trkpt>
      <trkpt lat="45.90409" lon="5.0081">
        <ele>283</ele>
        <time>2018-07-17T09:43:16Z</time>
      </trkpt>
      <trkpt lat="45.90408" lon="5.00802">
        <ele>283</ele>
        <time>2018-07-17T09:43:17Z</time>
      </trkpt>
      <trkpt lat="45.90407" lon="5.00794">
        <ele>283</ele>
        <time>2018-07-17T09:43:18Z</time>
      </trkpt>
      <trkpt lat="45.90406" lon="5.00786">
        <ele>283</ele>
        <time>2018-07-17T09:43:19Z</time>
      </trkpt>
      <trkpt lat="45.90405" lon="5.00778">
        <ele>283</ele>
        <time>2018-07-17T09:43:20Z</time>
      </trkpt>
      <trkpt lat="45.90405" lon="5.0077">
        <ele>283</ele>
        <time>2018-07-17T09:43:21Z</time>
      </trkpt>
      <trkpt lat="45.90403" lon="5.00762">
        <ele>283</ele>
        <time>2018-07-17T09:43:22Z</time>
      </trkpt>
      <trkpt lat="45.90402" lon="5.00753">
        <ele>283</ele>
        <time>2018-07-17T09:43:23Z</time>
      </trkpt>
      <trkpt lat="45.90402" lon="5.00744">
        <ele>282</ele>
        <time>2018-07-17T09:43:24Z</time>
      </trkpt>
      <trkpt lat="45.904" lon="5.00736">
        <ele>282</ele>
        <time>2018-07-17T09:43:25Z</time>
      </trkpt>
      <trkpt lat="45.904" lon="5.00727">
        <ele>282</ele>
        <time>2018-07-17T09:43:26Z</time>
      </trkpt>
      <trkpt lat="45.90398" lon="5.00719">
        <ele>282</ele>
        <time>2018-07-17T09:43:27Z</time>
      </trkpt>
      <trkpt lat="45.90398" lon="5.00711">
        <ele>282</ele>
        <time>2018-07-17T09:43:28Z</time>
      </trkpt>
      <trkpt lat="45.90397" lon="5.00703">
        <ele>282</ele>
        <time>2018-07-17T09:43:29Z</time>
      </trkpt>
      <trkpt lat="45.90397" lon="5.00696">
        <ele>282</ele>
        <time>2018-07-17T09:43:30Z</time>
      </trkpt>
      <trkpt lat="45.90395" lon="5.00686">
        <ele>282</ele>
        <time>2018-07-17T09:43:31Z</time>
      </trkpt>
      <trkpt lat="45.90394" lon="5.00678">
        <ele>282</ele>
        <time>2018-07-17T09:43:32Z</time>
      </trkpt>
      <trkpt lat="45.90393" lon="5.00669">
        <ele>282</ele>
        <time>2018-07-17T09:43:33Z</time>
      </trkpt>
      <trkpt lat="45.90392" lon="5.0066">
        <ele>282</ele>
        <time>2018-07-17T09:43:34Z</time>
      </trkpt>
      <trkpt lat="45.90392" lon="5.00652">
        <ele>282</ele>
        <time>2018-07-17T09:43:35Z</time>
      </trkpt>
      <trkpt lat="45.90391" lon="5.00644">
        <ele>282</ele>
        <time>2018-07-17T09:43:36Z</time>
      </trkpt>
      <trkpt lat="45.9039" lon="5.00636">
        <ele>282</ele>
        <time>2018-07-17T09:43:37Z</time>
      </trkpt>
      <trkpt lat="45.90389" lon="5.00628">
        <ele>282</ele>
        <time>2018-07-17T09:43:38Z</time>
      </trkpt>
      <trkpt lat="45.9039" lon="5.00622">
        <ele>282</ele>
        <time>2018-07-17T09:43:39Z</time>
      </trkpt>
      <trkpt lat="45.90389" lon="5.00613">
        <ele>282</ele>
        <time>2018-07-17T09:43:40Z</time>
      </trkpt>
      <trkpt lat="45.90389" lon="5.00605">
        <ele>282</ele>
        <time>2018-07-17T09:43:41Z</time>
      </trkpt>
      <trkpt lat="45.90387" lon="5.00596">
        <ele>282</ele>
        <time>2018-07-17T09:43:42Z</time>
      </trkpt>
      <trkpt lat="45.90384" lon="5.00588">
        <ele>282</ele>
        <time>2018-07-17T09:43:43Z</time>
      </trkpt>
      <trkpt lat="45.90384" lon="5.0058">
        <ele>281</ele>
        <time>2018-07-17T09:43:44Z</time>
      </trkpt>
      <trkpt lat="45.90384" lon="5.00572">
        <ele>281</ele>
        <time>2018-07-17T09:43:45Z</time>
      </trkpt>
      <trkpt lat="45.90383" lon="5.00564">
        <ele>281</ele>
        <time>2018-07-17T09:43:46Z</time>
      </trkpt>
      <trkpt lat="45.90382" lon="5.00557">
        <ele>281</ele>
        <time>2018-07-17T09:43:47Z</time>
      </trkpt>
      <trkpt lat="45.9038" lon="5.0055">
        <ele>281</ele>
        <time>2018-07-17T09:43:48Z</time>
      </trkpt>
      <trkpt lat="45.90377" lon="5.00544">
        <ele>281</ele>
        <time>2018-07-17T09:43:49Z</time>
      </trkpt>
      <trkpt lat="45.90373" lon="5.00537">
        <ele>281</ele>
        <time>2018-07-17T09:43:50Z</time>
      </trkpt>
      <trkpt lat="45.9037" lon="5.00531">
        <ele>281</ele>
        <time>2018-07-17T09:43:51Z</time>
      </trkpt>
      <trkpt lat="45.90365" lon="5.00527">
        <ele>281</ele>
        <time>2018-07-17T09:43:52Z</time>
      </trkpt>
      <trkpt lat="45.90362" lon="5.00522">
        <ele>281</ele>
        <time>2018-07-17T09:43:53Z</time>
      </trkpt>
      <trkpt lat="45.90358" lon="5.00517">
        <ele>281</ele>
        <time>2018-07-17T09:43:54Z</time>
      </trkpt>
      <trkpt lat="45.90353" lon="5.00507">
        <ele>281</ele>
        <time>2018-07-17T09:43:56Z</time>
      </trkpt>
      <trkpt lat="45.90346" lon="5.00502">
        <ele>280</ele>
        <time>2018-07-17T09:43:57Z</time>
      </trkpt>
      <trkpt lat="45.90342" lon="5.00495">
        <ele>280</ele>
        <time>2018-07-17T09:43:58Z</time>
      </trkpt>
      <trkpt lat="45.90337" lon="5.0049">
        <ele>280</ele>
        <time>2018-07-17T09:43:59Z</time>
      </trkpt>
      <trkpt lat="45.90333" lon="5.00482">
        <ele>280</ele>
        <time>2018-07-17T09:44:00Z</time>
      </trkpt>
      <trkpt lat="45.90329" lon="5.00477">
        <ele>280</ele>
        <time>2018-07-17T09:44:01Z</time>
      </trkpt>
      <trkpt lat="45.90325" lon="5.00471">
        <ele>280</ele>
        <time>2018-07-17T09:44:02Z</time>
      </trkpt>
      <trkpt lat="45.90321" lon="5.00464">
        <ele>280</ele>
        <time>2018-07-17T09:44:03Z</time>
      </trkpt>
      <trkpt lat="45.90316" lon="5.00458">
        <ele>279</ele>
        <time>2018-07-17T09:44:04Z</time>
      </trkpt>
      <trkpt lat="45.90311" lon="5.00453">
        <ele>279</ele>
        <time>2018-07-17T09:44:05Z</time>
      </trkpt>
      <trkpt lat="45.90307" lon="5.00447">
        <ele>279</ele>
        <time>2018-07-17T09:44:06Z</time>
      </trkpt>
      <trkpt lat="45.90303" lon="5.00441">
        <ele>279</ele>
        <time>2018-07-17T09:44:07Z</time>
      </trkpt>
      <trkpt lat="45.90297" lon="5.00436">
        <ele>279</ele>
        <time>2018-07-17T09:44:08Z</time>
      </trkpt>
      <trkpt lat="45.90292" lon="5.00429">
        <ele>279</ele>
        <time>2018-07-17T09:44:09Z</time>
      </trkpt>
      <trkpt lat="45.90287" lon="5.00423">
        <ele>279</ele>
        <time>2018-07-17T09:44:10Z</time>
      </trkpt>
      <trkpt lat="45.90281" lon="5.00416">
        <ele>279</ele>
        <time>2018-07-17T09:44:11Z</time>
      </trkpt>
      <trkpt lat="45.90278" lon="5.00409">
        <ele>279</ele>
        <time>2018-07-17T09:44:12Z</time>
      </trkpt>
      <trkpt lat="45.90271" lon="5.00402">
        <ele>279</ele>
        <time>2018-07-17T09:44:13Z</time>
      </trkpt>
      <trkpt lat="45.90266" lon="5.00395">
        <ele>278</ele>
        <time>2018-07-17T09:44:14Z</time>
      </trkpt>
      <trkpt lat="45.90261" lon="5.00388">
        <ele>278</ele>
        <time>2018-07-17T09:44:15Z</time>
      </trkpt>
      <trkpt lat="45.90257" lon="5.00381">
        <ele>278</ele>
        <time>2018-07-17T09:44:16Z</time>
      </trkpt>
      <trkpt lat="45.90251" lon="5.00374">
        <ele>278</ele>
        <time>2018-07-17T09:44:17Z</time>
      </trkpt>
      <trkpt lat="45.90246" lon="5.00368">
        <ele>277</ele>
        <time>2018-07-17T09:44:18Z</time>
      </trkpt>
      <trkpt lat="45.90241" lon="5.0036">
        <ele>277</ele>
        <time>2018-07-17T09:44:19Z</time>
      </trkpt>
      <trkpt lat="45.90238" lon="5.00352">
        <ele>277</ele>
        <time>2018-07-17T09:44:20Z</time>
      </trkpt>
      <trkpt lat="45.90235" lon="5.00344">
        <ele>277</ele>
        <time>2018-07-17T09:44:21Z</time>
      </trkpt>
      <trkpt lat="45.90231" lon="5.00334">
        <ele>277</ele>
        <time>2018-07-17T09:44:22Z</time>
      </trkpt>
      <trkpt lat="45.90232" lon="5.00325">
        <ele>277</ele>
        <time>2018-07-17T09:44:23Z</time>
      </trkpt>
      <trkpt lat="45.90232" lon="5.00316">
        <ele>277</ele>
        <time>2018-07-17T09:44:24Z</time>
      </trkpt>
      <trkpt lat="45.9023" lon="5.00304">
        <ele>277</ele>
        <time>2018-07-17T09:44:25Z</time>
      </trkpt>
      <trkpt lat="45.9023" lon="5.00293">
        <ele>277</ele>
        <time>2018-07-17T09:44:26Z</time>
      </trkpt>
      <trkpt lat="45.90231" lon="5.00286">
        <ele>277</ele>
        <time>2018-07-17T09:44:27Z</time>
      </trkpt>
      <trkpt lat="45.90232" lon="5.00277">
        <ele>277</ele>
        <time>2018-07-17T09:44:28Z</time>
      </trkpt>
      <trkpt lat="45.9023" lon="5.00266">
        <ele>277</ele>
        <time>2018-07-17T09:44:29Z</time>
      </trkpt>
      <trkpt lat="45.90229" lon="5.00258">
        <ele>277</ele>
        <time>2018-07-17T09:44:30Z</time>
      </trkpt>
      <trkpt lat="45.9023" lon="5.0025">
        <ele>277</ele>
        <time>2018-07-17T09:44:31Z</time>
      </trkpt>
      <trkpt lat="45.90233" lon="5.00243">
        <ele>277</ele>
        <time>2018-07-17T09:44:32Z</time>
      </trkpt>
      <trkpt lat="45.90234" lon="5.00234">
        <ele>277</ele>
        <time>2018-07-17T09:44:33Z</time>
      </trkpt>
      <trkpt lat="45.90234" lon="5.00226">
        <ele>277</ele>
        <time>2018-07-17T09:44:34Z</time>
      </trkpt>
      <trkpt lat="45.90235" lon="5.00218">
        <ele>277</ele>
        <time>2018-07-17T09:44:35Z</time>
      </trkpt>
      <trkpt lat="45.90236" lon="5.00211">
        <ele>277</ele>
        <time>2018-07-17T09:44:36Z</time>
      </trkpt>
      <trkpt lat="45.90236" lon="5.00203">
        <ele>277</ele>
        <time>2018-07-17T09:44:37Z</time>
      </trkpt>
      <trkpt lat="45.90237" lon="5.00197">
        <ele>277</ele>
        <time>2018-07-17T09:44:38Z</time>
      </trkpt>
      <trkpt lat="45.90238" lon="5.00191">
        <ele>277</ele>
        <time>2018-07-17T09:44:39Z</time>
      </trkpt>
      <trkpt lat="45.90239" lon="5.00183">
        <ele>278</ele>
        <time>2018-07-17T09:44:40Z</time>
      </trkpt>
      <trkpt lat="45.9024" lon="5.00176">
        <ele>278</ele>
        <time>2018-07-17T09:44:41Z</time>
      </trkpt>
      <trkpt lat="45.9024" lon="5.00169">
        <ele>278</ele>
        <time>2018-07-17T09:44:42Z</time>
      </trkpt>
      <trkpt lat="45.90241" lon="5.00163">
        <ele>278</ele>
        <time>2018-07-17T09:44:43Z</time>
      </trkpt>
      <trkpt lat="45.9024" lon="5.00155">
        <ele>279</ele>
        <time>2018-07-17T09:44:44Z</time>
      </trkpt>
      <trkpt lat="45.90239" lon="5.00149">
        <ele>279</ele>
        <time>2018-07-17T09:44:45Z</time>
      </trkpt>
      <trkpt lat="45.90242" lon="5.00137">
        <ele>279</ele>
        <time>2018-07-17T09:44:47Z</time>
      </trkpt>
      <trkpt lat="45.90241" lon="5.0013">
        <ele>279</ele>
        <time>2018-07-17T09:44:48Z</time>
      </trkpt>
      <trkpt lat="45.90243" lon="5.00118">
        <ele>280</ele>
        <time>2018-07-17T09:44:50Z</time>
      </trkpt>
      <trkpt lat="45.90244" lon="5.00115">
        <ele>280</ele>
        <time>2018-07-17T09:44:51Z</time>
      </trkpt>
      <trkpt lat="45.90246" lon="5.00106">
        <ele>280</ele>
        <time>2018-07-17T09:44:52Z</time>
      </trkpt>
      <trkpt lat="45.90246" lon="5.00099">
        <ele>281</ele>
        <time>2018-07-17T09:44:53Z</time>
      </trkpt>
      <trkpt lat="45.90247" lon="5.00086">
        <ele>282</ele>
        <time>2018-07-17T09:44:55Z</time>
      </trkpt>
      <trkpt lat="45.90246" lon="5.00079">
        <ele>282</ele>
        <time>2018-07-17T09:44:56Z</time>
      </trkpt>
      <trkpt lat="45.90246" lon="5.00066">
        <ele>283</ele>
        <time>2018-07-17T09:44:58Z</time>
      </trkpt>
      <trkpt lat="45.90246" lon="5.0006">
        <ele>283</ele>
        <time>2018-07-17T09:44:59Z</time>
      </trkpt>
      <trkpt lat="45.90247" lon="5.00048">
        <ele>283</ele>
        <time>2018-07-17T09:45:01Z</time>
      </trkpt>
      <trkpt lat="45.90247" lon="5.00041">
        <ele>284</ele>
        <time>2018-07-17T09:45:02Z</time>
      </trkpt>
      <trkpt lat="45.90249" lon="5.0003">
        <ele>284</ele>
        <time>2018-07-17T09:45:04Z</time>
      </trkpt>
      <trkpt lat="45.90249" lon="5.00027">
        <ele>284</ele>
        <time>2018-07-17T09:45:05Z</time>
      </trkpt>
      <trkpt lat="45.90251" lon="5.00019">
        <ele>283</ele>
        <time>2018-07-17T09:45:06Z</time>
      </trkpt>
      <trkpt lat="45.90251" lon="5.00014">
        <ele>284</ele>
        <time>2018-07-17T09:45:07Z</time>
      </trkpt>
      <trkpt lat="45.90251" lon="5.00004">
        <ele>284</ele>
        <time>2018-07-17T09:45:09Z</time>
      </trkpt>
      <trkpt lat="45.90251" lon="4.99996">
        <ele>285</ele>
        <time>2018-07-17T09:45:10Z</time>
      </trkpt>
      <trkpt lat="45.90253" lon="4.99985">
        <ele>284</ele>
        <time>2018-07-17T09:45:12Z</time>
      </trkpt>
      <trkpt lat="45.90251" lon="4.99977">
        <ele>284</ele>
        <time>2018-07-17T09:45:13Z</time>
      </trkpt>
      <trkpt lat="45.90251" lon="4.99971">
        <ele>284</ele>
        <time>2018-07-17T09:45:14Z</time>
      </trkpt>
      <trkpt lat="45.90253" lon="4.99964">
        <ele>284</ele>
        <time>2018-07-17T09:45:15Z</time>
      </trkpt>
      <trkpt lat="45.90253" lon="4.99952">
        <ele>284</ele>
        <time>2018-07-17T09:45:17Z</time>
      </trkpt>
      <trkpt lat="45.90253" lon="4.99946">
        <ele>284</ele>
        <time>2018-07-17T09:45:18Z</time>
      </trkpt>
      <trkpt lat="45.90257" lon="4.99936">
        <ele>285</ele>
        <time>2018-07-17T09:45:20Z</time>
      </trkpt>
      <trkpt lat="45.90258" lon="4.9993">
        <ele>285</ele>
        <time>2018-07-17T09:45:21Z</time>
      </trkpt>
      <trkpt lat="45.90258" lon="4.99923">
        <ele>286</ele>
        <time>2018-07-17T09:45:22Z</time>
      </trkpt>
      <trkpt lat="45.9026" lon="4.99917">
        <ele>286</ele>
        <time>2018-07-17T09:45:23Z</time>
      </trkpt>
      <trkpt lat="45.90261" lon="4.99906">
        <ele>285</ele>
        <time>2018-07-17T09:45:25Z</time>
      </trkpt>
      <trkpt lat="45.90261" lon="4.99899">
        <ele>285</ele>
        <time>2018-07-17T09:45:26Z</time>
      </trkpt>
      <trkpt lat="45.90259" lon="4.99887">
        <ele>285</ele>
        <time>2018-07-17T09:45:28Z</time>
      </trkpt>
      <trkpt lat="45.90259" lon="4.99882">
        <ele>285</ele>
        <time>2018-07-17T09:45:29Z</time>
      </trkpt>
      <trkpt lat="45.90254" lon="4.99873">
        <ele>285</ele>
        <time>2018-07-17T09:45:31Z</time>
      </trkpt>
      <trkpt lat="45.90252" lon="4.99866">
        <ele>285</ele>
        <time>2018-07-17T09:45:32Z</time>
      </trkpt>
      <trkpt lat="45.90246" lon="4.99858">
        <ele>287</ele>
        <time>2018-07-17T09:45:34Z</time>
      </trkpt>
      <trkpt lat="45.90244" lon="4.99854">
        <ele>287</ele>
        <time>2018-07-17T09:45:35Z</time>
      </trkpt>
      <trkpt lat="45.9024" lon="4.99845">
        <ele>287</ele>
        <time>2018-07-17T09:45:37Z</time>
      </trkpt>
      <trkpt lat="45.90239" lon="4.99838">
        <ele>287</ele>
        <time>2018-07-17T09:45:38Z</time>
      </trkpt>
      <trkpt lat="45.90237" lon="4.99827">
        <ele>287</ele>
        <time>2018-07-17T09:45:40Z</time>
      </trkpt>
      <trkpt lat="45.90236" lon="4.99821">
        <ele>287</ele>
        <time>2018-07-17T09:45:41Z</time>
      </trkpt>
      <trkpt lat="45.90236" lon="4.9981">
        <ele>287</ele>
        <time>2018-07-17T09:45:43Z</time>
      </trkpt>
      <trkpt lat="45.90235" lon="4.99804">
        <ele>287</ele>
        <time>2018-07-17T09:45:44Z</time>
      </trkpt>
      <trkpt lat="45.90233" lon="4.99792">
        <ele>287</ele>
        <time>2018-07-17T09:45:46Z</time>
      </trkpt>
      <trkpt lat="45.90233" lon="4.99786">
        <ele>287</ele>
        <time>2018-07-17T09:45:47Z</time>
      </trkpt>
      <trkpt lat="45.90231" lon="4.99775">
        <ele>288</ele>
        <time>2018-07-17T09:45:49Z</time>
      </trkpt>
      <trkpt lat="45.90232" lon="4.99769">
        <ele>288</ele>
        <time>2018-07-17T09:45:50Z</time>
      </trkpt>
      <trkpt lat="45.90232" lon="4.99763">
        <ele>288</ele>
        <time>2018-07-17T09:45:51Z</time>
      </trkpt>
      <trkpt lat="45.9023" lon="4.99756">
        <ele>288</ele>
        <time>2018-07-17T09:45:52Z</time>
      </trkpt>
      <trkpt lat="45.90229" lon="4.99745">
        <ele>288</ele>
        <time>2018-07-17T09:45:54Z</time>
      </trkpt>
      <trkpt lat="45.90229" lon="4.99739">
        <ele>288</ele>
        <time>2018-07-17T09:45:55Z</time>
      </trkpt>
      <trkpt lat="45.90229" lon="4.99733">
        <ele>288</ele>
        <time>2018-07-17T09:45:57Z</time>
      </trkpt>
      <trkpt lat="45.90227" lon="4.99723">
        <ele>288</ele>
        <time>2018-07-17T09:45:58Z</time>
      </trkpt>
      <trkpt lat="45.90227" lon="4.99716">
        <ele>288</ele>
        <time>2018-07-17T09:46:00Z</time>
      </trkpt>
      <trkpt lat="45.90227" lon="4.99708">
        <ele>288</ele>
        <time>2018-07-17T09:46:01Z</time>
      </trkpt>
      <trkpt lat="45.90225" lon="4.99696">
        <ele>288</ele>
        <time>2018-07-17T09:46:03Z</time>
      </trkpt>
      <trkpt lat="45.90224" lon="4.9969">
        <ele>288</ele>
        <time>2018-07-17T09:46:04Z</time>
      </trkpt>
      <trkpt lat="45.90221" lon="4.99678">
        <ele>288</ele>
        <time>2018-07-17T09:46:06Z</time>
      </trkpt>
      <trkpt lat="45.9022" lon="4.99672">
        <ele>288</ele>
        <time>2018-07-17T09:46:07Z</time>
      </trkpt>
      <trkpt lat="45.90217" lon="4.99661">
        <ele>287</ele>
        <time>2018-07-17T09:46:09Z</time>
      </trkpt>
      <trkpt lat="45.90215" lon="4.99656">
        <ele>287</ele>
        <time>2018-07-17T09:46:10Z</time>
      </trkpt>
      <trkpt lat="45.90213" lon="4.99644">
        <ele>287</ele>
        <time>2018-07-17T09:46:12Z</time>
      </trkpt>
      <trkpt lat="45.90211" lon="4.99638">
        <ele>287</ele>
        <time>2018-07-17T09:46:13Z</time>
      </trkpt>
      <trkpt lat="45.9021" lon="4.99628">
        <ele>287</ele>
        <time>2018-07-17T09:46:15Z</time>
      </trkpt>
      <trkpt lat="45.9021" lon="4.99621">
        <ele>287</ele>
        <time>2018-07-17T09:46:16Z</time>
      </trkpt>
      <trkpt lat="45.90211" lon="4.99614">
        <ele>287</ele>
        <time>2018-07-17T09:46:17Z</time>
      </trkpt>
      <trkpt lat="45.9021" lon="4.99607">
        <ele>287</ele>
        <time>2018-07-17T09:46:18Z</time>
      </trkpt>
      <trkpt lat="45.90207" lon="4.99599">
        <ele>287</ele>
        <time>2018-07-17T09:46:19Z</time>
      </trkpt>
      <trkpt lat="45.90206" lon="4.9959">
        <ele>287</ele>
        <time>2018-07-17T09:46:20Z</time>
      </trkpt>
      <trkpt lat="45.90206" lon="4.99583">
        <ele>286</ele>
        <time>2018-07-17T09:46:21Z</time>
      </trkpt>
      <trkpt lat="45.90206" lon="4.99576">
        <ele>286</ele>
        <time>2018-07-17T09:46:22Z</time>
      </trkpt>
      <trkpt lat="45.90206" lon="4.99569">
        <ele>286</ele>
        <time>2018-07-17T09:46:23Z</time>
      </trkpt>
      <trkpt lat="45.90207" lon="4.99563">
        <ele>285</ele>
        <time>2018-07-17T09:46:24Z</time>
      </trkpt>
      <trkpt lat="45.90208" lon="4.99554">
        <ele>285</ele>
        <time>2018-07-17T09:46:25Z</time>
      </trkpt>
      <trkpt lat="45.90208" lon="4.99548">
        <ele>285</ele>
        <time>2018-07-17T09:46:26Z</time>
      </trkpt>
      <trkpt lat="45.9021" lon="4.99541">
        <ele>285</ele>
        <time>2018-07-17T09:46:27Z</time>
      </trkpt>
      <trkpt lat="45.90211" lon="4.99533">
        <ele>285</ele>
        <time>2018-07-17T09:46:28Z</time>
      </trkpt>
      <trkpt lat="45.90212" lon="4.99525">
        <ele>285</ele>
        <time>2018-07-17T09:46:29Z</time>
      </trkpt>
      <trkpt lat="45.90213" lon="4.99518">
        <ele>285</ele>
        <time>2018-07-17T09:46:30Z</time>
      </trkpt>
      <trkpt lat="45.90214" lon="4.99511">
        <ele>285</ele>
        <time>2018-07-17T09:46:31Z</time>
      </trkpt>
      <trkpt lat="45.90215" lon="4.99502">
        <ele>285</ele>
        <time>2018-07-17T09:46:32Z</time>
      </trkpt>
      <trkpt lat="45.90217" lon="4.99495">
        <ele>284</ele>
        <time>2018-07-17T09:46:33Z</time>
      </trkpt>
      <trkpt lat="45.90219" lon="4.99487">
        <ele>284</ele>
        <time>2018-07-17T09:46:34Z</time>
      </trkpt>
      <trkpt lat="45.90221" lon="4.9948">
        <ele>284</ele>
        <time>2018-07-17T09:46:35Z</time>
      </trkpt>
      <trkpt lat="45.90222" lon="4.99471">
        <ele>284</ele>
        <time>2018-07-17T09:46:36Z</time>
      </trkpt>
      <trkpt lat="45.90222" lon="4.99463">
        <ele>284</ele>
        <time>2018-07-17T09:46:37Z</time>
      </trkpt>
      <trkpt lat="45.90223" lon="4.99455">
        <ele>284</ele>
        <time>2018-07-17T09:46:38Z</time>
      </trkpt>
      <trkpt lat="45.90225" lon="4.99446">
        <ele>284</ele>
        <time>2018-07-17T09:46:39Z</time>
      </trkpt>
      <trkpt lat="45.90227" lon="4.99439">
        <ele>284</ele>
        <time>2018-07-17T09:46:40Z</time>
      </trkpt>
      <trkpt lat="45.90228" lon="4.9943">
        <ele>284</ele>
        <time>2018-07-17T09:46:41Z</time>
      </trkpt>
      <trkpt lat="45.90228" lon="4.99421">
        <ele>284</ele>
        <time>2018-07-17T09:46:42Z</time>
      </trkpt>
      <trkpt lat="45.90229" lon="4.99413">
        <ele>283</ele>
        <time>2018-07-17T09:46:43Z</time>
      </trkpt>
      <trkpt lat="45.9023" lon="4.99404">
        <ele>283</ele>
        <time>2018-07-17T09:46:44Z</time>
      </trkpt>
      <trkpt lat="45.90229" lon="4.99394">
        <ele>283</ele>
        <time>2018-07-17T09:46:45Z</time>
      </trkpt>
      <trkpt lat="45.9023" lon="4.99385">
        <ele>283</ele>
        <time>2018-07-17T09:46:46Z</time>
      </trkpt>
      <trkpt lat="45.9023" lon="4.99376">
        <ele>283</ele>
        <time>2018-07-17T09:46:47Z</time>
      </trkpt>
      <trkpt lat="45.9023" lon="4.99367">
        <ele>282</ele>
        <time>2018-07-17T09:46:48Z</time>
      </trkpt>
      <trkpt lat="45.90231" lon="4.99359">
        <ele>282</ele>
        <time>2018-07-17T09:46:49Z</time>
      </trkpt>
      <trkpt lat="45.90231" lon="4.9935">
        <ele>282</ele>
        <time>2018-07-17T09:46:50Z</time>
      </trkpt>
      <trkpt lat="45.90231" lon="4.99341">
        <ele>282</ele>
        <time>2018-07-17T09:46:51Z</time>
      </trkpt>
      <trkpt lat="45.90232" lon="4.99332">
        <ele>282</ele>
        <time>2018-07-17T09:46:52Z</time>
      </trkpt>
      <trkpt lat="45.90232" lon="4.99323">
        <ele>281</ele>
        <time>2018-07-17T09:46:53Z</time>
      </trkpt>
      <trkpt lat="45.90232" lon="4.99314">
        <ele>281</ele>
        <time>2018-07-17T09:46:54Z</time>
      </trkpt>
      <trkpt lat="45.90232" lon="4.99305">
        <ele>281</ele>
        <time>2018-07-17T09:46:55Z</time>
      </trkpt>
      <trkpt lat="45.90234" lon="4.99296">
        <ele>281</ele>
        <time>2018-07-17T09:46:56Z</time>
      </trkpt>
      <trkpt lat="45.90235" lon="4.99287">
        <ele>281</ele>
        <time>2018-07-17T09:46:57Z</time>
      </trkpt>
      <trkpt lat="45.90235" lon="4.99278">
        <ele>281</ele>
        <time>2018-07-17T09:46:58Z</time>
      </trkpt>
      <trkpt lat="45.90237" lon="4.99269">
        <ele>281</ele>
        <time>2018-07-17T09:46:59Z</time>
      </trkpt>
      <trkpt lat="45.90238" lon="4.99262">
        <ele>281</ele>
        <time>2018-07-17T09:47:00Z</time>
      </trkpt>
      <trkpt lat="45.90239" lon="4.99254">
        <ele>282</ele>
        <time>2018-07-17T09:47:01Z</time>
      </trkpt>
      <trkpt lat="45.90239" lon="4.99246">
        <ele>281</ele>
        <time>2018-07-17T09:47:02Z</time>
      </trkpt>
      <trkpt lat="45.90238" lon="4.99235">
        <ele>281</ele>
        <time>2018-07-17T09:47:03Z</time>
      </trkpt>
      <trkpt lat="45.90236" lon="4.99225">
        <ele>281</ele>
        <time>2018-07-17T09:47:04Z</time>
      </trkpt>
      <trkpt lat="45.90236" lon="4.99216">
        <ele>281</ele>
        <time>2018-07-17T09:47:05Z</time>
      </trkpt>
      <trkpt lat="45.90235" lon="4.99206">
        <ele>280</ele>
        <time>2018-07-17T09:47:06Z</time>
      </trkpt>
      <trkpt lat="45.90234" lon="4.99196">
        <ele>280</ele>
        <time>2018-07-17T09:47:07Z</time>
      </trkpt>
      <trkpt lat="45.90234" lon="4.99188">
        <ele>280</ele>
        <time>2018-07-17T09:47:08Z</time>
      </trkpt>
      <trkpt lat="45.90234" lon="4.99179">
        <ele>280</ele>
        <time>2018-07-17T09:47:09Z</time>
      </trkpt>
      <trkpt lat="45.90232" lon="4.9917">
        <ele>280</ele>
        <time>2018-07-17T09:47:10Z</time>
      </trkpt>
      <trkpt lat="45.90234" lon="4.99163">
        <ele>280</ele>
        <time>2018-07-17T09:47:11Z</time>
      </trkpt>
      <trkpt lat="45.90233" lon="4.99154">
        <ele>280</ele>
        <time>2018-07-17T09:47:12Z</time>
      </trkpt>
      <trkpt lat="45.90232" lon="4.99145">
        <ele>280</ele>
        <time>2018-07-17T09:47:13Z</time>
      </trkpt>
      <trkpt lat="45.90232" lon="4.99136">
        <ele>280</ele>
        <time>2018-07-17T09:47:14Z</time>
      </trkpt>
      <trkpt lat="45.90231" lon="4.99126">
        <ele>280</ele>
        <time>2018-07-17T09:47:15Z</time>
      </trkpt>
      <trkpt lat="45.9023" lon="4.99116">
        <ele>281</ele>
        <time>2018-07-17T09:47:16Z</time>
      </trkpt>
      <trkpt lat="45.9023" lon="4.99108">
        <ele>281</ele>
        <time>2018-07-17T09:47:17Z</time>
      </trkpt>
      <trkpt lat="45.90229" lon="4.99098">
        <ele>281</ele>
        <time>2018-07-17T09:47:18Z</time>
      </trkpt>
      <trkpt lat="45.90228" lon="4.9909">
        <ele>281</ele>
        <time>2018-07-17T09:47:19Z</time>
      </trkpt>
      <trkpt lat="45.90227" lon="4.9908">
        <ele>281</ele>
        <time>2018-07-17T09:47:20Z</time>
      </trkpt>
      <trkpt lat="45.90228" lon="4.99071">
        <ele>281</ele>
        <time>2018-07-17T09:47:21Z</time>
      </trkpt>
      <trkpt lat="45.90226" lon="4.99066">
        <ele>281</ele>
        <time>2018-07-17T09:47:22Z</time>
      </trkpt>
      <trkpt lat="45.90226" lon="4.99057">
        <ele>280</ele>
        <time>2018-07-17T09:47:23Z</time>
      </trkpt>
      <trkpt lat="45.90226" lon="4.9905">
        <ele>280</ele>
        <time>2018-07-17T09:47:24Z</time>
      </trkpt>
      <trkpt lat="45.90223" lon="4.99041">
        <ele>280</ele>
        <time>2018-07-17T09:47:25Z</time>
      </trkpt>
      <trkpt lat="45.90224" lon="4.99033">
        <ele>280</ele>
        <time>2018-07-17T09:47:26Z</time>
      </trkpt>
      <trkpt lat="45.90222" lon="4.99024">
        <ele>280</ele>
        <time>2018-07-17T09:47:27Z</time>
      </trkpt>
      <trkpt lat="45.90221" lon="4.99016">
        <ele>280</ele>
        <time>2018-07-17T09:47:28Z</time>
      </trkpt>
      <trkpt lat="45.90222" lon="4.99009">
        <ele>280</ele>
        <time>2018-07-17T09:47:29Z</time>
      </trkpt>
      <trkpt lat="45.90222" lon="4.99">
        <ele>280</ele>
        <time>2018-07-17T09:47:30Z</time>
      </trkpt>
      <trkpt lat="45.90222" lon="4.98991">
        <ele>280</ele>
        <time>2018-07-17T09:47:31Z</time>
      </trkpt>
      <trkpt lat="45.90222" lon="4.98983">
        <ele>280</ele>
        <time>2018-07-17T09:47:32Z</time>
      </trkpt>
      <trkpt lat="45.90221" lon="4.98974">
        <ele>280</ele>
        <time>2018-07-17T09:47:33Z</time>
      </trkpt>
      <trkpt lat="45.90222" lon="4.98966">
        <ele>280</ele>
        <time>2018-07-17T09:47:34Z</time>
      </trkpt>
      <trkpt lat="45.90222" lon="4.98959">
        <ele>280</ele>
        <time>2018-07-17T09:47:35Z</time>
      </trkpt>
      <trkpt lat="45.90222" lon="4.98951">
        <ele>280</ele>
        <time>2018-07-17T09:47:36Z</time>
      </trkpt>
      <trkpt lat="45.90222" lon="4.98942">
        <ele>280</ele>
        <time>2018-07-17T09:47:37Z</time>
      </trkpt>
      <trkpt lat="45.90222" lon="4.98935">
        <ele>280</ele>
        <time>2018-07-17T09:47:38Z</time>
      </trkpt>
      <trkpt lat="45.90222" lon="4.98926">
        <ele>280</ele>
        <time>2018-07-17T09:47:39Z</time>
      </trkpt>
      <trkpt lat="45.90222" lon="4.98918">
        <ele>280</ele>
        <time>2018-07-17T09:47:40Z</time>
      </trkpt>
      <trkpt lat="45.90221" lon="4.98909">
        <ele>281</ele>
        <time>2018-07-17T09:47:41Z</time>
      </trkpt>
      <trkpt lat="45.90221" lon="4.989">
        <ele>281</ele>
        <time>2018-07-17T09:47:42Z</time>
      </trkpt>
      <trkpt lat="45.90221" lon="4.98893">
        <ele>281</ele>
        <time>2018-07-17T09:47:43Z</time>
      </trkpt>
      <trkpt lat="45.90221" lon="4.98885">
        <ele>281</ele>
        <time>2018-07-17T09:47:44Z</time>
      </trkpt>
      <trkpt lat="45.90221" lon="4.98877">
        <ele>281</ele>
        <time>2018-07-17T09:47:45Z</time>
      </trkpt>
      <trkpt lat="45.90219" lon="4.98868">
        <ele>281</ele>
        <time>2018-07-17T09:47:46Z</time>
      </trkpt>
      <trkpt lat="45.90218" lon="4.98859">
        <ele>281</ele>
        <time>2018-07-17T09:47:47Z</time>
      </trkpt>
      <trkpt lat="45.90217" lon="4.98851">
        <ele>281</ele>
        <time>2018-07-17T09:47:48Z</time>
      </trkpt>
      <trkpt lat="45.90216" lon="4.98844">
        <ele>281</ele>
        <time>2018-07-17T09:47:49Z</time>
      </trkpt>
      <trkpt lat="45.90214" lon="4.98836">
        <ele>281</ele>
        <time>2018-07-17T09:47:50Z</time>
      </trkpt>
      <trkpt lat="45.90213" lon="4.98829">
        <ele>281</ele>
        <time>2018-07-17T09:47:51Z</time>
      </trkpt>
      <trkpt lat="45.90212" lon="4.98821">
        <ele>281</ele>
        <time>2018-07-17T09:47:52Z</time>
      </trkpt>
      <trkpt lat="45.9021" lon="4.98814">
        <ele>281</ele>
        <time>2018-07-17T09:47:53Z</time>
      </trkpt>
      <trkpt lat="45.90207" lon="4.98806">
        <ele>281</ele>
        <time>2018-07-17T09:47:54Z</time>
      </trkpt>
      <trkpt lat="45.90206" lon="4.988">
        <ele>281</ele>
        <time>2018-07-17T09:47:55Z</time>
      </trkpt>
      <trkpt lat="45.90204" lon="4.98793">
        <ele>281</ele>
        <time>2018-07-17T09:47:56Z</time>
      </trkpt>
      <trkpt lat="45.90202" lon="4.98787">
        <ele>281</ele>
        <time>2018-07-17T09:47:57Z</time>
      </trkpt>
      <trkpt lat="45.90201" lon="4.9878">
        <ele>281</ele>
        <time>2018-07-17T09:47:58Z</time>
      </trkpt>
      <trkpt lat="45.90198" lon="4.98774">
        <ele>281</ele>
        <time>2018-07-17T09:47:59Z</time>
      </trkpt>
      <trkpt lat="45.90196" lon="4.98767">
        <ele>281</ele>
        <time>2018-07-17T09:48:00Z</time>
      </trkpt>
      <trkpt lat="45.90193" lon="4.98761">
        <ele>281</ele>
        <time>2018-07-17T09:48:01Z</time>
      </trkpt>
      <trkpt lat="45.90192" lon="4.98753">
        <ele>281</ele>
        <time>2018-07-17T09:48:02Z</time>
      </trkpt>
      <trkpt lat="45.90188" lon="4.98746">
        <ele>281</ele>
        <time>2018-07-17T09:48:03Z</time>
      </trkpt>
      <trkpt lat="45.90186" lon="4.98739">
        <ele>281</ele>
        <time>2018-07-17T09:48:04Z</time>
      </trkpt>
      <trkpt lat="45.90186" lon="4.98731">
        <ele>281</ele>
        <time>2018-07-17T09:48:05Z</time>
      </trkpt>
      <trkpt lat="45.90184" lon="4.98725">
        <ele>281</ele>
        <time>2018-07-17T09:48:06Z</time>
      </trkpt>
      <trkpt lat="45.90182" lon="4.98719">
        <ele>281</ele>
        <time>2018-07-17T09:48:07Z</time>
      </trkpt>
      <trkpt lat="45.9018" lon="4.98713">
        <ele>281</ele>
        <time>2018-07-17T09:48:08Z</time>
      </trkpt>
      <trkpt lat="45.90177" lon="4.98704">
        <ele>281</ele>
        <time>2018-07-17T09:48:09Z</time>
      </trkpt>
      <trkpt lat="45.90176" lon="4.98696">
        <ele>282</ele>
        <time>2018-07-17T09:48:10Z</time>
      </trkpt>
      <trkpt lat="45.90175" lon="4.98691">
        <ele>282</ele>
        <time>2018-07-17T09:48:11Z</time>
      </trkpt>
      <trkpt lat="45.90172" lon="4.98684">
        <ele>282</ele>
        <time>2018-07-17T09:48:12Z</time>
      </trkpt>
      <trkpt lat="45.9017" lon="4.98678">
        <ele>282</ele>
        <time>2018-07-17T09:48:13Z</time>
      </trkpt>
      <trkpt lat="45.90167" lon="4.98672">
        <ele>282</ele>
        <time>2018-07-17T09:48:14Z</time>
      </trkpt>
      <trkpt lat="45.90167" lon="4.98661">
        <ele>282</ele>
        <time>2018-07-17T09:48:16Z</time>
      </trkpt>
      <trkpt lat="45.90165" lon="4.98654">
        <ele>282</ele>
        <time>2018-07-17T09:48:17Z</time>
      </trkpt>
      <trkpt lat="45.90163" lon="4.98648">
        <ele>282</ele>
        <time>2018-07-17T09:48:18Z</time>
      </trkpt>
      <trkpt lat="45.90161" lon="4.98642">
        <ele>282</ele>
        <time>2018-07-17T09:48:19Z</time>
      </trkpt>
      <trkpt lat="45.90159" lon="4.9863">
        <ele>282</ele>
        <time>2018-07-17T09:48:21Z</time>
      </trkpt>
      <trkpt lat="45.90156" lon="4.98624">
        <ele>282</ele>
        <time>2018-07-17T09:48:22Z</time>
      </trkpt>
      <trkpt lat="45.90153" lon="4.98617">
        <ele>282</ele>
        <time>2018-07-17T09:48:23Z</time>
      </trkpt>
      <trkpt lat="45.90151" lon="4.98611">
        <ele>282</ele>
        <time>2018-07-17T09:48:24Z</time>
      </trkpt>
      <trkpt lat="45.90149" lon="4.98605">
        <ele>282</ele>
        <time>2018-07-17T09:48:25Z</time>
      </trkpt>
      <trkpt lat="45.90147" lon="4.98599">
        <ele>282</ele>
        <time>2018-07-17T09:48:26Z</time>
      </trkpt>
      <trkpt lat="45.90144" lon="4.98593">
        <ele>282</ele>
        <time>2018-07-17T09:48:27Z</time>
      </trkpt>
      <trkpt lat="45.90142" lon="4.98586">
        <ele>282</ele>
        <time>2018-07-17T09:48:28Z</time>
      </trkpt>
      <trkpt lat="45.9014" lon="4.98578">
        <ele>283</ele>
        <time>2018-07-17T09:48:29Z</time>
      </trkpt>
      <trkpt lat="45.90138" lon="4.98571">
        <ele>283</ele>
        <time>2018-07-17T09:48:30Z</time>
      </trkpt>
      <trkpt lat="45.90137" lon="4.98565">
        <ele>283</ele>
        <time>2018-07-17T09:48:31Z</time>
      </trkpt>
      <trkpt lat="45.90135" lon="4.98559">
        <ele>282</ele>
        <time>2018-07-17T09:48:32Z</time>
      </trkpt>
      <trkpt lat="45.90132" lon="4.98553">
        <ele>282</ele>
        <time>2018-07-17T09:48:33Z</time>
      </trkpt>
      <trkpt lat="45.9013" lon="4.98547">
        <ele>283</ele>
        <time>2018-07-17T09:48:34Z</time>
      </trkpt>
      <trkpt lat="45.90126" lon="4.9854">
        <ele>283</ele>
        <time>2018-07-17T09:48:35Z</time>
      </trkpt>
      <trkpt lat="45.90124" lon="4.98534">
        <ele>283</ele>
        <time>2018-07-17T09:48:36Z</time>
      </trkpt>
      <trkpt lat="45.9012" lon="4.98527">
        <ele>283</ele>
        <time>2018-07-17T09:48:37Z</time>
      </trkpt>
      <trkpt lat="45.90117" lon="4.98521">
        <ele>283</ele>
        <time>2018-07-17T09:48:38Z</time>
      </trkpt>
      <trkpt lat="45.90115" lon="4.98515">
        <ele>283</ele>
        <time>2018-07-17T09:48:39Z</time>
      </trkpt>
      <trkpt lat="45.90113" lon="4.98509">
        <ele>283</ele>
        <time>2018-07-17T09:48:40Z</time>
      </trkpt>
      <trkpt lat="45.90109" lon="4.98497">
        <ele>283</ele>
        <time>2018-07-17T09:48:42Z</time>
      </trkpt>
      <trkpt lat="45.90109" lon="4.98493">
        <ele>283</ele>
        <time>2018-07-17T09:48:43Z</time>
      </trkpt>
      <trkpt lat="45.90106" lon="4.98486">
        <ele>283</ele>
        <time>2018-07-17T09:48:44Z</time>
      </trkpt>
      <trkpt lat="45.90104" lon="4.9848">
        <ele>283</ele>
        <time>2018-07-17T09:48:45Z</time>
      </trkpt>
      <trkpt lat="45.90102" lon="4.98476">
        <ele>283</ele>
        <time>2018-07-17T09:48:46Z</time>
      </trkpt>
      <trkpt lat="45.90097" lon="4.98469">
        <ele>283</ele>
        <time>2018-07-17T09:48:47Z</time>
      </trkpt>
      <trkpt lat="45.90094" lon="4.98462">
        <ele>283</ele>
        <time>2018-07-17T09:48:48Z</time>
      </trkpt>
      <trkpt lat="45.90092" lon="4.98457">
        <ele>283</ele>
        <time>2018-07-17T09:48:49Z</time>
      </trkpt>
      <trkpt lat="45.9009" lon="4.98451">
        <ele>283</ele>
        <time>2018-07-17T09:48:50Z</time>
      </trkpt>
      <trkpt lat="45.90088" lon="4.98444">
        <ele>283</ele>
        <time>2018-07-17T09:48:51Z</time>
      </trkpt>
      <trkpt lat="45.90085" lon="4.98437">
        <ele>283</ele>
        <time>2018-07-17T09:48:52Z</time>
      </trkpt>
      <trkpt lat="45.90083" lon="4.9843">
        <ele>283</ele>
        <time>2018-07-17T09:48:53Z</time>
      </trkpt>
      <trkpt lat="45.9008" lon="4.98424">
        <ele>284</ele>
        <time>2018-07-17T09:48:54Z</time>
      </trkpt>
      <trkpt lat="45.90077" lon="4.98416">
        <ele>283</ele>
        <time>2018-07-17T09:48:55Z</time>
      </trkpt>
      <trkpt lat="45.90074" lon="4.98409">
        <ele>283</ele>
        <time>2018-07-17T09:48:56Z</time>
      </trkpt>
      <trkpt lat="45.90072" lon="4.98402">
        <ele>283</ele>
        <time>2018-07-17T09:48:57Z</time>
      </trkpt>
      <trkpt lat="45.90069" lon="4.9839">
        <ele>282</ele>
        <time>2018-07-17T09:48:59Z</time>
      </trkpt>
      <trkpt lat="45.90069" lon="4.98383">
        <ele>282</ele>
        <time>2018-07-17T09:49:00Z</time>
      </trkpt>
      <trkpt lat="45.90068" lon="4.98375">
        <ele>282</ele>
        <time>2018-07-17T09:49:01Z</time>
      </trkpt>
      <trkpt lat="45.90066" lon="4.98367">
        <ele>282</ele>
        <time>2018-07-17T09:49:02Z</time>
      </trkpt>
      <trkpt lat="45.90065" lon="4.9836">
        <ele>282</ele>
        <time>2018-07-17T09:49:03Z</time>
      </trkpt>
      <trkpt lat="45.90065" lon="4.98352">
        <ele>282</ele>
        <time>2018-07-17T09:49:04Z</time>
      </trkpt>
      <trkpt lat="45.90064" lon="4.98343">
        <ele>282</ele>
        <time>2018-07-17T09:49:05Z</time>
      </trkpt>
      <trkpt lat="45.90065" lon="4.98337">
        <ele>282</ele>
        <time>2018-07-17T09:49:06Z</time>
      </trkpt>
      <trkpt lat="45.90065" lon="4.98329">
        <ele>281</ele>
        <time>2018-07-17T09:49:07Z</time>
      </trkpt>
      <trkpt lat="45.90065" lon="4.9832">
        <ele>281</ele>
        <time>2018-07-17T09:49:08Z</time>
      </trkpt>
      <trkpt lat="45.90064" lon="4.98312">
        <ele>281</ele>
        <time>2018-07-17T09:49:09Z</time>
      </trkpt>
      <trkpt lat="45.90064" lon="4.98303">
        <ele>281</ele>
        <time>2018-07-17T09:49:10Z</time>
      </trkpt>
      <trkpt lat="45.90063" lon="4.98295">
        <ele>281</ele>
        <time>2018-07-17T09:49:11Z</time>
      </trkpt>
      <trkpt lat="45.90063" lon="4.98286">
        <ele>281</ele>
        <time>2018-07-17T09:49:12Z</time>
      </trkpt>
      <trkpt lat="45.90061" lon="4.98276">
        <ele>281</ele>
        <time>2018-07-17T09:49:13Z</time>
      </trkpt>
      <trkpt lat="45.9006" lon="4.98267">
        <ele>281</ele>
        <time>2018-07-17T09:49:14Z</time>
      </trkpt>
      <trkpt lat="45.9006" lon="4.98259">
        <ele>281</ele>
        <time>2018-07-17T09:49:15Z</time>
      </trkpt>
      <trkpt lat="45.9006" lon="4.9825">
        <ele>281</ele>
        <time>2018-07-17T09:49:16Z</time>
      </trkpt>
      <trkpt lat="45.90059" lon="4.9824">
        <ele>280</ele>
        <time>2018-07-17T09:49:17Z</time>
      </trkpt>
      <trkpt lat="45.90059" lon="4.98232">
        <ele>280</ele>
        <time>2018-07-17T09:49:18Z</time>
      </trkpt>
      <trkpt lat="45.90059" lon="4.98222">
        <ele>280</ele>
        <time>2018-07-17T09:49:19Z</time>
      </trkpt>
      <trkpt lat="45.90059" lon="4.98214">
        <ele>280</ele>
        <time>2018-07-17T09:49:20Z</time>
      </trkpt>
      <trkpt lat="45.90059" lon="4.98207">
        <ele>280</ele>
        <time>2018-07-17T09:49:21Z</time>
      </trkpt>
      <trkpt lat="45.90059" lon="4.982">
        <ele>280</ele>
        <time>2018-07-17T09:49:22Z</time>
      </trkpt>
      <trkpt lat="45.90059" lon="4.98192">
        <ele>280</ele>
        <time>2018-07-17T09:49:23Z</time>
      </trkpt>
      <trkpt lat="45.90059" lon="4.98184">
        <ele>280</ele>
        <time>2018-07-17T09:49:24Z</time>
      </trkpt>
      <trkpt lat="45.90057" lon="4.98176">
        <ele>280</ele>
        <time>2018-07-17T09:49:25Z</time>
      </trkpt>
      <trkpt lat="45.90056" lon="4.98167">
        <ele>280</ele>
        <time>2018-07-17T09:49:26Z</time>
      </trkpt>
      <trkpt lat="45.90057" lon="4.98161">
        <ele>279</ele>
        <time>2018-07-17T09:49:27Z</time>
      </trkpt>
      <trkpt lat="45.90056" lon="4.98153">
        <ele>279</ele>
        <time>2018-07-17T09:49:28Z</time>
      </trkpt>
      <trkpt lat="45.90054" lon="4.98142">
        <ele>279</ele>
        <time>2018-07-17T09:49:29Z</time>
      </trkpt>
      <trkpt lat="45.90053" lon="4.98132">
        <ele>279</ele>
        <time>2018-07-17T09:49:30Z</time>
      </trkpt>
      <trkpt lat="45.90052" lon="4.98122">
        <ele>279</ele>
        <time>2018-07-17T09:49:31Z</time>
      </trkpt>
      <trkpt lat="45.90052" lon="4.98115">
        <ele>279</ele>
        <time>2018-07-17T09:49:32Z</time>
      </trkpt>
      <trkpt lat="45.90052" lon="4.98107">
        <ele>279</ele>
        <time>2018-07-17T09:49:33Z</time>
      </trkpt>
      <trkpt lat="45.90051" lon="4.98098">
        <ele>279</ele>
        <time>2018-07-17T09:49:34Z</time>
      </trkpt>
      <trkpt lat="45.90051" lon="4.98091">
        <ele>279</ele>
        <time>2018-07-17T09:49:35Z</time>
      </trkpt>
      <trkpt lat="45.9005" lon="4.98083">
        <ele>279</ele>
        <time>2018-07-17T09:49:36Z</time>
      </trkpt>
      <trkpt lat="45.9005" lon="4.98075">
        <ele>279</ele>
        <time>2018-07-17T09:49:37Z</time>
      </trkpt>
      <trkpt lat="45.9005" lon="4.98067">
        <ele>279</ele>
        <time>2018-07-17T09:49:38Z</time>
      </trkpt>
      <trkpt lat="45.9005" lon="4.98061">
        <ele>279</ele>
        <time>2018-07-17T09:49:39Z</time>
      </trkpt>
      <trkpt lat="45.90049" lon="4.98053">
        <ele>279</ele>
        <time>2018-07-17T09:49:40Z</time>
      </trkpt>
      <trkpt lat="45.90047" lon="4.98044">
        <ele>279</ele>
        <time>2018-07-17T09:49:41Z</time>
      </trkpt>
      <trkpt lat="45.90045" lon="4.98037">
        <ele>278</ele>
        <time>2018-07-17T09:49:42Z</time>
      </trkpt>
      <trkpt lat="45.90044" lon="4.98029">
        <ele>278</ele>
        <time>2018-07-17T09:49:43Z</time>
      </trkpt>
      <trkpt lat="45.90043" lon="4.98021">
        <ele>278</ele>
        <time>2018-07-17T09:49:44Z</time>
      </trkpt>
      <trkpt lat="45.90042" lon="4.98012">
        <ele>278</ele>
        <time>2018-07-17T09:49:45Z</time>
      </trkpt>
      <trkpt lat="45.90042" lon="4.98005">
        <ele>278</ele>
        <time>2018-07-17T09:49:46Z</time>
      </trkpt>
      <trkpt lat="45.90041" lon="4.97997">
        <ele>278</ele>
        <time>2018-07-17T09:49:47Z</time>
      </trkpt>
      <trkpt lat="45.90041" lon="4.9799">
        <ele>278</ele>
        <time>2018-07-17T09:49:48Z</time>
      </trkpt>
      <trkpt lat="45.90041" lon="4.97982">
        <ele>278</ele>
        <time>2018-07-17T09:49:49Z</time>
      </trkpt>
      <trkpt lat="45.9004" lon="4.97974">
        <ele>278</ele>
        <time>2018-07-17T09:49:50Z</time>
      </trkpt>
      <trkpt lat="45.90038" lon="4.97966">
        <ele>278</ele>
        <time>2018-07-17T09:49:51Z</time>
      </trkpt>
      <trkpt lat="45.90038" lon="4.97959">
        <ele>278</ele>
        <time>2018-07-17T09:49:52Z</time>
      </trkpt>
      <trkpt lat="45.90038" lon="4.97951">
        <ele>279</ele>
        <time>2018-07-17T09:49:53Z</time>
      </trkpt>
      <trkpt lat="45.90038" lon="4.97943">
        <ele>279</ele>
        <time>2018-07-17T09:49:54Z</time>
      </trkpt>
      <trkpt lat="45.90038" lon="4.97935">
        <ele>279</ele>
        <time>2018-07-17T09:49:55Z</time>
      </trkpt>
      <trkpt lat="45.90036" lon="4.97927">
        <ele>279</ele>
        <time>2018-07-17T09:49:56Z</time>
      </trkpt>
      <trkpt lat="45.90034" lon="4.9792">
        <ele>279</ele>
        <time>2018-07-17T09:49:57Z</time>
      </trkpt>
      <trkpt lat="45.90032" lon="4.97913">
        <ele>279</ele>
        <time>2018-07-17T09:49:58Z</time>
      </trkpt>
      <trkpt lat="45.90027" lon="4.97908">
        <ele>279</ele>
        <time>2018-07-17T09:49:59Z</time>
      </trkpt>
      <trkpt lat="45.90022" lon="4.97907">
        <ele>279</ele>
        <time>2018-07-17T09:50:00Z</time>
      </trkpt>
      <trkpt lat="45.90016" lon="4.97907">
        <ele>279</ele>
        <time>2018-07-17T09:50:01Z</time>
      </trkpt>
      <trkpt lat="45.90012" lon="4.97909">
        <ele>278</ele>
        <time>2018-07-17T09:50:02Z</time>
      </trkpt>
      <trkpt lat="45.90007" lon="4.97912">
        <ele>278</ele>
        <time>2018-07-17T09:50:03Z</time>
      </trkpt>
      <trkpt lat="45.90002" lon="4.97913">
        <ele>278</ele>
        <time>2018-07-17T09:50:04Z</time>
      </trkpt>
      <trkpt lat="45.89997" lon="4.97914">
        <ele>278</ele>
        <time>2018-07-17T09:50:05Z</time>
      </trkpt>
      <trkpt lat="45.89991" lon="4.97917">
        <ele>278</ele>
        <time>2018-07-17T09:50:06Z</time>
      </trkpt>
      <trkpt lat="45.89984" lon="4.97919">
        <ele>278</ele>
        <time>2018-07-17T09:50:07Z</time>
      </trkpt>
      <trkpt lat="45.89979" lon="4.97921">
        <ele>278</ele>
        <time>2018-07-17T09:50:08Z</time>
      </trkpt>
      <trkpt lat="45.89972" lon="4.97924">
        <ele>278</ele>
        <time>2018-07-17T09:50:09Z</time>
      </trkpt>
      <trkpt lat="45.89966" lon="4.97926">
        <ele>278</ele>
        <time>2018-07-17T09:50:10Z</time>
      </trkpt>
      <trkpt lat="45.89958" lon="4.97927">
        <ele>278</ele>
        <time>2018-07-17T09:50:11Z</time>
      </trkpt>
      <trkpt lat="45.89952" lon="4.97927">
        <ele>278</ele>
        <time>2018-07-17T09:50:12Z</time>
      </trkpt>
      <trkpt lat="45.89947" lon="4.97928">
        <ele>278</ele>
        <time>2018-07-17T09:50:13Z</time>
      </trkpt>
      <trkpt lat="45.89941" lon="4.97927">
        <ele>278</ele>
        <time>2018-07-17T09:50:14Z</time>
      </trkpt>
      <trkpt lat="45.89935" lon="4.97926">
        <ele>278</ele>
        <time>2018-07-17T09:50:15Z</time>
      </trkpt>
      <trkpt lat="45.89929" lon="4.97926">
        <ele>278</ele>
        <time>2018-07-17T09:50:16Z</time>
      </trkpt>
      <trkpt lat="45.89923" lon="4.97925">
        <ele>278</ele>
        <time>2018-07-17T09:50:17Z</time>
      </trkpt>
      <trkpt lat="45.89918" lon="4.97922">
        <ele>278</ele>
        <time>2018-07-17T09:50:18Z</time>
      </trkpt>
      <trkpt lat="45.89912" lon="4.97919">
        <ele>278</ele>
        <time>2018-07-17T09:50:19Z</time>
      </trkpt>
      <trkpt lat="45.89904" lon="4.97918">
        <ele>278</ele>
        <time>2018-07-17T09:50:20Z</time>
      </trkpt>
      <trkpt lat="45.89896" lon="4.97919">
        <ele>278</ele>
        <time>2018-07-17T09:50:21Z</time>
      </trkpt>
      <trkpt lat="45.89889" lon="4.97917">
        <ele>278</ele>
        <time>2018-07-17T09:50:22Z</time>
      </trkpt>
      <trkpt lat="45.89883" lon="4.97913">
        <ele>278</ele>
        <time>2018-07-17T09:50:23Z</time>
      </trkpt>
      <trkpt lat="45.89875" lon="4.9791">
        <ele>278</ele>
        <time>2018-07-17T09:50:24Z</time>
      </trkpt>
      <trkpt lat="45.89869" lon="4.97907">
        <ele>278</ele>
        <time>2018-07-17T09:50:25Z</time>
      </trkpt>
      <trkpt lat="45.89863" lon="4.97904">
        <ele>278</ele>
        <time>2018-07-17T09:50:26Z</time>
      </trkpt>
      <trkpt lat="45.89856" lon="4.97901">
        <ele>278</ele>
        <time>2018-07-17T09:50:27Z</time>
      </trkpt>
      <trkpt lat="45.8985" lon="4.97897">
        <ele>278</ele>
        <time>2018-07-17T09:50:28Z</time>
      </trkpt>
      <trkpt lat="45.89844" lon="4.97893">
        <ele>278</ele>
        <time>2018-07-17T09:50:29Z</time>
      </trkpt>
      <trkpt lat="45.89838" lon="4.97889">
        <ele>278</ele>
        <time>2018-07-17T09:50:30Z</time>
      </trkpt>
      <trkpt lat="45.89832" lon="4.97885">
        <ele>278</ele>
        <time>2018-07-17T09:50:31Z</time>
      </trkpt>
      <trkpt lat="45.89827" lon="4.9788">
        <ele>278</ele>
        <time>2018-07-17T09:50:32Z</time>
      </trkpt>
      <trkpt lat="45.89822" lon="4.97876">
        <ele>278</ele>
        <time>2018-07-17T09:50:33Z</time>
      </trkpt>
      <trkpt lat="45.89816" lon="4.97872">
        <ele>278</ele>
        <time>2018-07-17T09:50:34Z</time>
      </trkpt>
      <trkpt lat="45.8981" lon="4.97868">
        <ele>278</ele>
        <time>2018-07-17T09:50:35Z</time>
      </trkpt>
      <trkpt lat="45.89807" lon="4.97864">
        <ele>278</ele>
        <time>2018-07-17T09:50:36Z</time>
      </trkpt>
      <trkpt lat="45.89802" lon="4.97861">
        <ele>278</ele>
        <time>2018-07-17T09:50:37Z</time>
      </trkpt>
      <trkpt lat="45.89796" lon="4.97858">
        <ele>278</ele>
        <time>2018-07-17T09:50:38Z</time>
      </trkpt>
      <trkpt lat="45.89791" lon="4.97854">
        <ele>278</ele>
        <time>2018-07-17T09:50:39Z</time>
      </trkpt>
      <trkpt lat="45.89785" lon="4.9785">
        <ele>278</ele>
        <time>2018-07-17T09:50:40Z</time>
      </trkpt>
      <trkpt lat="45.8978" lon="4.97846">
        <ele>278</ele>
        <time>2018-07-17T09:50:41Z</time>
      </trkpt>
      <trkpt lat="45.89775" lon="4.97842">
        <ele>278</ele>
        <time>2018-07-17T09:50:42Z</time>
      </trkpt>
      <trkpt lat="45.89769" lon="4.97837">
        <ele>278</ele>
        <time>2018-07-17T09:50:43Z</time>
      </trkpt>
      <trkpt lat="45.89764" lon="4.97834">
        <ele>278</ele>
        <time>2018-07-17T09:50:44Z</time>
      </trkpt>
      <trkpt lat="45.89758" lon="4.9783">
        <ele>278</ele>
        <time>2018-07-17T09:50:45Z</time>
      </trkpt>
      <trkpt lat="45.89756" lon="4.97824">
        <ele>278</ele>
        <time>2018-07-17T09:50:46Z</time>
      </trkpt>
      <trkpt lat="45.8975" lon="4.9782">
        <ele>279</ele>
        <time>2018-07-17T09:50:47Z</time>
      </trkpt>
      <trkpt lat="45.89745" lon="4.97816">
        <ele>279</ele>
        <time>2018-07-17T09:50:48Z</time>
      </trkpt>
      <trkpt lat="45.89739" lon="4.97812">
        <ele>279</ele>
        <time>2018-07-17T09:50:49Z</time>
      </trkpt>
      <trkpt lat="45.89733" lon="4.97808">
        <ele>279</ele>
        <time>2018-07-17T09:50:50Z</time>
      </trkpt>
      <trkpt lat="45.89728" lon="4.97803">
        <ele>279</ele>
        <time>2018-07-17T09:50:51Z</time>
      </trkpt>
      <trkpt lat="45.89723" lon="4.978">
        <ele>279</ele>
        <time>2018-07-17T09:50:52Z</time>
      </trkpt>
      <trkpt lat="45.89717" lon="4.97796">
        <ele>279</ele>
        <time>2018-07-17T09:50:53Z</time>
      </trkpt>
      <trkpt lat="45.89712" lon="4.97793">
        <ele>279</ele>
        <time>2018-07-17T09:50:54Z</time>
      </trkpt>
      <trkpt lat="45.89706" lon="4.97791">
        <ele>280</ele>
        <time>2018-07-17T09:50:55Z</time>
      </trkpt>
      <trkpt lat="45.89699" lon="4.97787">
        <ele>280</ele>
        <time>2018-07-17T09:50:56Z</time>
      </trkpt>
      <trkpt lat="45.89694" lon="4.97784">
        <ele>280</ele>
        <time>2018-07-17T09:50:57Z</time>
      </trkpt>
      <trkpt lat="45.89689" lon="4.97781">
        <ele>280</ele>
        <time>2018-07-17T09:50:58Z</time>
      </trkpt>
      <trkpt lat="45.89684" lon="4.97777">
        <ele>280</ele>
        <time>2018-07-17T09:50:59Z</time>
      </trkpt>
      <trkpt lat="45.8968" lon="4.97775">
        <ele>280</ele>
        <time>2018-07-17T09:51:00Z</time>
      </trkpt>
      <trkpt lat="45.89674" lon="4.97766">
        <ele>280</ele>
        <time>2018-07-17T09:51:02Z</time>
      </trkpt>
      <trkpt lat="45.8967" lon="4.97762">
        <ele>280</ele>
        <time>2018-07-17T09:51:03Z</time>
      </trkpt>
      <trkpt lat="45.89669" lon="4.97757">
        <ele>280</ele>
        <time>2018-07-17T09:51:04Z</time>
      </trkpt>
      <trkpt lat="45.89667" lon="4.9775">
        <ele>280</ele>
        <time>2018-07-17T09:51:05Z</time>
      </trkpt>
      <trkpt lat="45.89666" lon="4.97743">
        <ele>280</ele>
        <time>2018-07-17T09:51:06Z</time>
      </trkpt>
      <trkpt lat="45.89666" lon="4.97736">
        <ele>280</ele>
        <time>2018-07-17T09:51:07Z</time>
      </trkpt>
      <trkpt lat="45.89667" lon="4.97729">
        <ele>280</ele>
        <time>2018-07-17T09:51:08Z</time>
      </trkpt>
      <trkpt lat="45.89666" lon="4.97723">
        <ele>280</ele>
        <time>2018-07-17T09:51:09Z</time>
      </trkpt>
      <trkpt lat="45.89667" lon="4.97716">
        <ele>280</ele>
        <time>2018-07-17T09:51:10Z</time>
      </trkpt>
      <trkpt lat="45.89668" lon="4.9771">
        <ele>280</ele>
        <time>2018-07-17T09:51:11Z</time>
      </trkpt>
      <trkpt lat="45.89671" lon="4.97698">
        <ele>280</ele>
        <time>2018-07-17T09:51:13Z</time>
      </trkpt>
      <trkpt lat="45.89672" lon="4.97692">
        <ele>280</ele>
        <time>2018-07-17T09:51:14Z</time>
      </trkpt>
      <trkpt lat="45.89674" lon="4.97685">
        <ele>280</ele>
        <time>2018-07-17T09:51:15Z</time>
      </trkpt>
      <trkpt lat="45.89675" lon="4.97677">
        <ele>280</ele>
        <time>2018-07-17T09:51:16Z</time>
      </trkpt>
      <trkpt lat="45.89677" lon="4.9767">
        <ele>280</ele>
        <time>2018-07-17T09:51:17Z</time>
      </trkpt>
      <trkpt lat="45.89676" lon="4.97664">
        <ele>280</ele>
        <time>2018-07-17T09:51:18Z</time>
      </trkpt>
      <trkpt lat="45.89677" lon="4.97657">
        <ele>281</ele>
        <time>2018-07-17T09:51:19Z</time>
      </trkpt>
      <trkpt lat="45.89679" lon="4.9765">
        <ele>281</ele>
        <time>2018-07-17T09:51:20Z</time>
      </trkpt>
      <trkpt lat="45.8968" lon="4.97644">
        <ele>281</ele>
        <time>2018-07-17T09:51:21Z</time>
      </trkpt>
      <trkpt lat="45.89681" lon="4.97637">
        <ele>281</ele>
        <time>2018-07-17T09:51:22Z</time>
      </trkpt>
      <trkpt lat="45.89683" lon="4.97625">
        <ele>281</ele>
        <time>2018-07-17T09:51:24Z</time>
      </trkpt>
      <trkpt lat="45.89684" lon="4.97618">
        <ele>281</ele>
        <time>2018-07-17T09:51:25Z</time>
      </trkpt>
      <trkpt lat="45.89685" lon="4.9761">
        <ele>282</ele>
        <time>2018-07-17T09:51:26Z</time>
      </trkpt>
      <trkpt lat="45.89686" lon="4.97604">
        <ele>282</ele>
        <time>2018-07-17T09:51:27Z</time>
      </trkpt>
      <trkpt lat="45.89687" lon="4.97597">
        <ele>282</ele>
        <time>2018-07-17T09:51:28Z</time>
      </trkpt>
      <trkpt lat="45.89688" lon="4.9759">
        <ele>282</ele>
        <time>2018-07-17T09:51:29Z</time>
      </trkpt>
      <trkpt lat="45.89691" lon="4.97584">
        <ele>282</ele>
        <time>2018-07-17T09:51:30Z</time>
      </trkpt>
      <trkpt lat="45.89692" lon="4.97578">
        <ele>284</ele>
        <time>2018-07-17T09:51:31Z</time>
      </trkpt>
      <trkpt lat="45.89694" lon="4.97566">
        <ele>284</ele>
        <time>2018-07-17T09:51:33Z</time>
      </trkpt>
      <trkpt lat="45.89695" lon="4.9756">
        <ele>284</ele>
        <time>2018-07-17T09:51:34Z</time>
      </trkpt>
      <trkpt lat="45.89696" lon="4.97551">
        <ele>284</ele>
        <time>2018-07-17T09:51:37Z</time>
      </trkpt>
      <trkpt lat="45.89697" lon="4.97541">
        <ele>284</ele>
        <time>2018-07-17T09:51:38Z</time>
      </trkpt>
      <trkpt lat="45.897" lon="4.9753">
        <ele>285</ele>
        <time>2018-07-17T09:51:40Z</time>
      </trkpt>
      <trkpt lat="45.897" lon="4.97528">
        <ele>285</ele>
        <time>2018-07-17T09:51:41Z</time>
      </trkpt>
      <trkpt lat="45.897" lon="4.97515">
        <ele>285</ele>
        <time>2018-07-17T09:51:43Z</time>
      </trkpt>
      <trkpt lat="45.89701" lon="4.9751">
        <ele>285</ele>
        <time>2018-07-17T09:51:44Z</time>
      </trkpt>
      <trkpt lat="45.89704" lon="4.975">
        <ele>285</ele>
        <time>2018-07-17T09:51:46Z</time>
      </trkpt>
      <trkpt lat="45.89706" lon="4.97495">
        <ele>287</ele>
        <time>2018-07-17T09:51:47Z</time>
      </trkpt>
      <trkpt lat="45.89707" lon="4.9749">
        <ele>287</ele>
        <time>2018-07-17T09:51:49Z</time>
      </trkpt>
      <trkpt lat="45.89709" lon="4.97481">
        <ele>287</ele>
        <time>2018-07-17T09:51:50Z</time>
      </trkpt>
      <trkpt lat="45.89711" lon="4.9747">
        <ele>287</ele>
        <time>2018-07-17T09:51:52Z</time>
      </trkpt>
      <trkpt lat="45.89712" lon="4.97465">
        <ele>287</ele>
        <time>2018-07-17T09:51:53Z</time>
      </trkpt>
      <trkpt lat="45.89714" lon="4.97453">
        <ele>287</ele>
        <time>2018-07-17T09:51:55Z</time>
      </trkpt>
      <trkpt lat="45.89715" lon="4.97447">
        <ele>287</ele>
        <time>2018-07-17T09:51:56Z</time>
      </trkpt>
      <trkpt lat="45.89718" lon="4.9744">
        <ele>287</ele>
        <time>2018-07-17T09:51:57Z</time>
      </trkpt>
      <trkpt lat="45.89718" lon="4.97433">
        <ele>287</ele>
        <time>2018-07-17T09:51:58Z</time>
      </trkpt>
      <trkpt lat="45.89719" lon="4.97427">
        <ele>287</ele>
        <time>2018-07-17T09:51:59Z</time>
      </trkpt>
      <trkpt lat="45.89721" lon="4.9742">
        <ele>287</ele>
        <time>2018-07-17T09:52:00Z</time>
      </trkpt>
      <trkpt lat="45.89722" lon="4.97413">
        <ele>288</ele>
        <time>2018-07-17T09:52:01Z</time>
      </trkpt>
      <trkpt lat="45.89723" lon="4.97407">
        <ele>288</ele>
        <time>2018-07-17T09:52:02Z</time>
      </trkpt>
      <trkpt lat="45.89727" lon="4.97396">
        <ele>287</ele>
        <time>2018-07-17T09:52:04Z</time>
      </trkpt>
      <trkpt lat="45.89729" lon="4.9739">
        <ele>287</ele>
        <time>2018-07-17T09:52:05Z</time>
      </trkpt>
      <trkpt lat="45.89731" lon="4.97383">
        <ele>287</ele>
        <time>2018-07-17T09:52:06Z</time>
      </trkpt>
      <trkpt lat="45.89734" lon="4.97377">
        <ele>287</ele>
        <time>2018-07-17T09:52:07Z</time>
      </trkpt>
      <trkpt lat="45.89737" lon="4.97371">
        <ele>287</ele>
        <time>2018-07-17T09:52:08Z</time>
      </trkpt>
      <trkpt lat="45.89739" lon="4.97364">
        <ele>287</ele>
        <time>2018-07-17T09:52:09Z</time>
      </trkpt>
      <trkpt lat="45.89744" lon="4.97354">
        <ele>287</ele>
        <time>2018-07-17T09:52:11Z</time>
      </trkpt>
      <trkpt lat="45.89746" lon="4.97349">
        <ele>287</ele>
        <time>2018-07-17T09:52:12Z</time>
      </trkpt>
      <trkpt lat="45.89749" lon="4.97338">
        <ele>287</ele>
        <time>2018-07-17T09:52:14Z</time>
      </trkpt>
      <trkpt lat="45.89753" lon="4.97334">
        <ele>287</ele>
        <time>2018-07-17T09:52:15Z</time>
      </trkpt>
      <trkpt lat="45.89756" lon="4.97328">
        <ele>287</ele>
        <time>2018-07-17T09:52:16Z</time>
      </trkpt>
      <trkpt lat="45.8976" lon="4.97323">
        <ele>287</ele>
        <time>2018-07-17T09:52:17Z</time>
      </trkpt>
      <trkpt lat="45.89763" lon="4.97316">
        <ele>286</ele>
        <time>2018-07-17T09:52:18Z</time>
      </trkpt>
      <trkpt lat="45.89767" lon="4.97311">
        <ele>286</ele>
        <time>2018-07-17T09:52:19Z</time>
      </trkpt>
      <trkpt lat="45.89771" lon="4.97305">
        <ele>286</ele>
        <time>2018-07-17T09:52:20Z</time>
      </trkpt>
      <trkpt lat="45.89773" lon="4.97299">
        <ele>286</ele>
        <time>2018-07-17T09:52:21Z</time>
      </trkpt>
      <trkpt lat="45.89778" lon="4.97292">
        <ele>286</ele>
        <time>2018-07-17T09:52:22Z</time>
      </trkpt>
      <trkpt lat="45.89781" lon="4.97287">
        <ele>286</ele>
        <time>2018-07-17T09:52:23Z</time>
      </trkpt>
      <trkpt lat="45.89784" lon="4.9728">
        <ele>286</ele>
        <time>2018-07-17T09:52:24Z</time>
      </trkpt>
      <trkpt lat="45.89787" lon="4.97273">
        <ele>286</ele>
        <time>2018-07-17T09:52:25Z</time>
      </trkpt>
      <trkpt lat="45.89791" lon="4.97266">
        <ele>286</ele>
        <time>2018-07-17T09:52:26Z</time>
      </trkpt>
      <trkpt lat="45.89795" lon="4.97259">
        <ele>286</ele>
        <time>2018-07-17T09:52:27Z</time>
      </trkpt>
      <trkpt lat="45.89798" lon="4.97249">
        <ele>286</ele>
        <time>2018-07-17T09:52:28Z</time>
      </trkpt>
      <trkpt lat="45.898" lon="4.97242">
        <ele>286</ele>
        <time>2018-07-17T09:52:29Z</time>
      </trkpt>
      <trkpt lat="45.89803" lon="4.97235">
        <ele>286</ele>
        <time>2018-07-17T09:52:30Z</time>
      </trkpt>
      <trkpt lat="45.89803" lon="4.97228">
        <ele>286</ele>
        <time>2018-07-17T09:52:31Z</time>
      </trkpt>
      <trkpt lat="45.89804" lon="4.97221">
        <ele>286</ele>
        <time>2018-07-17T09:52:32Z</time>
      </trkpt>
      <trkpt lat="45.89802" lon="4.97214">
        <ele>286</ele>
        <time>2018-07-17T09:52:33Z</time>
      </trkpt>
      <trkpt lat="45.89799" lon="4.97206">
        <ele>286</ele>
        <time>2018-07-17T09:52:34Z</time>
      </trkpt>
      <trkpt lat="45.89796" lon="4.972">
        <ele>286</ele>
        <time>2018-07-17T09:52:35Z</time>
      </trkpt>
      <trkpt lat="45.89792" lon="4.97193">
        <ele>286</ele>
        <time>2018-07-17T09:52:36Z</time>
      </trkpt>
      <trkpt lat="45.89788" lon="4.97187">
        <ele>286</ele>
        <time>2018-07-17T09:52:37Z</time>
      </trkpt>
      <trkpt lat="45.89784" lon="4.9718">
        <ele>286</ele>
        <time>2018-07-17T09:52:38Z</time>
      </trkpt>
      <trkpt lat="45.89781" lon="4.97173">
        <ele>286</ele>
        <time>2018-07-17T09:52:39Z</time>
      </trkpt>
      <trkpt lat="45.89777" lon="4.97165">
        <ele>286</ele>
        <time>2018-07-17T09:52:40Z</time>
      </trkpt>
      <trkpt lat="45.89771" lon="4.9716">
        <ele>286</ele>
        <time>2018-07-17T09:52:41Z</time>
      </trkpt>
      <trkpt lat="45.89767" lon="4.97154">
        <ele>286</ele>
        <time>2018-07-17T09:52:42Z</time>
      </trkpt>
      <trkpt lat="45.89763" lon="4.97148">
        <ele>286</ele>
        <time>2018-07-17T09:52:43Z</time>
      </trkpt>
      <trkpt lat="45.89759" lon="4.97142">
        <ele>286</ele>
        <time>2018-07-17T09:52:44Z</time>
      </trkpt>
      <trkpt lat="45.89755" lon="4.97135">
        <ele>286</ele>
        <time>2018-07-17T09:52:45Z</time>
      </trkpt>
      <trkpt lat="45.89751" lon="4.97128">
        <ele>286</ele>
        <time>2018-07-17T09:52:46Z</time>
      </trkpt>
      <trkpt lat="45.89746" lon="4.9712">
        <ele>288</ele>
        <time>2018-07-17T09:52:47Z</time>
      </trkpt>
      <trkpt lat="45.89743" lon="4.97114">
        <ele>288</ele>
        <time>2018-07-17T09:52:48Z</time>
      </trkpt>
      <trkpt lat="45.89739" lon="4.97108">
        <ele>288</ele>
        <time>2018-07-17T09:52:49Z</time>
      </trkpt>
      <trkpt lat="45.89736" lon="4.97101">
        <ele>288</ele>
        <time>2018-07-17T09:52:50Z</time>
      </trkpt>
      <trkpt lat="45.89731" lon="4.97095">
        <ele>288</ele>
        <time>2018-07-17T09:52:51Z</time>
      </trkpt>
      <trkpt lat="45.89728" lon="4.9709">
        <ele>288</ele>
        <time>2018-07-17T09:52:52Z</time>
      </trkpt>
      <trkpt lat="45.89724" lon="4.97083">
        <ele>288</ele>
        <time>2018-07-17T09:52:53Z</time>
      </trkpt>
      <trkpt lat="45.89722" lon="4.97077">
        <ele>289</ele>
        <time>2018-07-17T09:52:54Z</time>
      </trkpt>
      <trkpt lat="45.89718" lon="4.97071">
        <ele>289</ele>
        <time>2018-07-17T09:52:55Z</time>
      </trkpt>
      <trkpt lat="45.89714" lon="4.97065">
        <ele>289</ele>
        <time>2018-07-17T09:52:56Z</time>
      </trkpt>
      <trkpt lat="45.8971" lon="4.97058">
        <ele>290</ele>
        <time>2018-07-17T09:52:57Z</time>
      </trkpt>
      <trkpt lat="45.89708" lon="4.97051">
        <ele>290</ele>
        <time>2018-07-17T09:52:58Z</time>
      </trkpt>
      <trkpt lat="45.89704" lon="4.97044">
        <ele>290</ele>
        <time>2018-07-17T09:52:59Z</time>
      </trkpt>
      <trkpt lat="45.89699" lon="4.97037">
        <ele>290</ele>
        <time>2018-07-17T09:53:00Z</time>
      </trkpt>
      <trkpt lat="45.89695" lon="4.97031">
        <ele>291</ele>
        <time>2018-07-17T09:53:01Z</time>
      </trkpt>
      <trkpt lat="45.89691" lon="4.97025">
        <ele>291</ele>
        <time>2018-07-17T09:53:02Z</time>
      </trkpt>
      <trkpt lat="45.89689" lon="4.9702">
        <ele>291</ele>
        <time>2018-07-17T09:53:03Z</time>
      </trkpt>
      <trkpt lat="45.89685" lon="4.97013">
        <ele>292</ele>
        <time>2018-07-17T09:53:04Z</time>
      </trkpt>
      <trkpt lat="45.89681" lon="4.97008">
        <ele>292</ele>
        <time>2018-07-17T09:53:05Z</time>
      </trkpt>
      <trkpt lat="45.89678" lon="4.97001">
        <ele>293</ele>
        <time>2018-07-17T09:53:06Z</time>
      </trkpt>
      <trkpt lat="45.89674" lon="4.96996">
        <ele>294</ele>
        <time>2018-07-17T09:53:07Z</time>
      </trkpt>
      <trkpt lat="45.89668" lon="4.96988">
        <ele>293</ele>
        <time>2018-07-17T09:53:09Z</time>
      </trkpt>
      <trkpt lat="45.89667" lon="4.96979">
        <ele>293</ele>
        <time>2018-07-17T09:53:10Z</time>
      </trkpt>
      <trkpt lat="45.89663" lon="4.96973">
        <ele>295</ele>
        <time>2018-07-17T09:53:11Z</time>
      </trkpt>
      <trkpt lat="45.8966" lon="4.96967">
        <ele>295</ele>
        <time>2018-07-17T09:53:12Z</time>
      </trkpt>
      <trkpt lat="45.89655" lon="4.96957">
        <ele>295</ele>
        <time>2018-07-17T09:53:14Z</time>
      </trkpt>
      <trkpt lat="45.89652" lon="4.96952">
        <ele>295</ele>
        <time>2018-07-17T09:53:15Z</time>
      </trkpt>
      <trkpt lat="45.89648" lon="4.96948">
        <ele>295</ele>
        <time>2018-07-17T09:53:16Z</time>
      </trkpt>
      <trkpt lat="45.89645" lon="4.96943">
        <ele>295</ele>
        <time>2018-07-17T09:53:17Z</time>
      </trkpt>
      <trkpt lat="45.89639" lon="4.96933">
        <ele>295</ele>
        <time>2018-07-17T09:53:20Z</time>
      </trkpt>
      <trkpt lat="45.89638" lon="4.96931">
        <ele>295</ele>
        <time>2018-07-17T09:53:21Z</time>
      </trkpt>
      <trkpt lat="45.89633" lon="4.96924">
        <ele>295</ele>
        <time>2018-07-17T09:53:25Z</time>
      </trkpt>
      <trkpt lat="45.89632" lon="4.96921">
        <ele>295</ele>
        <time>2018-07-17T09:53:26Z</time>
      </trkpt>
      <trkpt lat="45.89626" lon="4.96915">
        <ele>294</ele>
        <time>2018-07-17T09:53:29Z</time>
      </trkpt>
      <trkpt lat="45.89624" lon="4.96913">
        <ele>294</ele>
        <time>2018-07-17T09:53:30Z</time>
      </trkpt>
      <trkpt lat="45.89623" lon="4.96911">
        <ele>294</ele>
        <time>2018-07-17T09:53:31Z</time>
      </trkpt>
      <trkpt lat="45.89616" lon="4.96902">
        <ele>294</ele>
        <time>2018-07-17T09:53:32Z</time>
      </trkpt>
      <trkpt lat="45.89611" lon="4.96893">
        <ele>294</ele>
        <time>2018-07-17T09:53:34Z</time>
      </trkpt>
      <trkpt lat="45.89609" lon="4.96889">
        <ele>294</ele>
        <time>2018-07-17T09:53:35Z</time>
      </trkpt>
      <trkpt lat="45.89604" lon="4.96878">
        <ele>294</ele>
        <time>2018-07-17T09:53:37Z</time>
      </trkpt>
      <trkpt lat="45.89602" lon="4.9687">
        <ele>294</ele>
        <time>2018-07-17T09:53:38Z</time>
      </trkpt>
      <trkpt lat="45.89602" lon="4.96863">
        <ele>294</ele>
        <time>2018-07-17T09:53:39Z</time>
      </trkpt>
      <trkpt lat="45.89602" lon="4.96855">
        <ele>294</ele>
        <time>2018-07-17T09:53:40Z</time>
      </trkpt>
      <trkpt lat="45.896" lon="4.96842">
        <ele>294</ele>
        <time>2018-07-17T09:53:42Z</time>
      </trkpt>
      <trkpt lat="45.89602" lon="4.96836">
        <ele>294</ele>
        <time>2018-07-17T09:53:43Z</time>
      </trkpt>
      <trkpt lat="45.89603" lon="4.96829">
        <ele>293</ele>
        <time>2018-07-17T09:53:44Z</time>
      </trkpt>
      <trkpt lat="45.89604" lon="4.96824">
        <ele>293</ele>
        <time>2018-07-17T09:53:45Z</time>
      </trkpt>
      <trkpt lat="45.89606" lon="4.96817">
        <ele>293</ele>
        <time>2018-07-17T09:53:46Z</time>
      </trkpt>
      <trkpt lat="45.89608" lon="4.96811">
        <ele>293</ele>
        <time>2018-07-17T09:53:47Z</time>
      </trkpt>
      <trkpt lat="45.89609" lon="4.96805">
        <ele>293</ele>
        <time>2018-07-17T09:53:48Z</time>
      </trkpt>
      <trkpt lat="45.8961" lon="4.96798">
        <ele>293</ele>
        <time>2018-07-17T09:53:49Z</time>
      </trkpt>
      <trkpt lat="45.89611" lon="4.9679">
        <ele>293</ele>
        <time>2018-07-17T09:53:50Z</time>
      </trkpt>
      <trkpt lat="45.89611" lon="4.96784">
        <ele>292</ele>
        <time>2018-07-17T09:53:51Z</time>
      </trkpt>
      <trkpt lat="45.89616" lon="4.96774">
        <ele>292</ele>
        <time>2018-07-17T09:53:53Z</time>
      </trkpt>
      <trkpt lat="45.89617" lon="4.96767">
        <ele>292</ele>
        <time>2018-07-17T09:53:54Z</time>
      </trkpt>
      <trkpt lat="45.89618" lon="4.96761">
        <ele>292</ele>
        <time>2018-07-17T09:53:55Z</time>
      </trkpt>
      <trkpt lat="45.8962" lon="4.96753">
        <ele>292</ele>
        <time>2018-07-17T09:53:56Z</time>
      </trkpt>
      <trkpt lat="45.89621" lon="4.96747">
        <ele>292</ele>
        <time>2018-07-17T09:53:57Z</time>
      </trkpt>
      <trkpt lat="45.89622" lon="4.9674">
        <ele>292</ele>
        <time>2018-07-17T09:53:58Z</time>
      </trkpt>
      <trkpt lat="45.89625" lon="4.96733">
        <ele>292</ele>
        <time>2018-07-17T09:53:59Z</time>
      </trkpt>
      <trkpt lat="45.89626" lon="4.96726">
        <ele>292</ele>
        <time>2018-07-17T09:54:00Z</time>
      </trkpt>
      <trkpt lat="45.89627" lon="4.96721">
        <ele>292</ele>
        <time>2018-07-17T09:54:01Z</time>
      </trkpt>
      <trkpt lat="45.89627" lon="4.96712">
        <ele>292</ele>
        <time>2018-07-17T09:54:02Z</time>
      </trkpt>
      <trkpt lat="45.8963" lon="4.96705">
        <ele>292</ele>
        <time>2018-07-17T09:54:03Z</time>
      </trkpt>
      <trkpt lat="45.89633" lon="4.967">
        <ele>292</ele>
        <time>2018-07-17T09:54:04Z</time>
      </trkpt>
      <trkpt lat="45.89634" lon="4.96692">
        <ele>292</ele>
        <time>2018-07-17T09:54:05Z</time>
      </trkpt>
      <trkpt lat="45.89635" lon="4.96685">
        <ele>292</ele>
        <time>2018-07-17T09:54:06Z</time>
      </trkpt>
      <trkpt lat="45.89636" lon="4.96678">
        <ele>292</ele>
        <time>2018-07-17T09:54:07Z</time>
      </trkpt>
      <trkpt lat="45.89636" lon="4.96671">
        <ele>292</ele>
        <time>2018-07-17T09:54:08Z</time>
      </trkpt>
      <trkpt lat="45.89636" lon="4.96662">
        <ele>291</ele>
        <time>2018-07-17T09:54:09Z</time>
      </trkpt>
      <trkpt lat="45.89635" lon="4.96653">
        <ele>291</ele>
        <time>2018-07-17T09:54:10Z</time>
      </trkpt>
      <trkpt lat="45.89634" lon="4.96644">
        <ele>290</ele>
        <time>2018-07-17T09:54:11Z</time>
      </trkpt>
      <trkpt lat="45.89633" lon="4.96636">
        <ele>290</ele>
        <time>2018-07-17T09:54:12Z</time>
      </trkpt>
      <trkpt lat="45.89632" lon="4.96627">
        <ele>290</ele>
        <time>2018-07-17T09:54:13Z</time>
      </trkpt>
      <trkpt lat="45.89631" lon="4.96618">
        <ele>290</ele>
        <time>2018-07-17T09:54:14Z</time>
      </trkpt>
      <trkpt lat="45.89629" lon="4.9661">
        <ele>290</ele>
        <time>2018-07-17T09:54:15Z</time>
      </trkpt>
      <trkpt lat="45.89627" lon="4.96601">
        <ele>290</ele>
        <time>2018-07-17T09:54:16Z</time>
      </trkpt>
      <trkpt lat="45.89624" lon="4.96593">
        <ele>290</ele>
        <time>2018-07-17T09:54:17Z</time>
      </trkpt>
      <trkpt lat="45.89623" lon="4.96585">
        <ele>289</ele>
        <time>2018-07-17T09:54:18Z</time>
      </trkpt>
      <trkpt lat="45.89623" lon="4.96577">
        <ele>287</ele>
        <time>2018-07-17T09:54:19Z</time>
      </trkpt>
      <trkpt lat="45.89621" lon="4.96569">
        <ele>287</ele>
        <time>2018-07-17T09:54:20Z</time>
      </trkpt>
      <trkpt lat="45.89619" lon="4.96562">
        <ele>287</ele>
        <time>2018-07-17T09:54:21Z</time>
      </trkpt>
      <trkpt lat="45.89616" lon="4.96553">
        <ele>287</ele>
        <time>2018-07-17T09:54:22Z</time>
      </trkpt>
      <trkpt lat="45.89614" lon="4.96545">
        <ele>287</ele>
        <time>2018-07-17T09:54:23Z</time>
      </trkpt>
      <trkpt lat="45.89611" lon="4.96535">
        <ele>286</ele>
        <time>2018-07-17T09:54:24Z</time>
      </trkpt>
      <trkpt lat="45.89608" lon="4.96527">
        <ele>286</ele>
        <time>2018-07-17T09:54:25Z</time>
      </trkpt>
      <trkpt lat="45.89606" lon="4.96518">
        <ele>286</ele>
        <time>2018-07-17T09:54:26Z</time>
      </trkpt>
      <trkpt lat="45.89604" lon="4.9651">
        <ele>286</ele>
        <time>2018-07-17T09:54:27Z</time>
      </trkpt>
      <trkpt lat="45.89602" lon="4.96502">
        <ele>286</ele>
        <time>2018-07-17T09:54:28Z</time>
      </trkpt>
      <trkpt lat="45.896" lon="4.96493">
        <ele>284</ele>
        <time>2018-07-17T09:54:29Z</time>
      </trkpt>
      <trkpt lat="45.89599" lon="4.96483">
        <ele>284</ele>
        <time>2018-07-17T09:54:30Z</time>
      </trkpt>
      <trkpt lat="45.89596" lon="4.96475">
        <ele>284</ele>
        <time>2018-07-17T09:54:31Z</time>
      </trkpt>
      <trkpt lat="45.89592" lon="4.96466">
        <ele>284</ele>
        <time>2018-07-17T09:54:32Z</time>
      </trkpt>
      <trkpt lat="45.89586" lon="4.96457">
        <ele>284</ele>
        <time>2018-07-17T09:54:33Z</time>
      </trkpt>
      <trkpt lat="45.89583" lon="4.96449">
        <ele>284</ele>
        <time>2018-07-17T09:54:34Z</time>
      </trkpt>
      <trkpt lat="45.89581" lon="4.96439">
        <ele>284</ele>
        <time>2018-07-17T09:54:35Z</time>
      </trkpt>
      <trkpt lat="45.89578" lon="4.9643">
        <ele>284</ele>
        <time>2018-07-17T09:54:36Z</time>
      </trkpt>
      <trkpt lat="45.89574" lon="4.96421">
        <ele>284</ele>
        <time>2018-07-17T09:54:37Z</time>
      </trkpt>
      <trkpt lat="45.89571" lon="4.96412">
        <ele>284</ele>
        <time>2018-07-17T09:54:38Z</time>
      </trkpt>
      <trkpt lat="45.89569" lon="4.96403">
        <ele>283</ele>
        <time>2018-07-17T09:54:39Z</time>
      </trkpt>
      <trkpt lat="45.89566" lon="4.96394">
        <ele>283</ele>
        <time>2018-07-17T09:54:40Z</time>
      </trkpt>
      <trkpt lat="45.89563" lon="4.96386">
        <ele>283</ele>
        <time>2018-07-17T09:54:41Z</time>
      </trkpt>
      <trkpt lat="45.8956" lon="4.96378">
        <ele>283</ele>
        <time>2018-07-17T09:54:42Z</time>
      </trkpt>
      <trkpt lat="45.89557" lon="4.9637">
        <ele>283</ele>
        <time>2018-07-17T09:54:43Z</time>
      </trkpt>
      <trkpt lat="45.89555" lon="4.96361">
        <ele>283</ele>
        <time>2018-07-17T09:54:44Z</time>
      </trkpt>
      <trkpt lat="45.89555" lon="4.96355">
        <ele>283</ele>
        <time>2018-07-17T09:54:45Z</time>
      </trkpt>
      <trkpt lat="45.89552" lon="4.96347">
        <ele>283</ele>
        <time>2018-07-17T09:54:46Z</time>
      </trkpt>
      <trkpt lat="45.8955" lon="4.96339">
        <ele>283</ele>
        <time>2018-07-17T09:54:47Z</time>
      </trkpt>
      <trkpt lat="45.89547" lon="4.96331">
        <ele>282</ele>
        <time>2018-07-17T09:54:48Z</time>
      </trkpt>
      <trkpt lat="45.89542" lon="4.9632">
        <ele>282</ele>
        <time>2018-07-17T09:54:49Z</time>
      </trkpt>
      <trkpt lat="45.89539" lon="4.96312">
        <ele>282</ele>
        <time>2018-07-17T09:54:50Z</time>
      </trkpt>
      <trkpt lat="45.89535" lon="4.96305">
        <ele>282</ele>
        <time>2018-07-17T09:54:51Z</time>
      </trkpt>
      <trkpt lat="45.89532" lon="4.96297">
        <ele>282</ele>
        <time>2018-07-17T09:54:52Z</time>
      </trkpt>
      <trkpt lat="45.8953" lon="4.9629">
        <ele>282</ele>
        <time>2018-07-17T09:54:53Z</time>
      </trkpt>
      <trkpt lat="45.89526" lon="4.96281">
        <ele>282</ele>
        <time>2018-07-17T09:54:54Z</time>
      </trkpt>
      <trkpt lat="45.89523" lon="4.96273">
        <ele>282</ele>
        <time>2018-07-17T09:54:55Z</time>
      </trkpt>
      <trkpt lat="45.8952" lon="4.96265">
        <ele>282</ele>
        <time>2018-07-17T09:54:56Z</time>
      </trkpt>
      <trkpt lat="45.89516" lon="4.96257">
        <ele>282</ele>
        <time>2018-07-17T09:54:57Z</time>
      </trkpt>
      <trkpt lat="45.89513" lon="4.96249">
        <ele>281</ele>
        <time>2018-07-17T09:54:58Z</time>
      </trkpt>
      <trkpt lat="45.8951" lon="4.96241">
        <ele>281</ele>
        <time>2018-07-17T09:54:59Z</time>
      </trkpt>
      <trkpt lat="45.89506" lon="4.96233">
        <ele>281</ele>
        <time>2018-07-17T09:55:00Z</time>
      </trkpt>
      <trkpt lat="45.89503" lon="4.96224">
        <ele>281</ele>
        <time>2018-07-17T09:55:01Z</time>
      </trkpt>
      <trkpt lat="45.89499" lon="4.96216">
        <ele>280</ele>
        <time>2018-07-17T09:55:02Z</time>
      </trkpt>
      <trkpt lat="45.89496" lon="4.96206">
        <ele>280</ele>
        <time>2018-07-17T09:55:03Z</time>
      </trkpt>
      <trkpt lat="45.89494" lon="4.96196">
        <ele>280</ele>
        <time>2018-07-17T09:55:04Z</time>
      </trkpt>
      <trkpt lat="45.89491" lon="4.96186">
        <ele>280</ele>
        <time>2018-07-17T09:55:05Z</time>
      </trkpt>
      <trkpt lat="45.89488" lon="4.96176">
        <ele>280</ele>
        <time>2018-07-17T09:55:06Z</time>
      </trkpt>
      <trkpt lat="45.89485" lon="4.96166">
        <ele>280</ele>
        <time>2018-07-17T09:55:07Z</time>
      </trkpt>
      <trkpt lat="45.89482" lon="4.96155">
        <ele>280</ele>
        <time>2018-07-17T09:55:08Z</time>
      </trkpt>
      <trkpt lat="45.89481" lon="4.96145">
        <ele>279</ele>
        <time>2018-07-17T09:55:09Z</time>
      </trkpt>
      <trkpt lat="45.89481" lon="4.96134">
        <ele>279</ele>
        <time>2018-07-17T09:55:10Z</time>
      </trkpt>
      <trkpt lat="45.8948" lon="4.96123">
        <ele>279</ele>
        <time>2018-07-17T09:55:11Z</time>
      </trkpt>
      <trkpt lat="45.89478" lon="4.96113">
        <ele>279</ele>
        <time>2018-07-17T09:55:12Z</time>
      </trkpt>
      <trkpt lat="45.89478" lon="4.96102">
        <ele>279</ele>
        <time>2018-07-17T09:55:13Z</time>
      </trkpt>
      <trkpt lat="45.89477" lon="4.96091">
        <ele>279</ele>
        <time>2018-07-17T09:55:14Z</time>
      </trkpt>
      <trkpt lat="45.89478" lon="4.96081">
        <ele>278</ele>
        <time>2018-07-17T09:55:15Z</time>
      </trkpt>
      <trkpt lat="45.89478" lon="4.96071">
        <ele>278</ele>
        <time>2018-07-17T09:55:16Z</time>
      </trkpt>
      <trkpt lat="45.89477" lon="4.96061">
        <ele>278</ele>
        <time>2018-07-17T09:55:17Z</time>
      </trkpt>
      <trkpt lat="45.89476" lon="4.9605">
        <ele>278</ele>
        <time>2018-07-17T09:55:18Z</time>
      </trkpt>
      <trkpt lat="45.89475" lon="4.96038">
        <ele>278</ele>
        <time>2018-07-17T09:55:19Z</time>
      </trkpt>
      <trkpt lat="45.89475" lon="4.96027">
        <ele>278</ele>
        <time>2018-07-17T09:55:20Z</time>
      </trkpt>
      <trkpt lat="45.89476" lon="4.96019">
        <ele>278</ele>
        <time>2018-07-17T09:55:21Z</time>
      </trkpt>
      <trkpt lat="45.89473" lon="4.96007">
        <ele>278</ele>
        <time>2018-07-17T09:55:22Z</time>
      </trkpt>
      <trkpt lat="45.89473" lon="4.95996">
        <ele>278</ele>
        <time>2018-07-17T09:55:23Z</time>
      </trkpt>
      <trkpt lat="45.89474" lon="4.95987">
        <ele>278</ele>
        <time>2018-07-17T09:55:24Z</time>
      </trkpt>
      <trkpt lat="45.89473" lon="4.95977">
        <ele>278</ele>
        <time>2018-07-17T09:55:25Z</time>
      </trkpt>
      <trkpt lat="45.89473" lon="4.95969">
        <ele>278</ele>
        <time>2018-07-17T09:55:26Z</time>
      </trkpt>
      <trkpt lat="45.89475" lon="4.9596">
        <ele>278</ele>
        <time>2018-07-17T09:55:27Z</time>
      </trkpt>
      <trkpt lat="45.89473" lon="4.95951">
        <ele>278</ele>
        <time>2018-07-17T09:55:28Z</time>
      </trkpt>
      <trkpt lat="45.89471" lon="4.9594">
        <ele>278</ele>
        <time>2018-07-17T09:55:29Z</time>
      </trkpt>
      <trkpt lat="45.8947" lon="4.95929">
        <ele>278</ele>
        <time>2018-07-17T09:55:30Z</time>
      </trkpt>
      <trkpt lat="45.89471" lon="4.95921">
        <ele>278</ele>
        <time>2018-07-17T09:55:31Z</time>
      </trkpt>
      <trkpt lat="45.8947" lon="4.95912">
        <ele>278</ele>
        <time>2018-07-17T09:55:32Z</time>
      </trkpt>
      <trkpt lat="45.89469" lon="4.95903">
        <ele>278</ele>
        <time>2018-07-17T09:55:33Z</time>
      </trkpt>
      <trkpt lat="45.89469" lon="4.95894">
        <ele>278</ele>
        <time>2018-07-17T09:55:34Z</time>
      </trkpt>
      <trkpt lat="45.89468" lon="4.95884">
        <ele>278</ele>
        <time>2018-07-17T09:55:35Z</time>
      </trkpt>
      <trkpt lat="45.89465" lon="4.95874">
        <ele>278</ele>
        <time>2018-07-17T09:55:36Z</time>
      </trkpt>
      <trkpt lat="45.89464" lon="4.95865">
        <ele>278</ele>
        <time>2018-07-17T09:55:37Z</time>
      </trkpt>
      <trkpt lat="45.89462" lon="4.95856">
        <ele>278</ele>
        <time>2018-07-17T09:55:38Z</time>
      </trkpt>
      <trkpt lat="45.89462" lon="4.95849">
        <ele>278</ele>
        <time>2018-07-17T09:55:39Z</time>
      </trkpt>
      <trkpt lat="45.8946" lon="4.9584">
        <ele>278</ele>
        <time>2018-07-17T09:55:40Z</time>
      </trkpt>
      <trkpt lat="45.89458" lon="4.95832">
        <ele>278</ele>
        <time>2018-07-17T09:55:41Z</time>
      </trkpt>
      <trkpt lat="45.89456" lon="4.95824">
        <ele>278</ele>
        <time>2018-07-17T09:55:42Z</time>
      </trkpt>
      <trkpt lat="45.89454" lon="4.95816">
        <ele>278</ele>
        <time>2018-07-17T09:55:43Z</time>
      </trkpt>
      <trkpt lat="45.89451" lon="4.95807">
        <ele>278</ele>
        <time>2018-07-17T09:55:44Z</time>
      </trkpt>
      <trkpt lat="45.89451" lon="4.95799">
        <ele>278</ele>
        <time>2018-07-17T09:55:45Z</time>
      </trkpt>
      <trkpt lat="45.89449" lon="4.95792">
        <ele>278</ele>
        <time>2018-07-17T09:55:46Z</time>
      </trkpt>
      <trkpt lat="45.89447" lon="4.95784">
        <ele>278</ele>
        <time>2018-07-17T09:55:47Z</time>
      </trkpt>
      <trkpt lat="45.89445" lon="4.95775">
        <ele>279</ele>
        <time>2018-07-17T09:55:48Z</time>
      </trkpt>
      <trkpt lat="45.89443" lon="4.95766">
        <ele>279</ele>
        <time>2018-07-17T09:55:49Z</time>
      </trkpt>
      <trkpt lat="45.89443" lon="4.95759">
        <ele>279</ele>
        <time>2018-07-17T09:55:50Z</time>
      </trkpt>
      <trkpt lat="45.8944" lon="4.9575">
        <ele>279</ele>
        <time>2018-07-17T09:55:51Z</time>
      </trkpt>
      <trkpt lat="45.89437" lon="4.95741">
        <ele>279</ele>
        <time>2018-07-17T09:55:52Z</time>
      </trkpt>
      <trkpt lat="45.89435" lon="4.95733">
        <ele>279</ele>
        <time>2018-07-17T09:55:53Z</time>
      </trkpt>
      <trkpt lat="45.89433" lon="4.95724">
        <ele>278</ele>
        <time>2018-07-17T09:55:54Z</time>
      </trkpt>
      <trkpt lat="45.89432" lon="4.95716">
        <ele>278</ele>
        <time>2018-07-17T09:55:55Z</time>
      </trkpt>
      <trkpt lat="45.89429" lon="4.95708">
        <ele>278</ele>
        <time>2018-07-17T09:55:56Z</time>
      </trkpt>
      <trkpt lat="45.89428" lon="4.957">
        <ele>278</ele>
        <time>2018-07-17T09:55:57Z</time>
      </trkpt>
      <trkpt lat="45.89425" lon="4.95691">
        <ele>278</ele>
        <time>2018-07-17T09:55:58Z</time>
      </trkpt>
      <trkpt lat="45.89423" lon="4.95682">
        <ele>278</ele>
        <time>2018-07-17T09:55:59Z</time>
      </trkpt>
      <trkpt lat="45.89422" lon="4.95673">
        <ele>279</ele>
        <time>2018-07-17T09:56:00Z</time>
      </trkpt>
      <trkpt lat="45.8942" lon="4.95665">
        <ele>279</ele>
        <time>2018-07-17T09:56:01Z</time>
      </trkpt>
      <trkpt lat="45.89417" lon="4.95656">
        <ele>278</ele>
        <time>2018-07-17T09:56:02Z</time>
      </trkpt>
      <trkpt lat="45.89415" lon="4.95648">
        <ele>279</ele>
        <time>2018-07-17T09:56:03Z</time>
      </trkpt>
      <trkpt lat="45.89412" lon="4.95639">
        <ele>278</ele>
        <time>2018-07-17T09:56:04Z</time>
      </trkpt>
      <trkpt lat="45.89412" lon="4.95631">
        <ele>278</ele>
        <time>2018-07-17T09:56:05Z</time>
      </trkpt>
      <trkpt lat="45.8941" lon="4.95624">
        <ele>278</ele>
        <time>2018-07-17T09:56:06Z</time>
      </trkpt>
      <trkpt lat="45.89408" lon="4.95616">
        <ele>278</ele>
        <time>2018-07-17T09:56:07Z</time>
      </trkpt>
      <trkpt lat="45.89406" lon="4.95606">
        <ele>278</ele>
        <time>2018-07-17T09:56:08Z</time>
      </trkpt>
      <trkpt lat="45.89404" lon="4.95598">
        <ele>278</ele>
        <time>2018-07-17T09:56:09Z</time>
      </trkpt>
      <trkpt lat="45.89401" lon="4.9559">
        <ele>278</ele>
        <time>2018-07-17T09:56:10Z</time>
      </trkpt>
      <trkpt lat="45.89399" lon="4.95581">
        <ele>277</ele>
        <time>2018-07-17T09:56:11Z</time>
      </trkpt>
      <trkpt lat="45.89397" lon="4.95573">
        <ele>277</ele>
        <time>2018-07-17T09:56:12Z</time>
      </trkpt>
      <trkpt lat="45.89394" lon="4.95564">
        <ele>277</ele>
        <time>2018-07-17T09:56:13Z</time>
      </trkpt>
      <trkpt lat="45.89393" lon="4.95557">
        <ele>277</ele>
        <time>2018-07-17T09:56:14Z</time>
      </trkpt>
      <trkpt lat="45.89391" lon="4.95549">
        <ele>277</ele>
        <time>2018-07-17T09:56:15Z</time>
      </trkpt>
      <trkpt lat="45.89389" lon="4.95541">
        <ele>277</ele>
        <time>2018-07-17T09:56:16Z</time>
      </trkpt>
      <trkpt lat="45.89387" lon="4.95532">
        <ele>277</ele>
        <time>2018-07-17T09:56:17Z</time>
      </trkpt>
      <trkpt lat="45.89383" lon="4.95524">
        <ele>277</ele>
        <time>2018-07-17T09:56:18Z</time>
      </trkpt>
      <trkpt lat="45.89381" lon="4.95514">
        <ele>277</ele>
        <time>2018-07-17T09:56:19Z</time>
      </trkpt>
      <trkpt lat="45.89379" lon="4.95506">
        <ele>277</ele>
        <time>2018-07-17T09:56:20Z</time>
      </trkpt>
      <trkpt lat="45.89378" lon="4.95498">
        <ele>276</ele>
        <time>2018-07-17T09:56:21Z</time>
      </trkpt>
      <trkpt lat="45.89375" lon="4.9549">
        <ele>276</ele>
        <time>2018-07-17T09:56:22Z</time>
      </trkpt>
      <trkpt lat="45.89375" lon="4.95482">
        <ele>276</ele>
        <time>2018-07-17T09:56:23Z</time>
      </trkpt>
      <trkpt lat="45.89374" lon="4.95473">
        <ele>276</ele>
        <time>2018-07-17T09:56:24Z</time>
      </trkpt>
      <trkpt lat="45.89374" lon="4.95466">
        <ele>276</ele>
        <time>2018-07-17T09:56:25Z</time>
      </trkpt>
      <trkpt lat="45.89372" lon="4.95457">
        <ele>275</ele>
        <time>2018-07-17T09:56:26Z</time>
      </trkpt>
      <trkpt lat="45.8937" lon="4.95448">
        <ele>275</ele>
        <time>2018-07-17T09:56:27Z</time>
      </trkpt>
      <trkpt lat="45.89367" lon="4.95439">
        <ele>275</ele>
        <time>2018-07-17T09:56:28Z</time>
      </trkpt>
      <trkpt lat="45.89366" lon="4.9543">
        <ele>275</ele>
        <time>2018-07-17T09:56:29Z</time>
      </trkpt>
      <trkpt lat="45.89366" lon="4.95421">
        <ele>275</ele>
        <time>2018-07-17T09:56:30Z</time>
      </trkpt>
      <trkpt lat="45.89365" lon="4.95412">
        <ele>275</ele>
        <time>2018-07-17T09:56:31Z</time>
      </trkpt>
      <trkpt lat="45.89364" lon="4.95404">
        <ele>275</ele>
        <time>2018-07-17T09:56:32Z</time>
      </trkpt>
      <trkpt lat="45.89362" lon="4.95395">
        <ele>274</ele>
        <time>2018-07-17T09:56:33Z</time>
      </trkpt>
      <trkpt lat="45.89361" lon="4.95387">
        <ele>274</ele>
        <time>2018-07-17T09:56:34Z</time>
      </trkpt>
      <trkpt lat="45.89359" lon="4.95378">
        <ele>274</ele>
        <time>2018-07-17T09:56:35Z</time>
      </trkpt>
      <trkpt lat="45.89358" lon="4.9537">
        <ele>274</ele>
        <time>2018-07-17T09:56:36Z</time>
      </trkpt>
      <trkpt lat="45.89355" lon="4.9536">
        <ele>274</ele>
        <time>2018-07-17T09:56:37Z</time>
      </trkpt>
      <trkpt lat="45.89351" lon="4.95351">
        <ele>274</ele>
        <time>2018-07-17T09:56:38Z</time>
      </trkpt>
      <trkpt lat="45.89349" lon="4.95341">
        <ele>274</ele>
        <time>2018-07-17T09:56:39Z</time>
      </trkpt>
      <trkpt lat="45.89347" lon="4.95331">
        <ele>274</ele>
        <time>2018-07-17T09:56:40Z</time>
      </trkpt>
      <trkpt lat="45.89346" lon="4.95323">
        <ele>274</ele>
        <time>2018-07-17T09:56:41Z</time>
      </trkpt>
      <trkpt lat="45.89344" lon="4.95314">
        <ele>274</ele>
        <time>2018-07-17T09:56:42Z</time>
      </trkpt>
      <trkpt lat="45.89343" lon="4.95305">
        <ele>274</ele>
        <time>2018-07-17T09:56:43Z</time>
      </trkpt>
      <trkpt lat="45.89341" lon="4.95296">
        <ele>274</ele>
        <time>2018-07-17T09:56:44Z</time>
      </trkpt>
      <trkpt lat="45.89338" lon="4.95286">
        <ele>274</ele>
        <time>2018-07-17T09:56:45Z</time>
      </trkpt>
      <trkpt lat="45.89336" lon="4.95278">
        <ele>274</ele>
        <time>2018-07-17T09:56:46Z</time>
      </trkpt>
      <trkpt lat="45.89335" lon="4.95269">
        <ele>274</ele>
        <time>2018-07-17T09:56:47Z</time>
      </trkpt>
      <trkpt lat="45.89333" lon="4.95261">
        <ele>274</ele>
        <time>2018-07-17T09:56:48Z</time>
      </trkpt>
      <trkpt lat="45.89331" lon="4.95253">
        <ele>274</ele>
        <time>2018-07-17T09:56:49Z</time>
      </trkpt>
      <trkpt lat="45.89329" lon="4.95244">
        <ele>274</ele>
        <time>2018-07-17T09:56:50Z</time>
      </trkpt>
      <trkpt lat="45.89327" lon="4.95237">
        <ele>274</ele>
        <time>2018-07-17T09:56:51Z</time>
      </trkpt>
      <trkpt lat="45.89326" lon="4.95228">
        <ele>275</ele>
        <time>2018-07-17T09:56:52Z</time>
      </trkpt>
      <trkpt lat="45.89327" lon="4.9522">
        <ele>275</ele>
        <time>2018-07-17T09:56:53Z</time>
      </trkpt>
      <trkpt lat="45.89321" lon="4.95212">
        <ele>275</ele>
        <time>2018-07-17T09:56:54Z</time>
      </trkpt>
      <trkpt lat="45.89319" lon="4.95205">
        <ele>275</ele>
        <time>2018-07-17T09:56:55Z</time>
      </trkpt>
      <trkpt lat="45.89316" lon="4.95198">
        <ele>275</ele>
        <time>2018-07-17T09:56:56Z</time>
      </trkpt>
      <trkpt lat="45.89315" lon="4.95191">
        <ele>275</ele>
        <time>2018-07-17T09:56:57Z</time>
      </trkpt>
      <trkpt lat="45.89313" lon="4.95183">
        <ele>275</ele>
        <time>2018-07-17T09:56:58Z</time>
      </trkpt>
      <trkpt lat="45.89314" lon="4.95175">
        <ele>275</ele>
        <time>2018-07-17T09:56:59Z</time>
      </trkpt>
      <trkpt lat="45.89312" lon="4.95167">
        <ele>275</ele>
        <time>2018-07-17T09:57:00Z</time>
      </trkpt>
      <trkpt lat="45.89309" lon="4.95158">
        <ele>275</ele>
        <time>2018-07-17T09:57:01Z</time>
      </trkpt>
      <trkpt lat="45.89307" lon="4.9515">
        <ele>275</ele>
        <time>2018-07-17T09:57:02Z</time>
      </trkpt>
      <trkpt lat="45.89307" lon="4.95144">
        <ele>275</ele>
        <time>2018-07-17T09:57:03Z</time>
      </trkpt>
      <trkpt lat="45.89308" lon="4.95135">
        <ele>275</ele>
        <time>2018-07-17T09:57:04Z</time>
      </trkpt>
      <trkpt lat="45.89309" lon="4.95127">
        <ele>275</ele>
        <time>2018-07-17T09:57:05Z</time>
      </trkpt>
      <trkpt lat="45.8931" lon="4.9512">
        <ele>274</ele>
        <time>2018-07-17T09:57:06Z</time>
      </trkpt>
      <trkpt lat="45.89312" lon="4.95111">
        <ele>274</ele>
        <time>2018-07-17T09:57:07Z</time>
      </trkpt>
      <trkpt lat="45.89314" lon="4.95104">
        <ele>274</ele>
        <time>2018-07-17T09:57:08Z</time>
      </trkpt>
      <trkpt lat="45.89316" lon="4.95096">
        <ele>274</ele>
        <time>2018-07-17T09:57:09Z</time>
      </trkpt>
      <trkpt lat="45.89318" lon="4.95088">
        <ele>274</ele>
        <time>2018-07-17T09:57:10Z</time>
      </trkpt>
      <trkpt lat="45.89322" lon="4.95083">
        <ele>274</ele>
        <time>2018-07-17T09:57:11Z</time>
      </trkpt>
      <trkpt lat="45.89327" lon="4.95078">
        <ele>274</ele>
        <time>2018-07-17T09:57:12Z</time>
      </trkpt>
      <trkpt lat="45.89327" lon="4.9507">
        <ele>273</ele>
        <time>2018-07-17T09:57:13Z</time>
      </trkpt>
      <trkpt lat="45.89328" lon="4.95061">
        <ele>273</ele>
        <time>2018-07-17T09:57:14Z</time>
      </trkpt>
      <trkpt lat="45.89331" lon="4.95051">
        <ele>273</ele>
        <time>2018-07-17T09:57:15Z</time>
      </trkpt>
      <trkpt lat="45.89335" lon="4.95045">
        <ele>274</ele>
        <time>2018-07-17T09:57:16Z</time>
      </trkpt>
      <trkpt lat="45.89336" lon="4.95038">
        <ele>274</ele>
        <time>2018-07-17T09:57:17Z</time>
      </trkpt>
      <trkpt lat="45.89339" lon="4.9503">
        <ele>274</ele>
        <time>2018-07-17T09:57:18Z</time>
      </trkpt>
      <trkpt lat="45.8934" lon="4.95021">
        <ele>274</ele>
        <time>2018-07-17T09:57:19Z</time>
      </trkpt>
      <trkpt lat="45.89343" lon="4.95013">
        <ele>273</ele>
        <time>2018-07-17T09:57:20Z</time>
      </trkpt>
      <trkpt lat="45.89344" lon="4.95005">
        <ele>273</ele>
        <time>2018-07-17T09:57:21Z</time>
      </trkpt>
      <trkpt lat="45.89346" lon="4.94996">
        <ele>273</ele>
        <time>2018-07-17T09:57:22Z</time>
      </trkpt>
      <trkpt lat="45.89348" lon="4.94988">
        <ele>273</ele>
        <time>2018-07-17T09:57:23Z</time>
      </trkpt>
      <trkpt lat="45.8935" lon="4.9498">
        <ele>273</ele>
        <time>2018-07-17T09:57:24Z</time>
      </trkpt>
      <trkpt lat="45.89353" lon="4.94973">
        <ele>273</ele>
        <time>2018-07-17T09:57:25Z</time>
      </trkpt>
      <trkpt lat="45.89356" lon="4.94965">
        <ele>274</ele>
        <time>2018-07-17T09:57:26Z</time>
      </trkpt>
      <trkpt lat="45.89358" lon="4.94957">
        <ele>274</ele>
        <time>2018-07-17T09:57:27Z</time>
      </trkpt>
      <trkpt lat="45.89361" lon="4.94949">
        <ele>274</ele>
        <time>2018-07-17T09:57:28Z</time>
      </trkpt>
      <trkpt lat="45.89366" lon="4.94945">
        <ele>274</ele>
        <time>2018-07-17T09:57:29Z</time>
      </trkpt>
      <trkpt lat="45.89367" lon="4.94936">
        <ele>274</ele>
        <time>2018-07-17T09:57:30Z</time>
      </trkpt>
      <trkpt lat="45.8937" lon="4.9493">
        <ele>274</ele>
        <time>2018-07-17T09:57:31Z</time>
      </trkpt>
      <trkpt lat="45.89373" lon="4.94924">
        <ele>274</ele>
        <time>2018-07-17T09:57:32Z</time>
      </trkpt>
      <trkpt lat="45.89373" lon="4.94913">
        <ele>273</ele>
        <time>2018-07-17T09:57:33Z</time>
      </trkpt>
      <trkpt lat="45.89375" lon="4.94905">
        <ele>273</ele>
        <time>2018-07-17T09:57:34Z</time>
      </trkpt>
      <trkpt lat="45.89378" lon="4.94898">
        <ele>273</ele>
        <time>2018-07-17T09:57:35Z</time>
      </trkpt>
      <trkpt lat="45.8938" lon="4.94888">
        <ele>273</ele>
        <time>2018-07-17T09:57:36Z</time>
      </trkpt>
      <trkpt lat="45.89382" lon="4.94881">
        <ele>273</ele>
        <time>2018-07-17T09:57:37Z</time>
      </trkpt>
      <trkpt lat="45.89383" lon="4.94872">
        <ele>273</ele>
        <time>2018-07-17T09:57:38Z</time>
      </trkpt>
      <trkpt lat="45.89386" lon="4.94865">
        <ele>273</ele>
        <time>2018-07-17T09:57:39Z</time>
      </trkpt>
      <trkpt lat="45.89387" lon="4.94858">
        <ele>273</ele>
        <time>2018-07-17T09:57:40Z</time>
      </trkpt>
      <trkpt lat="45.8939" lon="4.94851">
        <ele>273</ele>
        <time>2018-07-17T09:57:41Z</time>
      </trkpt>
      <trkpt lat="45.89391" lon="4.94843">
        <ele>273</ele>
        <time>2018-07-17T09:57:42Z</time>
      </trkpt>
      <trkpt lat="45.89393" lon="4.94836">
        <ele>273</ele>
        <time>2018-07-17T09:57:43Z</time>
      </trkpt>
      <trkpt lat="45.89395" lon="4.94829">
        <ele>273</ele>
        <time>2018-07-17T09:57:44Z</time>
      </trkpt>
      <trkpt lat="45.89395" lon="4.94821">
        <ele>273</ele>
        <time>2018-07-17T09:57:45Z</time>
      </trkpt>
      <trkpt lat="45.89398" lon="4.94816">
        <ele>273</ele>
        <time>2018-07-17T09:57:46Z</time>
      </trkpt>
      <trkpt lat="45.89401" lon="4.94809">
        <ele>273</ele>
        <time>2018-07-17T09:57:47Z</time>
      </trkpt>
      <trkpt lat="45.89402" lon="4.94803">
        <ele>273</ele>
        <time>2018-07-17T09:57:48Z</time>
      </trkpt>
      <trkpt lat="45.89404" lon="4.94795">
        <ele>272</ele>
        <time>2018-07-17T09:57:49Z</time>
      </trkpt>
      <trkpt lat="45.89406" lon="4.94787">
        <ele>272</ele>
        <time>2018-07-17T09:57:50Z</time>
      </trkpt>
      <trkpt lat="45.89408" lon="4.94779">
        <ele>272</ele>
        <time>2018-07-17T09:57:51Z</time>
      </trkpt>
      <trkpt lat="45.8941" lon="4.94771">
        <ele>273</ele>
        <time>2018-07-17T09:57:52Z</time>
      </trkpt>
      <trkpt lat="45.89413" lon="4.94764">
        <ele>273</ele>
        <time>2018-07-17T09:57:53Z</time>
      </trkpt>
      <trkpt lat="45.89414" lon="4.94757">
        <ele>273</ele>
        <time>2018-07-17T09:57:54Z</time>
      </trkpt>
      <trkpt lat="45.89417" lon="4.94749">
        <ele>273</ele>
        <time>2018-07-17T09:57:55Z</time>
      </trkpt>
      <trkpt lat="45.89419" lon="4.94741">
        <ele>274</ele>
        <time>2018-07-17T09:57:56Z</time>
      </trkpt>
      <trkpt lat="45.89421" lon="4.94735">
        <ele>274</ele>
        <time>2018-07-17T09:57:57Z</time>
      </trkpt>
      <trkpt lat="45.89425" lon="4.94728">
        <ele>274</ele>
        <time>2018-07-17T09:57:58Z</time>
      </trkpt>
      <trkpt lat="45.89427" lon="4.9472">
        <ele>274</ele>
        <time>2018-07-17T09:57:59Z</time>
      </trkpt>
      <trkpt lat="45.89428" lon="4.94713">
        <ele>274</ele>
        <time>2018-07-17T09:58:00Z</time>
      </trkpt>
      <trkpt lat="45.89431" lon="4.94706">
        <ele>274</ele>
        <time>2018-07-17T09:58:01Z</time>
      </trkpt>
      <trkpt lat="45.89433" lon="4.94698">
        <ele>274</ele>
        <time>2018-07-17T09:58:02Z</time>
      </trkpt>
      <trkpt lat="45.89436" lon="4.94692">
        <ele>274</ele>
        <time>2018-07-17T09:58:03Z</time>
      </trkpt>
      <trkpt lat="45.89439" lon="4.94681">
        <ele>274</ele>
        <time>2018-07-17T09:58:05Z</time>
      </trkpt>
      <trkpt lat="45.89441" lon="4.94676">
        <ele>274</ele>
        <time>2018-07-17T09:58:06Z</time>
      </trkpt>
      <trkpt lat="45.89443" lon="4.94668">
        <ele>274</ele>
        <time>2018-07-17T09:58:07Z</time>
      </trkpt>
      <trkpt lat="45.89445" lon="4.94661">
        <ele>273</ele>
        <time>2018-07-17T09:58:08Z</time>
      </trkpt>
      <trkpt lat="45.89447" lon="4.94654">
        <ele>273</ele>
        <time>2018-07-17T09:58:09Z</time>
      </trkpt>
      <trkpt lat="45.89449" lon="4.94647">
        <ele>274</ele>
        <time>2018-07-17T09:58:10Z</time>
      </trkpt>
      <trkpt lat="45.8945" lon="4.94636">
        <ele>274</ele>
        <time>2018-07-17T09:58:11Z</time>
      </trkpt>
      <trkpt lat="45.89453" lon="4.9463">
        <ele>274</ele>
        <time>2018-07-17T09:58:12Z</time>
      </trkpt>
      <trkpt lat="45.89454" lon="4.94624">
        <ele>274</ele>
        <time>2018-07-17T09:58:13Z</time>
      </trkpt>
      <trkpt lat="45.89456" lon="4.94617">
        <ele>274</ele>
        <time>2018-07-17T09:58:14Z</time>
      </trkpt>
      <trkpt lat="45.89457" lon="4.94611">
        <ele>274</ele>
        <time>2018-07-17T09:58:15Z</time>
      </trkpt>
      <trkpt lat="45.89459" lon="4.94603">
        <ele>274</ele>
        <time>2018-07-17T09:58:16Z</time>
      </trkpt>
      <trkpt lat="45.8946" lon="4.94596">
        <ele>274</ele>
        <time>2018-07-17T09:58:17Z</time>
      </trkpt>
      <trkpt lat="45.89463" lon="4.94587">
        <ele>274</ele>
        <time>2018-07-17T09:58:18Z</time>
      </trkpt>
      <trkpt lat="45.89463" lon="4.94578">
        <ele>274</ele>
        <time>2018-07-17T09:58:19Z</time>
      </trkpt>
      <trkpt lat="45.89461" lon="4.94569">
        <ele>274</ele>
        <time>2018-07-17T09:58:20Z</time>
      </trkpt>
      <trkpt lat="45.89462" lon="4.9456">
        <ele>274</ele>
        <time>2018-07-17T09:58:21Z</time>
      </trkpt>
      <trkpt lat="45.89463" lon="4.94552">
        <ele>274</ele>
        <time>2018-07-17T09:58:22Z</time>
      </trkpt>
      <trkpt lat="45.89464" lon="4.94545">
        <ele>274</ele>
        <time>2018-07-17T09:58:23Z</time>
      </trkpt>
      <trkpt lat="45.89465" lon="4.94537">
        <ele>274</ele>
        <time>2018-07-17T09:58:24Z</time>
      </trkpt>
      <trkpt lat="45.89469" lon="4.94527">
        <ele>274</ele>
        <time>2018-07-17T09:58:26Z</time>
      </trkpt>
      <trkpt lat="45.8947" lon="4.94519">
        <ele>274</ele>
        <time>2018-07-17T09:58:27Z</time>
      </trkpt>
      <trkpt lat="45.89471" lon="4.94513">
        <ele>274</ele>
        <time>2018-07-17T09:58:28Z</time>
      </trkpt>
      <trkpt lat="45.89471" lon="4.94503">
        <ele>274</ele>
        <time>2018-07-17T09:58:29Z</time>
      </trkpt>
      <trkpt lat="45.8947" lon="4.94495">
        <ele>274</ele>
        <time>2018-07-17T09:58:30Z</time>
      </trkpt>
      <trkpt lat="45.89473" lon="4.94488">
        <ele>274</ele>
        <time>2018-07-17T09:58:31Z</time>
      </trkpt>
      <trkpt lat="45.89474" lon="4.94479">
        <ele>274</ele>
        <time>2018-07-17T09:58:32Z</time>
      </trkpt>
      <trkpt lat="45.89472" lon="4.94468">
        <ele>274</ele>
        <time>2018-07-17T09:58:33Z</time>
      </trkpt>
      <trkpt lat="45.89472" lon="4.94458">
        <ele>274</ele>
        <time>2018-07-17T09:58:34Z</time>
      </trkpt>
      <trkpt lat="45.89475" lon="4.94451">
        <ele>274</ele>
        <time>2018-07-17T09:58:35Z</time>
      </trkpt>
      <trkpt lat="45.89476" lon="4.94444">
        <ele>274</ele>
        <time>2018-07-17T09:58:36Z</time>
      </trkpt>
      <trkpt lat="45.89479" lon="4.94436">
        <ele>274</ele>
        <time>2018-07-17T09:58:37Z</time>
      </trkpt>
      <trkpt lat="45.89481" lon="4.94428">
        <ele>274</ele>
        <time>2018-07-17T09:58:38Z</time>
      </trkpt>
      <trkpt lat="45.8948" lon="4.94418">
        <ele>274</ele>
        <time>2018-07-17T09:58:39Z</time>
      </trkpt>
      <trkpt lat="45.89482" lon="4.9441">
        <ele>274</ele>
        <time>2018-07-17T09:58:40Z</time>
      </trkpt>
      <trkpt lat="45.89482" lon="4.94401">
        <ele>274</ele>
        <time>2018-07-17T09:58:41Z</time>
      </trkpt>
      <trkpt lat="45.89483" lon="4.94392">
        <ele>274</ele>
        <time>2018-07-17T09:58:42Z</time>
      </trkpt>
      <trkpt lat="45.89483" lon="4.94384">
        <ele>274</ele>
        <time>2018-07-17T09:58:43Z</time>
      </trkpt>
      <trkpt lat="45.89483" lon="4.94377">
        <ele>274</ele>
        <time>2018-07-17T09:58:44Z</time>
      </trkpt>
      <trkpt lat="45.89484" lon="4.94369">
        <ele>274</ele>
        <time>2018-07-17T09:58:45Z</time>
      </trkpt>
      <trkpt lat="45.89485" lon="4.94361">
        <ele>274</ele>
        <time>2018-07-17T09:58:46Z</time>
      </trkpt>
      <trkpt lat="45.89485" lon="4.94354">
        <ele>274</ele>
        <time>2018-07-17T09:58:47Z</time>
      </trkpt>
      <trkpt lat="45.89485" lon="4.94345">
        <ele>274</ele>
        <time>2018-07-17T09:58:48Z</time>
      </trkpt>
      <trkpt lat="45.89486" lon="4.94337">
        <ele>274</ele>
        <time>2018-07-17T09:58:49Z</time>
      </trkpt>
      <trkpt lat="45.89489" lon="4.94331">
        <ele>275</ele>
        <time>2018-07-17T09:58:50Z</time>
      </trkpt>
      <trkpt lat="45.89489" lon="4.94322">
        <ele>275</ele>
        <time>2018-07-17T09:58:51Z</time>
      </trkpt>
      <trkpt lat="45.89491" lon="4.94315">
        <ele>274</ele>
        <time>2018-07-17T09:58:52Z</time>
      </trkpt>
      <trkpt lat="45.89492" lon="4.94307">
        <ele>274</ele>
        <time>2018-07-17T09:58:53Z</time>
      </trkpt>
      <trkpt lat="45.89493" lon="4.943">
        <ele>274</ele>
        <time>2018-07-17T09:58:54Z</time>
      </trkpt>
      <trkpt lat="45.89494" lon="4.94294">
        <ele>275</ele>
        <time>2018-07-17T09:58:55Z</time>
      </trkpt>
      <trkpt lat="45.89494" lon="4.94288">
        <ele>275</ele>
        <time>2018-07-17T09:58:56Z</time>
      </trkpt>
      <trkpt lat="45.89495" lon="4.9428">
        <ele>275</ele>
        <time>2018-07-17T09:58:57Z</time>
      </trkpt>
      <trkpt lat="45.89495" lon="4.94274">
        <ele>275</ele>
        <time>2018-07-17T09:58:58Z</time>
      </trkpt>
      <trkpt lat="45.89496" lon="4.94267">
        <ele>275</ele>
        <time>2018-07-17T09:58:59Z</time>
      </trkpt>
      <trkpt lat="45.89495" lon="4.94258">
        <ele>275</ele>
        <time>2018-07-17T09:59:00Z</time>
      </trkpt>
      <trkpt lat="45.89496" lon="4.94249">
        <ele>276</ele>
        <time>2018-07-17T09:59:01Z</time>
      </trkpt>
      <trkpt lat="45.89496" lon="4.94241">
        <ele>275</ele>
        <time>2018-07-17T09:59:02Z</time>
      </trkpt>
      <trkpt lat="45.89496" lon="4.94231">
        <ele>275</ele>
        <time>2018-07-17T09:59:03Z</time>
      </trkpt>
      <trkpt lat="45.89496" lon="4.94223">
        <ele>275</ele>
        <time>2018-07-17T09:59:04Z</time>
      </trkpt>
      <trkpt lat="45.895" lon="4.94217">
        <ele>276</ele>
        <time>2018-07-17T09:59:05Z</time>
      </trkpt>
      <trkpt lat="45.89501" lon="4.94209">
        <ele>276</ele>
        <time>2018-07-17T09:59:06Z</time>
      </trkpt>
      <trkpt lat="45.89501" lon="4.94201">
        <ele>276</ele>
        <time>2018-07-17T09:59:07Z</time>
      </trkpt>
      <trkpt lat="45.89503" lon="4.94193">
        <ele>276</ele>
        <time>2018-07-17T09:59:08Z</time>
      </trkpt>
      <trkpt lat="45.89504" lon="4.94184">
        <ele>276</ele>
        <time>2018-07-17T09:59:09Z</time>
      </trkpt>
      <trkpt lat="45.89505" lon="4.94176">
        <ele>275</ele>
        <time>2018-07-17T09:59:12Z</time>
      </trkpt>
      <trkpt lat="45.89508" lon="4.94163">
        <ele>275</ele>
        <time>2018-07-17T09:59:13Z</time>
      </trkpt>
      <trkpt lat="45.89508" lon="4.94157">
        <ele>275</ele>
        <time>2018-07-17T09:59:14Z</time>
      </trkpt>
      <trkpt lat="45.89508" lon="4.94147">
        <ele>275</ele>
        <time>2018-07-17T09:59:15Z</time>
      </trkpt>
      <trkpt lat="45.89508" lon="4.94138">
        <ele>275</ele>
        <time>2018-07-17T09:59:16Z</time>
      </trkpt>
      <trkpt lat="45.89507" lon="4.94129">
        <ele>275</ele>
        <time>2018-07-17T09:59:17Z</time>
      </trkpt>
      <trkpt lat="45.89509" lon="4.9412">
        <ele>275</ele>
        <time>2018-07-17T09:59:18Z</time>
      </trkpt>
      <trkpt lat="45.89509" lon="4.94112">
        <ele>275</ele>
        <time>2018-07-17T09:59:19Z</time>
      </trkpt>
      <trkpt lat="45.89509" lon="4.94104">
        <ele>275</ele>
        <time>2018-07-17T09:59:20Z</time>
      </trkpt>
      <trkpt lat="45.8951" lon="4.94095">
        <ele>275</ele>
        <time>2018-07-17T09:59:21Z</time>
      </trkpt>
      <trkpt lat="45.8951" lon="4.94086">
        <ele>275</ele>
        <time>2018-07-17T09:59:22Z</time>
      </trkpt>
      <trkpt lat="45.8951" lon="4.94077">
        <ele>275</ele>
        <time>2018-07-17T09:59:23Z</time>
      </trkpt>
      <trkpt lat="45.8951" lon="4.94069">
        <ele>275</ele>
        <time>2018-07-17T09:59:24Z</time>
      </trkpt>
      <trkpt lat="45.89511" lon="4.94061">
        <ele>275</ele>
        <time>2018-07-17T09:59:25Z</time>
      </trkpt>
      <trkpt lat="45.89512" lon="4.94053">
        <ele>275</ele>
        <time>2018-07-17T09:59:26Z</time>
      </trkpt>
      <trkpt lat="45.89512" lon="4.94046">
        <ele>275</ele>
        <time>2018-07-17T09:59:27Z</time>
      </trkpt>
      <trkpt lat="45.89514" lon="4.94038">
        <ele>275</ele>
        <time>2018-07-17T09:59:28Z</time>
      </trkpt>
      <trkpt lat="45.89515" lon="4.9403">
        <ele>275</ele>
        <time>2018-07-17T09:59:29Z</time>
      </trkpt>
      <trkpt lat="45.89514" lon="4.94021">
        <ele>275</ele>
        <time>2018-07-17T09:59:30Z</time>
      </trkpt>
      <trkpt lat="45.89515" lon="4.94013">
        <ele>275</ele>
        <time>2018-07-17T09:59:31Z</time>
      </trkpt>
      <trkpt lat="45.89516" lon="4.94005">
        <ele>274</ele>
        <time>2018-07-17T09:59:32Z</time>
      </trkpt>
      <trkpt lat="45.89517" lon="4.93997">
        <ele>274</ele>
        <time>2018-07-17T09:59:33Z</time>
      </trkpt>
      <trkpt lat="45.89517" lon="4.93989">
        <ele>274</ele>
        <time>2018-07-17T09:59:34Z</time>
      </trkpt>
      <trkpt lat="45.89516" lon="4.93981">
        <ele>274</ele>
        <time>2018-07-17T09:59:35Z</time>
      </trkpt>
      <trkpt lat="45.89516" lon="4.93971">
        <ele>274</ele>
        <time>2018-07-17T09:59:36Z</time>
      </trkpt>
      <trkpt lat="45.89516" lon="4.93964">
        <ele>274</ele>
        <time>2018-07-17T09:59:37Z</time>
      </trkpt>
      <trkpt lat="45.89516" lon="4.93956">
        <ele>274</ele>
        <time>2018-07-17T09:59:38Z</time>
      </trkpt>
      <trkpt lat="45.89515" lon="4.93946">
        <ele>274</ele>
        <time>2018-07-17T09:59:39Z</time>
      </trkpt>
      <trkpt lat="45.89515" lon="4.93938">
        <ele>274</ele>
        <time>2018-07-17T09:59:40Z</time>
      </trkpt>
      <trkpt lat="45.89516" lon="4.9393">
        <ele>274</ele>
        <time>2018-07-17T09:59:41Z</time>
      </trkpt>
      <trkpt lat="45.89514" lon="4.93923">
        <ele>273</ele>
        <time>2018-07-17T09:59:42Z</time>
      </trkpt>
      <trkpt lat="45.89514" lon="4.93916">
        <ele>273</ele>
        <time>2018-07-17T09:59:43Z</time>
      </trkpt>
      <trkpt lat="45.89517" lon="4.93909">
        <ele>273</ele>
        <time>2018-07-17T09:59:44Z</time>
      </trkpt>
      <trkpt lat="45.89517" lon="4.939">
        <ele>273</ele>
        <time>2018-07-17T09:59:45Z</time>
      </trkpt>
      <trkpt lat="45.89517" lon="4.93889">
        <ele>274</ele>
        <time>2018-07-17T09:59:46Z</time>
      </trkpt>
      <trkpt lat="45.89519" lon="4.93884">
        <ele>274</ele>
        <time>2018-07-17T09:59:47Z</time>
      </trkpt>
      <trkpt lat="45.89519" lon="4.93875">
        <ele>274</ele>
        <time>2018-07-17T09:59:48Z</time>
      </trkpt>
      <trkpt lat="45.8952" lon="4.93867">
        <ele>274</ele>
        <time>2018-07-17T09:59:49Z</time>
      </trkpt>
      <trkpt lat="45.89521" lon="4.93859">
        <ele>274</ele>
        <time>2018-07-17T09:59:50Z</time>
      </trkpt>
      <trkpt lat="45.89521" lon="4.93852">
        <ele>274</ele>
        <time>2018-07-17T09:59:51Z</time>
      </trkpt>
      <trkpt lat="45.89521" lon="4.93843">
        <ele>274</ele>
        <time>2018-07-17T09:59:52Z</time>
      </trkpt>
      <trkpt lat="45.89522" lon="4.93836">
        <ele>274</ele>
        <time>2018-07-17T09:59:53Z</time>
      </trkpt>
      <trkpt lat="45.89523" lon="4.93828">
        <ele>274</ele>
        <time>2018-07-17T09:59:54Z</time>
      </trkpt>
      <trkpt lat="45.89524" lon="4.93818">
        <ele>274</ele>
        <time>2018-07-17T09:59:55Z</time>
      </trkpt>
      <trkpt lat="45.89525" lon="4.93811">
        <ele>274</ele>
        <time>2018-07-17T09:59:56Z</time>
      </trkpt>
      <trkpt lat="45.89528" lon="4.93804">
        <ele>274</ele>
        <time>2018-07-17T09:59:57Z</time>
      </trkpt>
      <trkpt lat="45.89529" lon="4.93794">
        <ele>274</ele>
        <time>2018-07-17T09:59:58Z</time>
      </trkpt>
      <trkpt lat="45.8953" lon="4.93786">
        <ele>274</ele>
        <time>2018-07-17T09:59:59Z</time>
      </trkpt>
      <trkpt lat="45.89532" lon="4.9378">
        <ele>274</ele>
        <time>2018-07-17T10:00:00Z</time>
      </trkpt>
      <trkpt lat="45.89532" lon="4.93773">
        <ele>274</ele>
        <time>2018-07-17T10:00:01Z</time>
      </trkpt>
      <trkpt lat="45.89533" lon="4.9376">
        <ele>275</ele>
        <time>2018-07-17T10:00:03Z</time>
      </trkpt>
      <trkpt lat="45.89533" lon="4.93753">
        <ele>275</ele>
        <time>2018-07-17T10:00:04Z</time>
      </trkpt>
      <trkpt lat="45.89534" lon="4.93745">
        <ele>275</ele>
        <time>2018-07-17T10:00:05Z</time>
      </trkpt>
      <trkpt lat="45.89534" lon="4.93738">
        <ele>275</ele>
        <time>2018-07-17T10:00:06Z</time>
      </trkpt>
      <trkpt lat="45.89534" lon="4.9373">
        <ele>275</ele>
        <time>2018-07-17T10:00:07Z</time>
      </trkpt>
      <trkpt lat="45.89533" lon="4.93722">
        <ele>275</ele>
        <time>2018-07-17T10:00:08Z</time>
      </trkpt>
      <trkpt lat="45.89532" lon="4.93714">
        <ele>275</ele>
        <time>2018-07-17T10:00:09Z</time>
      </trkpt>
      <trkpt lat="45.89533" lon="4.93706">
        <ele>275</ele>
        <time>2018-07-17T10:00:10Z</time>
      </trkpt>
      <trkpt lat="45.89534" lon="4.93699">
        <ele>275</ele>
        <time>2018-07-17T10:00:11Z</time>
      </trkpt>
      <trkpt lat="45.89534" lon="4.93691">
        <ele>275</ele>
        <time>2018-07-17T10:00:12Z</time>
      </trkpt>
      <trkpt lat="45.89534" lon="4.93683">
        <ele>275</ele>
        <time>2018-07-17T10:00:13Z</time>
      </trkpt>
      <trkpt lat="45.89534" lon="4.93675">
        <ele>275</ele>
        <time>2018-07-17T10:00:14Z</time>
      </trkpt>
      <trkpt lat="45.89535" lon="4.93668">
        <ele>275</ele>
        <time>2018-07-17T10:00:15Z</time>
      </trkpt>
      <trkpt lat="45.89535" lon="4.93661">
        <ele>276</ele>
        <time>2018-07-17T10:00:16Z</time>
      </trkpt>
      <trkpt lat="45.89536" lon="4.93653">
        <ele>276</ele>
        <time>2018-07-17T10:00:17Z</time>
      </trkpt>
      <trkpt lat="45.89538" lon="4.93646">
        <ele>277</ele>
        <time>2018-07-17T10:00:18Z</time>
      </trkpt>
      <trkpt lat="45.89535" lon="4.93638">
        <ele>277</ele>
        <time>2018-07-17T10:00:19Z</time>
      </trkpt>
      <trkpt lat="45.89535" lon="4.93631">
        <ele>277</ele>
        <time>2018-07-17T10:00:20Z</time>
      </trkpt>
      <trkpt lat="45.89536" lon="4.93624">
        <ele>277</ele>
        <time>2018-07-17T10:00:21Z</time>
      </trkpt>
      <trkpt lat="45.89537" lon="4.93617">
        <ele>277</ele>
        <time>2018-07-17T10:00:22Z</time>
      </trkpt>
      <trkpt lat="45.89536" lon="4.93609">
        <ele>277</ele>
        <time>2018-07-17T10:00:23Z</time>
      </trkpt>
      <trkpt lat="45.89536" lon="4.93601">
        <ele>277</ele>
        <time>2018-07-17T10:00:24Z</time>
      </trkpt>
      <trkpt lat="45.89538" lon="4.93596">
        <ele>277</ele>
        <time>2018-07-17T10:00:25Z</time>
      </trkpt>
      <trkpt lat="45.89538" lon="4.93588">
        <ele>278</ele>
        <time>2018-07-17T10:00:26Z</time>
      </trkpt>
      <trkpt lat="45.89539" lon="4.93582">
        <ele>279</ele>
        <time>2018-07-17T10:00:27Z</time>
      </trkpt>
      <trkpt lat="45.8954" lon="4.93575">
        <ele>279</ele>
        <time>2018-07-17T10:00:28Z</time>
      </trkpt>
      <trkpt lat="45.89541" lon="4.93569">
        <ele>279</ele>
        <time>2018-07-17T10:00:29Z</time>
      </trkpt>
      <trkpt lat="45.89541" lon="4.93562">
        <ele>279</ele>
        <time>2018-07-17T10:00:30Z</time>
      </trkpt>
      <trkpt lat="45.89542" lon="4.93554">
        <ele>279</ele>
        <time>2018-07-17T10:00:31Z</time>
      </trkpt>
      <trkpt lat="45.89543" lon="4.93546">
        <ele>279</ele>
        <time>2018-07-17T10:00:32Z</time>
      </trkpt>
      <trkpt lat="45.89543" lon="4.9354">
        <ele>279</ele>
        <time>2018-07-17T10:00:33Z</time>
      </trkpt>
      <trkpt lat="45.89545" lon="4.93531">
        <ele>279</ele>
        <time>2018-07-17T10:00:34Z</time>
      </trkpt>
      <trkpt lat="45.89547" lon="4.93524">
        <ele>279</ele>
        <time>2018-07-17T10:00:35Z</time>
      </trkpt>
      <trkpt lat="45.89547" lon="4.93518">
        <ele>279</ele>
        <time>2018-07-17T10:00:36Z</time>
      </trkpt>
      <trkpt lat="45.89548" lon="4.9351">
        <ele>279</ele>
        <time>2018-07-17T10:00:37Z</time>
      </trkpt>
      <trkpt lat="45.89547" lon="4.93503">
        <ele>279</ele>
        <time>2018-07-17T10:00:38Z</time>
      </trkpt>
      <trkpt lat="45.89549" lon="4.93495">
        <ele>280</ele>
        <time>2018-07-17T10:00:39Z</time>
      </trkpt>
      <trkpt lat="45.89549" lon="4.93489">
        <ele>280</ele>
        <time>2018-07-17T10:00:40Z</time>
      </trkpt>
      <trkpt lat="45.89549" lon="4.93477">
        <ele>280</ele>
        <time>2018-07-17T10:00:42Z</time>
      </trkpt>
      <trkpt lat="45.8955" lon="4.93471">
        <ele>280</ele>
        <time>2018-07-17T10:00:43Z</time>
      </trkpt>
      <trkpt lat="45.89548" lon="4.93465">
        <ele>280</ele>
        <time>2018-07-17T10:00:44Z</time>
      </trkpt>
      <trkpt lat="45.89548" lon="4.93459">
        <ele>280</ele>
        <time>2018-07-17T10:00:45Z</time>
      </trkpt>
      <trkpt lat="45.89548" lon="4.93453">
        <ele>280</ele>
        <time>2018-07-17T10:00:47Z</time>
      </trkpt>
      <trkpt lat="45.89547" lon="4.93444">
        <ele>280</ele>
        <time>2018-07-17T10:00:48Z</time>
      </trkpt>
      <trkpt lat="45.89548" lon="4.93435">
        <ele>280</ele>
        <time>2018-07-17T10:00:50Z</time>
      </trkpt>
      <trkpt lat="45.89548" lon="4.93428">
        <ele>280</ele>
        <time>2018-07-17T10:00:51Z</time>
      </trkpt>
      <trkpt lat="45.89546" lon="4.93418">
        <ele>280</ele>
        <time>2018-07-17T10:00:53Z</time>
      </trkpt>
      <trkpt lat="45.89545" lon="4.93413">
        <ele>282</ele>
        <time>2018-07-17T10:00:54Z</time>
      </trkpt>
      <trkpt lat="45.89543" lon="4.93402">
        <ele>282</ele>
        <time>2018-07-17T10:00:57Z</time>
      </trkpt>
      <trkpt lat="45.89542" lon="4.93399">
        <ele>282</ele>
        <time>2018-07-17T10:00:58Z</time>
      </trkpt>
      <trkpt lat="45.89541" lon="4.93397">
        <ele>282</ele>
        <time>2018-07-17T10:00:59Z</time>
      </trkpt>
      <trkpt lat="45.89539" lon="4.93387">
        <ele>282</ele>
        <time>2018-07-17T10:01:00Z</time>
      </trkpt>
      <trkpt lat="45.89537" lon="4.93376">
        <ele>282</ele>
        <time>2018-07-17T10:01:02Z</time>
      </trkpt>
      <trkpt lat="45.89535" lon="4.93371">
        <ele>282</ele>
        <time>2018-07-17T10:01:03Z</time>
      </trkpt>
      <trkpt lat="45.89532" lon="4.93359">
        <ele>282</ele>
        <time>2018-07-17T10:01:06Z</time>
      </trkpt>
      <trkpt lat="45.89529" lon="4.93353">
        <ele>282</ele>
        <time>2018-07-17T10:01:07Z</time>
      </trkpt>
      <trkpt lat="45.89526" lon="4.93344">
        <ele>283</ele>
        <time>2018-07-17T10:01:09Z</time>
      </trkpt>
      <trkpt lat="45.89525" lon="4.93339">
        <ele>283</ele>
        <time>2018-07-17T10:01:10Z</time>
      </trkpt>
      <trkpt lat="45.89523" lon="4.93328">
        <ele>285</ele>
        <time>2018-07-17T10:01:12Z</time>
      </trkpt>
      <trkpt lat="45.89523" lon="4.93323">
        <ele>285</ele>
        <time>2018-07-17T10:01:13Z</time>
      </trkpt>
      <trkpt lat="45.89523" lon="4.93312">
        <ele>285</ele>
        <time>2018-07-17T10:01:16Z</time>
      </trkpt>
      <trkpt lat="45.89524" lon="4.93309">
        <ele>285</ele>
        <time>2018-07-17T10:01:17Z</time>
      </trkpt>
      <trkpt lat="45.89526" lon="4.93297">
        <ele>286</ele>
        <time>2018-07-17T10:01:20Z</time>
      </trkpt>
      <trkpt lat="45.89526" lon="4.93292">
        <ele>286</ele>
        <time>2018-07-17T10:01:21Z</time>
      </trkpt>
      <trkpt lat="45.89528" lon="4.93282">
        <ele>286</ele>
        <time>2018-07-17T10:01:23Z</time>
      </trkpt>
      <trkpt lat="45.89529" lon="4.93268">
        <ele>287</ele>
        <time>2018-07-17T10:01:24Z</time>
      </trkpt>
      <trkpt lat="45.89527" lon="4.93259">
        <ele>287</ele>
        <time>2018-07-17T10:01:25Z</time>
      </trkpt>
      <trkpt lat="45.89528" lon="4.93253">
        <ele>287</ele>
        <time>2018-07-17T10:01:26Z</time>
      </trkpt>
      <trkpt lat="45.89529" lon="4.93247">
        <ele>288</ele>
        <time>2018-07-17T10:01:27Z</time>
      </trkpt>
      <trkpt lat="45.89527" lon="4.93239">
        <ele>287</ele>
        <time>2018-07-17T10:01:28Z</time>
      </trkpt>
      <trkpt lat="45.89525" lon="4.9323">
        <ele>287</ele>
        <time>2018-07-17T10:01:29Z</time>
      </trkpt>
      <trkpt lat="45.89525" lon="4.93222">
        <ele>287</ele>
        <time>2018-07-17T10:01:30Z</time>
      </trkpt>
      <trkpt lat="45.89523" lon="4.93214">
        <ele>287</ele>
        <time>2018-07-17T10:01:31Z</time>
      </trkpt>
      <trkpt lat="45.89521" lon="4.93207">
        <ele>287</ele>
        <time>2018-07-17T10:01:32Z</time>
      </trkpt>
      <trkpt lat="45.89521" lon="4.93198">
        <ele>287</ele>
        <time>2018-07-17T10:01:33Z</time>
      </trkpt>
      <trkpt lat="45.89518" lon="4.93191">
        <ele>287</ele>
        <time>2018-07-17T10:01:34Z</time>
      </trkpt>
      <trkpt lat="45.89517" lon="4.93184">
        <ele>286</ele>
        <time>2018-07-17T10:01:35Z</time>
      </trkpt>
      <trkpt lat="45.89514" lon="4.93177">
        <ele>286</ele>
        <time>2018-07-17T10:01:36Z</time>
      </trkpt>
      <trkpt lat="45.89511" lon="4.9317">
        <ele>286</ele>
        <time>2018-07-17T10:01:37Z</time>
      </trkpt>
      <trkpt lat="45.8951" lon="4.93164">
        <ele>285</ele>
        <time>2018-07-17T10:01:38Z</time>
      </trkpt>
      <trkpt lat="45.89506" lon="4.93154">
        <ele>285</ele>
        <time>2018-07-17T10:01:40Z</time>
      </trkpt>
      <trkpt lat="45.89505" lon="4.93148">
        <ele>285</ele>
        <time>2018-07-17T10:01:41Z</time>
      </trkpt>
      <trkpt lat="45.89502" lon="4.93137">
        <ele>285</ele>
        <time>2018-07-17T10:01:43Z</time>
      </trkpt>
      <trkpt lat="45.89502" lon="4.93135">
        <ele>285</ele>
        <time>2018-07-17T10:01:44Z</time>
      </trkpt>
      <trkpt lat="45.89499" lon="4.93123">
        <ele>283</ele>
        <time>2018-07-17T10:01:50Z</time>
      </trkpt>
      <trkpt lat="45.89499" lon="4.93122">
        <ele>283</ele>
        <time>2018-07-17T10:01:51Z</time>
      </trkpt>
      <trkpt lat="45.89497" lon="4.93111">
        <ele>283</ele>
        <time>2018-07-17T10:01:59Z</time>
      </trkpt>
      <trkpt lat="45.89493" lon="4.93104">
        <ele>283</ele>
        <time>2018-07-17T10:02:00Z</time>
      </trkpt>
      <trkpt lat="45.89486" lon="4.93105">
        <ele>283</ele>
        <time>2018-07-17T10:02:02Z</time>
      </trkpt>
      <trkpt lat="45.89481" lon="4.93105">
        <ele>283</ele>
        <time>2018-07-17T10:02:03Z</time>
      </trkpt>
      <trkpt lat="45.89477" lon="4.93105">
        <ele>283</ele>
        <time>2018-07-17T10:02:04Z</time>
      </trkpt>
      <trkpt lat="45.89473" lon="4.931">
        <ele>283</ele>
        <time>2018-07-17T10:02:05Z</time>
      </trkpt>
      <trkpt lat="45.89466" lon="4.93091">
        <ele>283</ele>
        <time>2018-07-17T10:02:07Z</time>
      </trkpt>
      <trkpt lat="45.89465" lon="4.93084">
        <ele>283</ele>
        <time>2018-07-17T10:02:08Z</time>
      </trkpt>
      <trkpt lat="45.89463" lon="4.93078">
        <ele>283</ele>
        <time>2018-07-17T10:02:09Z</time>
      </trkpt>
      <trkpt lat="45.89462" lon="4.93072">
        <ele>283</ele>
        <time>2018-07-17T10:02:10Z</time>
      </trkpt>
      <trkpt lat="45.89459" lon="4.93065">
        <ele>283</ele>
        <time>2018-07-17T10:02:11Z</time>
      </trkpt>
      <trkpt lat="45.89457" lon="4.9306">
        <ele>283</ele>
        <time>2018-07-17T10:02:12Z</time>
      </trkpt>
      <trkpt lat="45.89454" lon="4.93054">
        <ele>283</ele>
        <time>2018-07-17T10:02:13Z</time>
      </trkpt>
      <trkpt lat="45.89452" lon="4.93049">
        <ele>283</ele>
        <time>2018-07-17T10:02:14Z</time>
      </trkpt>
      <trkpt lat="45.89449" lon="4.93037">
        <ele>284</ele>
        <time>2018-07-17T10:02:16Z</time>
      </trkpt>
      <trkpt lat="45.89447" lon="4.93032">
        <ele>284</ele>
        <time>2018-07-17T10:02:17Z</time>
      </trkpt>
      <trkpt lat="45.89442" lon="4.93022">
        <ele>284</ele>
        <time>2018-07-17T10:02:19Z</time>
      </trkpt>
      <trkpt lat="45.8944" lon="4.93017">
        <ele>284</ele>
        <time>2018-07-17T10:02:20Z</time>
      </trkpt>
      <trkpt lat="45.89435" lon="4.93008">
        <ele>284</ele>
        <time>2018-07-17T10:02:22Z</time>
      </trkpt>
      <trkpt lat="45.89433" lon="4.93003">
        <ele>284</ele>
        <time>2018-07-17T10:02:23Z</time>
      </trkpt>
      <trkpt lat="45.89429" lon="4.92992">
        <ele>286</ele>
        <time>2018-07-17T10:02:25Z</time>
      </trkpt>
      <trkpt lat="45.89427" lon="4.92987">
        <ele>286</ele>
        <time>2018-07-17T10:02:26Z</time>
      </trkpt>
      <trkpt lat="45.89424" lon="4.92975">
        <ele>286</ele>
        <time>2018-07-17T10:02:29Z</time>
      </trkpt>
      <trkpt lat="45.89422" lon="4.92967">
        <ele>286</ele>
        <time>2018-07-17T10:02:30Z</time>
      </trkpt>
      <trkpt lat="45.89418" lon="4.92957">
        <ele>287</ele>
        <time>2018-07-17T10:02:32Z</time>
      </trkpt>
      <trkpt lat="45.89417" lon="4.92952">
        <ele>286</ele>
        <time>2018-07-17T10:02:33Z</time>
      </trkpt>
      <trkpt lat="45.89413" lon="4.92941">
        <ele>286</ele>
        <time>2018-07-17T10:02:35Z</time>
      </trkpt>
      <trkpt lat="45.89412" lon="4.92937">
        <ele>287</ele>
        <time>2018-07-17T10:02:36Z</time>
      </trkpt>
      <trkpt lat="45.89408" lon="4.92927">
        <ele>287</ele>
        <time>2018-07-17T10:02:38Z</time>
      </trkpt>
      <trkpt lat="45.89407" lon="4.92925">
        <ele>287</ele>
        <time>2018-07-17T10:02:39Z</time>
      </trkpt>
      <trkpt lat="45.89403" lon="4.92916">
        <ele>288</ele>
        <time>2018-07-17T10:02:42Z</time>
      </trkpt>
      <trkpt lat="45.89401" lon="4.92912">
        <ele>288</ele>
        <time>2018-07-17T10:02:43Z</time>
      </trkpt>
      <trkpt lat="45.89396" lon="4.92902">
        <ele>288</ele>
        <time>2018-07-17T10:02:46Z</time>
      </trkpt>
      <trkpt lat="45.89395" lon="4.92898">
        <ele>288</ele>
        <time>2018-07-17T10:02:47Z</time>
      </trkpt>
      <trkpt lat="45.89391" lon="4.9289">
        <ele>288</ele>
        <time>2018-07-17T10:02:49Z</time>
      </trkpt>
      <trkpt lat="45.89389" lon="4.92886">
        <ele>288</ele>
        <time>2018-07-17T10:02:50Z</time>
      </trkpt>
      <trkpt lat="45.89384" lon="4.92876">
        <ele>288</ele>
        <time>2018-07-17T10:02:53Z</time>
      </trkpt>
      <trkpt lat="45.89383" lon="4.92872">
        <ele>288</ele>
        <time>2018-07-17T10:02:54Z</time>
      </trkpt>
      <trkpt lat="45.89379" lon="4.92862">
        <ele>288</ele>
        <time>2018-07-17T10:02:57Z</time>
      </trkpt>
      <trkpt lat="45.89378" lon="4.92859">
        <ele>288</ele>
        <time>2018-07-17T10:02:58Z</time>
      </trkpt>
      <trkpt lat="45.89374" lon="4.92848">
        <ele>288</ele>
        <time>2018-07-17T10:03:01Z</time>
      </trkpt>
      <trkpt lat="45.89373" lon="4.92845">
        <ele>288</ele>
        <time>2018-07-17T10:03:02Z</time>
      </trkpt>
      <trkpt lat="45.89371" lon="4.92832">
        <ele>290</ele>
        <time>2018-07-17T10:03:05Z</time>
      </trkpt>
      <trkpt lat="45.8937" lon="4.92828">
        <ele>290</ele>
        <time>2018-07-17T10:03:06Z</time>
      </trkpt>
      <trkpt lat="45.89369" lon="4.92819">
        <ele>290</ele>
        <time>2018-07-17T10:03:08Z</time>
      </trkpt>
      <trkpt lat="45.89369" lon="4.92815">
        <ele>290</ele>
        <time>2018-07-17T10:03:09Z</time>
      </trkpt>
      <trkpt lat="45.89368" lon="4.92806">
        <ele>290</ele>
        <time>2018-07-17T10:03:11Z</time>
      </trkpt>
      <trkpt lat="45.89367" lon="4.92801">
        <ele>290</ele>
        <time>2018-07-17T10:03:12Z</time>
      </trkpt>
      <trkpt lat="45.89366" lon="4.92792">
        <ele>290</ele>
        <time>2018-07-17T10:03:14Z</time>
      </trkpt>
      <trkpt lat="45.89365" lon="4.92787">
        <ele>290</ele>
        <time>2018-07-17T10:03:15Z</time>
      </trkpt>
      <trkpt lat="45.89363" lon="4.92773">
        <ele>290</ele>
        <time>2018-07-17T10:03:16Z</time>
      </trkpt>
      <trkpt lat="45.89362" lon="4.92767">
        <ele>290</ele>
        <time>2018-07-17T10:03:18Z</time>
      </trkpt>
      <trkpt lat="45.89361" lon="4.92758">
        <ele>290</ele>
        <time>2018-07-17T10:03:19Z</time>
      </trkpt>
      <trkpt lat="45.8936" lon="4.92747">
        <ele>290</ele>
        <time>2018-07-17T10:03:21Z</time>
      </trkpt>
      <trkpt lat="45.89357" lon="4.92742">
        <ele>290</ele>
        <time>2018-07-17T10:03:22Z</time>
      </trkpt>
      <trkpt lat="45.89356" lon="4.92735">
        <ele>290</ele>
        <time>2018-07-17T10:03:23Z</time>
      </trkpt>
      <trkpt lat="45.89354" lon="4.9273">
        <ele>290</ele>
        <time>2018-07-17T10:03:24Z</time>
      </trkpt>
      <trkpt lat="45.89353" lon="4.92723">
        <ele>290</ele>
        <time>2018-07-17T10:03:25Z</time>
      </trkpt>
      <trkpt lat="45.89352" lon="4.92716">
        <ele>290</ele>
        <time>2018-07-17T10:03:26Z</time>
      </trkpt>
      <trkpt lat="45.8935" lon="4.92705">
        <ele>291</ele>
        <time>2018-07-17T10:03:28Z</time>
      </trkpt>
      <trkpt lat="45.8935" lon="4.92702">
        <ele>291</ele>
        <time>2018-07-17T10:03:29Z</time>
      </trkpt>
      <trkpt lat="45.89347" lon="4.92692">
        <ele>291</ele>
        <time>2018-07-17T10:03:31Z</time>
      </trkpt>
      <trkpt lat="45.89346" lon="4.92687">
        <ele>291</ele>
        <time>2018-07-17T10:03:32Z</time>
      </trkpt>
      <trkpt lat="45.89345" lon="4.9268">
        <ele>291</ele>
        <time>2018-07-17T10:03:33Z</time>
      </trkpt>
      <trkpt lat="45.89344" lon="4.92674">
        <ele>291</ele>
        <time>2018-07-17T10:03:34Z</time>
      </trkpt>
      <trkpt lat="45.89342" lon="4.92663">
        <ele>291</ele>
        <time>2018-07-17T10:03:36Z</time>
      </trkpt>
      <trkpt lat="45.8934" lon="4.92657">
        <ele>291</ele>
        <time>2018-07-17T10:03:37Z</time>
      </trkpt>
      <trkpt lat="45.89337" lon="4.92646">
        <ele>291</ele>
        <time>2018-07-17T10:03:39Z</time>
      </trkpt>
      <trkpt lat="45.89335" lon="4.9264">
        <ele>291</ele>
        <time>2018-07-17T10:03:40Z</time>
      </trkpt>
      <trkpt lat="45.89332" lon="4.92628">
        <ele>292</ele>
        <time>2018-07-17T10:03:42Z</time>
      </trkpt>
      <trkpt lat="45.8933" lon="4.92623">
        <ele>292</ele>
        <time>2018-07-17T10:03:43Z</time>
      </trkpt>
      <trkpt lat="45.89326" lon="4.92613">
        <ele>292</ele>
        <time>2018-07-17T10:03:45Z</time>
      </trkpt>
      <trkpt lat="45.89325" lon="4.92608">
        <ele>292</ele>
        <time>2018-07-17T10:03:46Z</time>
      </trkpt>
      <trkpt lat="45.89321" lon="4.92597">
        <ele>292</ele>
        <time>2018-07-17T10:03:48Z</time>
      </trkpt>
      <trkpt lat="45.89319" lon="4.92591">
        <ele>292</ele>
        <time>2018-07-17T10:03:49Z</time>
      </trkpt>
      <trkpt lat="45.89316" lon="4.92579">
        <ele>293</ele>
        <time>2018-07-17T10:03:51Z</time>
      </trkpt>
      <trkpt lat="45.89316" lon="4.92573">
        <ele>293</ele>
        <time>2018-07-17T10:03:52Z</time>
      </trkpt>
      <trkpt lat="45.89312" lon="4.92563">
        <ele>293</ele>
        <time>2018-07-17T10:03:54Z</time>
      </trkpt>
      <trkpt lat="45.8931" lon="4.92557">
        <ele>293</ele>
        <time>2018-07-17T10:03:55Z</time>
      </trkpt>
      <trkpt lat="45.89307" lon="4.92547">
        <ele>293</ele>
        <time>2018-07-17T10:03:57Z</time>
      </trkpt>
      <trkpt lat="45.89305" lon="4.92541">
        <ele>293</ele>
        <time>2018-07-17T10:03:58Z</time>
      </trkpt>
      <trkpt lat="45.89301" lon="4.92535">
        <ele>293</ele>
        <time>2018-07-17T10:03:59Z</time>
      </trkpt>
      <trkpt lat="45.893" lon="4.9253">
        <ele>293</ele>
        <time>2018-07-17T10:04:00Z</time>
      </trkpt>
      <trkpt lat="45.89298" lon="4.92524">
        <ele>293</ele>
        <time>2018-07-17T10:04:01Z</time>
      </trkpt>
      <trkpt lat="45.89296" lon="4.92518">
        <ele>293</ele>
        <time>2018-07-17T10:04:02Z</time>
      </trkpt>
      <trkpt lat="45.89293" lon="4.92513">
        <ele>293</ele>
        <time>2018-07-17T10:04:03Z</time>
      </trkpt>
      <trkpt lat="45.89291" lon="4.92507">
        <ele>294</ele>
        <time>2018-07-17T10:04:04Z</time>
      </trkpt>
      <trkpt lat="45.89287" lon="4.92496">
        <ele>294</ele>
        <time>2018-07-17T10:04:06Z</time>
      </trkpt>
      <trkpt lat="45.89285" lon="4.92491">
        <ele>294</ele>
        <time>2018-07-17T10:04:07Z</time>
      </trkpt>
      <trkpt lat="45.89283" lon="4.92485">
        <ele>294</ele>
        <time>2018-07-17T10:04:08Z</time>
      </trkpt>
      <trkpt lat="45.89281" lon="4.92479">
        <ele>294</ele>
        <time>2018-07-17T10:04:09Z</time>
      </trkpt>
      <trkpt lat="45.89279" lon="4.92473">
        <ele>294</ele>
        <time>2018-07-17T10:04:10Z</time>
      </trkpt>
      <trkpt lat="45.89276" lon="4.92466">
        <ele>294</ele>
        <time>2018-07-17T10:04:11Z</time>
      </trkpt>
      <trkpt lat="45.89271" lon="4.92457">
        <ele>294</ele>
        <time>2018-07-17T10:04:13Z</time>
      </trkpt>
      <trkpt lat="45.8927" lon="4.92451">
        <ele>294</ele>
        <time>2018-07-17T10:04:14Z</time>
      </trkpt>
      <trkpt lat="45.89267" lon="4.92439">
        <ele>294</ele>
        <time>2018-07-17T10:04:16Z</time>
      </trkpt>
      <trkpt lat="45.89266" lon="4.92432">
        <ele>294</ele>
        <time>2018-07-17T10:04:17Z</time>
      </trkpt>
      <trkpt lat="45.89263" lon="4.92426">
        <ele>294</ele>
        <time>2018-07-17T10:04:18Z</time>
      </trkpt>
      <trkpt lat="45.89256" lon="4.92421">
        <ele>294</ele>
        <time>2018-07-17T10:04:19Z</time>
      </trkpt>
      <trkpt lat="45.89254" lon="4.92409">
        <ele>294</ele>
        <time>2018-07-17T10:04:21Z</time>
      </trkpt>
      <trkpt lat="45.89252" lon="4.92404">
        <ele>293</ele>
        <time>2018-07-17T10:04:22Z</time>
      </trkpt>
      <trkpt lat="45.89248" lon="4.92398">
        <ele>293</ele>
        <time>2018-07-17T10:04:23Z</time>
      </trkpt>
      <trkpt lat="45.89248" lon="4.92392">
        <ele>293</ele>
        <time>2018-07-17T10:04:24Z</time>
      </trkpt>
      <trkpt lat="45.89249" lon="4.92382">
        <ele>293</ele>
        <time>2018-07-17T10:04:26Z</time>
      </trkpt>
      <trkpt lat="45.89248" lon="4.92375">
        <ele>293</ele>
        <time>2018-07-17T10:04:27Z</time>
      </trkpt>
      <trkpt lat="45.89246" lon="4.92368">
        <ele>293</ele>
        <time>2018-07-17T10:04:28Z</time>
      </trkpt>
      <trkpt lat="45.89242" lon="4.92362">
        <ele>293</ele>
        <time>2018-07-17T10:04:29Z</time>
      </trkpt>
      <trkpt lat="45.89241" lon="4.92355">
        <ele>293</ele>
        <time>2018-07-17T10:04:30Z</time>
      </trkpt>
      <trkpt lat="45.89238" lon="4.92347">
        <ele>292</ele>
        <time>2018-07-17T10:04:31Z</time>
      </trkpt>
      <trkpt lat="45.89237" lon="4.92338">
        <ele>292</ele>
        <time>2018-07-17T10:04:32Z</time>
      </trkpt>
      <trkpt lat="45.89235" lon="4.92329">
        <ele>291</ele>
        <time>2018-07-17T10:04:33Z</time>
      </trkpt>
      <trkpt lat="45.89235" lon="4.92322">
        <ele>291</ele>
        <time>2018-07-17T10:04:34Z</time>
      </trkpt>
      <trkpt lat="45.89233" lon="4.92314">
        <ele>291</ele>
        <time>2018-07-17T10:04:35Z</time>
      </trkpt>
      <trkpt lat="45.89231" lon="4.92305">
        <ele>291</ele>
        <time>2018-07-17T10:04:36Z</time>
      </trkpt>
      <trkpt lat="45.89227" lon="4.92298">
        <ele>291</ele>
        <time>2018-07-17T10:04:37Z</time>
      </trkpt>
      <trkpt lat="45.89224" lon="4.9229">
        <ele>290</ele>
        <time>2018-07-17T10:04:38Z</time>
      </trkpt>
      <trkpt lat="45.8922" lon="4.92281">
        <ele>290</ele>
        <time>2018-07-17T10:04:39Z</time>
      </trkpt>
      <trkpt lat="45.89218" lon="4.92273">
        <ele>290</ele>
        <time>2018-07-17T10:04:40Z</time>
      </trkpt>
      <trkpt lat="45.89213" lon="4.92265">
        <ele>290</ele>
        <time>2018-07-17T10:04:41Z</time>
      </trkpt>
      <trkpt lat="45.8921" lon="4.92257">
        <ele>290</ele>
        <time>2018-07-17T10:04:42Z</time>
      </trkpt>
      <trkpt lat="45.89207" lon="4.9225">
        <ele>289</ele>
        <time>2018-07-17T10:04:43Z</time>
      </trkpt>
      <trkpt lat="45.89204" lon="4.92242">
        <ele>289</ele>
        <time>2018-07-17T10:04:44Z</time>
      </trkpt>
      <trkpt lat="45.892" lon="4.92234">
        <ele>289</ele>
        <time>2018-07-17T10:04:45Z</time>
      </trkpt>
      <trkpt lat="45.89197" lon="4.92228">
        <ele>289</ele>
        <time>2018-07-17T10:04:46Z</time>
      </trkpt>
      <trkpt lat="45.89193" lon="4.9222">
        <ele>289</ele>
        <time>2018-07-17T10:04:47Z</time>
      </trkpt>
      <trkpt lat="45.8919" lon="4.92213">
        <ele>289</ele>
        <time>2018-07-17T10:04:48Z</time>
      </trkpt>
      <trkpt lat="45.89187" lon="4.92208">
        <ele>289</ele>
        <time>2018-07-17T10:04:49Z</time>
      </trkpt>
      <trkpt lat="45.89181" lon="4.92201">
        <ele>289</ele>
        <time>2018-07-17T10:04:50Z</time>
      </trkpt>
      <trkpt lat="45.89177" lon="4.92196">
        <ele>289</ele>
        <time>2018-07-17T10:04:51Z</time>
      </trkpt>
      <trkpt lat="45.89171" lon="4.92188">
        <ele>289</ele>
        <time>2018-07-17T10:04:53Z</time>
      </trkpt>
      <trkpt lat="45.89167" lon="4.92183">
        <ele>289</ele>
        <time>2018-07-17T10:04:54Z</time>
      </trkpt>
      <trkpt lat="45.89165" lon="4.92176">
        <ele>289</ele>
        <time>2018-07-17T10:04:55Z</time>
      </trkpt>
      <trkpt lat="45.89159" lon="4.92171">
        <ele>289</ele>
        <time>2018-07-17T10:04:56Z</time>
      </trkpt>
      <trkpt lat="45.89154" lon="4.92165">
        <ele>288</ele>
        <time>2018-07-17T10:04:57Z</time>
      </trkpt>
      <trkpt lat="45.89148" lon="4.92159">
        <ele>288</ele>
        <time>2018-07-17T10:04:58Z</time>
      </trkpt>
      <trkpt lat="45.89143" lon="4.92154">
        <ele>288</ele>
        <time>2018-07-17T10:04:59Z</time>
      </trkpt>
      <trkpt lat="45.89137" lon="4.9215">
        <ele>288</ele>
        <time>2018-07-17T10:05:00Z</time>
      </trkpt>
      <trkpt lat="45.89131" lon="4.92144">
        <ele>288</ele>
        <time>2018-07-17T10:05:01Z</time>
      </trkpt>
      <trkpt lat="45.89126" lon="4.9214">
        <ele>288</ele>
        <time>2018-07-17T10:05:02Z</time>
      </trkpt>
      <trkpt lat="45.89121" lon="4.92135">
        <ele>288</ele>
        <time>2018-07-17T10:05:03Z</time>
      </trkpt>
      <trkpt lat="45.89116" lon="4.9213">
        <ele>288</ele>
        <time>2018-07-17T10:05:04Z</time>
      </trkpt>
      <trkpt lat="45.89111" lon="4.92127">
        <ele>288</ele>
        <time>2018-07-17T10:05:05Z</time>
      </trkpt>
      <trkpt lat="45.89107" lon="4.92123">
        <ele>287</ele>
        <time>2018-07-17T10:05:06Z</time>
      </trkpt>
      <trkpt lat="45.89102" lon="4.92119">
        <ele>287</ele>
        <time>2018-07-17T10:05:07Z</time>
      </trkpt>
      <trkpt lat="45.89097" lon="4.92114">
        <ele>287</ele>
        <time>2018-07-17T10:05:08Z</time>
      </trkpt>
      <trkpt lat="45.89091" lon="4.92109">
        <ele>287</ele>
        <time>2018-07-17T10:05:09Z</time>
      </trkpt>
      <trkpt lat="45.89086" lon="4.92106">
        <ele>287</ele>
        <time>2018-07-17T10:05:10Z</time>
      </trkpt>
      <trkpt lat="45.89082" lon="4.92101">
        <ele>287</ele>
        <time>2018-07-17T10:05:11Z</time>
      </trkpt>
      <trkpt lat="45.89076" lon="4.92097">
        <ele>287</ele>
        <time>2018-07-17T10:05:12Z</time>
      </trkpt>
      <trkpt lat="45.89072" lon="4.92092">
        <ele>287</ele>
        <time>2018-07-17T10:05:13Z</time>
      </trkpt>
      <trkpt lat="45.89066" lon="4.92087">
        <ele>287</ele>
        <time>2018-07-17T10:05:14Z</time>
      </trkpt>
      <trkpt lat="45.8906" lon="4.92082">
        <ele>287</ele>
        <time>2018-07-17T10:05:15Z</time>
      </trkpt>
      <trkpt lat="45.89054" lon="4.92075">
        <ele>287</ele>
        <time>2018-07-17T10:05:16Z</time>
      </trkpt>
      <trkpt lat="45.89048" lon="4.9207">
        <ele>287</ele>
        <time>2018-07-17T10:05:17Z</time>
      </trkpt>
      <trkpt lat="45.89042" lon="4.92065">
        <ele>287</ele>
        <time>2018-07-17T10:05:18Z</time>
      </trkpt>
      <trkpt lat="45.89036" lon="4.92059">
        <ele>287</ele>
        <time>2018-07-17T10:05:19Z</time>
      </trkpt>
      <trkpt lat="45.89031" lon="4.92053">
        <ele>287</ele>
        <time>2018-07-17T10:05:20Z</time>
      </trkpt>
      <trkpt lat="45.89026" lon="4.92047">
        <ele>287</ele>
        <time>2018-07-17T10:05:21Z</time>
      </trkpt>
      <trkpt lat="45.89022" lon="4.92042">
        <ele>287</ele>
        <time>2018-07-17T10:05:22Z</time>
      </trkpt>
      <trkpt lat="45.89016" lon="4.92037">
        <ele>287</ele>
        <time>2018-07-17T10:05:23Z</time>
      </trkpt>
      <trkpt lat="45.89011" lon="4.92029">
        <ele>287</ele>
        <time>2018-07-17T10:05:24Z</time>
      </trkpt>
      <trkpt lat="45.89007" lon="4.92023">
        <ele>287</ele>
        <time>2018-07-17T10:05:25Z</time>
      </trkpt>
      <trkpt lat="45.89001" lon="4.92016">
        <ele>287</ele>
        <time>2018-07-17T10:05:26Z</time>
      </trkpt>
      <trkpt lat="45.88996" lon="4.92011">
        <ele>287</ele>
        <time>2018-07-17T10:05:27Z</time>
      </trkpt>
      <trkpt lat="45.88991" lon="4.92005">
        <ele>287</ele>
        <time>2018-07-17T10:05:28Z</time>
      </trkpt>
      <trkpt lat="45.88986" lon="4.91999">
        <ele>287</ele>
        <time>2018-07-17T10:05:29Z</time>
      </trkpt>
      <trkpt lat="45.88982" lon="4.91993">
        <ele>287</ele>
        <time>2018-07-17T10:05:30Z</time>
      </trkpt>
      <trkpt lat="45.88977" lon="4.91986">
        <ele>287</ele>
        <time>2018-07-17T10:05:31Z</time>
      </trkpt>
      <trkpt lat="45.88973" lon="4.9198">
        <ele>287</ele>
        <time>2018-07-17T10:05:32Z</time>
      </trkpt>
      <trkpt lat="45.88969" lon="4.91973">
        <ele>287</ele>
        <time>2018-07-17T10:05:33Z</time>
      </trkpt>
      <trkpt lat="45.88964" lon="4.91967">
        <ele>287</ele>
        <time>2018-07-17T10:05:34Z</time>
      </trkpt>
      <trkpt lat="45.88959" lon="4.91961">
        <ele>287</ele>
        <time>2018-07-17T10:05:35Z</time>
      </trkpt>
      <trkpt lat="45.88953" lon="4.91956">
        <ele>287</ele>
        <time>2018-07-17T10:05:36Z</time>
      </trkpt>
      <trkpt lat="45.88947" lon="4.91949">
        <ele>287</ele>
        <time>2018-07-17T10:05:37Z</time>
      </trkpt>
      <trkpt lat="45.88944" lon="4.91944">
        <ele>287</ele>
        <time>2018-07-17T10:05:38Z</time>
      </trkpt>
      <trkpt lat="45.88939" lon="4.91937">
        <ele>287</ele>
        <time>2018-07-17T10:05:39Z</time>
      </trkpt>
      <trkpt lat="45.88935" lon="4.91929">
        <ele>288</ele>
        <time>2018-07-17T10:05:40Z</time>
      </trkpt>
      <trkpt lat="45.8893" lon="4.91922">
        <ele>288</ele>
        <time>2018-07-17T10:05:41Z</time>
      </trkpt>
      <trkpt lat="45.88925" lon="4.91916">
        <ele>288</ele>
        <time>2018-07-17T10:05:42Z</time>
      </trkpt>
      <trkpt lat="45.8892" lon="4.91909">
        <ele>288</ele>
        <time>2018-07-17T10:05:43Z</time>
      </trkpt>
      <trkpt lat="45.88916" lon="4.91903">
        <ele>288</ele>
        <time>2018-07-17T10:05:44Z</time>
      </trkpt>
      <trkpt lat="45.88915" lon="4.91897">
        <ele>288</ele>
        <time>2018-07-17T10:05:45Z</time>
      </trkpt>
      <trkpt lat="45.88913" lon="4.91891">
        <ele>288</ele>
        <time>2018-07-17T10:05:46Z</time>
      </trkpt>
      <trkpt lat="45.8891" lon="4.91884">
        <ele>288</ele>
        <time>2018-07-17T10:05:47Z</time>
      </trkpt>
      <trkpt lat="45.88909" lon="4.91875">
        <ele>288</ele>
        <time>2018-07-17T10:05:48Z</time>
      </trkpt>
      <trkpt lat="45.88906" lon="4.91868">
        <ele>288</ele>
        <time>2018-07-17T10:05:49Z</time>
      </trkpt>
      <trkpt lat="45.88904" lon="4.9186">
        <ele>288</ele>
        <time>2018-07-17T10:05:50Z</time>
      </trkpt>
      <trkpt lat="45.88901" lon="4.91853">
        <ele>288</ele>
        <time>2018-07-17T10:05:51Z</time>
      </trkpt>
      <trkpt lat="45.88897" lon="4.91845">
        <ele>288</ele>
        <time>2018-07-17T10:05:52Z</time>
      </trkpt>
      <trkpt lat="45.88896" lon="4.91837">
        <ele>288</ele>
        <time>2018-07-17T10:05:53Z</time>
      </trkpt>
      <trkpt lat="45.88894" lon="4.91829">
        <ele>288</ele>
        <time>2018-07-17T10:05:54Z</time>
      </trkpt>
      <trkpt lat="45.88893" lon="4.91821">
        <ele>288</ele>
        <time>2018-07-17T10:05:55Z</time>
      </trkpt>
      <trkpt lat="45.8889" lon="4.91812">
        <ele>288</ele>
        <time>2018-07-17T10:05:56Z</time>
      </trkpt>
      <trkpt lat="45.88889" lon="4.91804">
        <ele>288</ele>
        <time>2018-07-17T10:05:57Z</time>
      </trkpt>
      <trkpt lat="45.88888" lon="4.91794">
        <ele>288</ele>
        <time>2018-07-17T10:05:58Z</time>
      </trkpt>
      <trkpt lat="45.88887" lon="4.91785">
        <ele>288</ele>
        <time>2018-07-17T10:05:59Z</time>
      </trkpt>
      <trkpt lat="45.88884" lon="4.91777">
        <ele>288</ele>
        <time>2018-07-17T10:06:00Z</time>
      </trkpt>
      <trkpt lat="45.88882" lon="4.91769">
        <ele>288</ele>
        <time>2018-07-17T10:06:01Z</time>
      </trkpt>
      <trkpt lat="45.8888" lon="4.91761">
        <ele>288</ele>
        <time>2018-07-17T10:06:02Z</time>
      </trkpt>
      <trkpt lat="45.88879" lon="4.91753">
        <ele>288</ele>
        <time>2018-07-17T10:06:03Z</time>
      </trkpt>
      <trkpt lat="45.88876" lon="4.91745">
        <ele>288</ele>
        <time>2018-07-17T10:06:04Z</time>
      </trkpt>
      <trkpt lat="45.88874" lon="4.91738">
        <ele>288</ele>
        <time>2018-07-17T10:06:05Z</time>
      </trkpt>
      <trkpt lat="45.88873" lon="4.9173">
        <ele>288</ele>
        <time>2018-07-17T10:06:06Z</time>
      </trkpt>
      <trkpt lat="45.88872" lon="4.91718">
        <ele>288</ele>
        <time>2018-07-17T10:06:08Z</time>
      </trkpt>
      <trkpt lat="45.8887" lon="4.91711">
        <ele>288</ele>
        <time>2018-07-17T10:06:09Z</time>
      </trkpt>
      <trkpt lat="45.88869" lon="4.91704">
        <ele>289</ele>
        <time>2018-07-17T10:06:10Z</time>
      </trkpt>
      <trkpt lat="45.88868" lon="4.91697">
        <ele>289</ele>
        <time>2018-07-17T10:06:11Z</time>
      </trkpt>
      <trkpt lat="45.88864" lon="4.91688">
        <ele>289</ele>
        <time>2018-07-17T10:06:12Z</time>
      </trkpt>
      <trkpt lat="45.88863" lon="4.91681">
        <ele>289</ele>
        <time>2018-07-17T10:06:13Z</time>
      </trkpt>
      <trkpt lat="45.88863" lon="4.91673">
        <ele>289</ele>
        <time>2018-07-17T10:06:14Z</time>
      </trkpt>
      <trkpt lat="45.88863" lon="4.91665">
        <ele>289</ele>
        <time>2018-07-17T10:06:15Z</time>
      </trkpt>
      <trkpt lat="45.8886" lon="4.91657">
        <ele>289</ele>
        <time>2018-07-17T10:06:16Z</time>
      </trkpt>
      <trkpt lat="45.88858" lon="4.91649">
        <ele>289</ele>
        <time>2018-07-17T10:06:17Z</time>
      </trkpt>
      <trkpt lat="45.88855" lon="4.91642">
        <ele>289</ele>
        <time>2018-07-17T10:06:18Z</time>
      </trkpt>
      <trkpt lat="45.88852" lon="4.91634">
        <ele>289</ele>
        <time>2018-07-17T10:06:19Z</time>
      </trkpt>
      <trkpt lat="45.88848" lon="4.91627">
        <ele>289</ele>
        <time>2018-07-17T10:06:20Z</time>
      </trkpt>
      <trkpt lat="45.88847" lon="4.91621">
        <ele>289</ele>
        <time>2018-07-17T10:06:21Z</time>
      </trkpt>
      <trkpt lat="45.88846" lon="4.91615">
        <ele>289</ele>
        <time>2018-07-17T10:06:22Z</time>
      </trkpt>
      <trkpt lat="45.88843" lon="4.91608">
        <ele>289</ele>
        <time>2018-07-17T10:06:23Z</time>
      </trkpt>
      <trkpt lat="45.88842" lon="4.91602">
        <ele>289</ele>
        <time>2018-07-17T10:06:24Z</time>
      </trkpt>
      <trkpt lat="45.88841" lon="4.91595">
        <ele>289</ele>
        <time>2018-07-17T10:06:25Z</time>
      </trkpt>
      <trkpt lat="45.88839" lon="4.91589">
        <ele>289</ele>
        <time>2018-07-17T10:06:26Z</time>
      </trkpt>
      <trkpt lat="45.88837" lon="4.91582">
        <ele>289</ele>
        <time>2018-07-17T10:06:27Z</time>
      </trkpt>
      <trkpt lat="45.88834" lon="4.91576">
        <ele>289</ele>
        <time>2018-07-17T10:06:28Z</time>
      </trkpt>
      <trkpt lat="45.88832" lon="4.9157">
        <ele>289</ele>
        <time>2018-07-17T10:06:29Z</time>
      </trkpt>
      <trkpt lat="45.88831" lon="4.91562">
        <ele>288</ele>
        <time>2018-07-17T10:06:30Z</time>
      </trkpt>
      <trkpt lat="45.88829" lon="4.91555">
        <ele>288</ele>
        <time>2018-07-17T10:06:31Z</time>
      </trkpt>
      <trkpt lat="45.88828" lon="4.91547">
        <ele>288</ele>
        <time>2018-07-17T10:06:32Z</time>
      </trkpt>
      <trkpt lat="45.88826" lon="4.91539">
        <ele>288</ele>
        <time>2018-07-17T10:06:33Z</time>
      </trkpt>
      <trkpt lat="45.88825" lon="4.91531">
        <ele>288</ele>
        <time>2018-07-17T10:06:34Z</time>
      </trkpt>
      <trkpt lat="45.88823" lon="4.91524">
        <ele>288</ele>
        <time>2018-07-17T10:06:35Z</time>
      </trkpt>
      <trkpt lat="45.88822" lon="4.91517">
        <ele>288</ele>
        <time>2018-07-17T10:06:36Z</time>
      </trkpt>
      <trkpt lat="45.8882" lon="4.91508">
        <ele>288</ele>
        <time>2018-07-17T10:06:37Z</time>
      </trkpt>
      <trkpt lat="45.88819" lon="4.91501">
        <ele>288</ele>
        <time>2018-07-17T10:06:38Z</time>
      </trkpt>
      <trkpt lat="45.88818" lon="4.91493">
        <ele>288</ele>
        <time>2018-07-17T10:06:39Z</time>
      </trkpt>
      <trkpt lat="45.88817" lon="4.91485">
        <ele>288</ele>
        <time>2018-07-17T10:06:40Z</time>
      </trkpt>
      <trkpt lat="45.88815" lon="4.91478">
        <ele>288</ele>
        <time>2018-07-17T10:06:41Z</time>
      </trkpt>
      <trkpt lat="45.88815" lon="4.9147">
        <ele>288</ele>
        <time>2018-07-17T10:06:42Z</time>
      </trkpt>
      <trkpt lat="45.88813" lon="4.91462">
        <ele>288</ele>
        <time>2018-07-17T10:06:43Z</time>
      </trkpt>
      <trkpt lat="45.88812" lon="4.91455">
        <ele>288</ele>
        <time>2018-07-17T10:06:44Z</time>
      </trkpt>
      <trkpt lat="45.8881" lon="4.91447">
        <ele>288</ele>
        <time>2018-07-17T10:06:45Z</time>
      </trkpt>
      <trkpt lat="45.88809" lon="4.91439">
        <ele>288</ele>
        <time>2018-07-17T10:06:46Z</time>
      </trkpt>
      <trkpt lat="45.88808" lon="4.91431">
        <ele>288</ele>
        <time>2018-07-17T10:06:47Z</time>
      </trkpt>
      <trkpt lat="45.88806" lon="4.91423">
        <ele>288</ele>
        <time>2018-07-17T10:06:48Z</time>
      </trkpt>
      <trkpt lat="45.88806" lon="4.91416">
        <ele>289</ele>
        <time>2018-07-17T10:06:49Z</time>
      </trkpt>
      <trkpt lat="45.88806" lon="4.91409">
        <ele>289</ele>
        <time>2018-07-17T10:06:50Z</time>
      </trkpt>
      <trkpt lat="45.88805" lon="4.914">
        <ele>289</ele>
        <time>2018-07-17T10:06:51Z</time>
      </trkpt>
      <trkpt lat="45.88803" lon="4.91392">
        <ele>288</ele>
        <time>2018-07-17T10:06:52Z</time>
      </trkpt>
      <trkpt lat="45.88801" lon="4.91384">
        <ele>288</ele>
        <time>2018-07-17T10:06:53Z</time>
      </trkpt>
      <trkpt lat="45.88799" lon="4.91375">
        <ele>288</ele>
        <time>2018-07-17T10:06:54Z</time>
      </trkpt>
      <trkpt lat="45.88798" lon="4.91367">
        <ele>288</ele>
        <time>2018-07-17T10:06:55Z</time>
      </trkpt>
      <trkpt lat="45.88798" lon="4.91359">
        <ele>288</ele>
        <time>2018-07-17T10:06:56Z</time>
      </trkpt>
      <trkpt lat="45.88797" lon="4.91352">
        <ele>288</ele>
        <time>2018-07-17T10:06:57Z</time>
      </trkpt>
      <trkpt lat="45.88796" lon="4.91344">
        <ele>288</ele>
        <time>2018-07-17T10:06:58Z</time>
      </trkpt>
      <trkpt lat="45.88796" lon="4.91336">
        <ele>288</ele>
        <time>2018-07-17T10:06:59Z</time>
      </trkpt>
      <trkpt lat="45.88795" lon="4.91327">
        <ele>289</ele>
        <time>2018-07-17T10:07:00Z</time>
      </trkpt>
      <trkpt lat="45.88797" lon="4.9132">
        <ele>289</ele>
        <time>2018-07-17T10:07:01Z</time>
      </trkpt>
      <trkpt lat="45.88796" lon="4.91312">
        <ele>289</ele>
        <time>2018-07-17T10:07:02Z</time>
      </trkpt>
      <trkpt lat="45.88796" lon="4.91305">
        <ele>289</ele>
        <time>2018-07-17T10:07:03Z</time>
      </trkpt>
      <trkpt lat="45.88797" lon="4.91296">
        <ele>289</ele>
        <time>2018-07-17T10:07:04Z</time>
      </trkpt>
      <trkpt lat="45.88797" lon="4.91288">
        <ele>289</ele>
        <time>2018-07-17T10:07:05Z</time>
      </trkpt>
      <trkpt lat="45.88798" lon="4.91276">
        <ele>289</ele>
        <time>2018-07-17T10:07:07Z</time>
      </trkpt>
      <trkpt lat="45.88796" lon="4.91268">
        <ele>289</ele>
        <time>2018-07-17T10:07:08Z</time>
      </trkpt>
      <trkpt lat="45.88795" lon="4.91261">
        <ele>289</ele>
        <time>2018-07-17T10:07:09Z</time>
      </trkpt>
      <trkpt lat="45.88795" lon="4.91254">
        <ele>289</ele>
        <time>2018-07-17T10:07:10Z</time>
      </trkpt>
      <trkpt lat="45.88794" lon="4.91246">
        <ele>288</ele>
        <time>2018-07-17T10:07:11Z</time>
      </trkpt>
      <trkpt lat="45.88794" lon="4.91239">
        <ele>288</ele>
        <time>2018-07-17T10:07:12Z</time>
      </trkpt>
      <trkpt lat="45.88792" lon="4.91229">
        <ele>288</ele>
        <time>2018-07-17T10:07:13Z</time>
      </trkpt>
      <trkpt lat="45.88791" lon="4.9122">
        <ele>288</ele>
        <time>2018-07-17T10:07:14Z</time>
      </trkpt>
      <trkpt lat="45.8879" lon="4.91211">
        <ele>288</ele>
        <time>2018-07-17T10:07:15Z</time>
      </trkpt>
      <trkpt lat="45.88788" lon="4.91204">
        <ele>288</ele>
        <time>2018-07-17T10:07:16Z</time>
      </trkpt>
      <trkpt lat="45.88788" lon="4.91197">
        <ele>288</ele>
        <time>2018-07-17T10:07:17Z</time>
      </trkpt>
      <trkpt lat="45.8879" lon="4.9119">
        <ele>288</ele>
        <time>2018-07-17T10:07:18Z</time>
      </trkpt>
      <trkpt lat="45.88789" lon="4.91182">
        <ele>288</ele>
        <time>2018-07-17T10:07:19Z</time>
      </trkpt>
      <trkpt lat="45.88788" lon="4.91174">
        <ele>288</ele>
        <time>2018-07-17T10:07:20Z</time>
      </trkpt>
      <trkpt lat="45.88789" lon="4.91167">
        <ele>288</ele>
        <time>2018-07-17T10:07:21Z</time>
      </trkpt>
      <trkpt lat="45.88791" lon="4.9116">
        <ele>288</ele>
        <time>2018-07-17T10:07:22Z</time>
      </trkpt>
      <trkpt lat="45.88793" lon="4.91152">
        <ele>288</ele>
        <time>2018-07-17T10:07:23Z</time>
      </trkpt>
      <trkpt lat="45.88797" lon="4.91145">
        <ele>288</ele>
        <time>2018-07-17T10:07:24Z</time>
      </trkpt>
      <trkpt lat="45.88799" lon="4.91136">
        <ele>288</ele>
        <time>2018-07-17T10:07:25Z</time>
      </trkpt>
      <trkpt lat="45.88802" lon="4.91128">
        <ele>288</ele>
        <time>2018-07-17T10:07:26Z</time>
      </trkpt>
      <trkpt lat="45.88804" lon="4.9112">
        <ele>288</ele>
        <time>2018-07-17T10:07:27Z</time>
      </trkpt>
      <trkpt lat="45.88806" lon="4.91112">
        <ele>288</ele>
        <time>2018-07-17T10:07:28Z</time>
      </trkpt>
      <trkpt lat="45.88808" lon="4.91106">
        <ele>288</ele>
        <time>2018-07-17T10:07:29Z</time>
      </trkpt>
      <trkpt lat="45.88811" lon="4.91099">
        <ele>288</ele>
        <time>2018-07-17T10:07:30Z</time>
      </trkpt>
      <trkpt lat="45.8881" lon="4.91091">
        <ele>288</ele>
        <time>2018-07-17T10:07:31Z</time>
      </trkpt>
      <trkpt lat="45.88809" lon="4.91083">
        <ele>288</ele>
        <time>2018-07-17T10:07:32Z</time>
      </trkpt>
      <trkpt lat="45.88808" lon="4.91078">
        <ele>288</ele>
        <time>2018-07-17T10:07:33Z</time>
      </trkpt>
      <trkpt lat="45.88801" lon="4.91073">
        <ele>288</ele>
        <time>2018-07-17T10:07:34Z</time>
      </trkpt>
      <trkpt lat="45.88797" lon="4.91067">
        <ele>288</ele>
        <time>2018-07-17T10:07:35Z</time>
      </trkpt>
      <trkpt lat="45.88793" lon="4.91062">
        <ele>288</ele>
        <time>2018-07-17T10:07:36Z</time>
      </trkpt>
      <trkpt lat="45.88788" lon="4.91052">
        <ele>288</ele>
        <time>2018-07-17T10:07:38Z</time>
      </trkpt>
      <trkpt lat="45.88787" lon="4.91046">
        <ele>288</ele>
        <time>2018-07-17T10:07:39Z</time>
      </trkpt>
      <trkpt lat="45.88785" lon="4.9104">
        <ele>288</ele>
        <time>2018-07-17T10:07:40Z</time>
      </trkpt>
      <trkpt lat="45.88784" lon="4.91034">
        <ele>288</ele>
        <time>2018-07-17T10:07:41Z</time>
      </trkpt>
      <trkpt lat="45.88782" lon="4.91027">
        <ele>288</ele>
        <time>2018-07-17T10:07:42Z</time>
      </trkpt>
      <trkpt lat="45.88781" lon="4.91019">
        <ele>288</ele>
        <time>2018-07-17T10:07:43Z</time>
      </trkpt>
      <trkpt lat="45.88779" lon="4.91011">
        <ele>288</ele>
        <time>2018-07-17T10:07:44Z</time>
      </trkpt>
      <trkpt lat="45.88777" lon="4.91005">
        <ele>288</ele>
        <time>2018-07-17T10:07:45Z</time>
      </trkpt>
      <trkpt lat="45.88775" lon="4.90997">
        <ele>287</ele>
        <time>2018-07-17T10:07:46Z</time>
      </trkpt>
      <trkpt lat="45.88775" lon="4.90988">
        <ele>288</ele>
        <time>2018-07-17T10:07:47Z</time>
      </trkpt>
      <trkpt lat="45.88775" lon="4.9098">
        <ele>288</ele>
        <time>2018-07-17T10:07:48Z</time>
      </trkpt>
      <trkpt lat="45.88772" lon="4.90972">
        <ele>288</ele>
        <time>2018-07-17T10:07:49Z</time>
      </trkpt>
      <trkpt lat="45.88771" lon="4.90966">
        <ele>288</ele>
        <time>2018-07-17T10:07:50Z</time>
      </trkpt>
      <trkpt lat="45.88767" lon="4.90958">
        <ele>288</ele>
        <time>2018-07-17T10:07:51Z</time>
      </trkpt>
      <trkpt lat="45.88763" lon="4.90947">
        <ele>288</ele>
        <time>2018-07-17T10:07:53Z</time>
      </trkpt>
      <trkpt lat="45.88757" lon="4.90939">
        <ele>288</ele>
        <time>2018-07-17T10:07:54Z</time>
      </trkpt>
      <trkpt lat="45.88755" lon="4.90931">
        <ele>288</ele>
        <time>2018-07-17T10:07:55Z</time>
      </trkpt>
      <trkpt lat="45.88754" lon="4.90924">
        <ele>288</ele>
        <time>2018-07-17T10:07:56Z</time>
      </trkpt>
      <trkpt lat="45.88753" lon="4.90918">
        <ele>288</ele>
        <time>2018-07-17T10:07:57Z</time>
      </trkpt>
      <trkpt lat="45.8875" lon="4.9091">
        <ele>288</ele>
        <time>2018-07-17T10:07:58Z</time>
      </trkpt>
      <trkpt lat="45.88749" lon="4.90902">
        <ele>288</ele>
        <time>2018-07-17T10:07:59Z</time>
      </trkpt>
      <trkpt lat="45.88747" lon="4.90893">
        <ele>288</ele>
        <time>2018-07-17T10:08:00Z</time>
      </trkpt>
      <trkpt lat="45.88746" lon="4.90885">
        <ele>288</ele>
        <time>2018-07-17T10:08:01Z</time>
      </trkpt>
      <trkpt lat="45.88744" lon="4.90878">
        <ele>288</ele>
        <time>2018-07-17T10:08:02Z</time>
      </trkpt>
      <trkpt lat="45.88742" lon="4.90871">
        <ele>288</ele>
        <time>2018-07-17T10:08:03Z</time>
      </trkpt>
      <trkpt lat="45.8874" lon="4.90865">
        <ele>288</ele>
        <time>2018-07-17T10:08:04Z</time>
      </trkpt>
      <trkpt lat="45.88738" lon="4.90858">
        <ele>288</ele>
        <time>2018-07-17T10:08:05Z</time>
      </trkpt>
      <trkpt lat="45.88736" lon="4.90851">
        <ele>288</ele>
        <time>2018-07-17T10:08:06Z</time>
      </trkpt>
      <trkpt lat="45.88734" lon="4.90843">
        <ele>288</ele>
        <time>2018-07-17T10:08:07Z</time>
      </trkpt>
      <trkpt lat="45.88733" lon="4.90835">
        <ele>288</ele>
        <time>2018-07-17T10:08:08Z</time>
      </trkpt>
      <trkpt lat="45.88732" lon="4.90828">
        <ele>289</ele>
        <time>2018-07-17T10:08:09Z</time>
      </trkpt>
      <trkpt lat="45.88731" lon="4.90819">
        <ele>289</ele>
        <time>2018-07-17T10:08:10Z</time>
      </trkpt>
      <trkpt lat="45.8873" lon="4.90813">
        <ele>289</ele>
        <time>2018-07-17T10:08:11Z</time>
      </trkpt>
      <trkpt lat="45.88729" lon="4.90806">
        <ele>289</ele>
        <time>2018-07-17T10:08:12Z</time>
      </trkpt>
      <trkpt lat="45.88726" lon="4.908">
        <ele>289</ele>
        <time>2018-07-17T10:08:13Z</time>
      </trkpt>
      <trkpt lat="45.88724" lon="4.90794">
        <ele>289</ele>
        <time>2018-07-17T10:08:14Z</time>
      </trkpt>
      <trkpt lat="45.88723" lon="4.90787">
        <ele>289</ele>
        <time>2018-07-17T10:08:15Z</time>
      </trkpt>
      <trkpt lat="45.8872" lon="4.90779">
        <ele>289</ele>
        <time>2018-07-17T10:08:16Z</time>
      </trkpt>
      <trkpt lat="45.88719" lon="4.90768">
        <ele>289</ele>
        <time>2018-07-17T10:08:18Z</time>
      </trkpt>
      <trkpt lat="45.88718" lon="4.90761">
        <ele>289</ele>
        <time>2018-07-17T10:08:19Z</time>
      </trkpt>
      <trkpt lat="45.88716" lon="4.90753">
        <ele>289</ele>
        <time>2018-07-17T10:08:20Z</time>
      </trkpt>
      <trkpt lat="45.88715" lon="4.90746">
        <ele>290</ele>
        <time>2018-07-17T10:08:21Z</time>
      </trkpt>
      <trkpt lat="45.88714" lon="4.9074">
        <ele>290</ele>
        <time>2018-07-17T10:08:22Z</time>
      </trkpt>
      <trkpt lat="45.88713" lon="4.90732">
        <ele>290</ele>
        <time>2018-07-17T10:08:23Z</time>
      </trkpt>
      <trkpt lat="45.88711" lon="4.90725">
        <ele>290</ele>
        <time>2018-07-17T10:08:24Z</time>
      </trkpt>
      <trkpt lat="45.88711" lon="4.90718">
        <ele>290</ele>
        <time>2018-07-17T10:08:25Z</time>
      </trkpt>
      <trkpt lat="45.8871" lon="4.90712">
        <ele>290</ele>
        <time>2018-07-17T10:08:26Z</time>
      </trkpt>
      <trkpt lat="45.88708" lon="4.90705">
        <ele>290</ele>
        <time>2018-07-17T10:08:27Z</time>
      </trkpt>
      <trkpt lat="45.8871" lon="4.90698">
        <ele>290</ele>
        <time>2018-07-17T10:08:28Z</time>
      </trkpt>
      <trkpt lat="45.88709" lon="4.90691">
        <ele>290</ele>
        <time>2018-07-17T10:08:29Z</time>
      </trkpt>
      <trkpt lat="45.88706" lon="4.90679">
        <ele>290</ele>
        <time>2018-07-17T10:08:31Z</time>
      </trkpt>
      <trkpt lat="45.88705" lon="4.90672">
        <ele>290</ele>
        <time>2018-07-17T10:08:32Z</time>
      </trkpt>
      <trkpt lat="45.88703" lon="4.90665">
        <ele>291</ele>
        <time>2018-07-17T10:08:33Z</time>
      </trkpt>
      <trkpt lat="45.88701" lon="4.90658">
        <ele>291</ele>
        <time>2018-07-17T10:08:34Z</time>
      </trkpt>
      <trkpt lat="45.887" lon="4.9065">
        <ele>291</ele>
        <time>2018-07-17T10:08:35Z</time>
      </trkpt>
      <trkpt lat="45.887" lon="4.90643">
        <ele>291</ele>
        <time>2018-07-17T10:08:36Z</time>
      </trkpt>
      <trkpt lat="45.88699" lon="4.90637">
        <ele>291</ele>
        <time>2018-07-17T10:08:37Z</time>
      </trkpt>
      <trkpt lat="45.88698" lon="4.9063">
        <ele>291</ele>
        <time>2018-07-17T10:08:38Z</time>
      </trkpt>
      <trkpt lat="45.88696" lon="4.90625">
        <ele>291</ele>
        <time>2018-07-17T10:08:39Z</time>
      </trkpt>
      <trkpt lat="45.88695" lon="4.90618">
        <ele>292</ele>
        <time>2018-07-17T10:08:40Z</time>
      </trkpt>
      <trkpt lat="45.88693" lon="4.9061">
        <ele>292</ele>
        <time>2018-07-17T10:08:41Z</time>
      </trkpt>
      <trkpt lat="45.88691" lon="4.90603">
        <ele>292</ele>
        <time>2018-07-17T10:08:42Z</time>
      </trkpt>
      <trkpt lat="45.88689" lon="4.90591">
        <ele>292</ele>
        <time>2018-07-17T10:08:44Z</time>
      </trkpt>
      <trkpt lat="45.88685" lon="4.90584">
        <ele>292</ele>
        <time>2018-07-17T10:08:45Z</time>
      </trkpt>
      <trkpt lat="45.88684" lon="4.90577">
        <ele>293</ele>
        <time>2018-07-17T10:08:46Z</time>
      </trkpt>
      <trkpt lat="45.88683" lon="4.90571">
        <ele>293</ele>
        <time>2018-07-17T10:08:47Z</time>
      </trkpt>
      <trkpt lat="45.8868" lon="4.90564">
        <ele>293</ele>
        <time>2018-07-17T10:08:48Z</time>
      </trkpt>
      <trkpt lat="45.88679" lon="4.90556">
        <ele>293</ele>
        <time>2018-07-17T10:08:49Z</time>
      </trkpt>
      <trkpt lat="45.88678" lon="4.90549">
        <ele>293</ele>
        <time>2018-07-17T10:08:50Z</time>
      </trkpt>
      <trkpt lat="45.88679" lon="4.90541">
        <ele>293</ele>
        <time>2018-07-17T10:08:51Z</time>
      </trkpt>
      <trkpt lat="45.88678" lon="4.90535">
        <ele>293</ele>
        <time>2018-07-17T10:08:52Z</time>
      </trkpt>
      <trkpt lat="45.88677" lon="4.90526">
        <ele>293</ele>
        <time>2018-07-17T10:08:53Z</time>
      </trkpt>
      <trkpt lat="45.88676" lon="4.9052">
        <ele>293</ele>
        <time>2018-07-17T10:08:54Z</time>
      </trkpt>
      <trkpt lat="45.88675" lon="4.90513">
        <ele>293</ele>
        <time>2018-07-17T10:08:55Z</time>
      </trkpt>
      <trkpt lat="45.88674" lon="4.90506">
        <ele>293</ele>
        <time>2018-07-17T10:08:56Z</time>
      </trkpt>
      <trkpt lat="45.88674" lon="4.90498">
        <ele>293</ele>
        <time>2018-07-17T10:08:57Z</time>
      </trkpt>
      <trkpt lat="45.88674" lon="4.90489">
        <ele>293</ele>
        <time>2018-07-17T10:08:58Z</time>
      </trkpt>
      <trkpt lat="45.88671" lon="4.90483">
        <ele>293</ele>
        <time>2018-07-17T10:08:59Z</time>
      </trkpt>
      <trkpt lat="45.8867" lon="4.90477">
        <ele>293</ele>
        <time>2018-07-17T10:09:00Z</time>
      </trkpt>
      <trkpt lat="45.88669" lon="4.90469">
        <ele>293</ele>
        <time>2018-07-17T10:09:01Z</time>
      </trkpt>
      <trkpt lat="45.88668" lon="4.90461">
        <ele>293</ele>
        <time>2018-07-17T10:09:02Z</time>
      </trkpt>
      <trkpt lat="45.88667" lon="4.90454">
        <ele>293</ele>
        <time>2018-07-17T10:09:03Z</time>
      </trkpt>
      <trkpt lat="45.88666" lon="4.90446">
        <ele>293</ele>
        <time>2018-07-17T10:09:04Z</time>
      </trkpt>
      <trkpt lat="45.88664" lon="4.90439">
        <ele>293</ele>
        <time>2018-07-17T10:09:05Z</time>
      </trkpt>
      <trkpt lat="45.88665" lon="4.9043">
        <ele>293</ele>
        <time>2018-07-17T10:09:07Z</time>
      </trkpt>
      <trkpt lat="45.88665" lon="4.90423">
        <ele>293</ele>
        <time>2018-07-17T10:09:08Z</time>
      </trkpt>
      <trkpt lat="45.88664" lon="4.90416">
        <ele>293</ele>
        <time>2018-07-17T10:09:09Z</time>
      </trkpt>
      <trkpt lat="45.88664" lon="4.9041">
        <ele>293</ele>
        <time>2018-07-17T10:09:10Z</time>
      </trkpt>
      <trkpt lat="45.88663" lon="4.90402">
        <ele>293</ele>
        <time>2018-07-17T10:09:11Z</time>
      </trkpt>
      <trkpt lat="45.88663" lon="4.90396">
        <ele>293</ele>
        <time>2018-07-17T10:09:12Z</time>
      </trkpt>
      <trkpt lat="45.88662" lon="4.90389">
        <ele>293</ele>
        <time>2018-07-17T10:09:13Z</time>
      </trkpt>
      <trkpt lat="45.88661" lon="4.90382">
        <ele>293</ele>
        <time>2018-07-17T10:09:14Z</time>
      </trkpt>
      <trkpt lat="45.8866" lon="4.9037">
        <ele>293</ele>
        <time>2018-07-17T10:09:16Z</time>
      </trkpt>
      <trkpt lat="45.8866" lon="4.90363">
        <ele>293</ele>
        <time>2018-07-17T10:09:17Z</time>
      </trkpt>
      <trkpt lat="45.8866" lon="4.90351">
        <ele>293</ele>
        <time>2018-07-17T10:09:19Z</time>
      </trkpt>
      <trkpt lat="45.8866" lon="4.90344">
        <ele>293</ele>
        <time>2018-07-17T10:09:20Z</time>
      </trkpt>
      <trkpt lat="45.88661" lon="4.90332">
        <ele>293</ele>
        <time>2018-07-17T10:09:22Z</time>
      </trkpt>
      <trkpt lat="45.88661" lon="4.90326">
        <ele>293</ele>
        <time>2018-07-17T10:09:23Z</time>
      </trkpt>
      <trkpt lat="45.8866" lon="4.90319">
        <ele>293</ele>
        <time>2018-07-17T10:09:24Z</time>
      </trkpt>
      <trkpt lat="45.8866" lon="4.90312">
        <ele>293</ele>
        <time>2018-07-17T10:09:25Z</time>
      </trkpt>
      <trkpt lat="45.8866" lon="4.90305">
        <ele>293</ele>
        <time>2018-07-17T10:09:26Z</time>
      </trkpt>
      <trkpt lat="45.88661" lon="4.90298">
        <ele>293</ele>
        <time>2018-07-17T10:09:27Z</time>
      </trkpt>
      <trkpt lat="45.88662" lon="4.9029">
        <ele>293</ele>
        <time>2018-07-17T10:09:28Z</time>
      </trkpt>
      <trkpt lat="45.88663" lon="4.90285">
        <ele>293</ele>
        <time>2018-07-17T10:09:29Z</time>
      </trkpt>
      <trkpt lat="45.88663" lon="4.90279">
        <ele>293</ele>
        <time>2018-07-17T10:09:30Z</time>
      </trkpt>
      <trkpt lat="45.88664" lon="4.90272">
        <ele>293</ele>
        <time>2018-07-17T10:09:31Z</time>
      </trkpt>
      <trkpt lat="45.88664" lon="4.90266">
        <ele>293</ele>
        <time>2018-07-17T10:09:32Z</time>
      </trkpt>
      <trkpt lat="45.88664" lon="4.90259">
        <ele>293</ele>
        <time>2018-07-17T10:09:33Z</time>
      </trkpt>
      <trkpt lat="45.88664" lon="4.90247">
        <ele>293</ele>
        <time>2018-07-17T10:09:35Z</time>
      </trkpt>
      <trkpt lat="45.88663" lon="4.9024">
        <ele>293</ele>
        <time>2018-07-17T10:09:36Z</time>
      </trkpt>
      <trkpt lat="45.88663" lon="4.90233">
        <ele>293</ele>
        <time>2018-07-17T10:09:37Z</time>
      </trkpt>
      <trkpt lat="45.88664" lon="4.90227">
        <ele>294</ele>
        <time>2018-07-17T10:09:38Z</time>
      </trkpt>
      <trkpt lat="45.88665" lon="4.9022">
        <ele>294</ele>
        <time>2018-07-17T10:09:39Z</time>
      </trkpt>
      <trkpt lat="45.88666" lon="4.90214">
        <ele>294</ele>
        <time>2018-07-17T10:09:40Z</time>
      </trkpt>
      <trkpt lat="45.88664" lon="4.90201">
        <ele>294</ele>
        <time>2018-07-17T10:09:42Z</time>
      </trkpt>
      <trkpt lat="45.88663" lon="4.90196">
        <ele>294</ele>
        <time>2018-07-17T10:09:43Z</time>
      </trkpt>
      <trkpt lat="45.88663" lon="4.90184">
        <ele>294</ele>
        <time>2018-07-17T10:09:45Z</time>
      </trkpt>
      <trkpt lat="45.88663" lon="4.90178">
        <ele>294</ele>
        <time>2018-07-17T10:09:46Z</time>
      </trkpt>
      <trkpt lat="45.88663" lon="4.90172">
        <ele>294</ele>
        <time>2018-07-17T10:09:47Z</time>
      </trkpt>
      <trkpt lat="45.8866" lon="4.90164">
        <ele>294</ele>
        <time>2018-07-17T10:09:48Z</time>
      </trkpt>
      <trkpt lat="45.8866" lon="4.90151">
        <ele>294</ele>
        <time>2018-07-17T10:09:50Z</time>
      </trkpt>
      <trkpt lat="45.88661" lon="4.90146">
        <ele>294</ele>
        <time>2018-07-17T10:09:51Z</time>
      </trkpt>
      <trkpt lat="45.88659" lon="4.9014">
        <ele>294</ele>
        <time>2018-07-17T10:09:52Z</time>
      </trkpt>
      <trkpt lat="45.88658" lon="4.90134">
        <ele>294</ele>
        <time>2018-07-17T10:09:53Z</time>
      </trkpt>
      <trkpt lat="45.88656" lon="4.90126">
        <ele>295</ele>
        <time>2018-07-17T10:09:54Z</time>
      </trkpt>
      <trkpt lat="45.88655" lon="4.9012">
        <ele>295</ele>
        <time>2018-07-17T10:09:55Z</time>
      </trkpt>
      <trkpt lat="45.88653" lon="4.90114">
        <ele>295</ele>
        <time>2018-07-17T10:09:56Z</time>
      </trkpt>
      <trkpt lat="45.88652" lon="4.90107">
        <ele>295</ele>
        <time>2018-07-17T10:09:57Z</time>
      </trkpt>
      <trkpt lat="45.8865" lon="4.901">
        <ele>294</ele>
        <time>2018-07-17T10:09:58Z</time>
      </trkpt>
      <trkpt lat="45.88649" lon="4.90093">
        <ele>294</ele>
        <time>2018-07-17T10:09:59Z</time>
      </trkpt>
      <trkpt lat="45.88648" lon="4.90085">
        <ele>294</ele>
        <time>2018-07-17T10:10:00Z</time>
      </trkpt>
      <trkpt lat="45.88647" lon="4.90077">
        <ele>295</ele>
        <time>2018-07-17T10:10:01Z</time>
      </trkpt>
      <trkpt lat="45.88646" lon="4.90065">
        <ele>295</ele>
        <time>2018-07-17T10:10:03Z</time>
      </trkpt>
      <trkpt lat="45.88644" lon="4.90059">
        <ele>295</ele>
        <time>2018-07-17T10:10:04Z</time>
      </trkpt>
      <trkpt lat="45.88643" lon="4.90053">
        <ele>295</ele>
        <time>2018-07-17T10:10:05Z</time>
      </trkpt>
      <trkpt lat="45.88642" lon="4.90046">
        <ele>295</ele>
        <time>2018-07-17T10:10:06Z</time>
      </trkpt>
      <trkpt lat="45.88641" lon="4.90033">
        <ele>295</ele>
        <time>2018-07-17T10:10:08Z</time>
      </trkpt>
      <trkpt lat="45.88641" lon="4.90027">
        <ele>295</ele>
        <time>2018-07-17T10:10:09Z</time>
      </trkpt>
      <trkpt lat="45.8864" lon="4.90021">
        <ele>295</ele>
        <time>2018-07-17T10:10:10Z</time>
      </trkpt>
      <trkpt lat="45.88638" lon="4.90015">
        <ele>295</ele>
        <time>2018-07-17T10:10:11Z</time>
      </trkpt>
      <trkpt lat="45.88636" lon="4.90008">
        <ele>295</ele>
        <time>2018-07-17T10:10:12Z</time>
      </trkpt>
      <trkpt lat="45.88634" lon="4.90001">
        <ele>295</ele>
        <time>2018-07-17T10:10:13Z</time>
      </trkpt>
      <trkpt lat="45.88634" lon="4.89995">
        <ele>295</ele>
        <time>2018-07-17T10:10:14Z</time>
      </trkpt>
      <trkpt lat="45.88633" lon="4.89988">
        <ele>295</ele>
        <time>2018-07-17T10:10:15Z</time>
      </trkpt>
      <trkpt lat="45.88631" lon="4.89981">
        <ele>295</ele>
        <time>2018-07-17T10:10:16Z</time>
      </trkpt>
      <trkpt lat="45.88631" lon="4.89975">
        <ele>295</ele>
        <time>2018-07-17T10:10:17Z</time>
      </trkpt>
      <trkpt lat="45.88628" lon="4.89968">
        <ele>295</ele>
        <time>2018-07-17T10:10:18Z</time>
      </trkpt>
      <trkpt lat="45.88626" lon="4.89963">
        <ele>295</ele>
        <time>2018-07-17T10:10:19Z</time>
      </trkpt>
      <trkpt lat="45.88625" lon="4.89951">
        <ele>295</ele>
        <time>2018-07-17T10:10:21Z</time>
      </trkpt>
      <trkpt lat="45.88624" lon="4.89946">
        <ele>295</ele>
        <time>2018-07-17T10:10:22Z</time>
      </trkpt>
      <trkpt lat="45.88623" lon="4.89939">
        <ele>295</ele>
        <time>2018-07-17T10:10:23Z</time>
      </trkpt>
      <trkpt lat="45.88621" lon="4.89933">
        <ele>295</ele>
        <time>2018-07-17T10:10:24Z</time>
      </trkpt>
      <trkpt lat="45.88619" lon="4.89926">
        <ele>295</ele>
        <time>2018-07-17T10:10:25Z</time>
      </trkpt>
      <trkpt lat="45.88615" lon="4.89919">
        <ele>296</ele>
        <time>2018-07-17T10:10:26Z</time>
      </trkpt>
      <trkpt lat="45.88608" lon="4.89911">
        <ele>296</ele>
        <time>2018-07-17T10:10:28Z</time>
      </trkpt>
      <trkpt lat="45.88604" lon="4.8991">
        <ele>296</ele>
        <time>2018-07-17T10:10:29Z</time>
      </trkpt>
      <trkpt lat="45.88597" lon="4.89908">
        <ele>296</ele>
        <time>2018-07-17T10:10:31Z</time>
      </trkpt>
      <trkpt lat="45.88594" lon="4.89909">
        <ele>296</ele>
        <time>2018-07-17T10:10:32Z</time>
      </trkpt>
      <trkpt lat="45.88588" lon="4.89909">
        <ele>297</ele>
        <time>2018-07-17T10:10:33Z</time>
      </trkpt>
      <trkpt lat="45.88584" lon="4.89909">
        <ele>297</ele>
        <time>2018-07-17T10:10:34Z</time>
      </trkpt>
      <trkpt lat="45.88578" lon="4.8991">
        <ele>298</ele>
        <time>2018-07-17T10:10:35Z</time>
      </trkpt>
      <trkpt lat="45.88574" lon="4.89911">
        <ele>298</ele>
        <time>2018-07-17T10:10:36Z</time>
      </trkpt>
      <trkpt lat="45.88567" lon="4.89912">
        <ele>298</ele>
        <time>2018-07-17T10:10:38Z</time>
      </trkpt>
      <trkpt lat="45.88562" lon="4.89914">
        <ele>298</ele>
        <time>2018-07-17T10:10:39Z</time>
      </trkpt>
      <trkpt lat="45.88555" lon="4.89916">
        <ele>299</ele>
        <time>2018-07-17T10:10:41Z</time>
      </trkpt>
      <trkpt lat="45.88551" lon="4.89915">
        <ele>299</ele>
        <time>2018-07-17T10:10:42Z</time>
      </trkpt>
      <trkpt lat="45.88543" lon="4.89916">
        <ele>299</ele>
        <time>2018-07-17T10:10:44Z</time>
      </trkpt>
      <trkpt lat="45.8854" lon="4.89916">
        <ele>300</ele>
        <time>2018-07-17T10:10:45Z</time>
      </trkpt>
      <trkpt lat="45.88532" lon="4.89919">
        <ele>300</ele>
        <time>2018-07-17T10:10:48Z</time>
      </trkpt>
      <trkpt lat="45.8853" lon="4.8992">
        <ele>300</ele>
        <time>2018-07-17T10:10:49Z</time>
      </trkpt>
      <trkpt lat="45.88522" lon="4.89922">
        <ele>301</ele>
        <time>2018-07-17T10:10:52Z</time>
      </trkpt>
      <trkpt lat="45.88519" lon="4.89923">
        <ele>301</ele>
        <time>2018-07-17T10:10:53Z</time>
      </trkpt>
      <trkpt lat="45.88514" lon="4.89925">
        <ele>301</ele>
        <time>2018-07-17T10:10:55Z</time>
      </trkpt>
      <trkpt lat="45.88505" lon="4.89928">
        <ele>301</ele>
        <time>2018-07-17T10:10:56Z</time>
      </trkpt>
      <trkpt lat="45.88497" lon="4.8993">
        <ele>303</ele>
        <time>2018-07-17T10:11:00Z</time>
      </trkpt>
      <trkpt lat="45.88495" lon="4.8993">
        <ele>303</ele>
        <time>2018-07-17T10:11:01Z</time>
      </trkpt>
      <trkpt lat="45.88488" lon="4.89932">
        <ele>303</ele>
        <time>2018-07-17T10:11:04Z</time>
      </trkpt>
      <trkpt lat="45.88485" lon="4.89933">
        <ele>303</ele>
        <time>2018-07-17T10:11:05Z</time>
      </trkpt>
      <trkpt lat="45.88479" lon="4.89936">
        <ele>303</ele>
        <time>2018-07-17T10:11:07Z</time>
      </trkpt>
      <trkpt lat="45.8847" lon="4.89939">
        <ele>303</ele>
        <time>2018-07-17T10:11:08Z</time>
      </trkpt>
      <trkpt lat="45.88466" lon="4.8994">
        <ele>303</ele>
        <time>2018-07-17T10:11:10Z</time>
      </trkpt>
      <trkpt lat="45.8846" lon="4.89943">
        <ele>303</ele>
        <time>2018-07-17T10:11:11Z</time>
      </trkpt>
      <trkpt lat="45.88452" lon="4.89948">
        <ele>303</ele>
        <time>2018-07-17T10:11:13Z</time>
      </trkpt>
      <trkpt lat="45.88448" lon="4.89952">
        <ele>303</ele>
        <time>2018-07-17T10:11:14Z</time>
      </trkpt>
      <trkpt lat="45.88444" lon="4.89954">
        <ele>303</ele>
        <time>2018-07-17T10:11:15Z</time>
      </trkpt>
      <trkpt lat="45.88439" lon="4.89957">
        <ele>303</ele>
        <time>2018-07-17T10:11:16Z</time>
      </trkpt>
      <trkpt lat="45.88431" lon="4.89959">
        <ele>303</ele>
        <time>2018-07-17T10:11:18Z</time>
      </trkpt>
      <trkpt lat="45.88427" lon="4.8996">
        <ele>303</ele>
        <time>2018-07-17T10:11:19Z</time>
      </trkpt>
      <trkpt lat="45.8842" lon="4.89962">
        <ele>303</ele>
        <time>2018-07-17T10:11:21Z</time>
      </trkpt>
      <trkpt lat="45.88415" lon="4.89964">
        <ele>304</ele>
        <time>2018-07-17T10:11:22Z</time>
      </trkpt>
      <trkpt lat="45.8841" lon="4.89966">
        <ele>304</ele>
        <time>2018-07-17T10:11:23Z</time>
      </trkpt>
      <trkpt lat="45.88406" lon="4.89968">
        <ele>304</ele>
        <time>2018-07-17T10:11:24Z</time>
      </trkpt>
      <trkpt lat="45.88398" lon="4.89972">
        <ele>304</ele>
        <time>2018-07-17T10:11:26Z</time>
      </trkpt>
      <trkpt lat="45.88394" lon="4.89974">
        <ele>304</ele>
        <time>2018-07-17T10:11:27Z</time>
      </trkpt>
      <trkpt lat="45.88386" lon="4.89979">
        <ele>304</ele>
        <time>2018-07-17T10:11:29Z</time>
      </trkpt>
      <trkpt lat="45.88382" lon="4.89984">
        <ele>304</ele>
        <time>2018-07-17T10:11:30Z</time>
      </trkpt>
      <trkpt lat="45.88374" lon="4.89988">
        <ele>304</ele>
        <time>2018-07-17T10:11:32Z</time>
      </trkpt>
      <trkpt lat="45.8837" lon="4.8999">
        <ele>304</ele>
        <time>2018-07-17T10:11:33Z</time>
      </trkpt>
      <trkpt lat="45.88362" lon="4.89994">
        <ele>304</ele>
        <time>2018-07-17T10:11:35Z</time>
      </trkpt>
      <trkpt lat="45.88358" lon="4.89995">
        <ele>304</ele>
        <time>2018-07-17T10:11:36Z</time>
      </trkpt>
      <trkpt lat="45.88351" lon="4.89999">
        <ele>305</ele>
        <time>2018-07-17T10:11:38Z</time>
      </trkpt>
      <trkpt lat="45.88346" lon="4.90001">
        <ele>304</ele>
        <time>2018-07-17T10:11:39Z</time>
      </trkpt>
      <trkpt lat="45.88341" lon="4.90002">
        <ele>305</ele>
        <time>2018-07-17T10:11:40Z</time>
      </trkpt>
      <trkpt lat="45.88336" lon="4.90003">
        <ele>305</ele>
        <time>2018-07-17T10:11:41Z</time>
      </trkpt>
      <trkpt lat="45.88331" lon="4.90005">
        <ele>305</ele>
        <time>2018-07-17T10:11:42Z</time>
      </trkpt>
      <trkpt lat="45.88326" lon="4.90008">
        <ele>305</ele>
        <time>2018-07-17T10:11:43Z</time>
      </trkpt>
      <trkpt lat="45.8832" lon="4.9001">
        <ele>305</ele>
        <time>2018-07-17T10:11:44Z</time>
      </trkpt>
      <trkpt lat="45.88315" lon="4.90013">
        <ele>305</ele>
        <time>2018-07-17T10:11:45Z</time>
      </trkpt>
      <trkpt lat="45.88309" lon="4.90015">
        <ele>305</ele>
        <time>2018-07-17T10:11:46Z</time>
      </trkpt>
      <trkpt lat="45.88304" lon="4.90017">
        <ele>305</ele>
        <time>2018-07-17T10:11:47Z</time>
      </trkpt>
      <trkpt lat="45.88299" lon="4.90019">
        <ele>305</ele>
        <time>2018-07-17T10:11:48Z</time>
      </trkpt>
      <trkpt lat="45.88294" lon="4.90022">
        <ele>305</ele>
        <time>2018-07-17T10:11:49Z</time>
      </trkpt>
      <trkpt lat="45.88289" lon="4.90027">
        <ele>305</ele>
        <time>2018-07-17T10:11:50Z</time>
      </trkpt>
      <trkpt lat="45.88283" lon="4.90032">
        <ele>305</ele>
        <time>2018-07-17T10:11:51Z</time>
      </trkpt>
      <trkpt lat="45.88277" lon="4.90037">
        <ele>305</ele>
        <time>2018-07-17T10:11:52Z</time>
      </trkpt>
      <trkpt lat="45.88271" lon="4.90042">
        <ele>305</ele>
        <time>2018-07-17T10:11:53Z</time>
      </trkpt>
      <trkpt lat="45.88264" lon="4.90048">
        <ele>305</ele>
        <time>2018-07-17T10:11:54Z</time>
      </trkpt>
      <trkpt lat="45.88257" lon="4.9005">
        <ele>305</ele>
        <time>2018-07-17T10:11:55Z</time>
      </trkpt>
      <trkpt lat="45.8825" lon="4.90046">
        <ele>304</ele>
        <time>2018-07-17T10:11:56Z</time>
      </trkpt>
      <trkpt lat="45.88243" lon="4.90041">
        <ele>304</ele>
        <time>2018-07-17T10:11:57Z</time>
      </trkpt>
      <trkpt lat="45.88236" lon="4.90035">
        <ele>303</ele>
        <time>2018-07-17T10:11:58Z</time>
      </trkpt>
      <trkpt lat="45.88232" lon="4.90027">
        <ele>303</ele>
        <time>2018-07-17T10:11:59Z</time>
      </trkpt>
      <trkpt lat="45.88226" lon="4.9002">
        <ele>303</ele>
        <time>2018-07-17T10:12:00Z</time>
      </trkpt>
      <trkpt lat="45.88222" lon="4.90012">
        <ele>303</ele>
        <time>2018-07-17T10:12:01Z</time>
      </trkpt>
      <trkpt lat="45.88218" lon="4.90008">
        <ele>303</ele>
        <time>2018-07-17T10:12:02Z</time>
      </trkpt>
      <trkpt lat="45.88212" lon="4.90002">
        <ele>303</ele>
        <time>2018-07-17T10:12:03Z</time>
      </trkpt>
      <trkpt lat="45.88207" lon="4.89996">
        <ele>302</ele>
        <time>2018-07-17T10:12:04Z</time>
      </trkpt>
      <trkpt lat="45.88203" lon="4.89988">
        <ele>302</ele>
        <time>2018-07-17T10:12:05Z</time>
      </trkpt>
      <trkpt lat="45.88199" lon="4.8998">
        <ele>301</ele>
        <time>2018-07-17T10:12:06Z</time>
      </trkpt>
      <trkpt lat="45.88196" lon="4.89971">
        <ele>301</ele>
        <time>2018-07-17T10:12:07Z</time>
      </trkpt>
      <trkpt lat="45.88196" lon="4.89962">
        <ele>301</ele>
        <time>2018-07-17T10:12:08Z</time>
      </trkpt>
      <trkpt lat="45.88195" lon="4.89954">
        <ele>301</ele>
        <time>2018-07-17T10:12:09Z</time>
      </trkpt>
      <trkpt lat="45.88193" lon="4.89946">
        <ele>301</ele>
        <time>2018-07-17T10:12:10Z</time>
      </trkpt>
      <trkpt lat="45.88193" lon="4.89938">
        <ele>301</ele>
        <time>2018-07-17T10:12:11Z</time>
      </trkpt>
      <trkpt lat="45.88193" lon="4.89928">
        <ele>301</ele>
        <time>2018-07-17T10:12:12Z</time>
      </trkpt>
      <trkpt lat="45.88193" lon="4.89919">
        <ele>301</ele>
        <time>2018-07-17T10:12:13Z</time>
      </trkpt>
      <trkpt lat="45.88193" lon="4.8991">
        <ele>301</ele>
        <time>2018-07-17T10:12:14Z</time>
      </trkpt>
      <trkpt lat="45.88194" lon="4.89903">
        <ele>301</ele>
        <time>2018-07-17T10:12:15Z</time>
      </trkpt>
      <trkpt lat="45.88193" lon="4.89894">
        <ele>301</ele>
        <time>2018-07-17T10:12:16Z</time>
      </trkpt>
      <trkpt lat="45.88192" lon="4.89885">
        <ele>301</ele>
        <time>2018-07-17T10:12:17Z</time>
      </trkpt>
      <trkpt lat="45.88191" lon="4.89875">
        <ele>301</ele>
        <time>2018-07-17T10:12:18Z</time>
      </trkpt>
      <trkpt lat="45.88192" lon="4.89866">
        <ele>301</ele>
        <time>2018-07-17T10:12:19Z</time>
      </trkpt>
      <trkpt lat="45.88192" lon="4.89857">
        <ele>301</ele>
        <time>2018-07-17T10:12:20Z</time>
      </trkpt>
      <trkpt lat="45.88192" lon="4.89848">
        <ele>301</ele>
        <time>2018-07-17T10:12:21Z</time>
      </trkpt>
      <trkpt lat="45.88192" lon="4.89839">
        <ele>300</ele>
        <time>2018-07-17T10:12:22Z</time>
      </trkpt>
      <trkpt lat="45.88193" lon="4.8983">
        <ele>300</ele>
        <time>2018-07-17T10:12:23Z</time>
      </trkpt>
      <trkpt lat="45.88194" lon="4.89823">
        <ele>300</ele>
        <time>2018-07-17T10:12:24Z</time>
      </trkpt>
      <trkpt lat="45.88194" lon="4.89814">
        <ele>300</ele>
        <time>2018-07-17T10:12:25Z</time>
      </trkpt>
      <trkpt lat="45.88194" lon="4.89806">
        <ele>300</ele>
        <time>2018-07-17T10:12:26Z</time>
      </trkpt>
      <trkpt lat="45.88194" lon="4.89798">
        <ele>300</ele>
        <time>2018-07-17T10:12:27Z</time>
      </trkpt>
      <trkpt lat="45.88195" lon="4.89791">
        <ele>300</ele>
        <time>2018-07-17T10:12:28Z</time>
      </trkpt>
      <trkpt lat="45.88195" lon="4.89783">
        <ele>300</ele>
        <time>2018-07-17T10:12:29Z</time>
      </trkpt>
      <trkpt lat="45.88195" lon="4.89775">
        <ele>300</ele>
        <time>2018-07-17T10:12:30Z</time>
      </trkpt>
      <trkpt lat="45.88195" lon="4.89767">
        <ele>300</ele>
        <time>2018-07-17T10:12:31Z</time>
      </trkpt>
      <trkpt lat="45.88196" lon="4.89761">
        <ele>300</ele>
        <time>2018-07-17T10:12:32Z</time>
      </trkpt>
      <trkpt lat="45.88195" lon="4.89753">
        <ele>300</ele>
        <time>2018-07-17T10:12:33Z</time>
      </trkpt>
      <trkpt lat="45.88196" lon="4.89745">
        <ele>299</ele>
        <time>2018-07-17T10:12:34Z</time>
      </trkpt>
      <trkpt lat="45.88197" lon="4.89737">
        <ele>299</ele>
        <time>2018-07-17T10:12:35Z</time>
      </trkpt>
      <trkpt lat="45.88197" lon="4.89729">
        <ele>299</ele>
        <time>2018-07-17T10:12:36Z</time>
      </trkpt>
      <trkpt lat="45.88198" lon="4.8972">
        <ele>299</ele>
        <time>2018-07-17T10:12:37Z</time>
      </trkpt>
      <trkpt lat="45.88197" lon="4.89712">
        <ele>299</ele>
        <time>2018-07-17T10:12:38Z</time>
      </trkpt>
      <trkpt lat="45.88197" lon="4.89703">
        <ele>299</ele>
        <time>2018-07-17T10:12:39Z</time>
      </trkpt>
      <trkpt lat="45.88198" lon="4.89696">
        <ele>299</ele>
        <time>2018-07-17T10:12:40Z</time>
      </trkpt>
      <trkpt lat="45.88198" lon="4.89687">
        <ele>299</ele>
        <time>2018-07-17T10:12:41Z</time>
      </trkpt>
      <trkpt lat="45.88197" lon="4.8968">
        <ele>299</ele>
        <time>2018-07-17T10:12:42Z</time>
      </trkpt>
      <trkpt lat="45.882" lon="4.89674">
        <ele>299</ele>
        <time>2018-07-17T10:12:43Z</time>
      </trkpt>
      <trkpt lat="45.882" lon="4.89666">
        <ele>299</ele>
        <time>2018-07-17T10:12:44Z</time>
      </trkpt>
      <trkpt lat="45.88201" lon="4.89657">
        <ele>299</ele>
        <time>2018-07-17T10:12:45Z</time>
      </trkpt>
      <trkpt lat="45.88201" lon="4.89649">
        <ele>299</ele>
        <time>2018-07-17T10:12:46Z</time>
      </trkpt>
      <trkpt lat="45.882" lon="4.89642">
        <ele>299</ele>
        <time>2018-07-17T10:12:47Z</time>
      </trkpt>
      <trkpt lat="45.88199" lon="4.89634">
        <ele>299</ele>
        <time>2018-07-17T10:12:48Z</time>
      </trkpt>
      <trkpt lat="45.88198" lon="4.89625">
        <ele>299</ele>
        <time>2018-07-17T10:12:49Z</time>
      </trkpt>
      <trkpt lat="45.88198" lon="4.89616">
        <ele>299</ele>
        <time>2018-07-17T10:12:50Z</time>
      </trkpt>
      <trkpt lat="45.88199" lon="4.89607">
        <ele>299</ele>
        <time>2018-07-17T10:12:51Z</time>
      </trkpt>
      <trkpt lat="45.882" lon="4.89599">
        <ele>299</ele>
        <time>2018-07-17T10:12:52Z</time>
      </trkpt>
      <trkpt lat="45.88199" lon="4.89589">
        <ele>299</ele>
        <time>2018-07-17T10:12:53Z</time>
      </trkpt>
      <trkpt lat="45.88199" lon="4.8958">
        <ele>298</ele>
        <time>2018-07-17T10:12:54Z</time>
      </trkpt>
      <trkpt lat="45.88199" lon="4.8957">
        <ele>298</ele>
        <time>2018-07-17T10:12:55Z</time>
      </trkpt>
      <trkpt lat="45.88199" lon="4.8956">
        <ele>298</ele>
        <time>2018-07-17T10:12:56Z</time>
      </trkpt>
      <trkpt lat="45.88199" lon="4.8955">
        <ele>298</ele>
        <time>2018-07-17T10:12:57Z</time>
      </trkpt>
      <trkpt lat="45.88199" lon="4.8954">
        <ele>298</ele>
        <time>2018-07-17T10:12:58Z</time>
      </trkpt>
      <trkpt lat="45.88199" lon="4.8953">
        <ele>298</ele>
        <time>2018-07-17T10:12:59Z</time>
      </trkpt>
      <trkpt lat="45.882" lon="4.89519">
        <ele>298</ele>
        <time>2018-07-17T10:13:00Z</time>
      </trkpt>
      <trkpt lat="45.88201" lon="4.89509">
        <ele>298</ele>
        <time>2018-07-17T10:13:01Z</time>
      </trkpt>
      <trkpt lat="45.88201" lon="4.89497">
        <ele>297</ele>
        <time>2018-07-17T10:13:02Z</time>
      </trkpt>
      <trkpt lat="45.88201" lon="4.89485">
        <ele>297</ele>
        <time>2018-07-17T10:13:03Z</time>
      </trkpt>
      <trkpt lat="45.882" lon="4.89473">
        <ele>297</ele>
        <time>2018-07-17T10:13:04Z</time>
      </trkpt>
      <trkpt lat="45.88201" lon="4.89461">
        <ele>297</ele>
        <time>2018-07-17T10:13:05Z</time>
      </trkpt>
      <trkpt lat="45.88202" lon="4.89451">
        <ele>297</ele>
        <time>2018-07-17T10:13:06Z</time>
      </trkpt>
      <trkpt lat="45.88202" lon="4.89439">
        <ele>297</ele>
        <time>2018-07-17T10:13:07Z</time>
      </trkpt>
      <trkpt lat="45.88202" lon="4.89427">
        <ele>297</ele>
        <time>2018-07-17T10:13:08Z</time>
      </trkpt>
      <trkpt lat="45.88202" lon="4.89414">
        <ele>297</ele>
        <time>2018-07-17T10:13:09Z</time>
      </trkpt>
      <trkpt lat="45.88201" lon="4.89401">
        <ele>297</ele>
        <time>2018-07-17T10:13:10Z</time>
      </trkpt>
      <trkpt lat="45.88202" lon="4.89391">
        <ele>297</ele>
        <time>2018-07-17T10:13:11Z</time>
      </trkpt>
      <trkpt lat="45.88202" lon="4.89379">
        <ele>297</ele>
        <time>2018-07-17T10:13:12Z</time>
      </trkpt>
      <trkpt lat="45.88205" lon="4.89371">
        <ele>297</ele>
        <time>2018-07-17T10:13:13Z</time>
      </trkpt>
      <trkpt lat="45.88207" lon="4.89362">
        <ele>297</ele>
        <time>2018-07-17T10:13:14Z</time>
      </trkpt>
      <trkpt lat="45.88203" lon="4.89348">
        <ele>297</ele>
        <time>2018-07-17T10:13:15Z</time>
      </trkpt>
      <trkpt lat="45.88203" lon="4.89336">
        <ele>297</ele>
        <time>2018-07-17T10:13:16Z</time>
      </trkpt>
      <trkpt lat="45.88203" lon="4.89326">
        <ele>296</ele>
        <time>2018-07-17T10:13:17Z</time>
      </trkpt>
      <trkpt lat="45.88203" lon="4.89316">
        <ele>296</ele>
        <time>2018-07-17T10:13:18Z</time>
      </trkpt>
      <trkpt lat="45.88203" lon="4.89306">
        <ele>296</ele>
        <time>2018-07-17T10:13:19Z</time>
      </trkpt>
      <trkpt lat="45.88204" lon="4.89296">
        <ele>296</ele>
        <time>2018-07-17T10:13:20Z</time>
      </trkpt>
      <trkpt lat="45.88205" lon="4.89286">
        <ele>296</ele>
        <time>2018-07-17T10:13:21Z</time>
      </trkpt>
      <trkpt lat="45.88206" lon="4.89277">
        <ele>296</ele>
        <time>2018-07-17T10:13:22Z</time>
      </trkpt>
      <trkpt lat="45.88207" lon="4.89266">
        <ele>296</ele>
        <time>2018-07-17T10:13:23Z</time>
      </trkpt>
      <trkpt lat="45.88207" lon="4.89256">
        <ele>296</ele>
        <time>2018-07-17T10:13:24Z</time>
      </trkpt>
      <trkpt lat="45.88209" lon="4.89247">
        <ele>296</ele>
        <time>2018-07-17T10:13:25Z</time>
      </trkpt>
      <trkpt lat="45.8821" lon="4.89237">
        <ele>296</ele>
        <time>2018-07-17T10:13:26Z</time>
      </trkpt>
      <trkpt lat="45.8821" lon="4.89226">
        <ele>296</ele>
        <time>2018-07-17T10:13:27Z</time>
      </trkpt>
      <trkpt lat="45.88211" lon="4.89217">
        <ele>296</ele>
        <time>2018-07-17T10:13:28Z</time>
      </trkpt>
      <trkpt lat="45.88212" lon="4.89206">
        <ele>296</ele>
        <time>2018-07-17T10:13:29Z</time>
      </trkpt>
      <trkpt lat="45.88213" lon="4.89196">
        <ele>296</ele>
        <time>2018-07-17T10:13:30Z</time>
      </trkpt>
      <trkpt lat="45.88212" lon="4.89185">
        <ele>296</ele>
        <time>2018-07-17T10:13:31Z</time>
      </trkpt>
      <trkpt lat="45.88214" lon="4.89176">
        <ele>296</ele>
        <time>2018-07-17T10:13:32Z</time>
      </trkpt>
      <trkpt lat="45.88214" lon="4.89164">
        <ele>295</ele>
        <time>2018-07-17T10:13:33Z</time>
      </trkpt>
      <trkpt lat="45.88215" lon="4.89153">
        <ele>295</ele>
        <time>2018-07-17T10:13:34Z</time>
      </trkpt>
      <trkpt lat="45.88216" lon="4.89142">
        <ele>294</ele>
        <time>2018-07-17T10:13:35Z</time>
      </trkpt>
      <trkpt lat="45.88217" lon="4.8913">
        <ele>294</ele>
        <time>2018-07-17T10:13:36Z</time>
      </trkpt>
      <trkpt lat="45.88218" lon="4.89118">
        <ele>294</ele>
        <time>2018-07-17T10:13:37Z</time>
      </trkpt>
      <trkpt lat="45.88219" lon="4.89108">
        <ele>294</ele>
        <time>2018-07-17T10:13:38Z</time>
      </trkpt>
      <trkpt lat="45.88219" lon="4.89096">
        <ele>294</ele>
        <time>2018-07-17T10:13:39Z</time>
      </trkpt>
      <trkpt lat="45.8822" lon="4.89087">
        <ele>294</ele>
        <time>2018-07-17T10:13:40Z</time>
      </trkpt>
      <trkpt lat="45.88221" lon="4.89077">
        <ele>293</ele>
        <time>2018-07-17T10:13:41Z</time>
      </trkpt>
      <trkpt lat="45.88222" lon="4.89068">
        <ele>293</ele>
        <time>2018-07-17T10:13:42Z</time>
      </trkpt>
      <trkpt lat="45.88223" lon="4.89059">
        <ele>293</ele>
        <time>2018-07-17T10:13:43Z</time>
      </trkpt>
      <trkpt lat="45.88224" lon="4.89049">
        <ele>293</ele>
        <time>2018-07-17T10:13:44Z</time>
      </trkpt>
      <trkpt lat="45.88226" lon="4.89042">
        <ele>293</ele>
        <time>2018-07-17T10:13:45Z</time>
      </trkpt>
      <trkpt lat="45.88227" lon="4.89033">
        <ele>293</ele>
        <time>2018-07-17T10:13:46Z</time>
      </trkpt>
      <trkpt lat="45.88227" lon="4.89024">
        <ele>293</ele>
        <time>2018-07-17T10:13:47Z</time>
      </trkpt>
      <trkpt lat="45.88228" lon="4.89014">
        <ele>293</ele>
        <time>2018-07-17T10:13:48Z</time>
      </trkpt>
      <trkpt lat="45.88229" lon="4.89005">
        <ele>293</ele>
        <time>2018-07-17T10:13:49Z</time>
      </trkpt>
      <trkpt lat="45.88227" lon="4.88994">
        <ele>293</ele>
        <time>2018-07-17T10:13:50Z</time>
      </trkpt>
      <trkpt lat="45.8823" lon="4.88987">
        <ele>293</ele>
        <time>2018-07-17T10:13:51Z</time>
      </trkpt>
      <trkpt lat="45.88228" lon="4.88976">
        <ele>293</ele>
        <time>2018-07-17T10:13:52Z</time>
      </trkpt>
      <trkpt lat="45.8823" lon="4.88969">
        <ele>293</ele>
        <time>2018-07-17T10:13:53Z</time>
      </trkpt>
      <trkpt lat="45.8823" lon="4.88959">
        <ele>293</ele>
        <time>2018-07-17T10:13:54Z</time>
      </trkpt>
      <trkpt lat="45.88231" lon="4.8895">
        <ele>293</ele>
        <time>2018-07-17T10:13:55Z</time>
      </trkpt>
      <trkpt lat="45.88232" lon="4.88941">
        <ele>293</ele>
        <time>2018-07-17T10:13:56Z</time>
      </trkpt>
      <trkpt lat="45.88234" lon="4.8893">
        <ele>292</ele>
        <time>2018-07-17T10:13:57Z</time>
      </trkpt>
      <trkpt lat="45.88234" lon="4.8892">
        <ele>292</ele>
        <time>2018-07-17T10:13:58Z</time>
      </trkpt>
      <trkpt lat="45.88235" lon="4.8891">
        <ele>293</ele>
        <time>2018-07-17T10:13:59Z</time>
      </trkpt>
      <trkpt lat="45.88235" lon="4.88899">
        <ele>293</ele>
        <time>2018-07-17T10:14:00Z</time>
      </trkpt>
      <trkpt lat="45.88238" lon="4.88891">
        <ele>293</ele>
        <time>2018-07-17T10:14:01Z</time>
      </trkpt>
      <trkpt lat="45.88238" lon="4.88882">
        <ele>293</ele>
        <time>2018-07-17T10:14:02Z</time>
      </trkpt>
      <trkpt lat="45.88239" lon="4.88874">
        <ele>293</ele>
        <time>2018-07-17T10:14:03Z</time>
      </trkpt>
      <trkpt lat="45.88239" lon="4.88863">
        <ele>294</ele>
        <time>2018-07-17T10:14:04Z</time>
      </trkpt>
      <trkpt lat="45.88238" lon="4.88852">
        <ele>294</ele>
        <time>2018-07-17T10:14:05Z</time>
      </trkpt>
      <trkpt lat="45.8824" lon="4.88843">
        <ele>294</ele>
        <time>2018-07-17T10:14:06Z</time>
      </trkpt>
      <trkpt lat="45.88239" lon="4.88831">
        <ele>294</ele>
        <time>2018-07-17T10:14:07Z</time>
      </trkpt>
      <trkpt lat="45.88239" lon="4.88821">
        <ele>294</ele>
        <time>2018-07-17T10:14:08Z</time>
      </trkpt>
      <trkpt lat="45.88242" lon="4.88812">
        <ele>294</ele>
        <time>2018-07-17T10:14:09Z</time>
      </trkpt>
      <trkpt lat="45.88242" lon="4.88802">
        <ele>294</ele>
        <time>2018-07-17T10:14:10Z</time>
      </trkpt>
      <trkpt lat="45.88242" lon="4.88792">
        <ele>294</ele>
        <time>2018-07-17T10:14:11Z</time>
      </trkpt>
      <trkpt lat="45.88241" lon="4.88781">
        <ele>294</ele>
        <time>2018-07-17T10:14:12Z</time>
      </trkpt>
      <trkpt lat="45.88241" lon="4.88771">
        <ele>294</ele>
        <time>2018-07-17T10:14:13Z</time>
      </trkpt>
      <trkpt lat="45.88246" lon="4.88763">
        <ele>294</ele>
        <time>2018-07-17T10:14:14Z</time>
      </trkpt>
      <trkpt lat="45.88246" lon="4.88752">
        <ele>294</ele>
        <time>2018-07-17T10:14:15Z</time>
      </trkpt>
      <trkpt lat="45.88246" lon="4.88742">
        <ele>294</ele>
        <time>2018-07-17T10:14:16Z</time>
      </trkpt>
      <trkpt lat="45.88248" lon="4.88733">
        <ele>295</ele>
        <time>2018-07-17T10:14:17Z</time>
      </trkpt>
      <trkpt lat="45.88247" lon="4.88722">
        <ele>295</ele>
        <time>2018-07-17T10:14:18Z</time>
      </trkpt>
      <trkpt lat="45.88251" lon="4.88714">
        <ele>294</ele>
        <time>2018-07-17T10:14:19Z</time>
      </trkpt>
      <trkpt lat="45.88251" lon="4.88705">
        <ele>294</ele>
        <time>2018-07-17T10:14:20Z</time>
      </trkpt>
      <trkpt lat="45.88252" lon="4.88695">
        <ele>294</ele>
        <time>2018-07-17T10:14:21Z</time>
      </trkpt>
      <trkpt lat="45.88252" lon="4.88684">
        <ele>294</ele>
        <time>2018-07-17T10:14:22Z</time>
      </trkpt>
      <trkpt lat="45.88253" lon="4.88675">
        <ele>295</ele>
        <time>2018-07-17T10:14:23Z</time>
      </trkpt>
      <trkpt lat="45.88256" lon="4.88668">
        <ele>295</ele>
        <time>2018-07-17T10:14:24Z</time>
      </trkpt>
      <trkpt lat="45.88256" lon="4.88659">
        <ele>295</ele>
        <time>2018-07-17T10:14:25Z</time>
      </trkpt>
      <trkpt lat="45.88256" lon="4.88649">
        <ele>295</ele>
        <time>2018-07-17T10:14:26Z</time>
      </trkpt>
      <trkpt lat="45.88256" lon="4.88639">
        <ele>294</ele>
        <time>2018-07-17T10:14:27Z</time>
      </trkpt>
      <trkpt lat="45.88256" lon="4.88629">
        <ele>294</ele>
        <time>2018-07-17T10:14:28Z</time>
      </trkpt>
      <trkpt lat="45.88257" lon="4.88621">
        <ele>294</ele>
        <time>2018-07-17T10:14:29Z</time>
      </trkpt>
      <trkpt lat="45.88258" lon="4.88612">
        <ele>294</ele>
        <time>2018-07-17T10:14:30Z</time>
      </trkpt>
      <trkpt lat="45.88258" lon="4.886">
        <ele>295</ele>
        <time>2018-07-17T10:14:31Z</time>
      </trkpt>
      <trkpt lat="45.88259" lon="4.88591">
        <ele>295</ele>
        <time>2018-07-17T10:14:32Z</time>
      </trkpt>
      <trkpt lat="45.88259" lon="4.88582">
        <ele>295</ele>
        <time>2018-07-17T10:14:33Z</time>
      </trkpt>
      <trkpt lat="45.8826" lon="4.88571">
        <ele>295</ele>
        <time>2018-07-17T10:14:34Z</time>
      </trkpt>
      <trkpt lat="45.88259" lon="4.88562">
        <ele>295</ele>
        <time>2018-07-17T10:14:35Z</time>
      </trkpt>
      <trkpt lat="45.8826" lon="4.88553">
        <ele>295</ele>
        <time>2018-07-17T10:14:36Z</time>
      </trkpt>
      <trkpt lat="45.88261" lon="4.88544">
        <ele>294</ele>
        <time>2018-07-17T10:14:37Z</time>
      </trkpt>
      <trkpt lat="45.88262" lon="4.88535">
        <ele>294</ele>
        <time>2018-07-17T10:14:38Z</time>
      </trkpt>
      <trkpt lat="45.88263" lon="4.88527">
        <ele>295</ele>
        <time>2018-07-17T10:14:39Z</time>
      </trkpt>
      <trkpt lat="45.88264" lon="4.88519">
        <ele>295</ele>
        <time>2018-07-17T10:14:40Z</time>
      </trkpt>
      <trkpt lat="45.88265" lon="4.88513">
        <ele>295</ele>
        <time>2018-07-17T10:14:41Z</time>
      </trkpt>
      <trkpt lat="45.88266" lon="4.88506">
        <ele>295</ele>
        <time>2018-07-17T10:14:42Z</time>
      </trkpt>
      <trkpt lat="45.88267" lon="4.88499">
        <ele>295</ele>
        <time>2018-07-17T10:14:43Z</time>
      </trkpt>
      <trkpt lat="45.88266" lon="4.88489">
        <ele>295</ele>
        <time>2018-07-17T10:14:44Z</time>
      </trkpt>
      <trkpt lat="45.88266" lon="4.88481">
        <ele>295</ele>
        <time>2018-07-17T10:14:45Z</time>
      </trkpt>
      <trkpt lat="45.88266" lon="4.88472">
        <ele>295</ele>
        <time>2018-07-17T10:14:46Z</time>
      </trkpt>
      <trkpt lat="45.88266" lon="4.88464">
        <ele>295</ele>
        <time>2018-07-17T10:14:47Z</time>
      </trkpt>
      <trkpt lat="45.88266" lon="4.88456">
        <ele>295</ele>
        <time>2018-07-17T10:14:48Z</time>
      </trkpt>
      <trkpt lat="45.88264" lon="4.88447">
        <ele>295</ele>
        <time>2018-07-17T10:14:49Z</time>
      </trkpt>
      <trkpt lat="45.88263" lon="4.88438">
        <ele>295</ele>
        <time>2018-07-17T10:14:50Z</time>
      </trkpt>
      <trkpt lat="45.88265" lon="4.88434">
        <ele>295</ele>
        <time>2018-07-17T10:14:51Z</time>
      </trkpt>
      <trkpt lat="45.88266" lon="4.88428">
        <ele>295</ele>
        <time>2018-07-17T10:14:52Z</time>
      </trkpt>
      <trkpt lat="45.88266" lon="4.88421">
        <ele>295</ele>
        <time>2018-07-17T10:14:53Z</time>
      </trkpt>
      <trkpt lat="45.88266" lon="4.88412">
        <ele>295</ele>
        <time>2018-07-17T10:14:54Z</time>
      </trkpt>
      <trkpt lat="45.88265" lon="4.88403">
        <ele>295</ele>
        <time>2018-07-17T10:14:55Z</time>
      </trkpt>
      <trkpt lat="45.88266" lon="4.88396">
        <ele>296</ele>
        <time>2018-07-17T10:14:56Z</time>
      </trkpt>
      <trkpt lat="45.88269" lon="4.8839">
        <ele>296</ele>
        <time>2018-07-17T10:14:57Z</time>
      </trkpt>
      <trkpt lat="45.88271" lon="4.88384">
        <ele>296</ele>
        <time>2018-07-17T10:14:58Z</time>
      </trkpt>
      <trkpt lat="45.88275" lon="4.88377">
        <ele>296</ele>
        <time>2018-07-17T10:14:59Z</time>
      </trkpt>
      <trkpt lat="45.88281" lon="4.88369">
        <ele>296</ele>
        <time>2018-07-17T10:15:01Z</time>
      </trkpt>
      <trkpt lat="45.88283" lon="4.88358">
        <ele>296</ele>
        <time>2018-07-17T10:15:02Z</time>
      </trkpt>
      <trkpt lat="45.88285" lon="4.88352">
        <ele>296</ele>
        <time>2018-07-17T10:15:03Z</time>
      </trkpt>
      <trkpt lat="45.88285" lon="4.88344">
        <ele>296</ele>
        <time>2018-07-17T10:15:04Z</time>
      </trkpt>
      <trkpt lat="45.88284" lon="4.88336">
        <ele>296</ele>
        <time>2018-07-17T10:15:05Z</time>
      </trkpt>
      <trkpt lat="45.88283" lon="4.88328">
        <ele>296</ele>
        <time>2018-07-17T10:15:06Z</time>
      </trkpt>
      <trkpt lat="45.8828" lon="4.8832">
        <ele>296</ele>
        <time>2018-07-17T10:15:07Z</time>
      </trkpt>
      <trkpt lat="45.88278" lon="4.88315">
        <ele>296</ele>
        <time>2018-07-17T10:15:08Z</time>
      </trkpt>
      <trkpt lat="45.88275" lon="4.88308">
        <ele>296</ele>
        <time>2018-07-17T10:15:09Z</time>
      </trkpt>
      <trkpt lat="45.88273" lon="4.88302">
        <ele>296</ele>
        <time>2018-07-17T10:15:10Z</time>
      </trkpt>
      <trkpt lat="45.88271" lon="4.88295">
        <ele>296</ele>
        <time>2018-07-17T10:15:11Z</time>
      </trkpt>
      <trkpt lat="45.88272" lon="4.88286">
        <ele>296</ele>
        <time>2018-07-17T10:15:12Z</time>
      </trkpt>
      <trkpt lat="45.88274" lon="4.88278">
        <ele>296</ele>
        <time>2018-07-17T10:15:13Z</time>
      </trkpt>
      <trkpt lat="45.88272" lon="4.88271">
        <ele>296</ele>
        <time>2018-07-17T10:15:14Z</time>
      </trkpt>
      <trkpt lat="45.88271" lon="4.88265">
        <ele>296</ele>
        <time>2018-07-17T10:15:15Z</time>
      </trkpt>
      <trkpt lat="45.88272" lon="4.88258">
        <ele>296</ele>
        <time>2018-07-17T10:15:16Z</time>
      </trkpt>
      <trkpt lat="45.88271" lon="4.88251">
        <ele>296</ele>
        <time>2018-07-17T10:15:17Z</time>
      </trkpt>
      <trkpt lat="45.88272" lon="4.88244">
        <ele>296</ele>
        <time>2018-07-17T10:15:18Z</time>
      </trkpt>
      <trkpt lat="45.88272" lon="4.88238">
        <ele>296</ele>
        <time>2018-07-17T10:15:19Z</time>
      </trkpt>
      <trkpt lat="45.88273" lon="4.88231">
        <ele>296</ele>
        <time>2018-07-17T10:15:20Z</time>
      </trkpt>
      <trkpt lat="45.88274" lon="4.88223">
        <ele>296</ele>
        <time>2018-07-17T10:15:21Z</time>
      </trkpt>
      <trkpt lat="45.88274" lon="4.88217">
        <ele>296</ele>
        <time>2018-07-17T10:15:22Z</time>
      </trkpt>
      <trkpt lat="45.88273" lon="4.8821">
        <ele>296</ele>
        <time>2018-07-17T10:15:23Z</time>
      </trkpt>
      <trkpt lat="45.88276" lon="4.88203">
        <ele>296</ele>
        <time>2018-07-17T10:15:24Z</time>
      </trkpt>
      <trkpt lat="45.88277" lon="4.88191">
        <ele>296</ele>
        <time>2018-07-17T10:15:26Z</time>
      </trkpt>
      <trkpt lat="45.88278" lon="4.88185">
        <ele>296</ele>
        <time>2018-07-17T10:15:27Z</time>
      </trkpt>
      <trkpt lat="45.88277" lon="4.88172">
        <ele>296</ele>
        <time>2018-07-17T10:15:29Z</time>
      </trkpt>
      <trkpt lat="45.88278" lon="4.88165">
        <ele>296</ele>
        <time>2018-07-17T10:15:30Z</time>
      </trkpt>
      <trkpt lat="45.88278" lon="4.88157">
        <ele>296</ele>
        <time>2018-07-17T10:15:31Z</time>
      </trkpt>
      <trkpt lat="45.88277" lon="4.88149">
        <ele>296</ele>
        <time>2018-07-17T10:15:32Z</time>
      </trkpt>
      <trkpt lat="45.88276" lon="4.88137">
        <ele>295</ele>
        <time>2018-07-17T10:15:34Z</time>
      </trkpt>
      <trkpt lat="45.88276" lon="4.88129">
        <ele>295</ele>
        <time>2018-07-17T10:15:35Z</time>
      </trkpt>
      <trkpt lat="45.88275" lon="4.88123">
        <ele>295</ele>
        <time>2018-07-17T10:15:36Z</time>
      </trkpt>
      <trkpt lat="45.88275" lon="4.88116">
        <ele>295</ele>
        <time>2018-07-17T10:15:37Z</time>
      </trkpt>
      <trkpt lat="45.88275" lon="4.88109">
        <ele>295</ele>
        <time>2018-07-17T10:15:38Z</time>
      </trkpt>
      <trkpt lat="45.88275" lon="4.88101">
        <ele>294</ele>
        <time>2018-07-17T10:15:39Z</time>
      </trkpt>
      <trkpt lat="45.88275" lon="4.88092">
        <ele>294</ele>
        <time>2018-07-17T10:15:40Z</time>
      </trkpt>
      <trkpt lat="45.88275" lon="4.88086">
        <ele>294</ele>
        <time>2018-07-17T10:15:41Z</time>
      </trkpt>
      <trkpt lat="45.88275" lon="4.88079">
        <ele>293</ele>
        <time>2018-07-17T10:15:42Z</time>
      </trkpt>
      <trkpt lat="45.88275" lon="4.88071">
        <ele>293</ele>
        <time>2018-07-17T10:15:43Z</time>
      </trkpt>
      <trkpt lat="45.88274" lon="4.88064">
        <ele>293</ele>
        <time>2018-07-17T10:15:44Z</time>
      </trkpt>
      <trkpt lat="45.88274" lon="4.88056">
        <ele>293</ele>
        <time>2018-07-17T10:15:45Z</time>
      </trkpt>
      <trkpt lat="45.88273" lon="4.88049">
        <ele>293</ele>
        <time>2018-07-17T10:15:46Z</time>
      </trkpt>
      <trkpt lat="45.88273" lon="4.88041">
        <ele>293</ele>
        <time>2018-07-17T10:15:47Z</time>
      </trkpt>
      <trkpt lat="45.88273" lon="4.88034">
        <ele>293</ele>
        <time>2018-07-17T10:15:48Z</time>
      </trkpt>
      <trkpt lat="45.88272" lon="4.88028">
        <ele>293</ele>
        <time>2018-07-17T10:15:49Z</time>
      </trkpt>
      <trkpt lat="45.88272" lon="4.8802">
        <ele>293</ele>
        <time>2018-07-17T10:15:50Z</time>
      </trkpt>
      <trkpt lat="45.88272" lon="4.88013">
        <ele>293</ele>
        <time>2018-07-17T10:15:51Z</time>
      </trkpt>
      <trkpt lat="45.88271" lon="4.88005">
        <ele>293</ele>
        <time>2018-07-17T10:15:52Z</time>
      </trkpt>
      <trkpt lat="45.88271" lon="4.87997">
        <ele>293</ele>
        <time>2018-07-17T10:15:53Z</time>
      </trkpt>
      <trkpt lat="45.88268" lon="4.87989">
        <ele>293</ele>
        <time>2018-07-17T10:15:54Z</time>
      </trkpt>
      <trkpt lat="45.88268" lon="4.8798">
        <ele>293</ele>
        <time>2018-07-17T10:15:55Z</time>
      </trkpt>
      <trkpt lat="45.88268" lon="4.87971">
        <ele>293</ele>
        <time>2018-07-17T10:15:56Z</time>
      </trkpt>
      <trkpt lat="45.88268" lon="4.87962">
        <ele>293</ele>
        <time>2018-07-17T10:15:57Z</time>
      </trkpt>
      <trkpt lat="45.88268" lon="4.87954">
        <ele>293</ele>
        <time>2018-07-17T10:15:58Z</time>
      </trkpt>
      <trkpt lat="45.88267" lon="4.87946">
        <ele>294</ele>
        <time>2018-07-17T10:15:59Z</time>
      </trkpt>
      <trkpt lat="45.88266" lon="4.87937">
        <ele>294</ele>
        <time>2018-07-17T10:16:00Z</time>
      </trkpt>
      <trkpt lat="45.88266" lon="4.87928">
        <ele>294</ele>
        <time>2018-07-17T10:16:01Z</time>
      </trkpt>
      <trkpt lat="45.88265" lon="4.87919">
        <ele>295</ele>
        <time>2018-07-17T10:16:02Z</time>
      </trkpt>
      <trkpt lat="45.88265" lon="4.8791">
        <ele>295</ele>
        <time>2018-07-17T10:16:03Z</time>
      </trkpt>
      <trkpt lat="45.88264" lon="4.87899">
        <ele>295</ele>
        <time>2018-07-17T10:16:04Z</time>
      </trkpt>
      <trkpt lat="45.88264" lon="4.87889">
        <ele>294</ele>
        <time>2018-07-17T10:16:05Z</time>
      </trkpt>
      <trkpt lat="45.88263" lon="4.87879">
        <ele>294</ele>
        <time>2018-07-17T10:16:06Z</time>
      </trkpt>
      <trkpt lat="45.88263" lon="4.87869">
        <ele>294</ele>
        <time>2018-07-17T10:16:07Z</time>
      </trkpt>
      <trkpt lat="45.88261" lon="4.87859">
        <ele>294</ele>
        <time>2018-07-17T10:16:08Z</time>
      </trkpt>
      <trkpt lat="45.88259" lon="4.87847">
        <ele>294</ele>
        <time>2018-07-17T10:16:09Z</time>
      </trkpt>
      <trkpt lat="45.88258" lon="4.87837">
        <ele>295</ele>
        <time>2018-07-17T10:16:10Z</time>
      </trkpt>
      <trkpt lat="45.88255" lon="4.87826">
        <ele>295</ele>
        <time>2018-07-17T10:16:11Z</time>
      </trkpt>
      <trkpt lat="45.88253" lon="4.87815">
        <ele>295</ele>
        <time>2018-07-17T10:16:12Z</time>
      </trkpt>
      <trkpt lat="45.88252" lon="4.87805">
        <ele>295</ele>
        <time>2018-07-17T10:16:13Z</time>
      </trkpt>
      <trkpt lat="45.88251" lon="4.87794">
        <ele>295</ele>
        <time>2018-07-17T10:16:14Z</time>
      </trkpt>
      <trkpt lat="45.8825" lon="4.87784">
        <ele>295</ele>
        <time>2018-07-17T10:16:15Z</time>
      </trkpt>
      <trkpt lat="45.8825" lon="4.87773">
        <ele>295</ele>
        <time>2018-07-17T10:16:16Z</time>
      </trkpt>
      <trkpt lat="45.88248" lon="4.87762">
        <ele>295</ele>
        <time>2018-07-17T10:16:17Z</time>
      </trkpt>
      <trkpt lat="45.88247" lon="4.87752">
        <ele>296</ele>
        <time>2018-07-17T10:16:18Z</time>
      </trkpt>
      <trkpt lat="45.88246" lon="4.87742">
        <ele>296</ele>
        <time>2018-07-17T10:16:19Z</time>
      </trkpt>
      <trkpt lat="45.88245" lon="4.87733">
        <ele>295</ele>
        <time>2018-07-17T10:16:20Z</time>
      </trkpt>
      <trkpt lat="45.88244" lon="4.87724">
        <ele>295</ele>
        <time>2018-07-17T10:16:21Z</time>
      </trkpt>
      <trkpt lat="45.88243" lon="4.87715">
        <ele>295</ele>
        <time>2018-07-17T10:16:22Z</time>
      </trkpt>
      <trkpt lat="45.88242" lon="4.87705">
        <ele>295</ele>
        <time>2018-07-17T10:16:23Z</time>
      </trkpt>
      <trkpt lat="45.88241" lon="4.87696">
        <ele>295</ele>
        <time>2018-07-17T10:16:24Z</time>
      </trkpt>
      <trkpt lat="45.8824" lon="4.87688">
        <ele>295</ele>
        <time>2018-07-17T10:16:25Z</time>
      </trkpt>
      <trkpt lat="45.88239" lon="4.8768">
        <ele>295</ele>
        <time>2018-07-17T10:16:26Z</time>
      </trkpt>
      <trkpt lat="45.88238" lon="4.87672">
        <ele>295</ele>
        <time>2018-07-17T10:16:27Z</time>
      </trkpt>
      <trkpt lat="45.88235" lon="4.87664">
        <ele>295</ele>
        <time>2018-07-17T10:16:28Z</time>
      </trkpt>
      <trkpt lat="45.88234" lon="4.87656">
        <ele>295</ele>
        <time>2018-07-17T10:16:29Z</time>
      </trkpt>
      <trkpt lat="45.88232" lon="4.87647">
        <ele>295</ele>
        <time>2018-07-17T10:16:30Z</time>
      </trkpt>
      <trkpt lat="45.88231" lon="4.87639">
        <ele>295</ele>
        <time>2018-07-17T10:16:31Z</time>
      </trkpt>
      <trkpt lat="45.8823" lon="4.87631">
        <ele>295</ele>
        <time>2018-07-17T10:16:32Z</time>
      </trkpt>
      <trkpt lat="45.88229" lon="4.87622">
        <ele>295</ele>
        <time>2018-07-17T10:16:33Z</time>
      </trkpt>
      <trkpt lat="45.88228" lon="4.87614">
        <ele>295</ele>
        <time>2018-07-17T10:16:34Z</time>
      </trkpt>
      <trkpt lat="45.88226" lon="4.87605">
        <ele>295</ele>
        <time>2018-07-17T10:16:35Z</time>
      </trkpt>
      <trkpt lat="45.88226" lon="4.87596">
        <ele>295</ele>
        <time>2018-07-17T10:16:36Z</time>
      </trkpt>
      <trkpt lat="45.88225" lon="4.87588">
        <ele>295</ele>
        <time>2018-07-17T10:16:37Z</time>
      </trkpt>
      <trkpt lat="45.88225" lon="4.8758">
        <ele>296</ele>
        <time>2018-07-17T10:16:38Z</time>
      </trkpt>
      <trkpt lat="45.88225" lon="4.87572">
        <ele>296</ele>
        <time>2018-07-17T10:16:39Z</time>
      </trkpt>
      <trkpt lat="45.88225" lon="4.87564">
        <ele>296</ele>
        <time>2018-07-17T10:16:40Z</time>
      </trkpt>
      <trkpt lat="45.88224" lon="4.87556">
        <ele>296</ele>
        <time>2018-07-17T10:16:41Z</time>
      </trkpt>
      <trkpt lat="45.88223" lon="4.87548">
        <ele>296</ele>
        <time>2018-07-17T10:16:42Z</time>
      </trkpt>
      <trkpt lat="45.88222" lon="4.87539">
        <ele>296</ele>
        <time>2018-07-17T10:16:43Z</time>
      </trkpt>
      <trkpt lat="45.88222" lon="4.8753">
        <ele>296</ele>
        <time>2018-07-17T10:16:44Z</time>
      </trkpt>
      <trkpt lat="45.88222" lon="4.87522">
        <ele>296</ele>
        <time>2018-07-17T10:16:45Z</time>
      </trkpt>
      <trkpt lat="45.8822" lon="4.87514">
        <ele>297</ele>
        <time>2018-07-17T10:16:46Z</time>
      </trkpt>
      <trkpt lat="45.88222" lon="4.87506">
        <ele>297</ele>
        <time>2018-07-17T10:16:47Z</time>
      </trkpt>
      <trkpt lat="45.88221" lon="4.87497">
        <ele>297</ele>
        <time>2018-07-17T10:16:48Z</time>
      </trkpt>
      <trkpt lat="45.88219" lon="4.87487">
        <ele>297</ele>
        <time>2018-07-17T10:16:49Z</time>
      </trkpt>
      <trkpt lat="45.88219" lon="4.87479">
        <ele>297</ele>
        <time>2018-07-17T10:16:50Z</time>
      </trkpt>
      <trkpt lat="45.8822" lon="4.8747">
        <ele>297</ele>
        <time>2018-07-17T10:16:51Z</time>
      </trkpt>
      <trkpt lat="45.88219" lon="4.87461">
        <ele>297</ele>
        <time>2018-07-17T10:16:52Z</time>
      </trkpt>
      <trkpt lat="45.88219" lon="4.8745">
        <ele>297</ele>
        <time>2018-07-17T10:16:53Z</time>
      </trkpt>
      <trkpt lat="45.8822" lon="4.87441">
        <ele>297</ele>
        <time>2018-07-17T10:16:54Z</time>
      </trkpt>
      <trkpt lat="45.8822" lon="4.87432">
        <ele>297</ele>
        <time>2018-07-17T10:16:55Z</time>
      </trkpt>
      <trkpt lat="45.8822" lon="4.87423">
        <ele>297</ele>
        <time>2018-07-17T10:16:56Z</time>
      </trkpt>
      <trkpt lat="45.88219" lon="4.87414">
        <ele>297</ele>
        <time>2018-07-17T10:16:57Z</time>
      </trkpt>
      <trkpt lat="45.88219" lon="4.87405">
        <ele>297</ele>
        <time>2018-07-17T10:16:58Z</time>
      </trkpt>
      <trkpt lat="45.88218" lon="4.87396">
        <ele>297</ele>
        <time>2018-07-17T10:16:59Z</time>
      </trkpt>
      <trkpt lat="45.88218" lon="4.87389">
        <ele>297</ele>
        <time>2018-07-17T10:17:00Z</time>
      </trkpt>
      <trkpt lat="45.88218" lon="4.87381">
        <ele>297</ele>
        <time>2018-07-17T10:17:01Z</time>
      </trkpt>
      <trkpt lat="45.88218" lon="4.87374">
        <ele>297</ele>
        <time>2018-07-17T10:17:02Z</time>
      </trkpt>
      <trkpt lat="45.88221" lon="4.87368">
        <ele>297</ele>
        <time>2018-07-17T10:17:03Z</time>
      </trkpt>
      <trkpt lat="45.88221" lon="4.8736">
        <ele>297</ele>
        <time>2018-07-17T10:17:04Z</time>
      </trkpt>
      <trkpt lat="45.88223" lon="4.87353">
        <ele>297</ele>
        <time>2018-07-17T10:17:05Z</time>
      </trkpt>
      <trkpt lat="45.88221" lon="4.87344">
        <ele>297</ele>
        <time>2018-07-17T10:17:06Z</time>
      </trkpt>
      <trkpt lat="45.88219" lon="4.87336">
        <ele>297</ele>
        <time>2018-07-17T10:17:07Z</time>
      </trkpt>
      <trkpt lat="45.88218" lon="4.87329">
        <ele>297</ele>
        <time>2018-07-17T10:17:08Z</time>
      </trkpt>
      <trkpt lat="45.88217" lon="4.8732">
        <ele>297</ele>
        <time>2018-07-17T10:17:09Z</time>
      </trkpt>
      <trkpt lat="45.88215" lon="4.87312">
        <ele>297</ele>
        <time>2018-07-17T10:17:10Z</time>
      </trkpt>
      <trkpt lat="45.88218" lon="4.87305">
        <ele>297</ele>
        <time>2018-07-17T10:17:11Z</time>
      </trkpt>
      <trkpt lat="45.88217" lon="4.87296">
        <ele>297</ele>
        <time>2018-07-17T10:17:12Z</time>
      </trkpt>
      <trkpt lat="45.88217" lon="4.87288">
        <ele>297</ele>
        <time>2018-07-17T10:17:13Z</time>
      </trkpt>
      <trkpt lat="45.88217" lon="4.8728">
        <ele>297</ele>
        <time>2018-07-17T10:17:14Z</time>
      </trkpt>
      <trkpt lat="45.88216" lon="4.87272">
        <ele>297</ele>
        <time>2018-07-17T10:17:15Z</time>
      </trkpt>
      <trkpt lat="45.88216" lon="4.87263">
        <ele>297</ele>
        <time>2018-07-17T10:17:16Z</time>
      </trkpt>
      <trkpt lat="45.88216" lon="4.87255">
        <ele>297</ele>
        <time>2018-07-17T10:17:17Z</time>
      </trkpt>
      <trkpt lat="45.88215" lon="4.87249">
        <ele>298</ele>
        <time>2018-07-17T10:17:18Z</time>
      </trkpt>
      <trkpt lat="45.88216" lon="4.8724">
        <ele>298</ele>
        <time>2018-07-17T10:17:19Z</time>
      </trkpt>
      <trkpt lat="45.88215" lon="4.87233">
        <ele>298</ele>
        <time>2018-07-17T10:17:20Z</time>
      </trkpt>
      <trkpt lat="45.88212" lon="4.87224">
        <ele>298</ele>
        <time>2018-07-17T10:17:21Z</time>
      </trkpt>
      <trkpt lat="45.88212" lon="4.87215">
        <ele>298</ele>
        <time>2018-07-17T10:17:22Z</time>
      </trkpt>
      <trkpt lat="45.88212" lon="4.87206">
        <ele>298</ele>
        <time>2018-07-17T10:17:23Z</time>
      </trkpt>
      <trkpt lat="45.88211" lon="4.87196">
        <ele>298</ele>
        <time>2018-07-17T10:17:24Z</time>
      </trkpt>
      <trkpt lat="45.88214" lon="4.8719">
        <ele>298</ele>
        <time>2018-07-17T10:17:25Z</time>
      </trkpt>
      <trkpt lat="45.88212" lon="4.87181">
        <ele>298</ele>
        <time>2018-07-17T10:17:26Z</time>
      </trkpt>
      <trkpt lat="45.88211" lon="4.87173">
        <ele>298</ele>
        <time>2018-07-17T10:17:27Z</time>
      </trkpt>
      <trkpt lat="45.88211" lon="4.87165">
        <ele>298</ele>
        <time>2018-07-17T10:17:28Z</time>
      </trkpt>
      <trkpt lat="45.88212" lon="4.87158">
        <ele>298</ele>
        <time>2018-07-17T10:17:29Z</time>
      </trkpt>
      <trkpt lat="45.88211" lon="4.8715">
        <ele>298</ele>
        <time>2018-07-17T10:17:30Z</time>
      </trkpt>
      <trkpt lat="45.88211" lon="4.8714">
        <ele>298</ele>
        <time>2018-07-17T10:17:31Z</time>
      </trkpt>
      <trkpt lat="45.8821" lon="4.87131">
        <ele>298</ele>
        <time>2018-07-17T10:17:32Z</time>
      </trkpt>
      <trkpt lat="45.88209" lon="4.87122">
        <ele>299</ele>
        <time>2018-07-17T10:17:33Z</time>
      </trkpt>
      <trkpt lat="45.88208" lon="4.87113">
        <ele>299</ele>
        <time>2018-07-17T10:17:34Z</time>
      </trkpt>
      <trkpt lat="45.88209" lon="4.87105">
        <ele>299</ele>
        <time>2018-07-17T10:17:35Z</time>
      </trkpt>
      <trkpt lat="45.88207" lon="4.87097">
        <ele>299</ele>
        <time>2018-07-17T10:17:36Z</time>
      </trkpt>
      <trkpt lat="45.88207" lon="4.8709">
        <ele>299</ele>
        <time>2018-07-17T10:17:37Z</time>
      </trkpt>
      <trkpt lat="45.88203" lon="4.87082">
        <ele>299</ele>
        <time>2018-07-17T10:17:38Z</time>
      </trkpt>
      <trkpt lat="45.88202" lon="4.87074">
        <ele>299</ele>
        <time>2018-07-17T10:17:39Z</time>
      </trkpt>
      <trkpt lat="45.882" lon="4.87065">
        <ele>299</ele>
        <time>2018-07-17T10:17:40Z</time>
      </trkpt>
      <trkpt lat="45.88199" lon="4.87057">
        <ele>299</ele>
        <time>2018-07-17T10:17:41Z</time>
      </trkpt>
      <trkpt lat="45.88198" lon="4.87048">
        <ele>299</ele>
        <time>2018-07-17T10:17:42Z</time>
      </trkpt>
      <trkpt lat="45.88196" lon="4.87038">
        <ele>299</ele>
        <time>2018-07-17T10:17:43Z</time>
      </trkpt>
      <trkpt lat="45.88197" lon="4.8703">
        <ele>299</ele>
        <time>2018-07-17T10:17:44Z</time>
      </trkpt>
      <trkpt lat="45.88198" lon="4.87023">
        <ele>299</ele>
        <time>2018-07-17T10:17:45Z</time>
      </trkpt>
      <trkpt lat="45.88198" lon="4.87015">
        <ele>299</ele>
        <time>2018-07-17T10:17:46Z</time>
      </trkpt>
      <trkpt lat="45.88198" lon="4.87007">
        <ele>299</ele>
        <time>2018-07-17T10:17:47Z</time>
      </trkpt>
      <trkpt lat="45.88198" lon="4.86999">
        <ele>299</ele>
        <time>2018-07-17T10:17:48Z</time>
      </trkpt>
      <trkpt lat="45.88195" lon="4.86991">
        <ele>299</ele>
        <time>2018-07-17T10:17:49Z</time>
      </trkpt>
      <trkpt lat="45.88196" lon="4.86985">
        <ele>299</ele>
        <time>2018-07-17T10:17:50Z</time>
      </trkpt>
      <trkpt lat="45.88195" lon="4.86977">
        <ele>299</ele>
        <time>2018-07-17T10:17:51Z</time>
      </trkpt>
      <trkpt lat="45.88195" lon="4.8697">
        <ele>299</ele>
        <time>2018-07-17T10:17:52Z</time>
      </trkpt>
      <trkpt lat="45.88194" lon="4.86962">
        <ele>299</ele>
        <time>2018-07-17T10:17:53Z</time>
      </trkpt>
      <trkpt lat="45.88194" lon="4.86954">
        <ele>299</ele>
        <time>2018-07-17T10:17:54Z</time>
      </trkpt>
      <trkpt lat="45.88194" lon="4.86947">
        <ele>300</ele>
        <time>2018-07-17T10:17:55Z</time>
      </trkpt>
      <trkpt lat="45.88193" lon="4.86939">
        <ele>300</ele>
        <time>2018-07-17T10:17:56Z</time>
      </trkpt>
      <trkpt lat="45.88193" lon="4.86932">
        <ele>300</ele>
        <time>2018-07-17T10:17:57Z</time>
      </trkpt>
      <trkpt lat="45.88192" lon="4.86925">
        <ele>300</ele>
        <time>2018-07-17T10:17:58Z</time>
      </trkpt>
      <trkpt lat="45.88191" lon="4.86918">
        <ele>300</ele>
        <time>2018-07-17T10:17:59Z</time>
      </trkpt>
      <trkpt lat="45.88191" lon="4.86905">
        <ele>300</ele>
        <time>2018-07-17T10:18:01Z</time>
      </trkpt>
      <trkpt lat="45.88191" lon="4.86899">
        <ele>300</ele>
        <time>2018-07-17T10:18:02Z</time>
      </trkpt>
      <trkpt lat="45.88193" lon="4.86889">
        <ele>299</ele>
        <time>2018-07-17T10:18:04Z</time>
      </trkpt>
      <trkpt lat="45.88192" lon="4.86881">
        <ele>299</ele>
        <time>2018-07-17T10:18:05Z</time>
      </trkpt>
      <trkpt lat="45.88196" lon="4.86874">
        <ele>299</ele>
        <time>2018-07-17T10:18:07Z</time>
      </trkpt>
      <trkpt lat="45.88195" lon="4.86867">
        <ele>299</ele>
        <time>2018-07-17T10:18:08Z</time>
      </trkpt>
      <trkpt lat="45.88192" lon="4.86858">
        <ele>299</ele>
        <time>2018-07-17T10:18:09Z</time>
      </trkpt>
      <trkpt lat="45.88192" lon="4.86851">
        <ele>299</ele>
        <time>2018-07-17T10:18:10Z</time>
      </trkpt>
      <trkpt lat="45.88194" lon="4.86844">
        <ele>299</ele>
        <time>2018-07-17T10:18:11Z</time>
      </trkpt>
      <trkpt lat="45.88191" lon="4.86837">
        <ele>299</ele>
        <time>2018-07-17T10:18:12Z</time>
      </trkpt>
      <trkpt lat="45.88191" lon="4.86829">
        <ele>299</ele>
        <time>2018-07-17T10:18:13Z</time>
      </trkpt>
      <trkpt lat="45.8819" lon="4.86822">
        <ele>299</ele>
        <time>2018-07-17T10:18:14Z</time>
      </trkpt>
      <trkpt lat="45.8819" lon="4.86814">
        <ele>299</ele>
        <time>2018-07-17T10:18:15Z</time>
      </trkpt>
      <trkpt lat="45.8819" lon="4.86806">
        <ele>299</ele>
        <time>2018-07-17T10:18:16Z</time>
      </trkpt>
      <trkpt lat="45.88188" lon="4.86797">
        <ele>299</ele>
        <time>2018-07-17T10:18:17Z</time>
      </trkpt>
      <trkpt lat="45.88187" lon="4.86788">
        <ele>299</ele>
        <time>2018-07-17T10:18:18Z</time>
      </trkpt>
      <trkpt lat="45.88185" lon="4.86781">
        <ele>299</ele>
        <time>2018-07-17T10:18:19Z</time>
      </trkpt>
      <trkpt lat="45.88184" lon="4.86771">
        <ele>299</ele>
        <time>2018-07-17T10:18:20Z</time>
      </trkpt>
      <trkpt lat="45.88184" lon="4.86763">
        <ele>299</ele>
        <time>2018-07-17T10:18:21Z</time>
      </trkpt>
      <trkpt lat="45.88183" lon="4.86755">
        <ele>299</ele>
        <time>2018-07-17T10:18:22Z</time>
      </trkpt>
      <trkpt lat="45.8818" lon="4.86746">
        <ele>299</ele>
        <time>2018-07-17T10:18:23Z</time>
      </trkpt>
      <trkpt lat="45.88178" lon="4.86738">
        <ele>299</ele>
        <time>2018-07-17T10:18:24Z</time>
      </trkpt>
      <trkpt lat="45.88177" lon="4.8673">
        <ele>299</ele>
        <time>2018-07-17T10:18:25Z</time>
      </trkpt>
      <trkpt lat="45.88174" lon="4.86721">
        <ele>299</ele>
        <time>2018-07-17T10:18:26Z</time>
      </trkpt>
      <trkpt lat="45.88172" lon="4.86713">
        <ele>299</ele>
        <time>2018-07-17T10:18:27Z</time>
      </trkpt>
      <trkpt lat="45.88172" lon="4.86704">
        <ele>299</ele>
        <time>2018-07-17T10:18:28Z</time>
      </trkpt>
      <trkpt lat="45.8817" lon="4.86696">
        <ele>299</ele>
        <time>2018-07-17T10:18:29Z</time>
      </trkpt>
      <trkpt lat="45.88167" lon="4.86686">
        <ele>299</ele>
        <time>2018-07-17T10:18:30Z</time>
      </trkpt>
      <trkpt lat="45.88164" lon="4.86678">
        <ele>299</ele>
        <time>2018-07-17T10:18:31Z</time>
      </trkpt>
      <trkpt lat="45.88162" lon="4.8667">
        <ele>299</ele>
        <time>2018-07-17T10:18:32Z</time>
      </trkpt>
      <trkpt lat="45.88159" lon="4.86661">
        <ele>299</ele>
        <time>2018-07-17T10:18:33Z</time>
      </trkpt>
      <trkpt lat="45.88157" lon="4.86652">
        <ele>300</ele>
        <time>2018-07-17T10:18:34Z</time>
      </trkpt>
      <trkpt lat="45.88155" lon="4.86644">
        <ele>300</ele>
        <time>2018-07-17T10:18:35Z</time>
      </trkpt>
      <trkpt lat="45.88153" lon="4.86634">
        <ele>300</ele>
        <time>2018-07-17T10:18:36Z</time>
      </trkpt>
      <trkpt lat="45.88151" lon="4.86625">
        <ele>300</ele>
        <time>2018-07-17T10:18:37Z</time>
      </trkpt>
      <trkpt lat="45.88149" lon="4.86616">
        <ele>300</ele>
        <time>2018-07-17T10:18:38Z</time>
      </trkpt>
      <trkpt lat="45.88145" lon="4.86607">
        <ele>300</ele>
        <time>2018-07-17T10:18:39Z</time>
      </trkpt>
      <trkpt lat="45.88143" lon="4.86598">
        <ele>300</ele>
        <time>2018-07-17T10:18:40Z</time>
      </trkpt>
      <trkpt lat="45.88141" lon="4.8659">
        <ele>300</ele>
        <time>2018-07-17T10:18:41Z</time>
      </trkpt>
      <trkpt lat="45.88139" lon="4.86581">
        <ele>301</ele>
        <time>2018-07-17T10:18:42Z</time>
      </trkpt>
      <trkpt lat="45.88139" lon="4.86573">
        <ele>301</ele>
        <time>2018-07-17T10:18:43Z</time>
      </trkpt>
      <trkpt lat="45.88138" lon="4.86565">
        <ele>301</ele>
        <time>2018-07-17T10:18:44Z</time>
      </trkpt>
      <trkpt lat="45.88137" lon="4.86557">
        <ele>301</ele>
        <time>2018-07-17T10:18:45Z</time>
      </trkpt>
      <trkpt lat="45.88137" lon="4.86549">
        <ele>301</ele>
        <time>2018-07-17T10:18:46Z</time>
      </trkpt>
      <trkpt lat="45.88134" lon="4.8654">
        <ele>301</ele>
        <time>2018-07-17T10:18:47Z</time>
      </trkpt>
      <trkpt lat="45.88133" lon="4.86533">
        <ele>301</ele>
        <time>2018-07-17T10:18:48Z</time>
      </trkpt>
      <trkpt lat="45.88132" lon="4.86524">
        <ele>301</ele>
        <time>2018-07-17T10:18:49Z</time>
      </trkpt>
      <trkpt lat="45.88131" lon="4.86516">
        <ele>301</ele>
        <time>2018-07-17T10:18:50Z</time>
      </trkpt>
      <trkpt lat="45.88131" lon="4.86507">
        <ele>301</ele>
        <time>2018-07-17T10:18:51Z</time>
      </trkpt>
      <trkpt lat="45.88129" lon="4.86499">
        <ele>302</ele>
        <time>2018-07-17T10:18:52Z</time>
      </trkpt>
      <trkpt lat="45.88129" lon="4.8649">
        <ele>302</ele>
        <time>2018-07-17T10:18:53Z</time>
      </trkpt>
      <trkpt lat="45.88128" lon="4.86483">
        <ele>302</ele>
        <time>2018-07-17T10:18:54Z</time>
      </trkpt>
      <trkpt lat="45.88128" lon="4.86475">
        <ele>302</ele>
        <time>2018-07-17T10:18:55Z</time>
      </trkpt>
      <trkpt lat="45.88127" lon="4.86469">
        <ele>302</ele>
        <time>2018-07-17T10:18:56Z</time>
      </trkpt>
      <trkpt lat="45.88126" lon="4.86462">
        <ele>302</ele>
        <time>2018-07-17T10:18:57Z</time>
      </trkpt>
      <trkpt lat="45.88125" lon="4.86455">
        <ele>302</ele>
        <time>2018-07-17T10:18:58Z</time>
      </trkpt>
      <trkpt lat="45.88123" lon="4.86444">
        <ele>302</ele>
        <time>2018-07-17T10:19:00Z</time>
      </trkpt>
      <trkpt lat="45.88122" lon="4.86437">
        <ele>302</ele>
        <time>2018-07-17T10:19:01Z</time>
      </trkpt>
      <trkpt lat="45.88121" lon="4.86426">
        <ele>302</ele>
        <time>2018-07-17T10:19:03Z</time>
      </trkpt>
      <trkpt lat="45.88123" lon="4.8642">
        <ele>302</ele>
        <time>2018-07-17T10:19:04Z</time>
      </trkpt>
      <trkpt lat="45.8812" lon="4.86414">
        <ele>304</ele>
        <time>2018-07-17T10:19:05Z</time>
      </trkpt>
      <trkpt lat="45.88118" lon="4.86407">
        <ele>304</ele>
        <time>2018-07-17T10:19:06Z</time>
      </trkpt>
      <trkpt lat="45.88116" lon="4.86396">
        <ele>304</ele>
        <time>2018-07-17T10:19:08Z</time>
      </trkpt>
      <trkpt lat="45.88115" lon="4.86389">
        <ele>304</ele>
        <time>2018-07-17T10:19:09Z</time>
      </trkpt>
      <trkpt lat="45.88114" lon="4.86382">
        <ele>304</ele>
        <time>2018-07-17T10:19:10Z</time>
      </trkpt>
      <trkpt lat="45.88113" lon="4.86375">
        <ele>304</ele>
        <time>2018-07-17T10:19:11Z</time>
      </trkpt>
      <trkpt lat="45.88111" lon="4.86369">
        <ele>304</ele>
        <time>2018-07-17T10:19:12Z</time>
      </trkpt>
      <trkpt lat="45.88111" lon="4.86361">
        <ele>305</ele>
        <time>2018-07-17T10:19:13Z</time>
      </trkpt>
      <trkpt lat="45.88108" lon="4.86351">
        <ele>305</ele>
        <time>2018-07-17T10:19:15Z</time>
      </trkpt>
      <trkpt lat="45.88107" lon="4.86345">
        <ele>305</ele>
        <time>2018-07-17T10:19:16Z</time>
      </trkpt>
      <trkpt lat="45.88105" lon="4.86332">
        <ele>306</ele>
        <time>2018-07-17T10:19:18Z</time>
      </trkpt>
      <trkpt lat="45.88104" lon="4.86326">
        <ele>306</ele>
        <time>2018-07-17T10:19:19Z</time>
      </trkpt>
      <trkpt lat="45.88101" lon="4.86315">
        <ele>306</ele>
        <time>2018-07-17T10:19:21Z</time>
      </trkpt>
      <trkpt lat="45.88101" lon="4.8631">
        <ele>306</ele>
        <time>2018-07-17T10:19:22Z</time>
      </trkpt>
      <trkpt lat="45.88098" lon="4.86302">
        <ele>306</ele>
        <time>2018-07-17T10:19:23Z</time>
      </trkpt>
      <trkpt lat="45.88097" lon="4.86295">
        <ele>306</ele>
        <time>2018-07-17T10:19:24Z</time>
      </trkpt>
      <trkpt lat="45.88097" lon="4.86289">
        <ele>306</ele>
        <time>2018-07-17T10:19:25Z</time>
      </trkpt>
      <trkpt lat="45.88095" lon="4.86282">
        <ele>306</ele>
        <time>2018-07-17T10:19:26Z</time>
      </trkpt>
      <trkpt lat="45.88094" lon="4.86276">
        <ele>306</ele>
        <time>2018-07-17T10:19:27Z</time>
      </trkpt>
      <trkpt lat="45.88093" lon="4.86269">
        <ele>306</ele>
        <time>2018-07-17T10:19:28Z</time>
      </trkpt>
      <trkpt lat="45.88092" lon="4.86263">
        <ele>306</ele>
        <time>2018-07-17T10:19:29Z</time>
      </trkpt>
      <trkpt lat="45.88091" lon="4.86255">
        <ele>306</ele>
        <time>2018-07-17T10:19:30Z</time>
      </trkpt>
      <trkpt lat="45.88088" lon="4.86249">
        <ele>306</ele>
        <time>2018-07-17T10:19:31Z</time>
      </trkpt>
      <trkpt lat="45.88086" lon="4.86242">
        <ele>306</ele>
        <time>2018-07-17T10:19:32Z</time>
      </trkpt>
      <trkpt lat="45.88083" lon="4.86236">
        <ele>306</ele>
        <time>2018-07-17T10:19:33Z</time>
      </trkpt>
      <trkpt lat="45.8808" lon="4.86229">
        <ele>306</ele>
        <time>2018-07-17T10:19:34Z</time>
      </trkpt>
      <trkpt lat="45.88078" lon="4.86223">
        <ele>306</ele>
        <time>2018-07-17T10:19:35Z</time>
      </trkpt>
      <trkpt lat="45.88076" lon="4.86217">
        <ele>306</ele>
        <time>2018-07-17T10:19:36Z</time>
      </trkpt>
      <trkpt lat="45.88074" lon="4.8621">
        <ele>306</ele>
        <time>2018-07-17T10:19:37Z</time>
      </trkpt>
      <trkpt lat="45.88071" lon="4.86203">
        <ele>306</ele>
        <time>2018-07-17T10:19:38Z</time>
      </trkpt>
      <trkpt lat="45.88069" lon="4.86197">
        <ele>306</ele>
        <time>2018-07-17T10:19:39Z</time>
      </trkpt>
      <trkpt lat="45.88066" lon="4.8619">
        <ele>306</ele>
        <time>2018-07-17T10:19:40Z</time>
      </trkpt>
      <trkpt lat="45.88064" lon="4.86183">
        <ele>306</ele>
        <time>2018-07-17T10:19:41Z</time>
      </trkpt>
      <trkpt lat="45.8806" lon="4.86177">
        <ele>306</ele>
        <time>2018-07-17T10:19:42Z</time>
      </trkpt>
      <trkpt lat="45.88058" lon="4.86172">
        <ele>306</ele>
        <time>2018-07-17T10:19:43Z</time>
      </trkpt>
      <trkpt lat="45.88055" lon="4.86164">
        <ele>304</ele>
        <time>2018-07-17T10:19:44Z</time>
      </trkpt>
      <trkpt lat="45.88054" lon="4.86162">
        <ele>304</ele>
        <time>2018-07-17T10:19:45Z</time>
      </trkpt>
      <trkpt lat="45.88051" lon="4.86151">
        <ele>304</ele>
        <time>2018-07-17T10:19:46Z</time>
      </trkpt>
      <trkpt lat="45.88051" lon="4.86143">
        <ele>304</ele>
        <time>2018-07-17T10:19:47Z</time>
      </trkpt>
      <trkpt lat="45.88048" lon="4.86135">
        <ele>304</ele>
        <time>2018-07-17T10:19:48Z</time>
      </trkpt>
      <trkpt lat="45.88047" lon="4.86128">
        <ele>304</ele>
        <time>2018-07-17T10:19:49Z</time>
      </trkpt>
      <trkpt lat="45.88044" lon="4.86121">
        <ele>304</ele>
        <time>2018-07-17T10:19:50Z</time>
      </trkpt>
      <trkpt lat="45.88042" lon="4.86112">
        <ele>304</ele>
        <time>2018-07-17T10:19:51Z</time>
      </trkpt>
      <trkpt lat="45.8804" lon="4.86104">
        <ele>304</ele>
        <time>2018-07-17T10:19:52Z</time>
      </trkpt>
      <trkpt lat="45.88038" lon="4.86097">
        <ele>303</ele>
        <time>2018-07-17T10:19:53Z</time>
      </trkpt>
      <trkpt lat="45.88035" lon="4.86089">
        <ele>303</ele>
        <time>2018-07-17T10:19:54Z</time>
      </trkpt>
      <trkpt lat="45.88033" lon="4.86079">
        <ele>301</ele>
        <time>2018-07-17T10:19:55Z</time>
      </trkpt>
      <trkpt lat="45.88032" lon="4.8607">
        <ele>301</ele>
        <time>2018-07-17T10:19:56Z</time>
      </trkpt>
      <trkpt lat="45.8803" lon="4.86061">
        <ele>301</ele>
        <time>2018-07-17T10:19:57Z</time>
      </trkpt>
      <trkpt lat="45.8803" lon="4.86052">
        <ele>301</ele>
        <time>2018-07-17T10:19:58Z</time>
      </trkpt>
      <trkpt lat="45.88028" lon="4.86043">
        <ele>301</ele>
        <time>2018-07-17T10:19:59Z</time>
      </trkpt>
      <trkpt lat="45.88027" lon="4.86035">
        <ele>301</ele>
        <time>2018-07-17T10:20:00Z</time>
      </trkpt>
      <trkpt lat="45.88025" lon="4.86028">
        <ele>300</ele>
        <time>2018-07-17T10:20:01Z</time>
      </trkpt>
      <trkpt lat="45.88022" lon="4.8602">
        <ele>300</ele>
        <time>2018-07-17T10:20:02Z</time>
      </trkpt>
      <trkpt lat="45.8802" lon="4.86013">
        <ele>300</ele>
        <time>2018-07-17T10:20:03Z</time>
      </trkpt>
      <trkpt lat="45.88019" lon="4.86007">
        <ele>300</ele>
        <time>2018-07-17T10:20:04Z</time>
      </trkpt>
      <trkpt lat="45.88017" lon="4.85999">
        <ele>298</ele>
        <time>2018-07-17T10:20:06Z</time>
      </trkpt>
      <trkpt lat="45.88008" lon="4.86">
        <ele>300</ele>
        <time>2018-07-17T10:20:07Z</time>
      </trkpt>
      <trkpt lat="45.88002" lon="4.86002">
        <ele>300</ele>
        <time>2018-07-17T10:20:08Z</time>
      </trkpt>
      <trkpt lat="45.87997" lon="4.86002">
        <ele>300</ele>
        <time>2018-07-17T10:20:09Z</time>
      </trkpt>
      <trkpt lat="45.87992" lon="4.86005">
        <ele>300</ele>
        <time>2018-07-17T10:20:10Z</time>
      </trkpt>
      <trkpt lat="45.87985" lon="4.86007">
        <ele>300</ele>
        <time>2018-07-17T10:20:11Z</time>
      </trkpt>
      <trkpt lat="45.87979" lon="4.86007">
        <ele>299</ele>
        <time>2018-07-17T10:20:12Z</time>
      </trkpt>
      <trkpt lat="45.87973" lon="4.86009">
        <ele>299</ele>
        <time>2018-07-17T10:20:13Z</time>
      </trkpt>
      <trkpt lat="45.87967" lon="4.86008">
        <ele>299</ele>
        <time>2018-07-17T10:20:14Z</time>
      </trkpt>
      <trkpt lat="45.87962" lon="4.86007">
        <ele>299</ele>
        <time>2018-07-17T10:20:15Z</time>
      </trkpt>
      <trkpt lat="45.87956" lon="4.86001">
        <ele>299</ele>
        <time>2018-07-17T10:20:16Z</time>
      </trkpt>
      <trkpt lat="45.87953" lon="4.85993">
        <ele>295</ele>
        <time>2018-07-17T10:20:17Z</time>
      </trkpt>
      <trkpt lat="45.87945" lon="4.85986">
        <ele>295</ele>
        <time>2018-07-17T10:20:18Z</time>
      </trkpt>
      <trkpt lat="45.87941" lon="4.8598">
        <ele>295</ele>
        <time>2018-07-17T10:20:19Z</time>
      </trkpt>
      <trkpt lat="45.87937" lon="4.85976">
        <ele>294</ele>
        <time>2018-07-17T10:20:20Z</time>
      </trkpt>
      <trkpt lat="45.8793" lon="4.85973">
        <ele>294</ele>
        <time>2018-07-17T10:20:21Z</time>
      </trkpt>
      <trkpt lat="45.87927" lon="4.85973">
        <ele>294</ele>
        <time>2018-07-17T10:20:22Z</time>
      </trkpt>
      <trkpt lat="45.8792" lon="4.85974">
        <ele>294</ele>
        <time>2018-07-17T10:20:23Z</time>
      </trkpt>
      <trkpt lat="45.87914" lon="4.85978">
        <ele>291</ele>
        <time>2018-07-17T10:20:24Z</time>
      </trkpt>
      <trkpt lat="45.87907" lon="4.8598">
        <ele>291</ele>
        <time>2018-07-17T10:20:25Z</time>
      </trkpt>
      <trkpt lat="45.87901" lon="4.85983">
        <ele>291</ele>
        <time>2018-07-17T10:20:26Z</time>
      </trkpt>
      <trkpt lat="45.87894" lon="4.85984">
        <ele>291</ele>
        <time>2018-07-17T10:20:27Z</time>
      </trkpt>
      <trkpt lat="45.87886" lon="4.85986">
        <ele>290</ele>
        <time>2018-07-17T10:20:28Z</time>
      </trkpt>
      <trkpt lat="45.87879" lon="4.85989">
        <ele>290</ele>
        <time>2018-07-17T10:20:29Z</time>
      </trkpt>
      <trkpt lat="45.87871" lon="4.85991">
        <ele>289</ele>
        <time>2018-07-17T10:20:30Z</time>
      </trkpt>
      <trkpt lat="45.87863" lon="4.85985">
        <ele>289</ele>
        <time>2018-07-17T10:20:31Z</time>
      </trkpt>
      <trkpt lat="45.87855" lon="4.8598">
        <ele>289</ele>
        <time>2018-07-17T10:20:32Z</time>
      </trkpt>
      <trkpt lat="45.8785" lon="4.85972">
        <ele>288</ele>
        <time>2018-07-17T10:20:33Z</time>
      </trkpt>
      <trkpt lat="45.87846" lon="4.85963">
        <ele>288</ele>
        <time>2018-07-17T10:20:34Z</time>
      </trkpt>
      <trkpt lat="45.87842" lon="4.85954">
        <ele>288</ele>
        <time>2018-07-17T10:20:35Z</time>
      </trkpt>
      <trkpt lat="45.87839" lon="4.85944">
        <ele>287</ele>
        <time>2018-07-17T10:20:36Z</time>
      </trkpt>
      <trkpt lat="45.87836" lon="4.85933">
        <ele>287</ele>
        <time>2018-07-17T10:20:37Z</time>
      </trkpt>
      <trkpt lat="45.8784" lon="4.85923">
        <ele>286</ele>
        <time>2018-07-17T10:20:38Z</time>
      </trkpt>
      <trkpt lat="45.8784" lon="4.85912">
        <ele>285</ele>
        <time>2018-07-17T10:20:39Z</time>
      </trkpt>
      <trkpt lat="45.87844" lon="4.85901">
        <ele>285</ele>
        <time>2018-07-17T10:20:40Z</time>
      </trkpt>
      <trkpt lat="45.87849" lon="4.85891">
        <ele>285</ele>
        <time>2018-07-17T10:20:41Z</time>
      </trkpt>
      <trkpt lat="45.87856" lon="4.85883">
        <ele>285</ele>
        <time>2018-07-17T10:20:42Z</time>
      </trkpt>
      <trkpt lat="45.87862" lon="4.85876">
        <ele>285</ele>
        <time>2018-07-17T10:20:43Z</time>
      </trkpt>
      <trkpt lat="45.87868" lon="4.85872">
        <ele>284</ele>
        <time>2018-07-17T10:20:44Z</time>
      </trkpt>
      <trkpt lat="45.87874" lon="4.85867">
        <ele>284</ele>
        <time>2018-07-17T10:20:45Z</time>
      </trkpt>
      <trkpt lat="45.8788" lon="4.85861">
        <ele>284</ele>
        <time>2018-07-17T10:20:46Z</time>
      </trkpt>
      <trkpt lat="45.87887" lon="4.85855">
        <ele>284</ele>
        <time>2018-07-17T10:20:47Z</time>
      </trkpt>
      <trkpt lat="45.87893" lon="4.85848">
        <ele>284</ele>
        <time>2018-07-17T10:20:48Z</time>
      </trkpt>
      <trkpt lat="45.879" lon="4.85841">
        <ele>283</ele>
        <time>2018-07-17T10:20:49Z</time>
      </trkpt>
      <trkpt lat="45.87907" lon="4.85834">
        <ele>283</ele>
        <time>2018-07-17T10:20:50Z</time>
      </trkpt>
      <trkpt lat="45.87914" lon="4.85825">
        <ele>281</ele>
        <time>2018-07-17T10:20:51Z</time>
      </trkpt>
      <trkpt lat="45.87922" lon="4.8582">
        <ele>281</ele>
        <time>2018-07-17T10:20:52Z</time>
      </trkpt>
      <trkpt lat="45.87928" lon="4.85813">
        <ele>281</ele>
        <time>2018-07-17T10:20:53Z</time>
      </trkpt>
      <trkpt lat="45.87935" lon="4.85805">
        <ele>281</ele>
        <time>2018-07-17T10:20:54Z</time>
      </trkpt>
      <trkpt lat="45.87943" lon="4.85796">
        <ele>280</ele>
        <time>2018-07-17T10:20:55Z</time>
      </trkpt>
      <trkpt lat="45.8795" lon="4.85788">
        <ele>280</ele>
        <time>2018-07-17T10:20:56Z</time>
      </trkpt>
      <trkpt lat="45.87958" lon="4.85778">
        <ele>280</ele>
        <time>2018-07-17T10:20:57Z</time>
      </trkpt>
      <trkpt lat="45.87965" lon="4.85769">
        <ele>280</ele>
        <time>2018-07-17T10:20:58Z</time>
      </trkpt>
      <trkpt lat="45.87972" lon="4.8576">
        <ele>279</ele>
        <time>2018-07-17T10:20:59Z</time>
      </trkpt>
      <trkpt lat="45.87978" lon="4.85752">
        <ele>279</ele>
        <time>2018-07-17T10:21:00Z</time>
      </trkpt>
      <trkpt lat="45.87983" lon="4.85744">
        <ele>276</ele>
        <time>2018-07-17T10:21:01Z</time>
      </trkpt>
      <trkpt lat="45.87987" lon="4.85735">
        <ele>276</ele>
        <time>2018-07-17T10:21:02Z</time>
      </trkpt>
      <trkpt lat="45.87987" lon="4.85724">
        <ele>275</ele>
        <time>2018-07-17T10:21:03Z</time>
      </trkpt>
      <trkpt lat="45.87985" lon="4.85712">
        <ele>274</ele>
        <time>2018-07-17T10:21:04Z</time>
      </trkpt>
      <trkpt lat="45.87983" lon="4.85702">
        <ele>274</ele>
        <time>2018-07-17T10:21:05Z</time>
      </trkpt>
      <trkpt lat="45.8798" lon="4.85689">
        <ele>274</ele>
        <time>2018-07-17T10:21:06Z</time>
      </trkpt>
      <trkpt lat="45.87977" lon="4.85677">
        <ele>273</ele>
        <time>2018-07-17T10:21:07Z</time>
      </trkpt>
      <trkpt lat="45.87975" lon="4.85665">
        <ele>269</ele>
        <time>2018-07-17T10:21:08Z</time>
      </trkpt>
      <trkpt lat="45.87974" lon="4.85651">
        <ele>268</ele>
        <time>2018-07-17T10:21:09Z</time>
      </trkpt>
      <trkpt lat="45.8797" lon="4.85637">
        <ele>267</ele>
        <time>2018-07-17T10:21:10Z</time>
      </trkpt>
      <trkpt lat="45.87968" lon="4.85624">
        <ele>266</ele>
        <time>2018-07-17T10:21:11Z</time>
      </trkpt>
      <trkpt lat="45.87969" lon="4.8561">
        <ele>265</ele>
        <time>2018-07-17T10:21:12Z</time>
      </trkpt>
      <trkpt lat="45.87969" lon="4.85598">
        <ele>265</ele>
        <time>2018-07-17T10:21:13Z</time>
      </trkpt>
      <trkpt lat="45.87974" lon="4.85585">
        <ele>265</ele>
        <time>2018-07-17T10:21:14Z</time>
      </trkpt>
      <trkpt lat="45.87977" lon="4.85575">
        <ele>260</ele>
        <time>2018-07-17T10:21:15Z</time>
      </trkpt>
      <trkpt lat="45.8798" lon="4.85565">
        <ele>259</ele>
        <time>2018-07-17T10:21:16Z</time>
      </trkpt>
      <trkpt lat="45.8799" lon="4.85557">
        <ele>259</ele>
        <time>2018-07-17T10:21:17Z</time>
      </trkpt>
      <trkpt lat="45.88007" lon="4.85556">
        <ele>264</ele>
        <time>2018-07-17T10:21:18Z</time>
      </trkpt>
      <trkpt lat="45.88013" lon="4.85548">
        <ele>263</ele>
        <time>2018-07-17T10:21:19Z</time>
      </trkpt>
      <trkpt lat="45.88026" lon="4.85538">
        <ele>263</ele>
        <time>2018-07-17T10:21:20Z</time>
      </trkpt>
      <trkpt lat="45.88034" lon="4.85529">
        <ele>263</ele>
        <time>2018-07-17T10:21:21Z</time>
      </trkpt>
      <trkpt lat="45.88043" lon="4.85521">
        <ele>263</ele>
        <time>2018-07-17T10:21:22Z</time>
      </trkpt>
      <trkpt lat="45.88052" lon="4.85512">
        <ele>263</ele>
        <time>2018-07-17T10:21:23Z</time>
      </trkpt>
      <trkpt lat="45.88061" lon="4.85502">
        <ele>263</ele>
        <time>2018-07-17T10:21:24Z</time>
      </trkpt>
      <trkpt lat="45.8807" lon="4.85492">
        <ele>256</ele>
        <time>2018-07-17T10:21:25Z</time>
      </trkpt>
      <trkpt lat="45.88078" lon="4.85483">
        <ele>256</ele>
        <time>2018-07-17T10:21:26Z</time>
      </trkpt>
      <trkpt lat="45.88086" lon="4.85477">
        <ele>257</ele>
        <time>2018-07-17T10:21:27Z</time>
      </trkpt>
      <trkpt lat="45.88095" lon="4.85469">
        <ele>256</ele>
        <time>2018-07-17T10:21:28Z</time>
      </trkpt>
      <trkpt lat="45.88105" lon="4.8546">
        <ele>255</ele>
        <time>2018-07-17T10:21:29Z</time>
      </trkpt>
      <trkpt lat="45.88113" lon="4.85452">
        <ele>254</ele>
        <time>2018-07-17T10:21:30Z</time>
      </trkpt>
      <trkpt lat="45.88124" lon="4.85445">
        <ele>254</ele>
        <time>2018-07-17T10:21:31Z</time>
      </trkpt>
      <trkpt lat="45.88135" lon="4.85444">
        <ele>254</ele>
        <time>2018-07-17T10:21:32Z</time>
      </trkpt>
      <trkpt lat="45.88145" lon="4.85439">
        <ele>254</ele>
        <time>2018-07-17T10:21:33Z</time>
      </trkpt>
      <trkpt lat="45.88154" lon="4.85436">
        <ele>253</ele>
        <time>2018-07-17T10:21:34Z</time>
      </trkpt>
      <trkpt lat="45.88163" lon="4.85432">
        <ele>253</ele>
        <time>2018-07-17T10:21:35Z</time>
      </trkpt>
      <trkpt lat="45.8817" lon="4.85427">
        <ele>254</ele>
        <time>2018-07-17T10:21:36Z</time>
      </trkpt>
      <trkpt lat="45.88175" lon="4.85419">
        <ele>253</ele>
        <time>2018-07-17T10:21:37Z</time>
      </trkpt>
      <trkpt lat="45.88177" lon="4.85412">
        <ele>249</ele>
        <time>2018-07-17T10:21:38Z</time>
      </trkpt>
      <trkpt lat="45.8818" lon="4.85402">
        <ele>248</ele>
        <time>2018-07-17T10:21:39Z</time>
      </trkpt>
      <trkpt lat="45.88177" lon="4.85392">
        <ele>247</ele>
        <time>2018-07-17T10:21:40Z</time>
      </trkpt>
      <trkpt lat="45.88172" lon="4.85383">
        <ele>246</ele>
        <time>2018-07-17T10:21:41Z</time>
      </trkpt>
      <trkpt lat="45.88168" lon="4.85376">
        <ele>245</ele>
        <time>2018-07-17T10:21:42Z</time>
      </trkpt>
      <trkpt lat="45.88161" lon="4.85372">
        <ele>240</ele>
        <time>2018-07-17T10:21:43Z</time>
      </trkpt>
      <trkpt lat="45.88153" lon="4.85375">
        <ele>240</ele>
        <time>2018-07-17T10:21:44Z</time>
      </trkpt>
      <trkpt lat="45.88145" lon="4.8538">
        <ele>240</ele>
        <time>2018-07-17T10:21:45Z</time>
      </trkpt>
      <trkpt lat="45.88137" lon="4.85385">
        <ele>240</ele>
        <time>2018-07-17T10:21:46Z</time>
      </trkpt>
      <trkpt lat="45.88129" lon="4.85389">
        <ele>241</ele>
        <time>2018-07-17T10:21:47Z</time>
      </trkpt>
      <trkpt lat="45.88121" lon="4.85393">
        <ele>240</ele>
        <time>2018-07-17T10:21:48Z</time>
      </trkpt>
      <trkpt lat="45.88112" lon="4.85395">
        <ele>240</ele>
        <time>2018-07-17T10:21:49Z</time>
      </trkpt>
      <trkpt lat="45.88104" lon="4.85398">
        <ele>241</ele>
        <time>2018-07-17T10:21:50Z</time>
      </trkpt>
      <trkpt lat="45.88096" lon="4.854">
        <ele>241</ele>
        <time>2018-07-17T10:21:51Z</time>
      </trkpt>
      <trkpt lat="45.88087" lon="4.85401">
        <ele>241</ele>
        <time>2018-07-17T10:21:52Z</time>
      </trkpt>
      <trkpt lat="45.88078" lon="4.85403">
        <ele>240</ele>
        <time>2018-07-17T10:21:53Z</time>
      </trkpt>
      <trkpt lat="45.8807" lon="4.85403">
        <ele>239</ele>
        <time>2018-07-17T10:21:54Z</time>
      </trkpt>
      <trkpt lat="45.8806" lon="4.85402">
        <ele>239</ele>
        <time>2018-07-17T10:21:55Z</time>
      </trkpt>
      <trkpt lat="45.88051" lon="4.85402">
        <ele>238</ele>
        <time>2018-07-17T10:21:56Z</time>
      </trkpt>
      <trkpt lat="45.88042" lon="4.85401">
        <ele>238</ele>
        <time>2018-07-17T10:21:57Z</time>
      </trkpt>
      <trkpt lat="45.88032" lon="4.85401">
        <ele>238</ele>
        <time>2018-07-17T10:21:58Z</time>
      </trkpt>
      <trkpt lat="45.88024" lon="4.85398">
        <ele>238</ele>
        <time>2018-07-17T10:21:59Z</time>
      </trkpt>
      <trkpt lat="45.88015" lon="4.85393">
        <ele>237</ele>
        <time>2018-07-17T10:22:00Z</time>
      </trkpt>
      <trkpt lat="45.88006" lon="4.85385">
        <ele>237</ele>
        <time>2018-07-17T10:22:01Z</time>
      </trkpt>
      <trkpt lat="45.87999" lon="4.85376">
        <ele>236</ele>
        <time>2018-07-17T10:22:02Z</time>
      </trkpt>
      <trkpt lat="45.87993" lon="4.85366">
        <ele>235</ele>
        <time>2018-07-17T10:22:03Z</time>
      </trkpt>
      <trkpt lat="45.87984" lon="4.85357">
        <ele>235</ele>
        <time>2018-07-17T10:22:04Z</time>
      </trkpt>
      <trkpt lat="45.87978" lon="4.85346">
        <ele>234</ele>
        <time>2018-07-17T10:22:05Z</time>
      </trkpt>
      <trkpt lat="45.8797" lon="4.85336">
        <ele>234</ele>
        <time>2018-07-17T10:22:06Z</time>
      </trkpt>
      <trkpt lat="45.87963" lon="4.85325">
        <ele>229</ele>
        <time>2018-07-17T10:22:07Z</time>
      </trkpt>
      <trkpt lat="45.87956" lon="4.85314">
        <ele>229</ele>
        <time>2018-07-17T10:22:08Z</time>
      </trkpt>
      <trkpt lat="45.87949" lon="4.85303">
        <ele>228</ele>
        <time>2018-07-17T10:22:09Z</time>
      </trkpt>
      <trkpt lat="45.87942" lon="4.85292">
        <ele>228</ele>
        <time>2018-07-17T10:22:10Z</time>
      </trkpt>
      <trkpt lat="45.87933" lon="4.85281">
        <ele>228</ele>
        <time>2018-07-17T10:22:11Z</time>
      </trkpt>
      <trkpt lat="45.87925" lon="4.8527">
        <ele>227</ele>
        <time>2018-07-17T10:22:12Z</time>
      </trkpt>
      <trkpt lat="45.87919" lon="4.8526">
        <ele>227</ele>
        <time>2018-07-17T10:22:13Z</time>
      </trkpt>
      <trkpt lat="45.87912" lon="4.8525">
        <ele>227</ele>
        <time>2018-07-17T10:22:14Z</time>
      </trkpt>
      <trkpt lat="45.87904" lon="4.8524">
        <ele>225</ele>
        <time>2018-07-17T10:22:15Z</time>
      </trkpt>
      <trkpt lat="45.87896" lon="4.85228">
        <ele>224</ele>
        <time>2018-07-17T10:22:16Z</time>
      </trkpt>
      <trkpt lat="45.87887" lon="4.85216">
        <ele>224</ele>
        <time>2018-07-17T10:22:17Z</time>
      </trkpt>
      <trkpt lat="45.87879" lon="4.85205">
        <ele>223</ele>
        <time>2018-07-17T10:22:18Z</time>
      </trkpt>
      <trkpt lat="45.87872" lon="4.85194">
        <ele>223</ele>
        <time>2018-07-17T10:22:19Z</time>
      </trkpt>
      <trkpt lat="45.87863" lon="4.85183">
        <ele>223</ele>
        <time>2018-07-17T10:22:20Z</time>
      </trkpt>
      <trkpt lat="45.87855" lon="4.85172">
        <ele>222</ele>
        <time>2018-07-17T10:22:21Z</time>
      </trkpt>
      <trkpt lat="45.87847" lon="4.8516">
        <ele>219</ele>
        <time>2018-07-17T10:22:22Z</time>
      </trkpt>
      <trkpt lat="45.87839" lon="4.8515">
        <ele>218</ele>
        <time>2018-07-17T10:22:23Z</time>
      </trkpt>
      <trkpt lat="45.87834" lon="4.85139">
        <ele>217</ele>
        <time>2018-07-17T10:22:24Z</time>
      </trkpt>
      <trkpt lat="45.87825" lon="4.85128">
        <ele>219</ele>
        <time>2018-07-17T10:22:25Z</time>
      </trkpt>
      <trkpt lat="45.87817" lon="4.85117">
        <ele>218</ele>
        <time>2018-07-17T10:22:26Z</time>
      </trkpt>
      <trkpt lat="45.87808" lon="4.85105">
        <ele>218</ele>
        <time>2018-07-17T10:22:27Z</time>
      </trkpt>
      <trkpt lat="45.878" lon="4.85093">
        <ele>218</ele>
        <time>2018-07-17T10:22:28Z</time>
      </trkpt>
      <trkpt lat="45.87792" lon="4.85082">
        <ele>214</ele>
        <time>2018-07-17T10:22:29Z</time>
      </trkpt>
      <trkpt lat="45.87785" lon="4.85073">
        <ele>214</ele>
        <time>2018-07-17T10:22:30Z</time>
      </trkpt>
      <trkpt lat="45.87779" lon="4.85064">
        <ele>214</ele>
        <time>2018-07-17T10:22:31Z</time>
      </trkpt>
      <trkpt lat="45.87773" lon="4.85055">
        <ele>213</ele>
        <time>2018-07-17T10:22:32Z</time>
      </trkpt>
      <trkpt lat="45.87767" lon="4.85047">
        <ele>213</ele>
        <time>2018-07-17T10:22:33Z</time>
      </trkpt>
      <trkpt lat="45.8776" lon="4.85037">
        <ele>213</ele>
        <time>2018-07-17T10:22:34Z</time>
      </trkpt>
      <trkpt lat="45.87754" lon="4.85027">
        <ele>212</ele>
        <time>2018-07-17T10:22:35Z</time>
      </trkpt>
      <trkpt lat="45.87748" lon="4.85017">
        <ele>213</ele>
        <time>2018-07-17T10:22:36Z</time>
      </trkpt>
      <trkpt lat="45.87742" lon="4.85007">
        <ele>213</ele>
        <time>2018-07-17T10:22:37Z</time>
      </trkpt>
      <trkpt lat="45.87734" lon="4.84999">
        <ele>211</ele>
        <time>2018-07-17T10:22:38Z</time>
      </trkpt>
      <trkpt lat="45.87728" lon="4.84988">
        <ele>210</ele>
        <time>2018-07-17T10:22:39Z</time>
      </trkpt>
      <trkpt lat="45.8772" lon="4.8498">
        <ele>210</ele>
        <time>2018-07-17T10:22:40Z</time>
      </trkpt>
      <trkpt lat="45.87712" lon="4.84969">
        <ele>210</ele>
        <time>2018-07-17T10:22:41Z</time>
      </trkpt>
      <trkpt lat="45.87704" lon="4.84958">
        <ele>210</ele>
        <time>2018-07-17T10:22:42Z</time>
      </trkpt>
      <trkpt lat="45.87697" lon="4.84946">
        <ele>209</ele>
        <time>2018-07-17T10:22:43Z</time>
      </trkpt>
      <trkpt lat="45.87692" lon="4.84937">
        <ele>209</ele>
        <time>2018-07-17T10:22:44Z</time>
      </trkpt>
      <trkpt lat="45.87685" lon="4.84926">
        <ele>209</ele>
        <time>2018-07-17T10:22:45Z</time>
      </trkpt>
      <trkpt lat="45.87677" lon="4.84917">
        <ele>209</ele>
        <time>2018-07-17T10:22:46Z</time>
      </trkpt>
      <trkpt lat="45.8767" lon="4.84909">
        <ele>207</ele>
        <time>2018-07-17T10:22:47Z</time>
      </trkpt>
      <trkpt lat="45.87664" lon="4.849">
        <ele>206</ele>
        <time>2018-07-17T10:22:48Z</time>
      </trkpt>
      <trkpt lat="45.8766" lon="4.8489">
        <ele>206</ele>
        <time>2018-07-17T10:22:49Z</time>
      </trkpt>
      <trkpt lat="45.87655" lon="4.84883">
        <ele>205</ele>
        <time>2018-07-17T10:22:50Z</time>
      </trkpt>
      <trkpt lat="45.87652" lon="4.84878">
        <ele>205</ele>
        <time>2018-07-17T10:22:51Z</time>
      </trkpt>
      <trkpt lat="45.87648" lon="4.84872">
        <ele>205</ele>
        <time>2018-07-17T10:22:52Z</time>
      </trkpt>
      <trkpt lat="45.87645" lon="4.84865">
        <ele>204</ele>
        <time>2018-07-17T10:22:53Z</time>
      </trkpt>
      <trkpt lat="45.87644" lon="4.84856">
        <ele>204</ele>
        <time>2018-07-17T10:22:54Z</time>
      </trkpt>
      <trkpt lat="45.87643" lon="4.84849">
        <ele>204</ele>
        <time>2018-07-17T10:22:55Z</time>
      </trkpt>
      <trkpt lat="45.87641" lon="4.84839">
        <ele>203</ele>
        <time>2018-07-17T10:22:56Z</time>
      </trkpt>
      <trkpt lat="45.87639" lon="4.84829">
        <ele>200</ele>
        <time>2018-07-17T10:22:57Z</time>
      </trkpt>
      <trkpt lat="45.87635" lon="4.84818">
        <ele>200</ele>
        <time>2018-07-17T10:22:58Z</time>
      </trkpt>
      <trkpt lat="45.87634" lon="4.84804">
        <ele>200</ele>
        <time>2018-07-17T10:22:59Z</time>
      </trkpt>
      <trkpt lat="45.87637" lon="4.84794">
        <ele>199</ele>
        <time>2018-07-17T10:23:00Z</time>
      </trkpt>
      <trkpt lat="45.87639" lon="4.84781">
        <ele>199</ele>
        <time>2018-07-17T10:23:01Z</time>
      </trkpt>
      <trkpt lat="45.8764" lon="4.84769">
        <ele>198</ele>
        <time>2018-07-17T10:23:02Z</time>
      </trkpt>
      <trkpt lat="45.87641" lon="4.84755">
        <ele>198</ele>
        <time>2018-07-17T10:23:03Z</time>
      </trkpt>
      <trkpt lat="45.87643" lon="4.84741">
        <ele>195</ele>
        <time>2018-07-17T10:23:04Z</time>
      </trkpt>
      <trkpt lat="45.87645" lon="4.84726">
        <ele>195</ele>
        <time>2018-07-17T10:23:05Z</time>
      </trkpt>
      <trkpt lat="45.87646" lon="4.84712">
        <ele>194</ele>
        <time>2018-07-17T10:23:06Z</time>
      </trkpt>
      <trkpt lat="45.87647" lon="4.84696">
        <ele>194</ele>
        <time>2018-07-17T10:23:07Z</time>
      </trkpt>
      <trkpt lat="45.87649" lon="4.84683">
        <ele>193</ele>
        <time>2018-07-17T10:23:08Z</time>
      </trkpt>
      <trkpt lat="45.8765" lon="4.84666">
        <ele>191</ele>
        <time>2018-07-17T10:23:09Z</time>
      </trkpt>
      <trkpt lat="45.87651" lon="4.84651">
        <ele>191</ele>
        <time>2018-07-17T10:23:10Z</time>
      </trkpt>
      <trkpt lat="45.87652" lon="4.84636">
        <ele>191</ele>
        <time>2018-07-17T10:23:11Z</time>
      </trkpt>
      <trkpt lat="45.87653" lon="4.84621">
        <ele>191</ele>
        <time>2018-07-17T10:23:12Z</time>
      </trkpt>
      <trkpt lat="45.87654" lon="4.84606">
        <ele>190</ele>
        <time>2018-07-17T10:23:13Z</time>
      </trkpt>
      <trkpt lat="45.87656" lon="4.84592">
        <ele>190</ele>
        <time>2018-07-17T10:23:14Z</time>
      </trkpt>
      <trkpt lat="45.87657" lon="4.84577">
        <ele>189</ele>
        <time>2018-07-17T10:23:15Z</time>
      </trkpt>
      <trkpt lat="45.87658" lon="4.84564">
        <ele>189</ele>
        <time>2018-07-17T10:23:16Z</time>
      </trkpt>
      <trkpt lat="45.87659" lon="4.84549">
        <ele>189</ele>
        <time>2018-07-17T10:23:17Z</time>
      </trkpt>
      <trkpt lat="45.87661" lon="4.84535">
        <ele>189</ele>
        <time>2018-07-17T10:23:18Z</time>
      </trkpt>
      <trkpt lat="45.87665" lon="4.84524">
        <ele>189</ele>
        <time>2018-07-17T10:23:19Z</time>
      </trkpt>
      <trkpt lat="45.87665" lon="4.84512">
        <ele>188</ele>
        <time>2018-07-17T10:23:20Z</time>
      </trkpt>
      <trkpt lat="45.87663" lon="4.845">
        <ele>188</ele>
        <time>2018-07-17T10:23:21Z</time>
      </trkpt>
      <trkpt lat="45.87661" lon="4.84487">
        <ele>188</ele>
        <time>2018-07-17T10:23:22Z</time>
      </trkpt>
      <trkpt lat="45.87659" lon="4.84476">
        <ele>187</ele>
        <time>2018-07-17T10:23:23Z</time>
      </trkpt>
      <trkpt lat="45.87657" lon="4.84464">
        <ele>187</ele>
        <time>2018-07-17T10:23:24Z</time>
      </trkpt>
      <trkpt lat="45.87657" lon="4.84454">
        <ele>187</ele>
        <time>2018-07-17T10:23:25Z</time>
      </trkpt>
      <trkpt lat="45.87657" lon="4.84444">
        <ele>187</ele>
        <time>2018-07-17T10:23:26Z</time>
      </trkpt>
      <trkpt lat="45.87657" lon="4.84433">
        <ele>187</ele>
        <time>2018-07-17T10:23:27Z</time>
      </trkpt>
      <trkpt lat="45.87657" lon="4.84423">
        <ele>186</ele>
        <time>2018-07-17T10:23:28Z</time>
      </trkpt>
      <trkpt lat="45.87657" lon="4.84412">
        <ele>185</ele>
        <time>2018-07-17T10:23:29Z</time>
      </trkpt>
      <trkpt lat="45.87656" lon="4.84401">
        <ele>185</ele>
        <time>2018-07-17T10:23:30Z</time>
      </trkpt>
      <trkpt lat="45.87656" lon="4.84392">
        <ele>185</ele>
        <time>2018-07-17T10:23:31Z</time>
      </trkpt>
      <trkpt lat="45.87655" lon="4.84383">
        <ele>184</ele>
        <time>2018-07-17T10:23:32Z</time>
      </trkpt>
      <trkpt lat="45.87656" lon="4.84376">
        <ele>184</ele>
        <time>2018-07-17T10:23:33Z</time>
      </trkpt>
      <trkpt lat="45.87657" lon="4.8437">
        <ele>184</ele>
        <time>2018-07-17T10:23:34Z</time>
      </trkpt>
      <trkpt lat="45.87655" lon="4.8436">
        <ele>184</ele>
        <time>2018-07-17T10:23:36Z</time>
      </trkpt>
      <trkpt lat="45.87653" lon="4.84355">
        <ele>184</ele>
        <time>2018-07-17T10:23:37Z</time>
      </trkpt>
      <trkpt lat="45.87654" lon="4.84342">
        <ele>183</ele>
        <time>2018-07-17T10:23:47Z</time>
      </trkpt>
      <trkpt lat="45.87654" lon="4.8434">
        <ele>183</ele>
        <time>2018-07-17T10:23:48Z</time>
      </trkpt>
      <trkpt lat="45.87653" lon="4.84328">
        <ele>182</ele>
        <time>2018-07-17T10:23:54Z</time>
      </trkpt>
      <trkpt lat="45.87653" lon="4.84326">
        <ele>182</ele>
        <time>2018-07-17T10:23:55Z</time>
      </trkpt>
      <trkpt lat="45.87655" lon="4.84316">
        <ele>182</ele>
        <time>2018-07-17T10:23:58Z</time>
      </trkpt>
      <trkpt lat="45.87655" lon="4.84304">
        <ele>181</ele>
        <time>2018-07-17T10:23:59Z</time>
      </trkpt>
      <trkpt lat="45.87649" lon="4.84295">
        <ele>181</ele>
        <time>2018-07-17T10:24:01Z</time>
      </trkpt>
      <trkpt lat="45.8764" lon="4.84292">
        <ele>181</ele>
        <time>2018-07-17T10:24:02Z</time>
      </trkpt>
      <trkpt lat="45.87637" lon="4.84287">
        <ele>181</ele>
        <time>2018-07-17T10:24:03Z</time>
      </trkpt>
      <trkpt lat="45.87632" lon="4.84281">
        <ele>181</ele>
        <time>2018-07-17T10:24:04Z</time>
      </trkpt>
      <trkpt lat="45.87627" lon="4.84276">
        <ele>181</ele>
        <time>2018-07-17T10:24:05Z</time>
      </trkpt>
      <trkpt lat="45.87622" lon="4.84271">
        <ele>180</ele>
        <time>2018-07-17T10:24:06Z</time>
      </trkpt>
      <trkpt lat="45.87618" lon="4.84267">
        <ele>180</ele>
        <time>2018-07-17T10:24:07Z</time>
      </trkpt>
      <trkpt lat="45.87614" lon="4.84262">
        <ele>180</ele>
        <time>2018-07-17T10:24:08Z</time>
      </trkpt>
      <trkpt lat="45.87609" lon="4.84256">
        <ele>180</ele>
        <time>2018-07-17T10:24:09Z</time>
      </trkpt>
      <trkpt lat="45.87604" lon="4.84251">
        <ele>180</ele>
        <time>2018-07-17T10:24:10Z</time>
      </trkpt>
      <trkpt lat="45.87599" lon="4.84246">
        <ele>179</ele>
        <time>2018-07-17T10:24:11Z</time>
      </trkpt>
      <trkpt lat="45.87595" lon="4.84241">
        <ele>179</ele>
        <time>2018-07-17T10:24:12Z</time>
      </trkpt>
      <trkpt lat="45.8759" lon="4.84236">
        <ele>179</ele>
        <time>2018-07-17T10:24:13Z</time>
      </trkpt>
      <trkpt lat="45.87585" lon="4.84231">
        <ele>179</ele>
        <time>2018-07-17T10:24:14Z</time>
      </trkpt>
      <trkpt lat="45.87581" lon="4.84228">
        <ele>179</ele>
        <time>2018-07-17T10:24:15Z</time>
      </trkpt>
      <trkpt lat="45.87577" lon="4.84223">
        <ele>179</ele>
        <time>2018-07-17T10:24:16Z</time>
      </trkpt>
      <trkpt lat="45.87573" lon="4.84218">
        <ele>179</ele>
        <time>2018-07-17T10:24:17Z</time>
      </trkpt>
      <trkpt lat="45.87569" lon="4.84213">
        <ele>179</ele>
        <time>2018-07-17T10:24:18Z</time>
      </trkpt>
      <trkpt lat="45.87565" lon="4.84207">
        <ele>179</ele>
        <time>2018-07-17T10:24:19Z</time>
      </trkpt>
      <trkpt lat="45.87561" lon="4.84202">
        <ele>179</ele>
        <time>2018-07-17T10:24:20Z</time>
      </trkpt>
      <trkpt lat="45.87555" lon="4.84197">
        <ele>179</ele>
        <time>2018-07-17T10:24:21Z</time>
      </trkpt>
      <trkpt lat="45.8755" lon="4.84192">
        <ele>179</ele>
        <time>2018-07-17T10:24:22Z</time>
      </trkpt>
      <trkpt lat="45.87545" lon="4.84188">
        <ele>179</ele>
        <time>2018-07-17T10:24:23Z</time>
      </trkpt>
      <trkpt lat="45.87542" lon="4.84184">
        <ele>179</ele>
        <time>2018-07-17T10:24:24Z</time>
      </trkpt>
      <trkpt lat="45.87537" lon="4.84179">
        <ele>179</ele>
        <time>2018-07-17T10:24:25Z</time>
      </trkpt>
      <trkpt lat="45.87531" lon="4.84174">
        <ele>179</ele>
        <time>2018-07-17T10:24:26Z</time>
      </trkpt>
      <trkpt lat="45.87527" lon="4.8417">
        <ele>179</ele>
        <time>2018-07-17T10:24:27Z</time>
      </trkpt>
      <trkpt lat="45.87523" lon="4.84166">
        <ele>178</ele>
        <time>2018-07-17T10:24:28Z</time>
      </trkpt>
      <trkpt lat="45.87519" lon="4.84162">
        <ele>178</ele>
        <time>2018-07-17T10:24:29Z</time>
      </trkpt>
      <trkpt lat="45.87517" lon="4.84154">
        <ele>178</ele>
        <time>2018-07-17T10:24:30Z</time>
      </trkpt>
      <trkpt lat="45.87515" lon="4.84142">
        <ele>178</ele>
        <time>2018-07-17T10:24:32Z</time>
      </trkpt>
      <trkpt lat="45.87515" lon="4.84132">
        <ele>178</ele>
        <time>2018-07-17T10:24:33Z</time>
      </trkpt>
      <trkpt lat="45.87515" lon="4.84122">
        <ele>178</ele>
        <time>2018-07-17T10:24:34Z</time>
      </trkpt>
      <trkpt lat="45.87514" lon="4.84114">
        <ele>177</ele>
        <time>2018-07-17T10:24:35Z</time>
      </trkpt>
      <trkpt lat="45.87514" lon="4.84107">
        <ele>177</ele>
        <time>2018-07-17T10:24:36Z</time>
      </trkpt>
      <trkpt lat="45.87515" lon="4.841">
        <ele>177</ele>
        <time>2018-07-17T10:24:37Z</time>
      </trkpt>
      <trkpt lat="45.87516" lon="4.84091">
        <ele>177</ele>
        <time>2018-07-17T10:24:38Z</time>
      </trkpt>
      <trkpt lat="45.87516" lon="4.84082">
        <ele>176</ele>
        <time>2018-07-17T10:24:39Z</time>
      </trkpt>
      <trkpt lat="45.87515" lon="4.84072">
        <ele>176</ele>
        <time>2018-07-17T10:24:40Z</time>
      </trkpt>
      <trkpt lat="45.87515" lon="4.84061">
        <ele>176</ele>
        <time>2018-07-17T10:24:41Z</time>
      </trkpt>
      <trkpt lat="45.87514" lon="4.84053">
        <ele>176</ele>
        <time>2018-07-17T10:24:42Z</time>
      </trkpt>
      <trkpt lat="45.87514" lon="4.84044">
        <ele>176</ele>
        <time>2018-07-17T10:24:43Z</time>
      </trkpt>
      <trkpt lat="45.87513" lon="4.84035">
        <ele>176</ele>
        <time>2018-07-17T10:24:44Z</time>
      </trkpt>
      <trkpt lat="45.87512" lon="4.84027">
        <ele>176</ele>
        <time>2018-07-17T10:24:45Z</time>
      </trkpt>
      <trkpt lat="45.87511" lon="4.84016">
        <ele>175</ele>
        <time>2018-07-17T10:24:46Z</time>
      </trkpt>
      <trkpt lat="45.8751" lon="4.84006">
        <ele>175</ele>
        <time>2018-07-17T10:24:47Z</time>
      </trkpt>
      <trkpt lat="45.87509" lon="4.83999">
        <ele>174</ele>
        <time>2018-07-17T10:24:48Z</time>
      </trkpt>
      <trkpt lat="45.87508" lon="4.8399">
        <ele>174</ele>
        <time>2018-07-17T10:24:49Z</time>
      </trkpt>
      <trkpt lat="45.87508" lon="4.83981">
        <ele>174</ele>
        <time>2018-07-17T10:24:50Z</time>
      </trkpt>
      <trkpt lat="45.87508" lon="4.83972">
        <ele>174</ele>
        <time>2018-07-17T10:24:51Z</time>
      </trkpt>
      <trkpt lat="45.8751" lon="4.83963">
        <ele>174</ele>
        <time>2018-07-17T10:24:52Z</time>
      </trkpt>
      <trkpt lat="45.87512" lon="4.83954">
        <ele>174</ele>
        <time>2018-07-17T10:24:53Z</time>
      </trkpt>
      <trkpt lat="45.87514" lon="4.83945">
        <ele>174</ele>
        <time>2018-07-17T10:24:54Z</time>
      </trkpt>
      <trkpt lat="45.87515" lon="4.83938">
        <ele>174</ele>
        <time>2018-07-17T10:24:55Z</time>
      </trkpt>
      <trkpt lat="45.87517" lon="4.83929">
        <ele>174</ele>
        <time>2018-07-17T10:24:56Z</time>
      </trkpt>
      <trkpt lat="45.87519" lon="4.8392">
        <ele>174</ele>
        <time>2018-07-17T10:24:57Z</time>
      </trkpt>
      <trkpt lat="45.87521" lon="4.83913">
        <ele>173</ele>
        <time>2018-07-17T10:24:58Z</time>
      </trkpt>
      <trkpt lat="45.87523" lon="4.83906">
        <ele>173</ele>
        <time>2018-07-17T10:24:59Z</time>
      </trkpt>
      <trkpt lat="45.87527" lon="4.839">
        <ele>173</ele>
        <time>2018-07-17T10:25:00Z</time>
      </trkpt>
      <trkpt lat="45.87531" lon="4.83895">
        <ele>173</ele>
        <time>2018-07-17T10:25:01Z</time>
      </trkpt>
      <trkpt lat="45.87533" lon="4.83886">
        <ele>173</ele>
        <time>2018-07-17T10:25:02Z</time>
      </trkpt>
      <trkpt lat="45.87537" lon="4.83881">
        <ele>173</ele>
        <time>2018-07-17T10:25:03Z</time>
      </trkpt>
      <trkpt lat="45.87541" lon="4.83876">
        <ele>173</ele>
        <time>2018-07-17T10:25:04Z</time>
      </trkpt>
      <trkpt lat="45.87547" lon="4.83871">
        <ele>173</ele>
        <time>2018-07-17T10:25:05Z</time>
      </trkpt>
      <trkpt lat="45.87552" lon="4.83867">
        <ele>173</ele>
        <time>2018-07-17T10:25:06Z</time>
      </trkpt>
      <trkpt lat="45.87557" lon="4.83863">
        <ele>173</ele>
        <time>2018-07-17T10:25:07Z</time>
      </trkpt>
      <trkpt lat="45.87563" lon="4.8386">
        <ele>173</ele>
        <time>2018-07-17T10:25:08Z</time>
      </trkpt>
      <trkpt lat="45.87568" lon="4.83858">
        <ele>173</ele>
        <time>2018-07-17T10:25:09Z</time>
      </trkpt>
      <trkpt lat="45.87574" lon="4.83858">
        <ele>173</ele>
        <time>2018-07-17T10:25:10Z</time>
      </trkpt>
      <trkpt lat="45.8758" lon="4.83858">
        <ele>173</ele>
        <time>2018-07-17T10:25:11Z</time>
      </trkpt>
      <trkpt lat="45.87584" lon="4.83854">
        <ele>173</ele>
        <time>2018-07-17T10:25:12Z</time>
      </trkpt>
      <trkpt lat="45.8759" lon="4.83853">
        <ele>173</ele>
        <time>2018-07-17T10:25:13Z</time>
      </trkpt>
      <trkpt lat="45.87595" lon="4.83852">
        <ele>173</ele>
        <time>2018-07-17T10:25:14Z</time>
      </trkpt>
      <trkpt lat="45.87601" lon="4.83852">
        <ele>173</ele>
        <time>2018-07-17T10:25:15Z</time>
      </trkpt>
      <trkpt lat="45.87606" lon="4.83851">
        <ele>173</ele>
        <time>2018-07-17T10:25:16Z</time>
      </trkpt>
      <trkpt lat="45.87613" lon="4.8385">
        <ele>173</ele>
        <time>2018-07-17T10:25:17Z</time>
      </trkpt>
      <trkpt lat="45.87617" lon="4.83851">
        <ele>173</ele>
        <time>2018-07-17T10:25:18Z</time>
      </trkpt>
      <trkpt lat="45.87622" lon="4.83851">
        <ele>173</ele>
        <time>2018-07-17T10:25:19Z</time>
      </trkpt>
      <trkpt lat="45.87628" lon="4.8385">
        <ele>173</ele>
        <time>2018-07-17T10:25:20Z</time>
      </trkpt>
      <trkpt lat="45.87632" lon="4.83851">
        <ele>173</ele>
        <time>2018-07-17T10:25:21Z</time>
      </trkpt>
      <trkpt lat="45.87636" lon="4.83852">
        <ele>173</ele>
        <time>2018-07-17T10:25:22Z</time>
      </trkpt>
      <trkpt lat="45.87641" lon="4.83851">
        <ele>173</ele>
        <time>2018-07-17T10:25:23Z</time>
      </trkpt>
      <trkpt lat="45.87649" lon="4.83853">
        <ele>173</ele>
        <time>2018-07-17T10:25:25Z</time>
      </trkpt>
      <trkpt lat="45.87654" lon="4.83853">
        <ele>173</ele>
        <time>2018-07-17T10:25:26Z</time>
      </trkpt>
      <trkpt lat="45.87661" lon="4.83853">
        <ele>173</ele>
        <time>2018-07-17T10:25:28Z</time>
      </trkpt>
      <trkpt lat="45.87665" lon="4.83853">
        <ele>173</ele>
        <time>2018-07-17T10:25:29Z</time>
      </trkpt>
      <trkpt lat="45.87673" lon="4.83853">
        <ele>172</ele>
        <time>2018-07-17T10:25:31Z</time>
      </trkpt>
      <trkpt lat="45.87678" lon="4.83854">
        <ele>172</ele>
        <time>2018-07-17T10:25:32Z</time>
      </trkpt>
      <trkpt lat="45.87686" lon="4.83855">
        <ele>172</ele>
        <time>2018-07-17T10:25:34Z</time>
      </trkpt>
      <trkpt lat="45.87687" lon="4.83855">
        <ele>172</ele>
        <time>2018-07-17T10:25:35Z</time>
      </trkpt>
      <trkpt lat="45.87694" lon="4.83857">
        <ele>172</ele>
        <time>2018-07-17T10:25:38Z</time>
      </trkpt>
      <trkpt lat="45.87701" lon="4.8386">
        <ele>172</ele>
        <time>2018-07-17T10:25:39Z</time>
      </trkpt>
      <trkpt lat="45.87709" lon="4.8386">
        <ele>172</ele>
        <time>2018-07-17T10:25:41Z</time>
      </trkpt>
      <trkpt lat="45.87713" lon="4.83857">
        <ele>172</ele>
        <time>2018-07-17T10:25:42Z</time>
      </trkpt>
      <trkpt lat="45.87714" lon="4.83846">
        <ele>172</ele>
        <time>2018-07-17T10:25:44Z</time>
      </trkpt>
      <trkpt lat="45.87714" lon="4.83839">
        <ele>172</ele>
        <time>2018-07-17T10:25:45Z</time>
      </trkpt>
      <trkpt lat="45.8771" lon="4.83835">
        <ele>172</ele>
        <time>2018-07-17T10:25:46Z</time>
      </trkpt>
      <trkpt lat="45.87707" lon="4.8383">
        <ele>169</ele>
        <time>2018-07-17T10:25:47Z</time>
      </trkpt>
      <trkpt lat="45.87704" lon="4.83825">
        <ele>169</ele>
        <time>2018-07-17T10:25:48Z</time>
      </trkpt>
      <trkpt lat="45.877" lon="4.8382">
        <ele>169</ele>
        <time>2018-07-17T10:25:49Z</time>
      </trkpt>
      <trkpt lat="45.877" lon="4.83813">
        <ele>169</ele>
        <time>2018-07-17T10:25:50Z</time>
      </trkpt>
      <trkpt lat="45.87701" lon="4.83807">
        <ele>169</ele>
        <time>2018-07-17T10:25:51Z</time>
      </trkpt>
      <trkpt lat="45.87701" lon="4.83799">
        <ele>169</ele>
        <time>2018-07-17T10:25:52Z</time>
      </trkpt>
      <trkpt lat="45.877" lon="4.83793">
        <ele>168</ele>
        <time>2018-07-17T10:25:53Z</time>
      </trkpt>
      <trkpt lat="45.87699" lon="4.83786">
        <ele>168</ele>
        <time>2018-07-17T10:25:54Z</time>
      </trkpt>
      <trkpt lat="45.87699" lon="4.8378">
        <ele>168</ele>
        <time>2018-07-17T10:25:55Z</time>
      </trkpt>
      <trkpt lat="45.87697" lon="4.83767">
        <ele>167</ele>
        <time>2018-07-17T10:25:57Z</time>
      </trkpt>
      <trkpt lat="45.87696" lon="4.8376">
        <ele>167</ele>
        <time>2018-07-17T10:25:58Z</time>
      </trkpt>
      <trkpt lat="45.87695" lon="4.83749">
        <ele>165</ele>
        <time>2018-07-17T10:26:00Z</time>
      </trkpt>
      <trkpt lat="45.87692" lon="4.83743">
        <ele>165</ele>
        <time>2018-07-17T10:26:01Z</time>
      </trkpt>
      <trkpt lat="45.8769" lon="4.83736">
        <ele>165</ele>
        <time>2018-07-17T10:26:02Z</time>
      </trkpt>
      <trkpt lat="45.87689" lon="4.83729">
        <ele>165</ele>
        <time>2018-07-17T10:26:03Z</time>
      </trkpt>
      <trkpt lat="45.8769" lon="4.83719">
        <ele>165</ele>
        <time>2018-07-17T10:26:05Z</time>
      </trkpt>
      <trkpt lat="45.87688" lon="4.83711">
        <ele>165</ele>
        <time>2018-07-17T10:26:06Z</time>
      </trkpt>
      <trkpt lat="45.87692" lon="4.83703">
        <ele>165</ele>
        <time>2018-07-17T10:26:08Z</time>
      </trkpt>
      <trkpt lat="45.87691" lon="4.83695">
        <ele>165</ele>
        <time>2018-07-17T10:26:09Z</time>
      </trkpt>
      <trkpt lat="45.87692" lon="4.83684">
        <ele>165</ele>
        <time>2018-07-17T10:26:11Z</time>
      </trkpt>
      <trkpt lat="45.87692" lon="4.83677">
        <ele>165</ele>
        <time>2018-07-17T10:26:12Z</time>
      </trkpt>
      <trkpt lat="45.8769" lon="4.83666">
        <ele>165</ele>
        <time>2018-07-17T10:26:14Z</time>
      </trkpt>
      <trkpt lat="45.87687" lon="4.83657">
        <ele>165</ele>
        <time>2018-07-17T10:26:15Z</time>
      </trkpt>
      <trkpt lat="45.87687" lon="4.8365">
        <ele>165</ele>
        <time>2018-07-17T10:26:16Z</time>
      </trkpt>
      <trkpt lat="45.87685" lon="4.83641">
        <ele>165</ele>
        <time>2018-07-17T10:26:17Z</time>
      </trkpt>
      <trkpt lat="45.87684" lon="4.83633">
        <ele>165</ele>
        <time>2018-07-17T10:26:18Z</time>
      </trkpt>
      <trkpt lat="45.87681" lon="4.83627">
        <ele>165</ele>
        <time>2018-07-17T10:26:19Z</time>
      </trkpt>
      <trkpt lat="45.8768" lon="4.83619">
        <ele>165</ele>
        <time>2018-07-17T10:26:20Z</time>
      </trkpt>
      <trkpt lat="45.87682" lon="4.83612">
        <ele>165</ele>
        <time>2018-07-17T10:26:21Z</time>
      </trkpt>
      <trkpt lat="45.87681" lon="4.83604">
        <ele>165</ele>
        <time>2018-07-17T10:26:22Z</time>
      </trkpt>
      <trkpt lat="45.87681" lon="4.83597">
        <ele>165</ele>
        <time>2018-07-17T10:26:23Z</time>
      </trkpt>
      <trkpt lat="45.8768" lon="4.83589">
        <ele>165</ele>
        <time>2018-07-17T10:26:24Z</time>
      </trkpt>
      <trkpt lat="45.87679" lon="4.83582">
        <ele>166</ele>
        <time>2018-07-17T10:26:25Z</time>
      </trkpt>
      <trkpt lat="45.87678" lon="4.83574">
        <ele>167</ele>
        <time>2018-07-17T10:26:26Z</time>
      </trkpt>
      <trkpt lat="45.87681" lon="4.83566">
        <ele>167</ele>
        <time>2018-07-17T10:26:27Z</time>
      </trkpt>
      <trkpt lat="45.87685" lon="4.83559">
        <ele>168</ele>
        <time>2018-07-17T10:26:28Z</time>
      </trkpt>
      <trkpt lat="45.87687" lon="4.83553">
        <ele>168</ele>
        <time>2018-07-17T10:26:29Z</time>
      </trkpt>
      <trkpt lat="45.87693" lon="4.83546">
        <ele>168</ele>
        <time>2018-07-17T10:26:30Z</time>
      </trkpt>
      <trkpt lat="45.87698" lon="4.8354">
        <ele>169</ele>
        <time>2018-07-17T10:26:31Z</time>
      </trkpt>
      <trkpt lat="45.87703" lon="4.83535">
        <ele>169</ele>
        <time>2018-07-17T10:26:32Z</time>
      </trkpt>
      <trkpt lat="45.87709" lon="4.83527">
        <ele>169</ele>
        <time>2018-07-17T10:26:33Z</time>
      </trkpt>
      <trkpt lat="45.87715" lon="4.83521">
        <ele>169</ele>
        <time>2018-07-17T10:26:34Z</time>
      </trkpt>
      <trkpt lat="45.8772" lon="4.83513">
        <ele>170</ele>
        <time>2018-07-17T10:26:35Z</time>
      </trkpt>
      <trkpt lat="45.87725" lon="4.83507">
        <ele>170</ele>
        <time>2018-07-17T10:26:36Z</time>
      </trkpt>
      <trkpt lat="45.87731" lon="4.835">
        <ele>172</ele>
        <time>2018-07-17T10:26:37Z</time>
      </trkpt>
      <trkpt lat="45.87737" lon="4.83492">
        <ele>173</ele>
        <time>2018-07-17T10:26:38Z</time>
      </trkpt>
      <trkpt lat="45.87743" lon="4.83486">
        <ele>172</ele>
        <time>2018-07-17T10:26:39Z</time>
      </trkpt>
      <trkpt lat="45.87748" lon="4.83479">
        <ele>172</ele>
        <time>2018-07-17T10:26:40Z</time>
      </trkpt>
      <trkpt lat="45.87753" lon="4.83474">
        <ele>170</ele>
        <time>2018-07-17T10:26:41Z</time>
      </trkpt>
      <trkpt lat="45.87757" lon="4.8347">
        <ele>170</ele>
        <time>2018-07-17T10:26:42Z</time>
      </trkpt>
      <trkpt lat="45.87761" lon="4.83464">
        <ele>170</ele>
        <time>2018-07-17T10:26:43Z</time>
      </trkpt>
      <trkpt lat="45.87765" lon="4.83457">
        <ele>170</ele>
        <time>2018-07-17T10:26:44Z</time>
      </trkpt>
      <trkpt lat="45.8777" lon="4.83449">
        <ele>170</ele>
        <time>2018-07-17T10:26:45Z</time>
      </trkpt>
      <trkpt lat="45.87776" lon="4.83441">
        <ele>169</ele>
        <time>2018-07-17T10:26:46Z</time>
      </trkpt>
      <trkpt lat="45.87779" lon="4.83435">
        <ele>169</ele>
        <time>2018-07-17T10:26:47Z</time>
      </trkpt>
      <trkpt lat="45.87782" lon="4.83429">
        <ele>169</ele>
        <time>2018-07-17T10:26:48Z</time>
      </trkpt>
      <trkpt lat="45.87787" lon="4.83421">
        <ele>169</ele>
        <time>2018-07-17T10:26:49Z</time>
      </trkpt>
      <trkpt lat="45.8779" lon="4.83415">
        <ele>168</ele>
        <time>2018-07-17T10:26:50Z</time>
      </trkpt>
      <trkpt lat="45.87795" lon="4.83407">
        <ele>168</ele>
        <time>2018-07-17T10:26:51Z</time>
      </trkpt>
      <trkpt lat="45.87798" lon="4.83401">
        <ele>168</ele>
        <time>2018-07-17T10:26:52Z</time>
      </trkpt>
      <trkpt lat="45.87801" lon="4.83394">
        <ele>168</ele>
        <time>2018-07-17T10:26:53Z</time>
      </trkpt>
      <trkpt lat="45.87803" lon="4.83386">
        <ele>168</ele>
        <time>2018-07-17T10:26:54Z</time>
      </trkpt>
      <trkpt lat="45.87806" lon="4.83379">
        <ele>168</ele>
        <time>2018-07-17T10:26:55Z</time>
      </trkpt>
      <trkpt lat="45.87809" lon="4.83371">
        <ele>168</ele>
        <time>2018-07-17T10:26:56Z</time>
      </trkpt>
      <trkpt lat="45.87813" lon="4.83363">
        <ele>167</ele>
        <time>2018-07-17T10:26:57Z</time>
      </trkpt>
      <trkpt lat="45.87816" lon="4.83356">
        <ele>167</ele>
        <time>2018-07-17T10:26:58Z</time>
      </trkpt>
      <trkpt lat="45.8782" lon="4.83348">
        <ele>167</ele>
        <time>2018-07-17T10:26:59Z</time>
      </trkpt>
      <trkpt lat="45.87823" lon="4.8334">
        <ele>166</ele>
        <time>2018-07-17T10:27:00Z</time>
      </trkpt>
      <trkpt lat="45.87825" lon="4.83332">
        <ele>167</ele>
        <time>2018-07-17T10:27:01Z</time>
      </trkpt>
      <trkpt lat="45.87827" lon="4.83325">
        <ele>167</ele>
        <time>2018-07-17T10:27:02Z</time>
      </trkpt>
      <trkpt lat="45.87829" lon="4.83318">
        <ele>167</ele>
        <time>2018-07-17T10:27:03Z</time>
      </trkpt>
      <trkpt lat="45.87832" lon="4.83311">
        <ele>168</ele>
        <time>2018-07-17T10:27:04Z</time>
      </trkpt>
      <trkpt lat="45.87834" lon="4.83305">
        <ele>166</ele>
        <time>2018-07-17T10:27:05Z</time>
      </trkpt>
      <trkpt lat="45.87835" lon="4.83297">
        <ele>167</ele>
        <time>2018-07-17T10:27:06Z</time>
      </trkpt>
      <trkpt lat="45.87838" lon="4.8329">
        <ele>167</ele>
        <time>2018-07-17T10:27:07Z</time>
      </trkpt>
      <trkpt lat="45.87841" lon="4.83282">
        <ele>167</ele>
        <time>2018-07-17T10:27:08Z</time>
      </trkpt>
      <trkpt lat="45.87843" lon="4.83276">
        <ele>168</ele>
        <time>2018-07-17T10:27:09Z</time>
      </trkpt>
      <trkpt lat="45.87845" lon="4.83268">
        <ele>168</ele>
        <time>2018-07-17T10:27:10Z</time>
      </trkpt>
      <trkpt lat="45.87847" lon="4.83258">
        <ele>169</ele>
        <time>2018-07-17T10:27:11Z</time>
      </trkpt>
      <trkpt lat="45.8785" lon="4.83249">
        <ele>170</ele>
        <time>2018-07-17T10:27:12Z</time>
      </trkpt>
      <trkpt lat="45.87852" lon="4.8324">
        <ele>170</ele>
        <time>2018-07-17T10:27:13Z</time>
      </trkpt>
      <trkpt lat="45.87853" lon="4.83231">
        <ele>170</ele>
        <time>2018-07-17T10:27:14Z</time>
      </trkpt>
      <trkpt lat="45.87855" lon="4.83222">
        <ele>169</ele>
        <time>2018-07-17T10:27:15Z</time>
      </trkpt>
      <trkpt lat="45.87856" lon="4.83211">
        <ele>170</ele>
        <time>2018-07-17T10:27:16Z</time>
      </trkpt>
      <trkpt lat="45.87859" lon="4.83203">
        <ele>170</ele>
        <time>2018-07-17T10:27:17Z</time>
      </trkpt>
      <trkpt lat="45.8786" lon="4.83194">
        <ele>170</ele>
        <time>2018-07-17T10:27:18Z</time>
      </trkpt>
      <trkpt lat="45.87862" lon="4.83185">
        <ele>170</ele>
        <time>2018-07-17T10:27:19Z</time>
      </trkpt>
      <trkpt lat="45.87864" lon="4.83174">
        <ele>170</ele>
        <time>2018-07-17T10:27:20Z</time>
      </trkpt>
      <trkpt lat="45.87865" lon="4.83165">
        <ele>170</ele>
        <time>2018-07-17T10:27:21Z</time>
      </trkpt>
      <trkpt lat="45.87867" lon="4.83155">
        <ele>170</ele>
        <time>2018-07-17T10:27:22Z</time>
      </trkpt>
      <trkpt lat="45.87869" lon="4.83148">
        <ele>170</ele>
        <time>2018-07-17T10:27:23Z</time>
      </trkpt>
      <trkpt lat="45.87871" lon="4.8314">
        <ele>170</ele>
        <time>2018-07-17T10:27:24Z</time>
      </trkpt>
      <trkpt lat="45.87872" lon="4.83133">
        <ele>170</ele>
        <time>2018-07-17T10:27:25Z</time>
      </trkpt>
      <trkpt lat="45.87873" lon="4.83125">
        <ele>170</ele>
        <time>2018-07-17T10:27:26Z</time>
      </trkpt>
      <trkpt lat="45.87876" lon="4.83116">
        <ele>169</ele>
        <time>2018-07-17T10:27:27Z</time>
      </trkpt>
      <trkpt lat="45.87877" lon="4.83109">
        <ele>169</ele>
        <time>2018-07-17T10:27:28Z</time>
      </trkpt>
      <trkpt lat="45.87878" lon="4.83102">
        <ele>169</ele>
        <time>2018-07-17T10:27:29Z</time>
      </trkpt>
      <trkpt lat="45.87879" lon="4.83093">
        <ele>169</ele>
        <time>2018-07-17T10:27:30Z</time>
      </trkpt>
      <trkpt lat="45.87881" lon="4.83084">
        <ele>169</ele>
        <time>2018-07-17T10:27:31Z</time>
      </trkpt>
      <trkpt lat="45.87881" lon="4.83076">
        <ele>169</ele>
        <time>2018-07-17T10:27:32Z</time>
      </trkpt>
      <trkpt lat="45.87882" lon="4.83068">
        <ele>169</ele>
        <time>2018-07-17T10:27:33Z</time>
      </trkpt>
      <trkpt lat="45.87882" lon="4.83059">
        <ele>169</ele>
        <time>2018-07-17T10:27:34Z</time>
      </trkpt>
      <trkpt lat="45.87883" lon="4.8305">
        <ele>169</ele>
        <time>2018-07-17T10:27:35Z</time>
      </trkpt>
      <trkpt lat="45.87883" lon="4.83045">
        <ele>169</ele>
        <time>2018-07-17T10:27:36Z</time>
      </trkpt>
      <trkpt lat="45.87884" lon="4.83037">
        <ele>169</ele>
        <time>2018-07-17T10:27:37Z</time>
      </trkpt>
      <trkpt lat="45.87884" lon="4.83028">
        <ele>168</ele>
        <time>2018-07-17T10:27:38Z</time>
      </trkpt>
      <trkpt lat="45.87886" lon="4.8302">
        <ele>168</ele>
        <time>2018-07-17T10:27:39Z</time>
      </trkpt>
      <trkpt lat="45.87887" lon="4.83011">
        <ele>168</ele>
        <time>2018-07-17T10:27:40Z</time>
      </trkpt>
      <trkpt lat="45.87887" lon="4.83002">
        <ele>168</ele>
        <time>2018-07-17T10:27:41Z</time>
      </trkpt>
      <trkpt lat="45.87887" lon="4.82993">
        <ele>168</ele>
        <time>2018-07-17T10:27:42Z</time>
      </trkpt>
      <trkpt lat="45.87888" lon="4.82982">
        <ele>168</ele>
        <time>2018-07-17T10:27:43Z</time>
      </trkpt>
      <trkpt lat="45.87889" lon="4.82973">
        <ele>168</ele>
        <time>2018-07-17T10:27:44Z</time>
      </trkpt>
      <trkpt lat="45.87889" lon="4.82964">
        <ele>168</ele>
        <time>2018-07-17T10:27:45Z</time>
      </trkpt>
      <trkpt lat="45.87891" lon="4.82955">
        <ele>168</ele>
        <time>2018-07-17T10:27:46Z</time>
      </trkpt>
      <trkpt lat="45.87893" lon="4.82945">
        <ele>168</ele>
        <time>2018-07-17T10:27:47Z</time>
      </trkpt>
      <trkpt lat="45.87894" lon="4.82935">
        <ele>168</ele>
        <time>2018-07-17T10:27:48Z</time>
      </trkpt>
      <trkpt lat="45.87896" lon="4.82925">
        <ele>167</ele>
        <time>2018-07-17T10:27:49Z</time>
      </trkpt>
      <trkpt lat="45.87896" lon="4.82915">
        <ele>168</ele>
        <time>2018-07-17T10:27:50Z</time>
      </trkpt>
      <trkpt lat="45.87896" lon="4.82907">
        <ele>168</ele>
        <time>2018-07-17T10:27:51Z</time>
      </trkpt>
      <trkpt lat="45.87895" lon="4.82897">
        <ele>168</ele>
        <time>2018-07-17T10:27:52Z</time>
      </trkpt>
      <trkpt lat="45.87894" lon="4.82889">
        <ele>168</ele>
        <time>2018-07-17T10:27:53Z</time>
      </trkpt>
      <trkpt lat="45.87893" lon="4.8288">
        <ele>168</ele>
        <time>2018-07-17T10:27:54Z</time>
      </trkpt>
      <trkpt lat="45.87893" lon="4.82871">
        <ele>168</ele>
        <time>2018-07-17T10:27:55Z</time>
      </trkpt>
      <trkpt lat="45.87893" lon="4.82863">
        <ele>168</ele>
        <time>2018-07-17T10:27:56Z</time>
      </trkpt>
      <trkpt lat="45.87893" lon="4.82854">
        <ele>168</ele>
        <time>2018-07-17T10:27:57Z</time>
      </trkpt>
      <trkpt lat="45.87891" lon="4.82849">
        <ele>168</ele>
        <time>2018-07-17T10:27:58Z</time>
      </trkpt>
      <trkpt lat="45.87891" lon="4.82838">
        <ele>168</ele>
        <time>2018-07-17T10:27:59Z</time>
      </trkpt>
      <trkpt lat="45.8789" lon="4.82829">
        <ele>168</ele>
        <time>2018-07-17T10:28:00Z</time>
      </trkpt>
      <trkpt lat="45.8789" lon="4.82821">
        <ele>168</ele>
        <time>2018-07-17T10:28:01Z</time>
      </trkpt>
      <trkpt lat="45.87889" lon="4.82812">
        <ele>169</ele>
        <time>2018-07-17T10:28:02Z</time>
      </trkpt>
      <trkpt lat="45.8789" lon="4.82805">
        <ele>169</ele>
        <time>2018-07-17T10:28:03Z</time>
      </trkpt>
      <trkpt lat="45.87889" lon="4.82796">
        <ele>169</ele>
        <time>2018-07-17T10:28:04Z</time>
      </trkpt>
      <trkpt lat="45.87887" lon="4.82787">
        <ele>169</ele>
        <time>2018-07-17T10:28:05Z</time>
      </trkpt>
      <trkpt lat="45.87887" lon="4.82779">
        <ele>169</ele>
        <time>2018-07-17T10:28:06Z</time>
      </trkpt>
      <trkpt lat="45.87886" lon="4.82772">
        <ele>169</ele>
        <time>2018-07-17T10:28:07Z</time>
      </trkpt>
      <trkpt lat="45.87885" lon="4.82763">
        <ele>169</ele>
        <time>2018-07-17T10:28:08Z</time>
      </trkpt>
      <trkpt lat="45.87885" lon="4.82756">
        <ele>169</ele>
        <time>2018-07-17T10:28:09Z</time>
      </trkpt>
      <trkpt lat="45.87885" lon="4.82749">
        <ele>168</ele>
        <time>2018-07-17T10:28:10Z</time>
      </trkpt>
      <trkpt lat="45.87884" lon="4.8274">
        <ele>168</ele>
        <time>2018-07-17T10:28:11Z</time>
      </trkpt>
      <trkpt lat="45.87884" lon="4.82731">
        <ele>169</ele>
        <time>2018-07-17T10:28:12Z</time>
      </trkpt>
      <trkpt lat="45.87882" lon="4.82723">
        <ele>169</ele>
        <time>2018-07-17T10:28:13Z</time>
      </trkpt>
      <trkpt lat="45.87882" lon="4.82712">
        <ele>169</ele>
        <time>2018-07-17T10:28:14Z</time>
      </trkpt>
      <trkpt lat="45.87882" lon="4.82702">
        <ele>169</ele>
        <time>2018-07-17T10:28:15Z</time>
      </trkpt>
      <trkpt lat="45.87882" lon="4.82692">
        <ele>169</ele>
        <time>2018-07-17T10:28:16Z</time>
      </trkpt>
      <trkpt lat="45.87883" lon="4.82683">
        <ele>168</ele>
        <time>2018-07-17T10:28:17Z</time>
      </trkpt>
      <trkpt lat="45.87886" lon="4.82676">
        <ele>168</ele>
        <time>2018-07-17T10:28:18Z</time>
      </trkpt>
      <trkpt lat="45.87888" lon="4.82667">
        <ele>168</ele>
        <time>2018-07-17T10:28:19Z</time>
      </trkpt>
      <trkpt lat="45.87889" lon="4.82658">
        <ele>167</ele>
        <time>2018-07-17T10:28:20Z</time>
      </trkpt>
      <trkpt lat="45.87891" lon="4.8265">
        <ele>167</ele>
        <time>2018-07-17T10:28:21Z</time>
      </trkpt>
      <trkpt lat="45.87892" lon="4.82642">
        <ele>167</ele>
        <time>2018-07-17T10:28:22Z</time>
      </trkpt>
      <trkpt lat="45.87895" lon="4.82634">
        <ele>167</ele>
        <time>2018-07-17T10:28:23Z</time>
      </trkpt>
      <trkpt lat="45.87897" lon="4.82627">
        <ele>167</ele>
        <time>2018-07-17T10:28:24Z</time>
      </trkpt>
      <trkpt lat="45.87898" lon="4.82618">
        <ele>167</ele>
        <time>2018-07-17T10:28:25Z</time>
      </trkpt>
      <trkpt lat="45.879" lon="4.82611">
        <ele>167</ele>
        <time>2018-07-17T10:28:26Z</time>
      </trkpt>
      <trkpt lat="45.87904" lon="4.82602">
        <ele>167</ele>
        <time>2018-07-17T10:28:27Z</time>
      </trkpt>
      <trkpt lat="45.87905" lon="4.82593">
        <ele>166</ele>
        <time>2018-07-17T10:28:28Z</time>
      </trkpt>
      <trkpt lat="45.87907" lon="4.82585">
        <ele>166</ele>
        <time>2018-07-17T10:28:29Z</time>
      </trkpt>
      <trkpt lat="45.87909" lon="4.82576">
        <ele>166</ele>
        <time>2018-07-17T10:28:30Z</time>
      </trkpt>
      <trkpt lat="45.87912" lon="4.82569">
        <ele>167</ele>
        <time>2018-07-17T10:28:31Z</time>
      </trkpt>
      <trkpt lat="45.87914" lon="4.82561">
        <ele>167</ele>
        <time>2018-07-17T10:28:32Z</time>
      </trkpt>
      <trkpt lat="45.87916" lon="4.82553">
        <ele>168</ele>
        <time>2018-07-17T10:28:33Z</time>
      </trkpt>
      <trkpt lat="45.87919" lon="4.82544">
        <ele>166</ele>
        <time>2018-07-17T10:28:34Z</time>
      </trkpt>
      <trkpt lat="45.87919" lon="4.82536">
        <ele>166</ele>
        <time>2018-07-17T10:28:35Z</time>
      </trkpt>
      <trkpt lat="45.8792" lon="4.82526">
        <ele>166</ele>
        <time>2018-07-17T10:28:36Z</time>
      </trkpt>
      <trkpt lat="45.87923" lon="4.82518">
        <ele>167</ele>
        <time>2018-07-17T10:28:37Z</time>
      </trkpt>
      <trkpt lat="45.87925" lon="4.8251">
        <ele>167</ele>
        <time>2018-07-17T10:28:38Z</time>
      </trkpt>
      <trkpt lat="45.87926" lon="4.82502">
        <ele>167</ele>
        <time>2018-07-17T10:28:39Z</time>
      </trkpt>
      <trkpt lat="45.87929" lon="4.82495">
        <ele>167</ele>
        <time>2018-07-17T10:28:40Z</time>
      </trkpt>
      <trkpt lat="45.8793" lon="4.82487">
        <ele>167</ele>
        <time>2018-07-17T10:28:41Z</time>
      </trkpt>
      <trkpt lat="45.87931" lon="4.82479">
        <ele>167</ele>
        <time>2018-07-17T10:28:42Z</time>
      </trkpt>
      <trkpt lat="45.87932" lon="4.82471">
        <ele>167</ele>
        <time>2018-07-17T10:28:43Z</time>
      </trkpt>
      <trkpt lat="45.87933" lon="4.82463">
        <ele>167</ele>
        <time>2018-07-17T10:28:44Z</time>
      </trkpt>
      <trkpt lat="45.87934" lon="4.82455">
        <ele>167</ele>
        <time>2018-07-17T10:28:45Z</time>
      </trkpt>
      <trkpt lat="45.87936" lon="4.82448">
        <ele>167</ele>
        <time>2018-07-17T10:28:46Z</time>
      </trkpt>
      <trkpt lat="45.87937" lon="4.8244">
        <ele>167</ele>
        <time>2018-07-17T10:28:47Z</time>
      </trkpt>
      <trkpt lat="45.87939" lon="4.82431">
        <ele>166</ele>
        <time>2018-07-17T10:28:48Z</time>
      </trkpt>
      <trkpt lat="45.87941" lon="4.82424">
        <ele>166</ele>
        <time>2018-07-17T10:28:49Z</time>
      </trkpt>
      <trkpt lat="45.87942" lon="4.82416">
        <ele>167</ele>
        <time>2018-07-17T10:28:50Z</time>
      </trkpt>
      <trkpt lat="45.87943" lon="4.82408">
        <ele>167</ele>
        <time>2018-07-17T10:28:51Z</time>
      </trkpt>
      <trkpt lat="45.87943" lon="4.824">
        <ele>167</ele>
        <time>2018-07-17T10:28:52Z</time>
      </trkpt>
      <trkpt lat="45.87946" lon="4.82393">
        <ele>167</ele>
        <time>2018-07-17T10:28:53Z</time>
      </trkpt>
      <trkpt lat="45.87947" lon="4.82385">
        <ele>167</ele>
        <time>2018-07-17T10:28:54Z</time>
      </trkpt>
      <trkpt lat="45.87948" lon="4.82378">
        <ele>167</ele>
        <time>2018-07-17T10:28:55Z</time>
      </trkpt>
      <trkpt lat="45.87948" lon="4.8237">
        <ele>167</ele>
        <time>2018-07-17T10:28:56Z</time>
      </trkpt>
      <trkpt lat="45.87949" lon="4.82363">
        <ele>167</ele>
        <time>2018-07-17T10:28:57Z</time>
      </trkpt>
      <trkpt lat="45.8795" lon="4.82355">
        <ele>167</ele>
        <time>2018-07-17T10:28:58Z</time>
      </trkpt>
      <trkpt lat="45.87952" lon="4.82348">
        <ele>167</ele>
        <time>2018-07-17T10:28:59Z</time>
      </trkpt>
      <trkpt lat="45.87953" lon="4.8234">
        <ele>167</ele>
        <time>2018-07-17T10:29:00Z</time>
      </trkpt>
      <trkpt lat="45.87954" lon="4.82331">
        <ele>168</ele>
        <time>2018-07-17T10:29:01Z</time>
      </trkpt>
      <trkpt lat="45.87954" lon="4.82324">
        <ele>168</ele>
        <time>2018-07-17T10:29:02Z</time>
      </trkpt>
      <trkpt lat="45.87955" lon="4.82316">
        <ele>168</ele>
        <time>2018-07-17T10:29:03Z</time>
      </trkpt>
      <trkpt lat="45.87955" lon="4.82306">
        <ele>168</ele>
        <time>2018-07-17T10:29:04Z</time>
      </trkpt>
      <trkpt lat="45.87956" lon="4.82298">
        <ele>168</ele>
        <time>2018-07-17T10:29:05Z</time>
      </trkpt>
      <trkpt lat="45.87958" lon="4.82291">
        <ele>168</ele>
        <time>2018-07-17T10:29:06Z</time>
      </trkpt>
      <trkpt lat="45.87959" lon="4.82284">
        <ele>168</ele>
        <time>2018-07-17T10:29:07Z</time>
      </trkpt>
      <trkpt lat="45.8796" lon="4.82273">
        <ele>168</ele>
        <time>2018-07-17T10:29:09Z</time>
      </trkpt>
      <trkpt lat="45.87961" lon="4.82271">
        <ele>168</ele>
        <time>2018-07-17T10:29:10Z</time>
      </trkpt>
      <trkpt lat="45.87964" lon="4.82259">
        <ele>168</ele>
        <time>2018-07-17T10:29:14Z</time>
      </trkpt>
      <trkpt lat="45.87964" lon="4.82255">
        <ele>168</ele>
        <time>2018-07-17T10:29:15Z</time>
      </trkpt>
      <trkpt lat="45.87967" lon="4.82243">
        <ele>169</ele>
        <time>2018-07-17T10:29:18Z</time>
      </trkpt>
      <trkpt lat="45.87971" lon="4.8223">
        <ele>169</ele>
        <time>2018-07-17T10:29:19Z</time>
      </trkpt>
      <trkpt lat="45.87973" lon="4.82226">
        <ele>169</ele>
        <time>2018-07-17T10:29:21Z</time>
      </trkpt>
      <trkpt lat="45.87976" lon="4.82218">
        <ele>169</ele>
        <time>2018-07-17T10:29:22Z</time>
      </trkpt>
      <trkpt lat="45.87979" lon="4.82206">
        <ele>169</ele>
        <time>2018-07-17T10:29:27Z</time>
      </trkpt>
      <trkpt lat="45.8798" lon="4.82205">
        <ele>169</ele>
        <time>2018-07-17T10:29:28Z</time>
      </trkpt>
      <trkpt lat="45.8798" lon="4.82203">
        <ele>169</ele>
        <time>2018-07-17T10:30:25Z</time>
      </trkpt>
      <trkpt lat="45.8798" lon="4.82203">
        <ele>169</ele>
        <time>2018-07-17T10:30:26Z</time>
      </trkpt>
      <trkpt lat="45.8798" lon="4.82203">
        <ele>169</ele>
        <time>2018-07-17T10:30:27Z</time>
      </trkpt>
      <trkpt lat="45.87983" lon="4.82192">
        <ele>169</ele>
        <time>2018-07-17T10:31:16Z</time>
      </trkpt>
      <trkpt lat="45.87984" lon="4.82191">
        <ele>169</ele>
        <time>2018-07-17T10:31:17Z</time>
      </trkpt>
      <trkpt lat="45.87988" lon="4.82181">
        <ele>169</ele>
        <time>2018-07-17T10:31:22Z</time>
      </trkpt>
      <trkpt lat="45.87988" lon="4.82179">
        <ele>169</ele>
        <time>2018-07-17T10:31:23Z</time>
      </trkpt>
      <trkpt lat="45.87989" lon="4.82167">
        <ele>170</ele>
        <time>2018-07-17T10:31:27Z</time>
      </trkpt>
      <trkpt lat="45.8799" lon="4.82163">
        <ele>170</ele>
        <time>2018-07-17T10:31:28Z</time>
      </trkpt>
      <trkpt lat="45.87994" lon="4.82152">
        <ele>170</ele>
        <time>2018-07-17T10:31:29Z</time>
      </trkpt>
      <trkpt lat="45.87997" lon="4.82148">
        <ele>170</ele>
        <time>2018-07-17T10:31:30Z</time>
      </trkpt>
      <trkpt lat="45.88002" lon="4.82139">
        <ele>168</ele>
        <time>2018-07-17T10:31:32Z</time>
      </trkpt>
      <trkpt lat="45.88002" lon="4.82135">
        <ele>168</ele>
        <time>2018-07-17T10:31:33Z</time>
      </trkpt>
      <trkpt lat="45.88005" lon="4.82129">
        <ele>168</ele>
        <time>2018-07-17T10:31:34Z</time>
      </trkpt>
      <trkpt lat="45.88006" lon="4.82123">
        <ele>168</ele>
        <time>2018-07-17T10:31:35Z</time>
      </trkpt>
      <trkpt lat="45.8801" lon="4.82113">
        <ele>168</ele>
        <time>2018-07-17T10:31:37Z</time>
      </trkpt>
      <trkpt lat="45.8801" lon="4.82108">
        <ele>168</ele>
        <time>2018-07-17T10:31:38Z</time>
      </trkpt>
      <trkpt lat="45.88009" lon="4.82096">
        <ele>169</ele>
        <time>2018-07-17T10:31:40Z</time>
      </trkpt>
      <trkpt lat="45.88011" lon="4.82089">
        <ele>169</ele>
        <time>2018-07-17T10:31:41Z</time>
      </trkpt>
      <trkpt lat="45.88014" lon="4.82083">
        <ele>169</ele>
        <time>2018-07-17T10:31:42Z</time>
      </trkpt>
      <trkpt lat="45.88016" lon="4.82078">
        <ele>169</ele>
        <time>2018-07-17T10:31:43Z</time>
      </trkpt>
      <trkpt lat="45.8802" lon="4.82074">
        <ele>169</ele>
        <time>2018-07-17T10:31:44Z</time>
      </trkpt>
      <trkpt lat="45.88024" lon="4.82066">
        <ele>169</ele>
        <time>2018-07-17T10:31:45Z</time>
      </trkpt>
      <trkpt lat="45.88027" lon="4.82061">
        <ele>169</ele>
        <time>2018-07-17T10:31:46Z</time>
      </trkpt>
      <trkpt lat="45.88031" lon="4.82054">
        <ele>169</ele>
        <time>2018-07-17T10:31:47Z</time>
      </trkpt>
      <trkpt lat="45.88035" lon="4.82048">
        <ele>168</ele>
        <time>2018-07-17T10:31:48Z</time>
      </trkpt>
      <trkpt lat="45.8804" lon="4.8204">
        <ele>168</ele>
        <time>2018-07-17T10:31:49Z</time>
      </trkpt>
      <trkpt lat="45.88044" lon="4.8203">
        <ele>168</ele>
        <time>2018-07-17T10:31:50Z</time>
      </trkpt>
      <trkpt lat="45.88047" lon="4.82022">
        <ele>168</ele>
        <time>2018-07-17T10:31:51Z</time>
      </trkpt>
      <trkpt lat="45.88051" lon="4.82015">
        <ele>168</ele>
        <time>2018-07-17T10:31:52Z</time>
      </trkpt>
      <trkpt lat="45.88054" lon="4.82006">
        <ele>168</ele>
        <time>2018-07-17T10:31:53Z</time>
      </trkpt>
      <trkpt lat="45.88056" lon="4.81999">
        <ele>168</ele>
        <time>2018-07-17T10:31:54Z</time>
      </trkpt>
      <trkpt lat="45.88059" lon="4.81993">
        <ele>168</ele>
        <time>2018-07-17T10:31:55Z</time>
      </trkpt>
      <trkpt lat="45.88061" lon="4.81984">
        <ele>168</ele>
        <time>2018-07-17T10:31:56Z</time>
      </trkpt>
      <trkpt lat="45.88064" lon="4.81976">
        <ele>168</ele>
        <time>2018-07-17T10:31:57Z</time>
      </trkpt>
      <trkpt lat="45.88066" lon="4.81971">
        <ele>168</ele>
        <time>2018-07-17T10:31:58Z</time>
      </trkpt>
      <trkpt lat="45.88069" lon="4.81963">
        <ele>168</ele>
        <time>2018-07-17T10:31:59Z</time>
      </trkpt>
      <trkpt lat="45.88071" lon="4.81955">
        <ele>168</ele>
        <time>2018-07-17T10:32:00Z</time>
      </trkpt>
      <trkpt lat="45.88073" lon="4.81947">
        <ele>167</ele>
        <time>2018-07-17T10:32:01Z</time>
      </trkpt>
      <trkpt lat="45.88076" lon="4.8194">
        <ele>167</ele>
        <time>2018-07-17T10:32:02Z</time>
      </trkpt>
      <trkpt lat="45.8808" lon="4.81934">
        <ele>167</ele>
        <time>2018-07-17T10:32:03Z</time>
      </trkpt>
      <trkpt lat="45.88081" lon="4.81928">
        <ele>166</ele>
        <time>2018-07-17T10:32:04Z</time>
      </trkpt>
      <trkpt lat="45.88085" lon="4.8192">
        <ele>165</ele>
        <time>2018-07-17T10:32:05Z</time>
      </trkpt>
      <trkpt lat="45.88088" lon="4.81914">
        <ele>165</ele>
        <time>2018-07-17T10:32:06Z</time>
      </trkpt>
      <trkpt lat="45.88089" lon="4.81907">
        <ele>165</ele>
        <time>2018-07-17T10:32:07Z</time>
      </trkpt>
      <trkpt lat="45.8809" lon="4.81899">
        <ele>165</ele>
        <time>2018-07-17T10:32:08Z</time>
      </trkpt>
      <trkpt lat="45.88092" lon="4.81892">
        <ele>165</ele>
        <time>2018-07-17T10:32:09Z</time>
      </trkpt>
      <trkpt lat="45.88095" lon="4.81884">
        <ele>166</ele>
        <time>2018-07-17T10:32:10Z</time>
      </trkpt>
      <trkpt lat="45.88098" lon="4.81877">
        <ele>166</ele>
        <time>2018-07-17T10:32:11Z</time>
      </trkpt>
      <trkpt lat="45.88099" lon="4.8187">
        <ele>166</ele>
        <time>2018-07-17T10:32:12Z</time>
      </trkpt>
      <trkpt lat="45.88103" lon="4.81863">
        <ele>166</ele>
        <time>2018-07-17T10:32:13Z</time>
      </trkpt>
      <trkpt lat="45.88106" lon="4.81856">
        <ele>166</ele>
        <time>2018-07-17T10:32:14Z</time>
      </trkpt>
      <trkpt lat="45.88107" lon="4.8185">
        <ele>166</ele>
        <time>2018-07-17T10:32:15Z</time>
      </trkpt>
      <trkpt lat="45.8811" lon="4.81845">
        <ele>166</ele>
        <time>2018-07-17T10:32:16Z</time>
      </trkpt>
      <trkpt lat="45.88112" lon="4.81839">
        <ele>166</ele>
        <time>2018-07-17T10:32:17Z</time>
      </trkpt>
      <trkpt lat="45.88114" lon="4.81832">
        <ele>167</ele>
        <time>2018-07-17T10:32:18Z</time>
      </trkpt>
      <trkpt lat="45.88116" lon="4.81824">
        <ele>167</ele>
        <time>2018-07-17T10:32:19Z</time>
      </trkpt>
      <trkpt lat="45.88121" lon="4.81813">
        <ele>167</ele>
        <time>2018-07-17T10:32:20Z</time>
      </trkpt>
      <trkpt lat="45.88124" lon="4.81805">
        <ele>167</ele>
        <time>2018-07-17T10:32:21Z</time>
      </trkpt>
      <trkpt lat="45.88128" lon="4.81797">
        <ele>167</ele>
        <time>2018-07-17T10:32:22Z</time>
      </trkpt>
      <trkpt lat="45.88129" lon="4.8179">
        <ele>167</ele>
        <time>2018-07-17T10:32:23Z</time>
      </trkpt>
      <trkpt lat="45.88132" lon="4.81783">
        <ele>167</ele>
        <time>2018-07-17T10:32:24Z</time>
      </trkpt>
      <trkpt lat="45.88134" lon="4.81776">
        <ele>167</ele>
        <time>2018-07-17T10:32:25Z</time>
      </trkpt>
      <trkpt lat="45.88138" lon="4.81769">
        <ele>167</ele>
        <time>2018-07-17T10:32:26Z</time>
      </trkpt>
      <trkpt lat="45.88141" lon="4.81761">
        <ele>167</ele>
        <time>2018-07-17T10:32:27Z</time>
      </trkpt>
      <trkpt lat="45.88143" lon="4.81754">
        <ele>166</ele>
        <time>2018-07-17T10:32:28Z</time>
      </trkpt>
      <trkpt lat="45.88146" lon="4.81746">
        <ele>168</ele>
        <time>2018-07-17T10:32:29Z</time>
      </trkpt>
      <trkpt lat="45.88148" lon="4.81737">
        <ele>169</ele>
        <time>2018-07-17T10:32:30Z</time>
      </trkpt>
      <trkpt lat="45.8815" lon="4.8173">
        <ele>169</ele>
        <time>2018-07-17T10:32:31Z</time>
      </trkpt>
      <trkpt lat="45.88153" lon="4.81723">
        <ele>169</ele>
        <time>2018-07-17T10:32:32Z</time>
      </trkpt>
      <trkpt lat="45.88156" lon="4.81714">
        <ele>170</ele>
        <time>2018-07-17T10:32:33Z</time>
      </trkpt>
      <trkpt lat="45.88159" lon="4.81707">
        <ele>170</ele>
        <time>2018-07-17T10:32:34Z</time>
      </trkpt>
      <trkpt lat="45.88162" lon="4.817">
        <ele>171</ele>
        <time>2018-07-17T10:32:35Z</time>
      </trkpt>
      <trkpt lat="45.88163" lon="4.81695">
        <ele>171</ele>
        <time>2018-07-17T10:32:36Z</time>
      </trkpt>
      <trkpt lat="45.88166" lon="4.81688">
        <ele>172</ele>
        <time>2018-07-17T10:32:37Z</time>
      </trkpt>
      <trkpt lat="45.88168" lon="4.81681">
        <ele>170</ele>
        <time>2018-07-17T10:32:38Z</time>
      </trkpt>
      <trkpt lat="45.88171" lon="4.81675">
        <ele>171</ele>
        <time>2018-07-17T10:32:39Z</time>
      </trkpt>
      <trkpt lat="45.88174" lon="4.81668">
        <ele>171</ele>
        <time>2018-07-17T10:32:40Z</time>
      </trkpt>
      <trkpt lat="45.88177" lon="4.8166">
        <ele>172</ele>
        <time>2018-07-17T10:32:41Z</time>
      </trkpt>
      <trkpt lat="45.88179" lon="4.81652">
        <ele>171</ele>
        <time>2018-07-17T10:32:42Z</time>
      </trkpt>
      <trkpt lat="45.88182" lon="4.81643">
        <ele>171</ele>
        <time>2018-07-17T10:32:43Z</time>
      </trkpt>
      <trkpt lat="45.88186" lon="4.81637">
        <ele>171</ele>
        <time>2018-07-17T10:32:44Z</time>
      </trkpt>
      <trkpt lat="45.8819" lon="4.8163">
        <ele>171</ele>
        <time>2018-07-17T10:32:45Z</time>
      </trkpt>
      <trkpt lat="45.88194" lon="4.81626">
        <ele>171</ele>
        <time>2018-07-17T10:32:46Z</time>
      </trkpt>
      <trkpt lat="45.88198" lon="4.8162">
        <ele>170</ele>
        <time>2018-07-17T10:32:47Z</time>
      </trkpt>
      <trkpt lat="45.88199" lon="4.81609">
        <ele>171</ele>
        <time>2018-07-17T10:32:48Z</time>
      </trkpt>
      <trkpt lat="45.88203" lon="4.81602">
        <ele>170</ele>
        <time>2018-07-17T10:32:49Z</time>
      </trkpt>
      <trkpt lat="45.88205" lon="4.81591">
        <ele>170</ele>
        <time>2018-07-17T10:32:50Z</time>
      </trkpt>
      <trkpt lat="45.88208" lon="4.81583">
        <ele>171</ele>
        <time>2018-07-17T10:32:51Z</time>
      </trkpt>
      <trkpt lat="45.88212" lon="4.81578">
        <ele>170</ele>
        <time>2018-07-17T10:32:52Z</time>
      </trkpt>
      <trkpt lat="45.88215" lon="4.8157">
        <ele>170</ele>
        <time>2018-07-17T10:32:53Z</time>
      </trkpt>
      <trkpt lat="45.88218" lon="4.81564">
        <ele>170</ele>
        <time>2018-07-17T10:32:54Z</time>
      </trkpt>
      <trkpt lat="45.8822" lon="4.81557">
        <ele>170</ele>
        <time>2018-07-17T10:32:55Z</time>
      </trkpt>
      <trkpt lat="45.88223" lon="4.81549">
        <ele>170</ele>
        <time>2018-07-17T10:32:56Z</time>
      </trkpt>
      <trkpt lat="45.88228" lon="4.81541">
        <ele>170</ele>
        <time>2018-07-17T10:32:57Z</time>
      </trkpt>
      <trkpt lat="45.88231" lon="4.81534">
        <ele>170</ele>
        <time>2018-07-17T10:32:58Z</time>
      </trkpt>
      <trkpt lat="45.88234" lon="4.81527">
        <ele>170</ele>
        <time>2018-07-17T10:32:59Z</time>
      </trkpt>
      <trkpt lat="45.88238" lon="4.8152">
        <ele>170</ele>
        <time>2018-07-17T10:33:00Z</time>
      </trkpt>
      <trkpt lat="45.88241" lon="4.81512">
        <ele>169</ele>
        <time>2018-07-17T10:33:01Z</time>
      </trkpt>
      <trkpt lat="45.88245" lon="4.81504">
        <ele>169</ele>
        <time>2018-07-17T10:33:02Z</time>
      </trkpt>
      <trkpt lat="45.88249" lon="4.81496">
        <ele>168</ele>
        <time>2018-07-17T10:33:03Z</time>
      </trkpt>
      <trkpt lat="45.88251" lon="4.81487">
        <ele>167</ele>
        <time>2018-07-17T10:33:04Z</time>
      </trkpt>
      <trkpt lat="45.88254" lon="4.81479">
        <ele>167</ele>
        <time>2018-07-17T10:33:05Z</time>
      </trkpt>
      <trkpt lat="45.88257" lon="4.81473">
        <ele>167</ele>
        <time>2018-07-17T10:33:06Z</time>
      </trkpt>
      <trkpt lat="45.88261" lon="4.81469">
        <ele>166</ele>
        <time>2018-07-17T10:33:07Z</time>
      </trkpt>
      <trkpt lat="45.88265" lon="4.81462">
        <ele>166</ele>
        <time>2018-07-17T10:33:08Z</time>
      </trkpt>
      <trkpt lat="45.88269" lon="4.81456">
        <ele>166</ele>
        <time>2018-07-17T10:33:09Z</time>
      </trkpt>
      <trkpt lat="45.88272" lon="4.81448">
        <ele>166</ele>
        <time>2018-07-17T10:33:10Z</time>
      </trkpt>
      <trkpt lat="45.88276" lon="4.81441">
        <ele>166</ele>
        <time>2018-07-17T10:33:11Z</time>
      </trkpt>
      <trkpt lat="45.88278" lon="4.81434">
        <ele>166</ele>
        <time>2018-07-17T10:33:12Z</time>
      </trkpt>
      <trkpt lat="45.88281" lon="4.81428">
        <ele>166</ele>
        <time>2018-07-17T10:33:13Z</time>
      </trkpt>
      <trkpt lat="45.88283" lon="4.81422">
        <ele>166</ele>
        <time>2018-07-17T10:33:14Z</time>
      </trkpt>
      <trkpt lat="45.88287" lon="4.81416">
        <ele>167</ele>
        <time>2018-07-17T10:33:15Z</time>
      </trkpt>
      <trkpt lat="45.8829" lon="4.8141">
        <ele>167</ele>
        <time>2018-07-17T10:33:16Z</time>
      </trkpt>
      <trkpt lat="45.88293" lon="4.81403">
        <ele>168</ele>
        <time>2018-07-17T10:33:17Z</time>
      </trkpt>
      <trkpt lat="45.88295" lon="4.81396">
        <ele>168</ele>
        <time>2018-07-17T10:33:18Z</time>
      </trkpt>
      <trkpt lat="45.88298" lon="4.81389">
        <ele>168</ele>
        <time>2018-07-17T10:33:19Z</time>
      </trkpt>
      <trkpt lat="45.88301" lon="4.81381">
        <ele>168</ele>
        <time>2018-07-17T10:33:20Z</time>
      </trkpt>
      <trkpt lat="45.88304" lon="4.81373">
        <ele>169</ele>
        <time>2018-07-17T10:33:21Z</time>
      </trkpt>
      <trkpt lat="45.88308" lon="4.81364">
        <ele>169</ele>
        <time>2018-07-17T10:33:22Z</time>
      </trkpt>
      <trkpt lat="45.88311" lon="4.81357">
        <ele>169</ele>
        <time>2018-07-17T10:33:23Z</time>
      </trkpt>
      <trkpt lat="45.88312" lon="4.81352">
        <ele>170</ele>
        <time>2018-07-17T10:33:24Z</time>
      </trkpt>
      <trkpt lat="45.88315" lon="4.81345">
        <ele>170</ele>
        <time>2018-07-17T10:33:25Z</time>
      </trkpt>
      <trkpt lat="45.88319" lon="4.81338">
        <ele>171</ele>
        <time>2018-07-17T10:33:26Z</time>
      </trkpt>
      <trkpt lat="45.88323" lon="4.81332">
        <ele>172</ele>
        <time>2018-07-17T10:33:27Z</time>
      </trkpt>
      <trkpt lat="45.88331" lon="4.81324">
        <ele>172</ele>
        <time>2018-07-17T10:33:28Z</time>
      </trkpt>
      <trkpt lat="45.88334" lon="4.81318">
        <ele>171</ele>
        <time>2018-07-17T10:33:29Z</time>
      </trkpt>
      <trkpt lat="45.88337" lon="4.81311">
        <ele>171</ele>
        <time>2018-07-17T10:33:30Z</time>
      </trkpt>
      <trkpt lat="45.88341" lon="4.81304">
        <ele>171</ele>
        <time>2018-07-17T10:33:31Z</time>
      </trkpt>
      <trkpt lat="45.88345" lon="4.81297">
        <ele>170</ele>
        <time>2018-07-17T10:33:32Z</time>
      </trkpt>
      <trkpt lat="45.88349" lon="4.81292">
        <ele>170</ele>
        <time>2018-07-17T10:33:33Z</time>
      </trkpt>
      <trkpt lat="45.88352" lon="4.81285">
        <ele>170</ele>
        <time>2018-07-17T10:33:34Z</time>
      </trkpt>
      <trkpt lat="45.88356" lon="4.81279">
        <ele>170</ele>
        <time>2018-07-17T10:33:35Z</time>
      </trkpt>
      <trkpt lat="45.88358" lon="4.81274">
        <ele>170</ele>
        <time>2018-07-17T10:33:36Z</time>
      </trkpt>
      <trkpt lat="45.88362" lon="4.81267">
        <ele>170</ele>
        <time>2018-07-17T10:33:37Z</time>
      </trkpt>
      <trkpt lat="45.88366" lon="4.81261">
        <ele>170</ele>
        <time>2018-07-17T10:33:38Z</time>
      </trkpt>
      <trkpt lat="45.88369" lon="4.81254">
        <ele>170</ele>
        <time>2018-07-17T10:33:39Z</time>
      </trkpt>
      <trkpt lat="45.88372" lon="4.81247">
        <ele>170</ele>
        <time>2018-07-17T10:33:40Z</time>
      </trkpt>
      <trkpt lat="45.88376" lon="4.8124">
        <ele>170</ele>
        <time>2018-07-17T10:33:41Z</time>
      </trkpt>
      <trkpt lat="45.88379" lon="4.81234">
        <ele>170</ele>
        <time>2018-07-17T10:33:42Z</time>
      </trkpt>
      <trkpt lat="45.88383" lon="4.81225">
        <ele>170</ele>
        <time>2018-07-17T10:33:43Z</time>
      </trkpt>
      <trkpt lat="45.88387" lon="4.81219">
        <ele>170</ele>
        <time>2018-07-17T10:33:44Z</time>
      </trkpt>
      <trkpt lat="45.8839" lon="4.81212">
        <ele>170</ele>
        <time>2018-07-17T10:33:45Z</time>
      </trkpt>
      <trkpt lat="45.88393" lon="4.81208">
        <ele>170</ele>
        <time>2018-07-17T10:33:46Z</time>
      </trkpt>
      <trkpt lat="45.88397" lon="4.81203">
        <ele>170</ele>
        <time>2018-07-17T10:33:47Z</time>
      </trkpt>
      <trkpt lat="45.884" lon="4.81196">
        <ele>170</ele>
        <time>2018-07-17T10:33:48Z</time>
      </trkpt>
      <trkpt lat="45.88404" lon="4.81192">
        <ele>170</ele>
        <time>2018-07-17T10:33:49Z</time>
      </trkpt>
      <trkpt lat="45.88408" lon="4.81185">
        <ele>170</ele>
        <time>2018-07-17T10:33:50Z</time>
      </trkpt>
      <trkpt lat="45.88412" lon="4.81179">
        <ele>170</ele>
        <time>2018-07-17T10:33:51Z</time>
      </trkpt>
      <trkpt lat="45.88417" lon="4.81169">
        <ele>170</ele>
        <time>2018-07-17T10:33:52Z</time>
      </trkpt>
      <trkpt lat="45.88418" lon="4.81162">
        <ele>170</ele>
        <time>2018-07-17T10:33:53Z</time>
      </trkpt>
      <trkpt lat="45.88423" lon="4.81155">
        <ele>169</ele>
        <time>2018-07-17T10:33:54Z</time>
      </trkpt>
      <trkpt lat="45.88426" lon="4.81149">
        <ele>169</ele>
        <time>2018-07-17T10:33:55Z</time>
      </trkpt>
      <trkpt lat="45.8843" lon="4.81143">
        <ele>168</ele>
        <time>2018-07-17T10:33:56Z</time>
      </trkpt>
      <trkpt lat="45.88435" lon="4.81137">
        <ele>168</ele>
        <time>2018-07-17T10:33:57Z</time>
      </trkpt>
      <trkpt lat="45.88439" lon="4.8113">
        <ele>168</ele>
        <time>2018-07-17T10:33:58Z</time>
      </trkpt>
      <trkpt lat="45.88441" lon="4.81125">
        <ele>168</ele>
        <time>2018-07-17T10:33:59Z</time>
      </trkpt>
      <trkpt lat="45.88446" lon="4.81119">
        <ele>168</ele>
        <time>2018-07-17T10:34:00Z</time>
      </trkpt>
      <trkpt lat="45.8845" lon="4.81114">
        <ele>168</ele>
        <time>2018-07-17T10:34:01Z</time>
      </trkpt>
      <trkpt lat="45.88454" lon="4.81107">
        <ele>168</ele>
        <time>2018-07-17T10:34:02Z</time>
      </trkpt>
      <trkpt lat="45.88458" lon="4.81101">
        <ele>168</ele>
        <time>2018-07-17T10:34:03Z</time>
      </trkpt>
      <trkpt lat="45.88462" lon="4.81096">
        <ele>168</ele>
        <time>2018-07-17T10:34:04Z</time>
      </trkpt>
      <trkpt lat="45.88466" lon="4.8109">
        <ele>168</ele>
        <time>2018-07-17T10:34:05Z</time>
      </trkpt>
      <trkpt lat="45.88472" lon="4.81086">
        <ele>168</ele>
        <time>2018-07-17T10:34:06Z</time>
      </trkpt>
      <trkpt lat="45.88476" lon="4.81079">
        <ele>168</ele>
        <time>2018-07-17T10:34:07Z</time>
      </trkpt>
      <trkpt lat="45.88481" lon="4.81074">
        <ele>168</ele>
        <time>2018-07-17T10:34:08Z</time>
      </trkpt>
      <trkpt lat="45.88487" lon="4.81065">
        <ele>168</ele>
        <time>2018-07-17T10:34:10Z</time>
      </trkpt>
      <trkpt lat="45.88493" lon="4.81058">
        <ele>168</ele>
        <time>2018-07-17T10:34:11Z</time>
      </trkpt>
      <trkpt lat="45.88498" lon="4.81052">
        <ele>168</ele>
        <time>2018-07-17T10:34:12Z</time>
      </trkpt>
      <trkpt lat="45.88499" lon="4.81048">
        <ele>168</ele>
        <time>2018-07-17T10:34:13Z</time>
      </trkpt>
      <trkpt lat="45.88504" lon="4.81042">
        <ele>169</ele>
        <time>2018-07-17T10:34:14Z</time>
      </trkpt>
      <trkpt lat="45.88509" lon="4.81037">
        <ele>169</ele>
        <time>2018-07-17T10:34:15Z</time>
      </trkpt>
      <trkpt lat="45.88514" lon="4.8103">
        <ele>169</ele>
        <time>2018-07-17T10:34:16Z</time>
      </trkpt>
      <trkpt lat="45.88519" lon="4.81024">
        <ele>169</ele>
        <time>2018-07-17T10:34:17Z</time>
      </trkpt>
      <trkpt lat="45.88523" lon="4.81019">
        <ele>169</ele>
        <time>2018-07-17T10:34:18Z</time>
      </trkpt>
      <trkpt lat="45.88528" lon="4.81013">
        <ele>169</ele>
        <time>2018-07-17T10:34:19Z</time>
      </trkpt>
      <trkpt lat="45.88534" lon="4.81007">
        <ele>169</ele>
        <time>2018-07-17T10:34:20Z</time>
      </trkpt>
      <trkpt lat="45.88538" lon="4.81">
        <ele>169</ele>
        <time>2018-07-17T10:34:21Z</time>
      </trkpt>
      <trkpt lat="45.88543" lon="4.80993">
        <ele>169</ele>
        <time>2018-07-17T10:34:22Z</time>
      </trkpt>
      <trkpt lat="45.88547" lon="4.80987">
        <ele>169</ele>
        <time>2018-07-17T10:34:23Z</time>
      </trkpt>
      <trkpt lat="45.88552" lon="4.80981">
        <ele>169</ele>
        <time>2018-07-17T10:34:24Z</time>
      </trkpt>
      <trkpt lat="45.88557" lon="4.80975">
        <ele>169</ele>
        <time>2018-07-17T10:34:25Z</time>
      </trkpt>
      <trkpt lat="45.8856" lon="4.80968">
        <ele>169</ele>
        <time>2018-07-17T10:34:26Z</time>
      </trkpt>
      <trkpt lat="45.88565" lon="4.80963">
        <ele>169</ele>
        <time>2018-07-17T10:34:27Z</time>
      </trkpt>
      <trkpt lat="45.88569" lon="4.80958">
        <ele>169</ele>
        <time>2018-07-17T10:34:28Z</time>
      </trkpt>
      <trkpt lat="45.88573" lon="4.80951">
        <ele>169</ele>
        <time>2018-07-17T10:34:29Z</time>
      </trkpt>
      <trkpt lat="45.88577" lon="4.80946">
        <ele>169</ele>
        <time>2018-07-17T10:34:30Z</time>
      </trkpt>
      <trkpt lat="45.88581" lon="4.80941">
        <ele>169</ele>
        <time>2018-07-17T10:34:31Z</time>
      </trkpt>
      <trkpt lat="45.88587" lon="4.80936">
        <ele>169</ele>
        <time>2018-07-17T10:34:32Z</time>
      </trkpt>
      <trkpt lat="45.88591" lon="4.80928">
        <ele>169</ele>
        <time>2018-07-17T10:34:33Z</time>
      </trkpt>
      <trkpt lat="45.88595" lon="4.80922">
        <ele>169</ele>
        <time>2018-07-17T10:34:34Z</time>
      </trkpt>
      <trkpt lat="45.886" lon="4.80917">
        <ele>169</ele>
        <time>2018-07-17T10:34:35Z</time>
      </trkpt>
      <trkpt lat="45.88605" lon="4.80911">
        <ele>170</ele>
        <time>2018-07-17T10:34:36Z</time>
      </trkpt>
      <trkpt lat="45.88609" lon="4.80908">
        <ele>170</ele>
        <time>2018-07-17T10:34:37Z</time>
      </trkpt>
      <trkpt lat="45.88615" lon="4.80902">
        <ele>171</ele>
        <time>2018-07-17T10:34:38Z</time>
      </trkpt>
      <trkpt lat="45.8862" lon="4.80897">
        <ele>171</ele>
        <time>2018-07-17T10:34:39Z</time>
      </trkpt>
      <trkpt lat="45.88624" lon="4.80893">
        <ele>171</ele>
        <time>2018-07-17T10:34:40Z</time>
      </trkpt>
      <trkpt lat="45.88629" lon="4.80886">
        <ele>171</ele>
        <time>2018-07-17T10:34:41Z</time>
      </trkpt>
      <trkpt lat="45.88632" lon="4.80882">
        <ele>171</ele>
        <time>2018-07-17T10:34:42Z</time>
      </trkpt>
      <trkpt lat="45.88636" lon="4.80878">
        <ele>171</ele>
        <time>2018-07-17T10:34:43Z</time>
      </trkpt>
      <trkpt lat="45.88641" lon="4.80873">
        <ele>171</ele>
        <time>2018-07-17T10:34:44Z</time>
      </trkpt>
      <trkpt lat="45.88645" lon="4.80869">
        <ele>171</ele>
        <time>2018-07-17T10:34:45Z</time>
      </trkpt>
      <trkpt lat="45.88652" lon="4.80861">
        <ele>171</ele>
        <time>2018-07-17T10:34:46Z</time>
      </trkpt>
      <trkpt lat="45.88656" lon="4.80855">
        <ele>171</ele>
        <time>2018-07-17T10:34:47Z</time>
      </trkpt>
      <trkpt lat="45.8866" lon="4.80847">
        <ele>171</ele>
        <time>2018-07-17T10:34:48Z</time>
      </trkpt>
      <trkpt lat="45.88665" lon="4.80841">
        <ele>171</ele>
        <time>2018-07-17T10:34:49Z</time>
      </trkpt>
      <trkpt lat="45.88671" lon="4.80838">
        <ele>171</ele>
        <time>2018-07-17T10:34:50Z</time>
      </trkpt>
      <trkpt lat="45.88675" lon="4.80833">
        <ele>171</ele>
        <time>2018-07-17T10:34:51Z</time>
      </trkpt>
      <trkpt lat="45.8868" lon="4.8083">
        <ele>171</ele>
        <time>2018-07-17T10:34:52Z</time>
      </trkpt>
      <trkpt lat="45.88684" lon="4.80825">
        <ele>171</ele>
        <time>2018-07-17T10:34:53Z</time>
      </trkpt>
      <trkpt lat="45.88688" lon="4.80821">
        <ele>171</ele>
        <time>2018-07-17T10:34:54Z</time>
      </trkpt>
      <trkpt lat="45.88693" lon="4.80816">
        <ele>171</ele>
        <time>2018-07-17T10:34:55Z</time>
      </trkpt>
      <trkpt lat="45.88697" lon="4.80812">
        <ele>171</ele>
        <time>2018-07-17T10:34:56Z</time>
      </trkpt>
      <trkpt lat="45.88701" lon="4.80806">
        <ele>171</ele>
        <time>2018-07-17T10:34:57Z</time>
      </trkpt>
      <trkpt lat="45.88706" lon="4.80801">
        <ele>170</ele>
        <time>2018-07-17T10:34:58Z</time>
      </trkpt>
      <trkpt lat="45.88709" lon="4.80797">
        <ele>170</ele>
        <time>2018-07-17T10:34:59Z</time>
      </trkpt>
      <trkpt lat="45.88714" lon="4.80792">
        <ele>170</ele>
        <time>2018-07-17T10:35:00Z</time>
      </trkpt>
      <trkpt lat="45.88718" lon="4.80789">
        <ele>170</ele>
        <time>2018-07-17T10:35:01Z</time>
      </trkpt>
      <trkpt lat="45.88722" lon="4.80784">
        <ele>170</ele>
        <time>2018-07-17T10:35:02Z</time>
      </trkpt>
      <trkpt lat="45.88727" lon="4.80778">
        <ele>170</ele>
        <time>2018-07-17T10:35:03Z</time>
      </trkpt>
      <trkpt lat="45.88731" lon="4.80774">
        <ele>170</ele>
        <time>2018-07-17T10:35:04Z</time>
      </trkpt>
      <trkpt lat="45.88736" lon="4.80769">
        <ele>170</ele>
        <time>2018-07-17T10:35:05Z</time>
      </trkpt>
      <trkpt lat="45.88742" lon="4.80763">
        <ele>170</ele>
        <time>2018-07-17T10:35:06Z</time>
      </trkpt>
      <trkpt lat="45.88749" lon="4.80755">
        <ele>169</ele>
        <time>2018-07-17T10:35:07Z</time>
      </trkpt>
      <trkpt lat="45.88754" lon="4.8075">
        <ele>169</ele>
        <time>2018-07-17T10:35:08Z</time>
      </trkpt>
      <trkpt lat="45.88759" lon="4.80744">
        <ele>170</ele>
        <time>2018-07-17T10:35:09Z</time>
      </trkpt>
      <trkpt lat="45.88764" lon="4.80741">
        <ele>170</ele>
        <time>2018-07-17T10:35:10Z</time>
      </trkpt>
      <trkpt lat="45.88769" lon="4.80736">
        <ele>171</ele>
        <time>2018-07-17T10:35:11Z</time>
      </trkpt>
      <trkpt lat="45.88774" lon="4.8073">
        <ele>171</ele>
        <time>2018-07-17T10:35:12Z</time>
      </trkpt>
      <trkpt lat="45.88779" lon="4.80723">
        <ele>171</ele>
        <time>2018-07-17T10:35:13Z</time>
      </trkpt>
      <trkpt lat="45.88784" lon="4.80718">
        <ele>172</ele>
        <time>2018-07-17T10:35:14Z</time>
      </trkpt>
      <trkpt lat="45.88789" lon="4.80713">
        <ele>172</ele>
        <time>2018-07-17T10:35:15Z</time>
      </trkpt>
      <trkpt lat="45.88792" lon="4.80706">
        <ele>172</ele>
        <time>2018-07-17T10:35:16Z</time>
      </trkpt>
      <trkpt lat="45.88796" lon="4.80702">
        <ele>172</ele>
        <time>2018-07-17T10:35:17Z</time>
      </trkpt>
      <trkpt lat="45.888" lon="4.80699">
        <ele>172</ele>
        <time>2018-07-17T10:35:18Z</time>
      </trkpt>
      <trkpt lat="45.88804" lon="4.80695">
        <ele>172</ele>
        <time>2018-07-17T10:35:19Z</time>
      </trkpt>
      <trkpt lat="45.88808" lon="4.8069">
        <ele>172</ele>
        <time>2018-07-17T10:35:20Z</time>
      </trkpt>
      <trkpt lat="45.88814" lon="4.80686">
        <ele>172</ele>
        <time>2018-07-17T10:35:21Z</time>
      </trkpt>
      <trkpt lat="45.88819" lon="4.80681">
        <ele>172</ele>
        <time>2018-07-17T10:35:22Z</time>
      </trkpt>
      <trkpt lat="45.88824" lon="4.80678">
        <ele>172</ele>
        <time>2018-07-17T10:35:23Z</time>
      </trkpt>
      <trkpt lat="45.8883" lon="4.80673">
        <ele>173</ele>
        <time>2018-07-17T10:35:24Z</time>
      </trkpt>
      <trkpt lat="45.88835" lon="4.80667">
        <ele>173</ele>
        <time>2018-07-17T10:35:25Z</time>
      </trkpt>
      <trkpt lat="45.88839" lon="4.80664">
        <ele>173</ele>
        <time>2018-07-17T10:35:26Z</time>
      </trkpt>
      <trkpt lat="45.88844" lon="4.80659">
        <ele>173</ele>
        <time>2018-07-17T10:35:27Z</time>
      </trkpt>
      <trkpt lat="45.88849" lon="4.80656">
        <ele>173</ele>
        <time>2018-07-17T10:35:28Z</time>
      </trkpt>
      <trkpt lat="45.88854" lon="4.80652">
        <ele>172</ele>
        <time>2018-07-17T10:35:29Z</time>
      </trkpt>
      <trkpt lat="45.88857" lon="4.80649">
        <ele>172</ele>
        <time>2018-07-17T10:35:30Z</time>
      </trkpt>
      <trkpt lat="45.88862" lon="4.80646">
        <ele>172</ele>
        <time>2018-07-17T10:35:31Z</time>
      </trkpt>
      <trkpt lat="45.88869" lon="4.80639">
        <ele>172</ele>
        <time>2018-07-17T10:35:33Z</time>
      </trkpt>
      <trkpt lat="45.88874" lon="4.80635">
        <ele>172</ele>
        <time>2018-07-17T10:35:34Z</time>
      </trkpt>
      <trkpt lat="45.88878" lon="4.80631">
        <ele>172</ele>
        <time>2018-07-17T10:35:35Z</time>
      </trkpt>
      <trkpt lat="45.88883" lon="4.80627">
        <ele>172</ele>
        <time>2018-07-17T10:35:36Z</time>
      </trkpt>
      <trkpt lat="45.88888" lon="4.80623">
        <ele>172</ele>
        <time>2018-07-17T10:35:37Z</time>
      </trkpt>
      <trkpt lat="45.88894" lon="4.8062">
        <ele>172</ele>
        <time>2018-07-17T10:35:38Z</time>
      </trkpt>
      <trkpt lat="45.88898" lon="4.80616">
        <ele>172</ele>
        <time>2018-07-17T10:35:39Z</time>
      </trkpt>
      <trkpt lat="45.88903" lon="4.80614">
        <ele>172</ele>
        <time>2018-07-17T10:35:40Z</time>
      </trkpt>
      <trkpt lat="45.88908" lon="4.80612">
        <ele>172</ele>
        <time>2018-07-17T10:35:41Z</time>
      </trkpt>
      <trkpt lat="45.88913" lon="4.80609">
        <ele>172</ele>
        <time>2018-07-17T10:35:42Z</time>
      </trkpt>
      <trkpt lat="45.88918" lon="4.80606">
        <ele>170</ele>
        <time>2018-07-17T10:35:43Z</time>
      </trkpt>
      <trkpt lat="45.88922" lon="4.80602">
        <ele>170</ele>
        <time>2018-07-17T10:35:44Z</time>
      </trkpt>
      <trkpt lat="45.88926" lon="4.80598">
        <ele>170</ele>
        <time>2018-07-17T10:35:45Z</time>
      </trkpt>
      <trkpt lat="45.8893" lon="4.80596">
        <ele>170</ele>
        <time>2018-07-17T10:35:46Z</time>
      </trkpt>
      <trkpt lat="45.88935" lon="4.80593">
        <ele>170</ele>
        <time>2018-07-17T10:35:47Z</time>
      </trkpt>
      <trkpt lat="45.8894" lon="4.8059">
        <ele>170</ele>
        <time>2018-07-17T10:35:48Z</time>
      </trkpt>
      <trkpt lat="45.88945" lon="4.80587">
        <ele>170</ele>
        <time>2018-07-17T10:35:49Z</time>
      </trkpt>
      <trkpt lat="45.8895" lon="4.80583">
        <ele>172</ele>
        <time>2018-07-17T10:35:50Z</time>
      </trkpt>
      <trkpt lat="45.88958" lon="4.80582">
        <ele>172</ele>
        <time>2018-07-17T10:35:51Z</time>
      </trkpt>
      <trkpt lat="45.88963" lon="4.80579">
        <ele>172</ele>
        <time>2018-07-17T10:35:52Z</time>
      </trkpt>
      <trkpt lat="45.88967" lon="4.80581">
        <ele>172</ele>
        <time>2018-07-17T10:35:53Z</time>
      </trkpt>
      <trkpt lat="45.88974" lon="4.80578">
        <ele>172</ele>
        <time>2018-07-17T10:35:54Z</time>
      </trkpt>
      <trkpt lat="45.88979" lon="4.80577">
        <ele>172</ele>
        <time>2018-07-17T10:35:55Z</time>
      </trkpt>
      <trkpt lat="45.88985" lon="4.80575">
        <ele>172</ele>
        <time>2018-07-17T10:35:56Z</time>
      </trkpt>
      <trkpt lat="45.88988" lon="4.80575">
        <ele>171</ele>
        <time>2018-07-17T10:35:57Z</time>
      </trkpt>
      <trkpt lat="45.88995" lon="4.80572">
        <ele>171</ele>
        <time>2018-07-17T10:35:58Z</time>
      </trkpt>
      <trkpt lat="45.89001" lon="4.8057">
        <ele>171</ele>
        <time>2018-07-17T10:35:59Z</time>
      </trkpt>
      <trkpt lat="45.89006" lon="4.80569">
        <ele>171</ele>
        <time>2018-07-17T10:36:00Z</time>
      </trkpt>
      <trkpt lat="45.89012" lon="4.80567">
        <ele>172</ele>
        <time>2018-07-17T10:36:01Z</time>
      </trkpt>
      <trkpt lat="45.8902" lon="4.80562">
        <ele>172</ele>
        <time>2018-07-17T10:36:02Z</time>
      </trkpt>
      <trkpt lat="45.89024" lon="4.80565">
        <ele>172</ele>
        <time>2018-07-17T10:36:04Z</time>
      </trkpt>
      <trkpt lat="45.8903" lon="4.80563">
        <ele>172</ele>
        <time>2018-07-17T10:36:05Z</time>
      </trkpt>
      <trkpt lat="45.89038" lon="4.80556">
        <ele>172</ele>
        <time>2018-07-17T10:36:06Z</time>
      </trkpt>
      <trkpt lat="45.89043" lon="4.80554">
        <ele>172</ele>
        <time>2018-07-17T10:36:07Z</time>
      </trkpt>
      <trkpt lat="45.8905" lon="4.8055">
        <ele>173</ele>
        <time>2018-07-17T10:36:08Z</time>
      </trkpt>
      <trkpt lat="45.89059" lon="4.80549">
        <ele>173</ele>
        <time>2018-07-17T10:36:10Z</time>
      </trkpt>
      <trkpt lat="45.89064" lon="4.80546">
        <ele>173</ele>
        <time>2018-07-17T10:36:11Z</time>
      </trkpt>
      <trkpt lat="45.8907" lon="4.80544">
        <ele>173</ele>
        <time>2018-07-17T10:36:12Z</time>
      </trkpt>
      <trkpt lat="45.89075" lon="4.80541">
        <ele>173</ele>
        <time>2018-07-17T10:36:13Z</time>
      </trkpt>
      <trkpt lat="45.89082" lon="4.80538">
        <ele>173</ele>
        <time>2018-07-17T10:36:14Z</time>
      </trkpt>
      <trkpt lat="45.89087" lon="4.80535">
        <ele>173</ele>
        <time>2018-07-17T10:36:15Z</time>
      </trkpt>
      <trkpt lat="45.89093" lon="4.80533">
        <ele>173</ele>
        <time>2018-07-17T10:36:16Z</time>
      </trkpt>
      <trkpt lat="45.89098" lon="4.80531">
        <ele>173</ele>
        <time>2018-07-17T10:36:17Z</time>
      </trkpt>
      <trkpt lat="45.89103" lon="4.8053">
        <ele>173</ele>
        <time>2018-07-17T10:36:18Z</time>
      </trkpt>
      <trkpt lat="45.8911" lon="4.80525">
        <ele>173</ele>
        <time>2018-07-17T10:36:19Z</time>
      </trkpt>
      <trkpt lat="45.89115" lon="4.80522">
        <ele>173</ele>
        <time>2018-07-17T10:36:20Z</time>
      </trkpt>
      <trkpt lat="45.89122" lon="4.80518">
        <ele>173</ele>
        <time>2018-07-17T10:36:21Z</time>
      </trkpt>
      <trkpt lat="45.89128" lon="4.80514">
        <ele>173</ele>
        <time>2018-07-17T10:36:22Z</time>
      </trkpt>
      <trkpt lat="45.89133" lon="4.80513">
        <ele>173</ele>
        <time>2018-07-17T10:36:23Z</time>
      </trkpt>
      <trkpt lat="45.89139" lon="4.80509">
        <ele>173</ele>
        <time>2018-07-17T10:36:24Z</time>
      </trkpt>
      <trkpt lat="45.89144" lon="4.80508">
        <ele>173</ele>
        <time>2018-07-17T10:36:25Z</time>
      </trkpt>
      <trkpt lat="45.8915" lon="4.80505">
        <ele>173</ele>
        <time>2018-07-17T10:36:26Z</time>
      </trkpt>
      <trkpt lat="45.89154" lon="4.80502">
        <ele>173</ele>
        <time>2018-07-17T10:36:27Z</time>
      </trkpt>
      <trkpt lat="45.8916" lon="4.80498">
        <ele>174</ele>
        <time>2018-07-17T10:36:28Z</time>
      </trkpt>
      <trkpt lat="45.89164" lon="4.80496">
        <ele>174</ele>
        <time>2018-07-17T10:36:29Z</time>
      </trkpt>
      <trkpt lat="45.89168" lon="4.80495">
        <ele>173</ele>
        <time>2018-07-17T10:36:30Z</time>
      </trkpt>
      <trkpt lat="45.89173" lon="4.80488">
        <ele>173</ele>
        <time>2018-07-17T10:36:31Z</time>
      </trkpt>
      <trkpt lat="45.89178" lon="4.80484">
        <ele>173</ele>
        <time>2018-07-17T10:36:32Z</time>
      </trkpt>
      <trkpt lat="45.89182" lon="4.80483">
        <ele>173</ele>
        <time>2018-07-17T10:36:33Z</time>
      </trkpt>
      <trkpt lat="45.89187" lon="4.80475">
        <ele>174</ele>
        <time>2018-07-17T10:36:34Z</time>
      </trkpt>
      <trkpt lat="45.89192" lon="4.8047">
        <ele>174</ele>
        <time>2018-07-17T10:36:35Z</time>
      </trkpt>
      <trkpt lat="45.89198" lon="4.80465">
        <ele>174</ele>
        <time>2018-07-17T10:36:37Z</time>
      </trkpt>
      <trkpt lat="45.89202" lon="4.80461">
        <ele>174</ele>
        <time>2018-07-17T10:36:38Z</time>
      </trkpt>
      <trkpt lat="45.8921" lon="4.80459">
        <ele>173</ele>
        <time>2018-07-17T10:36:40Z</time>
      </trkpt>
      <trkpt lat="45.89214" lon="4.80455">
        <ele>173</ele>
        <time>2018-07-17T10:36:41Z</time>
      </trkpt>
      <trkpt lat="45.89219" lon="4.80452">
        <ele>173</ele>
        <time>2018-07-17T10:36:42Z</time>
      </trkpt>
      <trkpt lat="45.89224" lon="4.8045">
        <ele>173</ele>
        <time>2018-07-17T10:36:43Z</time>
      </trkpt>
      <trkpt lat="45.89227" lon="4.80446">
        <ele>173</ele>
        <time>2018-07-17T10:36:44Z</time>
      </trkpt>
      <trkpt lat="45.89235" lon="4.80432">
        <ele>173</ele>
        <time>2018-07-17T10:36:45Z</time>
      </trkpt>
      <trkpt lat="45.8924" lon="4.80429">
        <ele>173</ele>
        <time>2018-07-17T10:36:46Z</time>
      </trkpt>
      <trkpt lat="45.89245" lon="4.80423">
        <ele>173</ele>
        <time>2018-07-17T10:36:47Z</time>
      </trkpt>
      <trkpt lat="45.89249" lon="4.8042">
        <ele>173</ele>
        <time>2018-07-17T10:36:48Z</time>
      </trkpt>
      <trkpt lat="45.89254" lon="4.80417">
        <ele>173</ele>
        <time>2018-07-17T10:36:49Z</time>
      </trkpt>
      <trkpt lat="45.8926" lon="4.80411">
        <ele>173</ele>
        <time>2018-07-17T10:36:50Z</time>
      </trkpt>
      <trkpt lat="45.89264" lon="4.80407">
        <ele>174</ele>
        <time>2018-07-17T10:36:51Z</time>
      </trkpt>
      <trkpt lat="45.89269" lon="4.80403">
        <ele>174</ele>
        <time>2018-07-17T10:36:52Z</time>
      </trkpt>
      <trkpt lat="45.89272" lon="4.80401">
        <ele>174</ele>
        <time>2018-07-17T10:36:53Z</time>
      </trkpt>
      <trkpt lat="45.8928" lon="4.80394">
        <ele>174</ele>
        <time>2018-07-17T10:36:55Z</time>
      </trkpt>
      <trkpt lat="45.89284" lon="4.80391">
        <ele>174</ele>
        <time>2018-07-17T10:36:56Z</time>
      </trkpt>
      <trkpt lat="45.89288" lon="4.80388">
        <ele>174</ele>
        <time>2018-07-17T10:36:57Z</time>
      </trkpt>
      <trkpt lat="45.89293" lon="4.80383">
        <ele>174</ele>
        <time>2018-07-17T10:36:58Z</time>
      </trkpt>
      <trkpt lat="45.89296" lon="4.80379">
        <ele>174</ele>
        <time>2018-07-17T10:36:59Z</time>
      </trkpt>
      <trkpt lat="45.89301" lon="4.80374">
        <ele>174</ele>
        <time>2018-07-17T10:37:00Z</time>
      </trkpt>
      <trkpt lat="45.89306" lon="4.80368">
        <ele>174</ele>
        <time>2018-07-17T10:37:01Z</time>
      </trkpt>
      <trkpt lat="45.89309" lon="4.80362">
        <ele>174</ele>
        <time>2018-07-17T10:37:02Z</time>
      </trkpt>
      <trkpt lat="45.89313" lon="4.80359">
        <ele>174</ele>
        <time>2018-07-17T10:37:03Z</time>
      </trkpt>
      <trkpt lat="45.89317" lon="4.80355">
        <ele>174</ele>
        <time>2018-07-17T10:37:04Z</time>
      </trkpt>
      <trkpt lat="45.89321" lon="4.80351">
        <ele>175</ele>
        <time>2018-07-17T10:37:05Z</time>
      </trkpt>
      <trkpt lat="45.89326" lon="4.80346">
        <ele>175</ele>
        <time>2018-07-17T10:37:06Z</time>
      </trkpt>
      <trkpt lat="45.89332" lon="4.80341">
        <ele>175</ele>
        <time>2018-07-17T10:37:07Z</time>
      </trkpt>
      <trkpt lat="45.89337" lon="4.80337">
        <ele>174</ele>
        <time>2018-07-17T10:37:08Z</time>
      </trkpt>
      <trkpt lat="45.89343" lon="4.80332">
        <ele>175</ele>
        <time>2018-07-17T10:37:09Z</time>
      </trkpt>
      <trkpt lat="45.89347" lon="4.80327">
        <ele>176</ele>
        <time>2018-07-17T10:37:10Z</time>
      </trkpt>
      <trkpt lat="45.89352" lon="4.80324">
        <ele>176</ele>
        <time>2018-07-17T10:37:11Z</time>
      </trkpt>
      <trkpt lat="45.89356" lon="4.80323">
        <ele>176</ele>
        <time>2018-07-17T10:37:12Z</time>
      </trkpt>
      <trkpt lat="45.89362" lon="4.80317">
        <ele>176</ele>
        <time>2018-07-17T10:37:13Z</time>
      </trkpt>
      <trkpt lat="45.89368" lon="4.80312">
        <ele>176</ele>
        <time>2018-07-17T10:37:14Z</time>
      </trkpt>
      <trkpt lat="45.89375" lon="4.80307">
        <ele>176</ele>
        <time>2018-07-17T10:37:16Z</time>
      </trkpt>
      <trkpt lat="45.8938" lon="4.80303">
        <ele>176</ele>
        <time>2018-07-17T10:37:17Z</time>
      </trkpt>
      <trkpt lat="45.89388" lon="4.80299">
        <ele>176</ele>
        <time>2018-07-17T10:37:19Z</time>
      </trkpt>
      <trkpt lat="45.89393" lon="4.80295">
        <ele>176</ele>
        <time>2018-07-17T10:37:20Z</time>
      </trkpt>
      <trkpt lat="45.89398" lon="4.80292">
        <ele>176</ele>
        <time>2018-07-17T10:37:21Z</time>
      </trkpt>
      <trkpt lat="45.89403" lon="4.80289">
        <ele>176</ele>
        <time>2018-07-17T10:37:22Z</time>
      </trkpt>
      <trkpt lat="45.89409" lon="4.80284">
        <ele>177</ele>
        <time>2018-07-17T10:37:23Z</time>
      </trkpt>
      <trkpt lat="45.89413" lon="4.80283">
        <ele>177</ele>
        <time>2018-07-17T10:37:24Z</time>
      </trkpt>
      <trkpt lat="45.89418" lon="4.80281">
        <ele>175</ele>
        <time>2018-07-17T10:37:25Z</time>
      </trkpt>
      <trkpt lat="45.89423" lon="4.80278">
        <ele>175</ele>
        <time>2018-07-17T10:37:26Z</time>
      </trkpt>
      <trkpt lat="45.89428" lon="4.80276">
        <ele>175</ele>
        <time>2018-07-17T10:37:27Z</time>
      </trkpt>
      <trkpt lat="45.89432" lon="4.80273">
        <ele>175</ele>
        <time>2018-07-17T10:37:28Z</time>
      </trkpt>
      <trkpt lat="45.89438" lon="4.80269">
        <ele>175</ele>
        <time>2018-07-17T10:37:29Z</time>
      </trkpt>
      <trkpt lat="45.89445" lon="4.80264">
        <ele>175</ele>
        <time>2018-07-17T10:37:30Z</time>
      </trkpt>
      <trkpt lat="45.8945" lon="4.80262">
        <ele>175</ele>
        <time>2018-07-17T10:37:31Z</time>
      </trkpt>
      <trkpt lat="45.89455" lon="4.80258">
        <ele>174</ele>
        <time>2018-07-17T10:37:32Z</time>
      </trkpt>
      <trkpt lat="45.89461" lon="4.80256">
        <ele>174</ele>
        <time>2018-07-17T10:37:33Z</time>
      </trkpt>
      <trkpt lat="45.89465" lon="4.80254">
        <ele>174</ele>
        <time>2018-07-17T10:37:34Z</time>
      </trkpt>
      <trkpt lat="45.8947" lon="4.80252">
        <ele>174</ele>
        <time>2018-07-17T10:37:35Z</time>
      </trkpt>
      <trkpt lat="45.89477" lon="4.80248">
        <ele>175</ele>
        <time>2018-07-17T10:37:36Z</time>
      </trkpt>
      <trkpt lat="45.89484" lon="4.80243">
        <ele>175</ele>
        <time>2018-07-17T10:37:37Z</time>
      </trkpt>
      <trkpt lat="45.89488" lon="4.80241">
        <ele>175</ele>
        <time>2018-07-17T10:37:38Z</time>
      </trkpt>
      <trkpt lat="45.89493" lon="4.80239">
        <ele>174</ele>
        <time>2018-07-17T10:37:39Z</time>
      </trkpt>
      <trkpt lat="45.89498" lon="4.80238">
        <ele>174</ele>
        <time>2018-07-17T10:37:40Z</time>
      </trkpt>
      <trkpt lat="45.89503" lon="4.80236">
        <ele>173</ele>
        <time>2018-07-17T10:37:41Z</time>
      </trkpt>
      <trkpt lat="45.89508" lon="4.80234">
        <ele>173</ele>
        <time>2018-07-17T10:37:42Z</time>
      </trkpt>
      <trkpt lat="45.89513" lon="4.80232">
        <ele>173</ele>
        <time>2018-07-17T10:37:43Z</time>
      </trkpt>
      <trkpt lat="45.89521" lon="4.80227">
        <ele>173</ele>
        <time>2018-07-17T10:37:44Z</time>
      </trkpt>
      <trkpt lat="45.89526" lon="4.80225">
        <ele>173</ele>
        <time>2018-07-17T10:37:45Z</time>
      </trkpt>
      <trkpt lat="45.89531" lon="4.80224">
        <ele>173</ele>
        <time>2018-07-17T10:37:46Z</time>
      </trkpt>
      <trkpt lat="45.89537" lon="4.80221">
        <ele>173</ele>
        <time>2018-07-17T10:37:47Z</time>
      </trkpt>
      <trkpt lat="45.89543" lon="4.80218">
        <ele>173</ele>
        <time>2018-07-17T10:37:48Z</time>
      </trkpt>
      <trkpt lat="45.89548" lon="4.80216">
        <ele>173</ele>
        <time>2018-07-17T10:37:49Z</time>
      </trkpt>
      <trkpt lat="45.89552" lon="4.80215">
        <ele>173</ele>
        <time>2018-07-17T10:37:50Z</time>
      </trkpt>
      <trkpt lat="45.89557" lon="4.80213">
        <ele>173</ele>
        <time>2018-07-17T10:37:51Z</time>
      </trkpt>
      <trkpt lat="45.89563" lon="4.8021">
        <ele>173</ele>
        <time>2018-07-17T10:37:52Z</time>
      </trkpt>
      <trkpt lat="45.89566" lon="4.8021">
        <ele>173</ele>
        <time>2018-07-17T10:37:53Z</time>
      </trkpt>
      <trkpt lat="45.89572" lon="4.80206">
        <ele>173</ele>
        <time>2018-07-17T10:37:54Z</time>
      </trkpt>
      <trkpt lat="45.89578" lon="4.80204">
        <ele>173</ele>
        <time>2018-07-17T10:37:55Z</time>
      </trkpt>
      <trkpt lat="45.89583" lon="4.80202">
        <ele>173</ele>
        <time>2018-07-17T10:37:56Z</time>
      </trkpt>
      <trkpt lat="45.89589" lon="4.80199">
        <ele>172</ele>
        <time>2018-07-17T10:37:57Z</time>
      </trkpt>
      <trkpt lat="45.89594" lon="4.80199">
        <ele>172</ele>
        <time>2018-07-17T10:37:58Z</time>
      </trkpt>
      <trkpt lat="45.89602" lon="4.802">
        <ele>172</ele>
        <time>2018-07-17T10:38:00Z</time>
      </trkpt>
      <trkpt lat="45.89607" lon="4.80195">
        <ele>172</ele>
        <time>2018-07-17T10:38:01Z</time>
      </trkpt>
      <trkpt lat="45.89612" lon="4.80193">
        <ele>172</ele>
        <time>2018-07-17T10:38:02Z</time>
      </trkpt>
      <trkpt lat="45.89619" lon="4.80191">
        <ele>172</ele>
        <time>2018-07-17T10:38:03Z</time>
      </trkpt>
      <trkpt lat="45.89627" lon="4.80185">
        <ele>172</ele>
        <time>2018-07-17T10:38:04Z</time>
      </trkpt>
      <trkpt lat="45.89632" lon="4.80183">
        <ele>172</ele>
        <time>2018-07-17T10:38:05Z</time>
      </trkpt>
      <trkpt lat="45.89639" lon="4.80179">
        <ele>172</ele>
        <time>2018-07-17T10:38:06Z</time>
      </trkpt>
      <trkpt lat="45.89642" lon="4.80178">
        <ele>172</ele>
        <time>2018-07-17T10:38:07Z</time>
      </trkpt>
      <trkpt lat="45.89647" lon="4.80176">
        <ele>172</ele>
        <time>2018-07-17T10:38:08Z</time>
      </trkpt>
      <trkpt lat="45.89652" lon="4.80173">
        <ele>172</ele>
        <time>2018-07-17T10:38:09Z</time>
      </trkpt>
      <trkpt lat="45.89656" lon="4.80172">
        <ele>173</ele>
        <time>2018-07-17T10:38:10Z</time>
      </trkpt>
      <trkpt lat="45.89661" lon="4.8017">
        <ele>173</ele>
        <time>2018-07-17T10:38:11Z</time>
      </trkpt>
      <trkpt lat="45.89667" lon="4.80167">
        <ele>173</ele>
        <time>2018-07-17T10:38:12Z</time>
      </trkpt>
      <trkpt lat="45.89672" lon="4.80165">
        <ele>173</ele>
        <time>2018-07-17T10:38:13Z</time>
      </trkpt>
      <trkpt lat="45.89677" lon="4.80164">
        <ele>172</ele>
        <time>2018-07-17T10:38:14Z</time>
      </trkpt>
      <trkpt lat="45.89682" lon="4.80163">
        <ele>172</ele>
        <time>2018-07-17T10:38:15Z</time>
      </trkpt>
      <trkpt lat="45.89688" lon="4.80159">
        <ele>172</ele>
        <time>2018-07-17T10:38:16Z</time>
      </trkpt>
      <trkpt lat="45.89692" lon="4.80157">
        <ele>172</ele>
        <time>2018-07-17T10:38:17Z</time>
      </trkpt>
      <trkpt lat="45.89697" lon="4.80154">
        <ele>172</ele>
        <time>2018-07-17T10:38:18Z</time>
      </trkpt>
      <trkpt lat="45.89701" lon="4.80153">
        <ele>171</ele>
        <time>2018-07-17T10:38:19Z</time>
      </trkpt>
      <trkpt lat="45.89706" lon="4.80151">
        <ele>171</ele>
        <time>2018-07-17T10:38:20Z</time>
      </trkpt>
      <trkpt lat="45.89712" lon="4.80149">
        <ele>171</ele>
        <time>2018-07-17T10:38:21Z</time>
      </trkpt>
      <trkpt lat="45.89717" lon="4.80148">
        <ele>171</ele>
        <time>2018-07-17T10:38:22Z</time>
      </trkpt>
      <trkpt lat="45.89724" lon="4.80145">
        <ele>171</ele>
        <time>2018-07-17T10:38:23Z</time>
      </trkpt>
      <trkpt lat="45.89729" lon="4.80143">
        <ele>171</ele>
        <time>2018-07-17T10:38:24Z</time>
      </trkpt>
      <trkpt lat="45.89733" lon="4.80142">
        <ele>171</ele>
        <time>2018-07-17T10:38:25Z</time>
      </trkpt>
      <trkpt lat="45.89737" lon="4.80141">
        <ele>171</ele>
        <time>2018-07-17T10:38:26Z</time>
      </trkpt>
      <trkpt lat="45.89744" lon="4.80135">
        <ele>171</ele>
        <time>2018-07-17T10:38:27Z</time>
      </trkpt>
      <trkpt lat="45.89752" lon="4.80131">
        <ele>169</ele>
        <time>2018-07-17T10:38:29Z</time>
      </trkpt>
      <trkpt lat="45.89756" lon="4.80129">
        <ele>169</ele>
        <time>2018-07-17T10:38:30Z</time>
      </trkpt>
      <trkpt lat="45.89765" lon="4.80121">
        <ele>169</ele>
        <time>2018-07-17T10:38:31Z</time>
      </trkpt>
      <trkpt lat="45.89771" lon="4.80117">
        <ele>169</ele>
        <time>2018-07-17T10:38:32Z</time>
      </trkpt>
      <trkpt lat="45.89776" lon="4.80116">
        <ele>169</ele>
        <time>2018-07-17T10:38:33Z</time>
      </trkpt>
      <trkpt lat="45.89782" lon="4.80114">
        <ele>169</ele>
        <time>2018-07-17T10:38:34Z</time>
      </trkpt>
      <trkpt lat="45.89785" lon="4.80115">
        <ele>169</ele>
        <time>2018-07-17T10:38:35Z</time>
      </trkpt>
      <trkpt lat="45.8979" lon="4.80113">
        <ele>169</ele>
        <time>2018-07-17T10:38:36Z</time>
      </trkpt>
      <trkpt lat="45.89796" lon="4.80111">
        <ele>169</ele>
        <time>2018-07-17T10:38:37Z</time>
      </trkpt>
      <trkpt lat="45.89801" lon="4.80108">
        <ele>169</ele>
        <time>2018-07-17T10:38:38Z</time>
      </trkpt>
      <trkpt lat="45.89807" lon="4.80105">
        <ele>169</ele>
        <time>2018-07-17T10:38:39Z</time>
      </trkpt>
      <trkpt lat="45.89814" lon="4.80102">
        <ele>169</ele>
        <time>2018-07-17T10:38:40Z</time>
      </trkpt>
      <trkpt lat="45.8982" lon="4.80099">
        <ele>169</ele>
        <time>2018-07-17T10:38:41Z</time>
      </trkpt>
      <trkpt lat="45.89826" lon="4.80097">
        <ele>170</ele>
        <time>2018-07-17T10:38:42Z</time>
      </trkpt>
      <trkpt lat="45.89831" lon="4.80095">
        <ele>170</ele>
        <time>2018-07-17T10:38:43Z</time>
      </trkpt>
      <trkpt lat="45.89836" lon="4.80093">
        <ele>170</ele>
        <time>2018-07-17T10:38:44Z</time>
      </trkpt>
      <trkpt lat="45.89841" lon="4.80091">
        <ele>170</ele>
        <time>2018-07-17T10:38:45Z</time>
      </trkpt>
      <trkpt lat="45.89846" lon="4.80089">
        <ele>170</ele>
        <time>2018-07-17T10:38:46Z</time>
      </trkpt>
      <trkpt lat="45.8985" lon="4.80087">
        <ele>170</ele>
        <time>2018-07-17T10:38:47Z</time>
      </trkpt>
      <trkpt lat="45.89859" lon="4.80086">
        <ele>170</ele>
        <time>2018-07-17T10:38:49Z</time>
      </trkpt>
      <trkpt lat="45.89868" lon="4.80081">
        <ele>170</ele>
        <time>2018-07-17T10:38:50Z</time>
      </trkpt>
      <trkpt lat="45.89872" lon="4.8008">
        <ele>170</ele>
        <time>2018-07-17T10:38:51Z</time>
      </trkpt>
      <trkpt lat="45.89877" lon="4.80077">
        <ele>170</ele>
        <time>2018-07-17T10:38:52Z</time>
      </trkpt>
      <trkpt lat="45.89882" lon="4.80075">
        <ele>170</ele>
        <time>2018-07-17T10:38:53Z</time>
      </trkpt>
      <trkpt lat="45.89886" lon="4.80073">
        <ele>170</ele>
        <time>2018-07-17T10:38:54Z</time>
      </trkpt>
      <trkpt lat="45.89891" lon="4.8007">
        <ele>170</ele>
        <time>2018-07-17T10:38:55Z</time>
      </trkpt>
      <trkpt lat="45.89897" lon="4.80066">
        <ele>170</ele>
        <time>2018-07-17T10:38:56Z</time>
      </trkpt>
      <trkpt lat="45.89902" lon="4.80063">
        <ele>170</ele>
        <time>2018-07-17T10:38:57Z</time>
      </trkpt>
      <trkpt lat="45.89907" lon="4.8006">
        <ele>170</ele>
        <time>2018-07-17T10:38:58Z</time>
      </trkpt>
      <trkpt lat="45.89913" lon="4.80054">
        <ele>170</ele>
        <time>2018-07-17T10:38:59Z</time>
      </trkpt>
      <trkpt lat="45.89917" lon="4.80053">
        <ele>170</ele>
        <time>2018-07-17T10:39:00Z</time>
      </trkpt>
      <trkpt lat="45.89925" lon="4.80053">
        <ele>170</ele>
        <time>2018-07-17T10:39:02Z</time>
      </trkpt>
      <trkpt lat="45.89929" lon="4.80053">
        <ele>170</ele>
        <time>2018-07-17T10:39:03Z</time>
      </trkpt>
      <trkpt lat="45.89934" lon="4.80051">
        <ele>170</ele>
        <time>2018-07-17T10:39:04Z</time>
      </trkpt>
      <trkpt lat="45.89939" lon="4.80049">
        <ele>170</ele>
        <time>2018-07-17T10:39:05Z</time>
      </trkpt>
      <trkpt lat="45.89944" lon="4.80046">
        <ele>170</ele>
        <time>2018-07-17T10:39:06Z</time>
      </trkpt>
      <trkpt lat="45.89949" lon="4.80044">
        <ele>170</ele>
        <time>2018-07-17T10:39:07Z</time>
      </trkpt>
      <trkpt lat="45.89958" lon="4.80046">
        <ele>170</ele>
        <time>2018-07-17T10:39:09Z</time>
      </trkpt>
      <trkpt lat="45.89962" lon="4.80044">
        <ele>170</ele>
        <time>2018-07-17T10:39:10Z</time>
      </trkpt>
      <trkpt lat="45.8997" lon="4.80037">
        <ele>170</ele>
        <time>2018-07-17T10:39:11Z</time>
      </trkpt>
      <trkpt lat="45.89975" lon="4.80035">
        <ele>170</ele>
        <time>2018-07-17T10:39:12Z</time>
      </trkpt>
      <trkpt lat="45.8998" lon="4.80035">
        <ele>170</ele>
        <time>2018-07-17T10:39:13Z</time>
      </trkpt>
      <trkpt lat="45.89985" lon="4.80032">
        <ele>170</ele>
        <time>2018-07-17T10:39:14Z</time>
      </trkpt>
      <trkpt lat="45.89992" lon="4.80035">
        <ele>170</ele>
        <time>2018-07-17T10:39:16Z</time>
      </trkpt>
      <trkpt lat="45.89997" lon="4.80032">
        <ele>170</ele>
        <time>2018-07-17T10:39:17Z</time>
      </trkpt>
      <trkpt lat="45.90004" lon="4.80032">
        <ele>170</ele>
        <time>2018-07-17T10:39:19Z</time>
      </trkpt>
      <trkpt lat="45.9001" lon="4.80029">
        <ele>170</ele>
        <time>2018-07-17T10:39:20Z</time>
      </trkpt>
      <trkpt lat="45.90015" lon="4.80033">
        <ele>170</ele>
        <time>2018-07-17T10:39:22Z</time>
      </trkpt>
      <trkpt lat="45.90023" lon="4.80028">
        <ele>170</ele>
        <time>2018-07-17T10:39:23Z</time>
      </trkpt>
      <trkpt lat="45.90029" lon="4.80024">
        <ele>170</ele>
        <time>2018-07-17T10:39:24Z</time>
      </trkpt>
      <trkpt lat="45.90035" lon="4.8002">
        <ele>170</ele>
        <time>2018-07-17T10:39:25Z</time>
      </trkpt>
      <trkpt lat="45.90042" lon="4.80014">
        <ele>170</ele>
        <time>2018-07-17T10:39:26Z</time>
      </trkpt>
      <trkpt lat="45.90048" lon="4.80012">
        <ele>170</ele>
        <time>2018-07-17T10:39:27Z</time>
      </trkpt>
      <trkpt lat="45.90052" lon="4.80011">
        <ele>170</ele>
        <time>2018-07-17T10:39:28Z</time>
      </trkpt>
      <trkpt lat="45.90057" lon="4.8001">
        <ele>170</ele>
        <time>2018-07-17T10:39:29Z</time>
      </trkpt>
      <trkpt lat="45.90062" lon="4.80006">
        <ele>170</ele>
        <time>2018-07-17T10:39:30Z</time>
      </trkpt>
      <trkpt lat="45.90067" lon="4.80003">
        <ele>170</ele>
        <time>2018-07-17T10:39:31Z</time>
      </trkpt>
      <trkpt lat="45.90074" lon="4.80003">
        <ele>170</ele>
        <time>2018-07-17T10:39:33Z</time>
      </trkpt>
      <trkpt lat="45.90079" lon="4.79998">
        <ele>172</ele>
        <time>2018-07-17T10:39:34Z</time>
      </trkpt>
      <trkpt lat="45.90085" lon="4.79996">
        <ele>172</ele>
        <time>2018-07-17T10:39:35Z</time>
      </trkpt>
      <trkpt lat="45.90091" lon="4.79994">
        <ele>172</ele>
        <time>2018-07-17T10:39:36Z</time>
      </trkpt>
      <trkpt lat="45.90099" lon="4.79992">
        <ele>173</ele>
        <time>2018-07-17T10:39:38Z</time>
      </trkpt>
      <trkpt lat="45.901" lon="4.79994">
        <ele>173</ele>
        <time>2018-07-17T10:39:39Z</time>
      </trkpt>
      <trkpt lat="45.90105" lon="4.79992">
        <ele>173</ele>
        <time>2018-07-17T10:39:40Z</time>
      </trkpt>
      <trkpt lat="45.9011" lon="4.79989">
        <ele>173</ele>
        <time>2018-07-17T10:39:41Z</time>
      </trkpt>
      <trkpt lat="45.90118" lon="4.79982">
        <ele>174</ele>
        <time>2018-07-17T10:39:42Z</time>
      </trkpt>
      <trkpt lat="45.90123" lon="4.7998">
        <ele>174</ele>
        <time>2018-07-17T10:39:43Z</time>
      </trkpt>
      <trkpt lat="45.90129" lon="4.79977">
        <ele>174</ele>
        <time>2018-07-17T10:39:44Z</time>
      </trkpt>
      <trkpt lat="45.90133" lon="4.79974">
        <ele>174</ele>
        <time>2018-07-17T10:39:45Z</time>
      </trkpt>
      <trkpt lat="45.90139" lon="4.79971">
        <ele>174</ele>
        <time>2018-07-17T10:39:46Z</time>
      </trkpt>
      <trkpt lat="45.90147" lon="4.79969">
        <ele>174</ele>
        <time>2018-07-17T10:39:48Z</time>
      </trkpt>
      <trkpt lat="45.90152" lon="4.79968">
        <ele>174</ele>
        <time>2018-07-17T10:39:49Z</time>
      </trkpt>
      <trkpt lat="45.90157" lon="4.79963">
        <ele>174</ele>
        <time>2018-07-17T10:39:50Z</time>
      </trkpt>
      <trkpt lat="45.90161" lon="4.79961">
        <ele>174</ele>
        <time>2018-07-17T10:39:51Z</time>
      </trkpt>
      <trkpt lat="45.90169" lon="4.79961">
        <ele>172</ele>
        <time>2018-07-17T10:39:53Z</time>
      </trkpt>
      <trkpt lat="45.90173" lon="4.79956">
        <ele>173</ele>
        <time>2018-07-17T10:39:54Z</time>
      </trkpt>
      <trkpt lat="45.90178" lon="4.79955">
        <ele>173</ele>
        <time>2018-07-17T10:39:55Z</time>
      </trkpt>
      <trkpt lat="45.90183" lon="4.79954">
        <ele>173</ele>
        <time>2018-07-17T10:39:56Z</time>
      </trkpt>
      <trkpt lat="45.90191" lon="4.7995">
        <ele>173</ele>
        <time>2018-07-17T10:39:58Z</time>
      </trkpt>
      <trkpt lat="45.90194" lon="4.79952">
        <ele>172</ele>
        <time>2018-07-17T10:39:59Z</time>
      </trkpt>
      <trkpt lat="45.90202" lon="4.79945">
        <ele>172</ele>
        <time>2018-07-17T10:40:00Z</time>
      </trkpt>
      <trkpt lat="45.9021" lon="4.79936">
        <ele>173</ele>
        <time>2018-07-17T10:40:01Z</time>
      </trkpt>
      <trkpt lat="45.90218" lon="4.79931">
        <ele>172</ele>
        <time>2018-07-17T10:40:03Z</time>
      </trkpt>
      <trkpt lat="45.90223" lon="4.79927">
        <ele>172</ele>
        <time>2018-07-17T10:40:04Z</time>
      </trkpt>
      <trkpt lat="45.90228" lon="4.79922">
        <ele>172</ele>
        <time>2018-07-17T10:40:05Z</time>
      </trkpt>
      <trkpt lat="45.90233" lon="4.7992">
        <ele>172</ele>
        <time>2018-07-17T10:40:06Z</time>
      </trkpt>
      <trkpt lat="45.90241" lon="4.79916">
        <ele>174</ele>
        <time>2018-07-17T10:40:08Z</time>
      </trkpt>
      <trkpt lat="45.90246" lon="4.7991">
        <ele>174</ele>
        <time>2018-07-17T10:40:09Z</time>
      </trkpt>
      <trkpt lat="45.90254" lon="4.79903">
        <ele>172</ele>
        <time>2018-07-17T10:40:11Z</time>
      </trkpt>
      <trkpt lat="45.90259" lon="4.79898">
        <ele>172</ele>
        <time>2018-07-17T10:40:12Z</time>
      </trkpt>
      <trkpt lat="45.90263" lon="4.79895">
        <ele>172</ele>
        <time>2018-07-17T10:40:13Z</time>
      </trkpt>
      <trkpt lat="45.90268" lon="4.7989">
        <ele>173</ele>
        <time>2018-07-17T10:40:14Z</time>
      </trkpt>
      <trkpt lat="45.90275" lon="4.79882">
        <ele>173</ele>
        <time>2018-07-17T10:40:16Z</time>
      </trkpt>
      <trkpt lat="45.90279" lon="4.79879">
        <ele>173</ele>
        <time>2018-07-17T10:40:17Z</time>
      </trkpt>
      <trkpt lat="45.90286" lon="4.79872">
        <ele>173</ele>
        <time>2018-07-17T10:40:19Z</time>
      </trkpt>
      <trkpt lat="45.90289" lon="4.79869">
        <ele>173</ele>
        <time>2018-07-17T10:40:20Z</time>
      </trkpt>
      <trkpt lat="45.90296" lon="4.79864">
        <ele>172</ele>
        <time>2018-07-17T10:40:22Z</time>
      </trkpt>
      <trkpt lat="45.90299" lon="4.79857">
        <ele>172</ele>
        <time>2018-07-17T10:40:23Z</time>
      </trkpt>
      <trkpt lat="45.90303" lon="4.79852">
        <ele>172</ele>
        <time>2018-07-17T10:40:24Z</time>
      </trkpt>
      <trkpt lat="45.90307" lon="4.79847">
        <ele>172</ele>
        <time>2018-07-17T10:40:25Z</time>
      </trkpt>
      <trkpt lat="45.9031" lon="4.79841">
        <ele>172</ele>
        <time>2018-07-17T10:40:26Z</time>
      </trkpt>
      <trkpt lat="45.90314" lon="4.79837">
        <ele>172</ele>
        <time>2018-07-17T10:40:27Z</time>
      </trkpt>
      <trkpt lat="45.90319" lon="4.79827">
        <ele>174</ele>
        <time>2018-07-17T10:40:28Z</time>
      </trkpt>
      <trkpt lat="45.90323" lon="4.79825">
        <ele>173</ele>
        <time>2018-07-17T10:40:29Z</time>
      </trkpt>
      <trkpt lat="45.90327" lon="4.79819">
        <ele>174</ele>
        <time>2018-07-17T10:40:30Z</time>
      </trkpt>
      <trkpt lat="45.90331" lon="4.79814">
        <ele>174</ele>
        <time>2018-07-17T10:40:31Z</time>
      </trkpt>
      <trkpt lat="45.90335" lon="4.79809">
        <ele>172</ele>
        <time>2018-07-17T10:40:32Z</time>
      </trkpt>
      <trkpt lat="45.90339" lon="4.79805">
        <ele>172</ele>
        <time>2018-07-17T10:40:33Z</time>
      </trkpt>
      <trkpt lat="45.90343" lon="4.79799">
        <ele>172</ele>
        <time>2018-07-17T10:40:34Z</time>
      </trkpt>
      <trkpt lat="45.90347" lon="4.79795">
        <ele>173</ele>
        <time>2018-07-17T10:40:35Z</time>
      </trkpt>
      <trkpt lat="45.90354" lon="4.79787">
        <ele>173</ele>
        <time>2018-07-17T10:40:37Z</time>
      </trkpt>
      <trkpt lat="45.90357" lon="4.79782">
        <ele>173</ele>
        <time>2018-07-17T10:40:38Z</time>
      </trkpt>
      <trkpt lat="45.90364" lon="4.79774">
        <ele>173</ele>
        <time>2018-07-17T10:40:40Z</time>
      </trkpt>
      <trkpt lat="45.90368" lon="4.7977">
        <ele>173</ele>
        <time>2018-07-17T10:40:41Z</time>
      </trkpt>
      <trkpt lat="45.90375" lon="4.79762">
        <ele>173</ele>
        <time>2018-07-17T10:40:43Z</time>
      </trkpt>
      <trkpt lat="45.90379" lon="4.79754">
        <ele>173</ele>
        <time>2018-07-17T10:40:44Z</time>
      </trkpt>
      <trkpt lat="45.90387" lon="4.79751">
        <ele>173</ele>
        <time>2018-07-17T10:40:46Z</time>
      </trkpt>
      <trkpt lat="45.90391" lon="4.79743">
        <ele>175</ele>
        <time>2018-07-17T10:40:47Z</time>
      </trkpt>
      <trkpt lat="45.90395" lon="4.79739">
        <ele>175</ele>
        <time>2018-07-17T10:40:48Z</time>
      </trkpt>
      <trkpt lat="45.90399" lon="4.7973">
        <ele>175</ele>
        <time>2018-07-17T10:40:49Z</time>
      </trkpt>
      <trkpt lat="45.90401" lon="4.79723">
        <ele>176</ele>
        <time>2018-07-17T10:40:50Z</time>
      </trkpt>
      <trkpt lat="45.90404" lon="4.79716">
        <ele>176</ele>
        <time>2018-07-17T10:40:51Z</time>
      </trkpt>
      <trkpt lat="45.90409" lon="4.79712">
        <ele>176</ele>
        <time>2018-07-17T10:40:52Z</time>
      </trkpt>
      <trkpt lat="45.90414" lon="4.79711">
        <ele>176</ele>
        <time>2018-07-17T10:40:53Z</time>
      </trkpt>
      <trkpt lat="45.90421" lon="4.79703">
        <ele>173</ele>
        <time>2018-07-17T10:40:55Z</time>
      </trkpt>
      <trkpt lat="45.90423" lon="4.79696">
        <ele>173</ele>
        <time>2018-07-17T10:40:56Z</time>
      </trkpt>
      <trkpt lat="45.90427" lon="4.79691">
        <ele>174</ele>
        <time>2018-07-17T10:40:57Z</time>
      </trkpt>
      <trkpt lat="45.90431" lon="4.79689">
        <ele>174</ele>
        <time>2018-07-17T10:40:58Z</time>
      </trkpt>
      <trkpt lat="45.90435" lon="4.79684">
        <ele>174</ele>
        <time>2018-07-17T10:40:59Z</time>
      </trkpt>
      <trkpt lat="45.90439" lon="4.79678">
        <ele>174</ele>
        <time>2018-07-17T10:41:00Z</time>
      </trkpt>
      <trkpt lat="45.90444" lon="4.79674">
        <ele>173</ele>
        <time>2018-07-17T10:41:01Z</time>
      </trkpt>
      <trkpt lat="45.90449" lon="4.79669">
        <ele>173</ele>
        <time>2018-07-17T10:41:02Z</time>
      </trkpt>
      <trkpt lat="45.90455" lon="4.79661">
        <ele>176</ele>
        <time>2018-07-17T10:41:04Z</time>
      </trkpt>
      <trkpt lat="45.90459" lon="4.79656">
        <ele>176</ele>
        <time>2018-07-17T10:41:05Z</time>
      </trkpt>
      <trkpt lat="45.90463" lon="4.79652">
        <ele>176</ele>
        <time>2018-07-17T10:41:06Z</time>
      </trkpt>
      <trkpt lat="45.90468" lon="4.79644">
        <ele>176</ele>
        <time>2018-07-17T10:41:07Z</time>
      </trkpt>
      <trkpt lat="45.90476" lon="4.79637">
        <ele>176</ele>
        <time>2018-07-17T10:41:09Z</time>
      </trkpt>
      <trkpt lat="45.9048" lon="4.79633">
        <ele>176</ele>
        <time>2018-07-17T10:41:10Z</time>
      </trkpt>
      <trkpt lat="45.90486" lon="4.79629">
        <ele>176</ele>
        <time>2018-07-17T10:41:11Z</time>
      </trkpt>
      <trkpt lat="45.9049" lon="4.79623">
        <ele>176</ele>
        <time>2018-07-17T10:41:12Z</time>
      </trkpt>
      <trkpt lat="45.90496" lon="4.79621">
        <ele>176</ele>
        <time>2018-07-17T10:41:13Z</time>
      </trkpt>
      <trkpt lat="45.90501" lon="4.79616">
        <ele>174</ele>
        <time>2018-07-17T10:41:14Z</time>
      </trkpt>
      <trkpt lat="45.90505" lon="4.79611">
        <ele>174</ele>
        <time>2018-07-17T10:41:15Z</time>
      </trkpt>
      <trkpt lat="45.9051" lon="4.79607">
        <ele>174</ele>
        <time>2018-07-17T10:41:16Z</time>
      </trkpt>
      <trkpt lat="45.90514" lon="4.79603">
        <ele>174</ele>
        <time>2018-07-17T10:41:17Z</time>
      </trkpt>
      <trkpt lat="45.90519" lon="4.79601">
        <ele>174</ele>
        <time>2018-07-17T10:41:18Z</time>
      </trkpt>
      <trkpt lat="45.90524" lon="4.79597">
        <ele>174</ele>
        <time>2018-07-17T10:41:19Z</time>
      </trkpt>
      <trkpt lat="45.90528" lon="4.79593">
        <ele>174</ele>
        <time>2018-07-17T10:41:20Z</time>
      </trkpt>
      <trkpt lat="45.90533" lon="4.79588">
        <ele>174</ele>
        <time>2018-07-17T10:41:21Z</time>
      </trkpt>
      <trkpt lat="45.90539" lon="4.79584">
        <ele>173</ele>
        <time>2018-07-17T10:41:22Z</time>
      </trkpt>
      <trkpt lat="45.90544" lon="4.7958">
        <ele>176</ele>
        <time>2018-07-17T10:41:23Z</time>
      </trkpt>
      <trkpt lat="45.90549" lon="4.79569">
        <ele>176</ele>
        <time>2018-07-17T10:41:24Z</time>
      </trkpt>
      <trkpt lat="45.90554" lon="4.79568">
        <ele>176</ele>
        <time>2018-07-17T10:41:25Z</time>
      </trkpt>
      <trkpt lat="45.90558" lon="4.79566">
        <ele>175</ele>
        <time>2018-07-17T10:41:26Z</time>
      </trkpt>
      <trkpt lat="45.90565" lon="4.79563">
        <ele>175</ele>
        <time>2018-07-17T10:41:28Z</time>
      </trkpt>
      <trkpt lat="45.9057" lon="4.79559">
        <ele>175</ele>
        <time>2018-07-17T10:41:29Z</time>
      </trkpt>
      <trkpt lat="45.90574" lon="4.79558">
        <ele>175</ele>
        <time>2018-07-17T10:41:30Z</time>
      </trkpt>
      <trkpt lat="45.90579" lon="4.79553">
        <ele>176</ele>
        <time>2018-07-17T10:41:31Z</time>
      </trkpt>
      <trkpt lat="45.90584" lon="4.79549">
        <ele>173</ele>
        <time>2018-07-17T10:41:32Z</time>
      </trkpt>
      <trkpt lat="45.90588" lon="4.79546">
        <ele>174</ele>
        <time>2018-07-17T10:41:33Z</time>
      </trkpt>
      <trkpt lat="45.90595" lon="4.79541">
        <ele>174</ele>
        <time>2018-07-17T10:41:34Z</time>
      </trkpt>
      <trkpt lat="45.906" lon="4.79537">
        <ele>174</ele>
        <time>2018-07-17T10:41:35Z</time>
      </trkpt>
      <trkpt lat="45.90605" lon="4.79534">
        <ele>174</ele>
        <time>2018-07-17T10:41:36Z</time>
      </trkpt>
      <trkpt lat="45.90611" lon="4.79529">
        <ele>174</ele>
        <time>2018-07-17T10:41:37Z</time>
      </trkpt>
      <trkpt lat="45.90616" lon="4.79526">
        <ele>174</ele>
        <time>2018-07-17T10:41:38Z</time>
      </trkpt>
      <trkpt lat="45.9062" lon="4.79524">
        <ele>174</ele>
        <time>2018-07-17T10:41:39Z</time>
      </trkpt>
      <trkpt lat="45.90625" lon="4.79521">
        <ele>174</ele>
        <time>2018-07-17T10:41:40Z</time>
      </trkpt>
      <trkpt lat="45.9063" lon="4.79518">
        <ele>174</ele>
        <time>2018-07-17T10:41:41Z</time>
      </trkpt>
      <trkpt lat="45.90635" lon="4.79511">
        <ele>174</ele>
        <time>2018-07-17T10:41:42Z</time>
      </trkpt>
      <trkpt lat="45.9064" lon="4.79504">
        <ele>174</ele>
        <time>2018-07-17T10:41:43Z</time>
      </trkpt>
      <trkpt lat="45.90645" lon="4.79503">
        <ele>174</ele>
        <time>2018-07-17T10:41:44Z</time>
      </trkpt>
      <trkpt lat="45.90649" lon="4.79501">
        <ele>173</ele>
        <time>2018-07-17T10:41:45Z</time>
      </trkpt>
      <trkpt lat="45.90655" lon="4.79499">
        <ele>175</ele>
        <time>2018-07-17T10:41:46Z</time>
      </trkpt>
      <trkpt lat="45.9066" lon="4.79499">
        <ele>174</ele>
        <time>2018-07-17T10:41:47Z</time>
      </trkpt>
      <trkpt lat="45.90664" lon="4.79497">
        <ele>174</ele>
        <time>2018-07-17T10:41:48Z</time>
      </trkpt>
      <trkpt lat="45.90669" lon="4.7949">
        <ele>174</ele>
        <time>2018-07-17T10:41:49Z</time>
      </trkpt>
      <trkpt lat="45.90674" lon="4.79486">
        <ele>174</ele>
        <time>2018-07-17T10:41:50Z</time>
      </trkpt>
      <trkpt lat="45.9068" lon="4.7948">
        <ele>174</ele>
        <time>2018-07-17T10:41:51Z</time>
      </trkpt>
      <trkpt lat="45.90685" lon="4.79476">
        <ele>174</ele>
        <time>2018-07-17T10:41:52Z</time>
      </trkpt>
      <trkpt lat="45.9069" lon="4.79476">
        <ele>174</ele>
        <time>2018-07-17T10:41:53Z</time>
      </trkpt>
      <trkpt lat="45.90695" lon="4.79473">
        <ele>174</ele>
        <time>2018-07-17T10:41:54Z</time>
      </trkpt>
      <trkpt lat="45.90699" lon="4.7947">
        <ele>174</ele>
        <time>2018-07-17T10:41:55Z</time>
      </trkpt>
      <trkpt lat="45.90708" lon="4.79471">
        <ele>174</ele>
        <time>2018-07-17T10:41:57Z</time>
      </trkpt>
      <trkpt lat="45.90712" lon="4.79472">
        <ele>174</ele>
        <time>2018-07-17T10:41:58Z</time>
      </trkpt>
      <trkpt lat="45.90716" lon="4.79469">
        <ele>174</ele>
        <time>2018-07-17T10:41:59Z</time>
      </trkpt>
      <trkpt lat="45.90722" lon="4.79464">
        <ele>174</ele>
        <time>2018-07-17T10:42:00Z</time>
      </trkpt>
      <trkpt lat="45.90725" lon="4.79466">
        <ele>174</ele>
        <time>2018-07-17T10:42:01Z</time>
      </trkpt>
      <trkpt lat="45.90732" lon="4.79461">
        <ele>174</ele>
        <time>2018-07-17T10:42:02Z</time>
      </trkpt>
      <trkpt lat="45.90736" lon="4.79456">
        <ele>174</ele>
        <time>2018-07-17T10:42:03Z</time>
      </trkpt>
      <trkpt lat="45.9074" lon="4.79454">
        <ele>174</ele>
        <time>2018-07-17T10:42:04Z</time>
      </trkpt>
      <trkpt lat="45.90745" lon="4.79449">
        <ele>174</ele>
        <time>2018-07-17T10:42:05Z</time>
      </trkpt>
      <trkpt lat="45.9075" lon="4.79446">
        <ele>174</ele>
        <time>2018-07-17T10:42:06Z</time>
      </trkpt>
      <trkpt lat="45.90754" lon="4.79439">
        <ele>174</ele>
        <time>2018-07-17T10:42:07Z</time>
      </trkpt>
      <trkpt lat="45.90759" lon="4.79437">
        <ele>174</ele>
        <time>2018-07-17T10:42:08Z</time>
      </trkpt>
      <trkpt lat="45.90764" lon="4.79436">
        <ele>174</ele>
        <time>2018-07-17T10:42:09Z</time>
      </trkpt>
      <trkpt lat="45.9077" lon="4.7943">
        <ele>174</ele>
        <time>2018-07-17T10:42:10Z</time>
      </trkpt>
      <trkpt lat="45.90775" lon="4.79427">
        <ele>174</ele>
        <time>2018-07-17T10:42:11Z</time>
      </trkpt>
      <trkpt lat="45.90779" lon="4.79424">
        <ele>174</ele>
        <time>2018-07-17T10:42:12Z</time>
      </trkpt>
      <trkpt lat="45.90784" lon="4.7942">
        <ele>174</ele>
        <time>2018-07-17T10:42:13Z</time>
      </trkpt>
      <trkpt lat="45.90788" lon="4.79422">
        <ele>174</ele>
        <time>2018-07-17T10:42:14Z</time>
      </trkpt>
      <trkpt lat="45.90793" lon="4.7942">
        <ele>174</ele>
        <time>2018-07-17T10:42:15Z</time>
      </trkpt>
      <trkpt lat="45.90797" lon="4.79414">
        <ele>175</ele>
        <time>2018-07-17T10:42:16Z</time>
      </trkpt>
      <trkpt lat="45.90801" lon="4.7941">
        <ele>175</ele>
        <time>2018-07-17T10:42:17Z</time>
      </trkpt>
      <trkpt lat="45.90806" lon="4.79407">
        <ele>175</ele>
        <time>2018-07-17T10:42:18Z</time>
      </trkpt>
      <trkpt lat="45.9081" lon="4.79403">
        <ele>175</ele>
        <time>2018-07-17T10:42:19Z</time>
      </trkpt>
      <trkpt lat="45.90815" lon="4.79398">
        <ele>175</ele>
        <time>2018-07-17T10:42:20Z</time>
      </trkpt>
      <trkpt lat="45.9082" lon="4.79394">
        <ele>175</ele>
        <time>2018-07-17T10:42:21Z</time>
      </trkpt>
      <trkpt lat="45.90824" lon="4.79391">
        <ele>175</ele>
        <time>2018-07-17T10:42:22Z</time>
      </trkpt>
      <trkpt lat="45.90829" lon="4.79389">
        <ele>175</ele>
        <time>2018-07-17T10:42:23Z</time>
      </trkpt>
      <trkpt lat="45.90833" lon="4.79385">
        <ele>175</ele>
        <time>2018-07-17T10:42:24Z</time>
      </trkpt>
      <trkpt lat="45.90836" lon="4.79382">
        <ele>175</ele>
        <time>2018-07-17T10:42:25Z</time>
      </trkpt>
      <trkpt lat="45.9084" lon="4.79374">
        <ele>175</ele>
        <time>2018-07-17T10:42:26Z</time>
      </trkpt>
      <trkpt lat="45.90845" lon="4.79369">
        <ele>175</ele>
        <time>2018-07-17T10:42:27Z</time>
      </trkpt>
      <trkpt lat="45.90849" lon="4.79365">
        <ele>175</ele>
        <time>2018-07-17T10:42:28Z</time>
      </trkpt>
      <trkpt lat="45.90853" lon="4.79363">
        <ele>175</ele>
        <time>2018-07-17T10:42:29Z</time>
      </trkpt>
      <trkpt lat="45.90857" lon="4.79349">
        <ele>175</ele>
        <time>2018-07-17T10:42:30Z</time>
      </trkpt>
      <trkpt lat="45.90861" lon="4.79344">
        <ele>175</ele>
        <time>2018-07-17T10:42:31Z</time>
      </trkpt>
      <trkpt lat="45.90864" lon="4.79337">
        <ele>175</ele>
        <time>2018-07-17T10:42:32Z</time>
      </trkpt>
      <trkpt lat="45.90868" lon="4.79332">
        <ele>176</ele>
        <time>2018-07-17T10:42:33Z</time>
      </trkpt>
      <trkpt lat="45.9087" lon="4.79328">
        <ele>176</ele>
        <time>2018-07-17T10:42:34Z</time>
      </trkpt>
      <trkpt lat="45.90876" lon="4.79318">
        <ele>176</ele>
        <time>2018-07-17T10:42:36Z</time>
      </trkpt>
      <trkpt lat="45.9088" lon="4.79313">
        <ele>176</ele>
        <time>2018-07-17T10:42:37Z</time>
      </trkpt>
      <trkpt lat="45.90887" lon="4.79305">
        <ele>176</ele>
        <time>2018-07-17T10:42:39Z</time>
      </trkpt>
      <trkpt lat="45.9089" lon="4.793">
        <ele>176</ele>
        <time>2018-07-17T10:42:40Z</time>
      </trkpt>
      <trkpt lat="45.90893" lon="4.79294">
        <ele>176</ele>
        <time>2018-07-17T10:42:41Z</time>
      </trkpt>
      <trkpt lat="45.90897" lon="4.79288">
        <ele>176</ele>
        <time>2018-07-17T10:42:42Z</time>
      </trkpt>
      <trkpt lat="45.909" lon="4.79283">
        <ele>176</ele>
        <time>2018-07-17T10:42:43Z</time>
      </trkpt>
      <trkpt lat="45.90904" lon="4.79278">
        <ele>176</ele>
        <time>2018-07-17T10:42:44Z</time>
      </trkpt>
      <trkpt lat="45.9091" lon="4.79268">
        <ele>176</ele>
        <time>2018-07-17T10:42:46Z</time>
      </trkpt>
      <trkpt lat="45.90912" lon="4.79264">
        <ele>176</ele>
        <time>2018-07-17T10:42:47Z</time>
      </trkpt>
      <trkpt lat="45.90916" lon="4.79259">
        <ele>176</ele>
        <time>2018-07-17T10:42:48Z</time>
      </trkpt>
      <trkpt lat="45.90919" lon="4.79254">
        <ele>176</ele>
        <time>2018-07-17T10:42:49Z</time>
      </trkpt>
      <trkpt lat="45.90922" lon="4.79248">
        <ele>176</ele>
        <time>2018-07-17T10:42:50Z</time>
      </trkpt>
      <trkpt lat="45.90926" lon="4.79242">
        <ele>176</ele>
        <time>2018-07-17T10:42:51Z</time>
      </trkpt>
      <trkpt lat="45.90931" lon="4.79236">
        <ele>176</ele>
        <time>2018-07-17T10:42:52Z</time>
      </trkpt>
      <trkpt lat="45.90933" lon="4.7923">
        <ele>176</ele>
        <time>2018-07-17T10:42:53Z</time>
      </trkpt>
      <trkpt lat="45.90936" lon="4.79225">
        <ele>176</ele>
        <time>2018-07-17T10:42:54Z</time>
      </trkpt>
      <trkpt lat="45.90939" lon="4.7922">
        <ele>176</ele>
        <time>2018-07-17T10:42:55Z</time>
      </trkpt>
      <trkpt lat="45.90942" lon="4.79212">
        <ele>176</ele>
        <time>2018-07-17T10:42:56Z</time>
      </trkpt>
      <trkpt lat="45.90944" lon="4.79206">
        <ele>176</ele>
        <time>2018-07-17T10:42:57Z</time>
      </trkpt>
      <trkpt lat="45.90948" lon="4.79201">
        <ele>176</ele>
        <time>2018-07-17T10:42:58Z</time>
      </trkpt>
      <trkpt lat="45.90951" lon="4.79195">
        <ele>177</ele>
        <time>2018-07-17T10:42:59Z</time>
      </trkpt>
      <trkpt lat="45.90954" lon="4.79191">
        <ele>177</ele>
        <time>2018-07-17T10:43:00Z</time>
      </trkpt>
      <trkpt lat="45.90958" lon="4.79185">
        <ele>177</ele>
        <time>2018-07-17T10:43:01Z</time>
      </trkpt>
      <trkpt lat="45.9096" lon="4.7918">
        <ele>177</ele>
        <time>2018-07-17T10:43:02Z</time>
      </trkpt>
      <trkpt lat="45.90963" lon="4.79175">
        <ele>177</ele>
        <time>2018-07-17T10:43:03Z</time>
      </trkpt>
      <trkpt lat="45.90966" lon="4.79169">
        <ele>177</ele>
        <time>2018-07-17T10:43:04Z</time>
      </trkpt>
      <trkpt lat="45.90969" lon="4.79165">
        <ele>177</ele>
        <time>2018-07-17T10:43:05Z</time>
      </trkpt>
      <trkpt lat="45.90972" lon="4.7916">
        <ele>177</ele>
        <time>2018-07-17T10:43:06Z</time>
      </trkpt>
      <trkpt lat="45.90975" lon="4.79155">
        <ele>177</ele>
        <time>2018-07-17T10:43:07Z</time>
      </trkpt>
      <trkpt lat="45.90977" lon="4.7915">
        <ele>177</ele>
        <time>2018-07-17T10:43:08Z</time>
      </trkpt>
      <trkpt lat="45.90981" lon="4.79144">
        <ele>177</ele>
        <time>2018-07-17T10:43:09Z</time>
      </trkpt>
      <trkpt lat="45.90983" lon="4.79139">
        <ele>177</ele>
        <time>2018-07-17T10:43:10Z</time>
      </trkpt>
      <trkpt lat="45.90987" lon="4.79134">
        <ele>177</ele>
        <time>2018-07-17T10:43:11Z</time>
      </trkpt>
      <trkpt lat="45.9099" lon="4.79128">
        <ele>177</ele>
        <time>2018-07-17T10:43:12Z</time>
      </trkpt>
      <trkpt lat="45.90994" lon="4.79122">
        <ele>177</ele>
        <time>2018-07-17T10:43:13Z</time>
      </trkpt>
      <trkpt lat="45.90997" lon="4.79115">
        <ele>177</ele>
        <time>2018-07-17T10:43:14Z</time>
      </trkpt>
      <trkpt lat="45.91" lon="4.79108">
        <ele>177</ele>
        <time>2018-07-17T10:43:15Z</time>
      </trkpt>
      <trkpt lat="45.91003" lon="4.79101">
        <ele>177</ele>
        <time>2018-07-17T10:43:16Z</time>
      </trkpt>
      <trkpt lat="45.91006" lon="4.79094">
        <ele>177</ele>
        <time>2018-07-17T10:43:17Z</time>
      </trkpt>
      <trkpt lat="45.9101" lon="4.7909">
        <ele>177</ele>
        <time>2018-07-17T10:43:18Z</time>
      </trkpt>
      <trkpt lat="45.91014" lon="4.79084">
        <ele>177</ele>
        <time>2018-07-17T10:43:19Z</time>
      </trkpt>
      <trkpt lat="45.91017" lon="4.79079">
        <ele>177</ele>
        <time>2018-07-17T10:43:20Z</time>
      </trkpt>
      <trkpt lat="45.9102" lon="4.79074">
        <ele>176</ele>
        <time>2018-07-17T10:43:21Z</time>
      </trkpt>
      <trkpt lat="45.91023" lon="4.79069">
        <ele>176</ele>
        <time>2018-07-17T10:43:22Z</time>
      </trkpt>
      <trkpt lat="45.91026" lon="4.79063">
        <ele>176</ele>
        <time>2018-07-17T10:43:23Z</time>
      </trkpt>
      <trkpt lat="45.91029" lon="4.79057">
        <ele>176</ele>
        <time>2018-07-17T10:43:24Z</time>
      </trkpt>
      <trkpt lat="45.91032" lon="4.7905">
        <ele>176</ele>
        <time>2018-07-17T10:43:25Z</time>
      </trkpt>
      <trkpt lat="45.91035" lon="4.79045">
        <ele>176</ele>
        <time>2018-07-17T10:43:26Z</time>
      </trkpt>
      <trkpt lat="45.91038" lon="4.79038">
        <ele>176</ele>
        <time>2018-07-17T10:43:27Z</time>
      </trkpt>
      <trkpt lat="45.91042" lon="4.79032">
        <ele>176</ele>
        <time>2018-07-17T10:43:28Z</time>
      </trkpt>
      <trkpt lat="45.91045" lon="4.79026">
        <ele>176</ele>
        <time>2018-07-17T10:43:29Z</time>
      </trkpt>
      <trkpt lat="45.91048" lon="4.79019">
        <ele>176</ele>
        <time>2018-07-17T10:43:30Z</time>
      </trkpt>
      <trkpt lat="45.91051" lon="4.79013">
        <ele>176</ele>
        <time>2018-07-17T10:43:31Z</time>
      </trkpt>
      <trkpt lat="45.91054" lon="4.79008">
        <ele>177</ele>
        <time>2018-07-17T10:43:32Z</time>
      </trkpt>
      <trkpt lat="45.91058" lon="4.78999">
        <ele>177</ele>
        <time>2018-07-17T10:43:33Z</time>
      </trkpt>
      <trkpt lat="45.91061" lon="4.78993">
        <ele>177</ele>
        <time>2018-07-17T10:43:34Z</time>
      </trkpt>
      <trkpt lat="45.91066" lon="4.78985">
        <ele>177</ele>
        <time>2018-07-17T10:43:35Z</time>
      </trkpt>
      <trkpt lat="45.9107" lon="4.78979">
        <ele>177</ele>
        <time>2018-07-17T10:43:36Z</time>
      </trkpt>
      <trkpt lat="45.91074" lon="4.7897">
        <ele>177</ele>
        <time>2018-07-17T10:43:37Z</time>
      </trkpt>
      <trkpt lat="45.91078" lon="4.78962">
        <ele>177</ele>
        <time>2018-07-17T10:43:38Z</time>
      </trkpt>
      <trkpt lat="45.91081" lon="4.78957">
        <ele>177</ele>
        <time>2018-07-17T10:43:39Z</time>
      </trkpt>
      <trkpt lat="45.91085" lon="4.7895">
        <ele>177</ele>
        <time>2018-07-17T10:43:40Z</time>
      </trkpt>
      <trkpt lat="45.91088" lon="4.78942">
        <ele>177</ele>
        <time>2018-07-17T10:43:41Z</time>
      </trkpt>
      <trkpt lat="45.91092" lon="4.78934">
        <ele>177</ele>
        <time>2018-07-17T10:43:42Z</time>
      </trkpt>
      <trkpt lat="45.91095" lon="4.78928">
        <ele>177</ele>
        <time>2018-07-17T10:43:43Z</time>
      </trkpt>
      <trkpt lat="45.91099" lon="4.78923">
        <ele>177</ele>
        <time>2018-07-17T10:43:44Z</time>
      </trkpt>
      <trkpt lat="45.91102" lon="4.78914">
        <ele>177</ele>
        <time>2018-07-17T10:43:45Z</time>
      </trkpt>
      <trkpt lat="45.91106" lon="4.78908">
        <ele>177</ele>
        <time>2018-07-17T10:43:46Z</time>
      </trkpt>
      <trkpt lat="45.91108" lon="4.78892">
        <ele>176</ele>
        <time>2018-07-17T10:43:47Z</time>
      </trkpt>
      <trkpt lat="45.91112" lon="4.78886">
        <ele>176</ele>
        <time>2018-07-17T10:43:48Z</time>
      </trkpt>
      <trkpt lat="45.91116" lon="4.7888">
        <ele>176</ele>
        <time>2018-07-17T10:43:49Z</time>
      </trkpt>
      <trkpt lat="45.91118" lon="4.78875">
        <ele>176</ele>
        <time>2018-07-17T10:43:50Z</time>
      </trkpt>
      <trkpt lat="45.91121" lon="4.78868">
        <ele>176</ele>
        <time>2018-07-17T10:43:51Z</time>
      </trkpt>
      <trkpt lat="45.91125" lon="4.78864">
        <ele>176</ele>
        <time>2018-07-17T10:43:52Z</time>
      </trkpt>
      <trkpt lat="45.91128" lon="4.78859">
        <ele>176</ele>
        <time>2018-07-17T10:43:53Z</time>
      </trkpt>
      <trkpt lat="45.91132" lon="4.78853">
        <ele>176</ele>
        <time>2018-07-17T10:43:54Z</time>
      </trkpt>
      <trkpt lat="45.91135" lon="4.78847">
        <ele>176</ele>
        <time>2018-07-17T10:43:55Z</time>
      </trkpt>
      <trkpt lat="45.9114" lon="4.7884">
        <ele>176</ele>
        <time>2018-07-17T10:43:56Z</time>
      </trkpt>
      <trkpt lat="45.91143" lon="4.78834">
        <ele>176</ele>
        <time>2018-07-17T10:43:57Z</time>
      </trkpt>
      <trkpt lat="45.91146" lon="4.78826">
        <ele>176</ele>
        <time>2018-07-17T10:43:58Z</time>
      </trkpt>
      <trkpt lat="45.9115" lon="4.78819">
        <ele>176</ele>
        <time>2018-07-17T10:43:59Z</time>
      </trkpt>
      <trkpt lat="45.91155" lon="4.78816">
        <ele>176</ele>
        <time>2018-07-17T10:44:00Z</time>
      </trkpt>
      <trkpt lat="45.91158" lon="4.7881">
        <ele>176</ele>
        <time>2018-07-17T10:44:01Z</time>
      </trkpt>
      <trkpt lat="45.91161" lon="4.78804">
        <ele>176</ele>
        <time>2018-07-17T10:44:02Z</time>
      </trkpt>
      <trkpt lat="45.91165" lon="4.78798">
        <ele>177</ele>
        <time>2018-07-17T10:44:03Z</time>
      </trkpt>
      <trkpt lat="45.91167" lon="4.78792">
        <ele>177</ele>
        <time>2018-07-17T10:44:04Z</time>
      </trkpt>
      <trkpt lat="45.9117" lon="4.78786">
        <ele>177</ele>
        <time>2018-07-17T10:44:05Z</time>
      </trkpt>
      <trkpt lat="45.91175" lon="4.78784">
        <ele>177</ele>
        <time>2018-07-17T10:44:06Z</time>
      </trkpt>
      <trkpt lat="45.91178" lon="4.78777">
        <ele>177</ele>
        <time>2018-07-17T10:44:07Z</time>
      </trkpt>
      <trkpt lat="45.91181" lon="4.78767">
        <ele>177</ele>
        <time>2018-07-17T10:44:08Z</time>
      </trkpt>
      <trkpt lat="45.91184" lon="4.78762">
        <ele>177</ele>
        <time>2018-07-17T10:44:09Z</time>
      </trkpt>
      <trkpt lat="45.91187" lon="4.78754">
        <ele>177</ele>
        <time>2018-07-17T10:44:10Z</time>
      </trkpt>
      <trkpt lat="45.9119" lon="4.78748">
        <ele>177</ele>
        <time>2018-07-17T10:44:11Z</time>
      </trkpt>
      <trkpt lat="45.91193" lon="4.78741">
        <ele>177</ele>
        <time>2018-07-17T10:44:12Z</time>
      </trkpt>
      <trkpt lat="45.91199" lon="4.78736">
        <ele>177</ele>
        <time>2018-07-17T10:44:13Z</time>
      </trkpt>
      <trkpt lat="45.91202" lon="4.7873">
        <ele>177</ele>
        <time>2018-07-17T10:44:14Z</time>
      </trkpt>
      <trkpt lat="45.91205" lon="4.78724">
        <ele>177</ele>
        <time>2018-07-17T10:44:15Z</time>
      </trkpt>
      <trkpt lat="45.91208" lon="4.78719">
        <ele>177</ele>
        <time>2018-07-17T10:44:16Z</time>
      </trkpt>
      <trkpt lat="45.91212" lon="4.78713">
        <ele>177</ele>
        <time>2018-07-17T10:44:17Z</time>
      </trkpt>
      <trkpt lat="45.91214" lon="4.78705">
        <ele>177</ele>
        <time>2018-07-17T10:44:18Z</time>
      </trkpt>
      <trkpt lat="45.91217" lon="4.78699">
        <ele>177</ele>
        <time>2018-07-17T10:44:19Z</time>
      </trkpt>
      <trkpt lat="45.91219" lon="4.78693">
        <ele>177</ele>
        <time>2018-07-17T10:44:20Z</time>
      </trkpt>
      <trkpt lat="45.91222" lon="4.78687">
        <ele>177</ele>
        <time>2018-07-17T10:44:21Z</time>
      </trkpt>
      <trkpt lat="45.91228" lon="4.78677">
        <ele>177</ele>
        <time>2018-07-17T10:44:23Z</time>
      </trkpt>
      <trkpt lat="45.91231" lon="4.78672">
        <ele>177</ele>
        <time>2018-07-17T10:44:24Z</time>
      </trkpt>
      <trkpt lat="45.91233" lon="4.78666">
        <ele>177</ele>
        <time>2018-07-17T10:44:25Z</time>
      </trkpt>
      <trkpt lat="45.91236" lon="4.7866">
        <ele>177</ele>
        <time>2018-07-17T10:44:26Z</time>
      </trkpt>
      <trkpt lat="45.91239" lon="4.78654">
        <ele>177</ele>
        <time>2018-07-17T10:44:27Z</time>
      </trkpt>
      <trkpt lat="45.91242" lon="4.78647">
        <ele>177</ele>
        <time>2018-07-17T10:44:28Z</time>
      </trkpt>
      <trkpt lat="45.91245" lon="4.78641">
        <ele>177</ele>
        <time>2018-07-17T10:44:29Z</time>
      </trkpt>
      <trkpt lat="45.91248" lon="4.78635">
        <ele>177</ele>
        <time>2018-07-17T10:44:30Z</time>
      </trkpt>
      <trkpt lat="45.91251" lon="4.78628">
        <ele>176</ele>
        <time>2018-07-17T10:44:31Z</time>
      </trkpt>
      <trkpt lat="45.91254" lon="4.78622">
        <ele>176</ele>
        <time>2018-07-17T10:44:32Z</time>
      </trkpt>
      <trkpt lat="45.91256" lon="4.78616">
        <ele>176</ele>
        <time>2018-07-17T10:44:33Z</time>
      </trkpt>
      <trkpt lat="45.91259" lon="4.7861">
        <ele>176</ele>
        <time>2018-07-17T10:44:34Z</time>
      </trkpt>
      <trkpt lat="45.91262" lon="4.78604">
        <ele>176</ele>
        <time>2018-07-17T10:44:35Z</time>
      </trkpt>
      <trkpt lat="45.91264" lon="4.78597">
        <ele>176</ele>
        <time>2018-07-17T10:44:36Z</time>
      </trkpt>
      <trkpt lat="45.91267" lon="4.78591">
        <ele>176</ele>
        <time>2018-07-17T10:44:37Z</time>
      </trkpt>
      <trkpt lat="45.9127" lon="4.78585">
        <ele>176</ele>
        <time>2018-07-17T10:44:38Z</time>
      </trkpt>
      <trkpt lat="45.91273" lon="4.78579">
        <ele>176</ele>
        <time>2018-07-17T10:44:39Z</time>
      </trkpt>
      <trkpt lat="45.91276" lon="4.78572">
        <ele>176</ele>
        <time>2018-07-17T10:44:40Z</time>
      </trkpt>
      <trkpt lat="45.91279" lon="4.78564">
        <ele>176</ele>
        <time>2018-07-17T10:44:41Z</time>
      </trkpt>
      <trkpt lat="45.9128" lon="4.78559">
        <ele>176</ele>
        <time>2018-07-17T10:44:42Z</time>
      </trkpt>
      <trkpt lat="45.91283" lon="4.78553">
        <ele>176</ele>
        <time>2018-07-17T10:44:43Z</time>
      </trkpt>
      <trkpt lat="45.91287" lon="4.78544">
        <ele>176</ele>
        <time>2018-07-17T10:44:44Z</time>
      </trkpt>
      <trkpt lat="45.91293" lon="4.78535">
        <ele>175</ele>
        <time>2018-07-17T10:44:46Z</time>
      </trkpt>
      <trkpt lat="45.91295" lon="4.7853">
        <ele>175</ele>
        <time>2018-07-17T10:44:47Z</time>
      </trkpt>
      <trkpt lat="45.91297" lon="4.78522">
        <ele>175</ele>
        <time>2018-07-17T10:44:48Z</time>
      </trkpt>
      <trkpt lat="45.91301" lon="4.78515">
        <ele>175</ele>
        <time>2018-07-17T10:44:49Z</time>
      </trkpt>
      <trkpt lat="45.91304" lon="4.7851">
        <ele>175</ele>
        <time>2018-07-17T10:44:50Z</time>
      </trkpt>
      <trkpt lat="45.91307" lon="4.78503">
        <ele>175</ele>
        <time>2018-07-17T10:44:51Z</time>
      </trkpt>
      <trkpt lat="45.9131" lon="4.78497">
        <ele>175</ele>
        <time>2018-07-17T10:44:52Z</time>
      </trkpt>
      <trkpt lat="45.91314" lon="4.7849">
        <ele>175</ele>
        <time>2018-07-17T10:44:53Z</time>
      </trkpt>
      <trkpt lat="45.91316" lon="4.78484">
        <ele>175</ele>
        <time>2018-07-17T10:44:54Z</time>
      </trkpt>
      <trkpt lat="45.91319" lon="4.78475">
        <ele>176</ele>
        <time>2018-07-17T10:44:55Z</time>
      </trkpt>
      <trkpt lat="45.91322" lon="4.78469">
        <ele>176</ele>
        <time>2018-07-17T10:44:56Z</time>
      </trkpt>
      <trkpt lat="45.91325" lon="4.78462">
        <ele>176</ele>
        <time>2018-07-17T10:44:57Z</time>
      </trkpt>
      <trkpt lat="45.91328" lon="4.78455">
        <ele>176</ele>
        <time>2018-07-17T10:44:58Z</time>
      </trkpt>
      <trkpt lat="45.91332" lon="4.78451">
        <ele>176</ele>
        <time>2018-07-17T10:44:59Z</time>
      </trkpt>
      <trkpt lat="45.91335" lon="4.78442">
        <ele>176</ele>
        <time>2018-07-17T10:45:00Z</time>
      </trkpt>
      <trkpt lat="45.91339" lon="4.78436">
        <ele>176</ele>
        <time>2018-07-17T10:45:01Z</time>
      </trkpt>
      <trkpt lat="45.91342" lon="4.7843">
        <ele>176</ele>
        <time>2018-07-17T10:45:02Z</time>
      </trkpt>
      <trkpt lat="45.91344" lon="4.7842">
        <ele>176</ele>
        <time>2018-07-17T10:45:03Z</time>
      </trkpt>
      <trkpt lat="45.91347" lon="4.78415">
        <ele>176</ele>
        <time>2018-07-17T10:45:04Z</time>
      </trkpt>
      <trkpt lat="45.9135" lon="4.78408">
        <ele>176</ele>
        <time>2018-07-17T10:45:05Z</time>
      </trkpt>
      <trkpt lat="45.91355" lon="4.78403">
        <ele>176</ele>
        <time>2018-07-17T10:45:06Z</time>
      </trkpt>
      <trkpt lat="45.91358" lon="4.784">
        <ele>176</ele>
        <time>2018-07-17T10:45:07Z</time>
      </trkpt>
      <trkpt lat="45.91361" lon="4.78393">
        <ele>176</ele>
        <time>2018-07-17T10:45:08Z</time>
      </trkpt>
      <trkpt lat="45.91363" lon="4.78387">
        <ele>176</ele>
        <time>2018-07-17T10:45:09Z</time>
      </trkpt>
      <trkpt lat="45.91365" lon="4.7838">
        <ele>177</ele>
        <time>2018-07-17T10:45:10Z</time>
      </trkpt>
      <trkpt lat="45.91369" lon="4.78372">
        <ele>177</ele>
        <time>2018-07-17T10:45:11Z</time>
      </trkpt>
      <trkpt lat="45.91374" lon="4.78367">
        <ele>177</ele>
        <time>2018-07-17T10:45:12Z</time>
      </trkpt>
      <trkpt lat="45.91377" lon="4.78361">
        <ele>177</ele>
        <time>2018-07-17T10:45:13Z</time>
      </trkpt>
      <trkpt lat="45.9138" lon="4.78352">
        <ele>177</ele>
        <time>2018-07-17T10:45:14Z</time>
      </trkpt>
      <trkpt lat="45.91383" lon="4.78346">
        <ele>177</ele>
        <time>2018-07-17T10:45:15Z</time>
      </trkpt>
      <trkpt lat="45.91387" lon="4.78338">
        <ele>177</ele>
        <time>2018-07-17T10:45:16Z</time>
      </trkpt>
      <trkpt lat="45.91391" lon="4.78329">
        <ele>177</ele>
        <time>2018-07-17T10:45:17Z</time>
      </trkpt>
      <trkpt lat="45.91394" lon="4.78322">
        <ele>177</ele>
        <time>2018-07-17T10:45:18Z</time>
      </trkpt>
      <trkpt lat="45.91398" lon="4.78316">
        <ele>177</ele>
        <time>2018-07-17T10:45:19Z</time>
      </trkpt>
      <trkpt lat="45.91401" lon="4.7831">
        <ele>177</ele>
        <time>2018-07-17T10:45:20Z</time>
      </trkpt>
      <trkpt lat="45.91404" lon="4.78302">
        <ele>177</ele>
        <time>2018-07-17T10:45:21Z</time>
      </trkpt>
      <trkpt lat="45.91407" lon="4.78295">
        <ele>177</ele>
        <time>2018-07-17T10:45:22Z</time>
      </trkpt>
      <trkpt lat="45.91409" lon="4.78288">
        <ele>177</ele>
        <time>2018-07-17T10:45:23Z</time>
      </trkpt>
      <trkpt lat="45.91413" lon="4.78282">
        <ele>177</ele>
        <time>2018-07-17T10:45:24Z</time>
      </trkpt>
      <trkpt lat="45.91415" lon="4.78275">
        <ele>177</ele>
        <time>2018-07-17T10:45:25Z</time>
      </trkpt>
      <trkpt lat="45.91419" lon="4.78268">
        <ele>176</ele>
        <time>2018-07-17T10:45:26Z</time>
      </trkpt>
      <trkpt lat="45.91422" lon="4.78261">
        <ele>177</ele>
        <time>2018-07-17T10:45:27Z</time>
      </trkpt>
      <trkpt lat="45.91425" lon="4.78254">
        <ele>177</ele>
        <time>2018-07-17T10:45:28Z</time>
      </trkpt>
      <trkpt lat="45.91428" lon="4.78246">
        <ele>177</ele>
        <time>2018-07-17T10:45:29Z</time>
      </trkpt>
      <trkpt lat="45.91431" lon="4.78239">
        <ele>177</ele>
        <time>2018-07-17T10:45:30Z</time>
      </trkpt>
      <trkpt lat="45.91435" lon="4.78231">
        <ele>177</ele>
        <time>2018-07-17T10:45:31Z</time>
      </trkpt>
      <trkpt lat="45.91439" lon="4.78223">
        <ele>177</ele>
        <time>2018-07-17T10:45:32Z</time>
      </trkpt>
      <trkpt lat="45.91443" lon="4.78216">
        <ele>177</ele>
        <time>2018-07-17T10:45:33Z</time>
      </trkpt>
      <trkpt lat="45.91447" lon="4.78208">
        <ele>177</ele>
        <time>2018-07-17T10:45:34Z</time>
      </trkpt>
      <trkpt lat="45.91451" lon="4.78201">
        <ele>177</ele>
        <time>2018-07-17T10:45:35Z</time>
      </trkpt>
      <trkpt lat="45.91455" lon="4.78192">
        <ele>177</ele>
        <time>2018-07-17T10:45:36Z</time>
      </trkpt>
      <trkpt lat="45.9146" lon="4.78185">
        <ele>177</ele>
        <time>2018-07-17T10:45:37Z</time>
      </trkpt>
      <trkpt lat="45.91464" lon="4.78178">
        <ele>177</ele>
        <time>2018-07-17T10:45:38Z</time>
      </trkpt>
      <trkpt lat="45.91468" lon="4.78169">
        <ele>177</ele>
        <time>2018-07-17T10:45:39Z</time>
      </trkpt>
      <trkpt lat="45.91471" lon="4.7816">
        <ele>177</ele>
        <time>2018-07-17T10:45:40Z</time>
      </trkpt>
      <trkpt lat="45.91474" lon="4.78151">
        <ele>177</ele>
        <time>2018-07-17T10:45:41Z</time>
      </trkpt>
      <trkpt lat="45.91478" lon="4.78143">
        <ele>177</ele>
        <time>2018-07-17T10:45:42Z</time>
      </trkpt>
      <trkpt lat="45.91482" lon="4.78136">
        <ele>177</ele>
        <time>2018-07-17T10:45:43Z</time>
      </trkpt>
      <trkpt lat="45.91485" lon="4.78128">
        <ele>177</ele>
        <time>2018-07-17T10:45:44Z</time>
      </trkpt>
      <trkpt lat="45.91488" lon="4.7812">
        <ele>177</ele>
        <time>2018-07-17T10:45:45Z</time>
      </trkpt>
      <trkpt lat="45.91494" lon="4.78115">
        <ele>177</ele>
        <time>2018-07-17T10:45:46Z</time>
      </trkpt>
      <trkpt lat="45.91497" lon="4.78107">
        <ele>177</ele>
        <time>2018-07-17T10:45:47Z</time>
      </trkpt>
      <trkpt lat="45.91501" lon="4.781">
        <ele>175</ele>
        <time>2018-07-17T10:45:48Z</time>
      </trkpt>
      <trkpt lat="45.91503" lon="4.78091">
        <ele>176</ele>
        <time>2018-07-17T10:45:49Z</time>
      </trkpt>
      <trkpt lat="45.91507" lon="4.78084">
        <ele>176</ele>
        <time>2018-07-17T10:45:50Z</time>
      </trkpt>
      <trkpt lat="45.91511" lon="4.78077">
        <ele>176</ele>
        <time>2018-07-17T10:45:51Z</time>
      </trkpt>
      <trkpt lat="45.91515" lon="4.78069">
        <ele>175</ele>
        <time>2018-07-17T10:45:52Z</time>
      </trkpt>
      <trkpt lat="45.91518" lon="4.78061">
        <ele>175</ele>
        <time>2018-07-17T10:45:53Z</time>
      </trkpt>
      <trkpt lat="45.9152" lon="4.78052">
        <ele>175</ele>
        <time>2018-07-17T10:45:54Z</time>
      </trkpt>
      <trkpt lat="45.91524" lon="4.78043">
        <ele>175</ele>
        <time>2018-07-17T10:45:55Z</time>
      </trkpt>
      <trkpt lat="45.9153" lon="4.78037">
        <ele>175</ele>
        <time>2018-07-17T10:45:56Z</time>
      </trkpt>
      <trkpt lat="45.91536" lon="4.78031">
        <ele>174</ele>
        <time>2018-07-17T10:45:57Z</time>
      </trkpt>
      <trkpt lat="45.91542" lon="4.78024">
        <ele>174</ele>
        <time>2018-07-17T10:45:58Z</time>
      </trkpt>
      <trkpt lat="45.91545" lon="4.78016">
        <ele>174</ele>
        <time>2018-07-17T10:45:59Z</time>
      </trkpt>
      <trkpt lat="45.91548" lon="4.7801">
        <ele>174</ele>
        <time>2018-07-17T10:46:00Z</time>
      </trkpt>
      <trkpt lat="45.9155" lon="4.78002">
        <ele>174</ele>
        <time>2018-07-17T10:46:01Z</time>
      </trkpt>
      <trkpt lat="45.91553" lon="4.77994">
        <ele>175</ele>
        <time>2018-07-17T10:46:02Z</time>
      </trkpt>
      <trkpt lat="45.91555" lon="4.77988">
        <ele>174</ele>
        <time>2018-07-17T10:46:03Z</time>
      </trkpt>
      <trkpt lat="45.91559" lon="4.7798">
        <ele>174</ele>
        <time>2018-07-17T10:46:04Z</time>
      </trkpt>
      <trkpt lat="45.91564" lon="4.77971">
        <ele>175</ele>
        <time>2018-07-17T10:46:05Z</time>
      </trkpt>
      <trkpt lat="45.91567" lon="4.77963">
        <ele>175</ele>
        <time>2018-07-17T10:46:06Z</time>
      </trkpt>
      <trkpt lat="45.9157" lon="4.77955">
        <ele>175</ele>
        <time>2018-07-17T10:46:07Z</time>
      </trkpt>
      <trkpt lat="45.91574" lon="4.77948">
        <ele>175</ele>
        <time>2018-07-17T10:46:08Z</time>
      </trkpt>
      <trkpt lat="45.91578" lon="4.77941">
        <ele>174</ele>
        <time>2018-07-17T10:46:09Z</time>
      </trkpt>
      <trkpt lat="45.91581" lon="4.77933">
        <ele>174</ele>
        <time>2018-07-17T10:46:10Z</time>
      </trkpt>
      <trkpt lat="45.91583" lon="4.77925">
        <ele>174</ele>
        <time>2018-07-17T10:46:11Z</time>
      </trkpt>
      <trkpt lat="45.91585" lon="4.77918">
        <ele>173</ele>
        <time>2018-07-17T10:46:12Z</time>
      </trkpt>
      <trkpt lat="45.91588" lon="4.77912">
        <ele>173</ele>
        <time>2018-07-17T10:46:13Z</time>
      </trkpt>
      <trkpt lat="45.91591" lon="4.77902">
        <ele>173</ele>
        <time>2018-07-17T10:46:14Z</time>
      </trkpt>
      <trkpt lat="45.91595" lon="4.77896">
        <ele>173</ele>
        <time>2018-07-17T10:46:15Z</time>
      </trkpt>
      <trkpt lat="45.91599" lon="4.77889">
        <ele>173</ele>
        <time>2018-07-17T10:46:16Z</time>
      </trkpt>
      <trkpt lat="45.91602" lon="4.77882">
        <ele>173</ele>
        <time>2018-07-17T10:46:17Z</time>
      </trkpt>
      <trkpt lat="45.91604" lon="4.77876">
        <ele>173</ele>
        <time>2018-07-17T10:46:18Z</time>
      </trkpt>
      <trkpt lat="45.91608" lon="4.77869">
        <ele>173</ele>
        <time>2018-07-17T10:46:19Z</time>
      </trkpt>
      <trkpt lat="45.9161" lon="4.7786">
        <ele>173</ele>
        <time>2018-07-17T10:46:20Z</time>
      </trkpt>
      <trkpt lat="45.91613" lon="4.77853">
        <ele>173</ele>
        <time>2018-07-17T10:46:21Z</time>
      </trkpt>
      <trkpt lat="45.91615" lon="4.77846">
        <ele>173</ele>
        <time>2018-07-17T10:46:22Z</time>
      </trkpt>
      <trkpt lat="45.91618" lon="4.77839">
        <ele>173</ele>
        <time>2018-07-17T10:46:23Z</time>
      </trkpt>
      <trkpt lat="45.91621" lon="4.77833">
        <ele>172</ele>
        <time>2018-07-17T10:46:24Z</time>
      </trkpt>
      <trkpt lat="45.91625" lon="4.77824">
        <ele>172</ele>
        <time>2018-07-17T10:46:25Z</time>
      </trkpt>
      <trkpt lat="45.91628" lon="4.77817">
        <ele>172</ele>
        <time>2018-07-17T10:46:26Z</time>
      </trkpt>
      <trkpt lat="45.91631" lon="4.7781">
        <ele>172</ele>
        <time>2018-07-17T10:46:27Z</time>
      </trkpt>
      <trkpt lat="45.91635" lon="4.77802">
        <ele>171</ele>
        <time>2018-07-17T10:46:28Z</time>
      </trkpt>
      <trkpt lat="45.91638" lon="4.77796">
        <ele>171</ele>
        <time>2018-07-17T10:46:29Z</time>
      </trkpt>
      <trkpt lat="45.91642" lon="4.77788">
        <ele>171</ele>
        <time>2018-07-17T10:46:30Z</time>
      </trkpt>
      <trkpt lat="45.91645" lon="4.7778">
        <ele>171</ele>
        <time>2018-07-17T10:46:31Z</time>
      </trkpt>
      <trkpt lat="45.91647" lon="4.77771">
        <ele>171</ele>
        <time>2018-07-17T10:46:32Z</time>
      </trkpt>
      <trkpt lat="45.91647" lon="4.77761">
        <ele>170</ele>
        <time>2018-07-17T10:46:33Z</time>
      </trkpt>
      <trkpt lat="45.91648" lon="4.7775">
        <ele>170</ele>
        <time>2018-07-17T10:46:35Z</time>
      </trkpt>
      <trkpt lat="45.91649" lon="4.77743">
        <ele>170</ele>
        <time>2018-07-17T10:46:36Z</time>
      </trkpt>
      <trkpt lat="45.91651" lon="4.77735">
        <ele>170</ele>
        <time>2018-07-17T10:46:37Z</time>
      </trkpt>
      <trkpt lat="45.91654" lon="4.77726">
        <ele>170</ele>
        <time>2018-07-17T10:46:38Z</time>
      </trkpt>
      <trkpt lat="45.91656" lon="4.77717">
        <ele>170</ele>
        <time>2018-07-17T10:46:39Z</time>
      </trkpt>
      <trkpt lat="45.91658" lon="4.77709">
        <ele>170</ele>
        <time>2018-07-17T10:46:40Z</time>
      </trkpt>
      <trkpt lat="45.9166" lon="4.77701">
        <ele>170</ele>
        <time>2018-07-17T10:46:41Z</time>
      </trkpt>
      <trkpt lat="45.91661" lon="4.77696">
        <ele>170</ele>
        <time>2018-07-17T10:46:42Z</time>
      </trkpt>
      <trkpt lat="45.91663" lon="4.77686">
        <ele>170</ele>
        <time>2018-07-17T10:46:43Z</time>
      </trkpt>
      <trkpt lat="45.91666" lon="4.77677">
        <ele>170</ele>
        <time>2018-07-17T10:46:44Z</time>
      </trkpt>
      <trkpt lat="45.91668" lon="4.7767">
        <ele>169</ele>
        <time>2018-07-17T10:46:45Z</time>
      </trkpt>
      <trkpt lat="45.91672" lon="4.77662">
        <ele>169</ele>
        <time>2018-07-17T10:46:46Z</time>
      </trkpt>
      <trkpt lat="45.91672" lon="4.77654">
        <ele>169</ele>
        <time>2018-07-17T10:46:47Z</time>
      </trkpt>
      <trkpt lat="45.91673" lon="4.77646">
        <ele>169</ele>
        <time>2018-07-17T10:46:48Z</time>
      </trkpt>
      <trkpt lat="45.91675" lon="4.77638">
        <ele>169</ele>
        <time>2018-07-17T10:46:49Z</time>
      </trkpt>
      <trkpt lat="45.91676" lon="4.7763">
        <ele>169</ele>
        <time>2018-07-17T10:46:50Z</time>
      </trkpt>
      <trkpt lat="45.91679" lon="4.77623">
        <ele>169</ele>
        <time>2018-07-17T10:46:51Z</time>
      </trkpt>
      <trkpt lat="45.91681" lon="4.77615">
        <ele>169</ele>
        <time>2018-07-17T10:46:52Z</time>
      </trkpt>
      <trkpt lat="45.91682" lon="4.77606">
        <ele>169</ele>
        <time>2018-07-17T10:46:53Z</time>
      </trkpt>
      <trkpt lat="45.91683" lon="4.77598">
        <ele>169</ele>
        <time>2018-07-17T10:46:54Z</time>
      </trkpt>
      <trkpt lat="45.91685" lon="4.7759">
        <ele>169</ele>
        <time>2018-07-17T10:46:55Z</time>
      </trkpt>
      <trkpt lat="45.91685" lon="4.7758">
        <ele>169</ele>
        <time>2018-07-17T10:46:56Z</time>
      </trkpt>
      <trkpt lat="45.91687" lon="4.77572">
        <ele>169</ele>
        <time>2018-07-17T10:46:57Z</time>
      </trkpt>
      <trkpt lat="45.91689" lon="4.77563">
        <ele>169</ele>
        <time>2018-07-17T10:46:58Z</time>
      </trkpt>
      <trkpt lat="45.9169" lon="4.77556">
        <ele>169</ele>
        <time>2018-07-17T10:46:59Z</time>
      </trkpt>
      <trkpt lat="45.9169" lon="4.77547">
        <ele>169</ele>
        <time>2018-07-17T10:47:00Z</time>
      </trkpt>
      <trkpt lat="45.91691" lon="4.77539">
        <ele>169</ele>
        <time>2018-07-17T10:47:01Z</time>
      </trkpt>
      <trkpt lat="45.91693" lon="4.77532">
        <ele>169</ele>
        <time>2018-07-17T10:47:02Z</time>
      </trkpt>
      <trkpt lat="45.91693" lon="4.77525">
        <ele>169</ele>
        <time>2018-07-17T10:47:03Z</time>
      </trkpt>
      <trkpt lat="45.91695" lon="4.77519">
        <ele>169</ele>
        <time>2018-07-17T10:47:04Z</time>
      </trkpt>
      <trkpt lat="45.91698" lon="4.77512">
        <ele>170</ele>
        <time>2018-07-17T10:47:05Z</time>
      </trkpt>
      <trkpt lat="45.91702" lon="4.77507">
        <ele>170</ele>
        <time>2018-07-17T10:47:06Z</time>
      </trkpt>
      <trkpt lat="45.91706" lon="4.77502">
        <ele>170</ele>
        <time>2018-07-17T10:47:07Z</time>
      </trkpt>
      <trkpt lat="45.91709" lon="4.77491">
        <ele>170</ele>
        <time>2018-07-17T10:47:08Z</time>
      </trkpt>
      <trkpt lat="45.9171" lon="4.77483">
        <ele>170</ele>
        <time>2018-07-17T10:47:09Z</time>
      </trkpt>
      <trkpt lat="45.91711" lon="4.77474">
        <ele>170</ele>
        <time>2018-07-17T10:47:10Z</time>
      </trkpt>
      <trkpt lat="45.9171" lon="4.77469">
        <ele>170</ele>
        <time>2018-07-17T10:47:11Z</time>
      </trkpt>
      <trkpt lat="45.91707" lon="4.77461">
        <ele>170</ele>
        <time>2018-07-17T10:47:12Z</time>
      </trkpt>
      <trkpt lat="45.91704" lon="4.77455">
        <ele>171</ele>
        <time>2018-07-17T10:47:13Z</time>
      </trkpt>
      <trkpt lat="45.91704" lon="4.77446">
        <ele>171</ele>
        <time>2018-07-17T10:47:14Z</time>
      </trkpt>
      <trkpt lat="45.91705" lon="4.77438">
        <ele>171</ele>
        <time>2018-07-17T10:47:15Z</time>
      </trkpt>
      <trkpt lat="45.91707" lon="4.7743">
        <ele>171</ele>
        <time>2018-07-17T10:47:16Z</time>
      </trkpt>
      <trkpt lat="45.91708" lon="4.7742">
        <ele>171</ele>
        <time>2018-07-17T10:47:17Z</time>
      </trkpt>
      <trkpt lat="45.9171" lon="4.77412">
        <ele>171</ele>
        <time>2018-07-17T10:47:18Z</time>
      </trkpt>
      <trkpt lat="45.91711" lon="4.77404">
        <ele>171</ele>
        <time>2018-07-17T10:47:19Z</time>
      </trkpt>
      <trkpt lat="45.91715" lon="4.77399">
        <ele>171</ele>
        <time>2018-07-17T10:47:20Z</time>
      </trkpt>
      <trkpt lat="45.91717" lon="4.77392">
        <ele>171</ele>
        <time>2018-07-17T10:47:21Z</time>
      </trkpt>
      <trkpt lat="45.91717" lon="4.77382">
        <ele>171</ele>
        <time>2018-07-17T10:47:22Z</time>
      </trkpt>
      <trkpt lat="45.91717" lon="4.77373">
        <ele>171</ele>
        <time>2018-07-17T10:47:23Z</time>
      </trkpt>
      <trkpt lat="45.91719" lon="4.77366">
        <ele>171</ele>
        <time>2018-07-17T10:47:24Z</time>
      </trkpt>
      <trkpt lat="45.9172" lon="4.77358">
        <ele>170</ele>
        <time>2018-07-17T10:47:25Z</time>
      </trkpt>
      <trkpt lat="45.91723" lon="4.7735">
        <ele>170</ele>
        <time>2018-07-17T10:47:26Z</time>
      </trkpt>
      <trkpt lat="45.91723" lon="4.77341">
        <ele>170</ele>
        <time>2018-07-17T10:47:27Z</time>
      </trkpt>
      <trkpt lat="45.91725" lon="4.77333">
        <ele>170</ele>
        <time>2018-07-17T10:47:28Z</time>
      </trkpt>
      <trkpt lat="45.91726" lon="4.77325">
        <ele>170</ele>
        <time>2018-07-17T10:47:29Z</time>
      </trkpt>
      <trkpt lat="45.91728" lon="4.7732">
        <ele>170</ele>
        <time>2018-07-17T10:47:30Z</time>
      </trkpt>
      <trkpt lat="45.91729" lon="4.7731">
        <ele>170</ele>
        <time>2018-07-17T10:47:31Z</time>
      </trkpt>
      <trkpt lat="45.91731" lon="4.77301">
        <ele>170</ele>
        <time>2018-07-17T10:47:32Z</time>
      </trkpt>
      <trkpt lat="45.91731" lon="4.77294">
        <ele>170</ele>
        <time>2018-07-17T10:47:33Z</time>
      </trkpt>
      <trkpt lat="45.91732" lon="4.77286">
        <ele>170</ele>
        <time>2018-07-17T10:47:34Z</time>
      </trkpt>
      <trkpt lat="45.91731" lon="4.77278">
        <ele>170</ele>
        <time>2018-07-17T10:47:35Z</time>
      </trkpt>
      <trkpt lat="45.91733" lon="4.7727">
        <ele>170</ele>
        <time>2018-07-17T10:47:36Z</time>
      </trkpt>
      <trkpt lat="45.91733" lon="4.77262">
        <ele>170</ele>
        <time>2018-07-17T10:47:37Z</time>
      </trkpt>
      <trkpt lat="45.91735" lon="4.77255">
        <ele>169</ele>
        <time>2018-07-17T10:47:38Z</time>
      </trkpt>
      <trkpt lat="45.91734" lon="4.77246">
        <ele>169</ele>
        <time>2018-07-17T10:47:39Z</time>
      </trkpt>
      <trkpt lat="45.91736" lon="4.77238">
        <ele>169</ele>
        <time>2018-07-17T10:47:40Z</time>
      </trkpt>
      <trkpt lat="45.91738" lon="4.77231">
        <ele>169</ele>
        <time>2018-07-17T10:47:41Z</time>
      </trkpt>
      <trkpt lat="45.9174" lon="4.77223">
        <ele>170</ele>
        <time>2018-07-17T10:47:42Z</time>
      </trkpt>
      <trkpt lat="45.91743" lon="4.77217">
        <ele>170</ele>
        <time>2018-07-17T10:47:43Z</time>
      </trkpt>
      <trkpt lat="45.91742" lon="4.77208">
        <ele>170</ele>
        <time>2018-07-17T10:47:44Z</time>
      </trkpt>
      <trkpt lat="45.91743" lon="4.772">
        <ele>170</ele>
        <time>2018-07-17T10:47:45Z</time>
      </trkpt>
      <trkpt lat="45.91744" lon="4.77193">
        <ele>170</ele>
        <time>2018-07-17T10:47:46Z</time>
      </trkpt>
      <trkpt lat="45.91746" lon="4.77186">
        <ele>170</ele>
        <time>2018-07-17T10:47:47Z</time>
      </trkpt>
      <trkpt lat="45.91749" lon="4.77179">
        <ele>170</ele>
        <time>2018-07-17T10:47:48Z</time>
      </trkpt>
      <trkpt lat="45.91748" lon="4.77169">
        <ele>170</ele>
        <time>2018-07-17T10:47:49Z</time>
      </trkpt>
      <trkpt lat="45.91748" lon="4.77162">
        <ele>170</ele>
        <time>2018-07-17T10:47:50Z</time>
      </trkpt>
      <trkpt lat="45.91748" lon="4.77153">
        <ele>170</ele>
        <time>2018-07-17T10:47:51Z</time>
      </trkpt>
      <trkpt lat="45.91748" lon="4.77145">
        <ele>170</ele>
        <time>2018-07-17T10:47:52Z</time>
      </trkpt>
      <trkpt lat="45.9175" lon="4.77137">
        <ele>170</ele>
        <time>2018-07-17T10:47:53Z</time>
      </trkpt>
      <trkpt lat="45.91751" lon="4.77129">
        <ele>169</ele>
        <time>2018-07-17T10:47:54Z</time>
      </trkpt>
      <trkpt lat="45.9175" lon="4.77117">
        <ele>170</ele>
        <time>2018-07-17T10:47:55Z</time>
      </trkpt>
      <trkpt lat="45.91749" lon="4.77107">
        <ele>170</ele>
        <time>2018-07-17T10:47:56Z</time>
      </trkpt>
      <trkpt lat="45.91756" lon="4.77104">
        <ele>169</ele>
        <time>2018-07-17T10:47:57Z</time>
      </trkpt>
      <trkpt lat="45.91757" lon="4.77095">
        <ele>169</ele>
        <time>2018-07-17T10:47:58Z</time>
      </trkpt>
      <trkpt lat="45.91756" lon="4.77086">
        <ele>169</ele>
        <time>2018-07-17T10:47:59Z</time>
      </trkpt>
      <trkpt lat="45.91757" lon="4.77079">
        <ele>169</ele>
        <time>2018-07-17T10:48:00Z</time>
      </trkpt>
      <trkpt lat="45.91756" lon="4.77067">
        <ele>169</ele>
        <time>2018-07-17T10:48:01Z</time>
      </trkpt>
      <trkpt lat="45.91761" lon="4.77063">
        <ele>169</ele>
        <time>2018-07-17T10:48:02Z</time>
      </trkpt>
      <trkpt lat="45.91762" lon="4.77055">
        <ele>169</ele>
        <time>2018-07-17T10:48:03Z</time>
      </trkpt>
      <trkpt lat="45.91763" lon="4.77048">
        <ele>168</ele>
        <time>2018-07-17T10:48:04Z</time>
      </trkpt>
      <trkpt lat="45.91764" lon="4.7704">
        <ele>168</ele>
        <time>2018-07-17T10:48:05Z</time>
      </trkpt>
      <trkpt lat="45.91765" lon="4.77033">
        <ele>168</ele>
        <time>2018-07-17T10:48:06Z</time>
      </trkpt>
      <trkpt lat="45.91766" lon="4.77026">
        <ele>168</ele>
        <time>2018-07-17T10:48:07Z</time>
      </trkpt>
      <trkpt lat="45.91767" lon="4.77016">
        <ele>169</ele>
        <time>2018-07-17T10:48:08Z</time>
      </trkpt>
      <trkpt lat="45.91769" lon="4.77006">
        <ele>169</ele>
        <time>2018-07-17T10:48:09Z</time>
      </trkpt>
      <trkpt lat="45.9177" lon="4.76998">
        <ele>169</ele>
        <time>2018-07-17T10:48:10Z</time>
      </trkpt>
      <trkpt lat="45.91771" lon="4.76989">
        <ele>169</ele>
        <time>2018-07-17T10:48:11Z</time>
      </trkpt>
      <trkpt lat="45.91772" lon="4.76982">
        <ele>169</ele>
        <time>2018-07-17T10:48:12Z</time>
      </trkpt>
      <trkpt lat="45.91772" lon="4.76974">
        <ele>169</ele>
        <time>2018-07-17T10:48:13Z</time>
      </trkpt>
      <trkpt lat="45.91777" lon="4.76968">
        <ele>169</ele>
        <time>2018-07-17T10:48:14Z</time>
      </trkpt>
      <trkpt lat="45.91777" lon="4.7696">
        <ele>169</ele>
        <time>2018-07-17T10:48:15Z</time>
      </trkpt>
      <trkpt lat="45.91778" lon="4.76952">
        <ele>169</ele>
        <time>2018-07-17T10:48:16Z</time>
      </trkpt>
      <trkpt lat="45.91777" lon="4.76943">
        <ele>169</ele>
        <time>2018-07-17T10:48:17Z</time>
      </trkpt>
      <trkpt lat="45.9178" lon="4.76936">
        <ele>169</ele>
        <time>2018-07-17T10:48:18Z</time>
      </trkpt>
      <trkpt lat="45.91781" lon="4.76927">
        <ele>169</ele>
        <time>2018-07-17T10:48:19Z</time>
      </trkpt>
      <trkpt lat="45.91782" lon="4.76919">
        <ele>169</ele>
        <time>2018-07-17T10:48:20Z</time>
      </trkpt>
      <trkpt lat="45.91781" lon="4.7691">
        <ele>170</ele>
        <time>2018-07-17T10:48:21Z</time>
      </trkpt>
      <trkpt lat="45.91781" lon="4.76902">
        <ele>170</ele>
        <time>2018-07-17T10:48:22Z</time>
      </trkpt>
      <trkpt lat="45.91781" lon="4.76892">
        <ele>170</ele>
        <time>2018-07-17T10:48:23Z</time>
      </trkpt>
      <trkpt lat="45.91782" lon="4.76884">
        <ele>170</ele>
        <time>2018-07-17T10:48:24Z</time>
      </trkpt>
      <trkpt lat="45.91784" lon="4.76876">
        <ele>170</ele>
        <time>2018-07-17T10:48:25Z</time>
      </trkpt>
      <trkpt lat="45.91785" lon="4.76871">
        <ele>170</ele>
        <time>2018-07-17T10:48:26Z</time>
      </trkpt>
      <trkpt lat="45.91783" lon="4.76863">
        <ele>170</ele>
        <time>2018-07-17T10:48:27Z</time>
      </trkpt>
      <trkpt lat="45.91784" lon="4.76855">
        <ele>170</ele>
        <time>2018-07-17T10:48:28Z</time>
      </trkpt>
      <trkpt lat="45.91784" lon="4.76847">
        <ele>170</ele>
        <time>2018-07-17T10:48:29Z</time>
      </trkpt>
      <trkpt lat="45.91784" lon="4.7684">
        <ele>170</ele>
        <time>2018-07-17T10:48:30Z</time>
      </trkpt>
      <trkpt lat="45.91784" lon="4.76833">
        <ele>171</ele>
        <time>2018-07-17T10:48:31Z</time>
      </trkpt>
      <trkpt lat="45.91784" lon="4.76826">
        <ele>171</ele>
        <time>2018-07-17T10:48:32Z</time>
      </trkpt>
      <trkpt lat="45.91783" lon="4.7682">
        <ele>171</ele>
        <time>2018-07-17T10:48:33Z</time>
      </trkpt>
      <trkpt lat="45.91782" lon="4.76813">
        <ele>171</ele>
        <time>2018-07-17T10:48:34Z</time>
      </trkpt>
      <trkpt lat="45.91783" lon="4.76806">
        <ele>171</ele>
        <time>2018-07-17T10:48:35Z</time>
      </trkpt>
      <trkpt lat="45.91783" lon="4.76799">
        <ele>171</ele>
        <time>2018-07-17T10:48:36Z</time>
      </trkpt>
      <trkpt lat="45.91782" lon="4.76793">
        <ele>171</ele>
        <time>2018-07-17T10:48:37Z</time>
      </trkpt>
      <trkpt lat="45.91783" lon="4.76785">
        <ele>171</ele>
        <time>2018-07-17T10:48:38Z</time>
      </trkpt>
      <trkpt lat="45.91783" lon="4.76773">
        <ele>171</ele>
        <time>2018-07-17T10:48:40Z</time>
      </trkpt>
      <trkpt lat="45.91783" lon="4.76766">
        <ele>171</ele>
        <time>2018-07-17T10:48:41Z</time>
      </trkpt>
      <trkpt lat="45.91787" lon="4.76756">
        <ele>171</ele>
        <time>2018-07-17T10:48:43Z</time>
      </trkpt>
      <trkpt lat="45.91787" lon="4.76747">
        <ele>172</ele>
        <time>2018-07-17T10:48:44Z</time>
      </trkpt>
      <trkpt lat="45.91788" lon="4.76741">
        <ele>172</ele>
        <time>2018-07-17T10:48:45Z</time>
      </trkpt>
      <trkpt lat="45.91788" lon="4.76734">
        <ele>172</ele>
        <time>2018-07-17T10:48:46Z</time>
      </trkpt>
      <trkpt lat="45.91787" lon="4.76726">
        <ele>172</ele>
        <time>2018-07-17T10:48:47Z</time>
      </trkpt>
      <trkpt lat="45.91788" lon="4.7672">
        <ele>172</ele>
        <time>2018-07-17T10:48:48Z</time>
      </trkpt>
      <trkpt lat="45.91789" lon="4.76709">
        <ele>172</ele>
        <time>2018-07-17T10:48:50Z</time>
      </trkpt>
      <trkpt lat="45.91789" lon="4.76702">
        <ele>172</ele>
        <time>2018-07-17T10:48:51Z</time>
      </trkpt>
      <trkpt lat="45.91792" lon="4.76691">
        <ele>172</ele>
        <time>2018-07-17T10:48:53Z</time>
      </trkpt>
      <trkpt lat="45.91792" lon="4.76685">
        <ele>172</ele>
        <time>2018-07-17T10:48:54Z</time>
      </trkpt>
      <trkpt lat="45.91793" lon="4.76673">
        <ele>172</ele>
        <time>2018-07-17T10:48:56Z</time>
      </trkpt>
      <trkpt lat="45.91793" lon="4.76669">
        <ele>172</ele>
        <time>2018-07-17T10:48:57Z</time>
      </trkpt>
      <trkpt lat="45.91793" lon="4.76662">
        <ele>173</ele>
        <time>2018-07-17T10:48:58Z</time>
      </trkpt>
      <trkpt lat="45.91793" lon="4.76655">
        <ele>173</ele>
        <time>2018-07-17T10:48:59Z</time>
      </trkpt>
      <trkpt lat="45.91791" lon="4.76646">
        <ele>173</ele>
        <time>2018-07-17T10:49:00Z</time>
      </trkpt>
      <trkpt lat="45.91792" lon="4.7664">
        <ele>173</ele>
        <time>2018-07-17T10:49:01Z</time>
      </trkpt>
      <trkpt lat="45.91792" lon="4.76633">
        <ele>173</ele>
        <time>2018-07-17T10:49:02Z</time>
      </trkpt>
      <trkpt lat="45.91792" lon="4.76626">
        <ele>173</ele>
        <time>2018-07-17T10:49:03Z</time>
      </trkpt>
      <trkpt lat="45.91794" lon="4.76614">
        <ele>173</ele>
        <time>2018-07-17T10:49:05Z</time>
      </trkpt>
      <trkpt lat="45.91795" lon="4.76607">
        <ele>173</ele>
        <time>2018-07-17T10:49:06Z</time>
      </trkpt>
      <trkpt lat="45.91796" lon="4.766">
        <ele>173</ele>
        <time>2018-07-17T10:49:07Z</time>
      </trkpt>
      <trkpt lat="45.91798" lon="4.76593">
        <ele>173</ele>
        <time>2018-07-17T10:49:08Z</time>
      </trkpt>
      <trkpt lat="45.91798" lon="4.76586">
        <ele>173</ele>
        <time>2018-07-17T10:49:09Z</time>
      </trkpt>
      <trkpt lat="45.91799" lon="4.76579">
        <ele>173</ele>
        <time>2018-07-17T10:49:10Z</time>
      </trkpt>
      <trkpt lat="45.918" lon="4.76574">
        <ele>173</ele>
        <time>2018-07-17T10:49:11Z</time>
      </trkpt>
      <trkpt lat="45.918" lon="4.76566">
        <ele>173</ele>
        <time>2018-07-17T10:49:12Z</time>
      </trkpt>
      <trkpt lat="45.91802" lon="4.76554">
        <ele>173</ele>
        <time>2018-07-17T10:49:14Z</time>
      </trkpt>
      <trkpt lat="45.91802" lon="4.76545">
        <ele>173</ele>
        <time>2018-07-17T10:49:15Z</time>
      </trkpt>
      <trkpt lat="45.91802" lon="4.76538">
        <ele>173</ele>
        <time>2018-07-17T10:49:16Z</time>
      </trkpt>
      <trkpt lat="45.91803" lon="4.7653">
        <ele>173</ele>
        <time>2018-07-17T10:49:17Z</time>
      </trkpt>
      <trkpt lat="45.91806" lon="4.76524">
        <ele>173</ele>
        <time>2018-07-17T10:49:18Z</time>
      </trkpt>
      <trkpt lat="45.91806" lon="4.76516">
        <ele>173</ele>
        <time>2018-07-17T10:49:19Z</time>
      </trkpt>
      <trkpt lat="45.91806" lon="4.76508">
        <ele>173</ele>
        <time>2018-07-17T10:49:20Z</time>
      </trkpt>
      <trkpt lat="45.91808" lon="4.76502">
        <ele>173</ele>
        <time>2018-07-17T10:49:21Z</time>
      </trkpt>
      <trkpt lat="45.91809" lon="4.76491">
        <ele>173</ele>
        <time>2018-07-17T10:49:23Z</time>
      </trkpt>
      <trkpt lat="45.9181" lon="4.76484">
        <ele>173</ele>
        <time>2018-07-17T10:49:24Z</time>
      </trkpt>
      <trkpt lat="45.9181" lon="4.76474">
        <ele>173</ele>
        <time>2018-07-17T10:49:25Z</time>
      </trkpt>
      <trkpt lat="45.91811" lon="4.76467">
        <ele>173</ele>
        <time>2018-07-17T10:49:26Z</time>
      </trkpt>
      <trkpt lat="45.91811" lon="4.7646">
        <ele>173</ele>
        <time>2018-07-17T10:49:27Z</time>
      </trkpt>
      <trkpt lat="45.91813" lon="4.76453">
        <ele>173</ele>
        <time>2018-07-17T10:49:28Z</time>
      </trkpt>
      <trkpt lat="45.91814" lon="4.76447">
        <ele>173</ele>
        <time>2018-07-17T10:49:29Z</time>
      </trkpt>
      <trkpt lat="45.91814" lon="4.7644">
        <ele>173</ele>
        <time>2018-07-17T10:49:30Z</time>
      </trkpt>
      <trkpt lat="45.91814" lon="4.76432">
        <ele>173</ele>
        <time>2018-07-17T10:49:31Z</time>
      </trkpt>
      <trkpt lat="45.91813" lon="4.76423">
        <ele>173</ele>
        <time>2018-07-17T10:49:32Z</time>
      </trkpt>
      <trkpt lat="45.91814" lon="4.76415">
        <ele>173</ele>
        <time>2018-07-17T10:49:33Z</time>
      </trkpt>
      <trkpt lat="45.91816" lon="4.76408">
        <ele>173</ele>
        <time>2018-07-17T10:49:34Z</time>
      </trkpt>
      <trkpt lat="45.91816" lon="4.764">
        <ele>173</ele>
        <time>2018-07-17T10:49:35Z</time>
      </trkpt>
      <trkpt lat="45.91817" lon="4.7639">
        <ele>173</ele>
        <time>2018-07-17T10:49:36Z</time>
      </trkpt>
      <trkpt lat="45.91817" lon="4.76382">
        <ele>174</ele>
        <time>2018-07-17T10:49:37Z</time>
      </trkpt>
      <trkpt lat="45.91816" lon="4.76374">
        <ele>174</ele>
        <time>2018-07-17T10:49:38Z</time>
      </trkpt>
      <trkpt lat="45.91817" lon="4.76365">
        <ele>174</ele>
        <time>2018-07-17T10:49:39Z</time>
      </trkpt>
      <trkpt lat="45.91817" lon="4.76357">
        <ele>174</ele>
        <time>2018-07-17T10:49:40Z</time>
      </trkpt>
      <trkpt lat="45.91814" lon="4.7635">
        <ele>174</ele>
        <time>2018-07-17T10:49:41Z</time>
      </trkpt>
      <trkpt lat="45.91816" lon="4.76342">
        <ele>174</ele>
        <time>2018-07-17T10:49:42Z</time>
      </trkpt>
      <trkpt lat="45.91817" lon="4.76335">
        <ele>174</ele>
        <time>2018-07-17T10:49:43Z</time>
      </trkpt>
      <trkpt lat="45.91819" lon="4.76328">
        <ele>174</ele>
        <time>2018-07-17T10:49:44Z</time>
      </trkpt>
      <trkpt lat="45.9182" lon="4.76321">
        <ele>174</ele>
        <time>2018-07-17T10:49:45Z</time>
      </trkpt>
      <trkpt lat="45.91821" lon="4.76311">
        <ele>174</ele>
        <time>2018-07-17T10:49:46Z</time>
      </trkpt>
      <trkpt lat="45.91823" lon="4.76304">
        <ele>174</ele>
        <time>2018-07-17T10:49:47Z</time>
      </trkpt>
      <trkpt lat="45.91824" lon="4.76297">
        <ele>174</ele>
        <time>2018-07-17T10:49:48Z</time>
      </trkpt>
      <trkpt lat="45.91827" lon="4.7629">
        <ele>174</ele>
        <time>2018-07-17T10:49:49Z</time>
      </trkpt>
      <trkpt lat="45.9183" lon="4.76279">
        <ele>174</ele>
        <time>2018-07-17T10:49:50Z</time>
      </trkpt>
      <trkpt lat="45.91832" lon="4.76271">
        <ele>174</ele>
        <time>2018-07-17T10:49:51Z</time>
      </trkpt>
      <trkpt lat="45.91836" lon="4.76266">
        <ele>172</ele>
        <time>2018-07-17T10:49:52Z</time>
      </trkpt>
      <trkpt lat="45.91838" lon="4.76257">
        <ele>173</ele>
        <time>2018-07-17T10:49:53Z</time>
      </trkpt>
      <trkpt lat="45.9184" lon="4.76252">
        <ele>173</ele>
        <time>2018-07-17T10:49:54Z</time>
      </trkpt>
      <trkpt lat="45.91841" lon="4.76244">
        <ele>173</ele>
        <time>2018-07-17T10:49:55Z</time>
      </trkpt>
      <trkpt lat="45.91844" lon="4.76234">
        <ele>172</ele>
        <time>2018-07-17T10:49:56Z</time>
      </trkpt>
      <trkpt lat="45.91845" lon="4.76227">
        <ele>172</ele>
        <time>2018-07-17T10:49:57Z</time>
      </trkpt>
      <trkpt lat="45.91847" lon="4.76218">
        <ele>172</ele>
        <time>2018-07-17T10:49:58Z</time>
      </trkpt>
      <trkpt lat="45.9185" lon="4.76208">
        <ele>172</ele>
        <time>2018-07-17T10:50:00Z</time>
      </trkpt>
      <trkpt lat="45.91852" lon="4.76202">
        <ele>172</ele>
        <time>2018-07-17T10:50:01Z</time>
      </trkpt>
      <trkpt lat="45.91853" lon="4.76193">
        <ele>172</ele>
        <time>2018-07-17T10:50:02Z</time>
      </trkpt>
      <trkpt lat="45.91854" lon="4.76184">
        <ele>172</ele>
        <time>2018-07-17T10:50:03Z</time>
      </trkpt>
      <trkpt lat="45.91855" lon="4.76177">
        <ele>172</ele>
        <time>2018-07-17T10:50:04Z</time>
      </trkpt>
      <trkpt lat="45.91858" lon="4.76171">
        <ele>172</ele>
        <time>2018-07-17T10:50:05Z</time>
      </trkpt>
      <trkpt lat="45.91863" lon="4.76162">
        <ele>173</ele>
        <time>2018-07-17T10:50:07Z</time>
      </trkpt>
      <trkpt lat="45.91863" lon="4.76153">
        <ele>173</ele>
        <time>2018-07-17T10:50:08Z</time>
      </trkpt>
      <trkpt lat="45.91865" lon="4.76146">
        <ele>173</ele>
        <time>2018-07-17T10:50:09Z</time>
      </trkpt>
      <trkpt lat="45.91867" lon="4.76139">
        <ele>173</ele>
        <time>2018-07-17T10:50:10Z</time>
      </trkpt>
      <trkpt lat="45.9187" lon="4.76131">
        <ele>173</ele>
        <time>2018-07-17T10:50:11Z</time>
      </trkpt>
      <trkpt lat="45.91871" lon="4.76126">
        <ele>173</ele>
        <time>2018-07-17T10:50:12Z</time>
      </trkpt>
      <trkpt lat="45.91871" lon="4.76117">
        <ele>173</ele>
        <time>2018-07-17T10:50:13Z</time>
      </trkpt>
      <trkpt lat="45.91871" lon="4.76109">
        <ele>173</ele>
        <time>2018-07-17T10:50:14Z</time>
      </trkpt>
      <trkpt lat="45.91873" lon="4.76101">
        <ele>173</ele>
        <time>2018-07-17T10:50:15Z</time>
      </trkpt>
      <trkpt lat="45.91877" lon="4.76096">
        <ele>173</ele>
        <time>2018-07-17T10:50:16Z</time>
      </trkpt>
      <trkpt lat="45.91878" lon="4.76088">
        <ele>173</ele>
        <time>2018-07-17T10:50:17Z</time>
      </trkpt>
      <trkpt lat="45.9188" lon="4.76081">
        <ele>173</ele>
        <time>2018-07-17T10:50:18Z</time>
      </trkpt>
      <trkpt lat="45.91882" lon="4.76074">
        <ele>173</ele>
        <time>2018-07-17T10:50:19Z</time>
      </trkpt>
      <trkpt lat="45.91884" lon="4.76067">
        <ele>173</ele>
        <time>2018-07-17T10:50:20Z</time>
      </trkpt>
      <trkpt lat="45.91888" lon="4.76061">
        <ele>173</ele>
        <time>2018-07-17T10:50:21Z</time>
      </trkpt>
      <trkpt lat="45.91891" lon="4.76054">
        <ele>173</ele>
        <time>2018-07-17T10:50:22Z</time>
      </trkpt>
      <trkpt lat="45.91896" lon="4.76046">
        <ele>173</ele>
        <time>2018-07-17T10:50:23Z</time>
      </trkpt>
      <trkpt lat="45.91898" lon="4.76038">
        <ele>173</ele>
        <time>2018-07-17T10:50:24Z</time>
      </trkpt>
      <trkpt lat="45.919" lon="4.76032">
        <ele>173</ele>
        <time>2018-07-17T10:50:25Z</time>
      </trkpt>
      <trkpt lat="45.91902" lon="4.76023">
        <ele>173</ele>
        <time>2018-07-17T10:50:26Z</time>
      </trkpt>
      <trkpt lat="45.91904" lon="4.76015">
        <ele>173</ele>
        <time>2018-07-17T10:50:27Z</time>
      </trkpt>
      <trkpt lat="45.91908" lon="4.76007">
        <ele>172</ele>
        <time>2018-07-17T10:50:28Z</time>
      </trkpt>
      <trkpt lat="45.91909" lon="4.75997">
        <ele>172</ele>
        <time>2018-07-17T10:50:29Z</time>
      </trkpt>
      <trkpt lat="45.91913" lon="4.75993">
        <ele>172</ele>
        <time>2018-07-17T10:50:30Z</time>
      </trkpt>
      <trkpt lat="45.91913" lon="4.75985">
        <ele>173</ele>
        <time>2018-07-17T10:50:31Z</time>
      </trkpt>
      <trkpt lat="45.91917" lon="4.75979">
        <ele>172</ele>
        <time>2018-07-17T10:50:32Z</time>
      </trkpt>
      <trkpt lat="45.91919" lon="4.75971">
        <ele>172</ele>
        <time>2018-07-17T10:50:33Z</time>
      </trkpt>
      <trkpt lat="45.9192" lon="4.75963">
        <ele>172</ele>
        <time>2018-07-17T10:50:34Z</time>
      </trkpt>
      <trkpt lat="45.91922" lon="4.75957">
        <ele>172</ele>
        <time>2018-07-17T10:50:35Z</time>
      </trkpt>
      <trkpt lat="45.91924" lon="4.7595">
        <ele>172</ele>
        <time>2018-07-17T10:50:36Z</time>
      </trkpt>
      <trkpt lat="45.91926" lon="4.75942">
        <ele>172</ele>
        <time>2018-07-17T10:50:37Z</time>
      </trkpt>
      <trkpt lat="45.91928" lon="4.75933">
        <ele>172</ele>
        <time>2018-07-17T10:50:38Z</time>
      </trkpt>
      <trkpt lat="45.9193" lon="4.75922">
        <ele>172</ele>
        <time>2018-07-17T10:50:39Z</time>
      </trkpt>
      <trkpt lat="45.91933" lon="4.75915">
        <ele>172</ele>
        <time>2018-07-17T10:50:40Z</time>
      </trkpt>
      <trkpt lat="45.91936" lon="4.75906">
        <ele>172</ele>
        <time>2018-07-17T10:50:41Z</time>
      </trkpt>
      <trkpt lat="45.91939" lon="4.75897">
        <ele>172</ele>
        <time>2018-07-17T10:50:42Z</time>
      </trkpt>
      <trkpt lat="45.91942" lon="4.75889">
        <ele>172</ele>
        <time>2018-07-17T10:50:43Z</time>
      </trkpt>
      <trkpt lat="45.91943" lon="4.75881">
        <ele>172</ele>
        <time>2018-07-17T10:50:44Z</time>
      </trkpt>
      <trkpt lat="45.91945" lon="4.75875">
        <ele>172</ele>
        <time>2018-07-17T10:50:45Z</time>
      </trkpt>
      <trkpt lat="45.91949" lon="4.7587">
        <ele>172</ele>
        <time>2018-07-17T10:50:46Z</time>
      </trkpt>
      <trkpt lat="45.91951" lon="4.75866">
        <ele>172</ele>
        <time>2018-07-17T10:50:47Z</time>
      </trkpt>
      <trkpt lat="45.91954" lon="4.75856">
        <ele>172</ele>
        <time>2018-07-17T10:50:48Z</time>
      </trkpt>
      <trkpt lat="45.91957" lon="4.75847">
        <ele>172</ele>
        <time>2018-07-17T10:50:49Z</time>
      </trkpt>
      <trkpt lat="45.9196" lon="4.75841">
        <ele>172</ele>
        <time>2018-07-17T10:50:50Z</time>
      </trkpt>
      <trkpt lat="45.91962" lon="4.75835">
        <ele>172</ele>
        <time>2018-07-17T10:50:51Z</time>
      </trkpt>
      <trkpt lat="45.91965" lon="4.75829">
        <ele>173</ele>
        <time>2018-07-17T10:50:52Z</time>
      </trkpt>
      <trkpt lat="45.91968" lon="4.75823">
        <ele>173</ele>
        <time>2018-07-17T10:50:53Z</time>
      </trkpt>
      <trkpt lat="45.91971" lon="4.75818">
        <ele>173</ele>
        <time>2018-07-17T10:50:54Z</time>
      </trkpt>
      <trkpt lat="45.91974" lon="4.75812">
        <ele>173</ele>
        <time>2018-07-17T10:50:55Z</time>
      </trkpt>
      <trkpt lat="45.91977" lon="4.75807">
        <ele>173</ele>
        <time>2018-07-17T10:50:56Z</time>
      </trkpt>
      <trkpt lat="45.9198" lon="4.75802">
        <ele>173</ele>
        <time>2018-07-17T10:50:57Z</time>
      </trkpt>
      <trkpt lat="45.91982" lon="4.75795">
        <ele>173</ele>
        <time>2018-07-17T10:50:58Z</time>
      </trkpt>
      <trkpt lat="45.91985" lon="4.75789">
        <ele>173</ele>
        <time>2018-07-17T10:50:59Z</time>
      </trkpt>
      <trkpt lat="45.91989" lon="4.75783">
        <ele>173</ele>
        <time>2018-07-17T10:51:00Z</time>
      </trkpt>
      <trkpt lat="45.91992" lon="4.75777">
        <ele>174</ele>
        <time>2018-07-17T10:51:01Z</time>
      </trkpt>
      <trkpt lat="45.91995" lon="4.75772">
        <ele>174</ele>
        <time>2018-07-17T10:51:02Z</time>
      </trkpt>
      <trkpt lat="45.92" lon="4.75765">
        <ele>174</ele>
        <time>2018-07-17T10:51:03Z</time>
      </trkpt>
      <trkpt lat="45.92003" lon="4.75759">
        <ele>174</ele>
        <time>2018-07-17T10:51:04Z</time>
      </trkpt>
      <trkpt lat="45.9201" lon="4.75751">
        <ele>174</ele>
        <time>2018-07-17T10:51:06Z</time>
      </trkpt>
      <trkpt lat="45.92014" lon="4.7574">
        <ele>174</ele>
        <time>2018-07-17T10:51:07Z</time>
      </trkpt>
      <trkpt lat="45.92016" lon="4.75734">
        <ele>175</ele>
        <time>2018-07-17T10:51:08Z</time>
      </trkpt>
      <trkpt lat="45.92019" lon="4.75727">
        <ele>175</ele>
        <time>2018-07-17T10:51:09Z</time>
      </trkpt>
      <trkpt lat="45.92023" lon="4.75721">
        <ele>175</ele>
        <time>2018-07-17T10:51:10Z</time>
      </trkpt>
      <trkpt lat="45.92026" lon="4.75716">
        <ele>175</ele>
        <time>2018-07-17T10:51:11Z</time>
      </trkpt>
      <trkpt lat="45.9203" lon="4.75709">
        <ele>175</ele>
        <time>2018-07-17T10:51:12Z</time>
      </trkpt>
      <trkpt lat="45.92033" lon="4.75705">
        <ele>175</ele>
        <time>2018-07-17T10:51:13Z</time>
      </trkpt>
      <trkpt lat="45.92036" lon="4.75701">
        <ele>175</ele>
        <time>2018-07-17T10:51:14Z</time>
      </trkpt>
      <trkpt lat="45.9204" lon="4.75694">
        <ele>175</ele>
        <time>2018-07-17T10:51:15Z</time>
      </trkpt>
      <trkpt lat="45.92043" lon="4.75689">
        <ele>175</ele>
        <time>2018-07-17T10:51:16Z</time>
      </trkpt>
      <trkpt lat="45.92046" lon="4.75681">
        <ele>175</ele>
        <time>2018-07-17T10:51:17Z</time>
      </trkpt>
      <trkpt lat="45.9205" lon="4.75675">
        <ele>175</ele>
        <time>2018-07-17T10:51:18Z</time>
      </trkpt>
      <trkpt lat="45.92053" lon="4.75669">
        <ele>175</ele>
        <time>2018-07-17T10:51:19Z</time>
      </trkpt>
      <trkpt lat="45.92057" lon="4.75662">
        <ele>175</ele>
        <time>2018-07-17T10:51:20Z</time>
      </trkpt>
      <trkpt lat="45.92061" lon="4.75655">
        <ele>175</ele>
        <time>2018-07-17T10:51:21Z</time>
      </trkpt>
      <trkpt lat="45.92065" lon="4.75648">
        <ele>175</ele>
        <time>2018-07-17T10:51:22Z</time>
      </trkpt>
      <trkpt lat="45.9207" lon="4.7564">
        <ele>175</ele>
        <time>2018-07-17T10:51:23Z</time>
      </trkpt>
      <trkpt lat="45.92073" lon="4.75635">
        <ele>175</ele>
        <time>2018-07-17T10:51:24Z</time>
      </trkpt>
      <trkpt lat="45.92077" lon="4.75626">
        <ele>175</ele>
        <time>2018-07-17T10:51:25Z</time>
      </trkpt>
      <trkpt lat="45.9208" lon="4.75621">
        <ele>175</ele>
        <time>2018-07-17T10:51:26Z</time>
      </trkpt>
      <trkpt lat="45.92085" lon="4.75616">
        <ele>174</ele>
        <time>2018-07-17T10:51:27Z</time>
      </trkpt>
      <trkpt lat="45.92089" lon="4.75611">
        <ele>174</ele>
        <time>2018-07-17T10:51:28Z</time>
      </trkpt>
      <trkpt lat="45.92092" lon="4.75606">
        <ele>174</ele>
        <time>2018-07-17T10:51:29Z</time>
      </trkpt>
      <trkpt lat="45.92096" lon="4.75599">
        <ele>174</ele>
        <time>2018-07-17T10:51:30Z</time>
      </trkpt>
      <trkpt lat="45.92099" lon="4.75592">
        <ele>174</ele>
        <time>2018-07-17T10:51:31Z</time>
      </trkpt>
      <trkpt lat="45.92102" lon="4.75585">
        <ele>174</ele>
        <time>2018-07-17T10:51:32Z</time>
      </trkpt>
      <trkpt lat="45.92105" lon="4.75578">
        <ele>174</ele>
        <time>2018-07-17T10:51:33Z</time>
      </trkpt>
      <trkpt lat="45.92108" lon="4.75573">
        <ele>174</ele>
        <time>2018-07-17T10:51:34Z</time>
      </trkpt>
      <trkpt lat="45.92111" lon="4.75568">
        <ele>174</ele>
        <time>2018-07-17T10:51:35Z</time>
      </trkpt>
      <trkpt lat="45.92115" lon="4.75562">
        <ele>174</ele>
        <time>2018-07-17T10:51:36Z</time>
      </trkpt>
      <trkpt lat="45.92118" lon="4.75555">
        <ele>174</ele>
        <time>2018-07-17T10:51:37Z</time>
      </trkpt>
      <trkpt lat="45.92121" lon="4.7555">
        <ele>174</ele>
        <time>2018-07-17T10:51:38Z</time>
      </trkpt>
      <trkpt lat="45.92124" lon="4.75544">
        <ele>174</ele>
        <time>2018-07-17T10:51:39Z</time>
      </trkpt>
      <trkpt lat="45.92129" lon="4.75539">
        <ele>174</ele>
        <time>2018-07-17T10:51:40Z</time>
      </trkpt>
      <trkpt lat="45.92132" lon="4.75533">
        <ele>174</ele>
        <time>2018-07-17T10:51:41Z</time>
      </trkpt>
      <trkpt lat="45.92135" lon="4.75527">
        <ele>174</ele>
        <time>2018-07-17T10:51:42Z</time>
      </trkpt>
      <trkpt lat="45.9214" lon="4.75521">
        <ele>174</ele>
        <time>2018-07-17T10:51:43Z</time>
      </trkpt>
      <trkpt lat="45.92142" lon="4.75515">
        <ele>174</ele>
        <time>2018-07-17T10:51:44Z</time>
      </trkpt>
      <trkpt lat="45.92146" lon="4.7551">
        <ele>175</ele>
        <time>2018-07-17T10:51:45Z</time>
      </trkpt>
      <trkpt lat="45.92149" lon="4.75504">
        <ele>175</ele>
        <time>2018-07-17T10:51:46Z</time>
      </trkpt>
      <trkpt lat="45.92151" lon="4.75496">
        <ele>175</ele>
        <time>2018-07-17T10:51:47Z</time>
      </trkpt>
      <trkpt lat="45.92153" lon="4.75488">
        <ele>176</ele>
        <time>2018-07-17T10:51:48Z</time>
      </trkpt>
      <trkpt lat="45.92156" lon="4.75482">
        <ele>176</ele>
        <time>2018-07-17T10:51:49Z</time>
      </trkpt>
      <trkpt lat="45.92159" lon="4.75476">
        <ele>176</ele>
        <time>2018-07-17T10:51:50Z</time>
      </trkpt>
      <trkpt lat="45.92162" lon="4.7547">
        <ele>176</ele>
        <time>2018-07-17T10:51:51Z</time>
      </trkpt>
      <trkpt lat="45.92165" lon="4.75463">
        <ele>176</ele>
        <time>2018-07-17T10:51:52Z</time>
      </trkpt>
      <trkpt lat="45.92168" lon="4.75456">
        <ele>176</ele>
        <time>2018-07-17T10:51:53Z</time>
      </trkpt>
      <trkpt lat="45.92171" lon="4.75448">
        <ele>176</ele>
        <time>2018-07-17T10:51:54Z</time>
      </trkpt>
      <trkpt lat="45.92175" lon="4.7544">
        <ele>177</ele>
        <time>2018-07-17T10:51:55Z</time>
      </trkpt>
      <trkpt lat="45.92177" lon="4.75433">
        <ele>177</ele>
        <time>2018-07-17T10:51:56Z</time>
      </trkpt>
      <trkpt lat="45.9218" lon="4.75425">
        <ele>177</ele>
        <time>2018-07-17T10:51:57Z</time>
      </trkpt>
      <trkpt lat="45.92181" lon="4.75417">
        <ele>177</ele>
        <time>2018-07-17T10:51:58Z</time>
      </trkpt>
      <trkpt lat="45.92184" lon="4.75411">
        <ele>177</ele>
        <time>2018-07-17T10:51:59Z</time>
      </trkpt>
      <trkpt lat="45.92185" lon="4.75404">
        <ele>177</ele>
        <time>2018-07-17T10:52:00Z</time>
      </trkpt>
      <trkpt lat="45.92188" lon="4.75399">
        <ele>177</ele>
        <time>2018-07-17T10:52:01Z</time>
      </trkpt>
      <trkpt lat="45.92191" lon="4.75393">
        <ele>177</ele>
        <time>2018-07-17T10:52:02Z</time>
      </trkpt>
      <trkpt lat="45.92193" lon="4.75387">
        <ele>177</ele>
        <time>2018-07-17T10:52:03Z</time>
      </trkpt>
      <trkpt lat="45.92198" lon="4.75376">
        <ele>177</ele>
        <time>2018-07-17T10:52:05Z</time>
      </trkpt>
      <trkpt lat="45.922" lon="4.7537">
        <ele>177</ele>
        <time>2018-07-17T10:52:06Z</time>
      </trkpt>
      <trkpt lat="45.92203" lon="4.75359">
        <ele>177</ele>
        <time>2018-07-17T10:52:08Z</time>
      </trkpt>
      <trkpt lat="45.92206" lon="4.75352">
        <ele>177</ele>
        <time>2018-07-17T10:52:09Z</time>
      </trkpt>
      <trkpt lat="45.92208" lon="4.75346">
        <ele>177</ele>
        <time>2018-07-17T10:52:10Z</time>
      </trkpt>
      <trkpt lat="45.92209" lon="4.75338">
        <ele>177</ele>
        <time>2018-07-17T10:52:11Z</time>
      </trkpt>
      <trkpt lat="45.9221" lon="4.7533">
        <ele>176</ele>
        <time>2018-07-17T10:52:12Z</time>
      </trkpt>
      <trkpt lat="45.92211" lon="4.75322">
        <ele>176</ele>
        <time>2018-07-17T10:52:13Z</time>
      </trkpt>
      <trkpt lat="45.92212" lon="4.75315">
        <ele>176</ele>
        <time>2018-07-17T10:52:14Z</time>
      </trkpt>
      <trkpt lat="45.92213" lon="4.75306">
        <ele>176</ele>
        <time>2018-07-17T10:52:15Z</time>
      </trkpt>
      <trkpt lat="45.92213" lon="4.75298">
        <ele>176</ele>
        <time>2018-07-17T10:52:16Z</time>
      </trkpt>
      <trkpt lat="45.92215" lon="4.75289">
        <ele>176</ele>
        <time>2018-07-17T10:52:17Z</time>
      </trkpt>
      <trkpt lat="45.92214" lon="4.75281">
        <ele>176</ele>
        <time>2018-07-17T10:52:18Z</time>
      </trkpt>
      <trkpt lat="45.92213" lon="4.75272">
        <ele>176</ele>
        <time>2018-07-17T10:52:19Z</time>
      </trkpt>
      <trkpt lat="45.92214" lon="4.75263">
        <ele>176</ele>
        <time>2018-07-17T10:52:20Z</time>
      </trkpt>
      <trkpt lat="45.92212" lon="4.75255">
        <ele>175</ele>
        <time>2018-07-17T10:52:21Z</time>
      </trkpt>
      <trkpt lat="45.92213" lon="4.75247">
        <ele>175</ele>
        <time>2018-07-17T10:52:22Z</time>
      </trkpt>
      <trkpt lat="45.92213" lon="4.75238">
        <ele>175</ele>
        <time>2018-07-17T10:52:23Z</time>
      </trkpt>
      <trkpt lat="45.92212" lon="4.75228">
        <ele>175</ele>
        <time>2018-07-17T10:52:24Z</time>
      </trkpt>
      <trkpt lat="45.92212" lon="4.75219">
        <ele>175</ele>
        <time>2018-07-17T10:52:25Z</time>
      </trkpt>
      <trkpt lat="45.92215" lon="4.75211">
        <ele>175</ele>
        <time>2018-07-17T10:52:26Z</time>
      </trkpt>
      <trkpt lat="45.92218" lon="4.75203">
        <ele>175</ele>
        <time>2018-07-17T10:52:27Z</time>
      </trkpt>
      <trkpt lat="45.92219" lon="4.75192">
        <ele>175</ele>
        <time>2018-07-17T10:52:28Z</time>
      </trkpt>
      <trkpt lat="45.92221" lon="4.75184">
        <ele>175</ele>
        <time>2018-07-17T10:52:29Z</time>
      </trkpt>
      <trkpt lat="45.92224" lon="4.75176">
        <ele>175</ele>
        <time>2018-07-17T10:52:30Z</time>
      </trkpt>
      <trkpt lat="45.92229" lon="4.75169">
        <ele>175</ele>
        <time>2018-07-17T10:52:31Z</time>
      </trkpt>
      <trkpt lat="45.92232" lon="4.7516">
        <ele>174</ele>
        <time>2018-07-17T10:52:32Z</time>
      </trkpt>
      <trkpt lat="45.92236" lon="4.75154">
        <ele>174</ele>
        <time>2018-07-17T10:52:33Z</time>
      </trkpt>
      <trkpt lat="45.9224" lon="4.75147">
        <ele>174</ele>
        <time>2018-07-17T10:52:34Z</time>
      </trkpt>
      <trkpt lat="45.92244" lon="4.7514">
        <ele>174</ele>
        <time>2018-07-17T10:52:35Z</time>
      </trkpt>
      <trkpt lat="45.9225" lon="4.75135">
        <ele>174</ele>
        <time>2018-07-17T10:52:36Z</time>
      </trkpt>
      <trkpt lat="45.92254" lon="4.75129">
        <ele>174</ele>
        <time>2018-07-17T10:52:37Z</time>
      </trkpt>
      <trkpt lat="45.92259" lon="4.7512">
        <ele>174</ele>
        <time>2018-07-17T10:52:38Z</time>
      </trkpt>
      <trkpt lat="45.92264" lon="4.75115">
        <ele>174</ele>
        <time>2018-07-17T10:52:39Z</time>
      </trkpt>
      <trkpt lat="45.92269" lon="4.75112">
        <ele>174</ele>
        <time>2018-07-17T10:52:40Z</time>
      </trkpt>
      <trkpt lat="45.92273" lon="4.75107">
        <ele>174</ele>
        <time>2018-07-17T10:52:41Z</time>
      </trkpt>
      <trkpt lat="45.92277" lon="4.75102">
        <ele>173</ele>
        <time>2018-07-17T10:52:42Z</time>
      </trkpt>
      <trkpt lat="45.92281" lon="4.75096">
        <ele>173</ele>
        <time>2018-07-17T10:52:43Z</time>
      </trkpt>
      <trkpt lat="45.92285" lon="4.75092">
        <ele>173</ele>
        <time>2018-07-17T10:52:44Z</time>
      </trkpt>
      <trkpt lat="45.9229" lon="4.75089">
        <ele>173</ele>
        <time>2018-07-17T10:52:45Z</time>
      </trkpt>
      <trkpt lat="45.92296" lon="4.75086">
        <ele>173</ele>
        <time>2018-07-17T10:52:46Z</time>
      </trkpt>
      <trkpt lat="45.923" lon="4.7508">
        <ele>172</ele>
        <time>2018-07-17T10:52:47Z</time>
      </trkpt>
      <trkpt lat="45.92305" lon="4.75074">
        <ele>172</ele>
        <time>2018-07-17T10:52:48Z</time>
      </trkpt>
      <trkpt lat="45.92309" lon="4.75069">
        <ele>172</ele>
        <time>2018-07-17T10:52:49Z</time>
      </trkpt>
      <trkpt lat="45.92313" lon="4.75062">
        <ele>172</ele>
        <time>2018-07-17T10:52:50Z</time>
      </trkpt>
      <trkpt lat="45.92318" lon="4.75055">
        <ele>172</ele>
        <time>2018-07-17T10:52:51Z</time>
      </trkpt>
      <trkpt lat="45.92321" lon="4.75049">
        <ele>172</ele>
        <time>2018-07-17T10:52:52Z</time>
      </trkpt>
      <trkpt lat="45.92326" lon="4.75044">
        <ele>172</ele>
        <time>2018-07-17T10:52:53Z</time>
      </trkpt>
      <trkpt lat="45.92329" lon="4.75038">
        <ele>171</ele>
        <time>2018-07-17T10:52:54Z</time>
      </trkpt>
      <trkpt lat="45.92333" lon="4.75032">
        <ele>171</ele>
        <time>2018-07-17T10:52:55Z</time>
      </trkpt>
      <trkpt lat="45.92335" lon="4.75024">
        <ele>170</ele>
        <time>2018-07-17T10:52:56Z</time>
      </trkpt>
      <trkpt lat="45.92339" lon="4.75018">
        <ele>170</ele>
        <time>2018-07-17T10:52:57Z</time>
      </trkpt>
      <trkpt lat="45.92341" lon="4.75011">
        <ele>170</ele>
        <time>2018-07-17T10:52:58Z</time>
      </trkpt>
      <trkpt lat="45.92344" lon="4.75005">
        <ele>170</ele>
        <time>2018-07-17T10:52:59Z</time>
      </trkpt>
      <trkpt lat="45.92348" lon="4.74997">
        <ele>170</ele>
        <time>2018-07-17T10:53:00Z</time>
      </trkpt>
      <trkpt lat="45.9235" lon="4.74991">
        <ele>170</ele>
        <time>2018-07-17T10:53:01Z</time>
      </trkpt>
      <trkpt lat="45.92355" lon="4.74982">
        <ele>170</ele>
        <time>2018-07-17T10:53:03Z</time>
      </trkpt>
      <trkpt lat="45.92357" lon="4.74974">
        <ele>170</ele>
        <time>2018-07-17T10:53:04Z</time>
      </trkpt>
      <trkpt lat="45.92359" lon="4.74965">
        <ele>170</ele>
        <time>2018-07-17T10:53:05Z</time>
      </trkpt>
      <trkpt lat="45.92362" lon="4.74959">
        <ele>170</ele>
        <time>2018-07-17T10:53:06Z</time>
      </trkpt>
      <trkpt lat="45.92365" lon="4.7495">
        <ele>170</ele>
        <time>2018-07-17T10:53:07Z</time>
      </trkpt>
      <trkpt lat="45.92367" lon="4.74943">
        <ele>170</ele>
        <time>2018-07-17T10:53:08Z</time>
      </trkpt>
      <trkpt lat="45.92371" lon="4.74935">
        <ele>170</ele>
        <time>2018-07-17T10:53:09Z</time>
      </trkpt>
      <trkpt lat="45.92374" lon="4.74926">
        <ele>170</ele>
        <time>2018-07-17T10:53:10Z</time>
      </trkpt>
      <trkpt lat="45.92379" lon="4.74916">
        <ele>171</ele>
        <time>2018-07-17T10:53:12Z</time>
      </trkpt>
      <trkpt lat="45.92382" lon="4.74911">
        <ele>171</ele>
        <time>2018-07-17T10:53:13Z</time>
      </trkpt>
      <trkpt lat="45.92386" lon="4.74904">
        <ele>171</ele>
        <time>2018-07-17T10:53:14Z</time>
      </trkpt>
      <trkpt lat="45.9239" lon="4.74899">
        <ele>171</ele>
        <time>2018-07-17T10:53:15Z</time>
      </trkpt>
      <trkpt lat="45.92392" lon="4.74892">
        <ele>171</ele>
        <time>2018-07-17T10:53:16Z</time>
      </trkpt>
      <trkpt lat="45.92394" lon="4.74886">
        <ele>171</ele>
        <time>2018-07-17T10:53:17Z</time>
      </trkpt>
      <trkpt lat="45.92397" lon="4.74878">
        <ele>171</ele>
        <time>2018-07-17T10:53:18Z</time>
      </trkpt>
      <trkpt lat="45.92399" lon="4.74872">
        <ele>171</ele>
        <time>2018-07-17T10:53:19Z</time>
      </trkpt>
      <trkpt lat="45.92401" lon="4.74865">
        <ele>171</ele>
        <time>2018-07-17T10:53:20Z</time>
      </trkpt>
      <trkpt lat="45.92402" lon="4.74856">
        <ele>171</ele>
        <time>2018-07-17T10:53:21Z</time>
      </trkpt>
      <trkpt lat="45.92403" lon="4.74847">
        <ele>171</ele>
        <time>2018-07-17T10:53:22Z</time>
      </trkpt>
      <trkpt lat="45.92405" lon="4.74839">
        <ele>171</ele>
        <time>2018-07-17T10:53:23Z</time>
      </trkpt>
      <trkpt lat="45.92407" lon="4.74831">
        <ele>171</ele>
        <time>2018-07-17T10:53:24Z</time>
      </trkpt>
      <trkpt lat="45.92409" lon="4.74824">
        <ele>171</ele>
        <time>2018-07-17T10:53:25Z</time>
      </trkpt>
      <trkpt lat="45.92409" lon="4.74816">
        <ele>171</ele>
        <time>2018-07-17T10:53:26Z</time>
      </trkpt>
      <trkpt lat="45.9241" lon="4.74809">
        <ele>171</ele>
        <time>2018-07-17T10:53:27Z</time>
      </trkpt>
      <trkpt lat="45.92412" lon="4.748">
        <ele>171</ele>
        <time>2018-07-17T10:53:28Z</time>
      </trkpt>
      <trkpt lat="45.92413" lon="4.74792">
        <ele>171</ele>
        <time>2018-07-17T10:53:29Z</time>
      </trkpt>
      <trkpt lat="45.92416" lon="4.74781">
        <ele>171</ele>
        <time>2018-07-17T10:53:30Z</time>
      </trkpt>
      <trkpt lat="45.92418" lon="4.74775">
        <ele>171</ele>
        <time>2018-07-17T10:53:31Z</time>
      </trkpt>
      <trkpt lat="45.9242" lon="4.74767">
        <ele>171</ele>
        <time>2018-07-17T10:53:32Z</time>
      </trkpt>
      <trkpt lat="45.92421" lon="4.74758">
        <ele>172</ele>
        <time>2018-07-17T10:53:33Z</time>
      </trkpt>
      <trkpt lat="45.92423" lon="4.74749">
        <ele>172</ele>
        <time>2018-07-17T10:53:34Z</time>
      </trkpt>
      <trkpt lat="45.92426" lon="4.7474">
        <ele>171</ele>
        <time>2018-07-17T10:53:35Z</time>
      </trkpt>
      <trkpt lat="45.92428" lon="4.74733">
        <ele>171</ele>
        <time>2018-07-17T10:53:36Z</time>
      </trkpt>
      <trkpt lat="45.9243" lon="4.74727">
        <ele>171</ele>
        <time>2018-07-17T10:53:37Z</time>
      </trkpt>
      <trkpt lat="45.92433" lon="4.74719">
        <ele>171</ele>
        <time>2018-07-17T10:53:38Z</time>
      </trkpt>
      <trkpt lat="45.92436" lon="4.74712">
        <ele>171</ele>
        <time>2018-07-17T10:53:39Z</time>
      </trkpt>
      <trkpt lat="45.92437" lon="4.74702">
        <ele>171</ele>
        <time>2018-07-17T10:53:40Z</time>
      </trkpt>
      <trkpt lat="45.9244" lon="4.74695">
        <ele>171</ele>
        <time>2018-07-17T10:53:41Z</time>
      </trkpt>
      <trkpt lat="45.92442" lon="4.74687">
        <ele>171</ele>
        <time>2018-07-17T10:53:42Z</time>
      </trkpt>
      <trkpt lat="45.92445" lon="4.74681">
        <ele>171</ele>
        <time>2018-07-17T10:53:43Z</time>
      </trkpt>
      <trkpt lat="45.92448" lon="4.74675">
        <ele>171</ele>
        <time>2018-07-17T10:53:44Z</time>
      </trkpt>
      <trkpt lat="45.92452" lon="4.74669">
        <ele>171</ele>
        <time>2018-07-17T10:53:45Z</time>
      </trkpt>
      <trkpt lat="45.92453" lon="4.74661">
        <ele>171</ele>
        <time>2018-07-17T10:53:46Z</time>
      </trkpt>
      <trkpt lat="45.92457" lon="4.74654">
        <ele>171</ele>
        <time>2018-07-17T10:53:47Z</time>
      </trkpt>
      <trkpt lat="45.9246" lon="4.74648">
        <ele>171</ele>
        <time>2018-07-17T10:53:48Z</time>
      </trkpt>
      <trkpt lat="45.92462" lon="4.74643">
        <ele>171</ele>
        <time>2018-07-17T10:53:49Z</time>
      </trkpt>
      <trkpt lat="45.92466" lon="4.74636">
        <ele>171</ele>
        <time>2018-07-17T10:53:50Z</time>
      </trkpt>
      <trkpt lat="45.92473" lon="4.74633">
        <ele>171</ele>
        <time>2018-07-17T10:53:51Z</time>
      </trkpt>
      <trkpt lat="45.92477" lon="4.74627">
        <ele>171</ele>
        <time>2018-07-17T10:53:52Z</time>
      </trkpt>
      <trkpt lat="45.92482" lon="4.74622">
        <ele>171</ele>
        <time>2018-07-17T10:53:53Z</time>
      </trkpt>
      <trkpt lat="45.92486" lon="4.74617">
        <ele>171</ele>
        <time>2018-07-17T10:53:54Z</time>
      </trkpt>
      <trkpt lat="45.9249" lon="4.74612">
        <ele>171</ele>
        <time>2018-07-17T10:53:55Z</time>
      </trkpt>
      <trkpt lat="45.92495" lon="4.74606">
        <ele>171</ele>
        <time>2018-07-17T10:53:56Z</time>
      </trkpt>
      <trkpt lat="45.92499" lon="4.74602">
        <ele>171</ele>
        <time>2018-07-17T10:53:57Z</time>
      </trkpt>
      <trkpt lat="45.92504" lon="4.74597">
        <ele>171</ele>
        <time>2018-07-17T10:53:58Z</time>
      </trkpt>
      <trkpt lat="45.92507" lon="4.74589">
        <ele>171</ele>
        <time>2018-07-17T10:53:59Z</time>
      </trkpt>
      <trkpt lat="45.92512" lon="4.74584">
        <ele>171</ele>
        <time>2018-07-17T10:54:00Z</time>
      </trkpt>
      <trkpt lat="45.92518" lon="4.74577">
        <ele>171</ele>
        <time>2018-07-17T10:54:01Z</time>
      </trkpt>
      <trkpt lat="45.92522" lon="4.74573">
        <ele>171</ele>
        <time>2018-07-17T10:54:02Z</time>
      </trkpt>
      <trkpt lat="45.92526" lon="4.74568">
        <ele>171</ele>
        <time>2018-07-17T10:54:03Z</time>
      </trkpt>
      <trkpt lat="45.9253" lon="4.74565">
        <ele>171</ele>
        <time>2018-07-17T10:54:04Z</time>
      </trkpt>
      <trkpt lat="45.92533" lon="4.74559">
        <ele>171</ele>
        <time>2018-07-17T10:54:05Z</time>
      </trkpt>
      <trkpt lat="45.92537" lon="4.74554">
        <ele>171</ele>
        <time>2018-07-17T10:54:06Z</time>
      </trkpt>
      <trkpt lat="45.9254" lon="4.74548">
        <ele>171</ele>
        <time>2018-07-17T10:54:07Z</time>
      </trkpt>
      <trkpt lat="45.92543" lon="4.74542">
        <ele>170</ele>
        <time>2018-07-17T10:54:08Z</time>
      </trkpt>
      <trkpt lat="45.92546" lon="4.74536">
        <ele>170</ele>
        <time>2018-07-17T10:54:09Z</time>
      </trkpt>
      <trkpt lat="45.92549" lon="4.74531">
        <ele>170</ele>
        <time>2018-07-17T10:54:10Z</time>
      </trkpt>
      <trkpt lat="45.92552" lon="4.74526">
        <ele>170</ele>
        <time>2018-07-17T10:54:11Z</time>
      </trkpt>
      <trkpt lat="45.92556" lon="4.7452">
        <ele>170</ele>
        <time>2018-07-17T10:54:12Z</time>
      </trkpt>
      <trkpt lat="45.92559" lon="4.74515">
        <ele>170</ele>
        <time>2018-07-17T10:54:13Z</time>
      </trkpt>
      <trkpt lat="45.92562" lon="4.74508">
        <ele>170</ele>
        <time>2018-07-17T10:54:14Z</time>
      </trkpt>
      <trkpt lat="45.92566" lon="4.74501">
        <ele>170</ele>
        <time>2018-07-17T10:54:15Z</time>
      </trkpt>
      <trkpt lat="45.92568" lon="4.74494">
        <ele>170</ele>
        <time>2018-07-17T10:54:16Z</time>
      </trkpt>
      <trkpt lat="45.92572" lon="4.74488">
        <ele>170</ele>
        <time>2018-07-17T10:54:17Z</time>
      </trkpt>
      <trkpt lat="45.92575" lon="4.74483">
        <ele>170</ele>
        <time>2018-07-17T10:54:18Z</time>
      </trkpt>
      <trkpt lat="45.92578" lon="4.74478">
        <ele>170</ele>
        <time>2018-07-17T10:54:19Z</time>
      </trkpt>
      <trkpt lat="45.92582" lon="4.74468">
        <ele>170</ele>
        <time>2018-07-17T10:54:21Z</time>
      </trkpt>
      <trkpt lat="45.92585" lon="4.74462">
        <ele>170</ele>
        <time>2018-07-17T10:54:22Z</time>
      </trkpt>
      <trkpt lat="45.92591" lon="4.74453">
        <ele>170</ele>
        <time>2018-07-17T10:54:24Z</time>
      </trkpt>
      <trkpt lat="45.92595" lon="4.74449">
        <ele>170</ele>
        <time>2018-07-17T10:54:25Z</time>
      </trkpt>
      <trkpt lat="45.92599" lon="4.74445">
        <ele>170</ele>
        <time>2018-07-17T10:54:26Z</time>
      </trkpt>
      <trkpt lat="45.92603" lon="4.74438">
        <ele>170</ele>
        <time>2018-07-17T10:54:27Z</time>
      </trkpt>
      <trkpt lat="45.92608" lon="4.74432">
        <ele>170</ele>
        <time>2018-07-17T10:54:28Z</time>
      </trkpt>
      <trkpt lat="45.92611" lon="4.74426">
        <ele>170</ele>
        <time>2018-07-17T10:54:29Z</time>
      </trkpt>
      <trkpt lat="45.92614" lon="4.74422">
        <ele>170</ele>
        <time>2018-07-17T10:54:30Z</time>
      </trkpt>
      <trkpt lat="45.92617" lon="4.74415">
        <ele>170</ele>
        <time>2018-07-17T10:54:31Z</time>
      </trkpt>
      <trkpt lat="45.9262" lon="4.7441">
        <ele>170</ele>
        <time>2018-07-17T10:54:32Z</time>
      </trkpt>
      <trkpt lat="45.92623" lon="4.74404">
        <ele>170</ele>
        <time>2018-07-17T10:54:33Z</time>
      </trkpt>
      <trkpt lat="45.92627" lon="4.74398">
        <ele>170</ele>
        <time>2018-07-17T10:54:34Z</time>
      </trkpt>
      <trkpt lat="45.92629" lon="4.74392">
        <ele>170</ele>
        <time>2018-07-17T10:54:35Z</time>
      </trkpt>
      <trkpt lat="45.92634" lon="4.74383">
        <ele>170</ele>
        <time>2018-07-17T10:54:36Z</time>
      </trkpt>
      <trkpt lat="45.92637" lon="4.74377">
        <ele>170</ele>
        <time>2018-07-17T10:54:37Z</time>
      </trkpt>
      <trkpt lat="45.92639" lon="4.74369">
        <ele>171</ele>
        <time>2018-07-17T10:54:38Z</time>
      </trkpt>
      <trkpt lat="45.92642" lon="4.74365">
        <ele>171</ele>
        <time>2018-07-17T10:54:39Z</time>
      </trkpt>
      <trkpt lat="45.92643" lon="4.74358">
        <ele>171</ele>
        <time>2018-07-17T10:54:40Z</time>
      </trkpt>
      <trkpt lat="45.92646" lon="4.74352">
        <ele>171</ele>
        <time>2018-07-17T10:54:41Z</time>
      </trkpt>
      <trkpt lat="45.9265" lon="4.74346">
        <ele>171</ele>
        <time>2018-07-17T10:54:42Z</time>
      </trkpt>
      <trkpt lat="45.92654" lon="4.74339">
        <ele>171</ele>
        <time>2018-07-17T10:54:43Z</time>
      </trkpt>
      <trkpt lat="45.92656" lon="4.74336">
        <ele>171</ele>
        <time>2018-07-17T10:54:44Z</time>
      </trkpt>
      <trkpt lat="45.92659" lon="4.74327">
        <ele>171</ele>
        <time>2018-07-17T10:54:45Z</time>
      </trkpt>
      <trkpt lat="45.92665" lon="4.74318">
        <ele>171</ele>
        <time>2018-07-17T10:54:47Z</time>
      </trkpt>
      <trkpt lat="45.92668" lon="4.74312">
        <ele>171</ele>
        <time>2018-07-17T10:54:48Z</time>
      </trkpt>
      <trkpt lat="45.92671" lon="4.74305">
        <ele>171</ele>
        <time>2018-07-17T10:54:49Z</time>
      </trkpt>
      <trkpt lat="45.92675" lon="4.743">
        <ele>171</ele>
        <time>2018-07-17T10:54:50Z</time>
      </trkpt>
      <trkpt lat="45.92677" lon="4.74295">
        <ele>171</ele>
        <time>2018-07-17T10:54:51Z</time>
      </trkpt>
      <trkpt lat="45.9268" lon="4.74289">
        <ele>171</ele>
        <time>2018-07-17T10:54:52Z</time>
      </trkpt>
      <trkpt lat="45.92684" lon="4.74283">
        <ele>171</ele>
        <time>2018-07-17T10:54:53Z</time>
      </trkpt>
      <trkpt lat="45.92688" lon="4.7428">
        <ele>171</ele>
        <time>2018-07-17T10:54:54Z</time>
      </trkpt>
      <trkpt lat="45.92692" lon="4.7427">
        <ele>171</ele>
        <time>2018-07-17T10:54:55Z</time>
      </trkpt>
      <trkpt lat="45.92695" lon="4.74263">
        <ele>171</ele>
        <time>2018-07-17T10:54:56Z</time>
      </trkpt>
      <trkpt lat="45.92699" lon="4.74257">
        <ele>171</ele>
        <time>2018-07-17T10:54:57Z</time>
      </trkpt>
      <trkpt lat="45.92702" lon="4.74252">
        <ele>171</ele>
        <time>2018-07-17T10:54:58Z</time>
      </trkpt>
      <trkpt lat="45.92705" lon="4.74248">
        <ele>171</ele>
        <time>2018-07-17T10:54:59Z</time>
      </trkpt>
      <trkpt lat="45.92709" lon="4.74242">
        <ele>171</ele>
        <time>2018-07-17T10:55:00Z</time>
      </trkpt>
      <trkpt lat="45.92714" lon="4.74227">
        <ele>171</ele>
        <time>2018-07-17T10:55:01Z</time>
      </trkpt>
      <trkpt lat="45.92718" lon="4.74221">
        <ele>171</ele>
        <time>2018-07-17T10:55:02Z</time>
      </trkpt>
      <trkpt lat="45.92721" lon="4.74208">
        <ele>171</ele>
        <time>2018-07-17T10:55:03Z</time>
      </trkpt>
      <trkpt lat="45.92725" lon="4.742">
        <ele>171</ele>
        <time>2018-07-17T10:55:04Z</time>
      </trkpt>
      <trkpt lat="45.92729" lon="4.74192">
        <ele>171</ele>
        <time>2018-07-17T10:55:05Z</time>
      </trkpt>
      <trkpt lat="45.92737" lon="4.74192">
        <ele>171</ele>
        <time>2018-07-17T10:55:07Z</time>
      </trkpt>
      <trkpt lat="45.92742" lon="4.74189">
        <ele>172</ele>
        <time>2018-07-17T10:55:08Z</time>
      </trkpt>
      <trkpt lat="45.92746" lon="4.74184">
        <ele>172</ele>
        <time>2018-07-17T10:55:09Z</time>
      </trkpt>
      <trkpt lat="45.92751" lon="4.74183">
        <ele>172</ele>
        <time>2018-07-17T10:55:10Z</time>
      </trkpt>
      <trkpt lat="45.92756" lon="4.74178">
        <ele>172</ele>
        <time>2018-07-17T10:55:11Z</time>
      </trkpt>
      <trkpt lat="45.9276" lon="4.74174">
        <ele>172</ele>
        <time>2018-07-17T10:55:12Z</time>
      </trkpt>
      <trkpt lat="45.92765" lon="4.74168">
        <ele>172</ele>
        <time>2018-07-17T10:55:13Z</time>
      </trkpt>
      <trkpt lat="45.92768" lon="4.74164">
        <ele>172</ele>
        <time>2018-07-17T10:55:14Z</time>
      </trkpt>
      <trkpt lat="45.92772" lon="4.7416">
        <ele>172</ele>
        <time>2018-07-17T10:55:15Z</time>
      </trkpt>
      <trkpt lat="45.92776" lon="4.74155">
        <ele>172</ele>
        <time>2018-07-17T10:55:16Z</time>
      </trkpt>
      <trkpt lat="45.9278" lon="4.74152">
        <ele>172</ele>
        <time>2018-07-17T10:55:17Z</time>
      </trkpt>
      <trkpt lat="45.92784" lon="4.74148">
        <ele>172</ele>
        <time>2018-07-17T10:55:18Z</time>
      </trkpt>
      <trkpt lat="45.92789" lon="4.74146">
        <ele>172</ele>
        <time>2018-07-17T10:55:19Z</time>
      </trkpt>
      <trkpt lat="45.92794" lon="4.74144">
        <ele>172</ele>
        <time>2018-07-17T10:55:20Z</time>
      </trkpt>
      <trkpt lat="45.92798" lon="4.74136">
        <ele>172</ele>
        <time>2018-07-17T10:55:21Z</time>
      </trkpt>
      <trkpt lat="45.92802" lon="4.74132">
        <ele>172</ele>
        <time>2018-07-17T10:55:22Z</time>
      </trkpt>
      <trkpt lat="45.92807" lon="4.74127">
        <ele>172</ele>
        <time>2018-07-17T10:55:23Z</time>
      </trkpt>
      <trkpt lat="45.9281" lon="4.74123">
        <ele>172</ele>
        <time>2018-07-17T10:55:24Z</time>
      </trkpt>
      <trkpt lat="45.92815" lon="4.74117">
        <ele>172</ele>
        <time>2018-07-17T10:55:25Z</time>
      </trkpt>
      <trkpt lat="45.9282" lon="4.74114">
        <ele>172</ele>
        <time>2018-07-17T10:55:26Z</time>
      </trkpt>
      <trkpt lat="45.92824" lon="4.7411">
        <ele>171</ele>
        <time>2018-07-17T10:55:27Z</time>
      </trkpt>
      <trkpt lat="45.92829" lon="4.74105">
        <ele>171</ele>
        <time>2018-07-17T10:55:28Z</time>
      </trkpt>
      <trkpt lat="45.92832" lon="4.741">
        <ele>171</ele>
        <time>2018-07-17T10:55:29Z</time>
      </trkpt>
      <trkpt lat="45.92836" lon="4.74095">
        <ele>171</ele>
        <time>2018-07-17T10:55:30Z</time>
      </trkpt>
      <trkpt lat="45.9284" lon="4.74091">
        <ele>171</ele>
        <time>2018-07-17T10:55:31Z</time>
      </trkpt>
      <trkpt lat="45.92844" lon="4.74087">
        <ele>171</ele>
        <time>2018-07-17T10:55:32Z</time>
      </trkpt>
      <trkpt lat="45.92847" lon="4.74082">
        <ele>172</ele>
        <time>2018-07-17T10:55:33Z</time>
      </trkpt>
      <trkpt lat="45.92851" lon="4.74077">
        <ele>172</ele>
        <time>2018-07-17T10:55:34Z</time>
      </trkpt>
      <trkpt lat="45.92855" lon="4.74072">
        <ele>172</ele>
        <time>2018-07-17T10:55:35Z</time>
      </trkpt>
      <trkpt lat="45.92859" lon="4.74067">
        <ele>172</ele>
        <time>2018-07-17T10:55:36Z</time>
      </trkpt>
      <trkpt lat="45.92863" lon="4.74062">
        <ele>172</ele>
        <time>2018-07-17T10:55:37Z</time>
      </trkpt>
      <trkpt lat="45.92866" lon="4.74057">
        <ele>172</ele>
        <time>2018-07-17T10:55:38Z</time>
      </trkpt>
      <trkpt lat="45.92869" lon="4.74052">
        <ele>172</ele>
        <time>2018-07-17T10:55:39Z</time>
      </trkpt>
      <trkpt lat="45.92873" lon="4.74049">
        <ele>172</ele>
        <time>2018-07-17T10:55:40Z</time>
      </trkpt>
      <trkpt lat="45.92878" lon="4.74046">
        <ele>172</ele>
        <time>2018-07-17T10:55:41Z</time>
      </trkpt>
      <trkpt lat="45.92883" lon="4.74045">
        <ele>172</ele>
        <time>2018-07-17T10:55:42Z</time>
      </trkpt>
      <trkpt lat="45.92889" lon="4.74042">
        <ele>172</ele>
        <time>2018-07-17T10:55:43Z</time>
      </trkpt>
      <trkpt lat="45.92894" lon="4.74044">
        <ele>172</ele>
        <time>2018-07-17T10:55:44Z</time>
      </trkpt>
      <trkpt lat="45.92899" lon="4.74044">
        <ele>172</ele>
        <time>2018-07-17T10:55:45Z</time>
      </trkpt>
      <trkpt lat="45.92904" lon="4.74041">
        <ele>172</ele>
        <time>2018-07-17T10:55:46Z</time>
      </trkpt>
      <trkpt lat="45.92908" lon="4.74037">
        <ele>172</ele>
        <time>2018-07-17T10:55:47Z</time>
      </trkpt>
      <trkpt lat="45.92913" lon="4.74032">
        <ele>172</ele>
        <time>2018-07-17T10:55:48Z</time>
      </trkpt>
      <trkpt lat="45.92914" lon="4.74028">
        <ele>172</ele>
        <time>2018-07-17T10:55:49Z</time>
      </trkpt>
      <trkpt lat="45.92918" lon="4.7402">
        <ele>172</ele>
        <time>2018-07-17T10:55:50Z</time>
      </trkpt>
      <trkpt lat="45.92919" lon="4.74012">
        <ele>172</ele>
        <time>2018-07-17T10:55:51Z</time>
      </trkpt>
      <trkpt lat="45.9292" lon="4.74005">
        <ele>172</ele>
        <time>2018-07-17T10:55:52Z</time>
      </trkpt>
      <trkpt lat="45.92919" lon="4.73996">
        <ele>172</ele>
        <time>2018-07-17T10:55:53Z</time>
      </trkpt>
      <trkpt lat="45.92914" lon="4.73992">
        <ele>172</ele>
        <time>2018-07-17T10:55:54Z</time>
      </trkpt>
      <trkpt lat="45.9291" lon="4.73987">
        <ele>172</ele>
        <time>2018-07-17T10:55:55Z</time>
      </trkpt>
      <trkpt lat="45.92906" lon="4.73982">
        <ele>172</ele>
        <time>2018-07-17T10:55:56Z</time>
      </trkpt>
      <trkpt lat="45.92901" lon="4.73977">
        <ele>172</ele>
        <time>2018-07-17T10:55:57Z</time>
      </trkpt>
      <trkpt lat="45.92896" lon="4.73972">
        <ele>172</ele>
        <time>2018-07-17T10:55:58Z</time>
      </trkpt>
      <trkpt lat="45.92894" lon="4.73965">
        <ele>172</ele>
        <time>2018-07-17T10:55:59Z</time>
      </trkpt>
      <trkpt lat="45.92893" lon="4.73958">
        <ele>172</ele>
        <time>2018-07-17T10:56:00Z</time>
      </trkpt>
      <trkpt lat="45.92892" lon="4.7395">
        <ele>172</ele>
        <time>2018-07-17T10:56:01Z</time>
      </trkpt>
      <trkpt lat="45.92892" lon="4.73941">
        <ele>172</ele>
        <time>2018-07-17T10:56:02Z</time>
      </trkpt>
      <trkpt lat="45.92891" lon="4.73932">
        <ele>172</ele>
        <time>2018-07-17T10:56:03Z</time>
      </trkpt>
      <trkpt lat="45.92892" lon="4.73924">
        <ele>172</ele>
        <time>2018-07-17T10:56:04Z</time>
      </trkpt>
      <trkpt lat="45.92892" lon="4.73916">
        <ele>172</ele>
        <time>2018-07-17T10:56:05Z</time>
      </trkpt>
      <trkpt lat="45.92888" lon="4.73909">
        <ele>173</ele>
        <time>2018-07-17T10:56:06Z</time>
      </trkpt>
      <trkpt lat="45.92887" lon="4.73901">
        <ele>173</ele>
        <time>2018-07-17T10:56:07Z</time>
      </trkpt>
      <trkpt lat="45.92885" lon="4.73893">
        <ele>173</ele>
        <time>2018-07-17T10:56:08Z</time>
      </trkpt>
      <trkpt lat="45.92883" lon="4.73885">
        <ele>173</ele>
        <time>2018-07-17T10:56:09Z</time>
      </trkpt>
      <trkpt lat="45.92883" lon="4.73878">
        <ele>173</ele>
        <time>2018-07-17T10:56:10Z</time>
      </trkpt>
      <trkpt lat="45.92882" lon="4.73871">
        <ele>173</ele>
        <time>2018-07-17T10:56:11Z</time>
      </trkpt>
      <trkpt lat="45.92879" lon="4.73863">
        <ele>173</ele>
        <time>2018-07-17T10:56:12Z</time>
      </trkpt>
      <trkpt lat="45.92877" lon="4.73857">
        <ele>173</ele>
        <time>2018-07-17T10:56:13Z</time>
      </trkpt>
      <trkpt lat="45.92864" lon="4.7382">
        <ele>173</ele>
        <time>2018-07-17T10:56:18Z</time>
      </trkpt>
      <trkpt lat="45.92862" lon="4.73812">
        <ele>173</ele>
        <time>2018-07-17T10:56:19Z</time>
      </trkpt>
      <trkpt lat="45.92855" lon="4.73806">
        <ele>173</ele>
        <time>2018-07-17T10:56:20Z</time>
      </trkpt>
      <trkpt lat="45.9285" lon="4.73799">
        <ele>173</ele>
        <time>2018-07-17T10:56:21Z</time>
      </trkpt>
      <trkpt lat="45.92846" lon="4.73793">
        <ele>173</ele>
        <time>2018-07-17T10:56:22Z</time>
      </trkpt>
      <trkpt lat="45.92841" lon="4.73789">
        <ele>173</ele>
        <time>2018-07-17T10:56:23Z</time>
      </trkpt>
      <trkpt lat="45.92837" lon="4.73788">
        <ele>173</ele>
        <time>2018-07-17T10:56:24Z</time>
      </trkpt>
      <trkpt lat="45.92832" lon="4.73784">
        <ele>173</ele>
        <time>2018-07-17T10:56:25Z</time>
      </trkpt>
      <trkpt lat="45.92829" lon="4.73781">
        <ele>173</ele>
        <time>2018-07-17T10:56:26Z</time>
      </trkpt>
      <trkpt lat="45.92824" lon="4.73777">
        <ele>173</ele>
        <time>2018-07-17T10:56:27Z</time>
      </trkpt>
      <trkpt lat="45.92818" lon="4.73774">
        <ele>173</ele>
        <time>2018-07-17T10:56:28Z</time>
      </trkpt>
      <trkpt lat="45.92815" lon="4.7377">
        <ele>173</ele>
        <time>2018-07-17T10:56:29Z</time>
      </trkpt>
      <trkpt lat="45.9281" lon="4.73767">
        <ele>173</ele>
        <time>2018-07-17T10:56:30Z</time>
      </trkpt>
      <trkpt lat="45.92806" lon="4.73764">
        <ele>173</ele>
        <time>2018-07-17T10:56:31Z</time>
      </trkpt>
      <trkpt lat="45.92801" lon="4.73762">
        <ele>173</ele>
        <time>2018-07-17T10:56:32Z</time>
      </trkpt>
      <trkpt lat="45.92796" lon="4.73759">
        <ele>173</ele>
        <time>2018-07-17T10:56:33Z</time>
      </trkpt>
      <trkpt lat="45.92792" lon="4.73757">
        <ele>173</ele>
        <time>2018-07-17T10:56:34Z</time>
      </trkpt>
      <trkpt lat="45.92785" lon="4.7375">
        <ele>172</ele>
        <time>2018-07-17T10:56:36Z</time>
      </trkpt>
      <trkpt lat="45.92783" lon="4.73746">
        <ele>172</ele>
        <time>2018-07-17T10:56:37Z</time>
      </trkpt>
      <trkpt lat="45.92779" lon="4.73741">
        <ele>172</ele>
        <time>2018-07-17T10:56:38Z</time>
      </trkpt>
      <trkpt lat="45.92775" lon="4.73738">
        <ele>172</ele>
        <time>2018-07-17T10:56:39Z</time>
      </trkpt>
      <trkpt lat="45.92771" lon="4.73734">
        <ele>172</ele>
        <time>2018-07-17T10:56:40Z</time>
      </trkpt>
      <trkpt lat="45.92766" lon="4.73731">
        <ele>172</ele>
        <time>2018-07-17T10:56:41Z</time>
      </trkpt>
      <trkpt lat="45.92761" lon="4.73727">
        <ele>172</ele>
        <time>2018-07-17T10:56:42Z</time>
      </trkpt>
      <trkpt lat="45.92754" lon="4.73726">
        <ele>172</ele>
        <time>2018-07-17T10:56:43Z</time>
      </trkpt>
      <trkpt lat="45.92748" lon="4.73724">
        <ele>173</ele>
        <time>2018-07-17T10:56:44Z</time>
      </trkpt>
      <trkpt lat="45.92745" lon="4.73721">
        <ele>173</ele>
        <time>2018-07-17T10:56:45Z</time>
      </trkpt>
      <trkpt lat="45.92739" lon="4.73721">
        <ele>173</ele>
        <time>2018-07-17T10:56:46Z</time>
      </trkpt>
      <trkpt lat="45.92733" lon="4.7372">
        <ele>173</ele>
        <time>2018-07-17T10:56:47Z</time>
      </trkpt>
      <trkpt lat="45.92728" lon="4.73724">
        <ele>173</ele>
        <time>2018-07-17T10:56:48Z</time>
      </trkpt>
      <trkpt lat="45.92722" lon="4.73723">
        <ele>173</ele>
        <time>2018-07-17T10:56:49Z</time>
      </trkpt>
      <trkpt lat="45.92716" lon="4.73721">
        <ele>173</ele>
        <time>2018-07-17T10:56:50Z</time>
      </trkpt>
      <trkpt lat="45.9271" lon="4.73719">
        <ele>173</ele>
        <time>2018-07-17T10:56:51Z</time>
      </trkpt>
      <trkpt lat="45.92704" lon="4.73718">
        <ele>173</ele>
        <time>2018-07-17T10:56:52Z</time>
      </trkpt>
      <trkpt lat="45.92698" lon="4.73716">
        <ele>173</ele>
        <time>2018-07-17T10:56:53Z</time>
      </trkpt>
      <trkpt lat="45.92693" lon="4.73714">
        <ele>173</ele>
        <time>2018-07-17T10:56:54Z</time>
      </trkpt>
      <trkpt lat="45.92687" lon="4.73712">
        <ele>173</ele>
        <time>2018-07-17T10:56:55Z</time>
      </trkpt>
      <trkpt lat="45.92682" lon="4.73709">
        <ele>173</ele>
        <time>2018-07-17T10:56:56Z</time>
      </trkpt>
      <trkpt lat="45.92676" lon="4.73706">
        <ele>173</ele>
        <time>2018-07-17T10:56:57Z</time>
      </trkpt>
      <trkpt lat="45.9267" lon="4.73704">
        <ele>174</ele>
        <time>2018-07-17T10:56:58Z</time>
      </trkpt>
      <trkpt lat="45.92666" lon="4.73702">
        <ele>173</ele>
        <time>2018-07-17T10:56:59Z</time>
      </trkpt>
      <trkpt lat="45.92661" lon="4.737">
        <ele>173</ele>
        <time>2018-07-17T10:57:00Z</time>
      </trkpt>
      <trkpt lat="45.92656" lon="4.73695">
        <ele>173</ele>
        <time>2018-07-17T10:57:01Z</time>
      </trkpt>
      <trkpt lat="45.9265" lon="4.73691">
        <ele>173</ele>
        <time>2018-07-17T10:57:02Z</time>
      </trkpt>
      <trkpt lat="45.92646" lon="4.73688">
        <ele>173</ele>
        <time>2018-07-17T10:57:03Z</time>
      </trkpt>
      <trkpt lat="45.92644" lon="4.73682">
        <ele>173</ele>
        <time>2018-07-17T10:57:04Z</time>
      </trkpt>
      <trkpt lat="45.92639" lon="4.73678">
        <ele>173</ele>
        <time>2018-07-17T10:57:05Z</time>
      </trkpt>
      <trkpt lat="45.92635" lon="4.73673">
        <ele>173</ele>
        <time>2018-07-17T10:57:06Z</time>
      </trkpt>
      <trkpt lat="45.9263" lon="4.73667">
        <ele>173</ele>
        <time>2018-07-17T10:57:07Z</time>
      </trkpt>
      <trkpt lat="45.92625" lon="4.73661">
        <ele>173</ele>
        <time>2018-07-17T10:57:08Z</time>
      </trkpt>
      <trkpt lat="45.92627" lon="4.7365">
        <ele>173</ele>
        <time>2018-07-17T10:57:09Z</time>
      </trkpt>
      <trkpt lat="45.92623" lon="4.73644">
        <ele>173</ele>
        <time>2018-07-17T10:57:10Z</time>
      </trkpt>
      <trkpt lat="45.92625" lon="4.73638">
        <ele>173</ele>
        <time>2018-07-17T10:57:11Z</time>
      </trkpt>
      <trkpt lat="45.92622" lon="4.73632">
        <ele>173</ele>
        <time>2018-07-17T10:57:12Z</time>
      </trkpt>
      <trkpt lat="45.92619" lon="4.73626">
        <ele>173</ele>
        <time>2018-07-17T10:57:13Z</time>
      </trkpt>
      <trkpt lat="45.92613" lon="4.73622">
        <ele>173</ele>
        <time>2018-07-17T10:57:14Z</time>
      </trkpt>
      <trkpt lat="45.92606" lon="4.7362">
        <ele>173</ele>
        <time>2018-07-17T10:57:15Z</time>
      </trkpt>
      <trkpt lat="45.92601" lon="4.73618">
        <ele>173</ele>
        <time>2018-07-17T10:57:16Z</time>
      </trkpt>
      <trkpt lat="45.92595" lon="4.73617">
        <ele>173</ele>
        <time>2018-07-17T10:57:17Z</time>
      </trkpt>
      <trkpt lat="45.92592" lon="4.73617">
        <ele>173</ele>
        <time>2018-07-17T10:57:18Z</time>
      </trkpt>
      <trkpt lat="45.92586" lon="4.73618">
        <ele>173</ele>
        <time>2018-07-17T10:57:19Z</time>
      </trkpt>
      <trkpt lat="45.9258" lon="4.7362">
        <ele>173</ele>
        <time>2018-07-17T10:57:20Z</time>
      </trkpt>
      <trkpt lat="45.92573" lon="4.73619">
        <ele>173</ele>
        <time>2018-07-17T10:57:21Z</time>
      </trkpt>
      <trkpt lat="45.92565" lon="4.73622">
        <ele>173</ele>
        <time>2018-07-17T10:57:22Z</time>
      </trkpt>
      <trkpt lat="45.92559" lon="4.73623">
        <ele>173</ele>
        <time>2018-07-17T10:57:23Z</time>
      </trkpt>
      <trkpt lat="45.92553" lon="4.73626">
        <ele>173</ele>
        <time>2018-07-17T10:57:24Z</time>
      </trkpt>
      <trkpt lat="45.92547" lon="4.73626">
        <ele>173</ele>
        <time>2018-07-17T10:57:25Z</time>
      </trkpt>
      <trkpt lat="45.92541" lon="4.73629">
        <ele>173</ele>
        <time>2018-07-17T10:57:26Z</time>
      </trkpt>
      <trkpt lat="45.92536" lon="4.73629">
        <ele>173</ele>
        <time>2018-07-17T10:57:27Z</time>
      </trkpt>
      <trkpt lat="45.9253" lon="4.73631">
        <ele>173</ele>
        <time>2018-07-17T10:57:28Z</time>
      </trkpt>
      <trkpt lat="45.92524" lon="4.73635">
        <ele>173</ele>
        <time>2018-07-17T10:57:29Z</time>
      </trkpt>
      <trkpt lat="45.92517" lon="4.73639">
        <ele>173</ele>
        <time>2018-07-17T10:57:31Z</time>
      </trkpt>
      <trkpt lat="45.92512" lon="4.73639">
        <ele>174</ele>
        <time>2018-07-17T10:57:32Z</time>
      </trkpt>
      <trkpt lat="45.92505" lon="4.73638">
        <ele>174</ele>
        <time>2018-07-17T10:57:34Z</time>
      </trkpt>
      <trkpt lat="45.92499" lon="4.73639">
        <ele>174</ele>
        <time>2018-07-17T10:57:35Z</time>
      </trkpt>
      <trkpt lat="45.92494" lon="4.73639">
        <ele>174</ele>
        <time>2018-07-17T10:57:36Z</time>
      </trkpt>
      <trkpt lat="45.92489" lon="4.73639">
        <ele>174</ele>
        <time>2018-07-17T10:57:37Z</time>
      </trkpt>
      <trkpt lat="45.92484" lon="4.73639">
        <ele>174</ele>
        <time>2018-07-17T10:57:38Z</time>
      </trkpt>
      <trkpt lat="45.92479" lon="4.7364">
        <ele>174</ele>
        <time>2018-07-17T10:57:39Z</time>
      </trkpt>
      <trkpt lat="45.92472" lon="4.73644">
        <ele>174</ele>
        <time>2018-07-17T10:57:41Z</time>
      </trkpt>
      <trkpt lat="45.9247" lon="4.73646">
        <ele>174</ele>
        <time>2018-07-17T10:57:42Z</time>
      </trkpt>
      <trkpt lat="45.92469" lon="4.73649">
        <ele>174</ele>
        <time>2018-07-17T10:57:43Z</time>
      </trkpt>
      <trkpt lat="45.92465" lon="4.73662">
        <ele>174</ele>
        <time>2018-07-17T10:57:44Z</time>
      </trkpt>
      <trkpt lat="45.92463" lon="4.73673">
        <ele>174</ele>
        <time>2018-07-17T10:57:46Z</time>
      </trkpt>
      <trkpt lat="45.92463" lon="4.7368">
        <ele>174</ele>
        <time>2018-07-17T10:57:47Z</time>
      </trkpt>
      <trkpt lat="45.92463" lon="4.73686">
        <ele>174</ele>
        <time>2018-07-17T10:57:49Z</time>
      </trkpt>
      <trkpt lat="45.92461" lon="4.73693">
        <ele>174</ele>
        <time>2018-07-17T10:57:50Z</time>
      </trkpt>
      <trkpt lat="45.9246" lon="4.73705">
        <ele>174</ele>
        <time>2018-07-17T10:57:54Z</time>
      </trkpt>
      <trkpt lat="45.9246" lon="4.73707">
        <ele>174</ele>
        <time>2018-07-17T10:57:55Z</time>
      </trkpt>
      <trkpt lat="45.92458" lon="4.73712">
        <ele>174</ele>
        <time>2018-07-17T10:58:22Z</time>
      </trkpt>
      <trkpt lat="45.92458" lon="4.73712">
        <ele>174</ele>
        <time>2018-07-17T10:58:23Z</time>
      </trkpt>
      <trkpt lat="45.92457" lon="4.73713">
        <ele>174</ele>
        <time>2018-07-17T10:58:31.681Z</time>
      </trkpt>
    </trkseg>
  </trk>
</gpx>